<?xml version="1.0" encoding="UTF-8" standalone="no" ?>
<gpx xmlns="http://www.topografix.com/GPX/1/1" xmlns:xsi="http://www.w3.org/2001/XMLSchema-instance" xsi:schemaLocation="http://www.topografix.com/GPX/1/1 http://www.topografix.com/GPX/1/1/gpx.xsd" version="1.1" creator="VisuGPX - https://www.visugpx.com">
  <metadata>
    <name>Bri-Buffere-Nevache-Granon-Bri</name>
    <desc><![CDATA[Sortie relativement roulante même si quelques passages en descentes demandent d'être bien aguerri.]]></desc>
  </metadata>
  <trk>
    <name><![CDATA[Bri-Buffere-Nevache-Granon-Bri_1]]></name>
    <trkseg>
      <trkpt lat="44.91514" lon="6.62512">
        <ele>1345.9</ele>
        <time>2023-07-02T07:42:00+0200</time>
      </trkpt>
      <trkpt lat="44.91517" lon="6.62519">
        <ele>1346.9</ele>
        <time>2023-07-02T07:42:03+0200</time>
      </trkpt>
      <trkpt lat="44.91518" lon="6.62527">
        <ele>1347.6</ele>
        <time>2023-07-02T07:42:06+0200</time>
      </trkpt>
      <trkpt lat="44.91521" lon="6.62534">
        <ele>1348.2</ele>
        <time>2023-07-02T07:42:09+0200</time>
      </trkpt>
      <trkpt lat="44.91523" lon="6.62542">
        <ele>1348.8</ele>
        <time>2023-07-02T07:42:12+0200</time>
      </trkpt>
      <trkpt lat="44.91527" lon="6.62547">
        <ele>1349.5</ele>
        <time>2023-07-02T07:42:15+0200</time>
      </trkpt>
      <trkpt lat="44.91533" lon="6.62549">
        <ele>1350.6</ele>
        <time>2023-07-02T07:42:18+0200</time>
      </trkpt>
      <trkpt lat="44.91538" lon="6.62547">
        <ele>1351.4</ele>
        <time>2023-07-02T07:42:21+0200</time>
      </trkpt>
      <trkpt lat="44.91543" lon="6.62545">
        <ele>1352.1</ele>
        <time>2023-07-02T07:42:24+0200</time>
      </trkpt>
      <trkpt lat="44.91544" lon="6.62536">
        <ele>1351.8</ele>
        <time>2023-07-02T07:42:26+0200</time>
      </trkpt>
      <trkpt lat="44.91548" lon="6.62532">
        <ele>1352.1</ele>
        <time>2023-07-02T07:42:29+0200</time>
      </trkpt>
      <trkpt lat="44.91552" lon="6.62531">
        <ele>1352.7</ele>
        <time>2023-07-02T07:42:33+0200</time>
      </trkpt>
      <trkpt lat="44.91558" lon="6.62532">
        <ele>1353.6</ele>
        <time>2023-07-02T07:42:38+0200</time>
      </trkpt>
      <trkpt lat="44.91563" lon="6.62533">
        <ele>1354.4</ele>
        <time>2023-07-02T07:42:41+0200</time>
      </trkpt>
      <trkpt lat="44.91568" lon="6.62535">
        <ele>1355.3</ele>
        <time>2023-07-02T07:42:45+0200</time>
      </trkpt>
      <trkpt lat="44.91573" lon="6.6254">
        <ele>1356.3</ele>
        <time>2023-07-02T07:42:49+0200</time>
      </trkpt>
      <trkpt lat="44.91578" lon="6.62541">
        <ele>1357.2</ele>
        <time>2023-07-02T07:42:52+0200</time>
      </trkpt>
      <trkpt lat="44.91583" lon="6.62544">
        <ele>1358.1</ele>
        <time>2023-07-02T07:42:56+0200</time>
      </trkpt>
      <trkpt lat="44.91587" lon="6.62548">
        <ele>1359</ele>
        <time>2023-07-02T07:42:59+0200</time>
      </trkpt>
      <trkpt lat="44.91589" lon="6.62554">
        <ele>1359.7</ele>
        <time>2023-07-02T07:43:02+0200</time>
      </trkpt>
      <trkpt lat="44.91588" lon="6.62561">
        <ele>1359.9</ele>
        <time>2023-07-02T07:43:07+0200</time>
      </trkpt>
      <trkpt lat="44.91586" lon="6.62568">
        <ele>1359.9</ele>
        <time>2023-07-02T07:43:12+0200</time>
      </trkpt>
      <trkpt lat="44.91584" lon="6.62575">
        <ele>1359.8</ele>
        <time>2023-07-02T07:43:14+0200</time>
      </trkpt>
      <trkpt lat="44.91582" lon="6.62581">
        <ele>1359.6</ele>
        <time>2023-07-02T07:43:16+0200</time>
      </trkpt>
      <trkpt lat="44.91581" lon="6.62588">
        <ele>1359.7</ele>
        <time>2023-07-02T07:43:19+0200</time>
      </trkpt>
      <trkpt lat="44.91583" lon="6.62597">
        <ele>1360.3</ele>
        <time>2023-07-02T07:43:21+0200</time>
      </trkpt>
      <trkpt lat="44.91585" lon="6.62605">
        <ele>1361.1</ele>
        <time>2023-07-02T07:43:23+0200</time>
      </trkpt>
      <trkpt lat="44.91589" lon="6.62612">
        <ele>1362</ele>
        <time>2023-07-02T07:43:26+0200</time>
      </trkpt>
      <trkpt lat="44.91594" lon="6.62614">
        <ele>1363.2</ele>
        <time>2023-07-02T07:43:30+0200</time>
      </trkpt>
      <trkpt lat="44.91599" lon="6.62613">
        <ele>1363.9</ele>
        <time>2023-07-02T07:43:32+0200</time>
      </trkpt>
      <trkpt lat="44.91604" lon="6.62608">
        <ele>1364.7</ele>
        <time>2023-07-02T07:43:36+0200</time>
      </trkpt>
      <trkpt lat="44.9161" lon="6.62606">
        <ele>1365.7</ele>
        <time>2023-07-02T07:43:39+0200</time>
      </trkpt>
      <trkpt lat="44.91615" lon="6.62603">
        <ele>1366.4</ele>
        <time>2023-07-02T07:43:42+0200</time>
      </trkpt>
      <trkpt lat="44.9162" lon="6.62597">
        <ele>1367.3</ele>
        <time>2023-07-02T07:43:45+0200</time>
      </trkpt>
      <trkpt lat="44.91626" lon="6.62598">
        <ele>1368.5</ele>
        <time>2023-07-02T07:43:48+0200</time>
      </trkpt>
      <trkpt lat="44.91631" lon="6.62597">
        <ele>1369.4</ele>
        <time>2023-07-02T07:43:50+0200</time>
      </trkpt>
      <trkpt lat="44.91636" lon="6.62595">
        <ele>1370.2</ele>
        <time>2023-07-02T07:43:53+0200</time>
      </trkpt>
      <trkpt lat="44.91641" lon="6.62597">
        <ele>1371.3</ele>
        <time>2023-07-02T07:43:56+0200</time>
      </trkpt>
      <trkpt lat="44.91647" lon="6.62594">
        <ele>1372.3</ele>
        <time>2023-07-02T07:43:59+0200</time>
      </trkpt>
      <trkpt lat="44.91653" lon="6.62594">
        <ele>1373.3</ele>
        <time>2023-07-02T07:44:04+0200</time>
      </trkpt>
      <trkpt lat="44.91653" lon="6.62602">
        <ele>1373.9</ele>
        <time>2023-07-02T07:44:07+0200</time>
      </trkpt>
      <trkpt lat="44.91652" lon="6.62608">
        <ele>1374</ele>
        <time>2023-07-02T07:44:10+0200</time>
      </trkpt>
      <trkpt lat="44.91649" lon="6.62615">
        <ele>1374</ele>
        <time>2023-07-02T07:44:13+0200</time>
      </trkpt>
      <trkpt lat="44.91644" lon="6.62623">
        <ele>1373.8</ele>
        <time>2023-07-02T07:44:17+0200</time>
      </trkpt>
      <trkpt lat="44.91644" lon="6.62631">
        <ele>1374.3</ele>
        <time>2023-07-02T07:44:20+0200</time>
      </trkpt>
      <trkpt lat="44.91642" lon="6.6264">
        <ele>1374.6</ele>
        <time>2023-07-02T07:44:25+0200</time>
      </trkpt>
      <trkpt lat="44.91642" lon="6.62647">
        <ele>1375.2</ele>
        <time>2023-07-02T07:44:28+0200</time>
      </trkpt>
      <trkpt lat="44.91645" lon="6.62658">
        <ele>1376.5</ele>
        <time>2023-07-02T07:44:33+0200</time>
      </trkpt>
      <trkpt lat="44.91649" lon="6.62665">
        <ele>1378.1</ele>
        <time>2023-07-02T07:44:35+0200</time>
      </trkpt>
      <trkpt lat="44.91654" lon="6.62668">
        <ele>1379.4</ele>
        <time>2023-07-02T07:44:38+0200</time>
      </trkpt>
      <trkpt lat="44.91659" lon="6.62667">
        <ele>1380.3</ele>
        <time>2023-07-02T07:44:41+0200</time>
      </trkpt>
      <trkpt lat="44.91664" lon="6.62665">
        <ele>1381.2</ele>
        <time>2023-07-02T07:44:44+0200</time>
      </trkpt>
      <trkpt lat="44.91668" lon="6.62661">
        <ele>1381.6</ele>
        <time>2023-07-02T07:44:46+0200</time>
      </trkpt>
      <trkpt lat="44.91674" lon="6.62658">
        <ele>1382.7</ele>
        <time>2023-07-02T07:44:49+0200</time>
      </trkpt>
      <trkpt lat="44.91679" lon="6.62654">
        <ele>1383.4</ele>
        <time>2023-07-02T07:44:52+0200</time>
      </trkpt>
      <trkpt lat="44.91683" lon="6.62655">
        <ele>1384.5</ele>
        <time>2023-07-02T07:44:56+0200</time>
      </trkpt>
      <trkpt lat="44.91684" lon="6.62662">
        <ele>1385.5</ele>
        <time>2023-07-02T07:45:01+0200</time>
      </trkpt>
      <trkpt lat="44.91683" lon="6.62671">
        <ele>1386</ele>
        <time>2023-07-02T07:45:05+0200</time>
      </trkpt>
      <trkpt lat="44.91681" lon="6.62678">
        <ele>1386.4</ele>
        <time>2023-07-02T07:45:09+0200</time>
      </trkpt>
      <trkpt lat="44.9168" lon="6.62686">
        <ele>1387</ele>
        <time>2023-07-02T07:45:13+0200</time>
      </trkpt>
      <trkpt lat="44.91681" lon="6.62693">
        <ele>1387.9</ele>
        <time>2023-07-02T07:45:15+0200</time>
      </trkpt>
      <trkpt lat="44.91683" lon="6.62701">
        <ele>1389.5</ele>
        <time>2023-07-02T07:45:17+0200</time>
      </trkpt>
      <trkpt lat="44.91687" lon="6.62708">
        <ele>1391.3</ele>
        <time>2023-07-02T07:45:19+0200</time>
      </trkpt>
      <trkpt lat="44.91693" lon="6.62708">
        <ele>1392.6</ele>
        <time>2023-07-02T07:45:23+0200</time>
      </trkpt>
      <trkpt lat="44.91697" lon="6.62704">
        <ele>1393</ele>
        <time>2023-07-02T07:45:26+0200</time>
      </trkpt>
      <trkpt lat="44.91703" lon="6.62701">
        <ele>1393.6</ele>
        <time>2023-07-02T07:45:29+0200</time>
      </trkpt>
      <trkpt lat="44.91707" lon="6.62698">
        <ele>1394.2</ele>
        <time>2023-07-02T07:45:31+0200</time>
      </trkpt>
      <trkpt lat="44.91708" lon="6.62691">
        <ele>1393.6</ele>
        <time>2023-07-02T07:45:33+0200</time>
      </trkpt>
      <trkpt lat="44.91714" lon="6.62688">
        <ele>1394.7</ele>
        <time>2023-07-02T07:45:35+0200</time>
      </trkpt>
      <trkpt lat="44.91719" lon="6.62684">
        <ele>1395.4</ele>
        <time>2023-07-02T07:45:37+0200</time>
      </trkpt>
      <trkpt lat="44.91724" lon="6.62683">
        <ele>1396.6</ele>
        <time>2023-07-02T07:45:40+0200</time>
      </trkpt>
      <trkpt lat="44.91726" lon="6.62691">
        <ele>1397.6</ele>
        <time>2023-07-02T07:45:44+0200</time>
      </trkpt>
      <trkpt lat="44.91726" lon="6.62698">
        <ele>1398.4</ele>
        <time>2023-07-02T07:45:48+0200</time>
      </trkpt>
      <trkpt lat="44.91724" lon="6.62705">
        <ele>1398.7</ele>
        <time>2023-07-02T07:45:51+0200</time>
      </trkpt>
      <trkpt lat="44.91723" lon="6.62712">
        <ele>1399.1</ele>
        <time>2023-07-02T07:45:54+0200</time>
      </trkpt>
      <trkpt lat="44.91722" lon="6.6272">
        <ele>1399.7</ele>
        <time>2023-07-02T07:45:56+0200</time>
      </trkpt>
      <trkpt lat="44.91722" lon="6.62729">
        <ele>1401.4</ele>
        <time>2023-07-02T07:45:59+0200</time>
      </trkpt>
      <trkpt lat="44.9172" lon="6.62736">
        <ele>1402.4</ele>
        <time>2023-07-02T07:46:03+0200</time>
      </trkpt>
      <trkpt lat="44.91715" lon="6.62743">
        <ele>1402.9</ele>
        <time>2023-07-02T07:46:07+0200</time>
      </trkpt>
      <trkpt lat="44.91711" lon="6.62747">
        <ele>1402.9</ele>
        <time>2023-07-02T07:46:11+0200</time>
      </trkpt>
      <trkpt lat="44.91711" lon="6.62753">
        <ele>1404.3</ele>
        <time>2023-07-02T07:46:12+0200</time>
      </trkpt>
      <trkpt lat="44.91712" lon="6.62761">
        <ele>1406.3</ele>
        <time>2023-07-02T07:46:14+0200</time>
      </trkpt>
      <trkpt lat="44.91716" lon="6.62767">
        <ele>1408.6</ele>
        <time>2023-07-02T07:46:17+0200</time>
      </trkpt>
      <trkpt lat="44.91723" lon="6.6277">
        <ele>1410.5</ele>
        <time>2023-07-02T07:46:21+0200</time>
      </trkpt>
      <trkpt lat="44.91727" lon="6.62773">
        <ele>1411.8</ele>
        <time>2023-07-02T07:46:23+0200</time>
      </trkpt>
      <trkpt lat="44.91733" lon="6.62774">
        <ele>1412.9</ele>
        <time>2023-07-02T07:46:26+0200</time>
      </trkpt>
      <trkpt lat="44.91739" lon="6.62772">
        <ele>1413.4</ele>
        <time>2023-07-02T07:46:29+0200</time>
      </trkpt>
      <trkpt lat="44.91745" lon="6.62772">
        <ele>1414.1</ele>
        <time>2023-07-02T07:46:32+0200</time>
      </trkpt>
      <trkpt lat="44.91751" lon="6.62767">
        <ele>1414.2</ele>
        <time>2023-07-02T07:46:35+0200</time>
      </trkpt>
      <trkpt lat="44.91754" lon="6.62763">
        <ele>1414</ele>
        <time>2023-07-02T07:46:37+0200</time>
      </trkpt>
      <trkpt lat="44.91758" lon="6.62759">
        <ele>1414.3</ele>
        <time>2023-07-02T07:46:40+0200</time>
      </trkpt>
      <trkpt lat="44.91763" lon="6.62751">
        <ele>1414</ele>
        <time>2023-07-02T07:46:43+0200</time>
      </trkpt>
      <trkpt lat="44.91769" lon="6.62751">
        <ele>1415.2</ele>
        <time>2023-07-02T07:46:49+0200</time>
      </trkpt>
      <trkpt lat="44.91768" lon="6.62758">
        <ele>1416</ele>
        <time>2023-07-02T07:46:53+0200</time>
      </trkpt>
      <trkpt lat="44.91764" lon="6.62764">
        <ele>1416</ele>
        <time>2023-07-02T07:46:59+0200</time>
      </trkpt>
      <trkpt lat="44.91761" lon="6.62774">
        <ele>1417.1</ele>
        <time>2023-07-02T07:47:02+0200</time>
      </trkpt>
      <trkpt lat="44.91757" lon="6.6278">
        <ele>1417.3</ele>
        <time>2023-07-02T07:47:05+0200</time>
      </trkpt>
      <trkpt lat="44.91755" lon="6.62786">
        <ele>1418.1</ele>
        <time>2023-07-02T07:47:08+0200</time>
      </trkpt>
      <trkpt lat="44.91752" lon="6.62791">
        <ele>1418.5</ele>
        <time>2023-07-02T07:47:14+0200</time>
      </trkpt>
      <trkpt lat="44.91747" lon="6.62797">
        <ele>1419.1</ele>
        <time>2023-07-02T07:47:19+0200</time>
      </trkpt>
      <trkpt lat="44.9174" lon="6.628">
        <ele>1419.3</ele>
        <time>2023-07-02T07:47:21+0200</time>
      </trkpt>
      <trkpt lat="44.9174" lon="6.62808">
        <ele>1421.5</ele>
        <time>2023-07-02T07:47:24+0200</time>
      </trkpt>
      <trkpt lat="44.91745" lon="6.62812">
        <ele>1422.7</ele>
        <time>2023-07-02T07:47:27+0200</time>
      </trkpt>
      <trkpt lat="44.91751" lon="6.62814">
        <ele>1423.3</ele>
        <time>2023-07-02T07:47:31+0200</time>
      </trkpt>
      <trkpt lat="44.91756" lon="6.62817">
        <ele>1424.6</ele>
        <time>2023-07-02T07:47:33+0200</time>
      </trkpt>
      <trkpt lat="44.91761" lon="6.62815">
        <ele>1424.2</ele>
        <time>2023-07-02T07:47:36+0200</time>
      </trkpt>
      <trkpt lat="44.91767" lon="6.62816">
        <ele>1424.7</ele>
        <time>2023-07-02T07:47:39+0200</time>
      </trkpt>
      <trkpt lat="44.91774" lon="6.62818">
        <ele>1425.5</ele>
        <time>2023-07-02T07:47:42+0200</time>
      </trkpt>
      <trkpt lat="44.91778" lon="6.6282">
        <ele>1426.1</ele>
        <time>2023-07-02T07:47:47+0200</time>
      </trkpt>
      <trkpt lat="44.91782" lon="6.62817">
        <ele>1426.1</ele>
        <time>2023-07-02T07:47:50+0200</time>
      </trkpt>
      <trkpt lat="44.91789" lon="6.62817">
        <ele>1427</ele>
        <time>2023-07-02T07:47:54+0200</time>
      </trkpt>
      <trkpt lat="44.91795" lon="6.62813">
        <ele>1427.2</ele>
        <time>2023-07-02T07:47:56+0200</time>
      </trkpt>
      <trkpt lat="44.918" lon="6.62809">
        <ele>1427.4</ele>
        <time>2023-07-02T07:47:58+0200</time>
      </trkpt>
      <trkpt lat="44.91804" lon="6.628">
        <ele>1427.4</ele>
        <time>2023-07-02T07:48:00+0200</time>
      </trkpt>
      <trkpt lat="44.91807" lon="6.62791">
        <ele>1427.5</ele>
        <time>2023-07-02T07:48:02+0200</time>
      </trkpt>
      <trkpt lat="44.91812" lon="6.62783">
        <ele>1428.7</ele>
        <time>2023-07-02T07:48:04+0200</time>
      </trkpt>
      <trkpt lat="44.91816" lon="6.62774">
        <ele>1430.1</ele>
        <time>2023-07-02T07:48:07+0200</time>
      </trkpt>
      <trkpt lat="44.91818" lon="6.62767">
        <ele>1431</ele>
        <time>2023-07-02T07:48:09+0200</time>
      </trkpt>
      <trkpt lat="44.91819" lon="6.62758">
        <ele>1431.3</ele>
        <time>2023-07-02T07:48:12+0200</time>
      </trkpt>
      <trkpt lat="44.91818" lon="6.6275">
        <ele>1430.8</ele>
        <time>2023-07-02T07:48:16+0200</time>
      </trkpt>
      <trkpt lat="44.9182" lon="6.62743">
        <ele>1431.7</ele>
        <time>2023-07-02T07:48:19+0200</time>
      </trkpt>
      <trkpt lat="44.9182" lon="6.62734">
        <ele>1431.5</ele>
        <time>2023-07-02T07:48:22+0200</time>
      </trkpt>
      <trkpt lat="44.91817" lon="6.62727">
        <ele>1429.9</ele>
        <time>2023-07-02T07:48:25+0200</time>
      </trkpt>
      <trkpt lat="44.91816" lon="6.6272">
        <ele>1429.5</ele>
        <time>2023-07-02T07:48:28+0200</time>
      </trkpt>
      <trkpt lat="44.91817" lon="6.62713">
        <ele>1429.6</ele>
        <time>2023-07-02T07:48:30+0200</time>
      </trkpt>
      <trkpt lat="44.9182" lon="6.62707">
        <ele>1430.5</ele>
        <time>2023-07-02T07:48:32+0200</time>
      </trkpt>
      <trkpt lat="44.91824" lon="6.62701">
        <ele>1431.8</ele>
        <time>2023-07-02T07:48:34+0200</time>
      </trkpt>
      <trkpt lat="44.91829" lon="6.62694">
        <ele>1433.4</ele>
        <time>2023-07-02T07:48:36+0200</time>
      </trkpt>
      <trkpt lat="44.91832" lon="6.62686">
        <ele>1434</ele>
        <time>2023-07-02T07:48:38+0200</time>
      </trkpt>
      <trkpt lat="44.91835" lon="6.6268">
        <ele>1434.6</ele>
        <time>2023-07-02T07:48:40+0200</time>
      </trkpt>
      <trkpt lat="44.9184" lon="6.62674">
        <ele>1436.3</ele>
        <time>2023-07-02T07:48:42+0200</time>
      </trkpt>
      <trkpt lat="44.91841" lon="6.62664">
        <ele>1435.9</ele>
        <time>2023-07-02T07:48:44+0200</time>
      </trkpt>
      <trkpt lat="44.91845" lon="6.62655">
        <ele>1437</ele>
        <time>2023-07-02T07:48:46+0200</time>
      </trkpt>
      <trkpt lat="44.91847" lon="6.62645">
        <ele>1437</ele>
        <time>2023-07-02T07:48:48+0200</time>
      </trkpt>
      <trkpt lat="44.91851" lon="6.62637">
        <ele>1437.9</ele>
        <time>2023-07-02T07:48:50+0200</time>
      </trkpt>
      <trkpt lat="44.91854" lon="6.6263">
        <ele>1438.4</ele>
        <time>2023-07-02T07:48:52+0200</time>
      </trkpt>
      <trkpt lat="44.91853" lon="6.62623">
        <ele>1437.7</ele>
        <time>2023-07-02T07:48:54+0200</time>
      </trkpt>
      <trkpt lat="44.91855" lon="6.62615">
        <ele>1438</ele>
        <time>2023-07-02T07:48:56+0200</time>
      </trkpt>
      <trkpt lat="44.91857" lon="6.62605">
        <ele>1438.1</ele>
        <time>2023-07-02T07:48:58+0200</time>
      </trkpt>
      <trkpt lat="44.91858" lon="6.62597">
        <ele>1437.8</ele>
        <time>2023-07-02T07:49:00+0200</time>
      </trkpt>
      <trkpt lat="44.9186" lon="6.62586">
        <ele>1437.8</ele>
        <time>2023-07-02T07:49:02+0200</time>
      </trkpt>
      <trkpt lat="44.91864" lon="6.62572">
        <ele>1437.7</ele>
        <time>2023-07-02T07:49:05+0200</time>
      </trkpt>
      <trkpt lat="44.91866" lon="6.62563">
        <ele>1437.3</ele>
        <time>2023-07-02T07:49:07+0200</time>
      </trkpt>
      <trkpt lat="44.91867" lon="6.62555">
        <ele>1436.6</ele>
        <time>2023-07-02T07:49:09+0200</time>
      </trkpt>
      <trkpt lat="44.91869" lon="6.62544">
        <ele>1435.4</ele>
        <time>2023-07-02T07:49:12+0200</time>
      </trkpt>
      <trkpt lat="44.91871" lon="6.62535">
        <ele>1434.6</ele>
        <time>2023-07-02T07:49:14+0200</time>
      </trkpt>
      <trkpt lat="44.91874" lon="6.62523">
        <ele>1433.3</ele>
        <time>2023-07-02T07:49:16+0200</time>
      </trkpt>
      <trkpt lat="44.9188" lon="6.62514">
        <ele>1432.9</ele>
        <time>2023-07-02T07:49:18+0200</time>
      </trkpt>
      <trkpt lat="44.91886" lon="6.62507">
        <ele>1432.9</ele>
        <time>2023-07-02T07:49:20+0200</time>
      </trkpt>
      <trkpt lat="44.91894" lon="6.62506">
        <ele>1434.2</ele>
        <time>2023-07-02T07:49:22+0200</time>
      </trkpt>
      <trkpt lat="44.91899" lon="6.62505">
        <ele>1434.6</ele>
        <time>2023-07-02T07:49:23+0200</time>
      </trkpt>
      <trkpt lat="44.91904" lon="6.62504">
        <ele>1435.3</ele>
        <time>2023-07-02T07:49:25+0200</time>
      </trkpt>
      <trkpt lat="44.91909" lon="6.62507">
        <ele>1436.7</ele>
        <time>2023-07-02T07:49:26+0200</time>
      </trkpt>
      <trkpt lat="44.91915" lon="6.62511">
        <ele>1438.9</ele>
        <time>2023-07-02T07:49:28+0200</time>
      </trkpt>
      <trkpt lat="44.9192" lon="6.62514">
        <ele>1440.6</ele>
        <time>2023-07-02T07:49:30+0200</time>
      </trkpt>
      <trkpt lat="44.91929" lon="6.62515">
        <ele>1442.8</ele>
        <time>2023-07-02T07:49:33+0200</time>
      </trkpt>
      <trkpt lat="44.91934" lon="6.62516">
        <ele>1444.2</ele>
        <time>2023-07-02T07:49:35+0200</time>
      </trkpt>
      <trkpt lat="44.91942" lon="6.62514">
        <ele>1445</ele>
        <time>2023-07-02T07:49:37+0200</time>
      </trkpt>
      <trkpt lat="44.91948" lon="6.62512">
        <ele>1445.8</ele>
        <time>2023-07-02T07:49:39+0200</time>
      </trkpt>
      <trkpt lat="44.91952" lon="6.62505">
        <ele>1444.7</ele>
        <time>2023-07-02T07:49:41+0200</time>
      </trkpt>
      <trkpt lat="44.91957" lon="6.625">
        <ele>1444.6</ele>
        <time>2023-07-02T07:49:43+0200</time>
      </trkpt>
      <trkpt lat="44.91961" lon="6.62495">
        <ele>1444.4</ele>
        <time>2023-07-02T07:49:45+0200</time>
      </trkpt>
      <trkpt lat="44.91966" lon="6.62489">
        <ele>1443.8</ele>
        <time>2023-07-02T07:49:47+0200</time>
      </trkpt>
      <trkpt lat="44.91971" lon="6.62483">
        <ele>1443.7</ele>
        <time>2023-07-02T07:49:49+0200</time>
      </trkpt>
      <trkpt lat="44.91974" lon="6.62477">
        <ele>1443.1</ele>
        <time>2023-07-02T07:49:50+0200</time>
      </trkpt>
      <trkpt lat="44.91978" lon="6.62468">
        <ele>1442.8</ele>
        <time>2023-07-02T07:49:52+0200</time>
      </trkpt>
      <trkpt lat="44.91984" lon="6.62461">
        <ele>1443.5</ele>
        <time>2023-07-02T07:49:54+0200</time>
      </trkpt>
      <trkpt lat="44.91989" lon="6.62453">
        <ele>1444.3</ele>
        <time>2023-07-02T07:49:56+0200</time>
      </trkpt>
      <trkpt lat="44.91997" lon="6.62447">
        <ele>1446</ele>
        <time>2023-07-02T07:49:58+0200</time>
      </trkpt>
      <trkpt lat="44.92002" lon="6.62438">
        <ele>1446.6</ele>
        <time>2023-07-02T07:50:00+0200</time>
      </trkpt>
      <trkpt lat="44.92006" lon="6.62429">
        <ele>1446.3</ele>
        <time>2023-07-02T07:50:02+0200</time>
      </trkpt>
      <trkpt lat="44.92008" lon="6.62415">
        <ele>1444.1</ele>
        <time>2023-07-02T07:50:04+0200</time>
      </trkpt>
      <trkpt lat="44.92008" lon="6.62409">
        <ele>1442.9</ele>
        <time>2023-07-02T07:50:05+0200</time>
      </trkpt>
      <trkpt lat="44.92008" lon="6.62402">
        <ele>1441.5</ele>
        <time>2023-07-02T07:50:06+0200</time>
      </trkpt>
      <trkpt lat="44.9201" lon="6.6239">
        <ele>1439.5</ele>
        <time>2023-07-02T07:50:08+0200</time>
      </trkpt>
      <trkpt lat="44.9201" lon="6.62382">
        <ele>1438.2</ele>
        <time>2023-07-02T07:50:09+0200</time>
      </trkpt>
      <trkpt lat="44.92013" lon="6.62375">
        <ele>1437.6</ele>
        <time>2023-07-02T07:50:09+0200</time>
      </trkpt>
      <trkpt lat="44.92016" lon="6.62369">
        <ele>1437.6</ele>
        <time>2023-07-02T07:50:10+0200</time>
      </trkpt>
      <trkpt lat="44.9202" lon="6.62364">
        <ele>1437.9</ele>
        <time>2023-07-02T07:50:11+0200</time>
      </trkpt>
      <trkpt lat="44.92027" lon="6.62359">
        <ele>1439.1</ele>
        <time>2023-07-02T07:50:12+0200</time>
      </trkpt>
      <trkpt lat="44.92033" lon="6.62355">
        <ele>1439.5</ele>
        <time>2023-07-02T07:50:13+0200</time>
      </trkpt>
      <trkpt lat="44.92036" lon="6.62347">
        <ele>1438</ele>
        <time>2023-07-02T07:50:14+0200</time>
      </trkpt>
      <trkpt lat="44.92045" lon="6.62341">
        <ele>1438</ele>
        <time>2023-07-02T07:50:16+0200</time>
      </trkpt>
      <trkpt lat="44.92051" lon="6.6234">
        <ele>1438.9</ele>
        <time>2023-07-02T07:50:17+0200</time>
      </trkpt>
      <trkpt lat="44.92056" lon="6.62341">
        <ele>1440.6</ele>
        <time>2023-07-02T07:50:19+0200</time>
      </trkpt>
      <trkpt lat="44.92062" lon="6.62345">
        <ele>1443</ele>
        <time>2023-07-02T07:50:22+0200</time>
      </trkpt>
      <trkpt lat="44.92066" lon="6.62349">
        <ele>1444.9</ele>
        <time>2023-07-02T07:50:24+0200</time>
      </trkpt>
      <trkpt lat="44.92072" lon="6.62349">
        <ele>1446.1</ele>
        <time>2023-07-02T07:50:27+0200</time>
      </trkpt>
      <trkpt lat="44.92078" lon="6.6235">
        <ele>1447.4</ele>
        <time>2023-07-02T07:50:30+0200</time>
      </trkpt>
      <trkpt lat="44.92085" lon="6.6235">
        <ele>1448.7</ele>
        <time>2023-07-02T07:50:32+0200</time>
      </trkpt>
      <trkpt lat="44.92089" lon="6.62347">
        <ele>1448.8</ele>
        <time>2023-07-02T07:50:33+0200</time>
      </trkpt>
      <trkpt lat="44.92095" lon="6.62346">
        <ele>1449.5</ele>
        <time>2023-07-02T07:50:35+0200</time>
      </trkpt>
      <trkpt lat="44.921" lon="6.62337">
        <ele>1447.7</ele>
        <time>2023-07-02T07:50:37+0200</time>
      </trkpt>
      <trkpt lat="44.92105" lon="6.62333">
        <ele>1447.4</ele>
        <time>2023-07-02T07:50:38+0200</time>
      </trkpt>
      <trkpt lat="44.92109" lon="6.62329">
        <ele>1447.1</ele>
        <time>2023-07-02T07:50:39+0200</time>
      </trkpt>
      <trkpt lat="44.92118" lon="6.6232">
        <ele>1445.5</ele>
        <time>2023-07-02T07:50:41+0200</time>
      </trkpt>
      <trkpt lat="44.92122" lon="6.62315">
        <ele>1444.7</ele>
        <time>2023-07-02T07:50:42+0200</time>
      </trkpt>
      <trkpt lat="44.92128" lon="6.62311">
        <ele>1444.3</ele>
        <time>2023-07-02T07:50:43+0200</time>
      </trkpt>
      <trkpt lat="44.92132" lon="6.62305">
        <ele>1443.5</ele>
        <time>2023-07-02T07:50:44+0200</time>
      </trkpt>
      <trkpt lat="44.92136" lon="6.62301">
        <ele>1442.9</ele>
        <time>2023-07-02T07:50:45+0200</time>
      </trkpt>
      <trkpt lat="44.92146" lon="6.62291">
        <ele>1441.3</ele>
        <time>2023-07-02T07:50:47+0200</time>
      </trkpt>
      <trkpt lat="44.92151" lon="6.62285">
        <ele>1440.3</ele>
        <time>2023-07-02T07:50:48+0200</time>
      </trkpt>
      <trkpt lat="44.92156" lon="6.62282">
        <ele>1440.1</ele>
        <time>2023-07-02T07:50:49+0200</time>
      </trkpt>
      <trkpt lat="44.92162" lon="6.62276">
        <ele>1439.2</ele>
        <time>2023-07-02T07:50:50+0200</time>
      </trkpt>
      <trkpt lat="44.92168" lon="6.6227">
        <ele>1438.5</ele>
        <time>2023-07-02T07:50:51+0200</time>
      </trkpt>
      <trkpt lat="44.92174" lon="6.62266">
        <ele>1438.5</ele>
        <time>2023-07-02T07:50:52+0200</time>
      </trkpt>
      <trkpt lat="44.92181" lon="6.62264">
        <ele>1439.4</ele>
        <time>2023-07-02T07:50:53+0200</time>
      </trkpt>
      <trkpt lat="44.92187" lon="6.62256">
        <ele>1438.3</ele>
        <time>2023-07-02T07:50:54+0200</time>
      </trkpt>
      <trkpt lat="44.92194" lon="6.62253">
        <ele>1438.8</ele>
        <time>2023-07-02T07:50:55+0200</time>
      </trkpt>
      <trkpt lat="44.92201" lon="6.62244">
        <ele>1437.7</ele>
        <time>2023-07-02T07:50:56+0200</time>
      </trkpt>
      <trkpt lat="44.92206" lon="6.62236">
        <ele>1436.5</ele>
        <time>2023-07-02T07:50:57+0200</time>
      </trkpt>
      <trkpt lat="44.92213" lon="6.62229">
        <ele>1435.8</ele>
        <time>2023-07-02T07:50:58+0200</time>
      </trkpt>
      <trkpt lat="44.9222" lon="6.62224">
        <ele>1435.7</ele>
        <time>2023-07-02T07:50:59+0200</time>
      </trkpt>
      <trkpt lat="44.92225" lon="6.62222">
        <ele>1436.8</ele>
        <time>2023-07-02T07:51:00+0200</time>
      </trkpt>
      <trkpt lat="44.92234" lon="6.62219">
        <ele>1438.2</ele>
        <time>2023-07-02T07:51:01+0200</time>
      </trkpt>
      <trkpt lat="44.9224" lon="6.62218">
        <ele>1439.7</ele>
        <time>2023-07-02T07:51:02+0200</time>
      </trkpt>
      <trkpt lat="44.92246" lon="6.62214">
        <ele>1440.1</ele>
        <time>2023-07-02T07:51:03+0200</time>
      </trkpt>
      <trkpt lat="44.92252" lon="6.62207">
        <ele>1439</ele>
        <time>2023-07-02T07:51:04+0200</time>
      </trkpt>
      <trkpt lat="44.92259" lon="6.62205">
        <ele>1439.6</ele>
        <time>2023-07-02T07:51:05+0200</time>
      </trkpt>
      <trkpt lat="44.92267" lon="6.62196">
        <ele>1437.5</ele>
        <time>2023-07-02T07:51:06+0200</time>
      </trkpt>
      <trkpt lat="44.92274" lon="6.62189">
        <ele>1436.5</ele>
        <time>2023-07-02T07:51:07+0200</time>
      </trkpt>
      <trkpt lat="44.9228" lon="6.62177">
        <ele>1433.6</ele>
        <time>2023-07-02T07:51:08+0200</time>
      </trkpt>
      <trkpt lat="44.92286" lon="6.6217">
        <ele>1432.4</ele>
        <time>2023-07-02T07:51:09+0200</time>
      </trkpt>
      <trkpt lat="44.92293" lon="6.62162">
        <ele>1430.9</ele>
        <time>2023-07-02T07:51:10+0200</time>
      </trkpt>
      <trkpt lat="44.923" lon="6.62156">
        <ele>1430.4</ele>
        <time>2023-07-02T07:51:11+0200</time>
      </trkpt>
      <trkpt lat="44.92307" lon="6.62153">
        <ele>1430.8</ele>
        <time>2023-07-02T07:51:12+0200</time>
      </trkpt>
      <trkpt lat="44.92314" lon="6.62151">
        <ele>1430.9</ele>
        <time>2023-07-02T07:51:13+0200</time>
      </trkpt>
      <trkpt lat="44.92324" lon="6.62147">
        <ele>1430.8</ele>
        <time>2023-07-02T07:51:14+0200</time>
      </trkpt>
      <trkpt lat="44.92332" lon="6.62145">
        <ele>1430.8</ele>
        <time>2023-07-02T07:51:15+0200</time>
      </trkpt>
      <trkpt lat="44.92339" lon="6.62144">
        <ele>1431.3</ele>
        <time>2023-07-02T07:51:16+0200</time>
      </trkpt>
      <trkpt lat="44.92347" lon="6.62144">
        <ele>1432.3</ele>
        <time>2023-07-02T07:51:17+0200</time>
      </trkpt>
      <trkpt lat="44.92355" lon="6.62142">
        <ele>1432.3</ele>
        <time>2023-07-02T07:51:18+0200</time>
      </trkpt>
      <trkpt lat="44.92362" lon="6.6214">
        <ele>1432.6</ele>
        <time>2023-07-02T07:51:19+0200</time>
      </trkpt>
      <trkpt lat="44.92369" lon="6.62138">
        <ele>1432.2</ele>
        <time>2023-07-02T07:51:20+0200</time>
      </trkpt>
      <trkpt lat="44.92375" lon="6.62128">
        <ele>1429.3</ele>
        <time>2023-07-02T07:51:21+0200</time>
      </trkpt>
      <trkpt lat="44.92379" lon="6.62123">
        <ele>1427.8</ele>
        <time>2023-07-02T07:51:22+0200</time>
      </trkpt>
      <trkpt lat="44.92381" lon="6.62115">
        <ele>1425.3</ele>
        <time>2023-07-02T07:51:23+0200</time>
      </trkpt>
      <trkpt lat="44.92383" lon="6.62108">
        <ele>1423.9</ele>
        <time>2023-07-02T07:51:24+0200</time>
      </trkpt>
      <trkpt lat="44.92386" lon="6.62103">
        <ele>1423.7</ele>
        <time>2023-07-02T07:51:26+0200</time>
      </trkpt>
      <trkpt lat="44.92388" lon="6.62096">
        <ele>1423.2</ele>
        <time>2023-07-02T07:51:28+0200</time>
      </trkpt>
      <trkpt lat="44.9239" lon="6.62089">
        <ele>1422.8</ele>
        <time>2023-07-02T07:51:31+0200</time>
      </trkpt>
      <trkpt lat="44.92392" lon="6.62083">
        <ele>1423</ele>
        <time>2023-07-02T07:51:32+0200</time>
      </trkpt>
      <trkpt lat="44.92394" lon="6.62076">
        <ele>1424</ele>
        <time>2023-07-02T07:51:37+0200</time>
      </trkpt>
      <trkpt lat="44.924" lon="6.6207">
        <ele>1426.2</ele>
        <time>2023-07-02T07:51:40+0200</time>
      </trkpt>
      <trkpt lat="44.92403" lon="6.62065">
        <ele>1427.8</ele>
        <time>2023-07-02T07:51:43+0200</time>
      </trkpt>
      <trkpt lat="44.92405" lon="6.62059">
        <ele>1429.1</ele>
        <time>2023-07-02T07:51:46+0200</time>
      </trkpt>
      <trkpt lat="44.92407" lon="6.62051">
        <ele>1431.3</ele>
        <time>2023-07-02T07:51:50+0200</time>
      </trkpt>
      <trkpt lat="44.92411" lon="6.62045">
        <ele>1434.1</ele>
        <time>2023-07-02T07:51:54+0200</time>
      </trkpt>
      <trkpt lat="44.92414" lon="6.6204">
        <ele>1436.4</ele>
        <time>2023-07-02T07:51:58+0200</time>
      </trkpt>
      <trkpt lat="44.92415" lon="6.62033">
        <ele>1438.2</ele>
        <time>2023-07-02T07:52:03+0200</time>
      </trkpt>
      <trkpt lat="44.92413" lon="6.62023">
        <ele>1440.1</ele>
        <time>2023-07-02T07:52:06+0200</time>
      </trkpt>
      <trkpt lat="44.9241" lon="6.62016">
        <ele>1440.5</ele>
        <time>2023-07-02T07:52:08+0200</time>
      </trkpt>
      <trkpt lat="44.92405" lon="6.62011">
        <ele>1440.4</ele>
        <time>2023-07-02T07:52:10+0200</time>
      </trkpt>
      <trkpt lat="44.92399" lon="6.62004">
        <ele>1440.1</ele>
        <time>2023-07-02T07:52:12+0200</time>
      </trkpt>
      <trkpt lat="44.92393" lon="6.61996">
        <ele>1440.2</ele>
        <time>2023-07-02T07:52:14+0200</time>
      </trkpt>
      <trkpt lat="44.92386" lon="6.61989">
        <ele>1439.5</ele>
        <time>2023-07-02T07:52:16+0200</time>
      </trkpt>
      <trkpt lat="44.92382" lon="6.61981">
        <ele>1439.9</ele>
        <time>2023-07-02T07:52:18+0200</time>
      </trkpt>
      <trkpt lat="44.92376" lon="6.61976">
        <ele>1439.4</ele>
        <time>2023-07-02T07:52:20+0200</time>
      </trkpt>
      <trkpt lat="44.9237" lon="6.61973">
        <ele>1438.4</ele>
        <time>2023-07-02T07:52:22+0200</time>
      </trkpt>
      <trkpt lat="44.92365" lon="6.61964">
        <ele>1438.8</ele>
        <time>2023-07-02T07:52:23+0200</time>
      </trkpt>
      <trkpt lat="44.92361" lon="6.61961">
        <ele>1438.3</ele>
        <time>2023-07-02T07:52:24+0200</time>
      </trkpt>
      <trkpt lat="44.92355" lon="6.61956">
        <ele>1437.7</ele>
        <time>2023-07-02T07:52:26+0200</time>
      </trkpt>
      <trkpt lat="44.92346" lon="6.6195">
        <ele>1436.5</ele>
        <time>2023-07-02T07:52:29+0200</time>
      </trkpt>
      <trkpt lat="44.92343" lon="6.61943">
        <ele>1437</ele>
        <time>2023-07-02T07:52:31+0200</time>
      </trkpt>
      <trkpt lat="44.92338" lon="6.61937">
        <ele>1436.2</ele>
        <time>2023-07-02T07:52:32+0200</time>
      </trkpt>
      <trkpt lat="44.92333" lon="6.61934">
        <ele>1435.4</ele>
        <time>2023-07-02T07:52:33+0200</time>
      </trkpt>
      <trkpt lat="44.92328" lon="6.61927">
        <ele>1435.1</ele>
        <time>2023-07-02T07:52:34+0200</time>
      </trkpt>
      <trkpt lat="44.92322" lon="6.61921">
        <ele>1435</ele>
        <time>2023-07-02T07:52:36+0200</time>
      </trkpt>
      <trkpt lat="44.92318" lon="6.61915">
        <ele>1434.8</ele>
        <time>2023-07-02T07:52:37+0200</time>
      </trkpt>
      <trkpt lat="44.92314" lon="6.61913">
        <ele>1433.7</ele>
        <time>2023-07-02T07:52:38+0200</time>
      </trkpt>
      <trkpt lat="44.92309" lon="6.61909">
        <ele>1433</ele>
        <time>2023-07-02T07:52:39+0200</time>
      </trkpt>
      <trkpt lat="44.92307" lon="6.61901">
        <ele>1432.8</ele>
        <time>2023-07-02T07:52:41+0200</time>
      </trkpt>
      <trkpt lat="44.92312" lon="6.61891">
        <ele>1433.7</ele>
        <time>2023-07-02T07:52:43+0200</time>
      </trkpt>
      <trkpt lat="44.92314" lon="6.61884">
        <ele>1433.2</ele>
        <time>2023-07-02T07:52:44+0200</time>
      </trkpt>
      <trkpt lat="44.92319" lon="6.61877">
        <ele>1432.7</ele>
        <time>2023-07-02T07:52:45+0200</time>
      </trkpt>
      <trkpt lat="44.92323" lon="6.61872">
        <ele>1432.5</ele>
        <time>2023-07-02T07:52:46+0200</time>
      </trkpt>
      <trkpt lat="44.92329" lon="6.61866">
        <ele>1432.2</ele>
        <time>2023-07-02T07:52:47+0200</time>
      </trkpt>
      <trkpt lat="44.92334" lon="6.61862">
        <ele>1432.2</ele>
        <time>2023-07-02T07:52:48+0200</time>
      </trkpt>
      <trkpt lat="44.9234" lon="6.61855">
        <ele>1431.2</ele>
        <time>2023-07-02T07:52:49+0200</time>
      </trkpt>
      <trkpt lat="44.92346" lon="6.61851">
        <ele>1430.7</ele>
        <time>2023-07-02T07:52:50+0200</time>
      </trkpt>
      <trkpt lat="44.92354" lon="6.61846">
        <ele>1430.3</ele>
        <time>2023-07-02T07:52:51+0200</time>
      </trkpt>
      <trkpt lat="44.92361" lon="6.61841">
        <ele>1429.8</ele>
        <time>2023-07-02T07:52:52+0200</time>
      </trkpt>
      <trkpt lat="44.92369" lon="6.61838">
        <ele>1429.7</ele>
        <time>2023-07-02T07:52:53+0200</time>
      </trkpt>
      <trkpt lat="44.92377" lon="6.61834">
        <ele>1429.9</ele>
        <time>2023-07-02T07:52:54+0200</time>
      </trkpt>
      <trkpt lat="44.92384" lon="6.61831">
        <ele>1429.8</ele>
        <time>2023-07-02T07:52:55+0200</time>
      </trkpt>
      <trkpt lat="44.92391" lon="6.61828">
        <ele>1429.8</ele>
        <time>2023-07-02T07:52:56+0200</time>
      </trkpt>
      <trkpt lat="44.92397" lon="6.61827">
        <ele>1430.3</ele>
        <time>2023-07-02T07:52:57+0200</time>
      </trkpt>
      <trkpt lat="44.92402" lon="6.61823">
        <ele>1429.7</ele>
        <time>2023-07-02T07:52:58+0200</time>
      </trkpt>
      <trkpt lat="44.92407" lon="6.61817">
        <ele>1428.9</ele>
        <time>2023-07-02T07:52:59+0200</time>
      </trkpt>
      <trkpt lat="44.92411" lon="6.61814">
        <ele>1428.6</ele>
        <time>2023-07-02T07:53:00+0200</time>
      </trkpt>
      <trkpt lat="44.92416" lon="6.61809">
        <ele>1428</ele>
        <time>2023-07-02T07:53:01+0200</time>
      </trkpt>
      <trkpt lat="44.92421" lon="6.61804">
        <ele>1427.3</ele>
        <time>2023-07-02T07:53:02+0200</time>
      </trkpt>
      <trkpt lat="44.92426" lon="6.618">
        <ele>1427.2</ele>
        <time>2023-07-02T07:53:03+0200</time>
      </trkpt>
      <trkpt lat="44.92431" lon="6.61798">
        <ele>1427.5</ele>
        <time>2023-07-02T07:53:04+0200</time>
      </trkpt>
      <trkpt lat="44.92436" lon="6.61794">
        <ele>1427.2</ele>
        <time>2023-07-02T07:53:05+0200</time>
      </trkpt>
      <trkpt lat="44.92441" lon="6.61791">
        <ele>1427.1</ele>
        <time>2023-07-02T07:53:06+0200</time>
      </trkpt>
      <trkpt lat="44.92446" lon="6.61787">
        <ele>1427</ele>
        <time>2023-07-02T07:53:07+0200</time>
      </trkpt>
      <trkpt lat="44.92452" lon="6.61783">
        <ele>1427.2</ele>
        <time>2023-07-02T07:53:08+0200</time>
      </trkpt>
      <trkpt lat="44.92458" lon="6.61779">
        <ele>1427.2</ele>
        <time>2023-07-02T07:53:09+0200</time>
      </trkpt>
      <trkpt lat="44.92464" lon="6.61775">
        <ele>1427.4</ele>
        <time>2023-07-02T07:53:10+0200</time>
      </trkpt>
      <trkpt lat="44.92469" lon="6.61773">
        <ele>1427.8</ele>
        <time>2023-07-02T07:53:11+0200</time>
      </trkpt>
      <trkpt lat="44.92475" lon="6.61769">
        <ele>1428.2</ele>
        <time>2023-07-02T07:53:12+0200</time>
      </trkpt>
      <trkpt lat="44.9248" lon="6.61766">
        <ele>1428.8</ele>
        <time>2023-07-02T07:53:13+0200</time>
      </trkpt>
      <trkpt lat="44.92484" lon="6.61753">
        <ele>1426.3</ele>
        <time>2023-07-02T07:53:15+0200</time>
      </trkpt>
      <trkpt lat="44.92484" lon="6.61738">
        <ele>1422.7</ele>
        <time>2023-07-02T07:53:17+0200</time>
      </trkpt>
      <trkpt lat="44.92485" lon="6.61729">
        <ele>1420.9</ele>
        <time>2023-07-02T07:53:18+0200</time>
      </trkpt>
      <trkpt lat="44.92482" lon="6.61717">
        <ele>1418</ele>
        <time>2023-07-02T07:53:19+0200</time>
      </trkpt>
      <trkpt lat="44.92483" lon="6.61703">
        <ele>1416</ele>
        <time>2023-07-02T07:53:20+0200</time>
      </trkpt>
      <trkpt lat="44.92484" lon="6.61694">
        <ele>1414.8</ele>
        <time>2023-07-02T07:53:21+0200</time>
      </trkpt>
      <trkpt lat="44.92484" lon="6.61678">
        <ele>1412.9</ele>
        <time>2023-07-02T07:53:22+0200</time>
      </trkpt>
      <trkpt lat="44.92492" lon="6.61669">
        <ele>1414.5</ele>
        <time>2023-07-02T07:53:23+0200</time>
      </trkpt>
      <trkpt lat="44.92494" lon="6.61658">
        <ele>1414.5</ele>
        <time>2023-07-02T07:53:24+0200</time>
      </trkpt>
      <trkpt lat="44.92496" lon="6.61646">
        <ele>1414.1</ele>
        <time>2023-07-02T07:53:25+0200</time>
      </trkpt>
      <trkpt lat="44.92498" lon="6.61635">
        <ele>1414.1</ele>
        <time>2023-07-02T07:53:26+0200</time>
      </trkpt>
      <trkpt lat="44.925" lon="6.61624">
        <ele>1413.4</ele>
        <time>2023-07-02T07:53:27+0200</time>
      </trkpt>
      <trkpt lat="44.92498" lon="6.61614">
        <ele>1411.8</ele>
        <time>2023-07-02T07:53:28+0200</time>
      </trkpt>
      <trkpt lat="44.92498" lon="6.61604">
        <ele>1410.9</ele>
        <time>2023-07-02T07:53:29+0200</time>
      </trkpt>
      <trkpt lat="44.92498" lon="6.61596">
        <ele>1410.3</ele>
        <time>2023-07-02T07:53:30+0200</time>
      </trkpt>
      <trkpt lat="44.92499" lon="6.61587">
        <ele>1410</ele>
        <time>2023-07-02T07:53:31+0200</time>
      </trkpt>
      <trkpt lat="44.92507" lon="6.6158">
        <ele>1412</ele>
        <time>2023-07-02T07:53:32+0200</time>
      </trkpt>
      <trkpt lat="44.92515" lon="6.61572">
        <ele>1413.5</ele>
        <time>2023-07-02T07:53:33+0200</time>
      </trkpt>
      <trkpt lat="44.92512" lon="6.61562">
        <ele>1412.3</ele>
        <time>2023-07-02T07:53:35+0200</time>
      </trkpt>
      <trkpt lat="44.9251" lon="6.61555">
        <ele>1411.5</ele>
        <time>2023-07-02T07:53:36+0200</time>
      </trkpt>
      <trkpt lat="44.92508" lon="6.61549">
        <ele>1410.8</ele>
        <time>2023-07-02T07:53:37+0200</time>
      </trkpt>
      <trkpt lat="44.92508" lon="6.61539">
        <ele>1410.4</ele>
        <time>2023-07-02T07:53:38+0200</time>
      </trkpt>
      <trkpt lat="44.92508" lon="6.61525">
        <ele>1410.1</ele>
        <time>2023-07-02T07:53:39+0200</time>
      </trkpt>
      <trkpt lat="44.92508" lon="6.61516">
        <ele>1409.8</ele>
        <time>2023-07-02T07:53:40+0200</time>
      </trkpt>
      <trkpt lat="44.92506" lon="6.61506">
        <ele>1409.3</ele>
        <time>2023-07-02T07:53:41+0200</time>
      </trkpt>
      <trkpt lat="44.92507" lon="6.61498">
        <ele>1409.4</ele>
        <time>2023-07-02T07:53:42+0200</time>
      </trkpt>
      <trkpt lat="44.92505" lon="6.6149">
        <ele>1409</ele>
        <time>2023-07-02T07:53:43+0200</time>
      </trkpt>
      <trkpt lat="44.925" lon="6.6148">
        <ele>1407.9</ele>
        <time>2023-07-02T07:53:44+0200</time>
      </trkpt>
      <trkpt lat="44.92497" lon="6.6147">
        <ele>1407.4</ele>
        <time>2023-07-02T07:53:45+0200</time>
      </trkpt>
      <trkpt lat="44.92497" lon="6.61458">
        <ele>1406.9</ele>
        <time>2023-07-02T07:53:46+0200</time>
      </trkpt>
      <trkpt lat="44.92501" lon="6.61448">
        <ele>1407.2</ele>
        <time>2023-07-02T07:53:47+0200</time>
      </trkpt>
      <trkpt lat="44.92506" lon="6.61439">
        <ele>1407.1</ele>
        <time>2023-07-02T07:53:48+0200</time>
      </trkpt>
      <trkpt lat="44.92513" lon="6.61433">
        <ele>1407.2</ele>
        <time>2023-07-02T07:53:49+0200</time>
      </trkpt>
      <trkpt lat="44.92518" lon="6.61426">
        <ele>1407</ele>
        <time>2023-07-02T07:53:50+0200</time>
      </trkpt>
      <trkpt lat="44.92523" lon="6.61418">
        <ele>1406.6</ele>
        <time>2023-07-02T07:53:51+0200</time>
      </trkpt>
      <trkpt lat="44.92528" lon="6.61409">
        <ele>1406.5</ele>
        <time>2023-07-02T07:53:52+0200</time>
      </trkpt>
      <trkpt lat="44.92532" lon="6.61399">
        <ele>1406.1</ele>
        <time>2023-07-02T07:53:53+0200</time>
      </trkpt>
      <trkpt lat="44.92534" lon="6.6139">
        <ele>1405.5</ele>
        <time>2023-07-02T07:53:54+0200</time>
      </trkpt>
      <trkpt lat="44.92537" lon="6.6138">
        <ele>1403.5</ele>
        <time>2023-07-02T07:53:55+0200</time>
      </trkpt>
      <trkpt lat="44.9254" lon="6.61368">
        <ele>1401.2</ele>
        <time>2023-07-02T07:53:56+0200</time>
      </trkpt>
      <trkpt lat="44.92547" lon="6.6136">
        <ele>1400.6</ele>
        <time>2023-07-02T07:53:57+0200</time>
      </trkpt>
      <trkpt lat="44.92553" lon="6.61352">
        <ele>1399.3</ele>
        <time>2023-07-02T07:53:58+0200</time>
      </trkpt>
      <trkpt lat="44.92558" lon="6.61342">
        <ele>1397.3</ele>
        <time>2023-07-02T07:53:59+0200</time>
      </trkpt>
      <trkpt lat="44.92564" lon="6.61335">
        <ele>1395.6</ele>
        <time>2023-07-02T07:54:00+0200</time>
      </trkpt>
      <trkpt lat="44.9257" lon="6.6133">
        <ele>1394.8</ele>
        <time>2023-07-02T07:54:01+0200</time>
      </trkpt>
      <trkpt lat="44.92577" lon="6.6133">
        <ele>1395.1</ele>
        <time>2023-07-02T07:54:02+0200</time>
      </trkpt>
      <trkpt lat="44.92582" lon="6.61336">
        <ele>1396.5</ele>
        <time>2023-07-02T07:54:03+0200</time>
      </trkpt>
      <trkpt lat="44.92589" lon="6.61338">
        <ele>1397.4</ele>
        <time>2023-07-02T07:54:04+0200</time>
      </trkpt>
      <trkpt lat="44.92598" lon="6.61339">
        <ele>1397.8</ele>
        <time>2023-07-02T07:54:05+0200</time>
      </trkpt>
      <trkpt lat="44.92607" lon="6.61337">
        <ele>1397.7</ele>
        <time>2023-07-02T07:54:06+0200</time>
      </trkpt>
      <trkpt lat="44.92616" lon="6.61336">
        <ele>1397.9</ele>
        <time>2023-07-02T07:54:07+0200</time>
      </trkpt>
      <trkpt lat="44.92625" lon="6.6133">
        <ele>1397.4</ele>
        <time>2023-07-02T07:54:08+0200</time>
      </trkpt>
      <trkpt lat="44.92633" lon="6.61318">
        <ele>1395.7</ele>
        <time>2023-07-02T07:54:09+0200</time>
      </trkpt>
      <trkpt lat="44.9264" lon="6.61312">
        <ele>1395.4</ele>
        <time>2023-07-02T07:54:10+0200</time>
      </trkpt>
      <trkpt lat="44.92646" lon="6.61307">
        <ele>1395.3</ele>
        <time>2023-07-02T07:54:11+0200</time>
      </trkpt>
      <trkpt lat="44.92652" lon="6.61296">
        <ele>1394.9</ele>
        <time>2023-07-02T07:54:12+0200</time>
      </trkpt>
      <trkpt lat="44.92655" lon="6.61291">
        <ele>1394.8</ele>
        <time>2023-07-02T07:54:13+0200</time>
      </trkpt>
      <trkpt lat="44.92661" lon="6.61281">
        <ele>1394.5</ele>
        <time>2023-07-02T07:54:14+0200</time>
      </trkpt>
      <trkpt lat="44.92665" lon="6.61278">
        <ele>1394.8</ele>
        <time>2023-07-02T07:54:15+0200</time>
      </trkpt>
      <trkpt lat="44.92669" lon="6.61272">
        <ele>1394.7</ele>
        <time>2023-07-02T07:54:16+0200</time>
      </trkpt>
      <trkpt lat="44.92674" lon="6.61262">
        <ele>1394.4</ele>
        <time>2023-07-02T07:54:18+0200</time>
      </trkpt>
      <trkpt lat="44.92678" lon="6.61257">
        <ele>1394.3</ele>
        <time>2023-07-02T07:54:19+0200</time>
      </trkpt>
      <trkpt lat="44.92686" lon="6.61249">
        <ele>1394.7</ele>
        <time>2023-07-02T07:54:21+0200</time>
      </trkpt>
      <trkpt lat="44.9269" lon="6.61247">
        <ele>1395.1</ele>
        <time>2023-07-02T07:54:22+0200</time>
      </trkpt>
      <trkpt lat="44.92697" lon="6.61246">
        <ele>1395.9</ele>
        <time>2023-07-02T07:54:24+0200</time>
      </trkpt>
      <trkpt lat="44.92704" lon="6.61243">
        <ele>1396.7</ele>
        <time>2023-07-02T07:54:26+0200</time>
      </trkpt>
      <trkpt lat="44.9271" lon="6.61241">
        <ele>1397.3</ele>
        <time>2023-07-02T07:54:27+0200</time>
      </trkpt>
      <trkpt lat="44.92716" lon="6.6124">
        <ele>1398</ele>
        <time>2023-07-02T07:54:29+0200</time>
      </trkpt>
      <trkpt lat="44.92723" lon="6.61236">
        <ele>1398.5</ele>
        <time>2023-07-02T07:54:31+0200</time>
      </trkpt>
      <trkpt lat="44.92729" lon="6.61232">
        <ele>1399</ele>
        <time>2023-07-02T07:54:34+0200</time>
      </trkpt>
      <trkpt lat="44.92734" lon="6.61226">
        <ele>1399</ele>
        <time>2023-07-02T07:54:36+0200</time>
      </trkpt>
      <trkpt lat="44.92742" lon="6.6122">
        <ele>1399.6</ele>
        <time>2023-07-02T07:54:38+0200</time>
      </trkpt>
      <trkpt lat="44.92747" lon="6.61213">
        <ele>1399.7</ele>
        <time>2023-07-02T07:54:40+0200</time>
      </trkpt>
      <trkpt lat="44.92754" lon="6.61205">
        <ele>1399.7</ele>
        <time>2023-07-02T07:54:42+0200</time>
      </trkpt>
      <trkpt lat="44.92758" lon="6.61201">
        <ele>1399.8</ele>
        <time>2023-07-02T07:54:43+0200</time>
      </trkpt>
      <trkpt lat="44.92763" lon="6.61193">
        <ele>1399.7</ele>
        <time>2023-07-02T07:54:45+0200</time>
      </trkpt>
      <trkpt lat="44.92767" lon="6.61185">
        <ele>1399.5</ele>
        <time>2023-07-02T07:54:47+0200</time>
      </trkpt>
      <trkpt lat="44.92771" lon="6.61183">
        <ele>1399.8</ele>
        <time>2023-07-02T07:54:48+0200</time>
      </trkpt>
      <trkpt lat="44.92777" lon="6.61186">
        <ele>1401</ele>
        <time>2023-07-02T07:54:50+0200</time>
      </trkpt>
      <trkpt lat="44.92777" lon="6.61193">
        <ele>1401.7</ele>
        <time>2023-07-02T07:54:51+0200</time>
      </trkpt>
      <trkpt lat="44.92779" lon="6.612">
        <ele>1402.7</ele>
        <time>2023-07-02T07:54:53+0200</time>
      </trkpt>
      <trkpt lat="44.92783" lon="6.61205">
        <ele>1403.5</ele>
        <time>2023-07-02T07:54:54+0200</time>
      </trkpt>
      <trkpt lat="44.92786" lon="6.61212">
        <ele>1404.4</ele>
        <time>2023-07-02T07:54:56+0200</time>
      </trkpt>
      <trkpt lat="44.92791" lon="6.61219">
        <ele>1405.7</ele>
        <time>2023-07-02T07:54:58+0200</time>
      </trkpt>
      <trkpt lat="44.92796" lon="6.6122">
        <ele>1406.5</ele>
        <time>2023-07-02T07:55:02+0200</time>
      </trkpt>
      <trkpt lat="44.928" lon="6.61224">
        <ele>1407.3</ele>
        <time>2023-07-02T07:55:03+0200</time>
      </trkpt>
      <trkpt lat="44.92806" lon="6.61224">
        <ele>1408.1</ele>
        <time>2023-07-02T07:55:04+0200</time>
      </trkpt>
      <trkpt lat="44.92811" lon="6.61222">
        <ele>1409.2</ele>
        <time>2023-07-02T07:55:06+0200</time>
      </trkpt>
      <trkpt lat="44.92817" lon="6.61215">
        <ele>1410.2</ele>
        <time>2023-07-02T07:55:08+0200</time>
      </trkpt>
      <trkpt lat="44.92822" lon="6.61206">
        <ele>1411</ele>
        <time>2023-07-02T07:55:10+0200</time>
      </trkpt>
      <trkpt lat="44.92824" lon="6.61196">
        <ele>1411.5</ele>
        <time>2023-07-02T07:55:12+0200</time>
      </trkpt>
      <trkpt lat="44.92828" lon="6.61189">
        <ele>1412.4</ele>
        <time>2023-07-02T07:55:14+0200</time>
      </trkpt>
      <trkpt lat="44.92829" lon="6.61183">
        <ele>1412.6</ele>
        <time>2023-07-02T07:55:16+0200</time>
      </trkpt>
      <trkpt lat="44.92832" lon="6.61174">
        <ele>1413.5</ele>
        <time>2023-07-02T07:55:18+0200</time>
      </trkpt>
      <trkpt lat="44.92835" lon="6.61168">
        <ele>1414.5</ele>
        <time>2023-07-02T07:55:20+0200</time>
      </trkpt>
      <trkpt lat="44.92837" lon="6.61161">
        <ele>1414.9</ele>
        <time>2023-07-02T07:55:23+0200</time>
      </trkpt>
      <trkpt lat="44.92835" lon="6.61155">
        <ele>1413.9</ele>
        <time>2023-07-02T07:55:25+0200</time>
      </trkpt>
      <trkpt lat="44.92839" lon="6.61149">
        <ele>1415</ele>
        <time>2023-07-02T07:55:27+0200</time>
      </trkpt>
      <trkpt lat="44.92842" lon="6.61143">
        <ele>1415.7</ele>
        <time>2023-07-02T07:55:29+0200</time>
      </trkpt>
      <trkpt lat="44.92844" lon="6.61135">
        <ele>1415.8</ele>
        <time>2023-07-02T07:55:31+0200</time>
      </trkpt>
      <trkpt lat="44.92847" lon="6.61129">
        <ele>1415.9</ele>
        <time>2023-07-02T07:55:33+0200</time>
      </trkpt>
      <trkpt lat="44.9285" lon="6.61122">
        <ele>1416.2</ele>
        <time>2023-07-02T07:55:35+0200</time>
      </trkpt>
      <trkpt lat="44.92853" lon="6.61116">
        <ele>1416.2</ele>
        <time>2023-07-02T07:55:37+0200</time>
      </trkpt>
      <trkpt lat="44.92857" lon="6.61111">
        <ele>1416.5</ele>
        <time>2023-07-02T07:55:39+0200</time>
      </trkpt>
      <trkpt lat="44.92861" lon="6.61107">
        <ele>1417.2</ele>
        <time>2023-07-02T07:55:42+0200</time>
      </trkpt>
      <trkpt lat="44.92865" lon="6.61101">
        <ele>1417.8</ele>
        <time>2023-07-02T07:55:45+0200</time>
      </trkpt>
      <trkpt lat="44.92869" lon="6.61097">
        <ele>1418.5</ele>
        <time>2023-07-02T07:55:47+0200</time>
      </trkpt>
      <trkpt lat="44.92874" lon="6.61092">
        <ele>1419</ele>
        <time>2023-07-02T07:55:50+0200</time>
      </trkpt>
      <trkpt lat="44.92879" lon="6.61088">
        <ele>1419.8</ele>
        <time>2023-07-02T07:55:53+0200</time>
      </trkpt>
      <trkpt lat="44.92884" lon="6.61086">
        <ele>1421.2</ele>
        <time>2023-07-02T07:55:56+0200</time>
      </trkpt>
      <trkpt lat="44.9289" lon="6.61081">
        <ele>1421.7</ele>
        <time>2023-07-02T07:55:59+0200</time>
      </trkpt>
      <trkpt lat="44.92896" lon="6.6108">
        <ele>1423</ele>
        <time>2023-07-02T07:56:02+0200</time>
      </trkpt>
      <trkpt lat="44.92902" lon="6.61078">
        <ele>1424.2</ele>
        <time>2023-07-02T07:56:05+0200</time>
      </trkpt>
      <trkpt lat="44.92908" lon="6.61076">
        <ele>1425.4</ele>
        <time>2023-07-02T07:56:08+0200</time>
      </trkpt>
      <trkpt lat="44.92913" lon="6.61075">
        <ele>1426.2</ele>
        <time>2023-07-02T07:56:10+0200</time>
      </trkpt>
      <trkpt lat="44.92919" lon="6.61072">
        <ele>1427</ele>
        <time>2023-07-02T07:56:13+0200</time>
      </trkpt>
      <trkpt lat="44.92924" lon="6.6107">
        <ele>1427.7</ele>
        <time>2023-07-02T07:56:15+0200</time>
      </trkpt>
      <trkpt lat="44.92929" lon="6.61067">
        <ele>1428.2</ele>
        <time>2023-07-02T07:56:17+0200</time>
      </trkpt>
      <trkpt lat="44.92935" lon="6.61061">
        <ele>1428.1</ele>
        <time>2023-07-02T07:56:20+0200</time>
      </trkpt>
      <trkpt lat="44.9294" lon="6.61057">
        <ele>1428.5</ele>
        <time>2023-07-02T07:56:22+0200</time>
      </trkpt>
      <trkpt lat="44.92945" lon="6.61051">
        <ele>1428.5</ele>
        <time>2023-07-02T07:56:24+0200</time>
      </trkpt>
      <trkpt lat="44.9295" lon="6.61047">
        <ele>1429.5</ele>
        <time>2023-07-02T07:56:26+0200</time>
      </trkpt>
      <trkpt lat="44.92956" lon="6.61045">
        <ele>1430.8</ele>
        <time>2023-07-02T07:56:28+0200</time>
      </trkpt>
      <trkpt lat="44.92962" lon="6.61039">
        <ele>1431.9</ele>
        <time>2023-07-02T07:56:30+0200</time>
      </trkpt>
      <trkpt lat="44.92966" lon="6.61033">
        <ele>1432.5</ele>
        <time>2023-07-02T07:56:32+0200</time>
      </trkpt>
      <trkpt lat="44.92968" lon="6.61025">
        <ele>1432.9</ele>
        <time>2023-07-02T07:56:34+0200</time>
      </trkpt>
      <trkpt lat="44.92968" lon="6.61017">
        <ele>1433.4</ele>
        <time>2023-07-02T07:56:36+0200</time>
      </trkpt>
      <trkpt lat="44.92965" lon="6.61008">
        <ele>1433.3</ele>
        <time>2023-07-02T07:56:39+0200</time>
      </trkpt>
      <trkpt lat="44.92962" lon="6.61002">
        <ele>1432.5</ele>
        <time>2023-07-02T07:56:42+0200</time>
      </trkpt>
      <trkpt lat="44.92963" lon="6.60995">
        <ele>1433.7</ele>
        <time>2023-07-02T07:56:44+0200</time>
      </trkpt>
      <trkpt lat="44.92962" lon="6.60988">
        <ele>1434.8</ele>
        <time>2023-07-02T07:56:46+0200</time>
      </trkpt>
      <trkpt lat="44.92959" lon="6.60981">
        <ele>1434.7</ele>
        <time>2023-07-02T07:56:49+0200</time>
      </trkpt>
      <trkpt lat="44.92957" lon="6.60974">
        <ele>1435.3</ele>
        <time>2023-07-02T07:56:52+0200</time>
      </trkpt>
      <trkpt lat="44.92957" lon="6.60966">
        <ele>1436</ele>
        <time>2023-07-02T07:56:55+0200</time>
      </trkpt>
      <trkpt lat="44.92957" lon="6.60958">
        <ele>1437.2</ele>
        <time>2023-07-02T07:56:57+0200</time>
      </trkpt>
      <trkpt lat="44.92958" lon="6.6095">
        <ele>1438.2</ele>
        <time>2023-07-02T07:56:59+0200</time>
      </trkpt>
      <trkpt lat="44.92958" lon="6.6094">
        <ele>1439</ele>
        <time>2023-07-02T07:57:02+0200</time>
      </trkpt>
      <trkpt lat="44.9296" lon="6.60932">
        <ele>1439.9</ele>
        <time>2023-07-02T07:57:04+0200</time>
      </trkpt>
      <trkpt lat="44.92963" lon="6.60927">
        <ele>1441.1</ele>
        <time>2023-07-02T07:57:06+0200</time>
      </trkpt>
      <trkpt lat="44.92961" lon="6.60917">
        <ele>1441.1</ele>
        <time>2023-07-02T07:57:09+0200</time>
      </trkpt>
      <trkpt lat="44.9296" lon="6.60909">
        <ele>1440.7</ele>
        <time>2023-07-02T07:57:12+0200</time>
      </trkpt>
      <trkpt lat="44.92963" lon="6.60903">
        <ele>1441.5</ele>
        <time>2023-07-02T07:57:13+0200</time>
      </trkpt>
      <trkpt lat="44.92963" lon="6.60895">
        <ele>1441.6</ele>
        <time>2023-07-02T07:57:15+0200</time>
      </trkpt>
      <trkpt lat="44.92966" lon="6.6089">
        <ele>1442.8</ele>
        <time>2023-07-02T07:57:17+0200</time>
      </trkpt>
      <trkpt lat="44.92969" lon="6.60883">
        <ele>1443.9</ele>
        <time>2023-07-02T07:57:19+0200</time>
      </trkpt>
      <trkpt lat="44.92971" lon="6.60877">
        <ele>1444.7</ele>
        <time>2023-07-02T07:57:22+0200</time>
      </trkpt>
      <trkpt lat="44.92974" lon="6.60871">
        <ele>1445.4</ele>
        <time>2023-07-02T07:57:25+0200</time>
      </trkpt>
      <trkpt lat="44.92977" lon="6.60864">
        <ele>1446.2</ele>
        <time>2023-07-02T07:57:29+0200</time>
      </trkpt>
      <trkpt lat="44.9298" lon="6.60857">
        <ele>1446.8</ele>
        <time>2023-07-02T07:57:31+0200</time>
      </trkpt>
      <trkpt lat="44.92984" lon="6.60852">
        <ele>1447.8</ele>
        <time>2023-07-02T07:57:34+0200</time>
      </trkpt>
      <trkpt lat="44.92987" lon="6.60844">
        <ele>1448.4</ele>
        <time>2023-07-02T07:57:37+0200</time>
      </trkpt>
      <trkpt lat="44.92989" lon="6.60838">
        <ele>1448.8</ele>
        <time>2023-07-02T07:57:41+0200</time>
      </trkpt>
      <trkpt lat="44.92991" lon="6.60832">
        <ele>1449.3</ele>
        <time>2023-07-02T07:57:45+0200</time>
      </trkpt>
      <trkpt lat="44.92994" lon="6.60827">
        <ele>1449.9</ele>
        <time>2023-07-02T07:57:47+0200</time>
      </trkpt>
      <trkpt lat="44.92998" lon="6.60821">
        <ele>1451</ele>
        <time>2023-07-02T07:57:50+0200</time>
      </trkpt>
      <trkpt lat="44.93" lon="6.60813">
        <ele>1451.3</ele>
        <time>2023-07-02T07:57:53+0200</time>
      </trkpt>
      <trkpt lat="44.93002" lon="6.60805">
        <ele>1451.3</ele>
        <time>2023-07-02T07:57:55+0200</time>
      </trkpt>
      <trkpt lat="44.93004" lon="6.60797">
        <ele>1451.1</ele>
        <time>2023-07-02T07:57:58+0200</time>
      </trkpt>
      <trkpt lat="44.93007" lon="6.6079">
        <ele>1450.9</ele>
        <time>2023-07-02T07:58:01+0200</time>
      </trkpt>
      <trkpt lat="44.93009" lon="6.60783">
        <ele>1450.7</ele>
        <time>2023-07-02T07:58:03+0200</time>
      </trkpt>
      <trkpt lat="44.93014" lon="6.60775">
        <ele>1451.1</ele>
        <time>2023-07-02T07:58:06+0200</time>
      </trkpt>
      <trkpt lat="44.93018" lon="6.6077">
        <ele>1451.8</ele>
        <time>2023-07-02T07:58:08+0200</time>
      </trkpt>
      <trkpt lat="44.93021" lon="6.60765">
        <ele>1452.2</ele>
        <time>2023-07-02T07:58:10+0200</time>
      </trkpt>
      <trkpt lat="44.93026" lon="6.60759">
        <ele>1453.2</ele>
        <time>2023-07-02T07:58:12+0200</time>
      </trkpt>
      <trkpt lat="44.93031" lon="6.60751">
        <ele>1453.6</ele>
        <time>2023-07-02T07:58:14+0200</time>
      </trkpt>
      <trkpt lat="44.93036" lon="6.60743">
        <ele>1453.6</ele>
        <time>2023-07-02T07:58:16+0200</time>
      </trkpt>
      <trkpt lat="44.93042" lon="6.60737">
        <ele>1454</ele>
        <time>2023-07-02T07:58:18+0200</time>
      </trkpt>
      <trkpt lat="44.93047" lon="6.6073">
        <ele>1454.6</ele>
        <time>2023-07-02T07:58:20+0200</time>
      </trkpt>
      <trkpt lat="44.93054" lon="6.60721">
        <ele>1455.4</ele>
        <time>2023-07-02T07:58:22+0200</time>
      </trkpt>
      <trkpt lat="44.93058" lon="6.60716">
        <ele>1455.5</ele>
        <time>2023-07-02T07:58:23+0200</time>
      </trkpt>
      <trkpt lat="44.93062" lon="6.60712">
        <ele>1455.5</ele>
        <time>2023-07-02T07:58:24+0200</time>
      </trkpt>
      <trkpt lat="44.93066" lon="6.60708">
        <ele>1455.4</ele>
        <time>2023-07-02T07:58:25+0200</time>
      </trkpt>
      <trkpt lat="44.9307" lon="6.60704">
        <ele>1455.4</ele>
        <time>2023-07-02T07:58:26+0200</time>
      </trkpt>
      <trkpt lat="44.93074" lon="6.60698">
        <ele>1455.3</ele>
        <time>2023-07-02T07:58:27+0200</time>
      </trkpt>
      <trkpt lat="44.93079" lon="6.60693">
        <ele>1455.4</ele>
        <time>2023-07-02T07:58:28+0200</time>
      </trkpt>
      <trkpt lat="44.93083" lon="6.60689">
        <ele>1455.4</ele>
        <time>2023-07-02T07:58:29+0200</time>
      </trkpt>
      <trkpt lat="44.93088" lon="6.60682">
        <ele>1455.1</ele>
        <time>2023-07-02T07:58:30+0200</time>
      </trkpt>
      <trkpt lat="44.93092" lon="6.60677">
        <ele>1455</ele>
        <time>2023-07-02T07:58:31+0200</time>
      </trkpt>
      <trkpt lat="44.93096" lon="6.60671">
        <ele>1454.8</ele>
        <time>2023-07-02T07:58:32+0200</time>
      </trkpt>
      <trkpt lat="44.93101" lon="6.60667">
        <ele>1454.9</ele>
        <time>2023-07-02T07:58:33+0200</time>
      </trkpt>
      <trkpt lat="44.93105" lon="6.60661">
        <ele>1454.8</ele>
        <time>2023-07-02T07:58:34+0200</time>
      </trkpt>
      <trkpt lat="44.93109" lon="6.60655">
        <ele>1454.6</ele>
        <time>2023-07-02T07:58:35+0200</time>
      </trkpt>
      <trkpt lat="44.93113" lon="6.60648">
        <ele>1454.2</ele>
        <time>2023-07-02T07:58:36+0200</time>
      </trkpt>
      <trkpt lat="44.93116" lon="6.60641">
        <ele>1453.7</ele>
        <time>2023-07-02T07:58:37+0200</time>
      </trkpt>
      <trkpt lat="44.9312" lon="6.60635">
        <ele>1453.4</ele>
        <time>2023-07-02T07:58:38+0200</time>
      </trkpt>
      <trkpt lat="44.93124" lon="6.60628">
        <ele>1453.2</ele>
        <time>2023-07-02T07:58:39+0200</time>
      </trkpt>
      <trkpt lat="44.93128" lon="6.60622">
        <ele>1453</ele>
        <time>2023-07-02T07:58:40+0200</time>
      </trkpt>
      <trkpt lat="44.93134" lon="6.60617">
        <ele>1453</ele>
        <time>2023-07-02T07:58:41+0200</time>
      </trkpt>
      <trkpt lat="44.93139" lon="6.60612">
        <ele>1453</ele>
        <time>2023-07-02T07:58:42+0200</time>
      </trkpt>
      <trkpt lat="44.93144" lon="6.60606">
        <ele>1452.4</ele>
        <time>2023-07-02T07:58:43+0200</time>
      </trkpt>
      <trkpt lat="44.93149" lon="6.60603">
        <ele>1452.5</ele>
        <time>2023-07-02T07:58:43+0200</time>
      </trkpt>
      <trkpt lat="44.93156" lon="6.60599">
        <ele>1452.6</ele>
        <time>2023-07-02T07:58:44+0200</time>
      </trkpt>
      <trkpt lat="44.93162" lon="6.60595">
        <ele>1452.8</ele>
        <time>2023-07-02T07:58:46+0200</time>
      </trkpt>
      <trkpt lat="44.93169" lon="6.60595">
        <ele>1453.5</ele>
        <time>2023-07-02T07:58:47+0200</time>
      </trkpt>
      <trkpt lat="44.93176" lon="6.60588">
        <ele>1453.5</ele>
        <time>2023-07-02T07:58:48+0200</time>
      </trkpt>
      <trkpt lat="44.93181" lon="6.60582">
        <ele>1453.3</ele>
        <time>2023-07-02T07:58:49+0200</time>
      </trkpt>
      <trkpt lat="44.93187" lon="6.60577">
        <ele>1453.2</ele>
        <time>2023-07-02T07:58:50+0200</time>
      </trkpt>
      <trkpt lat="44.93191" lon="6.60571">
        <ele>1452.8</ele>
        <time>2023-07-02T07:58:51+0200</time>
      </trkpt>
      <trkpt lat="44.93197" lon="6.60564">
        <ele>1452.7</ele>
        <time>2023-07-02T07:58:52+0200</time>
      </trkpt>
      <trkpt lat="44.93202" lon="6.6056">
        <ele>1452.8</ele>
        <time>2023-07-02T07:58:53+0200</time>
      </trkpt>
      <trkpt lat="44.93208" lon="6.60555">
        <ele>1453.4</ele>
        <time>2023-07-02T07:58:54+0200</time>
      </trkpt>
      <trkpt lat="44.93213" lon="6.60551">
        <ele>1453.8</ele>
        <time>2023-07-02T07:58:55+0200</time>
      </trkpt>
      <trkpt lat="44.93218" lon="6.60544">
        <ele>1453.9</ele>
        <time>2023-07-02T07:58:56+0200</time>
      </trkpt>
      <trkpt lat="44.93221" lon="6.60536">
        <ele>1453.7</ele>
        <time>2023-07-02T07:58:57+0200</time>
      </trkpt>
      <trkpt lat="44.93223" lon="6.60528">
        <ele>1453.2</ele>
        <time>2023-07-02T07:58:58+0200</time>
      </trkpt>
      <trkpt lat="44.93225" lon="6.6052">
        <ele>1452.6</ele>
        <time>2023-07-02T07:58:59+0200</time>
      </trkpt>
      <trkpt lat="44.93227" lon="6.60511">
        <ele>1451.9</ele>
        <time>2023-07-02T07:59:00+0200</time>
      </trkpt>
      <trkpt lat="44.9323" lon="6.605">
        <ele>1451.4</ele>
        <time>2023-07-02T07:59:01+0200</time>
      </trkpt>
      <trkpt lat="44.93233" lon="6.60491">
        <ele>1450.8</ele>
        <time>2023-07-02T07:59:02+0200</time>
      </trkpt>
      <trkpt lat="44.93238" lon="6.60485">
        <ele>1450.9</ele>
        <time>2023-07-02T07:59:03+0200</time>
      </trkpt>
      <trkpt lat="44.93241" lon="6.60476">
        <ele>1450.6</ele>
        <time>2023-07-02T07:59:04+0200</time>
      </trkpt>
      <trkpt lat="44.93245" lon="6.60468">
        <ele>1450.3</ele>
        <time>2023-07-02T07:59:05+0200</time>
      </trkpt>
      <trkpt lat="44.93247" lon="6.60459">
        <ele>1450</ele>
        <time>2023-07-02T07:59:06+0200</time>
      </trkpt>
      <trkpt lat="44.93251" lon="6.6045">
        <ele>1449.7</ele>
        <time>2023-07-02T07:59:07+0200</time>
      </trkpt>
      <trkpt lat="44.93255" lon="6.60443">
        <ele>1449.4</ele>
        <time>2023-07-02T07:59:08+0200</time>
      </trkpt>
      <trkpt lat="44.93261" lon="6.60436">
        <ele>1448.9</ele>
        <time>2023-07-02T07:59:09+0200</time>
      </trkpt>
      <trkpt lat="44.93265" lon="6.60429">
        <ele>1448.1</ele>
        <time>2023-07-02T07:59:10+0200</time>
      </trkpt>
      <trkpt lat="44.9327" lon="6.60421">
        <ele>1447</ele>
        <time>2023-07-02T07:59:11+0200</time>
      </trkpt>
      <trkpt lat="44.93275" lon="6.60414">
        <ele>1446</ele>
        <time>2023-07-02T07:59:12+0200</time>
      </trkpt>
      <trkpt lat="44.93281" lon="6.60407">
        <ele>1444.2</ele>
        <time>2023-07-02T07:59:13+0200</time>
      </trkpt>
      <trkpt lat="44.9329" lon="6.60406">
        <ele>1443.8</ele>
        <time>2023-07-02T07:59:14+0200</time>
      </trkpt>
      <trkpt lat="44.93299" lon="6.60403">
        <ele>1443.1</ele>
        <time>2023-07-02T07:59:15+0200</time>
      </trkpt>
      <trkpt lat="44.9331" lon="6.604">
        <ele>1442.5</ele>
        <time>2023-07-02T07:59:16+0200</time>
      </trkpt>
      <trkpt lat="44.93317" lon="6.60401">
        <ele>1443</ele>
        <time>2023-07-02T07:59:17+0200</time>
      </trkpt>
      <trkpt lat="44.93326" lon="6.60409">
        <ele>1445.2</ele>
        <time>2023-07-02T07:59:18+0200</time>
      </trkpt>
      <trkpt lat="44.93334" lon="6.60412">
        <ele>1446.2</ele>
        <time>2023-07-02T07:59:19+0200</time>
      </trkpt>
      <trkpt lat="44.9334" lon="6.60412">
        <ele>1446.7</ele>
        <time>2023-07-02T07:59:20+0200</time>
      </trkpt>
      <trkpt lat="44.93343" lon="6.60409">
        <ele>1446.7</ele>
        <time>2023-07-02T07:59:21+0200</time>
      </trkpt>
      <trkpt lat="44.93344" lon="6.60401">
        <ele>1445.5</ele>
        <time>2023-07-02T07:59:22+0200</time>
      </trkpt>
      <trkpt lat="44.93343" lon="6.60391">
        <ele>1443.4</ele>
        <time>2023-07-02T07:59:23+0200</time>
      </trkpt>
      <trkpt lat="44.93341" lon="6.60384">
        <ele>1442.8</ele>
        <time>2023-07-02T07:59:24+0200</time>
      </trkpt>
      <trkpt lat="44.93337" lon="6.60377">
        <ele>1441.9</ele>
        <time>2023-07-02T07:59:25+0200</time>
      </trkpt>
      <trkpt lat="44.93333" lon="6.60366">
        <ele>1441</ele>
        <time>2023-07-02T07:59:26+0200</time>
      </trkpt>
      <trkpt lat="44.93326" lon="6.60359">
        <ele>1439.4</ele>
        <time>2023-07-02T07:59:27+0200</time>
      </trkpt>
      <trkpt lat="44.93321" lon="6.6035">
        <ele>1438.3</ele>
        <time>2023-07-02T07:59:28+0200</time>
      </trkpt>
      <trkpt lat="44.9332" lon="6.60337">
        <ele>1437.7</ele>
        <time>2023-07-02T07:59:29+0200</time>
      </trkpt>
      <trkpt lat="44.9332" lon="6.60326">
        <ele>1437.6</ele>
        <time>2023-07-02T07:59:30+0200</time>
      </trkpt>
      <trkpt lat="44.93325" lon="6.60315">
        <ele>1438.7</ele>
        <time>2023-07-02T07:59:31+0200</time>
      </trkpt>
      <trkpt lat="44.93325" lon="6.60305">
        <ele>1438.7</ele>
        <time>2023-07-02T07:59:32+0200</time>
      </trkpt>
      <trkpt lat="44.93324" lon="6.60295">
        <ele>1438.2</ele>
        <time>2023-07-02T07:59:33+0200</time>
      </trkpt>
      <trkpt lat="44.93322" lon="6.60286">
        <ele>1437.4</ele>
        <time>2023-07-02T07:59:34+0200</time>
      </trkpt>
      <trkpt lat="44.93322" lon="6.60276">
        <ele>1436.9</ele>
        <time>2023-07-02T07:59:35+0200</time>
      </trkpt>
      <trkpt lat="44.93324" lon="6.60265">
        <ele>1436.1</ele>
        <time>2023-07-02T07:59:36+0200</time>
      </trkpt>
      <trkpt lat="44.93326" lon="6.60254">
        <ele>1435.3</ele>
        <time>2023-07-02T07:59:37+0200</time>
      </trkpt>
      <trkpt lat="44.93328" lon="6.60243">
        <ele>1434.3</ele>
        <time>2023-07-02T07:59:38+0200</time>
      </trkpt>
      <trkpt lat="44.93332" lon="6.60234">
        <ele>1433.8</ele>
        <time>2023-07-02T07:59:39+0200</time>
      </trkpt>
      <trkpt lat="44.93336" lon="6.60224">
        <ele>1433.3</ele>
        <time>2023-07-02T07:59:40+0200</time>
      </trkpt>
      <trkpt lat="44.93339" lon="6.60214">
        <ele>1434.2</ele>
        <time>2023-07-02T07:59:41+0200</time>
      </trkpt>
      <trkpt lat="44.93346" lon="6.60208">
        <ele>1435.9</ele>
        <time>2023-07-02T07:59:42+0200</time>
      </trkpt>
      <trkpt lat="44.9335" lon="6.60203">
        <ele>1436.7</ele>
        <time>2023-07-02T07:59:43+0200</time>
      </trkpt>
      <trkpt lat="44.93352" lon="6.6019">
        <ele>1436.2</ele>
        <time>2023-07-02T07:59:45+0200</time>
      </trkpt>
      <trkpt lat="44.93351" lon="6.60182">
        <ele>1436.1</ele>
        <time>2023-07-02T07:59:46+0200</time>
      </trkpt>
      <trkpt lat="44.93348" lon="6.60176">
        <ele>1435.8</ele>
        <time>2023-07-02T07:59:47+0200</time>
      </trkpt>
      <trkpt lat="44.93345" lon="6.60168">
        <ele>1435.7</ele>
        <time>2023-07-02T07:59:49+0200</time>
      </trkpt>
      <trkpt lat="44.93341" lon="6.60164">
        <ele>1435</ele>
        <time>2023-07-02T07:59:50+0200</time>
      </trkpt>
      <trkpt lat="44.93337" lon="6.60158">
        <ele>1434.2</ele>
        <time>2023-07-02T07:59:51+0200</time>
      </trkpt>
      <trkpt lat="44.93336" lon="6.60151">
        <ele>1433.8</ele>
        <time>2023-07-02T07:59:52+0200</time>
      </trkpt>
      <trkpt lat="44.93335" lon="6.60143">
        <ele>1433.4</ele>
        <time>2023-07-02T07:59:53+0200</time>
      </trkpt>
      <trkpt lat="44.93335" lon="6.60133">
        <ele>1433.1</ele>
        <time>2023-07-02T07:59:54+0200</time>
      </trkpt>
      <trkpt lat="44.93333" lon="6.60123">
        <ele>1432.4</ele>
        <time>2023-07-02T07:59:55+0200</time>
      </trkpt>
      <trkpt lat="44.93328" lon="6.60114">
        <ele>1431.2</ele>
        <time>2023-07-02T07:59:56+0200</time>
      </trkpt>
      <trkpt lat="44.93324" lon="6.60104">
        <ele>1430.4</ele>
        <time>2023-07-02T07:59:57+0200</time>
      </trkpt>
      <trkpt lat="44.93319" lon="6.60094">
        <ele>1429.4</ele>
        <time>2023-07-02T07:59:58+0200</time>
      </trkpt>
      <trkpt lat="44.93317" lon="6.60083">
        <ele>1429</ele>
        <time>2023-07-02T07:59:59+0200</time>
      </trkpt>
      <trkpt lat="44.93315" lon="6.60073">
        <ele>1428.9</ele>
        <time>2023-07-02T08:00:00+0200</time>
      </trkpt>
      <trkpt lat="44.93315" lon="6.60062">
        <ele>1429.2</ele>
        <time>2023-07-02T08:00:01+0200</time>
      </trkpt>
      <trkpt lat="44.93316" lon="6.60051">
        <ele>1429.7</ele>
        <time>2023-07-02T08:00:02+0200</time>
      </trkpt>
      <trkpt lat="44.93316" lon="6.60041">
        <ele>1430.1</ele>
        <time>2023-07-02T08:00:03+0200</time>
      </trkpt>
      <trkpt lat="44.93315" lon="6.6003">
        <ele>1430.3</ele>
        <time>2023-07-02T08:00:04+0200</time>
      </trkpt>
      <trkpt lat="44.93314" lon="6.60019">
        <ele>1431.1</ele>
        <time>2023-07-02T08:00:05+0200</time>
      </trkpt>
      <trkpt lat="44.93314" lon="6.60009">
        <ele>1432.1</ele>
        <time>2023-07-02T08:00:06+0200</time>
      </trkpt>
      <trkpt lat="44.93312" lon="6.60001">
        <ele>1432.5</ele>
        <time>2023-07-02T08:00:07+0200</time>
      </trkpt>
      <trkpt lat="44.93308" lon="6.59996">
        <ele>1433</ele>
        <time>2023-07-02T08:00:08+0200</time>
      </trkpt>
      <trkpt lat="44.93304" lon="6.59991">
        <ele>1433.5</ele>
        <time>2023-07-02T08:00:09+0200</time>
      </trkpt>
      <trkpt lat="44.933" lon="6.59987">
        <ele>1433.9</ele>
        <time>2023-07-02T08:00:10+0200</time>
      </trkpt>
      <trkpt lat="44.93293" lon="6.59982">
        <ele>1434.1</ele>
        <time>2023-07-02T08:00:12+0200</time>
      </trkpt>
      <trkpt lat="44.93289" lon="6.59978">
        <ele>1434.6</ele>
        <time>2023-07-02T08:00:13+0200</time>
      </trkpt>
      <trkpt lat="44.93283" lon="6.59971">
        <ele>1435.6</ele>
        <time>2023-07-02T08:00:15+0200</time>
      </trkpt>
      <trkpt lat="44.93277" lon="6.59965">
        <ele>1436.2</ele>
        <time>2023-07-02T08:00:17+0200</time>
      </trkpt>
      <trkpt lat="44.93271" lon="6.59961">
        <ele>1436.3</ele>
        <time>2023-07-02T08:00:20+0200</time>
      </trkpt>
      <trkpt lat="44.93266" lon="6.59961">
        <ele>1435.8</ele>
        <time>2023-07-02T08:00:22+0200</time>
      </trkpt>
      <trkpt lat="44.93262" lon="6.59955">
        <ele>1436.4</ele>
        <time>2023-07-02T08:00:24+0200</time>
      </trkpt>
      <trkpt lat="44.93259" lon="6.59948">
        <ele>1437.3</ele>
        <time>2023-07-02T08:00:27+0200</time>
      </trkpt>
      <trkpt lat="44.93259" lon="6.5994">
        <ele>1438.2</ele>
        <time>2023-07-02T08:00:30+0200</time>
      </trkpt>
      <trkpt lat="44.93259" lon="6.59932">
        <ele>1438.6</ele>
        <time>2023-07-02T08:00:32+0200</time>
      </trkpt>
      <trkpt lat="44.9326" lon="6.59924">
        <ele>1439.1</ele>
        <time>2023-07-02T08:00:34+0200</time>
      </trkpt>
      <trkpt lat="44.93261" lon="6.59916">
        <ele>1439.6</ele>
        <time>2023-07-02T08:00:36+0200</time>
      </trkpt>
      <trkpt lat="44.93262" lon="6.59908">
        <ele>1439.8</ele>
        <time>2023-07-02T08:00:38+0200</time>
      </trkpt>
      <trkpt lat="44.93264" lon="6.59896">
        <ele>1440.3</ele>
        <time>2023-07-02T08:00:40+0200</time>
      </trkpt>
      <trkpt lat="44.93267" lon="6.59888">
        <ele>1440.8</ele>
        <time>2023-07-02T08:00:42+0200</time>
      </trkpt>
      <trkpt lat="44.93269" lon="6.5988">
        <ele>1441</ele>
        <time>2023-07-02T08:00:44+0200</time>
      </trkpt>
      <trkpt lat="44.93272" lon="6.5987">
        <ele>1441.3</ele>
        <time>2023-07-02T08:00:45+0200</time>
      </trkpt>
      <trkpt lat="44.93275" lon="6.5986">
        <ele>1441.7</ele>
        <time>2023-07-02T08:00:47+0200</time>
      </trkpt>
      <trkpt lat="44.93279" lon="6.59851">
        <ele>1442.2</ele>
        <time>2023-07-02T08:00:49+0200</time>
      </trkpt>
      <trkpt lat="44.93284" lon="6.59842">
        <ele>1442.7</ele>
        <time>2023-07-02T08:00:52+0200</time>
      </trkpt>
      <trkpt lat="44.93285" lon="6.59833">
        <ele>1442.8</ele>
        <time>2023-07-02T08:00:54+0200</time>
      </trkpt>
      <trkpt lat="44.93288" lon="6.59826">
        <ele>1442.8</ele>
        <time>2023-07-02T08:00:56+0200</time>
      </trkpt>
      <trkpt lat="44.93293" lon="6.59818">
        <ele>1443.1</ele>
        <time>2023-07-02T08:00:58+0200</time>
      </trkpt>
      <trkpt lat="44.93297" lon="6.59812">
        <ele>1443.3</ele>
        <time>2023-07-02T08:01:00+0200</time>
      </trkpt>
      <trkpt lat="44.93302" lon="6.59803">
        <ele>1443.5</ele>
        <time>2023-07-02T08:01:02+0200</time>
      </trkpt>
      <trkpt lat="44.93304" lon="6.59793">
        <ele>1443.3</ele>
        <time>2023-07-02T08:01:04+0200</time>
      </trkpt>
      <trkpt lat="44.93305" lon="6.5978">
        <ele>1443</ele>
        <time>2023-07-02T08:01:06+0200</time>
      </trkpt>
      <trkpt lat="44.93305" lon="6.59773">
        <ele>1442.6</ele>
        <time>2023-07-02T08:01:07+0200</time>
      </trkpt>
      <trkpt lat="44.93305" lon="6.59765">
        <ele>1442.1</ele>
        <time>2023-07-02T08:01:08+0200</time>
      </trkpt>
      <trkpt lat="44.93307" lon="6.59757">
        <ele>1441.6</ele>
        <time>2023-07-02T08:01:09+0200</time>
      </trkpt>
      <trkpt lat="44.93309" lon="6.59749">
        <ele>1441.5</ele>
        <time>2023-07-02T08:01:10+0200</time>
      </trkpt>
      <trkpt lat="44.93313" lon="6.5974">
        <ele>1441.3</ele>
        <time>2023-07-02T08:01:11+0200</time>
      </trkpt>
      <trkpt lat="44.93316" lon="6.59734">
        <ele>1441.3</ele>
        <time>2023-07-02T08:01:12+0200</time>
      </trkpt>
      <trkpt lat="44.9332" lon="6.59727">
        <ele>1441.3</ele>
        <time>2023-07-02T08:01:13+0200</time>
      </trkpt>
      <trkpt lat="44.93324" lon="6.5972">
        <ele>1441.3</ele>
        <time>2023-07-02T08:01:14+0200</time>
      </trkpt>
      <trkpt lat="44.93328" lon="6.59713">
        <ele>1441.1</ele>
        <time>2023-07-02T08:01:15+0200</time>
      </trkpt>
      <trkpt lat="44.93333" lon="6.59707">
        <ele>1441.3</ele>
        <time>2023-07-02T08:01:16+0200</time>
      </trkpt>
      <trkpt lat="44.93338" lon="6.59703">
        <ele>1441.7</ele>
        <time>2023-07-02T08:01:17+0200</time>
      </trkpt>
      <trkpt lat="44.93342" lon="6.59696">
        <ele>1441.6</ele>
        <time>2023-07-02T08:01:18+0200</time>
      </trkpt>
      <trkpt lat="44.93346" lon="6.5969">
        <ele>1441.5</ele>
        <time>2023-07-02T08:01:19+0200</time>
      </trkpt>
      <trkpt lat="44.9335" lon="6.59686">
        <ele>1441.6</ele>
        <time>2023-07-02T08:01:20+0200</time>
      </trkpt>
      <trkpt lat="44.93355" lon="6.5968">
        <ele>1441.7</ele>
        <time>2023-07-02T08:01:21+0200</time>
      </trkpt>
      <trkpt lat="44.93359" lon="6.59675">
        <ele>1441.8</ele>
        <time>2023-07-02T08:01:22+0200</time>
      </trkpt>
      <trkpt lat="44.93367" lon="6.59669">
        <ele>1442.5</ele>
        <time>2023-07-02T08:01:24+0200</time>
      </trkpt>
      <trkpt lat="44.93371" lon="6.59664">
        <ele>1442.6</ele>
        <time>2023-07-02T08:01:25+0200</time>
      </trkpt>
      <trkpt lat="44.93378" lon="6.5966">
        <ele>1443.2</ele>
        <time>2023-07-02T08:01:27+0200</time>
      </trkpt>
      <trkpt lat="44.93385" lon="6.59656">
        <ele>1443.7</ele>
        <time>2023-07-02T08:01:29+0200</time>
      </trkpt>
      <trkpt lat="44.93389" lon="6.59652">
        <ele>1443.9</ele>
        <time>2023-07-02T08:01:31+0200</time>
      </trkpt>
      <trkpt lat="44.93395" lon="6.59647">
        <ele>1443.9</ele>
        <time>2023-07-02T08:01:33+0200</time>
      </trkpt>
      <trkpt lat="44.934" lon="6.5964">
        <ele>1443.3</ele>
        <time>2023-07-02T08:01:35+0200</time>
      </trkpt>
      <trkpt lat="44.93407" lon="6.59634">
        <ele>1443.2</ele>
        <time>2023-07-02T08:01:37+0200</time>
      </trkpt>
      <trkpt lat="44.93411" lon="6.5963">
        <ele>1443.1</ele>
        <time>2023-07-02T08:01:38+0200</time>
      </trkpt>
      <trkpt lat="44.93418" lon="6.59625">
        <ele>1443.3</ele>
        <time>2023-07-02T08:01:40+0200</time>
      </trkpt>
      <trkpt lat="44.93425" lon="6.59617">
        <ele>1442.7</ele>
        <time>2023-07-02T08:01:42+0200</time>
      </trkpt>
      <trkpt lat="44.93429" lon="6.59613">
        <ele>1442.7</ele>
        <time>2023-07-02T08:01:43+0200</time>
      </trkpt>
      <trkpt lat="44.93435" lon="6.59606">
        <ele>1442.1</ele>
        <time>2023-07-02T08:01:45+0200</time>
      </trkpt>
      <trkpt lat="44.93439" lon="6.59602">
        <ele>1441.8</ele>
        <time>2023-07-02T08:01:46+0200</time>
      </trkpt>
      <trkpt lat="44.93447" lon="6.59596">
        <ele>1441.8</ele>
        <time>2023-07-02T08:01:48+0200</time>
      </trkpt>
      <trkpt lat="44.93455" lon="6.59593">
        <ele>1442.4</ele>
        <time>2023-07-02T08:01:50+0200</time>
      </trkpt>
      <trkpt lat="44.93462" lon="6.59586">
        <ele>1441.8</ele>
        <time>2023-07-02T08:01:52+0200</time>
      </trkpt>
      <trkpt lat="44.93468" lon="6.59582">
        <ele>1441.7</ele>
        <time>2023-07-02T08:01:54+0200</time>
      </trkpt>
      <trkpt lat="44.93472" lon="6.59578">
        <ele>1441.6</ele>
        <time>2023-07-02T08:01:55+0200</time>
      </trkpt>
      <trkpt lat="44.93477" lon="6.59575">
        <ele>1441.6</ele>
        <time>2023-07-02T08:01:56+0200</time>
      </trkpt>
      <trkpt lat="44.93481" lon="6.59569">
        <ele>1441</ele>
        <time>2023-07-02T08:01:57+0200</time>
      </trkpt>
      <trkpt lat="44.93485" lon="6.59565">
        <ele>1440.9</ele>
        <time>2023-07-02T08:01:58+0200</time>
      </trkpt>
      <trkpt lat="44.93491" lon="6.59559">
        <ele>1440.5</ele>
        <time>2023-07-02T08:01:59+0200</time>
      </trkpt>
      <trkpt lat="44.93496" lon="6.59554">
        <ele>1440.5</ele>
        <time>2023-07-02T08:02:00+0200</time>
      </trkpt>
      <trkpt lat="44.93501" lon="6.59549">
        <ele>1440.6</ele>
        <time>2023-07-02T08:02:01+0200</time>
      </trkpt>
      <trkpt lat="44.93506" lon="6.59547">
        <ele>1441.4</ele>
        <time>2023-07-02T08:02:02+0200</time>
      </trkpt>
      <trkpt lat="44.93511" lon="6.59542">
        <ele>1441.8</ele>
        <time>2023-07-02T08:02:03+0200</time>
      </trkpt>
      <trkpt lat="44.93517" lon="6.59539">
        <ele>1442.7</ele>
        <time>2023-07-02T08:02:04+0200</time>
      </trkpt>
      <trkpt lat="44.93523" lon="6.59535">
        <ele>1443.4</ele>
        <time>2023-07-02T08:02:05+0200</time>
      </trkpt>
      <trkpt lat="44.93528" lon="6.59531">
        <ele>1444</ele>
        <time>2023-07-02T08:02:06+0200</time>
      </trkpt>
      <trkpt lat="44.93533" lon="6.59527">
        <ele>1444.3</ele>
        <time>2023-07-02T08:02:07+0200</time>
      </trkpt>
      <trkpt lat="44.93538" lon="6.59524">
        <ele>1444.8</ele>
        <time>2023-07-02T08:02:08+0200</time>
      </trkpt>
      <trkpt lat="44.93542" lon="6.5952">
        <ele>1445</ele>
        <time>2023-07-02T08:02:09+0200</time>
      </trkpt>
      <trkpt lat="44.93547" lon="6.59517">
        <ele>1445.3</ele>
        <time>2023-07-02T08:02:10+0200</time>
      </trkpt>
      <trkpt lat="44.93551" lon="6.59513">
        <ele>1445.1</ele>
        <time>2023-07-02T08:02:11+0200</time>
      </trkpt>
      <trkpt lat="44.93555" lon="6.59506">
        <ele>1443.9</ele>
        <time>2023-07-02T08:02:12+0200</time>
      </trkpt>
      <trkpt lat="44.9356" lon="6.595">
        <ele>1442.2</ele>
        <time>2023-07-02T08:02:13+0200</time>
      </trkpt>
      <trkpt lat="44.93567" lon="6.59493">
        <ele>1440.9</ele>
        <time>2023-07-02T08:02:14+0200</time>
      </trkpt>
      <trkpt lat="44.93574" lon="6.59489">
        <ele>1440.2</ele>
        <time>2023-07-02T08:02:15+0200</time>
      </trkpt>
      <trkpt lat="44.93584" lon="6.59487">
        <ele>1440.3</ele>
        <time>2023-07-02T08:02:17+0200</time>
      </trkpt>
      <trkpt lat="44.93592" lon="6.59485">
        <ele>1440</ele>
        <time>2023-07-02T08:02:18+0200</time>
      </trkpt>
      <trkpt lat="44.93598" lon="6.59484">
        <ele>1440</ele>
        <time>2023-07-02T08:02:19+0200</time>
      </trkpt>
      <trkpt lat="44.93603" lon="6.5948">
        <ele>1439.1</ele>
        <time>2023-07-02T08:02:20+0200</time>
      </trkpt>
      <trkpt lat="44.93608" lon="6.59476">
        <ele>1438.7</ele>
        <time>2023-07-02T08:02:21+0200</time>
      </trkpt>
      <trkpt lat="44.93613" lon="6.59472">
        <ele>1438.2</ele>
        <time>2023-07-02T08:02:22+0200</time>
      </trkpt>
      <trkpt lat="44.93618" lon="6.59467">
        <ele>1438</ele>
        <time>2023-07-02T08:02:23+0200</time>
      </trkpt>
      <trkpt lat="44.93622" lon="6.5946">
        <ele>1437.6</ele>
        <time>2023-07-02T08:02:24+0200</time>
      </trkpt>
      <trkpt lat="44.93626" lon="6.59453">
        <ele>1437.2</ele>
        <time>2023-07-02T08:02:25+0200</time>
      </trkpt>
      <trkpt lat="44.93631" lon="6.59445">
        <ele>1436.8</ele>
        <time>2023-07-02T08:02:26+0200</time>
      </trkpt>
      <trkpt lat="44.93634" lon="6.59451">
        <ele>1438.1</ele>
        <time>2023-07-02T08:02:30+0200</time>
      </trkpt>
      <trkpt lat="44.93638" lon="6.59447">
        <ele>1438.1</ele>
        <time>2023-07-02T08:02:33+0200</time>
      </trkpt>
      <trkpt lat="44.9364" lon="6.59442">
        <ele>1437.8</ele>
        <time>2023-07-02T08:02:35+0200</time>
      </trkpt>
      <trkpt lat="44.93648" lon="6.59436">
        <ele>1438.2</ele>
        <time>2023-07-02T08:02:37+0200</time>
      </trkpt>
      <trkpt lat="44.93653" lon="6.59434">
        <ele>1438.7</ele>
        <time>2023-07-02T08:02:39+0200</time>
      </trkpt>
      <trkpt lat="44.93658" lon="6.59429">
        <ele>1438.8</ele>
        <time>2023-07-02T08:02:41+0200</time>
      </trkpt>
      <trkpt lat="44.93664" lon="6.59423">
        <ele>1439.3</ele>
        <time>2023-07-02T08:02:43+0200</time>
      </trkpt>
      <trkpt lat="44.93669" lon="6.59419">
        <ele>1439.6</ele>
        <time>2023-07-02T08:02:44+0200</time>
      </trkpt>
      <trkpt lat="44.93673" lon="6.59415">
        <ele>1439.8</ele>
        <time>2023-07-02T08:02:45+0200</time>
      </trkpt>
      <trkpt lat="44.93679" lon="6.59408">
        <ele>1439.9</ele>
        <time>2023-07-02T08:02:47+0200</time>
      </trkpt>
      <trkpt lat="44.93676" lon="6.59398">
        <ele>1437.9</ele>
        <time>2023-07-02T08:02:49+0200</time>
      </trkpt>
      <trkpt lat="44.93669" lon="6.59396">
        <ele>1436.5</ele>
        <time>2023-07-02T08:02:50+0200</time>
      </trkpt>
      <trkpt lat="44.93663" lon="6.59394">
        <ele>1435.3</ele>
        <time>2023-07-02T08:02:51+0200</time>
      </trkpt>
      <trkpt lat="44.93658" lon="6.59392">
        <ele>1434.2</ele>
        <time>2023-07-02T08:02:52+0200</time>
      </trkpt>
      <trkpt lat="44.93653" lon="6.59391">
        <ele>1433.3</ele>
        <time>2023-07-02T08:02:53+0200</time>
      </trkpt>
      <trkpt lat="44.93647" lon="6.59392">
        <ele>1432.5</ele>
        <time>2023-07-02T08:02:54+0200</time>
      </trkpt>
      <trkpt lat="44.93631" lon="6.59389">
        <ele>1430.1</ele>
        <time>2023-07-02T08:02:55+0200</time>
      </trkpt>
      <trkpt lat="44.93623" lon="6.59387">
        <ele>1429.1</ele>
        <time>2023-07-02T08:02:56+0200</time>
      </trkpt>
      <trkpt lat="44.93617" lon="6.59385">
        <ele>1428.3</ele>
        <time>2023-07-02T08:02:58+0200</time>
      </trkpt>
      <trkpt lat="44.93613" lon="6.5938">
        <ele>1427.6</ele>
        <time>2023-07-02T08:02:59+0200</time>
      </trkpt>
      <trkpt lat="44.93619" lon="6.59366">
        <ele>1427</ele>
        <time>2023-07-02T08:03:02+0200</time>
      </trkpt>
      <trkpt lat="44.9362" lon="6.59357">
        <ele>1426.4</ele>
        <time>2023-07-02T08:03:03+0200</time>
      </trkpt>
      <trkpt lat="44.93621" lon="6.59346">
        <ele>1425.6</ele>
        <time>2023-07-02T08:03:04+0200</time>
      </trkpt>
      <trkpt lat="44.93623" lon="6.59335">
        <ele>1425</ele>
        <time>2023-07-02T08:03:05+0200</time>
      </trkpt>
      <trkpt lat="44.93629" lon="6.59325">
        <ele>1424.4</ele>
        <time>2023-07-02T08:03:06+0200</time>
      </trkpt>
      <trkpt lat="44.93633" lon="6.59312">
        <ele>1423.4</ele>
        <time>2023-07-02T08:03:07+0200</time>
      </trkpt>
      <trkpt lat="44.93637" lon="6.59301">
        <ele>1422.6</ele>
        <time>2023-07-02T08:03:08+0200</time>
      </trkpt>
      <trkpt lat="44.9364" lon="6.59289">
        <ele>1421.9</ele>
        <time>2023-07-02T08:03:09+0200</time>
      </trkpt>
      <trkpt lat="44.93644" lon="6.59277">
        <ele>1421.2</ele>
        <time>2023-07-02T08:03:10+0200</time>
      </trkpt>
      <trkpt lat="44.93647" lon="6.59264">
        <ele>1420.2</ele>
        <time>2023-07-02T08:03:11+0200</time>
      </trkpt>
      <trkpt lat="44.93651" lon="6.5925">
        <ele>1419.3</ele>
        <time>2023-07-02T08:03:12+0200</time>
      </trkpt>
      <trkpt lat="44.93654" lon="6.59236">
        <ele>1418.2</ele>
        <time>2023-07-02T08:03:13+0200</time>
      </trkpt>
      <trkpt lat="44.93657" lon="6.59223">
        <ele>1417</ele>
        <time>2023-07-02T08:03:14+0200</time>
      </trkpt>
      <trkpt lat="44.93659" lon="6.5921">
        <ele>1415.9</ele>
        <time>2023-07-02T08:03:15+0200</time>
      </trkpt>
      <trkpt lat="44.93662" lon="6.59194">
        <ele>1414.6</ele>
        <time>2023-07-02T08:03:16+0200</time>
      </trkpt>
      <trkpt lat="44.93664" lon="6.59181">
        <ele>1414.2</ele>
        <time>2023-07-02T08:03:17+0200</time>
      </trkpt>
      <trkpt lat="44.93665" lon="6.59165">
        <ele>1413.7</ele>
        <time>2023-07-02T08:03:18+0200</time>
      </trkpt>
      <trkpt lat="44.93667" lon="6.59148">
        <ele>1412.7</ele>
        <time>2023-07-02T08:03:19+0200</time>
      </trkpt>
      <trkpt lat="44.9367" lon="6.59131">
        <ele>1412.5</ele>
        <time>2023-07-02T08:03:20+0200</time>
      </trkpt>
      <trkpt lat="44.93672" lon="6.59113">
        <ele>1412.5</ele>
        <time>2023-07-02T08:03:21+0200</time>
      </trkpt>
      <trkpt lat="44.93674" lon="6.59095">
        <ele>1412.9</ele>
        <time>2023-07-02T08:03:22+0200</time>
      </trkpt>
      <trkpt lat="44.93677" lon="6.59078">
        <ele>1413.5</ele>
        <time>2023-07-02T08:03:23+0200</time>
      </trkpt>
      <trkpt lat="44.9368" lon="6.59063">
        <ele>1413.9</ele>
        <time>2023-07-02T08:03:24+0200</time>
      </trkpt>
      <trkpt lat="44.93681" lon="6.59047">
        <ele>1413.8</ele>
        <time>2023-07-02T08:03:25+0200</time>
      </trkpt>
      <trkpt lat="44.93682" lon="6.59031">
        <ele>1413.6</ele>
        <time>2023-07-02T08:03:26+0200</time>
      </trkpt>
      <trkpt lat="44.93684" lon="6.59016">
        <ele>1413.3</ele>
        <time>2023-07-02T08:03:27+0200</time>
      </trkpt>
      <trkpt lat="44.93688" lon="6.59006">
        <ele>1413.7</ele>
        <time>2023-07-02T08:03:28+0200</time>
      </trkpt>
      <trkpt lat="44.93691" lon="6.58994">
        <ele>1413.8</ele>
        <time>2023-07-02T08:03:29+0200</time>
      </trkpt>
      <trkpt lat="44.93695" lon="6.58984">
        <ele>1414.1</ele>
        <time>2023-07-02T08:03:30+0200</time>
      </trkpt>
      <trkpt lat="44.93698" lon="6.58974">
        <ele>1414.3</ele>
        <time>2023-07-02T08:03:31+0200</time>
      </trkpt>
      <trkpt lat="44.93702" lon="6.58965">
        <ele>1414.4</ele>
        <time>2023-07-02T08:03:32+0200</time>
      </trkpt>
      <trkpt lat="44.93706" lon="6.58957">
        <ele>1414.4</ele>
        <time>2023-07-02T08:03:33+0200</time>
      </trkpt>
      <trkpt lat="44.9371" lon="6.58949">
        <ele>1414.3</ele>
        <time>2023-07-02T08:03:34+0200</time>
      </trkpt>
      <trkpt lat="44.93713" lon="6.5894">
        <ele>1414.2</ele>
        <time>2023-07-02T08:03:35+0200</time>
      </trkpt>
      <trkpt lat="44.93716" lon="6.58932">
        <ele>1413.8</ele>
        <time>2023-07-02T08:03:36+0200</time>
      </trkpt>
      <trkpt lat="44.9372" lon="6.58923">
        <ele>1413.5</ele>
        <time>2023-07-02T08:03:37+0200</time>
      </trkpt>
      <trkpt lat="44.93726" lon="6.58916">
        <ele>1413.7</ele>
        <time>2023-07-02T08:03:38+0200</time>
      </trkpt>
      <trkpt lat="44.93731" lon="6.58908">
        <ele>1413.7</ele>
        <time>2023-07-02T08:03:39+0200</time>
      </trkpt>
      <trkpt lat="44.93737" lon="6.58901">
        <ele>1414.1</ele>
        <time>2023-07-02T08:03:40+0200</time>
      </trkpt>
      <trkpt lat="44.93742" lon="6.58895">
        <ele>1414.6</ele>
        <time>2023-07-02T08:03:41+0200</time>
      </trkpt>
      <trkpt lat="44.93748" lon="6.58889">
        <ele>1415.2</ele>
        <time>2023-07-02T08:03:42+0200</time>
      </trkpt>
      <trkpt lat="44.93751" lon="6.58882">
        <ele>1414.6</ele>
        <time>2023-07-02T08:03:43+0200</time>
      </trkpt>
      <trkpt lat="44.93754" lon="6.58874">
        <ele>1413.7</ele>
        <time>2023-07-02T08:03:44+0200</time>
      </trkpt>
      <trkpt lat="44.93757" lon="6.58867">
        <ele>1413</ele>
        <time>2023-07-02T08:03:45+0200</time>
      </trkpt>
      <trkpt lat="44.9376" lon="6.58861">
        <ele>1412.5</ele>
        <time>2023-07-02T08:03:46+0200</time>
      </trkpt>
      <trkpt lat="44.93764" lon="6.58854">
        <ele>1412.3</ele>
        <time>2023-07-02T08:03:47+0200</time>
      </trkpt>
      <trkpt lat="44.93768" lon="6.58848">
        <ele>1412.4</ele>
        <time>2023-07-02T08:03:48+0200</time>
      </trkpt>
      <trkpt lat="44.93772" lon="6.58842">
        <ele>1412.4</ele>
        <time>2023-07-02T08:03:49+0200</time>
      </trkpt>
      <trkpt lat="44.93779" lon="6.58835">
        <ele>1412.7</ele>
        <time>2023-07-02T08:03:50+0200</time>
      </trkpt>
      <trkpt lat="44.93783" lon="6.58829">
        <ele>1412.9</ele>
        <time>2023-07-02T08:03:51+0200</time>
      </trkpt>
      <trkpt lat="44.93788" lon="6.58822">
        <ele>1413.5</ele>
        <time>2023-07-02T08:03:52+0200</time>
      </trkpt>
      <trkpt lat="44.93793" lon="6.58817">
        <ele>1414.2</ele>
        <time>2023-07-02T08:03:53+0200</time>
      </trkpt>
      <trkpt lat="44.93798" lon="6.58809">
        <ele>1414</ele>
        <time>2023-07-02T08:03:54+0200</time>
      </trkpt>
      <trkpt lat="44.93801" lon="6.58801">
        <ele>1414.1</ele>
        <time>2023-07-02T08:03:55+0200</time>
      </trkpt>
      <trkpt lat="44.93803" lon="6.58793">
        <ele>1414</ele>
        <time>2023-07-02T08:03:56+0200</time>
      </trkpt>
      <trkpt lat="44.93804" lon="6.58783">
        <ele>1413.1</ele>
        <time>2023-07-02T08:03:57+0200</time>
      </trkpt>
      <trkpt lat="44.93805" lon="6.58774">
        <ele>1412.7</ele>
        <time>2023-07-02T08:03:58+0200</time>
      </trkpt>
      <trkpt lat="44.93805" lon="6.58765">
        <ele>1412.4</ele>
        <time>2023-07-02T08:03:59+0200</time>
      </trkpt>
      <trkpt lat="44.93805" lon="6.58755">
        <ele>1412</ele>
        <time>2023-07-02T08:04:00+0200</time>
      </trkpt>
      <trkpt lat="44.93805" lon="6.58746">
        <ele>1411.9</ele>
        <time>2023-07-02T08:04:01+0200</time>
      </trkpt>
      <trkpt lat="44.93804" lon="6.58738">
        <ele>1411.7</ele>
        <time>2023-07-02T08:04:02+0200</time>
      </trkpt>
      <trkpt lat="44.93804" lon="6.58729">
        <ele>1411.7</ele>
        <time>2023-07-02T08:04:03+0200</time>
      </trkpt>
      <trkpt lat="44.93805" lon="6.58721">
        <ele>1411.8</ele>
        <time>2023-07-02T08:04:04+0200</time>
      </trkpt>
      <trkpt lat="44.93807" lon="6.58713">
        <ele>1412</ele>
        <time>2023-07-02T08:04:05+0200</time>
      </trkpt>
      <trkpt lat="44.93809" lon="6.58705">
        <ele>1412.3</ele>
        <time>2023-07-02T08:04:06+0200</time>
      </trkpt>
      <trkpt lat="44.93811" lon="6.58698">
        <ele>1412.6</ele>
        <time>2023-07-02T08:04:07+0200</time>
      </trkpt>
      <trkpt lat="44.93814" lon="6.58691">
        <ele>1412.8</ele>
        <time>2023-07-02T08:04:08+0200</time>
      </trkpt>
      <trkpt lat="44.93818" lon="6.58683">
        <ele>1412.8</ele>
        <time>2023-07-02T08:04:09+0200</time>
      </trkpt>
      <trkpt lat="44.93821" lon="6.58675">
        <ele>1412.8</ele>
        <time>2023-07-02T08:04:10+0200</time>
      </trkpt>
      <trkpt lat="44.93826" lon="6.58668">
        <ele>1413.4</ele>
        <time>2023-07-02T08:04:11+0200</time>
      </trkpt>
      <trkpt lat="44.93829" lon="6.5866">
        <ele>1413.2</ele>
        <time>2023-07-02T08:04:12+0200</time>
      </trkpt>
      <trkpt lat="44.93832" lon="6.58653">
        <ele>1413.2</ele>
        <time>2023-07-02T08:04:13+0200</time>
      </trkpt>
      <trkpt lat="44.93835" lon="6.58647">
        <ele>1413.4</ele>
        <time>2023-07-02T08:04:14+0200</time>
      </trkpt>
      <trkpt lat="44.93838" lon="6.5864">
        <ele>1413.4</ele>
        <time>2023-07-02T08:04:15+0200</time>
      </trkpt>
      <trkpt lat="44.93842" lon="6.58634">
        <ele>1413.7</ele>
        <time>2023-07-02T08:04:16+0200</time>
      </trkpt>
      <trkpt lat="44.93846" lon="6.58627">
        <ele>1413.8</ele>
        <time>2023-07-02T08:04:17+0200</time>
      </trkpt>
      <trkpt lat="44.93848" lon="6.5862">
        <ele>1413.7</ele>
        <time>2023-07-02T08:04:18+0200</time>
      </trkpt>
      <trkpt lat="44.93851" lon="6.58613">
        <ele>1413.7</ele>
        <time>2023-07-02T08:04:19+0200</time>
      </trkpt>
      <trkpt lat="44.93855" lon="6.58606">
        <ele>1413.7</ele>
        <time>2023-07-02T08:04:20+0200</time>
      </trkpt>
      <trkpt lat="44.93859" lon="6.58599">
        <ele>1413.7</ele>
        <time>2023-07-02T08:04:21+0200</time>
      </trkpt>
      <trkpt lat="44.93864" lon="6.58591">
        <ele>1413.7</ele>
        <time>2023-07-02T08:04:22+0200</time>
      </trkpt>
      <trkpt lat="44.93868" lon="6.58585">
        <ele>1414</ele>
        <time>2023-07-02T08:04:23+0200</time>
      </trkpt>
      <trkpt lat="44.93874" lon="6.58579">
        <ele>1414.2</ele>
        <time>2023-07-02T08:04:24+0200</time>
      </trkpt>
      <trkpt lat="44.93879" lon="6.58573">
        <ele>1414.5</ele>
        <time>2023-07-02T08:04:25+0200</time>
      </trkpt>
      <trkpt lat="44.93885" lon="6.58567">
        <ele>1415</ele>
        <time>2023-07-02T08:04:26+0200</time>
      </trkpt>
      <trkpt lat="44.93891" lon="6.5856">
        <ele>1415.3</ele>
        <time>2023-07-02T08:04:27+0200</time>
      </trkpt>
      <trkpt lat="44.93896" lon="6.58553">
        <ele>1415.3</ele>
        <time>2023-07-02T08:04:28+0200</time>
      </trkpt>
      <trkpt lat="44.93902" lon="6.58549">
        <ele>1415.9</ele>
        <time>2023-07-02T08:04:29+0200</time>
      </trkpt>
      <trkpt lat="44.93907" lon="6.58544">
        <ele>1416.2</ele>
        <time>2023-07-02T08:04:30+0200</time>
      </trkpt>
      <trkpt lat="44.93911" lon="6.5854">
        <ele>1416.8</ele>
        <time>2023-07-02T08:04:31+0200</time>
      </trkpt>
      <trkpt lat="44.93915" lon="6.58536">
        <ele>1417.1</ele>
        <time>2023-07-02T08:04:32+0200</time>
      </trkpt>
      <trkpt lat="44.9392" lon="6.58532">
        <ele>1417.6</ele>
        <time>2023-07-02T08:04:33+0200</time>
      </trkpt>
      <trkpt lat="44.93927" lon="6.58525">
        <ele>1418.9</ele>
        <time>2023-07-02T08:04:35+0200</time>
      </trkpt>
      <trkpt lat="44.93931" lon="6.58522">
        <ele>1420.1</ele>
        <time>2023-07-02T08:04:36+0200</time>
      </trkpt>
      <trkpt lat="44.93939" lon="6.58519">
        <ele>1422.4</ele>
        <time>2023-07-02T08:04:38+0200</time>
      </trkpt>
      <trkpt lat="44.93941" lon="6.5851">
        <ele>1422.2</ele>
        <time>2023-07-02T08:04:40+0200</time>
      </trkpt>
      <trkpt lat="44.9394" lon="6.58503">
        <ele>1421.6</ele>
        <time>2023-07-02T08:04:42+0200</time>
      </trkpt>
      <trkpt lat="44.93936" lon="6.58491">
        <ele>1419</ele>
        <time>2023-07-02T08:04:44+0200</time>
      </trkpt>
      <trkpt lat="44.93933" lon="6.58484">
        <ele>1417</ele>
        <time>2023-07-02T08:04:45+0200</time>
      </trkpt>
      <trkpt lat="44.93931" lon="6.58477">
        <ele>1415.6</ele>
        <time>2023-07-02T08:04:46+0200</time>
      </trkpt>
      <trkpt lat="44.93928" lon="6.58472">
        <ele>1413.7</ele>
        <time>2023-07-02T08:04:47+0200</time>
      </trkpt>
      <trkpt lat="44.93925" lon="6.58461">
        <ele>1412.1</ele>
        <time>2023-07-02T08:04:49+0200</time>
      </trkpt>
      <trkpt lat="44.93924" lon="6.58454">
        <ele>1411.3</ele>
        <time>2023-07-02T08:04:50+0200</time>
      </trkpt>
      <trkpt lat="44.93926" lon="6.58445">
        <ele>1412</ele>
        <time>2023-07-02T08:04:51+0200</time>
      </trkpt>
      <trkpt lat="44.93925" lon="6.58439">
        <ele>1411.5</ele>
        <time>2023-07-02T08:04:52+0200</time>
      </trkpt>
      <trkpt lat="44.93927" lon="6.58427">
        <ele>1412</ele>
        <time>2023-07-02T08:04:54+0200</time>
      </trkpt>
      <trkpt lat="44.93927" lon="6.58419">
        <ele>1411.8</ele>
        <time>2023-07-02T08:04:55+0200</time>
      </trkpt>
      <trkpt lat="44.9393" lon="6.58411">
        <ele>1413.1</ele>
        <time>2023-07-02T08:04:56+0200</time>
      </trkpt>
      <trkpt lat="44.93928" lon="6.58403">
        <ele>1411.9</ele>
        <time>2023-07-02T08:04:57+0200</time>
      </trkpt>
      <trkpt lat="44.93929" lon="6.58394">
        <ele>1412.5</ele>
        <time>2023-07-02T08:04:58+0200</time>
      </trkpt>
      <trkpt lat="44.9393" lon="6.58388">
        <ele>1412.8</ele>
        <time>2023-07-02T08:04:59+0200</time>
      </trkpt>
      <trkpt lat="44.9393" lon="6.58374">
        <ele>1412.5</ele>
        <time>2023-07-02T08:05:01+0200</time>
      </trkpt>
      <trkpt lat="44.93928" lon="6.58365">
        <ele>1411.9</ele>
        <time>2023-07-02T08:05:02+0200</time>
      </trkpt>
      <trkpt lat="44.93931" lon="6.58356">
        <ele>1413.1</ele>
        <time>2023-07-02T08:05:02+0200</time>
      </trkpt>
      <trkpt lat="44.93933" lon="6.58349">
        <ele>1413.8</ele>
        <time>2023-07-02T08:05:04+0200</time>
      </trkpt>
      <trkpt lat="44.93937" lon="6.58345">
        <ele>1415.2</ele>
        <time>2023-07-02T08:05:05+0200</time>
      </trkpt>
      <trkpt lat="44.93939" lon="6.58337">
        <ele>1415.7</ele>
        <time>2023-07-02T08:05:07+0200</time>
      </trkpt>
      <trkpt lat="44.93944" lon="6.58328">
        <ele>1417.7</ele>
        <time>2023-07-02T08:05:09+0200</time>
      </trkpt>
      <trkpt lat="44.93944" lon="6.58315">
        <ele>1417.2</ele>
        <time>2023-07-02T08:05:11+0200</time>
      </trkpt>
      <trkpt lat="44.93943" lon="6.58307">
        <ele>1416.4</ele>
        <time>2023-07-02T08:05:12+0200</time>
      </trkpt>
      <trkpt lat="44.93941" lon="6.58301">
        <ele>1415.4</ele>
        <time>2023-07-02T08:05:13+0200</time>
      </trkpt>
      <trkpt lat="44.9394" lon="6.5829">
        <ele>1414.4</ele>
        <time>2023-07-02T08:05:15+0200</time>
      </trkpt>
      <trkpt lat="44.93938" lon="6.58279">
        <ele>1413.2</ele>
        <time>2023-07-02T08:05:17+0200</time>
      </trkpt>
      <trkpt lat="44.93941" lon="6.58272">
        <ele>1414</ele>
        <time>2023-07-02T08:05:18+0200</time>
      </trkpt>
      <trkpt lat="44.93942" lon="6.58265">
        <ele>1414.6</ele>
        <time>2023-07-02T08:05:19+0200</time>
      </trkpt>
      <trkpt lat="44.93947" lon="6.58259">
        <ele>1416.3</ele>
        <time>2023-07-02T08:05:22+0200</time>
      </trkpt>
      <trkpt lat="44.93947" lon="6.5825">
        <ele>1416.1</ele>
        <time>2023-07-02T08:05:25+0200</time>
      </trkpt>
      <trkpt lat="44.93951" lon="6.58247">
        <ele>1417.8</ele>
        <time>2023-07-02T08:05:27+0200</time>
      </trkpt>
      <trkpt lat="44.93954" lon="6.58239">
        <ele>1418.6</ele>
        <time>2023-07-02T08:05:32+0200</time>
      </trkpt>
      <trkpt lat="44.93955" lon="6.58232">
        <ele>1418.7</ele>
        <time>2023-07-02T08:05:35+0200</time>
      </trkpt>
      <trkpt lat="44.93955" lon="6.58225">
        <ele>1418.4</ele>
        <time>2023-07-02T08:05:38+0200</time>
      </trkpt>
      <trkpt lat="44.93955" lon="6.58215">
        <ele>1417.7</ele>
        <time>2023-07-02T08:05:41+0200</time>
      </trkpt>
      <trkpt lat="44.93958" lon="6.58206">
        <ele>1419</ele>
        <time>2023-07-02T08:05:43+0200</time>
      </trkpt>
      <trkpt lat="44.93961" lon="6.58196">
        <ele>1419.7</ele>
        <time>2023-07-02T08:05:45+0200</time>
      </trkpt>
      <trkpt lat="44.93961" lon="6.58189">
        <ele>1419.3</ele>
        <time>2023-07-02T08:05:46+0200</time>
      </trkpt>
      <trkpt lat="44.93963" lon="6.58183">
        <ele>1419.7</ele>
        <time>2023-07-02T08:05:47+0200</time>
      </trkpt>
      <trkpt lat="44.93964" lon="6.58176">
        <ele>1419.5</ele>
        <time>2023-07-02T08:05:48+0200</time>
      </trkpt>
      <trkpt lat="44.93966" lon="6.58169">
        <ele>1419.5</ele>
        <time>2023-07-02T08:05:49+0200</time>
      </trkpt>
      <trkpt lat="44.93967" lon="6.58161">
        <ele>1419.3</ele>
        <time>2023-07-02T08:05:50+0200</time>
      </trkpt>
      <trkpt lat="44.93968" lon="6.58153">
        <ele>1419.4</ele>
        <time>2023-07-02T08:05:51+0200</time>
      </trkpt>
      <trkpt lat="44.93969" lon="6.58144">
        <ele>1419.1</ele>
        <time>2023-07-02T08:05:52+0200</time>
      </trkpt>
      <trkpt lat="44.9397" lon="6.58135">
        <ele>1418.6</ele>
        <time>2023-07-02T08:05:53+0200</time>
      </trkpt>
      <trkpt lat="44.93971" lon="6.58126">
        <ele>1418.6</ele>
        <time>2023-07-02T08:05:54+0200</time>
      </trkpt>
      <trkpt lat="44.93973" lon="6.58117">
        <ele>1418.5</ele>
        <time>2023-07-02T08:05:55+0200</time>
      </trkpt>
      <trkpt lat="44.93974" lon="6.58106">
        <ele>1418.4</ele>
        <time>2023-07-02T08:05:56+0200</time>
      </trkpt>
      <trkpt lat="44.93974" lon="6.58095">
        <ele>1417.5</ele>
        <time>2023-07-02T08:05:57+0200</time>
      </trkpt>
      <trkpt lat="44.93973" lon="6.58084">
        <ele>1416.4</ele>
        <time>2023-07-02T08:05:58+0200</time>
      </trkpt>
      <trkpt lat="44.93973" lon="6.58072">
        <ele>1416</ele>
        <time>2023-07-02T08:05:59+0200</time>
      </trkpt>
      <trkpt lat="44.93972" lon="6.5806">
        <ele>1415.2</ele>
        <time>2023-07-02T08:06:00+0200</time>
      </trkpt>
      <trkpt lat="44.93972" lon="6.58047">
        <ele>1414.5</ele>
        <time>2023-07-02T08:06:01+0200</time>
      </trkpt>
      <trkpt lat="44.9397" lon="6.58034">
        <ele>1413.3</ele>
        <time>2023-07-02T08:06:02+0200</time>
      </trkpt>
      <trkpt lat="44.93968" lon="6.58019">
        <ele>1412.1</ele>
        <time>2023-07-02T08:06:03+0200</time>
      </trkpt>
      <trkpt lat="44.93963" lon="6.58007">
        <ele>1409.7</ele>
        <time>2023-07-02T08:06:04+0200</time>
      </trkpt>
      <trkpt lat="44.93959" lon="6.57993">
        <ele>1407.9</ele>
        <time>2023-07-02T08:06:05+0200</time>
      </trkpt>
      <trkpt lat="44.93959" lon="6.57979">
        <ele>1407.8</ele>
        <time>2023-07-02T08:06:06+0200</time>
      </trkpt>
      <trkpt lat="44.93956" lon="6.57963">
        <ele>1406.2</ele>
        <time>2023-07-02T08:06:07+0200</time>
      </trkpt>
      <trkpt lat="44.93954" lon="6.57948">
        <ele>1404.9</ele>
        <time>2023-07-02T08:06:08+0200</time>
      </trkpt>
      <trkpt lat="44.93954" lon="6.57934">
        <ele>1404.6</ele>
        <time>2023-07-02T08:06:09+0200</time>
      </trkpt>
      <trkpt lat="44.93954" lon="6.57918">
        <ele>1404.5</ele>
        <time>2023-07-02T08:06:10+0200</time>
      </trkpt>
      <trkpt lat="44.93957" lon="6.57904">
        <ele>1404.4</ele>
        <time>2023-07-02T08:06:11+0200</time>
      </trkpt>
      <trkpt lat="44.93958" lon="6.57891">
        <ele>1403.8</ele>
        <time>2023-07-02T08:06:12+0200</time>
      </trkpt>
      <trkpt lat="44.93959" lon="6.57877">
        <ele>1403.3</ele>
        <time>2023-07-02T08:06:13+0200</time>
      </trkpt>
      <trkpt lat="44.93963" lon="6.57865">
        <ele>1403.3</ele>
        <time>2023-07-02T08:06:14+0200</time>
      </trkpt>
      <trkpt lat="44.93966" lon="6.57853">
        <ele>1402.8</ele>
        <time>2023-07-02T08:06:15+0200</time>
      </trkpt>
      <trkpt lat="44.93972" lon="6.57841">
        <ele>1403</ele>
        <time>2023-07-02T08:06:16+0200</time>
      </trkpt>
      <trkpt lat="44.93979" lon="6.5783">
        <ele>1403.3</ele>
        <time>2023-07-02T08:06:17+0200</time>
      </trkpt>
      <trkpt lat="44.93986" lon="6.57819">
        <ele>1403.3</ele>
        <time>2023-07-02T08:06:18+0200</time>
      </trkpt>
      <trkpt lat="44.93992" lon="6.57808">
        <ele>1402.7</ele>
        <time>2023-07-02T08:06:19+0200</time>
      </trkpt>
      <trkpt lat="44.93997" lon="6.57799">
        <ele>1402.1</ele>
        <time>2023-07-02T08:06:20+0200</time>
      </trkpt>
      <trkpt lat="44.94004" lon="6.57791">
        <ele>1402.2</ele>
        <time>2023-07-02T08:06:21+0200</time>
      </trkpt>
      <trkpt lat="44.94012" lon="6.57784">
        <ele>1402.4</ele>
        <time>2023-07-02T08:06:22+0200</time>
      </trkpt>
      <trkpt lat="44.94018" lon="6.57775">
        <ele>1401.9</ele>
        <time>2023-07-02T08:06:23+0200</time>
      </trkpt>
      <trkpt lat="44.94026" lon="6.57769">
        <ele>1402.1</ele>
        <time>2023-07-02T08:06:24+0200</time>
      </trkpt>
      <trkpt lat="44.94033" lon="6.57762">
        <ele>1402.3</ele>
        <time>2023-07-02T08:06:25+0200</time>
      </trkpt>
      <trkpt lat="44.94041" lon="6.57755">
        <ele>1402.4</ele>
        <time>2023-07-02T08:06:26+0200</time>
      </trkpt>
      <trkpt lat="44.94049" lon="6.57752">
        <ele>1403.1</ele>
        <time>2023-07-02T08:06:27+0200</time>
      </trkpt>
      <trkpt lat="44.94056" lon="6.57747">
        <ele>1403.4</ele>
        <time>2023-07-02T08:06:28+0200</time>
      </trkpt>
      <trkpt lat="44.94063" lon="6.57744">
        <ele>1404.3</ele>
        <time>2023-07-02T08:06:29+0200</time>
      </trkpt>
      <trkpt lat="44.94071" lon="6.5774">
        <ele>1405.2</ele>
        <time>2023-07-02T08:06:30+0200</time>
      </trkpt>
      <trkpt lat="44.94078" lon="6.57745">
        <ele>1407.7</ele>
        <time>2023-07-02T08:06:31+0200</time>
      </trkpt>
      <trkpt lat="44.94087" lon="6.57742">
        <ele>1409.2</ele>
        <time>2023-07-02T08:06:32+0200</time>
      </trkpt>
      <trkpt lat="44.94094" lon="6.57736">
        <ele>1409.7</ele>
        <time>2023-07-02T08:06:33+0200</time>
      </trkpt>
      <trkpt lat="44.94099" lon="6.57733">
        <ele>1410.4</ele>
        <time>2023-07-02T08:06:34+0200</time>
      </trkpt>
      <trkpt lat="44.94103" lon="6.5773">
        <ele>1410.6</ele>
        <time>2023-07-02T08:06:35+0200</time>
      </trkpt>
      <trkpt lat="44.94108" lon="6.57725">
        <ele>1410.9</ele>
        <time>2023-07-02T08:06:36+0200</time>
      </trkpt>
      <trkpt lat="44.94112" lon="6.57721">
        <ele>1411.2</ele>
        <time>2023-07-02T08:06:37+0200</time>
      </trkpt>
      <trkpt lat="44.94116" lon="6.57716">
        <ele>1411.7</ele>
        <time>2023-07-02T08:06:38+0200</time>
      </trkpt>
      <trkpt lat="44.9412" lon="6.57711">
        <ele>1412.1</ele>
        <time>2023-07-02T08:06:39+0200</time>
      </trkpt>
      <trkpt lat="44.94124" lon="6.57707">
        <ele>1412.7</ele>
        <time>2023-07-02T08:06:40+0200</time>
      </trkpt>
      <trkpt lat="44.94131" lon="6.57698">
        <ele>1413.5</ele>
        <time>2023-07-02T08:06:42+0200</time>
      </trkpt>
      <trkpt lat="44.94136" lon="6.57693">
        <ele>1414</ele>
        <time>2023-07-02T08:06:44+0200</time>
      </trkpt>
      <trkpt lat="44.9414" lon="6.57689">
        <ele>1414.3</ele>
        <time>2023-07-02T08:06:45+0200</time>
      </trkpt>
      <trkpt lat="44.94143" lon="6.57682">
        <ele>1414.1</ele>
        <time>2023-07-02T08:06:47+0200</time>
      </trkpt>
      <trkpt lat="44.94145" lon="6.57676">
        <ele>1413.8</ele>
        <time>2023-07-02T08:06:48+0200</time>
      </trkpt>
      <trkpt lat="44.94152" lon="6.57669">
        <ele>1414.7</ele>
        <time>2023-07-02T08:06:50+0200</time>
      </trkpt>
      <trkpt lat="44.94157" lon="6.57662">
        <ele>1415</ele>
        <time>2023-07-02T08:06:52+0200</time>
      </trkpt>
      <trkpt lat="44.94164" lon="6.57655">
        <ele>1415.6</ele>
        <time>2023-07-02T08:06:54+0200</time>
      </trkpt>
      <trkpt lat="44.9417" lon="6.57646">
        <ele>1415.6</ele>
        <time>2023-07-02T08:06:56+0200</time>
      </trkpt>
      <trkpt lat="44.94175" lon="6.57638">
        <ele>1415.7</ele>
        <time>2023-07-02T08:06:58+0200</time>
      </trkpt>
      <trkpt lat="44.94182" lon="6.57633">
        <ele>1416.9</ele>
        <time>2023-07-02T08:07:00+0200</time>
      </trkpt>
      <trkpt lat="44.94187" lon="6.57628">
        <ele>1417.7</ele>
        <time>2023-07-02T08:07:02+0200</time>
      </trkpt>
      <trkpt lat="44.94192" lon="6.57622">
        <ele>1418.2</ele>
        <time>2023-07-02T08:07:04+0200</time>
      </trkpt>
      <trkpt lat="44.94198" lon="6.57617">
        <ele>1419.2</ele>
        <time>2023-07-02T08:07:06+0200</time>
      </trkpt>
      <trkpt lat="44.94204" lon="6.5761">
        <ele>1419.5</ele>
        <time>2023-07-02T08:07:08+0200</time>
      </trkpt>
      <trkpt lat="44.94208" lon="6.57607">
        <ele>1420.1</ele>
        <time>2023-07-02T08:07:10+0200</time>
      </trkpt>
      <trkpt lat="44.94213" lon="6.576">
        <ele>1420.4</ele>
        <time>2023-07-02T08:07:12+0200</time>
      </trkpt>
      <trkpt lat="44.94218" lon="6.57592">
        <ele>1420.3</ele>
        <time>2023-07-02T08:07:14+0200</time>
      </trkpt>
      <trkpt lat="44.94222" lon="6.57588">
        <ele>1420.9</ele>
        <time>2023-07-02T08:07:16+0200</time>
      </trkpt>
      <trkpt lat="44.94227" lon="6.57584">
        <ele>1421.1</ele>
        <time>2023-07-02T08:07:18+0200</time>
      </trkpt>
      <trkpt lat="44.94232" lon="6.57578">
        <ele>1421.5</ele>
        <time>2023-07-02T08:07:20+0200</time>
      </trkpt>
      <trkpt lat="44.94237" lon="6.57572">
        <ele>1421.6</ele>
        <time>2023-07-02T08:07:22+0200</time>
      </trkpt>
      <trkpt lat="44.94243" lon="6.57568">
        <ele>1422.3</ele>
        <time>2023-07-02T08:07:24+0200</time>
      </trkpt>
      <trkpt lat="44.94247" lon="6.57561">
        <ele>1422.1</ele>
        <time>2023-07-02T08:07:26+0200</time>
      </trkpt>
      <trkpt lat="44.94251" lon="6.57555">
        <ele>1422</ele>
        <time>2023-07-02T08:07:28+0200</time>
      </trkpt>
      <trkpt lat="44.94255" lon="6.5755">
        <ele>1422.5</ele>
        <time>2023-07-02T08:07:30+0200</time>
      </trkpt>
      <trkpt lat="44.94259" lon="6.57542">
        <ele>1422.5</ele>
        <time>2023-07-02T08:07:32+0200</time>
      </trkpt>
      <trkpt lat="44.94266" lon="6.57538">
        <ele>1423.3</ele>
        <time>2023-07-02T08:07:34+0200</time>
      </trkpt>
      <trkpt lat="44.94272" lon="6.57533">
        <ele>1423.6</ele>
        <time>2023-07-02T08:07:36+0200</time>
      </trkpt>
      <trkpt lat="44.94278" lon="6.57528">
        <ele>1424.1</ele>
        <time>2023-07-02T08:07:38+0200</time>
      </trkpt>
      <trkpt lat="44.94285" lon="6.57522">
        <ele>1424.3</ele>
        <time>2023-07-02T08:07:40+0200</time>
      </trkpt>
      <trkpt lat="44.9429" lon="6.57515">
        <ele>1424.5</ele>
        <time>2023-07-02T08:07:42+0200</time>
      </trkpt>
      <trkpt lat="44.94296" lon="6.5751">
        <ele>1424.7</ele>
        <time>2023-07-02T08:07:44+0200</time>
      </trkpt>
      <trkpt lat="44.94302" lon="6.57503">
        <ele>1424.8</ele>
        <time>2023-07-02T08:07:46+0200</time>
      </trkpt>
      <trkpt lat="44.94307" lon="6.57496">
        <ele>1425</ele>
        <time>2023-07-02T08:07:48+0200</time>
      </trkpt>
      <trkpt lat="44.94313" lon="6.5749">
        <ele>1425.3</ele>
        <time>2023-07-02T08:07:50+0200</time>
      </trkpt>
      <trkpt lat="44.94318" lon="6.57482">
        <ele>1425.5</ele>
        <time>2023-07-02T08:07:52+0200</time>
      </trkpt>
      <trkpt lat="44.94321" lon="6.57472">
        <ele>1425.2</ele>
        <time>2023-07-02T08:07:54+0200</time>
      </trkpt>
      <trkpt lat="44.94325" lon="6.57465">
        <ele>1425.4</ele>
        <time>2023-07-02T08:07:56+0200</time>
      </trkpt>
      <trkpt lat="44.94331" lon="6.57459">
        <ele>1425.8</ele>
        <time>2023-07-02T08:07:58+0200</time>
      </trkpt>
      <trkpt lat="44.94336" lon="6.57453">
        <ele>1426.1</ele>
        <time>2023-07-02T08:08:00+0200</time>
      </trkpt>
      <trkpt lat="44.94341" lon="6.57446">
        <ele>1426.2</ele>
        <time>2023-07-02T08:08:02+0200</time>
      </trkpt>
      <trkpt lat="44.94345" lon="6.57438">
        <ele>1426.4</ele>
        <time>2023-07-02T08:08:04+0200</time>
      </trkpt>
      <trkpt lat="44.94349" lon="6.57434">
        <ele>1426.9</ele>
        <time>2023-07-02T08:08:06+0200</time>
      </trkpt>
      <trkpt lat="44.94354" lon="6.57431">
        <ele>1427.5</ele>
        <time>2023-07-02T08:08:08+0200</time>
      </trkpt>
      <trkpt lat="44.9436" lon="6.57432">
        <ele>1428.4</ele>
        <time>2023-07-02T08:08:11+0200</time>
      </trkpt>
      <trkpt lat="44.94365" lon="6.57428">
        <ele>1428.9</ele>
        <time>2023-07-02T08:08:13+0200</time>
      </trkpt>
      <trkpt lat="44.94371" lon="6.57423">
        <ele>1429.6</ele>
        <time>2023-07-02T08:08:15+0200</time>
      </trkpt>
      <trkpt lat="44.94375" lon="6.57418">
        <ele>1430</ele>
        <time>2023-07-02T08:08:17+0200</time>
      </trkpt>
      <trkpt lat="44.9438" lon="6.57414">
        <ele>1430.4</ele>
        <time>2023-07-02T08:08:19+0200</time>
      </trkpt>
      <trkpt lat="44.94386" lon="6.57409">
        <ele>1430.7</ele>
        <time>2023-07-02T08:08:21+0200</time>
      </trkpt>
      <trkpt lat="44.94392" lon="6.57406">
        <ele>1431.3</ele>
        <time>2023-07-02T08:08:24+0200</time>
      </trkpt>
      <trkpt lat="44.94398" lon="6.5741">
        <ele>1432.5</ele>
        <time>2023-07-02T08:08:28+0200</time>
      </trkpt>
      <trkpt lat="44.94396" lon="6.57416">
        <ele>1433</ele>
        <time>2023-07-02T08:08:32+0200</time>
      </trkpt>
      <trkpt lat="44.94398" lon="6.57424">
        <ele>1433.7</ele>
        <time>2023-07-02T08:08:34+0200</time>
      </trkpt>
      <trkpt lat="44.94399" lon="6.57431">
        <ele>1434.2</ele>
        <time>2023-07-02T08:08:38+0200</time>
      </trkpt>
      <trkpt lat="44.94398" lon="6.57439">
        <ele>1434.6</ele>
        <time>2023-07-02T08:08:41+0200</time>
      </trkpt>
      <trkpt lat="44.94399" lon="6.57445">
        <ele>1435.3</ele>
        <time>2023-07-02T08:08:43+0200</time>
      </trkpt>
      <trkpt lat="44.94402" lon="6.57452">
        <ele>1436.3</ele>
        <time>2023-07-02T08:08:46+0200</time>
      </trkpt>
      <trkpt lat="44.94401" lon="6.57459">
        <ele>1436.7</ele>
        <time>2023-07-02T08:08:49+0200</time>
      </trkpt>
      <trkpt lat="44.94403" lon="6.57466">
        <ele>1437.6</ele>
        <time>2023-07-02T08:08:52+0200</time>
      </trkpt>
      <trkpt lat="44.94407" lon="6.57474">
        <ele>1439</ele>
        <time>2023-07-02T08:08:57+0200</time>
      </trkpt>
      <trkpt lat="44.94406" lon="6.5748">
        <ele>1439.3</ele>
        <time>2023-07-02T08:09:01+0200</time>
      </trkpt>
      <trkpt lat="44.94407" lon="6.57488">
        <ele>1440.2</ele>
        <time>2023-07-02T08:09:04+0200</time>
      </trkpt>
      <trkpt lat="44.94408" lon="6.57495">
        <ele>1441</ele>
        <time>2023-07-02T08:09:07+0200</time>
      </trkpt>
      <trkpt lat="44.94409" lon="6.57502">
        <ele>1441.7</ele>
        <time>2023-07-02T08:09:10+0200</time>
      </trkpt>
      <trkpt lat="44.94409" lon="6.57509">
        <ele>1442.2</ele>
        <time>2023-07-02T08:09:13+0200</time>
      </trkpt>
      <trkpt lat="44.94411" lon="6.57516">
        <ele>1443.2</ele>
        <time>2023-07-02T08:09:16+0200</time>
      </trkpt>
      <trkpt lat="44.94415" lon="6.57519">
        <ele>1444.1</ele>
        <time>2023-07-02T08:09:20+0200</time>
      </trkpt>
      <trkpt lat="44.94421" lon="6.5752">
        <ele>1445.1</ele>
        <time>2023-07-02T08:09:25+0200</time>
      </trkpt>
      <trkpt lat="44.94426" lon="6.57519">
        <ele>1446</ele>
        <time>2023-07-02T08:09:28+0200</time>
      </trkpt>
      <trkpt lat="44.94431" lon="6.57518">
        <ele>1446.8</ele>
        <time>2023-07-02T08:09:31+0200</time>
      </trkpt>
      <trkpt lat="44.94437" lon="6.57516">
        <ele>1447.8</ele>
        <time>2023-07-02T08:09:35+0200</time>
      </trkpt>
      <trkpt lat="44.94443" lon="6.57513">
        <ele>1448.6</ele>
        <time>2023-07-02T08:09:38+0200</time>
      </trkpt>
      <trkpt lat="44.94448" lon="6.57512">
        <ele>1449.6</ele>
        <time>2023-07-02T08:09:41+0200</time>
      </trkpt>
      <trkpt lat="44.94453" lon="6.57512">
        <ele>1450.8</ele>
        <time>2023-07-02T08:09:45+0200</time>
      </trkpt>
      <trkpt lat="44.94458" lon="6.57516">
        <ele>1452.2</ele>
        <time>2023-07-02T08:09:48+0200</time>
      </trkpt>
      <trkpt lat="44.94461" lon="6.57523">
        <ele>1453.2</ele>
        <time>2023-07-02T08:09:51+0200</time>
      </trkpt>
      <trkpt lat="44.9446" lon="6.57531">
        <ele>1453.5</ele>
        <time>2023-07-02T08:09:54+0200</time>
      </trkpt>
      <trkpt lat="44.94458" lon="6.57538">
        <ele>1453.7</ele>
        <time>2023-07-02T08:09:58+0200</time>
      </trkpt>
      <trkpt lat="44.94455" lon="6.57543">
        <ele>1453.6</ele>
        <time>2023-07-02T08:10:00+0200</time>
      </trkpt>
      <trkpt lat="44.94453" lon="6.5755">
        <ele>1453.9</ele>
        <time>2023-07-02T08:10:02+0200</time>
      </trkpt>
      <trkpt lat="44.9445" lon="6.57555">
        <ele>1453.9</ele>
        <time>2023-07-02T08:10:04+0200</time>
      </trkpt>
      <trkpt lat="44.94447" lon="6.57562">
        <ele>1453.8</ele>
        <time>2023-07-02T08:10:06+0200</time>
      </trkpt>
      <trkpt lat="44.94447" lon="6.5757">
        <ele>1454</ele>
        <time>2023-07-02T08:10:09+0200</time>
      </trkpt>
      <trkpt lat="44.94452" lon="6.57573">
        <ele>1455.1</ele>
        <time>2023-07-02T08:10:12+0200</time>
      </trkpt>
      <trkpt lat="44.94455" lon="6.57567">
        <ele>1455.5</ele>
        <time>2023-07-02T08:10:15+0200</time>
      </trkpt>
      <trkpt lat="44.94461" lon="6.57564">
        <ele>1456.4</ele>
        <time>2023-07-02T08:10:19+0200</time>
      </trkpt>
      <trkpt lat="44.94465" lon="6.57565">
        <ele>1457.4</ele>
        <time>2023-07-02T08:10:22+0200</time>
      </trkpt>
      <trkpt lat="44.9447" lon="6.57563">
        <ele>1458</ele>
        <time>2023-07-02T08:10:24+0200</time>
      </trkpt>
      <trkpt lat="44.94475" lon="6.57564">
        <ele>1459.2</ele>
        <time>2023-07-02T08:10:27+0200</time>
      </trkpt>
      <trkpt lat="44.94475" lon="6.57571">
        <ele>1459.7</ele>
        <time>2023-07-02T08:10:33+0200</time>
      </trkpt>
      <trkpt lat="44.94473" lon="6.57577">
        <ele>1459.6</ele>
        <time>2023-07-02T08:10:37+0200</time>
      </trkpt>
      <trkpt lat="44.94471" lon="6.57583">
        <ele>1459.8</ele>
        <time>2023-07-02T08:10:39+0200</time>
      </trkpt>
      <trkpt lat="44.9447" lon="6.57592">
        <ele>1460.1</ele>
        <time>2023-07-02T08:10:43+0200</time>
      </trkpt>
      <trkpt lat="44.94476" lon="6.57594">
        <ele>1461.6</ele>
        <time>2023-07-02T08:10:45+0200</time>
      </trkpt>
      <trkpt lat="44.94474" lon="6.57601">
        <ele>1461.6</ele>
        <time>2023-07-02T08:10:48+0200</time>
      </trkpt>
      <trkpt lat="44.94469" lon="6.5761">
        <ele>1461.4</ele>
        <time>2023-07-02T08:10:52+0200</time>
      </trkpt>
      <trkpt lat="44.9447" lon="6.57618">
        <ele>1462.3</ele>
        <time>2023-07-02T08:10:54+0200</time>
      </trkpt>
      <trkpt lat="44.94476" lon="6.57621">
        <ele>1463.9</ele>
        <time>2023-07-02T08:10:57+0200</time>
      </trkpt>
      <trkpt lat="44.94482" lon="6.57616">
        <ele>1464.6</ele>
        <time>2023-07-02T08:11:02+0200</time>
      </trkpt>
      <trkpt lat="44.94486" lon="6.57614">
        <ele>1465.4</ele>
        <time>2023-07-02T08:11:06+0200</time>
      </trkpt>
      <trkpt lat="44.9449" lon="6.57611">
        <ele>1465.9</ele>
        <time>2023-07-02T08:11:08+0200</time>
      </trkpt>
      <trkpt lat="44.94495" lon="6.57612">
        <ele>1467.1</ele>
        <time>2023-07-02T08:11:10+0200</time>
      </trkpt>
      <trkpt lat="44.94501" lon="6.5761">
        <ele>1468.3</ele>
        <time>2023-07-02T08:11:12+0200</time>
      </trkpt>
      <trkpt lat="44.94507" lon="6.57609">
        <ele>1469.6</ele>
        <time>2023-07-02T08:11:16+0200</time>
      </trkpt>
      <trkpt lat="44.94502" lon="6.57613">
        <ele>1468.8</ele>
        <time>2023-07-02T08:11:28+0200</time>
      </trkpt>
      <trkpt lat="44.94504" lon="6.5762">
        <ele>1469.7</ele>
        <time>2023-07-02T08:11:31+0200</time>
      </trkpt>
      <trkpt lat="44.94504" lon="6.57627">
        <ele>1470.2</ele>
        <time>2023-07-02T08:11:33+0200</time>
      </trkpt>
      <trkpt lat="44.94507" lon="6.57632">
        <ele>1471.3</ele>
        <time>2023-07-02T08:11:36+0200</time>
      </trkpt>
      <trkpt lat="44.94513" lon="6.57636">
        <ele>1473.1</ele>
        <time>2023-07-02T08:11:40+0200</time>
      </trkpt>
      <trkpt lat="44.94519" lon="6.5763">
        <ele>1474.1</ele>
        <time>2023-07-02T08:11:43+0200</time>
      </trkpt>
      <trkpt lat="44.94523" lon="6.5762">
        <ele>1474.5</ele>
        <time>2023-07-02T08:11:46+0200</time>
      </trkpt>
      <trkpt lat="44.94524" lon="6.57613">
        <ele>1474.1</ele>
        <time>2023-07-02T08:11:48+0200</time>
      </trkpt>
      <trkpt lat="44.94526" lon="6.57607">
        <ele>1474.3</ele>
        <time>2023-07-02T08:11:50+0200</time>
      </trkpt>
      <trkpt lat="44.94533" lon="6.57604">
        <ele>1476.1</ele>
        <time>2023-07-02T08:11:55+0200</time>
      </trkpt>
      <trkpt lat="44.94538" lon="6.57599">
        <ele>1477.6</ele>
        <time>2023-07-02T08:11:57+0200</time>
      </trkpt>
      <trkpt lat="44.94544" lon="6.57597">
        <ele>1479.6</ele>
        <time>2023-07-02T08:11:59+0200</time>
      </trkpt>
      <trkpt lat="44.94548" lon="6.57593">
        <ele>1481</ele>
        <time>2023-07-02T08:12:00+0200</time>
      </trkpt>
      <trkpt lat="44.94551" lon="6.57586">
        <ele>1482.2</ele>
        <time>2023-07-02T08:12:02+0200</time>
      </trkpt>
      <trkpt lat="44.94551" lon="6.57576">
        <ele>1482.4</ele>
        <time>2023-07-02T08:12:04+0200</time>
      </trkpt>
      <trkpt lat="44.94549" lon="6.57568">
        <ele>1482</ele>
        <time>2023-07-02T08:12:06+0200</time>
      </trkpt>
      <trkpt lat="44.94548" lon="6.57561">
        <ele>1481.5</ele>
        <time>2023-07-02T08:12:08+0200</time>
      </trkpt>
      <trkpt lat="44.94544" lon="6.57555">
        <ele>1480</ele>
        <time>2023-07-02T08:12:10+0200</time>
      </trkpt>
      <trkpt lat="44.9454" lon="6.57547">
        <ele>1478.6</ele>
        <time>2023-07-02T08:12:13+0200</time>
      </trkpt>
      <trkpt lat="44.94539" lon="6.57541">
        <ele>1478.5</ele>
        <time>2023-07-02T08:12:15+0200</time>
      </trkpt>
      <trkpt lat="44.94537" lon="6.57533">
        <ele>1477.4</ele>
        <time>2023-07-02T08:12:18+0200</time>
      </trkpt>
      <trkpt lat="44.94537" lon="6.57525">
        <ele>1477.5</ele>
        <time>2023-07-02T08:12:21+0200</time>
      </trkpt>
      <trkpt lat="44.94539" lon="6.57519">
        <ele>1478.9</ele>
        <time>2023-07-02T08:12:25+0200</time>
      </trkpt>
      <trkpt lat="44.94544" lon="6.57522">
        <ele>1481.2</ele>
        <time>2023-07-02T08:12:29+0200</time>
      </trkpt>
      <trkpt lat="44.94546" lon="6.57531">
        <ele>1482.2</ele>
        <time>2023-07-02T08:12:33+0200</time>
      </trkpt>
      <trkpt lat="44.94547" lon="6.57538">
        <ele>1482</ele>
        <time>2023-07-02T08:12:38+0200</time>
      </trkpt>
      <trkpt lat="44.94551" lon="6.57545">
        <ele>1483.6</ele>
        <time>2023-07-02T08:12:40+0200</time>
      </trkpt>
      <trkpt lat="44.94556" lon="6.5755">
        <ele>1485.6</ele>
        <time>2023-07-02T08:12:44+0200</time>
      </trkpt>
      <trkpt lat="44.9456" lon="6.57556">
        <ele>1487.6</ele>
        <time>2023-07-02T08:12:48+0200</time>
      </trkpt>
      <trkpt lat="44.94563" lon="6.57561">
        <ele>1488.8</ele>
        <time>2023-07-02T08:12:53+0200</time>
      </trkpt>
      <trkpt lat="44.94567" lon="6.57567">
        <ele>1490.2</ele>
        <time>2023-07-02T08:12:57+0200</time>
      </trkpt>
      <trkpt lat="44.9457" lon="6.57572">
        <ele>1491.8</ele>
        <time>2023-07-02T08:13:00+0200</time>
      </trkpt>
      <trkpt lat="44.94575" lon="6.57578">
        <ele>1493.5</ele>
        <time>2023-07-02T08:13:05+0200</time>
      </trkpt>
      <trkpt lat="44.94578" lon="6.57584">
        <ele>1494.5</ele>
        <time>2023-07-02T08:13:08+0200</time>
      </trkpt>
      <trkpt lat="44.94581" lon="6.5759">
        <ele>1495.4</ele>
        <time>2023-07-02T08:13:12+0200</time>
      </trkpt>
      <trkpt lat="44.94583" lon="6.57597">
        <ele>1495.9</ele>
        <time>2023-07-02T08:13:16+0200</time>
      </trkpt>
      <trkpt lat="44.94586" lon="6.57603">
        <ele>1497.2</ele>
        <time>2023-07-02T08:13:20+0200</time>
      </trkpt>
      <trkpt lat="44.94588" lon="6.57611">
        <ele>1497.3</ele>
        <time>2023-07-02T08:13:24+0200</time>
      </trkpt>
      <trkpt lat="44.9459" lon="6.57619">
        <ele>1498.1</ele>
        <time>2023-07-02T08:13:28+0200</time>
      </trkpt>
      <trkpt lat="44.94595" lon="6.57627">
        <ele>1499.9</ele>
        <time>2023-07-02T08:13:32+0200</time>
      </trkpt>
      <trkpt lat="44.94599" lon="6.57634">
        <ele>1501.1</ele>
        <time>2023-07-02T08:13:35+0200</time>
      </trkpt>
      <trkpt lat="44.946" lon="6.57642">
        <ele>1501</ele>
        <time>2023-07-02T08:13:38+0200</time>
      </trkpt>
      <trkpt lat="44.94602" lon="6.57648">
        <ele>1501.1</ele>
        <time>2023-07-02T08:13:41+0200</time>
      </trkpt>
      <trkpt lat="44.94605" lon="6.57654">
        <ele>1501.2</ele>
        <time>2023-07-02T08:13:44+0200</time>
      </trkpt>
      <trkpt lat="44.94607" lon="6.57659">
        <ele>1501</ele>
        <time>2023-07-02T08:13:47+0200</time>
      </trkpt>
      <trkpt lat="44.9461" lon="6.57665">
        <ele>1501</ele>
        <time>2023-07-02T08:13:50+0200</time>
      </trkpt>
      <trkpt lat="44.94614" lon="6.5767">
        <ele>1502.5</ele>
        <time>2023-07-02T08:13:54+0200</time>
      </trkpt>
      <trkpt lat="44.94619" lon="6.57673">
        <ele>1504.2</ele>
        <time>2023-07-02T08:13:57+0200</time>
      </trkpt>
      <trkpt lat="44.94622" lon="6.5768">
        <ele>1506.1</ele>
        <time>2023-07-02T08:14:03+0200</time>
      </trkpt>
      <trkpt lat="44.94626" lon="6.57674">
        <ele>1506.9</ele>
        <time>2023-07-02T08:14:12+0200</time>
      </trkpt>
      <trkpt lat="44.94625" lon="6.5768">
        <ele>1506.9</ele>
        <time>2023-07-02T08:14:59+0200</time>
      </trkpt>
      <trkpt lat="44.94625" lon="6.57687">
        <ele>1507.4</ele>
        <time>2023-07-02T08:15:22+0200</time>
      </trkpt>
      <trkpt lat="44.94624" lon="6.57695">
        <ele>1507.9</ele>
        <time>2023-07-02T08:15:25+0200</time>
      </trkpt>
      <trkpt lat="44.94621" lon="6.577">
        <ele>1509.1</ele>
        <time>2023-07-02T08:15:28+0200</time>
      </trkpt>
      <trkpt lat="44.94615" lon="6.57704">
        <ele>1508.7</ele>
        <time>2023-07-02T08:15:31+0200</time>
      </trkpt>
      <trkpt lat="44.94609" lon="6.57706">
        <ele>1508.1</ele>
        <time>2023-07-02T08:15:34+0200</time>
      </trkpt>
      <trkpt lat="44.94602" lon="6.57708">
        <ele>1507.5</ele>
        <time>2023-07-02T08:15:41+0200</time>
      </trkpt>
      <trkpt lat="44.94593" lon="6.577">
        <ele>1502.7</ele>
        <time>2023-07-02T08:15:45+0200</time>
      </trkpt>
      <trkpt lat="44.94587" lon="6.57703">
        <ele>1502.6</ele>
        <time>2023-07-02T08:15:48+0200</time>
      </trkpt>
      <trkpt lat="44.94581" lon="6.57704">
        <ele>1501.9</ele>
        <time>2023-07-02T08:15:50+0200</time>
      </trkpt>
      <trkpt lat="44.94575" lon="6.57706">
        <ele>1501.9</ele>
        <time>2023-07-02T08:15:52+0200</time>
      </trkpt>
      <trkpt lat="44.9457" lon="6.57708">
        <ele>1502.1</ele>
        <time>2023-07-02T08:15:54+0200</time>
      </trkpt>
      <trkpt lat="44.94566" lon="6.57714">
        <ele>1503.7</ele>
        <time>2023-07-02T08:15:56+0200</time>
      </trkpt>
      <trkpt lat="44.9456" lon="6.57719">
        <ele>1504.5</ele>
        <time>2023-07-02T08:15:59+0200</time>
      </trkpt>
      <trkpt lat="44.94555" lon="6.57722">
        <ele>1504.8</ele>
        <time>2023-07-02T08:16:02+0200</time>
      </trkpt>
      <trkpt lat="44.94549" lon="6.57725">
        <ele>1504.1</ele>
        <time>2023-07-02T08:16:05+0200</time>
      </trkpt>
      <trkpt lat="44.94545" lon="6.5773">
        <ele>1504.9</ele>
        <time>2023-07-02T08:16:07+0200</time>
      </trkpt>
      <trkpt lat="44.9454" lon="6.57736">
        <ele>1505.6</ele>
        <time>2023-07-02T08:16:10+0200</time>
      </trkpt>
      <trkpt lat="44.94537" lon="6.57744">
        <ele>1507.1</ele>
        <time>2023-07-02T08:16:13+0200</time>
      </trkpt>
      <trkpt lat="44.94532" lon="6.57749">
        <ele>1507.7</ele>
        <time>2023-07-02T08:16:15+0200</time>
      </trkpt>
      <trkpt lat="44.9453" lon="6.57754">
        <ele>1508.8</ele>
        <time>2023-07-02T08:16:17+0200</time>
      </trkpt>
      <trkpt lat="44.94526" lon="6.57761">
        <ele>1509.5</ele>
        <time>2023-07-02T08:16:20+0200</time>
      </trkpt>
      <trkpt lat="44.94522" lon="6.57764">
        <ele>1508.9</ele>
        <time>2023-07-02T08:16:23+0200</time>
      </trkpt>
      <trkpt lat="44.94517" lon="6.5777">
        <ele>1508.9</ele>
        <time>2023-07-02T08:16:26+0200</time>
      </trkpt>
      <trkpt lat="44.94514" lon="6.57776">
        <ele>1509.6</ele>
        <time>2023-07-02T08:16:29+0200</time>
      </trkpt>
      <trkpt lat="44.94513" lon="6.57785">
        <ele>1511</ele>
        <time>2023-07-02T08:16:32+0200</time>
      </trkpt>
      <trkpt lat="44.94511" lon="6.57793">
        <ele>1512.1</ele>
        <time>2023-07-02T08:16:35+0200</time>
      </trkpt>
      <trkpt lat="44.94512" lon="6.578">
        <ele>1513.8</ele>
        <time>2023-07-02T08:16:37+0200</time>
      </trkpt>
      <trkpt lat="44.9451" lon="6.57809">
        <ele>1515</ele>
        <time>2023-07-02T08:16:41+0200</time>
      </trkpt>
      <trkpt lat="44.9451" lon="6.57815">
        <ele>1516.1</ele>
        <time>2023-07-02T08:16:43+0200</time>
      </trkpt>
      <trkpt lat="44.9451" lon="6.57824">
        <ele>1517.7</ele>
        <time>2023-07-02T08:16:47+0200</time>
      </trkpt>
      <trkpt lat="44.94507" lon="6.57831">
        <ele>1518</ele>
        <time>2023-07-02T08:16:52+0200</time>
      </trkpt>
      <trkpt lat="44.94507" lon="6.57839">
        <ele>1519.4</ele>
        <time>2023-07-02T08:16:55+0200</time>
      </trkpt>
      <trkpt lat="44.94506" lon="6.57846">
        <ele>1520.8</ele>
        <time>2023-07-02T08:16:58+0200</time>
      </trkpt>
      <trkpt lat="44.94508" lon="6.57854">
        <ele>1523</ele>
        <time>2023-07-02T08:17:01+0200</time>
      </trkpt>
      <trkpt lat="44.94509" lon="6.57861">
        <ele>1524.8</ele>
        <time>2023-07-02T08:17:03+0200</time>
      </trkpt>
      <trkpt lat="44.94509" lon="6.5787">
        <ele>1527.1</ele>
        <time>2023-07-02T08:17:06+0200</time>
      </trkpt>
      <trkpt lat="44.94506" lon="6.57875">
        <ele>1527.8</ele>
        <time>2023-07-02T08:17:09+0200</time>
      </trkpt>
      <trkpt lat="44.94502" lon="6.57882">
        <ele>1528.8</ele>
        <time>2023-07-02T08:17:13+0200</time>
      </trkpt>
      <trkpt lat="44.94496" lon="6.57883">
        <ele>1527.4</ele>
        <time>2023-07-02T08:17:18+0200</time>
      </trkpt>
      <trkpt lat="44.94491" lon="6.57885">
        <ele>1526.8</ele>
        <time>2023-07-02T08:17:22+0200</time>
      </trkpt>
      <trkpt lat="44.94486" lon="6.57886">
        <ele>1526.2</ele>
        <time>2023-07-02T08:17:25+0200</time>
      </trkpt>
      <trkpt lat="44.94481" lon="6.57888">
        <ele>1525.5</ele>
        <time>2023-07-02T08:17:27+0200</time>
      </trkpt>
      <trkpt lat="44.94476" lon="6.57891">
        <ele>1525.3</ele>
        <time>2023-07-02T08:17:30+0200</time>
      </trkpt>
      <trkpt lat="44.9447" lon="6.57894">
        <ele>1525.2</ele>
        <time>2023-07-02T08:17:33+0200</time>
      </trkpt>
      <trkpt lat="44.94467" lon="6.579">
        <ele>1526</ele>
        <time>2023-07-02T08:17:36+0200</time>
      </trkpt>
      <trkpt lat="44.94464" lon="6.57905">
        <ele>1527</ele>
        <time>2023-07-02T08:17:38+0200</time>
      </trkpt>
      <trkpt lat="44.9446" lon="6.5791">
        <ele>1527.7</ele>
        <time>2023-07-02T08:17:41+0200</time>
      </trkpt>
      <trkpt lat="44.94458" lon="6.57916">
        <ele>1528.6</ele>
        <time>2023-07-02T08:17:43+0200</time>
      </trkpt>
      <trkpt lat="44.94455" lon="6.57921">
        <ele>1529.3</ele>
        <time>2023-07-02T08:17:45+0200</time>
      </trkpt>
      <trkpt lat="44.94451" lon="6.57926">
        <ele>1529.8</ele>
        <time>2023-07-02T08:17:49+0200</time>
      </trkpt>
      <trkpt lat="44.94449" lon="6.57937">
        <ele>1531.9</ele>
        <time>2023-07-02T08:17:52+0200</time>
      </trkpt>
      <trkpt lat="44.94445" lon="6.57943">
        <ele>1532.9</ele>
        <time>2023-07-02T08:17:56+0200</time>
      </trkpt>
      <trkpt lat="44.94441" lon="6.57951">
        <ele>1533.7</ele>
        <time>2023-07-02T08:18:00+0200</time>
      </trkpt>
      <trkpt lat="44.94441" lon="6.57959">
        <ele>1535.4</ele>
        <time>2023-07-02T08:18:02+0200</time>
      </trkpt>
      <trkpt lat="44.94442" lon="6.57966">
        <ele>1537.2</ele>
        <time>2023-07-02T08:18:05+0200</time>
      </trkpt>
      <trkpt lat="44.94444" lon="6.57975">
        <ele>1539.3</ele>
        <time>2023-07-02T08:18:09+0200</time>
      </trkpt>
      <trkpt lat="44.94443" lon="6.57984">
        <ele>1540.9</ele>
        <time>2023-07-02T08:18:12+0200</time>
      </trkpt>
      <trkpt lat="44.94441" lon="6.5799">
        <ele>1541.4</ele>
        <time>2023-07-02T08:18:15+0200</time>
      </trkpt>
      <trkpt lat="44.94441" lon="6.57997">
        <ele>1542.6</ele>
        <time>2023-07-02T08:18:18+0200</time>
      </trkpt>
      <trkpt lat="44.94438" lon="6.58003">
        <ele>1543</ele>
        <time>2023-07-02T08:18:22+0200</time>
      </trkpt>
      <trkpt lat="44.94437" lon="6.5801">
        <ele>1544.1</ele>
        <time>2023-07-02T08:18:25+0200</time>
      </trkpt>
      <trkpt lat="44.94432" lon="6.58015">
        <ele>1544.1</ele>
        <time>2023-07-02T08:18:29+0200</time>
      </trkpt>
      <trkpt lat="44.94428" lon="6.5802">
        <ele>1544</ele>
        <time>2023-07-02T08:18:34+0200</time>
      </trkpt>
      <trkpt lat="44.94422" lon="6.58022">
        <ele>1543.3</ele>
        <time>2023-07-02T08:18:36+0200</time>
      </trkpt>
      <trkpt lat="44.94421" lon="6.5803">
        <ele>1544.4</ele>
        <time>2023-07-02T08:18:38+0200</time>
      </trkpt>
      <trkpt lat="44.9442" lon="6.58036">
        <ele>1544.9</ele>
        <time>2023-07-02T08:18:40+0200</time>
      </trkpt>
      <trkpt lat="44.94419" lon="6.58043">
        <ele>1545.8</ele>
        <time>2023-07-02T08:18:42+0200</time>
      </trkpt>
      <trkpt lat="44.94418" lon="6.58052">
        <ele>1546.8</ele>
        <time>2023-07-02T08:18:45+0200</time>
      </trkpt>
      <trkpt lat="44.94416" lon="6.58058">
        <ele>1547.3</ele>
        <time>2023-07-02T08:18:47+0200</time>
      </trkpt>
      <trkpt lat="44.94415" lon="6.58064">
        <ele>1548.3</ele>
        <time>2023-07-02T08:18:49+0200</time>
      </trkpt>
      <trkpt lat="44.94413" lon="6.58071">
        <ele>1549</ele>
        <time>2023-07-02T08:18:51+0200</time>
      </trkpt>
      <trkpt lat="44.94414" lon="6.58078">
        <ele>1550.5</ele>
        <time>2023-07-02T08:18:53+0200</time>
      </trkpt>
      <trkpt lat="44.94414" lon="6.58087">
        <ele>1552.1</ele>
        <time>2023-07-02T08:18:56+0200</time>
      </trkpt>
      <trkpt lat="44.94412" lon="6.58095">
        <ele>1552.7</ele>
        <time>2023-07-02T08:18:59+0200</time>
      </trkpt>
      <trkpt lat="44.94412" lon="6.58101">
        <ele>1553.9</ele>
        <time>2023-07-02T08:19:01+0200</time>
      </trkpt>
      <trkpt lat="44.94411" lon="6.58109">
        <ele>1555.1</ele>
        <time>2023-07-02T08:19:03+0200</time>
      </trkpt>
      <trkpt lat="44.9441" lon="6.58115">
        <ele>1556.1</ele>
        <time>2023-07-02T08:19:06+0200</time>
      </trkpt>
      <trkpt lat="44.94407" lon="6.58122">
        <ele>1556.4</ele>
        <time>2023-07-02T08:19:09+0200</time>
      </trkpt>
      <trkpt lat="44.94403" lon="6.58131">
        <ele>1557</ele>
        <time>2023-07-02T08:19:11+0200</time>
      </trkpt>
      <trkpt lat="44.944" lon="6.58139">
        <ele>1557.9</ele>
        <time>2023-07-02T08:19:15+0200</time>
      </trkpt>
      <trkpt lat="44.94397" lon="6.58143">
        <ele>1557.9</ele>
        <time>2023-07-02T08:19:19+0200</time>
      </trkpt>
      <trkpt lat="44.94393" lon="6.58148">
        <ele>1557.7</ele>
        <time>2023-07-02T08:19:23+0200</time>
      </trkpt>
      <trkpt lat="44.94388" lon="6.58153">
        <ele>1557.4</ele>
        <time>2023-07-02T08:19:26+0200</time>
      </trkpt>
      <trkpt lat="44.94384" lon="6.58155">
        <ele>1556.4</ele>
        <time>2023-07-02T08:19:29+0200</time>
      </trkpt>
      <trkpt lat="44.94381" lon="6.5816">
        <ele>1556.6</ele>
        <time>2023-07-02T08:19:31+0200</time>
      </trkpt>
      <trkpt lat="44.94381" lon="6.58169">
        <ele>1558.1</ele>
        <time>2023-07-02T08:19:34+0200</time>
      </trkpt>
      <trkpt lat="44.94381" lon="6.58175">
        <ele>1559.6</ele>
        <time>2023-07-02T08:19:36+0200</time>
      </trkpt>
      <trkpt lat="44.94376" lon="6.58178">
        <ele>1558.8</ele>
        <time>2023-07-02T08:19:40+0200</time>
      </trkpt>
      <trkpt lat="44.94372" lon="6.58183">
        <ele>1558.5</ele>
        <time>2023-07-02T08:19:43+0200</time>
      </trkpt>
      <trkpt lat="44.94368" lon="6.58188">
        <ele>1558</ele>
        <time>2023-07-02T08:19:46+0200</time>
      </trkpt>
      <trkpt lat="44.94365" lon="6.58195">
        <ele>1558.6</ele>
        <time>2023-07-02T08:19:49+0200</time>
      </trkpt>
      <trkpt lat="44.94362" lon="6.582">
        <ele>1558.5</ele>
        <time>2023-07-02T08:19:52+0200</time>
      </trkpt>
      <trkpt lat="44.9436" lon="6.58205">
        <ele>1558.9</ele>
        <time>2023-07-02T08:19:55+0200</time>
      </trkpt>
      <trkpt lat="44.94359" lon="6.58212">
        <ele>1559.9</ele>
        <time>2023-07-02T08:19:57+0200</time>
      </trkpt>
      <trkpt lat="44.94355" lon="6.58218">
        <ele>1560.3</ele>
        <time>2023-07-02T08:20:00+0200</time>
      </trkpt>
      <trkpt lat="44.94355" lon="6.58227">
        <ele>1561.6</ele>
        <time>2023-07-02T08:20:03+0200</time>
      </trkpt>
      <trkpt lat="44.94354" lon="6.58234">
        <ele>1562.3</ele>
        <time>2023-07-02T08:20:06+0200</time>
      </trkpt>
      <trkpt lat="44.94354" lon="6.58243">
        <ele>1563.8</ele>
        <time>2023-07-02T08:20:09+0200</time>
      </trkpt>
      <trkpt lat="44.94355" lon="6.58252">
        <ele>1565.2</ele>
        <time>2023-07-02T08:20:12+0200</time>
      </trkpt>
      <trkpt lat="44.94355" lon="6.5826">
        <ele>1566.3</ele>
        <time>2023-07-02T08:20:15+0200</time>
      </trkpt>
      <trkpt lat="44.94353" lon="6.58265">
        <ele>1566.3</ele>
        <time>2023-07-02T08:20:18+0200</time>
      </trkpt>
      <trkpt lat="44.94352" lon="6.58275">
        <ele>1567.4</ele>
        <time>2023-07-02T08:20:23+0200</time>
      </trkpt>
      <trkpt lat="44.94357" lon="6.58277">
        <ele>1569.4</ele>
        <time>2023-07-02T08:20:26+0200</time>
      </trkpt>
      <trkpt lat="44.94363" lon="6.58276">
        <ele>1571.1</ele>
        <time>2023-07-02T08:20:30+0200</time>
      </trkpt>
      <trkpt lat="44.94366" lon="6.58267">
        <ele>1571.1</ele>
        <time>2023-07-02T08:20:33+0200</time>
      </trkpt>
      <trkpt lat="44.94369" lon="6.58261">
        <ele>1571.3</ele>
        <time>2023-07-02T08:20:36+0200</time>
      </trkpt>
      <trkpt lat="44.94373" lon="6.58257">
        <ele>1572</ele>
        <time>2023-07-02T08:20:38+0200</time>
      </trkpt>
      <trkpt lat="44.94375" lon="6.5825">
        <ele>1571.8</ele>
        <time>2023-07-02T08:20:41+0200</time>
      </trkpt>
      <trkpt lat="44.94377" lon="6.58243">
        <ele>1571.8</ele>
        <time>2023-07-02T08:20:43+0200</time>
      </trkpt>
      <trkpt lat="44.94381" lon="6.58236">
        <ele>1572.1</ele>
        <time>2023-07-02T08:20:45+0200</time>
      </trkpt>
      <trkpt lat="44.94386" lon="6.58229">
        <ele>1572.7</ele>
        <time>2023-07-02T08:20:49+0200</time>
      </trkpt>
      <trkpt lat="44.94389" lon="6.58222">
        <ele>1572.9</ele>
        <time>2023-07-02T08:20:52+0200</time>
      </trkpt>
      <trkpt lat="44.94393" lon="6.58216">
        <ele>1572.7</ele>
        <time>2023-07-02T08:20:55+0200</time>
      </trkpt>
      <trkpt lat="44.94398" lon="6.58212">
        <ele>1573</ele>
        <time>2023-07-02T08:20:59+0200</time>
      </trkpt>
      <trkpt lat="44.94404" lon="6.58209">
        <ele>1574.1</ele>
        <time>2023-07-02T08:21:03+0200</time>
      </trkpt>
      <trkpt lat="44.94408" lon="6.58211">
        <ele>1575.5</ele>
        <time>2023-07-02T08:21:06+0200</time>
      </trkpt>
      <trkpt lat="44.94413" lon="6.5821">
        <ele>1576.6</ele>
        <time>2023-07-02T08:21:08+0200</time>
      </trkpt>
      <trkpt lat="44.94417" lon="6.58207">
        <ele>1577.4</ele>
        <time>2023-07-02T08:21:10+0200</time>
      </trkpt>
      <trkpt lat="44.94422" lon="6.58204">
        <ele>1577.7</ele>
        <time>2023-07-02T08:21:13+0200</time>
      </trkpt>
      <trkpt lat="44.94427" lon="6.58201">
        <ele>1578.4</ele>
        <time>2023-07-02T08:21:16+0200</time>
      </trkpt>
      <trkpt lat="44.9443" lon="6.58197">
        <ele>1578.4</ele>
        <time>2023-07-02T08:21:18+0200</time>
      </trkpt>
      <trkpt lat="44.94435" lon="6.58193">
        <ele>1578.8</ele>
        <time>2023-07-02T08:21:22+0200</time>
      </trkpt>
      <trkpt lat="44.94441" lon="6.58191">
        <ele>1579.7</ele>
        <time>2023-07-02T08:21:25+0200</time>
      </trkpt>
      <trkpt lat="44.94446" lon="6.58189">
        <ele>1580.4</ele>
        <time>2023-07-02T08:21:28+0200</time>
      </trkpt>
      <trkpt lat="44.94451" lon="6.58185">
        <ele>1580.4</ele>
        <time>2023-07-02T08:21:31+0200</time>
      </trkpt>
      <trkpt lat="44.94456" lon="6.5818">
        <ele>1580.4</ele>
        <time>2023-07-02T08:21:34+0200</time>
      </trkpt>
      <trkpt lat="44.94461" lon="6.58179">
        <ele>1580.9</ele>
        <time>2023-07-02T08:21:37+0200</time>
      </trkpt>
      <trkpt lat="44.94466" lon="6.58179">
        <ele>1581.5</ele>
        <time>2023-07-02T08:21:40+0200</time>
      </trkpt>
      <trkpt lat="44.94472" lon="6.58179">
        <ele>1582.3</ele>
        <time>2023-07-02T08:21:43+0200</time>
      </trkpt>
      <trkpt lat="44.94477" lon="6.58182">
        <ele>1582.8</ele>
        <time>2023-07-02T08:21:47+0200</time>
      </trkpt>
      <trkpt lat="44.94475" lon="6.58189">
        <ele>1583.5</ele>
        <time>2023-07-02T08:21:50+0200</time>
      </trkpt>
      <trkpt lat="44.9448" lon="6.58192">
        <ele>1584</ele>
        <time>2023-07-02T08:21:52+0200</time>
      </trkpt>
      <trkpt lat="44.94484" lon="6.58196">
        <ele>1584.6</ele>
        <time>2023-07-02T08:21:55+0200</time>
      </trkpt>
      <trkpt lat="44.94488" lon="6.58201">
        <ele>1585.3</ele>
        <time>2023-07-02T08:21:57+0200</time>
      </trkpt>
      <trkpt lat="44.94491" lon="6.58208">
        <ele>1586.1</ele>
        <time>2023-07-02T08:22:00+0200</time>
      </trkpt>
      <trkpt lat="44.94495" lon="6.58215">
        <ele>1587.1</ele>
        <time>2023-07-02T08:22:03+0200</time>
      </trkpt>
      <trkpt lat="44.94501" lon="6.58219">
        <ele>1587.8</ele>
        <time>2023-07-02T08:22:05+0200</time>
      </trkpt>
      <trkpt lat="44.94506" lon="6.58223">
        <ele>1589.4</ele>
        <time>2023-07-02T08:22:09+0200</time>
      </trkpt>
      <trkpt lat="44.94511" lon="6.58221">
        <ele>1590.2</ele>
        <time>2023-07-02T08:22:12+0200</time>
      </trkpt>
      <trkpt lat="44.94516" lon="6.58217">
        <ele>1590.8</ele>
        <time>2023-07-02T08:22:15+0200</time>
      </trkpt>
      <trkpt lat="44.9452" lon="6.58213">
        <ele>1590.8</ele>
        <time>2023-07-02T08:22:17+0200</time>
      </trkpt>
      <trkpt lat="44.94523" lon="6.58206">
        <ele>1590.3</ele>
        <time>2023-07-02T08:22:19+0200</time>
      </trkpt>
      <trkpt lat="44.94528" lon="6.58205">
        <ele>1590.8</ele>
        <time>2023-07-02T08:22:21+0200</time>
      </trkpt>
      <trkpt lat="44.94533" lon="6.58202">
        <ele>1591.6</ele>
        <time>2023-07-02T08:22:24+0200</time>
      </trkpt>
      <trkpt lat="44.94538" lon="6.58197">
        <ele>1591.9</ele>
        <time>2023-07-02T08:22:27+0200</time>
      </trkpt>
      <trkpt lat="44.9454" lon="6.58191">
        <ele>1591.8</ele>
        <time>2023-07-02T08:22:30+0200</time>
      </trkpt>
      <trkpt lat="44.94546" lon="6.58192">
        <ele>1593.2</ele>
        <time>2023-07-02T08:22:33+0200</time>
      </trkpt>
      <trkpt lat="44.9455" lon="6.58189">
        <ele>1593.7</ele>
        <time>2023-07-02T08:22:36+0200</time>
      </trkpt>
      <trkpt lat="44.94553" lon="6.58185">
        <ele>1593.9</ele>
        <time>2023-07-02T08:22:39+0200</time>
      </trkpt>
      <trkpt lat="44.94557" lon="6.58181">
        <ele>1593.8</ele>
        <time>2023-07-02T08:22:43+0200</time>
      </trkpt>
      <trkpt lat="44.94562" lon="6.58183">
        <ele>1595.4</ele>
        <time>2023-07-02T08:22:47+0200</time>
      </trkpt>
      <trkpt lat="44.94566" lon="6.58181">
        <ele>1596.2</ele>
        <time>2023-07-02T08:22:49+0200</time>
      </trkpt>
      <trkpt lat="44.94572" lon="6.58181">
        <ele>1597.6</ele>
        <time>2023-07-02T08:22:52+0200</time>
      </trkpt>
      <trkpt lat="44.94577" lon="6.58181">
        <ele>1599</ele>
        <time>2023-07-02T08:22:55+0200</time>
      </trkpt>
      <trkpt lat="44.94584" lon="6.58182">
        <ele>1600.9</ele>
        <time>2023-07-02T08:22:58+0200</time>
      </trkpt>
      <trkpt lat="44.94588" lon="6.58184">
        <ele>1602.5</ele>
        <time>2023-07-02T08:23:01+0200</time>
      </trkpt>
      <trkpt lat="44.94592" lon="6.58177">
        <ele>1602.6</ele>
        <time>2023-07-02T08:23:04+0200</time>
      </trkpt>
      <trkpt lat="44.94592" lon="6.58167">
        <ele>1600.5</ele>
        <time>2023-07-02T08:23:07+0200</time>
      </trkpt>
      <trkpt lat="44.94592" lon="6.5816">
        <ele>1599.6</ele>
        <time>2023-07-02T08:23:09+0200</time>
      </trkpt>
      <trkpt lat="44.94592" lon="6.58153">
        <ele>1598.5</ele>
        <time>2023-07-02T08:23:11+0200</time>
      </trkpt>
      <trkpt lat="44.94594" lon="6.58147">
        <ele>1598.2</ele>
        <time>2023-07-02T08:23:12+0200</time>
      </trkpt>
      <trkpt lat="44.94598" lon="6.58143">
        <ele>1598.8</ele>
        <time>2023-07-02T08:23:14+0200</time>
      </trkpt>
      <trkpt lat="44.94604" lon="6.58139">
        <ele>1599.9</ele>
        <time>2023-07-02T08:23:17+0200</time>
      </trkpt>
      <trkpt lat="44.94608" lon="6.58137">
        <ele>1600.7</ele>
        <time>2023-07-02T08:23:19+0200</time>
      </trkpt>
      <trkpt lat="44.94614" lon="6.58135">
        <ele>1602.2</ele>
        <time>2023-07-02T08:23:22+0200</time>
      </trkpt>
      <trkpt lat="44.9462" lon="6.58133">
        <ele>1603.6</ele>
        <time>2023-07-02T08:23:25+0200</time>
      </trkpt>
      <trkpt lat="44.94625" lon="6.5813">
        <ele>1604.6</ele>
        <time>2023-07-02T08:23:28+0200</time>
      </trkpt>
      <trkpt lat="44.9463" lon="6.58127">
        <ele>1605.4</ele>
        <time>2023-07-02T08:23:31+0200</time>
      </trkpt>
      <trkpt lat="44.94635" lon="6.58122">
        <ele>1605.7</ele>
        <time>2023-07-02T08:23:34+0200</time>
      </trkpt>
      <trkpt lat="44.94638" lon="6.58118">
        <ele>1606.1</ele>
        <time>2023-07-02T08:23:36+0200</time>
      </trkpt>
      <trkpt lat="44.94644" lon="6.58118">
        <ele>1607.5</ele>
        <time>2023-07-02T08:23:41+0200</time>
      </trkpt>
      <trkpt lat="44.9465" lon="6.58118">
        <ele>1609.1</ele>
        <time>2023-07-02T08:23:45+0200</time>
      </trkpt>
      <trkpt lat="44.94657" lon="6.58116">
        <ele>1610.4</ele>
        <time>2023-07-02T08:23:49+0200</time>
      </trkpt>
      <trkpt lat="44.9466" lon="6.58109">
        <ele>1610.2</ele>
        <time>2023-07-02T08:23:54+0200</time>
      </trkpt>
      <trkpt lat="44.94663" lon="6.58103">
        <ele>1610.1</ele>
        <time>2023-07-02T08:23:57+0200</time>
      </trkpt>
      <trkpt lat="44.94666" lon="6.58096">
        <ele>1610.2</ele>
        <time>2023-07-02T08:23:59+0200</time>
      </trkpt>
      <trkpt lat="44.9467" lon="6.58087">
        <ele>1610.5</ele>
        <time>2023-07-02T08:24:01+0200</time>
      </trkpt>
      <trkpt lat="44.94672" lon="6.58079">
        <ele>1610</ele>
        <time>2023-07-02T08:24:03+0200</time>
      </trkpt>
      <trkpt lat="44.94674" lon="6.58072">
        <ele>1609.9</ele>
        <time>2023-07-02T08:24:07+0200</time>
      </trkpt>
      <trkpt lat="44.94679" lon="6.58069">
        <ele>1610.7</ele>
        <time>2023-07-02T08:24:10+0200</time>
      </trkpt>
      <trkpt lat="44.94683" lon="6.58066">
        <ele>1611.5</ele>
        <time>2023-07-02T08:24:12+0200</time>
      </trkpt>
      <trkpt lat="44.94689" lon="6.58067">
        <ele>1613.2</ele>
        <time>2023-07-02T08:24:18+0200</time>
      </trkpt>
      <trkpt lat="44.94696" lon="6.58066">
        <ele>1615</ele>
        <time>2023-07-02T08:24:21+0200</time>
      </trkpt>
      <trkpt lat="44.94701" lon="6.58063">
        <ele>1616.5</ele>
        <time>2023-07-02T08:24:26+0200</time>
      </trkpt>
      <trkpt lat="44.94708" lon="6.58065">
        <ele>1619.1</ele>
        <time>2023-07-02T08:24:29+0200</time>
      </trkpt>
      <trkpt lat="44.94713" lon="6.58066">
        <ele>1620.9</ele>
        <time>2023-07-02T08:24:31+0200</time>
      </trkpt>
      <trkpt lat="44.94719" lon="6.58063">
        <ele>1622.3</ele>
        <time>2023-07-02T08:24:34+0200</time>
      </trkpt>
      <trkpt lat="44.9472" lon="6.58053">
        <ele>1620.8</ele>
        <time>2023-07-02T08:24:36+0200</time>
      </trkpt>
      <trkpt lat="44.94723" lon="6.58046">
        <ele>1620.6</ele>
        <time>2023-07-02T08:24:37+0200</time>
      </trkpt>
      <trkpt lat="44.94725" lon="6.58036">
        <ele>1619.7</ele>
        <time>2023-07-02T08:24:39+0200</time>
      </trkpt>
      <trkpt lat="44.94728" lon="6.5803">
        <ele>1619.8</ele>
        <time>2023-07-02T08:24:42+0200</time>
      </trkpt>
      <trkpt lat="44.94732" lon="6.58022">
        <ele>1619.6</ele>
        <time>2023-07-02T08:24:46+0200</time>
      </trkpt>
      <trkpt lat="44.94735" lon="6.58016">
        <ele>1619.7</ele>
        <time>2023-07-02T08:24:48+0200</time>
      </trkpt>
      <trkpt lat="44.94739" lon="6.58012">
        <ele>1620.5</ele>
        <time>2023-07-02T08:24:53+0200</time>
      </trkpt>
      <trkpt lat="44.94742" lon="6.58008">
        <ele>1620.7</ele>
        <time>2023-07-02T08:24:58+0200</time>
      </trkpt>
      <trkpt lat="44.94747" lon="6.58005">
        <ele>1621.9</ele>
        <time>2023-07-02T08:25:00+0200</time>
      </trkpt>
      <trkpt lat="44.94751" lon="6.58001">
        <ele>1622.7</ele>
        <time>2023-07-02T08:25:02+0200</time>
      </trkpt>
      <trkpt lat="44.94757" lon="6.58001">
        <ele>1624.8</ele>
        <time>2023-07-02T08:25:05+0200</time>
      </trkpt>
      <trkpt lat="44.94762" lon="6.57999">
        <ele>1626.1</ele>
        <time>2023-07-02T08:25:08+0200</time>
      </trkpt>
      <trkpt lat="44.94769" lon="6.57997">
        <ele>1628</ele>
        <time>2023-07-02T08:25:12+0200</time>
      </trkpt>
      <trkpt lat="44.94772" lon="6.57991">
        <ele>1628</ele>
        <time>2023-07-02T08:25:15+0200</time>
      </trkpt>
      <trkpt lat="44.94775" lon="6.57986">
        <ele>1627.6</ele>
        <time>2023-07-02T08:25:17+0200</time>
      </trkpt>
      <trkpt lat="44.94779" lon="6.57981">
        <ele>1627.5</ele>
        <time>2023-07-02T08:25:20+0200</time>
      </trkpt>
      <trkpt lat="44.94783" lon="6.57978">
        <ele>1628.2</ele>
        <time>2023-07-02T08:25:22+0200</time>
      </trkpt>
      <trkpt lat="44.94788" lon="6.57971">
        <ele>1628</ele>
        <time>2023-07-02T08:25:25+0200</time>
      </trkpt>
      <trkpt lat="44.94793" lon="6.57971">
        <ele>1629.3</ele>
        <time>2023-07-02T08:25:28+0200</time>
      </trkpt>
      <trkpt lat="44.94797" lon="6.57967">
        <ele>1629.9</ele>
        <time>2023-07-02T08:25:31+0200</time>
      </trkpt>
      <trkpt lat="44.948" lon="6.57962">
        <ele>1629.7</ele>
        <time>2023-07-02T08:25:33+0200</time>
      </trkpt>
      <trkpt lat="44.94806" lon="6.57961">
        <ele>1631.2</ele>
        <time>2023-07-02T08:25:36+0200</time>
      </trkpt>
      <trkpt lat="44.94809" lon="6.57956">
        <ele>1631</ele>
        <time>2023-07-02T08:25:38+0200</time>
      </trkpt>
      <trkpt lat="44.94814" lon="6.57955">
        <ele>1632.3</ele>
        <time>2023-07-02T08:25:41+0200</time>
      </trkpt>
      <trkpt lat="44.94818" lon="6.57948">
        <ele>1632.2</ele>
        <time>2023-07-02T08:25:44+0200</time>
      </trkpt>
      <trkpt lat="44.94821" lon="6.57954">
        <ele>1634.5</ele>
        <time>2023-07-02T08:25:48+0200</time>
      </trkpt>
      <trkpt lat="44.94817" lon="6.57957">
        <ele>1633.8</ele>
        <time>2023-07-02T08:25:53+0200</time>
      </trkpt>
      <trkpt lat="44.94811" lon="6.57958">
        <ele>1632.3</ele>
        <time>2023-07-02T08:25:57+0200</time>
      </trkpt>
      <trkpt lat="44.94806" lon="6.57962">
        <ele>1631.6</ele>
        <time>2023-07-02T08:26:01+0200</time>
      </trkpt>
      <trkpt lat="44.94803" lon="6.57967">
        <ele>1631.7</ele>
        <time>2023-07-02T08:26:04+0200</time>
      </trkpt>
      <trkpt lat="44.948" lon="6.57975">
        <ele>1632.9</ele>
        <time>2023-07-02T08:26:07+0200</time>
      </trkpt>
      <trkpt lat="44.94797" lon="6.57983">
        <ele>1634.4</ele>
        <time>2023-07-02T08:26:10+0200</time>
      </trkpt>
      <trkpt lat="44.94796" lon="6.5799">
        <ele>1635.9</ele>
        <time>2023-07-02T08:26:13+0200</time>
      </trkpt>
      <trkpt lat="44.94794" lon="6.57996">
        <ele>1636.8</ele>
        <time>2023-07-02T08:26:16+0200</time>
      </trkpt>
      <trkpt lat="44.94791" lon="6.58001">
        <ele>1636.9</ele>
        <time>2023-07-02T08:26:19+0200</time>
      </trkpt>
      <trkpt lat="44.94788" lon="6.58007">
        <ele>1637.4</ele>
        <time>2023-07-02T08:26:22+0200</time>
      </trkpt>
      <trkpt lat="44.94784" lon="6.58012">
        <ele>1637.5</ele>
        <time>2023-07-02T08:26:25+0200</time>
      </trkpt>
      <trkpt lat="44.94781" lon="6.58018">
        <ele>1637.6</ele>
        <time>2023-07-02T08:26:28+0200</time>
      </trkpt>
      <trkpt lat="44.94777" lon="6.58024">
        <ele>1637.5</ele>
        <time>2023-07-02T08:26:32+0200</time>
      </trkpt>
      <trkpt lat="44.94774" lon="6.58029">
        <ele>1637.8</ele>
        <time>2023-07-02T08:26:35+0200</time>
      </trkpt>
      <trkpt lat="44.9477" lon="6.58038">
        <ele>1638.2</ele>
        <time>2023-07-02T08:26:39+0200</time>
      </trkpt>
      <trkpt lat="44.94767" lon="6.58045">
        <ele>1638.2</ele>
        <time>2023-07-02T08:26:42+0200</time>
      </trkpt>
      <trkpt lat="44.94765" lon="6.58053">
        <ele>1638.8</ele>
        <time>2023-07-02T08:26:45+0200</time>
      </trkpt>
      <trkpt lat="44.94763" lon="6.58059">
        <ele>1639.2</ele>
        <time>2023-07-02T08:26:48+0200</time>
      </trkpt>
      <trkpt lat="44.94758" lon="6.58064">
        <ele>1638.2</ele>
        <time>2023-07-02T08:26:53+0200</time>
      </trkpt>
      <trkpt lat="44.94759" lon="6.58071">
        <ele>1640</ele>
        <time>2023-07-02T08:26:56+0200</time>
      </trkpt>
      <trkpt lat="44.94755" lon="6.58077">
        <ele>1639.7</ele>
        <time>2023-07-02T08:26:59+0200</time>
      </trkpt>
      <trkpt lat="44.94756" lon="6.58085">
        <ele>1641.9</ele>
        <time>2023-07-02T08:27:02+0200</time>
      </trkpt>
      <trkpt lat="44.94756" lon="6.58091">
        <ele>1643.3</ele>
        <time>2023-07-02T08:27:04+0200</time>
      </trkpt>
      <trkpt lat="44.94753" lon="6.58096">
        <ele>1642.9</ele>
        <time>2023-07-02T08:27:07+0200</time>
      </trkpt>
      <trkpt lat="44.9475" lon="6.58104">
        <ele>1643.7</ele>
        <time>2023-07-02T08:27:11+0200</time>
      </trkpt>
      <trkpt lat="44.94751" lon="6.58113">
        <ele>1645.7</ele>
        <time>2023-07-02T08:27:15+0200</time>
      </trkpt>
      <trkpt lat="44.94747" lon="6.5812">
        <ele>1645.9</ele>
        <time>2023-07-02T08:27:17+0200</time>
      </trkpt>
      <trkpt lat="44.94747" lon="6.5813">
        <ele>1648.5</ele>
        <time>2023-07-02T08:27:20+0200</time>
      </trkpt>
      <trkpt lat="44.94746" lon="6.58136">
        <ele>1649.5</ele>
        <time>2023-07-02T08:27:24+0200</time>
      </trkpt>
      <trkpt lat="44.94744" lon="6.58143">
        <ele>1650.4</ele>
        <time>2023-07-02T08:27:29+0200</time>
      </trkpt>
      <trkpt lat="44.94741" lon="6.58152">
        <ele>1651.4</ele>
        <time>2023-07-02T08:27:32+0200</time>
      </trkpt>
      <trkpt lat="44.94737" lon="6.58157">
        <ele>1651</ele>
        <time>2023-07-02T08:27:36+0200</time>
      </trkpt>
      <trkpt lat="44.94738" lon="6.58167">
        <ele>1654.2</ele>
        <time>2023-07-02T08:27:38+0200</time>
      </trkpt>
      <trkpt lat="44.94742" lon="6.5817">
        <ele>1656.7</ele>
        <time>2023-07-02T08:27:41+0200</time>
      </trkpt>
      <trkpt lat="44.94747" lon="6.58167">
        <ele>1657.8</ele>
        <time>2023-07-02T08:27:48+0200</time>
      </trkpt>
      <trkpt lat="44.94752" lon="6.58166">
        <ele>1659.5</ele>
        <time>2023-07-02T08:27:52+0200</time>
      </trkpt>
      <trkpt lat="44.94758" lon="6.58167">
        <ele>1662.3</ele>
        <time>2023-07-02T08:27:55+0200</time>
      </trkpt>
      <trkpt lat="44.94762" lon="6.58164">
        <ele>1663.3</ele>
        <time>2023-07-02T08:28:00+0200</time>
      </trkpt>
      <trkpt lat="44.94765" lon="6.58155">
        <ele>1662.3</ele>
        <time>2023-07-02T08:28:02+0200</time>
      </trkpt>
      <trkpt lat="44.94769" lon="6.5815">
        <ele>1662.5</ele>
        <time>2023-07-02T08:28:04+0200</time>
      </trkpt>
      <trkpt lat="44.94769" lon="6.58142">
        <ele>1660.9</ele>
        <time>2023-07-02T08:28:10+0200</time>
      </trkpt>
      <trkpt lat="44.94774" lon="6.58137">
        <ele>1661.8</ele>
        <time>2023-07-02T08:28:13+0200</time>
      </trkpt>
      <trkpt lat="44.94778" lon="6.58131">
        <ele>1662.4</ele>
        <time>2023-07-02T08:28:15+0200</time>
      </trkpt>
      <trkpt lat="44.9478" lon="6.58125">
        <ele>1661.9</ele>
        <time>2023-07-02T08:28:17+0200</time>
      </trkpt>
      <trkpt lat="44.94784" lon="6.58121">
        <ele>1662.6</ele>
        <time>2023-07-02T08:28:22+0200</time>
      </trkpt>
      <trkpt lat="44.94787" lon="6.58114">
        <ele>1662.2</ele>
        <time>2023-07-02T08:28:25+0200</time>
      </trkpt>
      <trkpt lat="44.94791" lon="6.5811">
        <ele>1662.7</ele>
        <time>2023-07-02T08:28:29+0200</time>
      </trkpt>
      <trkpt lat="44.94795" lon="6.58104">
        <ele>1663.1</ele>
        <time>2023-07-02T08:28:31+0200</time>
      </trkpt>
      <trkpt lat="44.948" lon="6.58101">
        <ele>1664.5</ele>
        <time>2023-07-02T08:28:35+0200</time>
      </trkpt>
      <trkpt lat="44.94804" lon="6.58099">
        <ele>1665.9</ele>
        <time>2023-07-02T08:28:38+0200</time>
      </trkpt>
      <trkpt lat="44.94804" lon="6.58092">
        <ele>1664.3</ele>
        <time>2023-07-02T08:28:41+0200</time>
      </trkpt>
      <trkpt lat="44.9481" lon="6.58089">
        <ele>1665.9</ele>
        <time>2023-07-02T08:28:47+0200</time>
      </trkpt>
      <trkpt lat="44.94809" lon="6.58083">
        <ele>1664.1</ele>
        <time>2023-07-02T08:28:48+0200</time>
      </trkpt>
      <trkpt lat="44.94813" lon="6.58078">
        <ele>1664.4</ele>
        <time>2023-07-02T08:28:52+0200</time>
      </trkpt>
      <trkpt lat="44.94816" lon="6.58073">
        <ele>1664.6</ele>
        <time>2023-07-02T08:28:54+0200</time>
      </trkpt>
      <trkpt lat="44.94822" lon="6.58071">
        <ele>1666.6</ele>
        <time>2023-07-02T08:28:57+0200</time>
      </trkpt>
      <trkpt lat="44.94827" lon="6.58068">
        <ele>1667.6</ele>
        <time>2023-07-02T08:29:00+0200</time>
      </trkpt>
      <trkpt lat="44.94834" lon="6.58063">
        <ele>1669.1</ele>
        <time>2023-07-02T08:29:05+0200</time>
      </trkpt>
      <trkpt lat="44.94838" lon="6.58058">
        <ele>1669</ele>
        <time>2023-07-02T08:29:08+0200</time>
      </trkpt>
      <trkpt lat="44.94843" lon="6.5806">
        <ele>1670.8</ele>
        <time>2023-07-02T08:29:12+0200</time>
      </trkpt>
      <trkpt lat="44.94848" lon="6.58057">
        <ele>1671.5</ele>
        <time>2023-07-02T08:29:15+0200</time>
      </trkpt>
      <trkpt lat="44.94854" lon="6.58054">
        <ele>1672.5</ele>
        <time>2023-07-02T08:29:20+0200</time>
      </trkpt>
      <trkpt lat="44.94859" lon="6.58052">
        <ele>1673.5</ele>
        <time>2023-07-02T08:29:24+0200</time>
      </trkpt>
      <trkpt lat="44.94864" lon="6.58046">
        <ele>1673.1</ele>
        <time>2023-07-02T08:29:27+0200</time>
      </trkpt>
      <trkpt lat="44.94869" lon="6.58044">
        <ele>1673.9</ele>
        <time>2023-07-02T08:29:30+0200</time>
      </trkpt>
      <trkpt lat="44.94875" lon="6.58043">
        <ele>1675.6</ele>
        <time>2023-07-02T08:29:35+0200</time>
      </trkpt>
      <trkpt lat="44.94879" lon="6.58039">
        <ele>1675.5</ele>
        <time>2023-07-02T08:29:37+0200</time>
      </trkpt>
      <trkpt lat="44.94883" lon="6.58039">
        <ele>1677.1</ele>
        <time>2023-07-02T08:29:41+0200</time>
      </trkpt>
      <trkpt lat="44.94879" lon="6.58046">
        <ele>1677.7</ele>
        <time>2023-07-02T08:29:46+0200</time>
      </trkpt>
      <trkpt lat="44.94874" lon="6.58046">
        <ele>1676</ele>
        <time>2023-07-02T08:29:50+0200</time>
      </trkpt>
      <trkpt lat="44.94868" lon="6.58049">
        <ele>1675.2</ele>
        <time>2023-07-02T08:29:53+0200</time>
      </trkpt>
      <trkpt lat="44.94864" lon="6.58052">
        <ele>1674.9</ele>
        <time>2023-07-02T08:29:55+0200</time>
      </trkpt>
      <trkpt lat="44.9486" lon="6.58057">
        <ele>1675.2</ele>
        <time>2023-07-02T08:29:57+0200</time>
      </trkpt>
      <trkpt lat="44.94856" lon="6.5806">
        <ele>1674.9</ele>
        <time>2023-07-02T08:29:59+0200</time>
      </trkpt>
      <trkpt lat="44.94852" lon="6.58066">
        <ele>1675.3</ele>
        <time>2023-07-02T08:30:02+0200</time>
      </trkpt>
      <trkpt lat="44.94848" lon="6.58071">
        <ele>1675.2</ele>
        <time>2023-07-02T08:30:06+0200</time>
      </trkpt>
      <trkpt lat="44.94845" lon="6.58077">
        <ele>1676.2</ele>
        <time>2023-07-02T08:30:09+0200</time>
      </trkpt>
      <trkpt lat="44.94843" lon="6.58083">
        <ele>1676.9</ele>
        <time>2023-07-02T08:30:11+0200</time>
      </trkpt>
      <trkpt lat="44.94839" lon="6.58089">
        <ele>1677.2</ele>
        <time>2023-07-02T08:30:14+0200</time>
      </trkpt>
      <trkpt lat="44.94837" lon="6.58097">
        <ele>1678.1</ele>
        <time>2023-07-02T08:30:17+0200</time>
      </trkpt>
      <trkpt lat="44.94834" lon="6.58103">
        <ele>1678.4</ele>
        <time>2023-07-02T08:30:20+0200</time>
      </trkpt>
      <trkpt lat="44.94832" lon="6.5811">
        <ele>1679.1</ele>
        <time>2023-07-02T08:30:23+0200</time>
      </trkpt>
      <trkpt lat="44.94829" lon="6.58118">
        <ele>1679.9</ele>
        <time>2023-07-02T08:30:26+0200</time>
      </trkpt>
      <trkpt lat="44.94828" lon="6.58126">
        <ele>1681.1</ele>
        <time>2023-07-02T08:30:29+0200</time>
      </trkpt>
      <trkpt lat="44.94827" lon="6.58134">
        <ele>1682.2</ele>
        <time>2023-07-02T08:30:32+0200</time>
      </trkpt>
      <trkpt lat="44.94825" lon="6.58142">
        <ele>1683.2</ele>
        <time>2023-07-02T08:30:35+0200</time>
      </trkpt>
      <trkpt lat="44.94824" lon="6.58148">
        <ele>1684.1</ele>
        <time>2023-07-02T08:30:37+0200</time>
      </trkpt>
      <trkpt lat="44.94824" lon="6.58157">
        <ele>1685.9</ele>
        <time>2023-07-02T08:30:40+0200</time>
      </trkpt>
      <trkpt lat="44.94822" lon="6.58164">
        <ele>1686.4</ele>
        <time>2023-07-02T08:30:43+0200</time>
      </trkpt>
      <trkpt lat="44.94821" lon="6.58173">
        <ele>1688.1</ele>
        <time>2023-07-02T08:30:48+0200</time>
      </trkpt>
      <trkpt lat="44.94818" lon="6.58178">
        <ele>1688.1</ele>
        <time>2023-07-02T08:30:51+0200</time>
      </trkpt>
      <trkpt lat="44.94815" lon="6.58184">
        <ele>1688.4</ele>
        <time>2023-07-02T08:30:54+0200</time>
      </trkpt>
      <trkpt lat="44.94811" lon="6.58188">
        <ele>1687.9</ele>
        <time>2023-07-02T08:30:57+0200</time>
      </trkpt>
      <trkpt lat="44.94808" lon="6.58195">
        <ele>1688.3</ele>
        <time>2023-07-02T08:31:01+0200</time>
      </trkpt>
      <trkpt lat="44.94808" lon="6.58202">
        <ele>1689.8</ele>
        <time>2023-07-02T08:31:04+0200</time>
      </trkpt>
      <trkpt lat="44.94809" lon="6.5821">
        <ele>1691.5</ele>
        <time>2023-07-02T08:31:07+0200</time>
      </trkpt>
      <trkpt lat="44.94806" lon="6.58217">
        <ele>1692.1</ele>
        <time>2023-07-02T08:31:11+0200</time>
      </trkpt>
      <trkpt lat="44.94805" lon="6.58225">
        <ele>1693.3</ele>
        <time>2023-07-02T08:31:15+0200</time>
      </trkpt>
      <trkpt lat="44.94803" lon="6.58232">
        <ele>1694.1</ele>
        <time>2023-07-02T08:31:19+0200</time>
      </trkpt>
      <trkpt lat="44.94801" lon="6.5824">
        <ele>1695</ele>
        <time>2023-07-02T08:31:22+0200</time>
      </trkpt>
      <trkpt lat="44.948" lon="6.58246">
        <ele>1696.1</ele>
        <time>2023-07-02T08:31:24+0200</time>
      </trkpt>
      <trkpt lat="44.948" lon="6.58254">
        <ele>1697.1</ele>
        <time>2023-07-02T08:31:27+0200</time>
      </trkpt>
      <trkpt lat="44.948" lon="6.5826">
        <ele>1697.8</ele>
        <time>2023-07-02T08:31:30+0200</time>
      </trkpt>
      <trkpt lat="44.94798" lon="6.58268">
        <ele>1698</ele>
        <time>2023-07-02T08:31:33+0200</time>
      </trkpt>
      <trkpt lat="44.94796" lon="6.58276">
        <ele>1697.9</ele>
        <time>2023-07-02T08:31:36+0200</time>
      </trkpt>
      <trkpt lat="44.94793" lon="6.58282">
        <ele>1697.2</ele>
        <time>2023-07-02T08:31:39+0200</time>
      </trkpt>
      <trkpt lat="44.94792" lon="6.58288">
        <ele>1696.8</ele>
        <time>2023-07-02T08:31:43+0200</time>
      </trkpt>
      <trkpt lat="44.94791" lon="6.58296">
        <ele>1696.7</ele>
        <time>2023-07-02T08:31:46+0200</time>
      </trkpt>
      <trkpt lat="44.94793" lon="6.58306">
        <ele>1697.6</ele>
        <time>2023-07-02T08:31:50+0200</time>
      </trkpt>
      <trkpt lat="44.94797" lon="6.58312">
        <ele>1698.6</ele>
        <time>2023-07-02T08:31:54+0200</time>
      </trkpt>
      <trkpt lat="44.94802" lon="6.58317">
        <ele>1700</ele>
        <time>2023-07-02T08:31:59+0200</time>
      </trkpt>
      <trkpt lat="44.94807" lon="6.58317">
        <ele>1701.7</ele>
        <time>2023-07-02T08:32:01+0200</time>
      </trkpt>
      <trkpt lat="44.94814" lon="6.58318">
        <ele>1704.6</ele>
        <time>2023-07-02T08:32:08+0200</time>
      </trkpt>
      <trkpt lat="44.94819" lon="6.58321">
        <ele>1706.3</ele>
        <time>2023-07-02T08:32:12+0200</time>
      </trkpt>
      <trkpt lat="44.9482" lon="6.58328">
        <ele>1706</ele>
        <time>2023-07-02T08:32:15+0200</time>
      </trkpt>
      <trkpt lat="44.94822" lon="6.58335">
        <ele>1705.8</ele>
        <time>2023-07-02T08:32:19+0200</time>
      </trkpt>
      <trkpt lat="44.94826" lon="6.5834">
        <ele>1707.1</ele>
        <time>2023-07-02T08:32:23+0200</time>
      </trkpt>
      <trkpt lat="44.94824" lon="6.58346">
        <ele>1706.4</ele>
        <time>2023-07-02T08:32:26+0200</time>
      </trkpt>
      <trkpt lat="44.94818" lon="6.58352">
        <ele>1705</ele>
        <time>2023-07-02T08:32:30+0200</time>
      </trkpt>
      <trkpt lat="44.94813" lon="6.58357">
        <ele>1704.2</ele>
        <time>2023-07-02T08:32:32+0200</time>
      </trkpt>
      <trkpt lat="44.94808" lon="6.58363">
        <ele>1703.7</ele>
        <time>2023-07-02T08:32:35+0200</time>
      </trkpt>
      <trkpt lat="44.94806" lon="6.58369">
        <ele>1705.1</ele>
        <time>2023-07-02T08:32:37+0200</time>
      </trkpt>
      <trkpt lat="44.94804" lon="6.58376">
        <ele>1706.3</ele>
        <time>2023-07-02T08:32:39+0200</time>
      </trkpt>
      <trkpt lat="44.94798" lon="6.58377">
        <ele>1705.5</ele>
        <time>2023-07-02T08:32:42+0200</time>
      </trkpt>
      <trkpt lat="44.94795" lon="6.58383">
        <ele>1706.6</ele>
        <time>2023-07-02T08:32:44+0200</time>
      </trkpt>
      <trkpt lat="44.94791" lon="6.58388">
        <ele>1707.2</ele>
        <time>2023-07-02T08:32:47+0200</time>
      </trkpt>
      <trkpt lat="44.94787" lon="6.58392">
        <ele>1707.4</ele>
        <time>2023-07-02T08:32:50+0200</time>
      </trkpt>
      <trkpt lat="44.94785" lon="6.58397">
        <ele>1708.4</ele>
        <time>2023-07-02T08:32:52+0200</time>
      </trkpt>
      <trkpt lat="44.94781" lon="6.58402">
        <ele>1708.8</ele>
        <time>2023-07-02T08:32:55+0200</time>
      </trkpt>
      <trkpt lat="44.94777" lon="6.58408">
        <ele>1709.7</ele>
        <time>2023-07-02T08:32:58+0200</time>
      </trkpt>
      <trkpt lat="44.94774" lon="6.58413">
        <ele>1710.1</ele>
        <time>2023-07-02T08:33:01+0200</time>
      </trkpt>
      <trkpt lat="44.94768" lon="6.58415">
        <ele>1709.5</ele>
        <time>2023-07-02T08:33:05+0200</time>
      </trkpt>
      <trkpt lat="44.94765" lon="6.58421">
        <ele>1710.2</ele>
        <time>2023-07-02T08:33:08+0200</time>
      </trkpt>
      <trkpt lat="44.94761" lon="6.58424">
        <ele>1710.2</ele>
        <time>2023-07-02T08:33:11+0200</time>
      </trkpt>
      <trkpt lat="44.94757" lon="6.58429">
        <ele>1710.7</ele>
        <time>2023-07-02T08:33:13+0200</time>
      </trkpt>
      <trkpt lat="44.94754" lon="6.58435">
        <ele>1711.4</ele>
        <time>2023-07-02T08:33:16+0200</time>
      </trkpt>
      <trkpt lat="44.9475" lon="6.58442">
        <ele>1712.4</ele>
        <time>2023-07-02T08:33:19+0200</time>
      </trkpt>
      <trkpt lat="44.94747" lon="6.58449">
        <ele>1712.9</ele>
        <time>2023-07-02T08:33:22+0200</time>
      </trkpt>
      <trkpt lat="44.94745" lon="6.58457">
        <ele>1713.7</ele>
        <time>2023-07-02T08:33:25+0200</time>
      </trkpt>
      <trkpt lat="44.94742" lon="6.58464">
        <ele>1714.3</ele>
        <time>2023-07-02T08:33:28+0200</time>
      </trkpt>
      <trkpt lat="44.9474" lon="6.58473">
        <ele>1715.1</ele>
        <time>2023-07-02T08:33:32+0200</time>
      </trkpt>
      <trkpt lat="44.9474" lon="6.58481">
        <ele>1716.3</ele>
        <time>2023-07-02T08:33:36+0200</time>
      </trkpt>
      <trkpt lat="44.94747" lon="6.58485">
        <ele>1719.9</ele>
        <time>2023-07-02T08:33:40+0200</time>
      </trkpt>
      <trkpt lat="44.9475" lon="6.5848">
        <ele>1720.5</ele>
        <time>2023-07-02T08:33:44+0200</time>
      </trkpt>
      <trkpt lat="44.94754" lon="6.58476">
        <ele>1720.3</ele>
        <time>2023-07-02T08:33:47+0200</time>
      </trkpt>
      <trkpt lat="44.94759" lon="6.58474">
        <ele>1720.8</ele>
        <time>2023-07-02T08:33:50+0200</time>
      </trkpt>
      <trkpt lat="44.94765" lon="6.58473">
        <ele>1721.7</ele>
        <time>2023-07-02T08:33:54+0200</time>
      </trkpt>
      <trkpt lat="44.94771" lon="6.58471">
        <ele>1722.5</ele>
        <time>2023-07-02T08:33:57+0200</time>
      </trkpt>
      <trkpt lat="44.94775" lon="6.58468">
        <ele>1722.8</ele>
        <time>2023-07-02T08:34:00+0200</time>
      </trkpt>
      <trkpt lat="44.94781" lon="6.58466">
        <ele>1723.3</ele>
        <time>2023-07-02T08:34:03+0200</time>
      </trkpt>
      <trkpt lat="44.94787" lon="6.58466">
        <ele>1724.2</ele>
        <time>2023-07-02T08:34:06+0200</time>
      </trkpt>
      <trkpt lat="44.94792" lon="6.58465">
        <ele>1724.8</ele>
        <time>2023-07-02T08:34:09+0200</time>
      </trkpt>
      <trkpt lat="44.94799" lon="6.58463">
        <ele>1725.4</ele>
        <time>2023-07-02T08:34:13+0200</time>
      </trkpt>
      <trkpt lat="44.94802" lon="6.58469">
        <ele>1726.9</ele>
        <time>2023-07-02T08:34:16+0200</time>
      </trkpt>
      <trkpt lat="44.94805" lon="6.58476">
        <ele>1728.4</ele>
        <time>2023-07-02T08:34:19+0200</time>
      </trkpt>
      <trkpt lat="44.9481" lon="6.58477">
        <ele>1729.4</ele>
        <time>2023-07-02T08:34:22+0200</time>
      </trkpt>
      <trkpt lat="44.94815" lon="6.58478">
        <ele>1730.3</ele>
        <time>2023-07-02T08:34:24+0200</time>
      </trkpt>
      <trkpt lat="44.94821" lon="6.58477">
        <ele>1731.1</ele>
        <time>2023-07-02T08:34:27+0200</time>
      </trkpt>
      <trkpt lat="44.94826" lon="6.58476">
        <ele>1731.6</ele>
        <time>2023-07-02T08:34:29+0200</time>
      </trkpt>
      <trkpt lat="44.9483" lon="6.58474">
        <ele>1732</ele>
        <time>2023-07-02T08:34:32+0200</time>
      </trkpt>
      <trkpt lat="44.94835" lon="6.58473">
        <ele>1732.6</ele>
        <time>2023-07-02T08:34:35+0200</time>
      </trkpt>
      <trkpt lat="44.94841" lon="6.58472">
        <ele>1734</ele>
        <time>2023-07-02T08:34:38+0200</time>
      </trkpt>
      <trkpt lat="44.94846" lon="6.5847">
        <ele>1735.4</ele>
        <time>2023-07-02T08:34:43+0200</time>
      </trkpt>
      <trkpt lat="44.9485" lon="6.58465">
        <ele>1735.4</ele>
        <time>2023-07-02T08:34:45+0200</time>
      </trkpt>
      <trkpt lat="44.94853" lon="6.58459">
        <ele>1735.1</ele>
        <time>2023-07-02T08:34:47+0200</time>
      </trkpt>
      <trkpt lat="44.94855" lon="6.58451">
        <ele>1734.1</ele>
        <time>2023-07-02T08:34:49+0200</time>
      </trkpt>
      <trkpt lat="44.94861" lon="6.58448">
        <ele>1734.8</ele>
        <time>2023-07-02T08:34:52+0200</time>
      </trkpt>
      <trkpt lat="44.94865" lon="6.58443">
        <ele>1734.6</ele>
        <time>2023-07-02T08:34:55+0200</time>
      </trkpt>
      <trkpt lat="44.94869" lon="6.58439">
        <ele>1734.4</ele>
        <time>2023-07-02T08:34:57+0200</time>
      </trkpt>
      <trkpt lat="44.94873" lon="6.58435">
        <ele>1734.3</ele>
        <time>2023-07-02T08:34:59+0200</time>
      </trkpt>
      <trkpt lat="44.94876" lon="6.5843">
        <ele>1733.8</ele>
        <time>2023-07-02T08:35:02+0200</time>
      </trkpt>
      <trkpt lat="44.94881" lon="6.58424">
        <ele>1733.3</ele>
        <time>2023-07-02T08:35:05+0200</time>
      </trkpt>
      <trkpt lat="44.94887" lon="6.58423">
        <ele>1734.2</ele>
        <time>2023-07-02T08:35:08+0200</time>
      </trkpt>
      <trkpt lat="44.94892" lon="6.58422">
        <ele>1735.3</ele>
        <time>2023-07-02T08:35:12+0200</time>
      </trkpt>
      <trkpt lat="44.94896" lon="6.58427">
        <ele>1737.6</ele>
        <time>2023-07-02T08:35:16+0200</time>
      </trkpt>
      <trkpt lat="44.94899" lon="6.58433">
        <ele>1740.1</ele>
        <time>2023-07-02T08:35:19+0200</time>
      </trkpt>
      <trkpt lat="44.94906" lon="6.58436">
        <ele>1742.9</ele>
        <time>2023-07-02T08:35:24+0200</time>
      </trkpt>
      <trkpt lat="44.94911" lon="6.58436">
        <ele>1744.3</ele>
        <time>2023-07-02T08:35:30+0200</time>
      </trkpt>
      <trkpt lat="44.94913" lon="6.58425">
        <ele>1742.6</ele>
        <time>2023-07-02T08:35:32+0200</time>
      </trkpt>
      <trkpt lat="44.94916" lon="6.58419">
        <ele>1742.2</ele>
        <time>2023-07-02T08:35:34+0200</time>
      </trkpt>
      <trkpt lat="44.94916" lon="6.58411">
        <ele>1741</ele>
        <time>2023-07-02T08:35:37+0200</time>
      </trkpt>
      <trkpt lat="44.94918" lon="6.58404">
        <ele>1740.8</ele>
        <time>2023-07-02T08:35:40+0200</time>
      </trkpt>
      <trkpt lat="44.9492" lon="6.58397">
        <ele>1740.4</ele>
        <time>2023-07-02T08:35:42+0200</time>
      </trkpt>
      <trkpt lat="44.94922" lon="6.58389">
        <ele>1740.2</ele>
        <time>2023-07-02T08:35:44+0200</time>
      </trkpt>
      <trkpt lat="44.94924" lon="6.58384">
        <ele>1740.6</ele>
        <time>2023-07-02T08:35:47+0200</time>
      </trkpt>
      <trkpt lat="44.94925" lon="6.58377">
        <ele>1740.3</ele>
        <time>2023-07-02T08:35:51+0200</time>
      </trkpt>
      <trkpt lat="44.9493" lon="6.58371">
        <ele>1741.6</ele>
        <time>2023-07-02T08:35:54+0200</time>
      </trkpt>
      <trkpt lat="44.94933" lon="6.58364">
        <ele>1742</ele>
        <time>2023-07-02T08:35:57+0200</time>
      </trkpt>
      <trkpt lat="44.94936" lon="6.58359">
        <ele>1742.5</ele>
        <time>2023-07-02T08:35:59+0200</time>
      </trkpt>
      <trkpt lat="44.94939" lon="6.58352">
        <ele>1742.3</ele>
        <time>2023-07-02T08:36:02+0200</time>
      </trkpt>
      <trkpt lat="44.94942" lon="6.58347">
        <ele>1742.7</ele>
        <time>2023-07-02T08:36:05+0200</time>
      </trkpt>
      <trkpt lat="44.94946" lon="6.58344">
        <ele>1743.5</ele>
        <time>2023-07-02T08:36:07+0200</time>
      </trkpt>
      <trkpt lat="44.94951" lon="6.58336">
        <ele>1743.4</ele>
        <time>2023-07-02T08:36:10+0200</time>
      </trkpt>
      <trkpt lat="44.94954" lon="6.58329">
        <ele>1743.4</ele>
        <time>2023-07-02T08:36:13+0200</time>
      </trkpt>
      <trkpt lat="44.94958" lon="6.58322">
        <ele>1743.4</ele>
        <time>2023-07-02T08:36:15+0200</time>
      </trkpt>
      <trkpt lat="44.94962" lon="6.58317">
        <ele>1743.9</ele>
        <time>2023-07-02T08:36:18+0200</time>
      </trkpt>
      <trkpt lat="44.94965" lon="6.5831">
        <ele>1743.5</ele>
        <time>2023-07-02T08:36:20+0200</time>
      </trkpt>
      <trkpt lat="44.9497" lon="6.58303">
        <ele>1743.7</ele>
        <time>2023-07-02T08:36:23+0200</time>
      </trkpt>
      <trkpt lat="44.94975" lon="6.58295">
        <ele>1743.4</ele>
        <time>2023-07-02T08:36:26+0200</time>
      </trkpt>
      <trkpt lat="44.94978" lon="6.58288">
        <ele>1743</ele>
        <time>2023-07-02T08:36:28+0200</time>
      </trkpt>
      <trkpt lat="44.94982" lon="6.58284">
        <ele>1743.1</ele>
        <time>2023-07-02T08:36:30+0200</time>
      </trkpt>
      <trkpt lat="44.94985" lon="6.58279">
        <ele>1742.9</ele>
        <time>2023-07-02T08:36:32+0200</time>
      </trkpt>
      <trkpt lat="44.94988" lon="6.58272">
        <ele>1742.2</ele>
        <time>2023-07-02T08:36:34+0200</time>
      </trkpt>
      <trkpt lat="44.94992" lon="6.5827">
        <ele>1742.9</ele>
        <time>2023-07-02T08:36:37+0200</time>
      </trkpt>
      <trkpt lat="44.94997" lon="6.5827">
        <ele>1744.1</ele>
        <time>2023-07-02T08:36:40+0200</time>
      </trkpt>
      <trkpt lat="44.95003" lon="6.58269">
        <ele>1745.4</ele>
        <time>2023-07-02T08:36:43+0200</time>
      </trkpt>
      <trkpt lat="44.95009" lon="6.58266">
        <ele>1746.1</ele>
        <time>2023-07-02T08:36:46+0200</time>
      </trkpt>
      <trkpt lat="44.95014" lon="6.58267">
        <ele>1747.4</ele>
        <time>2023-07-02T08:36:49+0200</time>
      </trkpt>
      <trkpt lat="44.95018" lon="6.58262">
        <ele>1747.3</ele>
        <time>2023-07-02T08:36:51+0200</time>
      </trkpt>
      <trkpt lat="44.95023" lon="6.58259">
        <ele>1748</ele>
        <time>2023-07-02T08:36:54+0200</time>
      </trkpt>
      <trkpt lat="44.95028" lon="6.58257">
        <ele>1748.7</ele>
        <time>2023-07-02T08:36:57+0200</time>
      </trkpt>
      <trkpt lat="44.95033" lon="6.58255">
        <ele>1749.3</ele>
        <time>2023-07-02T08:37:00+0200</time>
      </trkpt>
      <trkpt lat="44.95039" lon="6.58251">
        <ele>1750</ele>
        <time>2023-07-02T08:37:03+0200</time>
      </trkpt>
      <trkpt lat="44.95044" lon="6.58255">
        <ele>1752.1</ele>
        <time>2023-07-02T08:37:06+0200</time>
      </trkpt>
      <trkpt lat="44.95045" lon="6.58262">
        <ele>1753.7</ele>
        <time>2023-07-02T08:37:09+0200</time>
      </trkpt>
      <trkpt lat="44.95044" lon="6.58271">
        <ele>1755.2</ele>
        <time>2023-07-02T08:37:12+0200</time>
      </trkpt>
      <trkpt lat="44.95041" lon="6.58275">
        <ele>1755.4</ele>
        <time>2023-07-02T08:37:15+0200</time>
      </trkpt>
      <trkpt lat="44.95039" lon="6.5828">
        <ele>1755.8</ele>
        <time>2023-07-02T08:37:17+0200</time>
      </trkpt>
      <trkpt lat="44.95034" lon="6.58285">
        <ele>1756</ele>
        <time>2023-07-02T08:37:20+0200</time>
      </trkpt>
      <trkpt lat="44.95033" lon="6.58294">
        <ele>1757.4</ele>
        <time>2023-07-02T08:37:24+0200</time>
      </trkpt>
      <trkpt lat="44.9503" lon="6.58302">
        <ele>1758.6</ele>
        <time>2023-07-02T08:37:28+0200</time>
      </trkpt>
      <trkpt lat="44.95028" lon="6.58311">
        <ele>1760</ele>
        <time>2023-07-02T08:37:33+0200</time>
      </trkpt>
      <trkpt lat="44.95025" lon="6.58317">
        <ele>1760.4</ele>
        <time>2023-07-02T08:37:38+0200</time>
      </trkpt>
      <trkpt lat="44.95024" lon="6.58323">
        <ele>1761.2</ele>
        <time>2023-07-02T08:37:41+0200</time>
      </trkpt>
      <trkpt lat="44.9502" lon="6.58329">
        <ele>1761.5</ele>
        <time>2023-07-02T08:37:44+0200</time>
      </trkpt>
      <trkpt lat="44.95017" lon="6.58334">
        <ele>1761.8</ele>
        <time>2023-07-02T08:37:48+0200</time>
      </trkpt>
      <trkpt lat="44.95014" lon="6.5834">
        <ele>1762.2</ele>
        <time>2023-07-02T08:37:51+0200</time>
      </trkpt>
      <trkpt lat="44.95011" lon="6.58345">
        <ele>1762.4</ele>
        <time>2023-07-02T08:37:54+0200</time>
      </trkpt>
      <trkpt lat="44.95007" lon="6.58352">
        <ele>1763</ele>
        <time>2023-07-02T08:37:57+0200</time>
      </trkpt>
      <trkpt lat="44.95004" lon="6.58359">
        <ele>1763.4</ele>
        <time>2023-07-02T08:38:00+0200</time>
      </trkpt>
      <trkpt lat="44.95001" lon="6.58364">
        <ele>1763.8</ele>
        <time>2023-07-02T08:38:02+0200</time>
      </trkpt>
      <trkpt lat="44.94998" lon="6.58369">
        <ele>1764</ele>
        <time>2023-07-02T08:38:05+0200</time>
      </trkpt>
      <trkpt lat="44.94994" lon="6.58375">
        <ele>1764.2</ele>
        <time>2023-07-02T08:38:08+0200</time>
      </trkpt>
      <trkpt lat="44.94988" lon="6.58379">
        <ele>1763.1</ele>
        <time>2023-07-02T08:38:12+0200</time>
      </trkpt>
      <trkpt lat="44.94986" lon="6.58385">
        <ele>1763.7</ele>
        <time>2023-07-02T08:38:15+0200</time>
      </trkpt>
      <trkpt lat="44.94983" lon="6.58391">
        <ele>1763.9</ele>
        <time>2023-07-02T08:38:19+0200</time>
      </trkpt>
      <trkpt lat="44.94981" lon="6.58398">
        <ele>1764.4</ele>
        <time>2023-07-02T08:38:23+0200</time>
      </trkpt>
      <trkpt lat="44.9498" lon="6.58405">
        <ele>1765.7</ele>
        <time>2023-07-02T08:38:26+0200</time>
      </trkpt>
      <trkpt lat="44.9498" lon="6.58412">
        <ele>1766.7</ele>
        <time>2023-07-02T08:38:28+0200</time>
      </trkpt>
      <trkpt lat="44.9498" lon="6.58418">
        <ele>1768</ele>
        <time>2023-07-02T08:38:30+0200</time>
      </trkpt>
      <trkpt lat="44.94978" lon="6.58425">
        <ele>1768.6</ele>
        <time>2023-07-02T08:38:35+0200</time>
      </trkpt>
      <trkpt lat="44.94975" lon="6.58431">
        <ele>1768.5</ele>
        <time>2023-07-02T08:38:40+0200</time>
      </trkpt>
      <trkpt lat="44.94974" lon="6.58437">
        <ele>1769.3</ele>
        <time>2023-07-02T08:38:43+0200</time>
      </trkpt>
      <trkpt lat="44.94972" lon="6.58445">
        <ele>1770.1</ele>
        <time>2023-07-02T08:38:46+0200</time>
      </trkpt>
      <trkpt lat="44.94975" lon="6.58451">
        <ele>1772.3</ele>
        <time>2023-07-02T08:38:49+0200</time>
      </trkpt>
      <trkpt lat="44.9498" lon="6.58448">
        <ele>1773.8</ele>
        <time>2023-07-02T08:38:52+0200</time>
      </trkpt>
      <trkpt lat="44.94984" lon="6.58444">
        <ele>1774.5</ele>
        <time>2023-07-02T08:38:56+0200</time>
      </trkpt>
      <trkpt lat="44.94988" lon="6.5844">
        <ele>1775.1</ele>
        <time>2023-07-02T08:38:59+0200</time>
      </trkpt>
      <trkpt lat="44.94991" lon="6.58434">
        <ele>1775.4</ele>
        <time>2023-07-02T08:39:02+0200</time>
      </trkpt>
      <trkpt lat="44.94994" lon="6.58428">
        <ele>1775.1</ele>
        <time>2023-07-02T08:39:04+0200</time>
      </trkpt>
      <trkpt lat="44.94999" lon="6.58426">
        <ele>1776.4</ele>
        <time>2023-07-02T08:39:07+0200</time>
      </trkpt>
      <trkpt lat="44.95002" lon="6.5842">
        <ele>1776.3</ele>
        <time>2023-07-02T08:39:10+0200</time>
      </trkpt>
      <trkpt lat="44.95007" lon="6.58416">
        <ele>1777</ele>
        <time>2023-07-02T08:39:13+0200</time>
      </trkpt>
      <trkpt lat="44.95013" lon="6.58414">
        <ele>1778.1</ele>
        <time>2023-07-02T08:39:17+0200</time>
      </trkpt>
      <trkpt lat="44.95017" lon="6.58409">
        <ele>1777.9</ele>
        <time>2023-07-02T08:39:21+0200</time>
      </trkpt>
      <trkpt lat="44.95022" lon="6.58407">
        <ele>1778.7</ele>
        <time>2023-07-02T08:39:25+0200</time>
      </trkpt>
      <trkpt lat="44.95027" lon="6.58408">
        <ele>1780.3</ele>
        <time>2023-07-02T08:39:30+0200</time>
      </trkpt>
      <trkpt lat="44.95032" lon="6.58407">
        <ele>1780.8</ele>
        <time>2023-07-02T08:39:34+0200</time>
      </trkpt>
      <trkpt lat="44.95038" lon="6.58405">
        <ele>1781.3</ele>
        <time>2023-07-02T08:39:38+0200</time>
      </trkpt>
      <trkpt lat="44.95042" lon="6.58408">
        <ele>1783</ele>
        <time>2023-07-02T08:39:41+0200</time>
      </trkpt>
      <trkpt lat="44.95048" lon="6.58408">
        <ele>1783.7</ele>
        <time>2023-07-02T08:39:44+0200</time>
      </trkpt>
      <trkpt lat="44.95054" lon="6.58409">
        <ele>1785.2</ele>
        <time>2023-07-02T08:39:47+0200</time>
      </trkpt>
      <trkpt lat="44.9506" lon="6.58406">
        <ele>1785.4</ele>
        <time>2023-07-02T08:39:50+0200</time>
      </trkpt>
      <trkpt lat="44.95065" lon="6.58405">
        <ele>1785.8</ele>
        <time>2023-07-02T08:39:52+0200</time>
      </trkpt>
      <trkpt lat="44.95071" lon="6.58407">
        <ele>1787.7</ele>
        <time>2023-07-02T08:39:55+0200</time>
      </trkpt>
      <trkpt lat="44.95077" lon="6.58406">
        <ele>1788.7</ele>
        <time>2023-07-02T08:39:58+0200</time>
      </trkpt>
      <trkpt lat="44.95083" lon="6.58407">
        <ele>1790</ele>
        <time>2023-07-02T08:40:01+0200</time>
      </trkpt>
      <trkpt lat="44.95087" lon="6.58406">
        <ele>1790.7</ele>
        <time>2023-07-02T08:40:05+0200</time>
      </trkpt>
      <trkpt lat="44.95093" lon="6.58403">
        <ele>1791.1</ele>
        <time>2023-07-02T08:40:08+0200</time>
      </trkpt>
      <trkpt lat="44.95097" lon="6.584">
        <ele>1791.4</ele>
        <time>2023-07-02T08:40:10+0200</time>
      </trkpt>
      <trkpt lat="44.95104" lon="6.58404">
        <ele>1793.7</ele>
        <time>2023-07-02T08:40:15+0200</time>
      </trkpt>
      <trkpt lat="44.9511" lon="6.58401">
        <ele>1794.4</ele>
        <time>2023-07-02T08:40:20+0200</time>
      </trkpt>
      <trkpt lat="44.95115" lon="6.58398">
        <ele>1794.8</ele>
        <time>2023-07-02T08:40:24+0200</time>
      </trkpt>
      <trkpt lat="44.95121" lon="6.58395">
        <ele>1795.6</ele>
        <time>2023-07-02T08:40:28+0200</time>
      </trkpt>
      <trkpt lat="44.95126" lon="6.58393">
        <ele>1796.5</ele>
        <time>2023-07-02T08:40:32+0200</time>
      </trkpt>
      <trkpt lat="44.95131" lon="6.58391">
        <ele>1797.3</ele>
        <time>2023-07-02T08:40:35+0200</time>
      </trkpt>
      <trkpt lat="44.95135" lon="6.58386">
        <ele>1797.6</ele>
        <time>2023-07-02T08:40:41+0200</time>
      </trkpt>
      <trkpt lat="44.95137" lon="6.58379">
        <ele>1796.8</ele>
        <time>2023-07-02T08:40:43+0200</time>
      </trkpt>
      <trkpt lat="44.95141" lon="6.58375">
        <ele>1797</ele>
        <time>2023-07-02T08:40:46+0200</time>
      </trkpt>
      <trkpt lat="44.95145" lon="6.58368">
        <ele>1797.1</ele>
        <time>2023-07-02T08:40:48+0200</time>
      </trkpt>
      <trkpt lat="44.9515" lon="6.58362">
        <ele>1797.7</ele>
        <time>2023-07-02T08:40:54+0200</time>
      </trkpt>
      <trkpt lat="44.95153" lon="6.58355">
        <ele>1797.9</ele>
        <time>2023-07-02T08:40:57+0200</time>
      </trkpt>
      <trkpt lat="44.95157" lon="6.58351">
        <ele>1798.5</ele>
        <time>2023-07-02T08:41:01+0200</time>
      </trkpt>
      <trkpt lat="44.95162" lon="6.58347">
        <ele>1799.7</ele>
        <time>2023-07-02T08:41:04+0200</time>
      </trkpt>
      <trkpt lat="44.95167" lon="6.58345">
        <ele>1801.4</ele>
        <time>2023-07-02T08:41:07+0200</time>
      </trkpt>
      <trkpt lat="44.95166" lon="6.58339">
        <ele>1800.3</ele>
        <time>2023-07-02T08:41:09+0200</time>
      </trkpt>
      <trkpt lat="44.9517" lon="6.58336">
        <ele>1801.3</ele>
        <time>2023-07-02T08:41:11+0200</time>
      </trkpt>
      <trkpt lat="44.95174" lon="6.58332">
        <ele>1802</ele>
        <time>2023-07-02T08:41:14+0200</time>
      </trkpt>
      <trkpt lat="44.9518" lon="6.5833">
        <ele>1803.2</ele>
        <time>2023-07-02T08:41:17+0200</time>
      </trkpt>
      <trkpt lat="44.95185" lon="6.58324">
        <ele>1804</ele>
        <time>2023-07-02T08:41:20+0200</time>
      </trkpt>
      <trkpt lat="44.9519" lon="6.58324">
        <ele>1805.5</ele>
        <time>2023-07-02T08:41:23+0200</time>
      </trkpt>
      <trkpt lat="44.95195" lon="6.58322">
        <ele>1806.4</ele>
        <time>2023-07-02T08:41:25+0200</time>
      </trkpt>
      <trkpt lat="44.95198" lon="6.58316">
        <ele>1806.6</ele>
        <time>2023-07-02T08:41:27+0200</time>
      </trkpt>
      <trkpt lat="44.95202" lon="6.58313">
        <ele>1807.4</ele>
        <time>2023-07-02T08:41:29+0200</time>
      </trkpt>
      <trkpt lat="44.95207" lon="6.58313">
        <ele>1808.9</ele>
        <time>2023-07-02T08:41:32+0200</time>
      </trkpt>
      <trkpt lat="44.95212" lon="6.58311">
        <ele>1809.8</ele>
        <time>2023-07-02T08:41:35+0200</time>
      </trkpt>
      <trkpt lat="44.95217" lon="6.58309">
        <ele>1811.1</ele>
        <time>2023-07-02T08:41:38+0200</time>
      </trkpt>
      <trkpt lat="44.95221" lon="6.58305">
        <ele>1811.6</ele>
        <time>2023-07-02T08:41:41+0200</time>
      </trkpt>
      <trkpt lat="44.95226" lon="6.58301">
        <ele>1812.7</ele>
        <time>2023-07-02T08:41:45+0200</time>
      </trkpt>
      <trkpt lat="44.9523" lon="6.58296">
        <ele>1813.3</ele>
        <time>2023-07-02T08:41:47+0200</time>
      </trkpt>
      <trkpt lat="44.95234" lon="6.58291">
        <ele>1814</ele>
        <time>2023-07-02T08:41:50+0200</time>
      </trkpt>
      <trkpt lat="44.95236" lon="6.58283">
        <ele>1813.9</ele>
        <time>2023-07-02T08:41:54+0200</time>
      </trkpt>
      <trkpt lat="44.9524" lon="6.58276">
        <ele>1814.3</ele>
        <time>2023-07-02T08:41:58+0200</time>
      </trkpt>
      <trkpt lat="44.95243" lon="6.5827">
        <ele>1815</ele>
        <time>2023-07-02T08:42:02+0200</time>
      </trkpt>
      <trkpt lat="44.95247" lon="6.58265">
        <ele>1815.8</ele>
        <time>2023-07-02T08:42:05+0200</time>
      </trkpt>
      <trkpt lat="44.95248" lon="6.58258">
        <ele>1815.3</ele>
        <time>2023-07-02T08:42:09+0200</time>
      </trkpt>
      <trkpt lat="44.95252" lon="6.58252">
        <ele>1816.3</ele>
        <time>2023-07-02T08:42:12+0200</time>
      </trkpt>
      <trkpt lat="44.95255" lon="6.58244">
        <ele>1815.9</ele>
        <time>2023-07-02T08:42:16+0200</time>
      </trkpt>
      <trkpt lat="44.95259" lon="6.58241">
        <ele>1817.4</ele>
        <time>2023-07-02T08:42:19+0200</time>
      </trkpt>
      <trkpt lat="44.95261" lon="6.58234">
        <ele>1816.8</ele>
        <time>2023-07-02T08:42:22+0200</time>
      </trkpt>
      <trkpt lat="44.95266" lon="6.58231">
        <ele>1818.2</ele>
        <time>2023-07-02T08:42:26+0200</time>
      </trkpt>
      <trkpt lat="44.95267" lon="6.58223">
        <ele>1817</ele>
        <time>2023-07-02T08:42:29+0200</time>
      </trkpt>
      <trkpt lat="44.95272" lon="6.58216">
        <ele>1818.4</ele>
        <time>2023-07-02T08:42:33+0200</time>
      </trkpt>
      <trkpt lat="44.95277" lon="6.58212">
        <ele>1820.3</ele>
        <time>2023-07-02T08:42:36+0200</time>
      </trkpt>
      <trkpt lat="44.95281" lon="6.58206">
        <ele>1821</ele>
        <time>2023-07-02T08:42:39+0200</time>
      </trkpt>
      <trkpt lat="44.95285" lon="6.58203">
        <ele>1822.2</ele>
        <time>2023-07-02T08:42:42+0200</time>
      </trkpt>
      <trkpt lat="44.9529" lon="6.58199">
        <ele>1823.3</ele>
        <time>2023-07-02T08:42:46+0200</time>
      </trkpt>
      <trkpt lat="44.95293" lon="6.58192">
        <ele>1823.6</ele>
        <time>2023-07-02T08:42:49+0200</time>
      </trkpt>
      <trkpt lat="44.95294" lon="6.58184">
        <ele>1823</ele>
        <time>2023-07-02T08:42:53+0200</time>
      </trkpt>
      <trkpt lat="44.95296" lon="6.58178">
        <ele>1823.1</ele>
        <time>2023-07-02T08:42:56+0200</time>
      </trkpt>
      <trkpt lat="44.95299" lon="6.58172">
        <ele>1823.8</ele>
        <time>2023-07-02T08:43:00+0200</time>
      </trkpt>
      <trkpt lat="44.95303" lon="6.58166">
        <ele>1824.5</ele>
        <time>2023-07-02T08:43:04+0200</time>
      </trkpt>
      <trkpt lat="44.95306" lon="6.58159">
        <ele>1823.8</ele>
        <time>2023-07-02T08:43:07+0200</time>
      </trkpt>
      <trkpt lat="44.95309" lon="6.58154">
        <ele>1823</ele>
        <time>2023-07-02T08:43:11+0200</time>
      </trkpt>
      <trkpt lat="44.95311" lon="6.58148">
        <ele>1822</ele>
        <time>2023-07-02T08:43:19+0200</time>
      </trkpt>
      <trkpt lat="44.95317" lon="6.58146">
        <ele>1822.5</ele>
        <time>2023-07-02T08:43:24+0200</time>
      </trkpt>
      <trkpt lat="44.95322" lon="6.58145">
        <ele>1823.5</ele>
        <time>2023-07-02T08:43:27+0200</time>
      </trkpt>
      <trkpt lat="44.95327" lon="6.58143">
        <ele>1824.1</ele>
        <time>2023-07-02T08:43:30+0200</time>
      </trkpt>
      <trkpt lat="44.95333" lon="6.58142">
        <ele>1824.9</ele>
        <time>2023-07-02T08:43:33+0200</time>
      </trkpt>
      <trkpt lat="44.95339" lon="6.58142">
        <ele>1825.9</ele>
        <time>2023-07-02T08:43:36+0200</time>
      </trkpt>
      <trkpt lat="44.95344" lon="6.58141">
        <ele>1826.4</ele>
        <time>2023-07-02T08:43:39+0200</time>
      </trkpt>
      <trkpt lat="44.9535" lon="6.58141">
        <ele>1827.6</ele>
        <time>2023-07-02T08:43:42+0200</time>
      </trkpt>
      <trkpt lat="44.95356" lon="6.5814">
        <ele>1828.6</ele>
        <time>2023-07-02T08:43:47+0200</time>
      </trkpt>
      <trkpt lat="44.95362" lon="6.5814">
        <ele>1829.4</ele>
        <time>2023-07-02T08:43:50+0200</time>
      </trkpt>
      <trkpt lat="44.95368" lon="6.5814">
        <ele>1830.9</ele>
        <time>2023-07-02T08:43:53+0200</time>
      </trkpt>
      <trkpt lat="44.95374" lon="6.58139">
        <ele>1831.8</ele>
        <time>2023-07-02T08:43:57+0200</time>
      </trkpt>
      <trkpt lat="44.9538" lon="6.58132">
        <ele>1831.9</ele>
        <time>2023-07-02T08:44:01+0200</time>
      </trkpt>
      <trkpt lat="44.95381" lon="6.58125">
        <ele>1831.2</ele>
        <time>2023-07-02T08:44:04+0200</time>
      </trkpt>
      <trkpt lat="44.95383" lon="6.58119">
        <ele>1830.7</ele>
        <time>2023-07-02T08:44:06+0200</time>
      </trkpt>
      <trkpt lat="44.95382" lon="6.58111">
        <ele>1829.3</ele>
        <time>2023-07-02T08:44:09+0200</time>
      </trkpt>
      <trkpt lat="44.95384" lon="6.58104">
        <ele>1828.7</ele>
        <time>2023-07-02T08:44:12+0200</time>
      </trkpt>
      <trkpt lat="44.95388" lon="6.58101">
        <ele>1829.4</ele>
        <time>2023-07-02T08:44:15+0200</time>
      </trkpt>
      <trkpt lat="44.95393" lon="6.58098">
        <ele>1830.2</ele>
        <time>2023-07-02T08:44:18+0200</time>
      </trkpt>
      <trkpt lat="44.954" lon="6.58094">
        <ele>1831.1</ele>
        <time>2023-07-02T08:44:23+0200</time>
      </trkpt>
      <trkpt lat="44.95406" lon="6.58092">
        <ele>1832.3</ele>
        <time>2023-07-02T08:44:26+0200</time>
      </trkpt>
      <trkpt lat="44.95411" lon="6.58091">
        <ele>1833.3</ele>
        <time>2023-07-02T08:44:29+0200</time>
      </trkpt>
      <trkpt lat="44.95416" lon="6.58089">
        <ele>1834</ele>
        <time>2023-07-02T08:44:32+0200</time>
      </trkpt>
      <trkpt lat="44.95421" lon="6.58088">
        <ele>1834.5</ele>
        <time>2023-07-02T08:44:35+0200</time>
      </trkpt>
      <trkpt lat="44.95427" lon="6.58086">
        <ele>1835</ele>
        <time>2023-07-02T08:44:39+0200</time>
      </trkpt>
      <trkpt lat="44.95433" lon="6.58083">
        <ele>1835.3</ele>
        <time>2023-07-02T08:44:42+0200</time>
      </trkpt>
      <trkpt lat="44.95439" lon="6.58084">
        <ele>1836.4</ele>
        <time>2023-07-02T08:44:46+0200</time>
      </trkpt>
      <trkpt lat="44.95444" lon="6.58091">
        <ele>1839.2</ele>
        <time>2023-07-02T08:44:51+0200</time>
      </trkpt>
      <trkpt lat="44.95444" lon="6.58098">
        <ele>1841.4</ele>
        <time>2023-07-02T08:44:54+0200</time>
      </trkpt>
      <trkpt lat="44.95439" lon="6.581">
        <ele>1841.2</ele>
        <time>2023-07-02T08:45:02+0200</time>
      </trkpt>
      <trkpt lat="44.95438" lon="6.58107">
        <ele>1843.1</ele>
        <time>2023-07-02T08:45:28+0200</time>
      </trkpt>
      <trkpt lat="44.95439" lon="6.58101">
        <ele>1841.5</ele>
        <time>2023-07-02T08:46:02+0200</time>
      </trkpt>
      <trkpt lat="44.95435" lon="6.58105">
        <ele>1841.8</ele>
        <time>2023-07-02T08:46:29+0200</time>
      </trkpt>
      <trkpt lat="44.95431" lon="6.5811">
        <ele>1842.3</ele>
        <time>2023-07-02T08:46:33+0200</time>
      </trkpt>
      <trkpt lat="44.95427" lon="6.58117">
        <ele>1842.5</ele>
        <time>2023-07-02T08:46:37+0200</time>
      </trkpt>
      <trkpt lat="44.95426" lon="6.58125">
        <ele>1843.1</ele>
        <time>2023-07-02T08:46:41+0200</time>
      </trkpt>
      <trkpt lat="44.95426" lon="6.58134">
        <ele>1844.3</ele>
        <time>2023-07-02T08:46:45+0200</time>
      </trkpt>
      <trkpt lat="44.95424" lon="6.58141">
        <ele>1844.9</ele>
        <time>2023-07-02T08:46:51+0200</time>
      </trkpt>
      <trkpt lat="44.95424" lon="6.58149">
        <ele>1846.6</ele>
        <time>2023-07-02T08:46:55+0200</time>
      </trkpt>
      <trkpt lat="44.9542" lon="6.58154">
        <ele>1846.8</ele>
        <time>2023-07-02T08:46:58+0200</time>
      </trkpt>
      <trkpt lat="44.95416" lon="6.58158">
        <ele>1846.8</ele>
        <time>2023-07-02T08:47:02+0200</time>
      </trkpt>
      <trkpt lat="44.95412" lon="6.58164">
        <ele>1847.2</ele>
        <time>2023-07-02T08:47:06+0200</time>
      </trkpt>
      <trkpt lat="44.95406" lon="6.58166">
        <ele>1846.7</ele>
        <time>2023-07-02T08:47:09+0200</time>
      </trkpt>
      <trkpt lat="44.95403" lon="6.58171">
        <ele>1847.6</ele>
        <time>2023-07-02T08:47:12+0200</time>
      </trkpt>
      <trkpt lat="44.95401" lon="6.58177">
        <ele>1849.1</ele>
        <time>2023-07-02T08:47:14+0200</time>
      </trkpt>
      <trkpt lat="44.95398" lon="6.58182">
        <ele>1850.2</ele>
        <time>2023-07-02T08:47:18+0200</time>
      </trkpt>
      <trkpt lat="44.95397" lon="6.58188">
        <ele>1852.4</ele>
        <time>2023-07-02T08:47:21+0200</time>
      </trkpt>
      <trkpt lat="44.95392" lon="6.58193">
        <ele>1853.1</ele>
        <time>2023-07-02T08:47:25+0200</time>
      </trkpt>
      <trkpt lat="44.9539" lon="6.58198">
        <ele>1854.5</ele>
        <time>2023-07-02T08:47:27+0200</time>
      </trkpt>
      <trkpt lat="44.95386" lon="6.58203">
        <ele>1855.4</ele>
        <time>2023-07-02T08:47:30+0200</time>
      </trkpt>
      <trkpt lat="44.95383" lon="6.58209">
        <ele>1856.4</ele>
        <time>2023-07-02T08:47:33+0200</time>
      </trkpt>
      <trkpt lat="44.9538" lon="6.58216">
        <ele>1857.8</ele>
        <time>2023-07-02T08:47:37+0200</time>
      </trkpt>
      <trkpt lat="44.95377" lon="6.58221">
        <ele>1858.4</ele>
        <time>2023-07-02T08:47:40+0200</time>
      </trkpt>
      <trkpt lat="44.95374" lon="6.58228">
        <ele>1859.5</ele>
        <time>2023-07-02T08:47:43+0200</time>
      </trkpt>
      <trkpt lat="44.95372" lon="6.58235">
        <ele>1860.3</ele>
        <time>2023-07-02T08:47:47+0200</time>
      </trkpt>
      <trkpt lat="44.95369" lon="6.58243">
        <ele>1861.7</ele>
        <time>2023-07-02T08:47:52+0200</time>
      </trkpt>
      <trkpt lat="44.95366" lon="6.5825">
        <ele>1862</ele>
        <time>2023-07-02T08:47:55+0200</time>
      </trkpt>
      <trkpt lat="44.95363" lon="6.58257">
        <ele>1862.1</ele>
        <time>2023-07-02T08:47:59+0200</time>
      </trkpt>
      <trkpt lat="44.9536" lon="6.58262">
        <ele>1862.1</ele>
        <time>2023-07-02T08:48:02+0200</time>
      </trkpt>
      <trkpt lat="44.95358" lon="6.58269">
        <ele>1862.5</ele>
        <time>2023-07-02T08:48:05+0200</time>
      </trkpt>
      <trkpt lat="44.95356" lon="6.58276">
        <ele>1863.2</ele>
        <time>2023-07-02T08:48:08+0200</time>
      </trkpt>
      <trkpt lat="44.95355" lon="6.58283">
        <ele>1863.9</ele>
        <time>2023-07-02T08:48:11+0200</time>
      </trkpt>
      <trkpt lat="44.95355" lon="6.5829">
        <ele>1865</ele>
        <time>2023-07-02T08:48:14+0200</time>
      </trkpt>
      <trkpt lat="44.95355" lon="6.58299">
        <ele>1866.4</ele>
        <time>2023-07-02T08:48:18+0200</time>
      </trkpt>
      <trkpt lat="44.95354" lon="6.58306">
        <ele>1867.4</ele>
        <time>2023-07-02T08:48:21+0200</time>
      </trkpt>
      <trkpt lat="44.95354" lon="6.58313">
        <ele>1868</ele>
        <time>2023-07-02T08:48:24+0200</time>
      </trkpt>
      <trkpt lat="44.95352" lon="6.58321">
        <ele>1867.7</ele>
        <time>2023-07-02T08:48:28+0200</time>
      </trkpt>
      <trkpt lat="44.9535" lon="6.58327">
        <ele>1867.5</ele>
        <time>2023-07-02T08:48:31+0200</time>
      </trkpt>
      <trkpt lat="44.95348" lon="6.58334">
        <ele>1866.9</ele>
        <time>2023-07-02T08:48:35+0200</time>
      </trkpt>
      <trkpt lat="44.95346" lon="6.5834">
        <ele>1867.2</ele>
        <time>2023-07-02T08:48:38+0200</time>
      </trkpt>
      <trkpt lat="44.95344" lon="6.58348">
        <ele>1867.7</ele>
        <time>2023-07-02T08:48:42+0200</time>
      </trkpt>
      <trkpt lat="44.95341" lon="6.58354">
        <ele>1867.5</ele>
        <time>2023-07-02T08:48:45+0200</time>
      </trkpt>
      <trkpt lat="44.95337" lon="6.5836">
        <ele>1866.6</ele>
        <time>2023-07-02T08:48:48+0200</time>
      </trkpt>
      <trkpt lat="44.95334" lon="6.58366">
        <ele>1866.1</ele>
        <time>2023-07-02T08:48:51+0200</time>
      </trkpt>
      <trkpt lat="44.95332" lon="6.58372">
        <ele>1866.4</ele>
        <time>2023-07-02T08:48:53+0200</time>
      </trkpt>
      <trkpt lat="44.95329" lon="6.58379">
        <ele>1866.3</ele>
        <time>2023-07-02T08:48:56+0200</time>
      </trkpt>
      <trkpt lat="44.9533" lon="6.58386">
        <ele>1868.4</ele>
        <time>2023-07-02T08:48:59+0200</time>
      </trkpt>
      <trkpt lat="44.95331" lon="6.58394">
        <ele>1870.5</ele>
        <time>2023-07-02T08:49:02+0200</time>
      </trkpt>
      <trkpt lat="44.95332" lon="6.58401">
        <ele>1872.3</ele>
        <time>2023-07-02T08:49:05+0200</time>
      </trkpt>
      <trkpt lat="44.95336" lon="6.5841">
        <ele>1875.1</ele>
        <time>2023-07-02T08:49:08+0200</time>
      </trkpt>
      <trkpt lat="44.95335" lon="6.58417">
        <ele>1876</ele>
        <time>2023-07-02T08:49:11+0200</time>
      </trkpt>
      <trkpt lat="44.95334" lon="6.58425">
        <ele>1875.6</ele>
        <time>2023-07-02T08:49:17+0200</time>
      </trkpt>
      <trkpt lat="44.95334" lon="6.58433">
        <ele>1876</ele>
        <time>2023-07-02T08:49:21+0200</time>
      </trkpt>
      <trkpt lat="44.95335" lon="6.58439">
        <ele>1876.6</ele>
        <time>2023-07-02T08:49:24+0200</time>
      </trkpt>
      <trkpt lat="44.95336" lon="6.58446">
        <ele>1877.1</ele>
        <time>2023-07-02T08:49:29+0200</time>
      </trkpt>
      <trkpt lat="44.95337" lon="6.58453">
        <ele>1878</ele>
        <time>2023-07-02T08:49:33+0200</time>
      </trkpt>
      <trkpt lat="44.95337" lon="6.58461">
        <ele>1878.7</ele>
        <time>2023-07-02T08:49:38+0200</time>
      </trkpt>
      <trkpt lat="44.95338" lon="6.58467">
        <ele>1879.5</ele>
        <time>2023-07-02T08:49:42+0200</time>
      </trkpt>
      <trkpt lat="44.95337" lon="6.58474">
        <ele>1879.6</ele>
        <time>2023-07-02T08:49:46+0200</time>
      </trkpt>
      <trkpt lat="44.95335" lon="6.58482">
        <ele>1880.6</ele>
        <time>2023-07-02T08:49:50+0200</time>
      </trkpt>
      <trkpt lat="44.95332" lon="6.58486">
        <ele>1880.4</ele>
        <time>2023-07-02T08:49:53+0200</time>
      </trkpt>
      <trkpt lat="44.95329" lon="6.58491">
        <ele>1880.7</ele>
        <time>2023-07-02T08:49:57+0200</time>
      </trkpt>
      <trkpt lat="44.95326" lon="6.58497">
        <ele>1881.3</ele>
        <time>2023-07-02T08:50:00+0200</time>
      </trkpt>
      <trkpt lat="44.95323" lon="6.58502">
        <ele>1881.6</ele>
        <time>2023-07-02T08:50:04+0200</time>
      </trkpt>
      <trkpt lat="44.95321" lon="6.58509">
        <ele>1882.6</ele>
        <time>2023-07-02T08:50:07+0200</time>
      </trkpt>
      <trkpt lat="44.95317" lon="6.58514">
        <ele>1883</ele>
        <time>2023-07-02T08:50:10+0200</time>
      </trkpt>
      <trkpt lat="44.95315" lon="6.5852">
        <ele>1883.8</ele>
        <time>2023-07-02T08:50:14+0200</time>
      </trkpt>
      <trkpt lat="44.95318" lon="6.58527">
        <ele>1886.3</ele>
        <time>2023-07-02T08:50:19+0200</time>
      </trkpt>
      <trkpt lat="44.95323" lon="6.58526">
        <ele>1887.2</ele>
        <time>2023-07-02T08:50:22+0200</time>
      </trkpt>
      <trkpt lat="44.95328" lon="6.58524">
        <ele>1888</ele>
        <time>2023-07-02T08:50:26+0200</time>
      </trkpt>
      <trkpt lat="44.95334" lon="6.58521">
        <ele>1888.5</ele>
        <time>2023-07-02T08:50:31+0200</time>
      </trkpt>
      <trkpt lat="44.95339" lon="6.58516">
        <ele>1888.5</ele>
        <time>2023-07-02T08:50:35+0200</time>
      </trkpt>
      <trkpt lat="44.95344" lon="6.58515">
        <ele>1889.2</ele>
        <time>2023-07-02T08:50:39+0200</time>
      </trkpt>
      <trkpt lat="44.95349" lon="6.58518">
        <ele>1890.7</ele>
        <time>2023-07-02T08:50:44+0200</time>
      </trkpt>
      <trkpt lat="44.95352" lon="6.58524">
        <ele>1892.1</ele>
        <time>2023-07-02T08:50:49+0200</time>
      </trkpt>
      <trkpt lat="44.95354" lon="6.5853">
        <ele>1893.2</ele>
        <time>2023-07-02T08:50:54+0200</time>
      </trkpt>
      <trkpt lat="44.95356" lon="6.58538">
        <ele>1894.1</ele>
        <time>2023-07-02T08:50:57+0200</time>
      </trkpt>
      <trkpt lat="44.95357" lon="6.58547">
        <ele>1894.8</ele>
        <time>2023-07-02T08:51:00+0200</time>
      </trkpt>
      <trkpt lat="44.95358" lon="6.58555">
        <ele>1895.6</ele>
        <time>2023-07-02T08:51:03+0200</time>
      </trkpt>
      <trkpt lat="44.9536" lon="6.58562">
        <ele>1895.9</ele>
        <time>2023-07-02T08:51:06+0200</time>
      </trkpt>
      <trkpt lat="44.95357" lon="6.58569">
        <ele>1895.7</ele>
        <time>2023-07-02T08:51:09+0200</time>
      </trkpt>
      <trkpt lat="44.95355" lon="6.58575">
        <ele>1895.5</ele>
        <time>2023-07-02T08:51:11+0200</time>
      </trkpt>
      <trkpt lat="44.95354" lon="6.58582">
        <ele>1895.5</ele>
        <time>2023-07-02T08:51:13+0200</time>
      </trkpt>
      <trkpt lat="44.95356" lon="6.5859">
        <ele>1895.8</ele>
        <time>2023-07-02T08:51:16+0200</time>
      </trkpt>
      <trkpt lat="44.95357" lon="6.58597">
        <ele>1896.2</ele>
        <time>2023-07-02T08:51:18+0200</time>
      </trkpt>
      <trkpt lat="44.9536" lon="6.58603">
        <ele>1896.6</ele>
        <time>2023-07-02T08:51:20+0200</time>
      </trkpt>
      <trkpt lat="44.95363" lon="6.58611">
        <ele>1897.2</ele>
        <time>2023-07-02T08:51:22+0200</time>
      </trkpt>
      <trkpt lat="44.95365" lon="6.58616">
        <ele>1897.6</ele>
        <time>2023-07-02T08:51:24+0200</time>
      </trkpt>
      <trkpt lat="44.95367" lon="6.58622">
        <ele>1897.8</ele>
        <time>2023-07-02T08:51:26+0200</time>
      </trkpt>
      <trkpt lat="44.95369" lon="6.58629">
        <ele>1898.1</ele>
        <time>2023-07-02T08:51:28+0200</time>
      </trkpt>
      <trkpt lat="44.95371" lon="6.58636">
        <ele>1898.4</ele>
        <time>2023-07-02T08:51:30+0200</time>
      </trkpt>
      <trkpt lat="44.95373" lon="6.58644">
        <ele>1898.8</ele>
        <time>2023-07-02T08:51:32+0200</time>
      </trkpt>
      <trkpt lat="44.95375" lon="6.58651">
        <ele>1899.2</ele>
        <time>2023-07-02T08:51:34+0200</time>
      </trkpt>
      <trkpt lat="44.95379" lon="6.58659">
        <ele>1900</ele>
        <time>2023-07-02T08:51:37+0200</time>
      </trkpt>
      <trkpt lat="44.95382" lon="6.58666">
        <ele>1900.7</ele>
        <time>2023-07-02T08:51:40+0200</time>
      </trkpt>
      <trkpt lat="44.95384" lon="6.58673">
        <ele>1901.3</ele>
        <time>2023-07-02T08:51:43+0200</time>
      </trkpt>
      <trkpt lat="44.95387" lon="6.58679">
        <ele>1901.8</ele>
        <time>2023-07-02T08:51:47+0200</time>
      </trkpt>
      <trkpt lat="44.95391" lon="6.58685">
        <ele>1902.3</ele>
        <time>2023-07-02T08:51:51+0200</time>
      </trkpt>
      <trkpt lat="44.95397" lon="6.5869">
        <ele>1903.1</ele>
        <time>2023-07-02T08:51:55+0200</time>
      </trkpt>
      <trkpt lat="44.95401" lon="6.58693">
        <ele>1903.7</ele>
        <time>2023-07-02T08:52:00+0200</time>
      </trkpt>
      <trkpt lat="44.95406" lon="6.58692">
        <ele>1904.5</ele>
        <time>2023-07-02T08:52:04+0200</time>
      </trkpt>
      <trkpt lat="44.95411" lon="6.58693">
        <ele>1905.2</ele>
        <time>2023-07-02T08:52:08+0200</time>
      </trkpt>
      <trkpt lat="44.95417" lon="6.58694">
        <ele>1906</ele>
        <time>2023-07-02T08:52:12+0200</time>
      </trkpt>
      <trkpt lat="44.9542" lon="6.58699">
        <ele>1907</ele>
        <time>2023-07-02T08:52:15+0200</time>
      </trkpt>
      <trkpt lat="44.95421" lon="6.58706">
        <ele>1907.4</ele>
        <time>2023-07-02T08:52:18+0200</time>
      </trkpt>
      <trkpt lat="44.95419" lon="6.58714">
        <ele>1907.3</ele>
        <time>2023-07-02T08:52:21+0200</time>
      </trkpt>
      <trkpt lat="44.95417" lon="6.58719">
        <ele>1906.9</ele>
        <time>2023-07-02T08:52:23+0200</time>
      </trkpt>
      <trkpt lat="44.95413" lon="6.58725">
        <ele>1906.7</ele>
        <time>2023-07-02T08:52:25+0200</time>
      </trkpt>
      <trkpt lat="44.95409" lon="6.5873">
        <ele>1906.4</ele>
        <time>2023-07-02T08:52:27+0200</time>
      </trkpt>
      <trkpt lat="44.95403" lon="6.58737">
        <ele>1906.2</ele>
        <time>2023-07-02T08:52:29+0200</time>
      </trkpt>
      <trkpt lat="44.95397" lon="6.58743">
        <ele>1905.6</ele>
        <time>2023-07-02T08:52:31+0200</time>
      </trkpt>
      <trkpt lat="44.95389" lon="6.58745">
        <ele>1904.5</ele>
        <time>2023-07-02T08:52:33+0200</time>
      </trkpt>
      <trkpt lat="44.95381" lon="6.5875">
        <ele>1904.1</ele>
        <time>2023-07-02T08:52:35+0200</time>
      </trkpt>
      <trkpt lat="44.95373" lon="6.5875">
        <ele>1903.3</ele>
        <time>2023-07-02T08:52:37+0200</time>
      </trkpt>
      <trkpt lat="44.95368" lon="6.5875">
        <ele>1902.7</ele>
        <time>2023-07-02T08:52:38+0200</time>
      </trkpt>
      <trkpt lat="44.95361" lon="6.58749">
        <ele>1901.9</ele>
        <time>2023-07-02T08:52:39+0200</time>
      </trkpt>
      <trkpt lat="44.95356" lon="6.58746">
        <ele>1901.5</ele>
        <time>2023-07-02T08:52:40+0200</time>
      </trkpt>
      <trkpt lat="44.9535" lon="6.58743">
        <ele>1901.1</ele>
        <time>2023-07-02T08:52:41+0200</time>
      </trkpt>
      <trkpt lat="44.95344" lon="6.58739">
        <ele>1900.6</ele>
        <time>2023-07-02T08:52:42+0200</time>
      </trkpt>
      <trkpt lat="44.95336" lon="6.58737">
        <ele>1900.2</ele>
        <time>2023-07-02T08:52:43+0200</time>
      </trkpt>
      <trkpt lat="44.95329" lon="6.58737">
        <ele>1899.7</ele>
        <time>2023-07-02T08:52:44+0200</time>
      </trkpt>
      <trkpt lat="44.95322" lon="6.5874">
        <ele>1899.2</ele>
        <time>2023-07-02T08:52:45+0200</time>
      </trkpt>
      <trkpt lat="44.95316" lon="6.58745">
        <ele>1898.9</ele>
        <time>2023-07-02T08:52:46+0200</time>
      </trkpt>
      <trkpt lat="44.9531" lon="6.5875">
        <ele>1898.4</ele>
        <time>2023-07-02T08:52:47+0200</time>
      </trkpt>
      <trkpt lat="44.95303" lon="6.58754">
        <ele>1897.9</ele>
        <time>2023-07-02T08:52:48+0200</time>
      </trkpt>
      <trkpt lat="44.95296" lon="6.58757">
        <ele>1897.5</ele>
        <time>2023-07-02T08:52:49+0200</time>
      </trkpt>
      <trkpt lat="44.95289" lon="6.58759">
        <ele>1897.1</ele>
        <time>2023-07-02T08:52:50+0200</time>
      </trkpt>
      <trkpt lat="44.95283" lon="6.58764">
        <ele>1896.8</ele>
        <time>2023-07-02T08:52:51+0200</time>
      </trkpt>
      <trkpt lat="44.95276" lon="6.58767">
        <ele>1896.5</ele>
        <time>2023-07-02T08:52:52+0200</time>
      </trkpt>
      <trkpt lat="44.95271" lon="6.58772">
        <ele>1896.3</ele>
        <time>2023-07-02T08:52:53+0200</time>
      </trkpt>
      <trkpt lat="44.95265" lon="6.58777">
        <ele>1896.1</ele>
        <time>2023-07-02T08:52:54+0200</time>
      </trkpt>
      <trkpt lat="44.9526" lon="6.58782">
        <ele>1895.8</ele>
        <time>2023-07-02T08:52:55+0200</time>
      </trkpt>
      <trkpt lat="44.95256" lon="6.58789">
        <ele>1895.7</ele>
        <time>2023-07-02T08:52:56+0200</time>
      </trkpt>
      <trkpt lat="44.95251" lon="6.58796">
        <ele>1895.7</ele>
        <time>2023-07-02T08:52:57+0200</time>
      </trkpt>
      <trkpt lat="44.95246" lon="6.58801">
        <ele>1895.5</ele>
        <time>2023-07-02T08:52:58+0200</time>
      </trkpt>
      <trkpt lat="44.95241" lon="6.58805">
        <ele>1895.4</ele>
        <time>2023-07-02T08:52:59+0200</time>
      </trkpt>
      <trkpt lat="44.95236" lon="6.58807">
        <ele>1895.1</ele>
        <time>2023-07-02T08:53:00+0200</time>
      </trkpt>
      <trkpt lat="44.95232" lon="6.5881">
        <ele>1894.9</ele>
        <time>2023-07-02T08:53:01+0200</time>
      </trkpt>
      <trkpt lat="44.95227" lon="6.58814">
        <ele>1894.9</ele>
        <time>2023-07-02T08:53:02+0200</time>
      </trkpt>
      <trkpt lat="44.95225" lon="6.58821">
        <ele>1895.3</ele>
        <time>2023-07-02T08:53:03+0200</time>
      </trkpt>
      <trkpt lat="44.95227" lon="6.58829">
        <ele>1895.9</ele>
        <time>2023-07-02T08:53:06+0200</time>
      </trkpt>
      <trkpt lat="44.95227" lon="6.58836">
        <ele>1896.3</ele>
        <time>2023-07-02T08:53:09+0200</time>
      </trkpt>
      <trkpt lat="44.95224" lon="6.58845">
        <ele>1896.9</ele>
        <time>2023-07-02T08:53:13+0200</time>
      </trkpt>
      <trkpt lat="44.9522" lon="6.5885">
        <ele>1897.2</ele>
        <time>2023-07-02T08:53:16+0200</time>
      </trkpt>
      <trkpt lat="44.95216" lon="6.58856">
        <ele>1897.6</ele>
        <time>2023-07-02T08:53:19+0200</time>
      </trkpt>
      <trkpt lat="44.95213" lon="6.58862">
        <ele>1898.1</ele>
        <time>2023-07-02T08:53:22+0200</time>
      </trkpt>
      <trkpt lat="44.95209" lon="6.58868">
        <ele>1898.6</ele>
        <time>2023-07-02T08:53:25+0200</time>
      </trkpt>
      <trkpt lat="44.95205" lon="6.58873">
        <ele>1899.1</ele>
        <time>2023-07-02T08:53:28+0200</time>
      </trkpt>
      <trkpt lat="44.95201" lon="6.5888">
        <ele>1899.9</ele>
        <time>2023-07-02T08:53:31+0200</time>
      </trkpt>
      <trkpt lat="44.95197" lon="6.58886">
        <ele>1900.6</ele>
        <time>2023-07-02T08:53:34+0200</time>
      </trkpt>
      <trkpt lat="44.95194" lon="6.58891">
        <ele>1901.2</ele>
        <time>2023-07-02T08:53:37+0200</time>
      </trkpt>
      <trkpt lat="44.95192" lon="6.58898">
        <ele>1901.6</ele>
        <time>2023-07-02T08:53:40+0200</time>
      </trkpt>
      <trkpt lat="44.9519" lon="6.58904">
        <ele>1902.2</ele>
        <time>2023-07-02T08:53:43+0200</time>
      </trkpt>
      <trkpt lat="44.95189" lon="6.58911">
        <ele>1902.9</ele>
        <time>2023-07-02T08:53:46+0200</time>
      </trkpt>
      <trkpt lat="44.95188" lon="6.58919">
        <ele>1903.5</ele>
        <time>2023-07-02T08:53:49+0200</time>
      </trkpt>
      <trkpt lat="44.95186" lon="6.58926">
        <ele>1904</ele>
        <time>2023-07-02T08:53:53+0200</time>
      </trkpt>
      <trkpt lat="44.95184" lon="6.58934">
        <ele>1904.8</ele>
        <time>2023-07-02T08:53:57+0200</time>
      </trkpt>
      <trkpt lat="44.95181" lon="6.58941">
        <ele>1905.5</ele>
        <time>2023-07-02T08:54:01+0200</time>
      </trkpt>
      <trkpt lat="44.95179" lon="6.58947">
        <ele>1906.5</ele>
        <time>2023-07-02T08:54:05+0200</time>
      </trkpt>
      <trkpt lat="44.95176" lon="6.58954">
        <ele>1907.8</ele>
        <time>2023-07-02T08:54:09+0200</time>
      </trkpt>
      <trkpt lat="44.95173" lon="6.58959">
        <ele>1908.6</ele>
        <time>2023-07-02T08:54:13+0200</time>
      </trkpt>
      <trkpt lat="44.9517" lon="6.58965">
        <ele>1909.7</ele>
        <time>2023-07-02T08:54:17+0200</time>
      </trkpt>
      <trkpt lat="44.95168" lon="6.58971">
        <ele>1910.9</ele>
        <time>2023-07-02T08:54:21+0200</time>
      </trkpt>
      <trkpt lat="44.95165" lon="6.58977">
        <ele>1911.6</ele>
        <time>2023-07-02T08:54:25+0200</time>
      </trkpt>
      <trkpt lat="44.95163" lon="6.58985">
        <ele>1912.5</ele>
        <time>2023-07-02T08:54:29+0200</time>
      </trkpt>
      <trkpt lat="44.95158" lon="6.58989">
        <ele>1912.9</ele>
        <time>2023-07-02T08:54:33+0200</time>
      </trkpt>
      <trkpt lat="44.95155" lon="6.58994">
        <ele>1913.2</ele>
        <time>2023-07-02T08:54:37+0200</time>
      </trkpt>
      <trkpt lat="44.95151" lon="6.58998">
        <ele>1913.6</ele>
        <time>2023-07-02T08:54:40+0200</time>
      </trkpt>
      <trkpt lat="44.95149" lon="6.59004">
        <ele>1914.3</ele>
        <time>2023-07-02T08:54:43+0200</time>
      </trkpt>
      <trkpt lat="44.95148" lon="6.59011">
        <ele>1914.9</ele>
        <time>2023-07-02T08:54:46+0200</time>
      </trkpt>
      <trkpt lat="44.95148" lon="6.59018">
        <ele>1915.7</ele>
        <time>2023-07-02T08:54:49+0200</time>
      </trkpt>
      <trkpt lat="44.95149" lon="6.59025">
        <ele>1916.7</ele>
        <time>2023-07-02T08:54:53+0200</time>
      </trkpt>
      <trkpt lat="44.95153" lon="6.59028">
        <ele>1917.6</ele>
        <time>2023-07-02T08:54:58+0200</time>
      </trkpt>
      <trkpt lat="44.95159" lon="6.5903">
        <ele>1918.4</ele>
        <time>2023-07-02T08:55:02+0200</time>
      </trkpt>
      <trkpt lat="44.95164" lon="6.5903">
        <ele>1919</ele>
        <time>2023-07-02T08:55:05+0200</time>
      </trkpt>
      <trkpt lat="44.95169" lon="6.59029">
        <ele>1919.4</ele>
        <time>2023-07-02T08:55:08+0200</time>
      </trkpt>
      <trkpt lat="44.95175" lon="6.59029">
        <ele>1919.7</ele>
        <time>2023-07-02T08:55:11+0200</time>
      </trkpt>
      <trkpt lat="44.9518" lon="6.5903">
        <ele>1920.4</ele>
        <time>2023-07-02T08:55:14+0200</time>
      </trkpt>
      <trkpt lat="44.95185" lon="6.59031">
        <ele>1920.9</ele>
        <time>2023-07-02T08:55:17+0200</time>
      </trkpt>
      <trkpt lat="44.9519" lon="6.59033">
        <ele>1921.6</ele>
        <time>2023-07-02T08:55:20+0200</time>
      </trkpt>
      <trkpt lat="44.95195" lon="6.59035">
        <ele>1922.5</ele>
        <time>2023-07-02T08:55:23+0200</time>
      </trkpt>
      <trkpt lat="44.952" lon="6.59036">
        <ele>1922.5</ele>
        <time>2023-07-02T08:55:26+0200</time>
      </trkpt>
      <trkpt lat="44.95204" lon="6.5904">
        <ele>1923.3</ele>
        <time>2023-07-02T08:55:29+0200</time>
      </trkpt>
      <trkpt lat="44.9521" lon="6.59044">
        <ele>1924</ele>
        <time>2023-07-02T08:55:32+0200</time>
      </trkpt>
      <trkpt lat="44.95214" lon="6.59048">
        <ele>1924.7</ele>
        <time>2023-07-02T08:55:35+0200</time>
      </trkpt>
      <trkpt lat="44.95217" lon="6.59054">
        <ele>1925.8</ele>
        <time>2023-07-02T08:55:38+0200</time>
      </trkpt>
      <trkpt lat="44.95223" lon="6.59058">
        <ele>1926.2</ele>
        <time>2023-07-02T08:55:41+0200</time>
      </trkpt>
      <trkpt lat="44.95227" lon="6.59062">
        <ele>1926.4</ele>
        <time>2023-07-02T08:55:44+0200</time>
      </trkpt>
      <trkpt lat="44.95232" lon="6.59068">
        <ele>1926.8</ele>
        <time>2023-07-02T08:55:48+0200</time>
      </trkpt>
      <trkpt lat="44.95236" lon="6.59072">
        <ele>1927.2</ele>
        <time>2023-07-02T08:55:51+0200</time>
      </trkpt>
      <trkpt lat="44.95238" lon="6.59078">
        <ele>1928</ele>
        <time>2023-07-02T08:55:54+0200</time>
      </trkpt>
      <trkpt lat="44.95241" lon="6.59085">
        <ele>1928.9</ele>
        <time>2023-07-02T08:55:57+0200</time>
      </trkpt>
      <trkpt lat="44.95244" lon="6.59093">
        <ele>1929.6</ele>
        <time>2023-07-02T08:56:00+0200</time>
      </trkpt>
      <trkpt lat="44.95245" lon="6.59101">
        <ele>1930.4</ele>
        <time>2023-07-02T08:56:03+0200</time>
      </trkpt>
      <trkpt lat="44.95247" lon="6.59108">
        <ele>1931</ele>
        <time>2023-07-02T08:56:05+0200</time>
      </trkpt>
      <trkpt lat="44.95248" lon="6.59114">
        <ele>1931.6</ele>
        <time>2023-07-02T08:56:08+0200</time>
      </trkpt>
      <trkpt lat="44.9525" lon="6.59123">
        <ele>1932.3</ele>
        <time>2023-07-02T08:56:12+0200</time>
      </trkpt>
      <trkpt lat="44.95251" lon="6.5913">
        <ele>1933</ele>
        <time>2023-07-02T08:56:15+0200</time>
      </trkpt>
      <trkpt lat="44.95252" lon="6.59138">
        <ele>1933.8</ele>
        <time>2023-07-02T08:56:18+0200</time>
      </trkpt>
      <trkpt lat="44.95254" lon="6.59146">
        <ele>1934.7</ele>
        <time>2023-07-02T08:56:21+0200</time>
      </trkpt>
      <trkpt lat="44.95255" lon="6.59154">
        <ele>1935.8</ele>
        <time>2023-07-02T08:56:24+0200</time>
      </trkpt>
      <trkpt lat="44.95256" lon="6.59162">
        <ele>1936.7</ele>
        <time>2023-07-02T08:56:27+0200</time>
      </trkpt>
      <trkpt lat="44.95256" lon="6.59169">
        <ele>1937.6</ele>
        <time>2023-07-02T08:56:30+0200</time>
      </trkpt>
      <trkpt lat="44.95258" lon="6.59175">
        <ele>1938.2</ele>
        <time>2023-07-02T08:56:33+0200</time>
      </trkpt>
      <trkpt lat="44.9526" lon="6.59183">
        <ele>1938.8</ele>
        <time>2023-07-02T08:56:36+0200</time>
      </trkpt>
      <trkpt lat="44.95263" lon="6.5919">
        <ele>1939.5</ele>
        <time>2023-07-02T08:56:39+0200</time>
      </trkpt>
      <trkpt lat="44.95266" lon="6.59195">
        <ele>1939.9</ele>
        <time>2023-07-02T08:56:42+0200</time>
      </trkpt>
      <trkpt lat="44.95269" lon="6.592">
        <ele>1940.3</ele>
        <time>2023-07-02T08:56:44+0200</time>
      </trkpt>
      <trkpt lat="44.95273" lon="6.59203">
        <ele>1940.5</ele>
        <time>2023-07-02T08:56:46+0200</time>
      </trkpt>
      <trkpt lat="44.95279" lon="6.59205">
        <ele>1940.7</ele>
        <time>2023-07-02T08:56:49+0200</time>
      </trkpt>
      <trkpt lat="44.95285" lon="6.59208">
        <ele>1942</ele>
        <time>2023-07-02T08:56:52+0200</time>
      </trkpt>
      <trkpt lat="44.95291" lon="6.59208">
        <ele>1943.1</ele>
        <time>2023-07-02T08:56:55+0200</time>
      </trkpt>
      <trkpt lat="44.95297" lon="6.59206">
        <ele>1943.7</ele>
        <time>2023-07-02T08:56:58+0200</time>
      </trkpt>
      <trkpt lat="44.95303" lon="6.59206">
        <ele>1944.5</ele>
        <time>2023-07-02T08:57:01+0200</time>
      </trkpt>
      <trkpt lat="44.95308" lon="6.59203">
        <ele>1945.2</ele>
        <time>2023-07-02T08:57:04+0200</time>
      </trkpt>
      <trkpt lat="44.95313" lon="6.59199">
        <ele>1945.6</ele>
        <time>2023-07-02T08:57:07+0200</time>
      </trkpt>
      <trkpt lat="44.95317" lon="6.59195">
        <ele>1946</ele>
        <time>2023-07-02T08:57:10+0200</time>
      </trkpt>
      <trkpt lat="44.95323" lon="6.59191">
        <ele>1946.6</ele>
        <time>2023-07-02T08:57:13+0200</time>
      </trkpt>
      <trkpt lat="44.95328" lon="6.59188">
        <ele>1947.5</ele>
        <time>2023-07-02T08:57:16+0200</time>
      </trkpt>
      <trkpt lat="44.95333" lon="6.59186">
        <ele>1948.3</ele>
        <time>2023-07-02T08:57:19+0200</time>
      </trkpt>
      <trkpt lat="44.95337" lon="6.5918">
        <ele>1948.5</ele>
        <time>2023-07-02T08:57:22+0200</time>
      </trkpt>
      <trkpt lat="44.95343" lon="6.59177">
        <ele>1949.2</ele>
        <time>2023-07-02T08:57:25+0200</time>
      </trkpt>
      <trkpt lat="44.95348" lon="6.59174">
        <ele>1950.1</ele>
        <time>2023-07-02T08:57:28+0200</time>
      </trkpt>
      <trkpt lat="44.95353" lon="6.59172">
        <ele>1950.7</ele>
        <time>2023-07-02T08:57:31+0200</time>
      </trkpt>
      <trkpt lat="44.95357" lon="6.59168">
        <ele>1951.2</ele>
        <time>2023-07-02T08:57:34+0200</time>
      </trkpt>
      <trkpt lat="44.95362" lon="6.59164">
        <ele>1951.8</ele>
        <time>2023-07-02T08:57:37+0200</time>
      </trkpt>
      <trkpt lat="44.95368" lon="6.5916">
        <ele>1952.5</ele>
        <time>2023-07-02T08:57:40+0200</time>
      </trkpt>
      <trkpt lat="44.95373" lon="6.59155">
        <ele>1953.3</ele>
        <time>2023-07-02T08:57:43+0200</time>
      </trkpt>
      <trkpt lat="44.95378" lon="6.59151">
        <ele>1953.8</ele>
        <time>2023-07-02T08:57:46+0200</time>
      </trkpt>
      <trkpt lat="44.95383" lon="6.59149">
        <ele>1954.6</ele>
        <time>2023-07-02T08:57:49+0200</time>
      </trkpt>
      <trkpt lat="44.95389" lon="6.59149">
        <ele>1956.2</ele>
        <time>2023-07-02T08:57:51+0200</time>
      </trkpt>
      <trkpt lat="44.95395" lon="6.59144">
        <ele>1956.2</ele>
        <time>2023-07-02T08:57:56+0200</time>
      </trkpt>
      <trkpt lat="44.95399" lon="6.59143">
        <ele>1956.7</ele>
        <time>2023-07-02T08:57:58+0200</time>
      </trkpt>
      <trkpt lat="44.95404" lon="6.59141">
        <ele>1957.3</ele>
        <time>2023-07-02T08:58:01+0200</time>
      </trkpt>
      <trkpt lat="44.9541" lon="6.59141">
        <ele>1958.3</ele>
        <time>2023-07-02T08:58:05+0200</time>
      </trkpt>
      <trkpt lat="44.95416" lon="6.5914">
        <ele>1959.1</ele>
        <time>2023-07-02T08:58:08+0200</time>
      </trkpt>
      <trkpt lat="44.95421" lon="6.59138">
        <ele>1959.9</ele>
        <time>2023-07-02T08:58:11+0200</time>
      </trkpt>
      <trkpt lat="44.95426" lon="6.59136">
        <ele>1960.6</ele>
        <time>2023-07-02T08:58:14+0200</time>
      </trkpt>
      <trkpt lat="44.95432" lon="6.59131">
        <ele>1961.3</ele>
        <time>2023-07-02T08:58:18+0200</time>
      </trkpt>
      <trkpt lat="44.95436" lon="6.59126">
        <ele>1961.7</ele>
        <time>2023-07-02T08:58:21+0200</time>
      </trkpt>
      <trkpt lat="44.9544" lon="6.59121">
        <ele>1962.2</ele>
        <time>2023-07-02T08:58:24+0200</time>
      </trkpt>
      <trkpt lat="44.95445" lon="6.59116">
        <ele>1962.9</ele>
        <time>2023-07-02T08:58:27+0200</time>
      </trkpt>
      <trkpt lat="44.95449" lon="6.59112">
        <ele>1963.1</ele>
        <time>2023-07-02T08:58:30+0200</time>
      </trkpt>
      <trkpt lat="44.95454" lon="6.59111">
        <ele>1963.7</ele>
        <time>2023-07-02T08:58:33+0200</time>
      </trkpt>
      <trkpt lat="44.9546" lon="6.59109">
        <ele>1964.5</ele>
        <time>2023-07-02T08:58:36+0200</time>
      </trkpt>
      <trkpt lat="44.95465" lon="6.59109">
        <ele>1965.3</ele>
        <time>2023-07-02T08:58:39+0200</time>
      </trkpt>
      <trkpt lat="44.95471" lon="6.59108">
        <ele>1966.2</ele>
        <time>2023-07-02T08:58:43+0200</time>
      </trkpt>
      <trkpt lat="44.95476" lon="6.5911">
        <ele>1967.3</ele>
        <time>2023-07-02T08:58:46+0200</time>
      </trkpt>
      <trkpt lat="44.95484" lon="6.59111">
        <ele>1968.6</ele>
        <time>2023-07-02T08:58:50+0200</time>
      </trkpt>
      <trkpt lat="44.95488" lon="6.59112">
        <ele>1969.6</ele>
        <time>2023-07-02T08:58:53+0200</time>
      </trkpt>
      <trkpt lat="44.95494" lon="6.59112">
        <ele>1970.3</ele>
        <time>2023-07-02T08:58:56+0200</time>
      </trkpt>
      <trkpt lat="44.95499" lon="6.59112">
        <ele>1971</ele>
        <time>2023-07-02T08:58:59+0200</time>
      </trkpt>
      <trkpt lat="44.95506" lon="6.5911">
        <ele>1972.1</ele>
        <time>2023-07-02T08:59:03+0200</time>
      </trkpt>
      <trkpt lat="44.95511" lon="6.59108">
        <ele>1972.7</ele>
        <time>2023-07-02T08:59:06+0200</time>
      </trkpt>
      <trkpt lat="44.95517" lon="6.59105">
        <ele>1973.5</ele>
        <time>2023-07-02T08:59:09+0200</time>
      </trkpt>
      <trkpt lat="44.95522" lon="6.59103">
        <ele>1974.3</ele>
        <time>2023-07-02T08:59:12+0200</time>
      </trkpt>
      <trkpt lat="44.95528" lon="6.591">
        <ele>1974.9</ele>
        <time>2023-07-02T08:59:15+0200</time>
      </trkpt>
      <trkpt lat="44.95532" lon="6.59097">
        <ele>1975.3</ele>
        <time>2023-07-02T08:59:18+0200</time>
      </trkpt>
      <trkpt lat="44.95538" lon="6.59094">
        <ele>1975.9</ele>
        <time>2023-07-02T08:59:21+0200</time>
      </trkpt>
      <trkpt lat="44.95543" lon="6.5909">
        <ele>1976.2</ele>
        <time>2023-07-02T08:59:24+0200</time>
      </trkpt>
      <trkpt lat="44.95548" lon="6.59086">
        <ele>1976.7</ele>
        <time>2023-07-02T08:59:27+0200</time>
      </trkpt>
      <trkpt lat="44.95554" lon="6.59083">
        <ele>1977.5</ele>
        <time>2023-07-02T08:59:30+0200</time>
      </trkpt>
      <trkpt lat="44.95558" lon="6.5908">
        <ele>1978.4</ele>
        <time>2023-07-02T08:59:33+0200</time>
      </trkpt>
      <trkpt lat="44.95562" lon="6.59077">
        <ele>1979.1</ele>
        <time>2023-07-02T08:59:35+0200</time>
      </trkpt>
      <trkpt lat="44.95567" lon="6.59071">
        <ele>1980.1</ele>
        <time>2023-07-02T08:59:38+0200</time>
      </trkpt>
      <trkpt lat="44.95573" lon="6.59066">
        <ele>1981</ele>
        <time>2023-07-02T08:59:42+0200</time>
      </trkpt>
      <trkpt lat="44.95578" lon="6.5906">
        <ele>1981.9</ele>
        <time>2023-07-02T08:59:45+0200</time>
      </trkpt>
      <trkpt lat="44.95582" lon="6.59055">
        <ele>1982.4</ele>
        <time>2023-07-02T08:59:48+0200</time>
      </trkpt>
      <trkpt lat="44.95586" lon="6.59049">
        <ele>1983.2</ele>
        <time>2023-07-02T08:59:51+0200</time>
      </trkpt>
      <trkpt lat="44.9559" lon="6.59042">
        <ele>1983.8</ele>
        <time>2023-07-02T08:59:55+0200</time>
      </trkpt>
      <trkpt lat="44.95595" lon="6.59038">
        <ele>1985</ele>
        <time>2023-07-02T08:59:58+0200</time>
      </trkpt>
      <trkpt lat="44.956" lon="6.59034">
        <ele>1985.8</ele>
        <time>2023-07-02T09:00:01+0200</time>
      </trkpt>
      <trkpt lat="44.95604" lon="6.59029">
        <ele>1986.1</ele>
        <time>2023-07-02T09:00:03+0200</time>
      </trkpt>
      <trkpt lat="44.95609" lon="6.59024">
        <ele>1987.1</ele>
        <time>2023-07-02T09:00:06+0200</time>
      </trkpt>
      <trkpt lat="44.95613" lon="6.59018">
        <ele>1987.8</ele>
        <time>2023-07-02T09:00:09+0200</time>
      </trkpt>
      <trkpt lat="44.95616" lon="6.59012">
        <ele>1989</ele>
        <time>2023-07-02T09:00:12+0200</time>
      </trkpt>
      <trkpt lat="44.9562" lon="6.59007">
        <ele>1989.9</ele>
        <time>2023-07-02T09:00:15+0200</time>
      </trkpt>
      <trkpt lat="44.95623" lon="6.58998">
        <ele>1990.5</ele>
        <time>2023-07-02T09:00:18+0200</time>
      </trkpt>
      <trkpt lat="44.95626" lon="6.58992">
        <ele>1991.7</ele>
        <time>2023-07-02T09:00:22+0200</time>
      </trkpt>
      <trkpt lat="44.95628" lon="6.58986">
        <ele>1992.6</ele>
        <time>2023-07-02T09:00:25+0200</time>
      </trkpt>
      <trkpt lat="44.95629" lon="6.58977">
        <ele>1993.2</ele>
        <time>2023-07-02T09:00:28+0200</time>
      </trkpt>
      <trkpt lat="44.9563" lon="6.58969">
        <ele>1993.6</ele>
        <time>2023-07-02T09:00:31+0200</time>
      </trkpt>
      <trkpt lat="44.95632" lon="6.5896">
        <ele>1994.2</ele>
        <time>2023-07-02T09:00:34+0200</time>
      </trkpt>
      <trkpt lat="44.95634" lon="6.58952">
        <ele>1994.9</ele>
        <time>2023-07-02T09:00:37+0200</time>
      </trkpt>
      <trkpt lat="44.95634" lon="6.58945">
        <ele>1995.2</ele>
        <time>2023-07-02T09:00:40+0200</time>
      </trkpt>
      <trkpt lat="44.95636" lon="6.58938">
        <ele>1995.8</ele>
        <time>2023-07-02T09:00:43+0200</time>
      </trkpt>
      <trkpt lat="44.95636" lon="6.58932">
        <ele>1995.9</ele>
        <time>2023-07-02T09:00:45+0200</time>
      </trkpt>
      <trkpt lat="44.95635" lon="6.58925">
        <ele>1995.6</ele>
        <time>2023-07-02T09:00:48+0200</time>
      </trkpt>
      <trkpt lat="44.95637" lon="6.58917">
        <ele>1996.3</ele>
        <time>2023-07-02T09:00:51+0200</time>
      </trkpt>
      <trkpt lat="44.95638" lon="6.58909">
        <ele>1996.6</ele>
        <time>2023-07-02T09:00:54+0200</time>
      </trkpt>
      <trkpt lat="44.9564" lon="6.58903">
        <ele>1997.3</ele>
        <time>2023-07-02T09:00:57+0200</time>
      </trkpt>
      <trkpt lat="44.95642" lon="6.58896">
        <ele>1998.4</ele>
        <time>2023-07-02T09:01:00+0200</time>
      </trkpt>
      <trkpt lat="44.95644" lon="6.5889">
        <ele>1999.2</ele>
        <time>2023-07-02T09:01:02+0200</time>
      </trkpt>
      <trkpt lat="44.95647" lon="6.58883">
        <ele>1999.6</ele>
        <time>2023-07-02T09:01:05+0200</time>
      </trkpt>
      <trkpt lat="44.95651" lon="6.58877">
        <ele>2001</ele>
        <time>2023-07-02T09:01:08+0200</time>
      </trkpt>
      <trkpt lat="44.95654" lon="6.5887">
        <ele>2001.7</ele>
        <time>2023-07-02T09:01:11+0200</time>
      </trkpt>
      <trkpt lat="44.95658" lon="6.58864">
        <ele>2002.7</ele>
        <time>2023-07-02T09:01:14+0200</time>
      </trkpt>
      <trkpt lat="44.95659" lon="6.58856">
        <ele>2002.6</ele>
        <time>2023-07-02T09:01:17+0200</time>
      </trkpt>
      <trkpt lat="44.95662" lon="6.58848">
        <ele>2003.8</ele>
        <time>2023-07-02T09:01:20+0200</time>
      </trkpt>
      <trkpt lat="44.95666" lon="6.58841">
        <ele>2005</ele>
        <time>2023-07-02T09:01:24+0200</time>
      </trkpt>
      <trkpt lat="44.95669" lon="6.58834">
        <ele>2005.6</ele>
        <time>2023-07-02T09:01:27+0200</time>
      </trkpt>
      <trkpt lat="44.95672" lon="6.58827">
        <ele>2006</ele>
        <time>2023-07-02T09:01:30+0200</time>
      </trkpt>
      <trkpt lat="44.95674" lon="6.58821">
        <ele>2006</ele>
        <time>2023-07-02T09:01:33+0200</time>
      </trkpt>
      <trkpt lat="44.95678" lon="6.58816">
        <ele>2006.4</ele>
        <time>2023-07-02T09:01:36+0200</time>
      </trkpt>
      <trkpt lat="44.95681" lon="6.58811">
        <ele>2007</ele>
        <time>2023-07-02T09:01:39+0200</time>
      </trkpt>
      <trkpt lat="44.95686" lon="6.58806">
        <ele>2007.6</ele>
        <time>2023-07-02T09:01:42+0200</time>
      </trkpt>
      <trkpt lat="44.9569" lon="6.588">
        <ele>2008.1</ele>
        <time>2023-07-02T09:01:45+0200</time>
      </trkpt>
      <trkpt lat="44.95695" lon="6.58796">
        <ele>2009.1</ele>
        <time>2023-07-02T09:01:48+0200</time>
      </trkpt>
      <trkpt lat="44.957" lon="6.58792">
        <ele>2010</ele>
        <time>2023-07-02T09:01:51+0200</time>
      </trkpt>
      <trkpt lat="44.95705" lon="6.58788">
        <ele>2010.6</ele>
        <time>2023-07-02T09:01:54+0200</time>
      </trkpt>
      <trkpt lat="44.95711" lon="6.58784">
        <ele>2011.7</ele>
        <time>2023-07-02T09:01:58+0200</time>
      </trkpt>
      <trkpt lat="44.95715" lon="6.58779">
        <ele>2012.3</ele>
        <time>2023-07-02T09:02:01+0200</time>
      </trkpt>
      <trkpt lat="44.9572" lon="6.58776">
        <ele>2013.2</ele>
        <time>2023-07-02T09:02:04+0200</time>
      </trkpt>
      <trkpt lat="44.95724" lon="6.5877">
        <ele>2013.8</ele>
        <time>2023-07-02T09:02:07+0200</time>
      </trkpt>
      <trkpt lat="44.95728" lon="6.58766">
        <ele>2014.6</ele>
        <time>2023-07-02T09:02:10+0200</time>
      </trkpt>
      <trkpt lat="44.95732" lon="6.5876">
        <ele>2015.1</ele>
        <time>2023-07-02T09:02:13+0200</time>
      </trkpt>
      <trkpt lat="44.95735" lon="6.58753">
        <ele>2015.4</ele>
        <time>2023-07-02T09:02:17+0200</time>
      </trkpt>
      <trkpt lat="44.95739" lon="6.5875">
        <ele>2016.3</ele>
        <time>2023-07-02T09:02:19+0200</time>
      </trkpt>
      <trkpt lat="44.95745" lon="6.58747">
        <ele>2017.1</ele>
        <time>2023-07-02T09:02:23+0200</time>
      </trkpt>
      <trkpt lat="44.95749" lon="6.58744">
        <ele>2018</ele>
        <time>2023-07-02T09:02:26+0200</time>
      </trkpt>
      <trkpt lat="44.95754" lon="6.58745">
        <ele>2018.8</ele>
        <time>2023-07-02T09:02:29+0200</time>
      </trkpt>
      <trkpt lat="44.9576" lon="6.58744">
        <ele>2019.3</ele>
        <time>2023-07-02T09:02:33+0200</time>
      </trkpt>
      <trkpt lat="44.95765" lon="6.58745">
        <ele>2020</ele>
        <time>2023-07-02T09:02:35+0200</time>
      </trkpt>
      <trkpt lat="44.95771" lon="6.58746">
        <ele>2020.7</ele>
        <time>2023-07-02T09:02:39+0200</time>
      </trkpt>
      <trkpt lat="44.95776" lon="6.58747">
        <ele>2021.5</ele>
        <time>2023-07-02T09:02:43+0200</time>
      </trkpt>
      <trkpt lat="44.95781" lon="6.58749">
        <ele>2022.2</ele>
        <time>2023-07-02T09:02:46+0200</time>
      </trkpt>
      <trkpt lat="44.95787" lon="6.5875">
        <ele>2023</ele>
        <time>2023-07-02T09:02:50+0200</time>
      </trkpt>
      <trkpt lat="44.95792" lon="6.5875">
        <ele>2023.5</ele>
        <time>2023-07-02T09:02:53+0200</time>
      </trkpt>
      <trkpt lat="44.95797" lon="6.5875">
        <ele>2024.1</ele>
        <time>2023-07-02T09:02:56+0200</time>
      </trkpt>
      <trkpt lat="44.95802" lon="6.58751">
        <ele>2024.7</ele>
        <time>2023-07-02T09:03:00+0200</time>
      </trkpt>
      <trkpt lat="44.95807" lon="6.58751">
        <ele>2025.4</ele>
        <time>2023-07-02T09:03:03+0200</time>
      </trkpt>
      <trkpt lat="44.95812" lon="6.5875">
        <ele>2026.2</ele>
        <time>2023-07-02T09:03:06+0200</time>
      </trkpt>
      <trkpt lat="44.95817" lon="6.58749">
        <ele>2027</ele>
        <time>2023-07-02T09:03:09+0200</time>
      </trkpt>
      <trkpt lat="44.95822" lon="6.58747">
        <ele>2027.6</ele>
        <time>2023-07-02T09:03:13+0200</time>
      </trkpt>
      <trkpt lat="44.95827" lon="6.58745">
        <ele>2028.1</ele>
        <time>2023-07-02T09:03:16+0200</time>
      </trkpt>
      <trkpt lat="44.95832" lon="6.58744">
        <ele>2029</ele>
        <time>2023-07-02T09:03:19+0200</time>
      </trkpt>
      <trkpt lat="44.95837" lon="6.58746">
        <ele>2029.5</ele>
        <time>2023-07-02T09:03:22+0200</time>
      </trkpt>
      <trkpt lat="44.95842" lon="6.58747">
        <ele>2029.9</ele>
        <time>2023-07-02T09:03:25+0200</time>
      </trkpt>
      <trkpt lat="44.95847" lon="6.5875">
        <ele>2030.5</ele>
        <time>2023-07-02T09:03:28+0200</time>
      </trkpt>
      <trkpt lat="44.95851" lon="6.58755">
        <ele>2031.2</ele>
        <time>2023-07-02T09:03:31+0200</time>
      </trkpt>
      <trkpt lat="44.95856" lon="6.58759">
        <ele>2031.8</ele>
        <time>2023-07-02T09:03:34+0200</time>
      </trkpt>
      <trkpt lat="44.95858" lon="6.58766">
        <ele>2032.6</ele>
        <time>2023-07-02T09:03:37+0200</time>
      </trkpt>
      <trkpt lat="44.95861" lon="6.58772">
        <ele>2033.4</ele>
        <time>2023-07-02T09:03:40+0200</time>
      </trkpt>
      <trkpt lat="44.95864" lon="6.58778">
        <ele>2034</ele>
        <time>2023-07-02T09:03:43+0200</time>
      </trkpt>
      <trkpt lat="44.95867" lon="6.58783">
        <ele>2034.5</ele>
        <time>2023-07-02T09:03:45+0200</time>
      </trkpt>
      <trkpt lat="44.95871" lon="6.58788">
        <ele>2035.1</ele>
        <time>2023-07-02T09:03:48+0200</time>
      </trkpt>
      <trkpt lat="44.95874" lon="6.58794">
        <ele>2035.8</ele>
        <time>2023-07-02T09:03:51+0200</time>
      </trkpt>
      <trkpt lat="44.95877" lon="6.588">
        <ele>2036.4</ele>
        <time>2023-07-02T09:03:54+0200</time>
      </trkpt>
      <trkpt lat="44.9588" lon="6.58808">
        <ele>2037.2</ele>
        <time>2023-07-02T09:03:57+0200</time>
      </trkpt>
      <trkpt lat="44.95884" lon="6.58813">
        <ele>2037.8</ele>
        <time>2023-07-02T09:04:00+0200</time>
      </trkpt>
      <trkpt lat="44.95887" lon="6.58819">
        <ele>2038.5</ele>
        <time>2023-07-02T09:04:03+0200</time>
      </trkpt>
      <trkpt lat="44.95892" lon="6.58825">
        <ele>2039.1</ele>
        <time>2023-07-02T09:04:06+0200</time>
      </trkpt>
      <trkpt lat="44.95896" lon="6.58831">
        <ele>2039.7</ele>
        <time>2023-07-02T09:04:09+0200</time>
      </trkpt>
      <trkpt lat="44.959" lon="6.58835">
        <ele>2040.2</ele>
        <time>2023-07-02T09:04:11+0200</time>
      </trkpt>
      <trkpt lat="44.95904" lon="6.58841">
        <ele>2041</ele>
        <time>2023-07-02T09:04:14+0200</time>
      </trkpt>
      <trkpt lat="44.95911" lon="6.58846">
        <ele>2041.7</ele>
        <time>2023-07-02T09:04:17+0200</time>
      </trkpt>
      <trkpt lat="44.95916" lon="6.58849">
        <ele>2042.2</ele>
        <time>2023-07-02T09:04:20+0200</time>
      </trkpt>
      <trkpt lat="44.95921" lon="6.5885">
        <ele>2042.8</ele>
        <time>2023-07-02T09:04:23+0200</time>
      </trkpt>
      <trkpt lat="44.95927" lon="6.58852">
        <ele>2043.4</ele>
        <time>2023-07-02T09:04:26+0200</time>
      </trkpt>
      <trkpt lat="44.95933" lon="6.58854">
        <ele>2044.1</ele>
        <time>2023-07-02T09:04:29+0200</time>
      </trkpt>
      <trkpt lat="44.95938" lon="6.58855">
        <ele>2044.7</ele>
        <time>2023-07-02T09:04:32+0200</time>
      </trkpt>
      <trkpt lat="44.95943" lon="6.58857">
        <ele>2045.4</ele>
        <time>2023-07-02T09:04:35+0200</time>
      </trkpt>
      <trkpt lat="44.95949" lon="6.58859">
        <ele>2046</ele>
        <time>2023-07-02T09:04:38+0200</time>
      </trkpt>
      <trkpt lat="44.95955" lon="6.5886">
        <ele>2046.6</ele>
        <time>2023-07-02T09:04:40+0200</time>
      </trkpt>
      <trkpt lat="44.95959" lon="6.58863">
        <ele>2047.3</ele>
        <time>2023-07-02T09:04:43+0200</time>
      </trkpt>
      <trkpt lat="44.95965" lon="6.58864">
        <ele>2048</ele>
        <time>2023-07-02T09:04:46+0200</time>
      </trkpt>
      <trkpt lat="44.95971" lon="6.58866">
        <ele>2048.6</ele>
        <time>2023-07-02T09:04:49+0200</time>
      </trkpt>
      <trkpt lat="44.95978" lon="6.58866">
        <ele>2049.9</ele>
        <time>2023-07-02T09:04:52+0200</time>
      </trkpt>
      <trkpt lat="44.95985" lon="6.58865">
        <ele>2051.3</ele>
        <time>2023-07-02T09:04:56+0200</time>
      </trkpt>
      <trkpt lat="44.9599" lon="6.58865">
        <ele>2052.3</ele>
        <time>2023-07-02T09:04:59+0200</time>
      </trkpt>
      <trkpt lat="44.95994" lon="6.58861">
        <ele>2052.6</ele>
        <time>2023-07-02T09:05:02+0200</time>
      </trkpt>
      <trkpt lat="44.95999" lon="6.58855">
        <ele>2052.8</ele>
        <time>2023-07-02T09:05:05+0200</time>
      </trkpt>
      <trkpt lat="44.96003" lon="6.58849">
        <ele>2053.4</ele>
        <time>2023-07-02T09:05:08+0200</time>
      </trkpt>
      <trkpt lat="44.96006" lon="6.58841">
        <ele>2053.1</ele>
        <time>2023-07-02T09:05:11+0200</time>
      </trkpt>
      <trkpt lat="44.96009" lon="6.58834">
        <ele>2053.3</ele>
        <time>2023-07-02T09:05:14+0200</time>
      </trkpt>
      <trkpt lat="44.96012" lon="6.58828">
        <ele>2053.7</ele>
        <time>2023-07-02T09:05:17+0200</time>
      </trkpt>
      <trkpt lat="44.96014" lon="6.5882">
        <ele>2053.2</ele>
        <time>2023-07-02T09:05:19+0200</time>
      </trkpt>
      <trkpt lat="44.96017" lon="6.58816">
        <ele>2054.2</ele>
        <time>2023-07-02T09:05:21+0200</time>
      </trkpt>
      <trkpt lat="44.96022" lon="6.58809">
        <ele>2055</ele>
        <time>2023-07-02T09:05:24+0200</time>
      </trkpt>
      <trkpt lat="44.96026" lon="6.58802">
        <ele>2056.1</ele>
        <time>2023-07-02T09:05:27+0200</time>
      </trkpt>
      <trkpt lat="44.9603" lon="6.58797">
        <ele>2056.9</ele>
        <time>2023-07-02T09:05:29+0200</time>
      </trkpt>
      <trkpt lat="44.96032" lon="6.58791">
        <ele>2057.1</ele>
        <time>2023-07-02T09:05:31+0200</time>
      </trkpt>
      <trkpt lat="44.96035" lon="6.58784">
        <ele>2057.7</ele>
        <time>2023-07-02T09:05:34+0200</time>
      </trkpt>
      <trkpt lat="44.96038" lon="6.58778">
        <ele>2058.3</ele>
        <time>2023-07-02T09:05:37+0200</time>
      </trkpt>
      <trkpt lat="44.9604" lon="6.58771">
        <ele>2059.1</ele>
        <time>2023-07-02T09:05:39+0200</time>
      </trkpt>
      <trkpt lat="44.96041" lon="6.58762">
        <ele>2060.1</ele>
        <time>2023-07-02T09:05:42+0200</time>
      </trkpt>
      <trkpt lat="44.96043" lon="6.58753">
        <ele>2061.2</ele>
        <time>2023-07-02T09:05:45+0200</time>
      </trkpt>
      <trkpt lat="44.96043" lon="6.58746">
        <ele>2062</ele>
        <time>2023-07-02T09:05:48+0200</time>
      </trkpt>
      <trkpt lat="44.96044" lon="6.58738">
        <ele>2063.2</ele>
        <time>2023-07-02T09:05:51+0200</time>
      </trkpt>
      <trkpt lat="44.96044" lon="6.58732">
        <ele>2063.6</ele>
        <time>2023-07-02T09:05:53+0200</time>
      </trkpt>
      <trkpt lat="44.96044" lon="6.58723">
        <ele>2064.2</ele>
        <time>2023-07-02T09:05:56+0200</time>
      </trkpt>
      <trkpt lat="44.96042" lon="6.58714">
        <ele>2064.5</ele>
        <time>2023-07-02T09:05:59+0200</time>
      </trkpt>
      <trkpt lat="44.9604" lon="6.58708">
        <ele>2064.7</ele>
        <time>2023-07-02T09:06:01+0200</time>
      </trkpt>
      <trkpt lat="44.96038" lon="6.58701">
        <ele>2065.1</ele>
        <time>2023-07-02T09:06:03+0200</time>
      </trkpt>
      <trkpt lat="44.96036" lon="6.58695">
        <ele>2065.2</ele>
        <time>2023-07-02T09:06:06+0200</time>
      </trkpt>
      <trkpt lat="44.96036" lon="6.58688">
        <ele>2065.2</ele>
        <time>2023-07-02T09:06:08+0200</time>
      </trkpt>
      <trkpt lat="44.96039" lon="6.58681">
        <ele>2065.7</ele>
        <time>2023-07-02T09:06:11+0200</time>
      </trkpt>
      <trkpt lat="44.96044" lon="6.58677">
        <ele>2066.8</ele>
        <time>2023-07-02T09:06:14+0200</time>
      </trkpt>
      <trkpt lat="44.96049" lon="6.58674">
        <ele>2068</ele>
        <time>2023-07-02T09:06:17+0200</time>
      </trkpt>
      <trkpt lat="44.96054" lon="6.58669">
        <ele>2068.8</ele>
        <time>2023-07-02T09:06:20+0200</time>
      </trkpt>
      <trkpt lat="44.96058" lon="6.58665">
        <ele>2070</ele>
        <time>2023-07-02T09:06:23+0200</time>
      </trkpt>
      <trkpt lat="44.96061" lon="6.58658">
        <ele>2071.6</ele>
        <time>2023-07-02T09:06:26+0200</time>
      </trkpt>
      <trkpt lat="44.96063" lon="6.5865">
        <ele>2072.9</ele>
        <time>2023-07-02T09:06:29+0200</time>
      </trkpt>
      <trkpt lat="44.96061" lon="6.58643">
        <ele>2073</ele>
        <time>2023-07-02T09:06:32+0200</time>
      </trkpt>
      <trkpt lat="44.96058" lon="6.58634">
        <ele>2072.8</ele>
        <time>2023-07-02T09:06:35+0200</time>
      </trkpt>
      <trkpt lat="44.96057" lon="6.58625">
        <ele>2072.7</ele>
        <time>2023-07-02T09:06:38+0200</time>
      </trkpt>
      <trkpt lat="44.96058" lon="6.58616">
        <ele>2073.1</ele>
        <time>2023-07-02T09:06:41+0200</time>
      </trkpt>
      <trkpt lat="44.9606" lon="6.58608">
        <ele>2073</ele>
        <time>2023-07-02T09:06:44+0200</time>
      </trkpt>
      <trkpt lat="44.96064" lon="6.58603">
        <ele>2072.8</ele>
        <time>2023-07-02T09:06:47+0200</time>
      </trkpt>
      <trkpt lat="44.96068" lon="6.586">
        <ele>2072.7</ele>
        <time>2023-07-02T09:06:49+0200</time>
      </trkpt>
      <trkpt lat="44.96074" lon="6.586">
        <ele>2073.4</ele>
        <time>2023-07-02T09:06:52+0200</time>
      </trkpt>
      <trkpt lat="44.96079" lon="6.58602">
        <ele>2074.2</ele>
        <time>2023-07-02T09:06:55+0200</time>
      </trkpt>
      <trkpt lat="44.96084" lon="6.58605">
        <ele>2075.1</ele>
        <time>2023-07-02T09:06:58+0200</time>
      </trkpt>
      <trkpt lat="44.96088" lon="6.58609">
        <ele>2076.2</ele>
        <time>2023-07-02T09:07:01+0200</time>
      </trkpt>
      <trkpt lat="44.96092" lon="6.58614">
        <ele>2077.2</ele>
        <time>2023-07-02T09:07:04+0200</time>
      </trkpt>
      <trkpt lat="44.96095" lon="6.5862">
        <ele>2078.2</ele>
        <time>2023-07-02T09:07:08+0200</time>
      </trkpt>
      <trkpt lat="44.96097" lon="6.58627">
        <ele>2079.2</ele>
        <time>2023-07-02T09:07:11+0200</time>
      </trkpt>
      <trkpt lat="44.961" lon="6.58634">
        <ele>2080.2</ele>
        <time>2023-07-02T09:07:14+0200</time>
      </trkpt>
      <trkpt lat="44.961" lon="6.5864">
        <ele>2080.9</ele>
        <time>2023-07-02T09:07:17+0200</time>
      </trkpt>
      <trkpt lat="44.96098" lon="6.58648">
        <ele>2081.3</ele>
        <time>2023-07-02T09:07:21+0200</time>
      </trkpt>
      <trkpt lat="44.96098" lon="6.58657">
        <ele>2081.9</ele>
        <time>2023-07-02T09:07:24+0200</time>
      </trkpt>
      <trkpt lat="44.96096" lon="6.58667">
        <ele>2082.2</ele>
        <time>2023-07-02T09:07:27+0200</time>
      </trkpt>
      <trkpt lat="44.96094" lon="6.58674">
        <ele>2082.4</ele>
        <time>2023-07-02T09:07:30+0200</time>
      </trkpt>
      <trkpt lat="44.96093" lon="6.58683">
        <ele>2082.7</ele>
        <time>2023-07-02T09:07:33+0200</time>
      </trkpt>
      <trkpt lat="44.96093" lon="6.5869">
        <ele>2083.3</ele>
        <time>2023-07-02T09:07:36+0200</time>
      </trkpt>
      <trkpt lat="44.96094" lon="6.58697">
        <ele>2084</ele>
        <time>2023-07-02T09:07:38+0200</time>
      </trkpt>
      <trkpt lat="44.96094" lon="6.58705">
        <ele>2084.1</ele>
        <time>2023-07-02T09:07:41+0200</time>
      </trkpt>
      <trkpt lat="44.96097" lon="6.5871">
        <ele>2085.1</ele>
        <time>2023-07-02T09:07:44+0200</time>
      </trkpt>
      <trkpt lat="44.961" lon="6.58717">
        <ele>2086.2</ele>
        <time>2023-07-02T09:07:47+0200</time>
      </trkpt>
      <trkpt lat="44.96103" lon="6.58724">
        <ele>2087.3</ele>
        <time>2023-07-02T09:07:50+0200</time>
      </trkpt>
      <trkpt lat="44.96107" lon="6.5873">
        <ele>2088.2</ele>
        <time>2023-07-02T09:07:53+0200</time>
      </trkpt>
      <trkpt lat="44.96109" lon="6.58736">
        <ele>2088.9</ele>
        <time>2023-07-02T09:07:56+0200</time>
      </trkpt>
      <trkpt lat="44.96111" lon="6.58744">
        <ele>2089.2</ele>
        <time>2023-07-02T09:07:59+0200</time>
      </trkpt>
      <trkpt lat="44.96113" lon="6.58753">
        <ele>2089.3</ele>
        <time>2023-07-02T09:08:02+0200</time>
      </trkpt>
      <trkpt lat="44.96112" lon="6.58761">
        <ele>2089.2</ele>
        <time>2023-07-02T09:08:05+0200</time>
      </trkpt>
      <trkpt lat="44.96114" lon="6.58769">
        <ele>2089.8</ele>
        <time>2023-07-02T09:08:09+0200</time>
      </trkpt>
      <trkpt lat="44.96117" lon="6.58776">
        <ele>2090.5</ele>
        <time>2023-07-02T09:08:11+0200</time>
      </trkpt>
      <trkpt lat="44.96122" lon="6.58782">
        <ele>2091.4</ele>
        <time>2023-07-02T09:08:14+0200</time>
      </trkpt>
      <trkpt lat="44.96126" lon="6.58784">
        <ele>2092.6</ele>
        <time>2023-07-02T09:08:16+0200</time>
      </trkpt>
      <trkpt lat="44.96133" lon="6.58782">
        <ele>2094.6</ele>
        <time>2023-07-02T09:08:19+0200</time>
      </trkpt>
      <trkpt lat="44.96144" lon="6.58772">
        <ele>2097.4</ele>
        <time>2023-07-02T09:08:22+0200</time>
      </trkpt>
      <trkpt lat="44.96146" lon="6.58766">
        <ele>2097.7</ele>
        <time>2023-07-02T09:08:25+0200</time>
      </trkpt>
      <trkpt lat="44.96147" lon="6.58759">
        <ele>2097.7</ele>
        <time>2023-07-02T09:08:27+0200</time>
      </trkpt>
      <trkpt lat="44.96148" lon="6.58753">
        <ele>2097.6</ele>
        <time>2023-07-02T09:08:29+0200</time>
      </trkpt>
      <trkpt lat="44.96148" lon="6.58746">
        <ele>2097.6</ele>
        <time>2023-07-02T09:08:31+0200</time>
      </trkpt>
      <trkpt lat="44.96148" lon="6.58738">
        <ele>2098</ele>
        <time>2023-07-02T09:08:33+0200</time>
      </trkpt>
      <trkpt lat="44.96145" lon="6.58732">
        <ele>2097.9</ele>
        <time>2023-07-02T09:08:35+0200</time>
      </trkpt>
      <trkpt lat="44.96143" lon="6.58724">
        <ele>2098</ele>
        <time>2023-07-02T09:08:37+0200</time>
      </trkpt>
      <trkpt lat="44.96141" lon="6.58717">
        <ele>2097.7</ele>
        <time>2023-07-02T09:08:39+0200</time>
      </trkpt>
      <trkpt lat="44.9614" lon="6.58711">
        <ele>2097.6</ele>
        <time>2023-07-02T09:08:41+0200</time>
      </trkpt>
      <trkpt lat="44.9614" lon="6.58704">
        <ele>2098</ele>
        <time>2023-07-02T09:08:43+0200</time>
      </trkpt>
      <trkpt lat="44.96143" lon="6.58695">
        <ele>2099.1</ele>
        <time>2023-07-02T09:08:46+0200</time>
      </trkpt>
      <trkpt lat="44.96146" lon="6.58689">
        <ele>2099</ele>
        <time>2023-07-02T09:08:48+0200</time>
      </trkpt>
      <trkpt lat="44.96149" lon="6.58681">
        <ele>2098.8</ele>
        <time>2023-07-02T09:08:50+0200</time>
      </trkpt>
      <trkpt lat="44.96154" lon="6.5868">
        <ele>2099.7</ele>
        <time>2023-07-02T09:08:53+0200</time>
      </trkpt>
      <trkpt lat="44.9616" lon="6.58679">
        <ele>2101</ele>
        <time>2023-07-02T09:08:56+0200</time>
      </trkpt>
      <trkpt lat="44.96166" lon="6.58679">
        <ele>2102.6</ele>
        <time>2023-07-02T09:08:59+0200</time>
      </trkpt>
      <trkpt lat="44.96173" lon="6.58678">
        <ele>2104.7</ele>
        <time>2023-07-02T09:09:02+0200</time>
      </trkpt>
      <trkpt lat="44.96178" lon="6.58675">
        <ele>2105.8</ele>
        <time>2023-07-02T09:09:05+0200</time>
      </trkpt>
      <trkpt lat="44.96184" lon="6.5867">
        <ele>2107</ele>
        <time>2023-07-02T09:09:08+0200</time>
      </trkpt>
      <trkpt lat="44.96188" lon="6.58666">
        <ele>2107.7</ele>
        <time>2023-07-02T09:09:11+0200</time>
      </trkpt>
      <trkpt lat="44.96192" lon="6.58659">
        <ele>2107.8</ele>
        <time>2023-07-02T09:09:14+0200</time>
      </trkpt>
      <trkpt lat="44.96194" lon="6.58653">
        <ele>2107.5</ele>
        <time>2023-07-02T09:09:16+0200</time>
      </trkpt>
      <trkpt lat="44.96199" lon="6.58648">
        <ele>2107.8</ele>
        <time>2023-07-02T09:09:19+0200</time>
      </trkpt>
      <trkpt lat="44.96203" lon="6.58643">
        <ele>2108.4</ele>
        <time>2023-07-02T09:09:22+0200</time>
      </trkpt>
      <trkpt lat="44.96209" lon="6.5864">
        <ele>2109.3</ele>
        <time>2023-07-02T09:09:25+0200</time>
      </trkpt>
      <trkpt lat="44.96215" lon="6.58636">
        <ele>2110</ele>
        <time>2023-07-02T09:09:28+0200</time>
      </trkpt>
      <trkpt lat="44.96221" lon="6.58633">
        <ele>2110.9</ele>
        <time>2023-07-02T09:09:31+0200</time>
      </trkpt>
      <trkpt lat="44.96227" lon="6.58632">
        <ele>2112.4</ele>
        <time>2023-07-02T09:09:34+0200</time>
      </trkpt>
      <trkpt lat="44.96233" lon="6.58628">
        <ele>2113.1</ele>
        <time>2023-07-02T09:09:37+0200</time>
      </trkpt>
      <trkpt lat="44.96238" lon="6.58626">
        <ele>2114.2</ele>
        <time>2023-07-02T09:09:39+0200</time>
      </trkpt>
      <trkpt lat="44.96243" lon="6.58623">
        <ele>2114.7</ele>
        <time>2023-07-02T09:09:42+0200</time>
      </trkpt>
      <trkpt lat="44.96248" lon="6.58618">
        <ele>2114.5</ele>
        <time>2023-07-02T09:09:45+0200</time>
      </trkpt>
      <trkpt lat="44.96254" lon="6.58612">
        <ele>2114.4</ele>
        <time>2023-07-02T09:09:48+0200</time>
      </trkpt>
      <trkpt lat="44.9626" lon="6.58609">
        <ele>2115.6</ele>
        <time>2023-07-02T09:09:51+0200</time>
      </trkpt>
      <trkpt lat="44.96266" lon="6.58604">
        <ele>2115.6</ele>
        <time>2023-07-02T09:09:54+0200</time>
      </trkpt>
      <trkpt lat="44.9627" lon="6.58602">
        <ele>2116</ele>
        <time>2023-07-02T09:09:56+0200</time>
      </trkpt>
      <trkpt lat="44.96274" lon="6.58599">
        <ele>2116.4</ele>
        <time>2023-07-02T09:09:58+0200</time>
      </trkpt>
      <trkpt lat="44.9628" lon="6.58595">
        <ele>2116.6</ele>
        <time>2023-07-02T09:10:01+0200</time>
      </trkpt>
      <trkpt lat="44.96287" lon="6.58592">
        <ele>2116.5</ele>
        <time>2023-07-02T09:10:04+0200</time>
      </trkpt>
      <trkpt lat="44.96292" lon="6.58591">
        <ele>2117.1</ele>
        <time>2023-07-02T09:10:06+0200</time>
      </trkpt>
      <trkpt lat="44.96297" lon="6.58589">
        <ele>2117.4</ele>
        <time>2023-07-02T09:10:08+0200</time>
      </trkpt>
      <trkpt lat="44.96303" lon="6.58588">
        <ele>2117.8</ele>
        <time>2023-07-02T09:10:10+0200</time>
      </trkpt>
      <trkpt lat="44.96308" lon="6.58587">
        <ele>2118.6</ele>
        <time>2023-07-02T09:10:12+0200</time>
      </trkpt>
      <trkpt lat="44.96313" lon="6.58584">
        <ele>2119.1</ele>
        <time>2023-07-02T09:10:14+0200</time>
      </trkpt>
      <trkpt lat="44.96318" lon="6.58582">
        <ele>2119.6</ele>
        <time>2023-07-02T09:10:16+0200</time>
      </trkpt>
      <trkpt lat="44.96322" lon="6.58579">
        <ele>2120</ele>
        <time>2023-07-02T09:10:18+0200</time>
      </trkpt>
      <trkpt lat="44.96328" lon="6.58578">
        <ele>2120.8</ele>
        <time>2023-07-02T09:10:20+0200</time>
      </trkpt>
      <trkpt lat="44.96334" lon="6.58576">
        <ele>2121.9</ele>
        <time>2023-07-02T09:10:23+0200</time>
      </trkpt>
      <trkpt lat="44.9634" lon="6.58574">
        <ele>2122.3</ele>
        <time>2023-07-02T09:10:26+0200</time>
      </trkpt>
      <trkpt lat="44.96345" lon="6.58573">
        <ele>2122.9</ele>
        <time>2023-07-02T09:10:28+0200</time>
      </trkpt>
      <trkpt lat="44.96351" lon="6.58571">
        <ele>2123.5</ele>
        <time>2023-07-02T09:10:31+0200</time>
      </trkpt>
      <trkpt lat="44.96358" lon="6.58568">
        <ele>2123.9</ele>
        <time>2023-07-02T09:10:34+0200</time>
      </trkpt>
      <trkpt lat="44.96363" lon="6.58567">
        <ele>2124.5</ele>
        <time>2023-07-02T09:10:38+0200</time>
      </trkpt>
      <trkpt lat="44.96368" lon="6.58565">
        <ele>2124.8</ele>
        <time>2023-07-02T09:10:40+0200</time>
      </trkpt>
      <trkpt lat="44.96373" lon="6.58563">
        <ele>2125.2</ele>
        <time>2023-07-02T09:10:43+0200</time>
      </trkpt>
      <trkpt lat="44.96379" lon="6.58561">
        <ele>2125.8</ele>
        <time>2023-07-02T09:10:46+0200</time>
      </trkpt>
      <trkpt lat="44.96385" lon="6.5856">
        <ele>2126.6</ele>
        <time>2023-07-02T09:10:49+0200</time>
      </trkpt>
      <trkpt lat="44.9639" lon="6.5856">
        <ele>2127.2</ele>
        <time>2023-07-02T09:10:51+0200</time>
      </trkpt>
      <trkpt lat="44.96395" lon="6.58559">
        <ele>2127.7</ele>
        <time>2023-07-02T09:10:54+0200</time>
      </trkpt>
      <trkpt lat="44.964" lon="6.5856">
        <ele>2128.5</ele>
        <time>2023-07-02T09:10:57+0200</time>
      </trkpt>
      <trkpt lat="44.96405" lon="6.5856">
        <ele>2128.9</ele>
        <time>2023-07-02T09:11:00+0200</time>
      </trkpt>
      <trkpt lat="44.96409" lon="6.5856">
        <ele>2129.6</ele>
        <time>2023-07-02T09:11:02+0200</time>
      </trkpt>
      <trkpt lat="44.96415" lon="6.5856">
        <ele>2130.1</ele>
        <time>2023-07-02T09:11:05+0200</time>
      </trkpt>
      <trkpt lat="44.9642" lon="6.58559">
        <ele>2130.6</ele>
        <time>2023-07-02T09:11:07+0200</time>
      </trkpt>
      <trkpt lat="44.96425" lon="6.5856">
        <ele>2131.7</ele>
        <time>2023-07-02T09:11:10+0200</time>
      </trkpt>
      <trkpt lat="44.9643" lon="6.58559">
        <ele>2132.6</ele>
        <time>2023-07-02T09:11:12+0200</time>
      </trkpt>
      <trkpt lat="44.96435" lon="6.58558">
        <ele>2133</ele>
        <time>2023-07-02T09:11:14+0200</time>
      </trkpt>
      <trkpt lat="44.96441" lon="6.58557">
        <ele>2133.7</ele>
        <time>2023-07-02T09:11:17+0200</time>
      </trkpt>
      <trkpt lat="44.96445" lon="6.58554">
        <ele>2133.7</ele>
        <time>2023-07-02T09:11:19+0200</time>
      </trkpt>
      <trkpt lat="44.9645" lon="6.58555">
        <ele>2134.3</ele>
        <time>2023-07-02T09:11:21+0200</time>
      </trkpt>
      <trkpt lat="44.96455" lon="6.58552">
        <ele>2134.3</ele>
        <time>2023-07-02T09:11:24+0200</time>
      </trkpt>
      <trkpt lat="44.96461" lon="6.58551">
        <ele>2134.5</ele>
        <time>2023-07-02T09:11:27+0200</time>
      </trkpt>
      <trkpt lat="44.96467" lon="6.5855">
        <ele>2134.9</ele>
        <time>2023-07-02T09:11:30+0200</time>
      </trkpt>
      <trkpt lat="44.96474" lon="6.58552">
        <ele>2136.1</ele>
        <time>2023-07-02T09:11:33+0200</time>
      </trkpt>
      <trkpt lat="44.9648" lon="6.58552">
        <ele>2137</ele>
        <time>2023-07-02T09:11:36+0200</time>
      </trkpt>
      <trkpt lat="44.96486" lon="6.58552">
        <ele>2137.8</ele>
        <time>2023-07-02T09:11:39+0200</time>
      </trkpt>
      <trkpt lat="44.96492" lon="6.58553">
        <ele>2138.6</ele>
        <time>2023-07-02T09:11:42+0200</time>
      </trkpt>
      <trkpt lat="44.96498" lon="6.58553">
        <ele>2139.2</ele>
        <time>2023-07-02T09:11:45+0200</time>
      </trkpt>
      <trkpt lat="44.96503" lon="6.58553">
        <ele>2140.1</ele>
        <time>2023-07-02T09:11:48+0200</time>
      </trkpt>
      <trkpt lat="44.96508" lon="6.58552">
        <ele>2140.8</ele>
        <time>2023-07-02T09:11:50+0200</time>
      </trkpt>
      <trkpt lat="44.96513" lon="6.58552">
        <ele>2141.7</ele>
        <time>2023-07-02T09:11:53+0200</time>
      </trkpt>
      <trkpt lat="44.96518" lon="6.58551">
        <ele>2142.5</ele>
        <time>2023-07-02T09:11:55+0200</time>
      </trkpt>
      <trkpt lat="44.96523" lon="6.58549">
        <ele>2142.7</ele>
        <time>2023-07-02T09:11:57+0200</time>
      </trkpt>
      <trkpt lat="44.96529" lon="6.58546">
        <ele>2143.1</ele>
        <time>2023-07-02T09:12:00+0200</time>
      </trkpt>
      <trkpt lat="44.96534" lon="6.58544">
        <ele>2143</ele>
        <time>2023-07-02T09:12:02+0200</time>
      </trkpt>
      <trkpt lat="44.9654" lon="6.58543">
        <ele>2143.2</ele>
        <time>2023-07-02T09:12:05+0200</time>
      </trkpt>
      <trkpt lat="44.96545" lon="6.58541">
        <ele>2143.2</ele>
        <time>2023-07-02T09:12:07+0200</time>
      </trkpt>
      <trkpt lat="44.96551" lon="6.58543">
        <ele>2143.9</ele>
        <time>2023-07-02T09:12:10+0200</time>
      </trkpt>
      <trkpt lat="44.96557" lon="6.58545">
        <ele>2144.8</ele>
        <time>2023-07-02T09:12:13+0200</time>
      </trkpt>
      <trkpt lat="44.96564" lon="6.58546">
        <ele>2145.9</ele>
        <time>2023-07-02T09:12:16+0200</time>
      </trkpt>
      <trkpt lat="44.96569" lon="6.58547">
        <ele>2146.7</ele>
        <time>2023-07-02T09:12:19+0200</time>
      </trkpt>
      <trkpt lat="44.96574" lon="6.58547">
        <ele>2147.1</ele>
        <time>2023-07-02T09:12:21+0200</time>
      </trkpt>
      <trkpt lat="44.9658" lon="6.58548">
        <ele>2148</ele>
        <time>2023-07-02T09:12:23+0200</time>
      </trkpt>
      <trkpt lat="44.96585" lon="6.58549">
        <ele>2148.7</ele>
        <time>2023-07-02T09:12:26+0200</time>
      </trkpt>
      <trkpt lat="44.96589" lon="6.58549">
        <ele>2149.3</ele>
        <time>2023-07-02T09:12:28+0200</time>
      </trkpt>
      <trkpt lat="44.96595" lon="6.5855">
        <ele>2150.2</ele>
        <time>2023-07-02T09:12:30+0200</time>
      </trkpt>
      <trkpt lat="44.966" lon="6.5855">
        <ele>2151</ele>
        <time>2023-07-02T09:12:32+0200</time>
      </trkpt>
      <trkpt lat="44.96604" lon="6.58549">
        <ele>2151.5</ele>
        <time>2023-07-02T09:12:34+0200</time>
      </trkpt>
      <trkpt lat="44.96611" lon="6.58549">
        <ele>2152.3</ele>
        <time>2023-07-02T09:12:37+0200</time>
      </trkpt>
      <trkpt lat="44.96616" lon="6.58548">
        <ele>2152.9</ele>
        <time>2023-07-02T09:12:39+0200</time>
      </trkpt>
      <trkpt lat="44.96622" lon="6.58547">
        <ele>2153.6</ele>
        <time>2023-07-02T09:12:42+0200</time>
      </trkpt>
      <trkpt lat="44.96627" lon="6.58547">
        <ele>2154.6</ele>
        <time>2023-07-02T09:12:45+0200</time>
      </trkpt>
      <trkpt lat="44.96633" lon="6.58547">
        <ele>2155.5</ele>
        <time>2023-07-02T09:12:47+0200</time>
      </trkpt>
      <trkpt lat="44.96639" lon="6.58546">
        <ele>2156.2</ele>
        <time>2023-07-02T09:12:50+0200</time>
      </trkpt>
      <trkpt lat="44.96644" lon="6.58545">
        <ele>2156.8</ele>
        <time>2023-07-02T09:12:52+0200</time>
      </trkpt>
      <trkpt lat="44.9665" lon="6.58542">
        <ele>2157.3</ele>
        <time>2023-07-02T09:12:55+0200</time>
      </trkpt>
      <trkpt lat="44.96654" lon="6.5854">
        <ele>2157.5</ele>
        <time>2023-07-02T09:12:57+0200</time>
      </trkpt>
      <trkpt lat="44.96659" lon="6.58538">
        <ele>2158.1</ele>
        <time>2023-07-02T09:13:00+0200</time>
      </trkpt>
      <trkpt lat="44.96664" lon="6.58536">
        <ele>2158.5</ele>
        <time>2023-07-02T09:13:02+0200</time>
      </trkpt>
      <trkpt lat="44.9667" lon="6.58534">
        <ele>2159.1</ele>
        <time>2023-07-02T09:13:05+0200</time>
      </trkpt>
      <trkpt lat="44.96676" lon="6.58531">
        <ele>2159.9</ele>
        <time>2023-07-02T09:13:08+0200</time>
      </trkpt>
      <trkpt lat="44.96682" lon="6.5853">
        <ele>2160.9</ele>
        <time>2023-07-02T09:13:11+0200</time>
      </trkpt>
      <trkpt lat="44.96687" lon="6.58527">
        <ele>2161.4</ele>
        <time>2023-07-02T09:13:13+0200</time>
      </trkpt>
      <trkpt lat="44.96694" lon="6.58524">
        <ele>2162.1</ele>
        <time>2023-07-02T09:13:16+0200</time>
      </trkpt>
      <trkpt lat="44.96699" lon="6.58525">
        <ele>2162.9</ele>
        <time>2023-07-02T09:13:18+0200</time>
      </trkpt>
      <trkpt lat="44.96704" lon="6.58523">
        <ele>2163.4</ele>
        <time>2023-07-02T09:13:21+0200</time>
      </trkpt>
      <trkpt lat="44.96709" lon="6.58523">
        <ele>2164</ele>
        <time>2023-07-02T09:13:23+0200</time>
      </trkpt>
      <trkpt lat="44.96716" lon="6.58524">
        <ele>2165.1</ele>
        <time>2023-07-02T09:13:27+0200</time>
      </trkpt>
      <trkpt lat="44.96721" lon="6.58524">
        <ele>2166.1</ele>
        <time>2023-07-02T09:13:30+0200</time>
      </trkpt>
      <trkpt lat="44.96727" lon="6.58525">
        <ele>2167</ele>
        <time>2023-07-02T09:13:33+0200</time>
      </trkpt>
      <trkpt lat="44.96733" lon="6.58523">
        <ele>2167.7</ele>
        <time>2023-07-02T09:13:36+0200</time>
      </trkpt>
      <trkpt lat="44.9674" lon="6.58524">
        <ele>2168.7</ele>
        <time>2023-07-02T09:13:39+0200</time>
      </trkpt>
      <trkpt lat="44.96748" lon="6.58521">
        <ele>2169.4</ele>
        <time>2023-07-02T09:13:42+0200</time>
      </trkpt>
      <trkpt lat="44.96752" lon="6.58516">
        <ele>2169.2</ele>
        <time>2023-07-02T09:13:46+0200</time>
      </trkpt>
      <trkpt lat="44.96756" lon="6.5851">
        <ele>2168.9</ele>
        <time>2023-07-02T09:13:49+0200</time>
      </trkpt>
      <trkpt lat="44.96762" lon="6.58504">
        <ele>2168.7</ele>
        <time>2023-07-02T09:13:52+0200</time>
      </trkpt>
      <trkpt lat="44.96767" lon="6.58498">
        <ele>2168.8</ele>
        <time>2023-07-02T09:13:55+0200</time>
      </trkpt>
      <trkpt lat="44.96771" lon="6.58493">
        <ele>2169.2</ele>
        <time>2023-07-02T09:13:58+0200</time>
      </trkpt>
      <trkpt lat="44.96775" lon="6.58489">
        <ele>2169.6</ele>
        <time>2023-07-02T09:14:00+0200</time>
      </trkpt>
      <trkpt lat="44.9678" lon="6.58485">
        <ele>2170.4</ele>
        <time>2023-07-02T09:14:03+0200</time>
      </trkpt>
      <trkpt lat="44.96786" lon="6.58483">
        <ele>2171.1</ele>
        <time>2023-07-02T09:14:06+0200</time>
      </trkpt>
      <trkpt lat="44.9679" lon="6.5848">
        <ele>2171.6</ele>
        <time>2023-07-02T09:14:08+0200</time>
      </trkpt>
      <trkpt lat="44.96795" lon="6.58476">
        <ele>2172</ele>
        <time>2023-07-02T09:14:10+0200</time>
      </trkpt>
      <trkpt lat="44.96801" lon="6.58472">
        <ele>2172.2</ele>
        <time>2023-07-02T09:14:12+0200</time>
      </trkpt>
      <trkpt lat="44.96806" lon="6.58469">
        <ele>2172.4</ele>
        <time>2023-07-02T09:14:14+0200</time>
      </trkpt>
      <trkpt lat="44.96811" lon="6.58467">
        <ele>2173.1</ele>
        <time>2023-07-02T09:14:16+0200</time>
      </trkpt>
      <trkpt lat="44.96817" lon="6.58465">
        <ele>2174</ele>
        <time>2023-07-02T09:14:18+0200</time>
      </trkpt>
      <trkpt lat="44.96822" lon="6.58461">
        <ele>2174.2</ele>
        <time>2023-07-02T09:14:20+0200</time>
      </trkpt>
      <trkpt lat="44.96826" lon="6.58456">
        <ele>2173.8</ele>
        <time>2023-07-02T09:14:22+0200</time>
      </trkpt>
      <trkpt lat="44.9683" lon="6.58447">
        <ele>2172.2</ele>
        <time>2023-07-02T09:14:24+0200</time>
      </trkpt>
      <trkpt lat="44.96832" lon="6.58439">
        <ele>2171.7</ele>
        <time>2023-07-02T09:14:26+0200</time>
      </trkpt>
      <trkpt lat="44.96833" lon="6.5843">
        <ele>2171.4</ele>
        <time>2023-07-02T09:14:28+0200</time>
      </trkpt>
      <trkpt lat="44.96833" lon="6.58423">
        <ele>2171.2</ele>
        <time>2023-07-02T09:14:30+0200</time>
      </trkpt>
      <trkpt lat="44.96832" lon="6.58416">
        <ele>2170.9</ele>
        <time>2023-07-02T09:14:32+0200</time>
      </trkpt>
      <trkpt lat="44.96829" lon="6.58408">
        <ele>2170.7</ele>
        <time>2023-07-02T09:14:34+0200</time>
      </trkpt>
      <trkpt lat="44.96825" lon="6.584">
        <ele>2170.4</ele>
        <time>2023-07-02T09:14:36+0200</time>
      </trkpt>
      <trkpt lat="44.96818" lon="6.58392">
        <ele>2169.7</ele>
        <time>2023-07-02T09:14:38+0200</time>
      </trkpt>
      <trkpt lat="44.96813" lon="6.58387">
        <ele>2169.2</ele>
        <time>2023-07-02T09:14:39+0200</time>
      </trkpt>
      <trkpt lat="44.96807" lon="6.58384">
        <ele>2168.4</ele>
        <time>2023-07-02T09:14:40+0200</time>
      </trkpt>
      <trkpt lat="44.96802" lon="6.5838">
        <ele>2168</ele>
        <time>2023-07-02T09:14:41+0200</time>
      </trkpt>
      <trkpt lat="44.96795" lon="6.58375">
        <ele>2167.6</ele>
        <time>2023-07-02T09:14:42+0200</time>
      </trkpt>
      <trkpt lat="44.96789" lon="6.58369">
        <ele>2167.3</ele>
        <time>2023-07-02T09:14:43+0200</time>
      </trkpt>
      <trkpt lat="44.96782" lon="6.58365">
        <ele>2167</ele>
        <time>2023-07-02T09:14:44+0200</time>
      </trkpt>
      <trkpt lat="44.96773" lon="6.58362">
        <ele>2166.4</ele>
        <time>2023-07-02T09:14:45+0200</time>
      </trkpt>
      <trkpt lat="44.96764" lon="6.58362">
        <ele>2165.4</ele>
        <time>2023-07-02T09:14:46+0200</time>
      </trkpt>
      <trkpt lat="44.96755" lon="6.58364">
        <ele>2164.3</ele>
        <time>2023-07-02T09:14:47+0200</time>
      </trkpt>
      <trkpt lat="44.96745" lon="6.58366">
        <ele>2163.3</ele>
        <time>2023-07-02T09:14:48+0200</time>
      </trkpt>
      <trkpt lat="44.96737" lon="6.58363">
        <ele>2162.9</ele>
        <time>2023-07-02T09:14:49+0200</time>
      </trkpt>
      <trkpt lat="44.96728" lon="6.58359">
        <ele>2162.8</ele>
        <time>2023-07-02T09:14:50+0200</time>
      </trkpt>
      <trkpt lat="44.9672" lon="6.58353">
        <ele>2163.3</ele>
        <time>2023-07-02T09:14:51+0200</time>
      </trkpt>
      <trkpt lat="44.96711" lon="6.58347">
        <ele>2163.6</ele>
        <time>2023-07-02T09:14:52+0200</time>
      </trkpt>
      <trkpt lat="44.96704" lon="6.58344">
        <ele>2163.4</ele>
        <time>2023-07-02T09:14:53+0200</time>
      </trkpt>
      <trkpt lat="44.96698" lon="6.5834">
        <ele>2163.5</ele>
        <time>2023-07-02T09:14:54+0200</time>
      </trkpt>
      <trkpt lat="44.96691" lon="6.58336">
        <ele>2163.3</ele>
        <time>2023-07-02T09:14:55+0200</time>
      </trkpt>
      <trkpt lat="44.96684" lon="6.58332">
        <ele>2163</ele>
        <time>2023-07-02T09:14:56+0200</time>
      </trkpt>
      <trkpt lat="44.96678" lon="6.58329">
        <ele>2162.8</ele>
        <time>2023-07-02T09:14:57+0200</time>
      </trkpt>
      <trkpt lat="44.96673" lon="6.58323">
        <ele>2162.9</ele>
        <time>2023-07-02T09:14:58+0200</time>
      </trkpt>
      <trkpt lat="44.96669" lon="6.58317">
        <ele>2163</ele>
        <time>2023-07-02T09:14:59+0200</time>
      </trkpt>
      <trkpt lat="44.96663" lon="6.58312">
        <ele>2163</ele>
        <time>2023-07-02T09:15:00+0200</time>
      </trkpt>
      <trkpt lat="44.96659" lon="6.58305">
        <ele>2163.2</ele>
        <time>2023-07-02T09:15:01+0200</time>
      </trkpt>
      <trkpt lat="44.96654" lon="6.583">
        <ele>2162.9</ele>
        <time>2023-07-02T09:15:02+0200</time>
      </trkpt>
      <trkpt lat="44.96648" lon="6.58294">
        <ele>2162.6</ele>
        <time>2023-07-02T09:15:03+0200</time>
      </trkpt>
      <trkpt lat="44.96644" lon="6.58288">
        <ele>2162.2</ele>
        <time>2023-07-02T09:15:04+0200</time>
      </trkpt>
      <trkpt lat="44.96638" lon="6.58282">
        <ele>2161.8</ele>
        <time>2023-07-02T09:15:05+0200</time>
      </trkpt>
      <trkpt lat="44.96632" lon="6.58275">
        <ele>2161.9</ele>
        <time>2023-07-02T09:15:06+0200</time>
      </trkpt>
      <trkpt lat="44.96627" lon="6.5827">
        <ele>2162.4</ele>
        <time>2023-07-02T09:15:07+0200</time>
      </trkpt>
      <trkpt lat="44.9662" lon="6.58265">
        <ele>2162.5</ele>
        <time>2023-07-02T09:15:08+0200</time>
      </trkpt>
      <trkpt lat="44.96614" lon="6.5826">
        <ele>2162.7</ele>
        <time>2023-07-02T09:15:09+0200</time>
      </trkpt>
      <trkpt lat="44.9661" lon="6.58255">
        <ele>2163</ele>
        <time>2023-07-02T09:15:10+0200</time>
      </trkpt>
      <trkpt lat="44.96605" lon="6.5825">
        <ele>2163</ele>
        <time>2023-07-02T09:15:11+0200</time>
      </trkpt>
      <trkpt lat="44.96601" lon="6.58246">
        <ele>2164.1</ele>
        <time>2023-07-02T09:15:12+0200</time>
      </trkpt>
      <trkpt lat="44.96597" lon="6.58243">
        <ele>2164.7</ele>
        <time>2023-07-02T09:15:13+0200</time>
      </trkpt>
      <trkpt lat="44.96591" lon="6.58238">
        <ele>2165.3</ele>
        <time>2023-07-02T09:15:15+0200</time>
      </trkpt>
      <trkpt lat="44.96584" lon="6.58232">
        <ele>2165.8</ele>
        <time>2023-07-02T09:15:17+0200</time>
      </trkpt>
      <trkpt lat="44.96577" lon="6.58229">
        <ele>2166</ele>
        <time>2023-07-02T09:15:19+0200</time>
      </trkpt>
      <trkpt lat="44.96573" lon="6.58226">
        <ele>2166.4</ele>
        <time>2023-07-02T09:15:21+0200</time>
      </trkpt>
      <trkpt lat="44.96567" lon="6.58223">
        <ele>2166.5</ele>
        <time>2023-07-02T09:15:25+0200</time>
      </trkpt>
      <trkpt lat="44.96562" lon="6.5822">
        <ele>2166.7</ele>
        <time>2023-07-02T09:15:28+0200</time>
      </trkpt>
      <trkpt lat="44.96557" lon="6.58216">
        <ele>2167.5</ele>
        <time>2023-07-02T09:15:30+0200</time>
      </trkpt>
      <trkpt lat="44.96552" lon="6.58214">
        <ele>2167.4</ele>
        <time>2023-07-02T09:15:32+0200</time>
      </trkpt>
      <trkpt lat="44.96547" lon="6.58209">
        <ele>2168</ele>
        <time>2023-07-02T09:15:35+0200</time>
      </trkpt>
      <trkpt lat="44.96541" lon="6.58205">
        <ele>2168.3</ele>
        <time>2023-07-02T09:15:38+0200</time>
      </trkpt>
      <trkpt lat="44.96535" lon="6.58202">
        <ele>2168.3</ele>
        <time>2023-07-02T09:15:41+0200</time>
      </trkpt>
      <trkpt lat="44.9653" lon="6.58197">
        <ele>2168.8</ele>
        <time>2023-07-02T09:15:44+0200</time>
      </trkpt>
      <trkpt lat="44.96526" lon="6.58193">
        <ele>2169.1</ele>
        <time>2023-07-02T09:15:46+0200</time>
      </trkpt>
      <trkpt lat="44.96523" lon="6.58187">
        <ele>2170.4</ele>
        <time>2023-07-02T09:15:49+0200</time>
      </trkpt>
      <trkpt lat="44.96519" lon="6.58182">
        <ele>2171</ele>
        <time>2023-07-02T09:15:51+0200</time>
      </trkpt>
      <trkpt lat="44.96516" lon="6.58175">
        <ele>2172.5</ele>
        <time>2023-07-02T09:15:54+0200</time>
      </trkpt>
      <trkpt lat="44.96512" lon="6.58169">
        <ele>2173.5</ele>
        <time>2023-07-02T09:15:57+0200</time>
      </trkpt>
      <trkpt lat="44.96508" lon="6.58165">
        <ele>2173.8</ele>
        <time>2023-07-02T09:15:59+0200</time>
      </trkpt>
      <trkpt lat="44.96504" lon="6.58161">
        <ele>2174.7</ele>
        <time>2023-07-02T09:16:01+0200</time>
      </trkpt>
      <trkpt lat="44.965" lon="6.58156">
        <ele>2175.7</ele>
        <time>2023-07-02T09:16:04+0200</time>
      </trkpt>
      <trkpt lat="44.96495" lon="6.58154">
        <ele>2175.7</ele>
        <time>2023-07-02T09:16:06+0200</time>
      </trkpt>
      <trkpt lat="44.96491" lon="6.5815">
        <ele>2176.9</ele>
        <time>2023-07-02T09:16:08+0200</time>
      </trkpt>
      <trkpt lat="44.96486" lon="6.58149">
        <ele>2176.3</ele>
        <time>2023-07-02T09:16:10+0200</time>
      </trkpt>
      <trkpt lat="44.96479" lon="6.58145">
        <ele>2176.6</ele>
        <time>2023-07-02T09:16:14+0200</time>
      </trkpt>
      <trkpt lat="44.96474" lon="6.58141">
        <ele>2176.6</ele>
        <time>2023-07-02T09:16:17+0200</time>
      </trkpt>
      <trkpt lat="44.96469" lon="6.58139">
        <ele>2176.5</ele>
        <time>2023-07-02T09:16:19+0200</time>
      </trkpt>
      <trkpt lat="44.96465" lon="6.58135">
        <ele>2177.2</ele>
        <time>2023-07-02T09:16:21+0200</time>
      </trkpt>
      <trkpt lat="44.96458" lon="6.58131">
        <ele>2177.5</ele>
        <time>2023-07-02T09:16:24+0200</time>
      </trkpt>
      <trkpt lat="44.96455" lon="6.58126">
        <ele>2178.5</ele>
        <time>2023-07-02T09:16:28+0200</time>
      </trkpt>
      <trkpt lat="44.9645" lon="6.58122">
        <ele>2178.6</ele>
        <time>2023-07-02T09:16:32+0200</time>
      </trkpt>
      <trkpt lat="44.96446" lon="6.58117">
        <ele>2179.3</ele>
        <time>2023-07-02T09:16:35+0200</time>
      </trkpt>
      <trkpt lat="44.96441" lon="6.58113">
        <ele>2179.6</ele>
        <time>2023-07-02T09:16:38+0200</time>
      </trkpt>
      <trkpt lat="44.96438" lon="6.58108">
        <ele>2180.8</ele>
        <time>2023-07-02T09:16:41+0200</time>
      </trkpt>
      <trkpt lat="44.96434" lon="6.58103">
        <ele>2181.8</ele>
        <time>2023-07-02T09:16:44+0200</time>
      </trkpt>
      <trkpt lat="44.96429" lon="6.58099">
        <ele>2181.8</ele>
        <time>2023-07-02T09:16:47+0200</time>
      </trkpt>
      <trkpt lat="44.96423" lon="6.58095">
        <ele>2181.7</ele>
        <time>2023-07-02T09:16:50+0200</time>
      </trkpt>
      <trkpt lat="44.96419" lon="6.58091">
        <ele>2181.9</ele>
        <time>2023-07-02T09:16:52+0200</time>
      </trkpt>
      <trkpt lat="44.96415" lon="6.58088">
        <ele>2181.3</ele>
        <time>2023-07-02T09:16:54+0200</time>
      </trkpt>
      <trkpt lat="44.96411" lon="6.58084">
        <ele>2181.4</ele>
        <time>2023-07-02T09:16:56+0200</time>
      </trkpt>
      <trkpt lat="44.96406" lon="6.58078">
        <ele>2181.1</ele>
        <time>2023-07-02T09:16:58+0200</time>
      </trkpt>
      <trkpt lat="44.96402" lon="6.58072">
        <ele>2180.7</ele>
        <time>2023-07-02T09:17:00+0200</time>
      </trkpt>
      <trkpt lat="44.964" lon="6.58064">
        <ele>2180.9</ele>
        <time>2023-07-02T09:17:02+0200</time>
      </trkpt>
      <trkpt lat="44.96399" lon="6.58056">
        <ele>2181.5</ele>
        <time>2023-07-02T09:17:04+0200</time>
      </trkpt>
      <trkpt lat="44.96399" lon="6.58049">
        <ele>2181.7</ele>
        <time>2023-07-02T09:17:06+0200</time>
      </trkpt>
      <trkpt lat="44.96401" lon="6.58042">
        <ele>2182.6</ele>
        <time>2023-07-02T09:17:08+0200</time>
      </trkpt>
      <trkpt lat="44.96402" lon="6.58033">
        <ele>2183.3</ele>
        <time>2023-07-02T09:17:11+0200</time>
      </trkpt>
      <trkpt lat="44.96405" lon="6.58026">
        <ele>2184.1</ele>
        <time>2023-07-02T09:17:13+0200</time>
      </trkpt>
      <trkpt lat="44.96407" lon="6.5802">
        <ele>2184.4</ele>
        <time>2023-07-02T09:17:15+0200</time>
      </trkpt>
      <trkpt lat="44.96409" lon="6.58014">
        <ele>2184.9</ele>
        <time>2023-07-02T09:17:17+0200</time>
      </trkpt>
      <trkpt lat="44.96411" lon="6.58005">
        <ele>2185.4</ele>
        <time>2023-07-02T09:17:20+0200</time>
      </trkpt>
      <trkpt lat="44.96414" lon="6.57997">
        <ele>2186</ele>
        <time>2023-07-02T09:17:23+0200</time>
      </trkpt>
      <trkpt lat="44.96415" lon="6.5799">
        <ele>2186.3</ele>
        <time>2023-07-02T09:17:25+0200</time>
      </trkpt>
      <trkpt lat="44.96415" lon="6.57982">
        <ele>2186.5</ele>
        <time>2023-07-02T09:17:28+0200</time>
      </trkpt>
      <trkpt lat="44.96416" lon="6.57973">
        <ele>2186.8</ele>
        <time>2023-07-02T09:17:31+0200</time>
      </trkpt>
      <trkpt lat="44.96419" lon="6.57967">
        <ele>2187.9</ele>
        <time>2023-07-02T09:17:34+0200</time>
      </trkpt>
      <trkpt lat="44.96422" lon="6.57961">
        <ele>2189.2</ele>
        <time>2023-07-02T09:17:37+0200</time>
      </trkpt>
      <trkpt lat="44.96422" lon="6.57954">
        <ele>2189.6</ele>
        <time>2023-07-02T09:17:39+0200</time>
      </trkpt>
      <trkpt lat="44.96423" lon="6.57946">
        <ele>2189.8</ele>
        <time>2023-07-02T09:17:42+0200</time>
      </trkpt>
      <trkpt lat="44.96421" lon="6.57938">
        <ele>2190</ele>
        <time>2023-07-02T09:17:45+0200</time>
      </trkpt>
      <trkpt lat="44.9642" lon="6.5793">
        <ele>2190.4</ele>
        <time>2023-07-02T09:17:48+0200</time>
      </trkpt>
      <trkpt lat="44.96418" lon="6.57922">
        <ele>2190.9</ele>
        <time>2023-07-02T09:17:51+0200</time>
      </trkpt>
      <trkpt lat="44.96416" lon="6.57915">
        <ele>2191.2</ele>
        <time>2023-07-02T09:17:53+0200</time>
      </trkpt>
      <trkpt lat="44.96415" lon="6.57904">
        <ele>2192.8</ele>
        <time>2023-07-02T09:17:57+0200</time>
      </trkpt>
      <trkpt lat="44.96411" lon="6.57898">
        <ele>2193.1</ele>
        <time>2023-07-02T09:18:00+0200</time>
      </trkpt>
      <trkpt lat="44.96407" lon="6.57893">
        <ele>2193.1</ele>
        <time>2023-07-02T09:18:02+0200</time>
      </trkpt>
      <trkpt lat="44.96403" lon="6.57886">
        <ele>2193.5</ele>
        <time>2023-07-02T09:18:05+0200</time>
      </trkpt>
      <trkpt lat="44.964" lon="6.57879">
        <ele>2194.1</ele>
        <time>2023-07-02T09:18:08+0200</time>
      </trkpt>
      <trkpt lat="44.96395" lon="6.57874">
        <ele>2194.3</ele>
        <time>2023-07-02T09:18:11+0200</time>
      </trkpt>
      <trkpt lat="44.9639" lon="6.57871">
        <ele>2194</ele>
        <time>2023-07-02T09:18:13+0200</time>
      </trkpt>
      <trkpt lat="44.96385" lon="6.57868">
        <ele>2194</ele>
        <time>2023-07-02T09:18:16+0200</time>
      </trkpt>
      <trkpt lat="44.96381" lon="6.57863">
        <ele>2194.5</ele>
        <time>2023-07-02T09:18:19+0200</time>
      </trkpt>
      <trkpt lat="44.96377" lon="6.57858">
        <ele>2194.7</ele>
        <time>2023-07-02T09:18:20+0200</time>
      </trkpt>
      <trkpt lat="44.96374" lon="6.57854">
        <ele>2194.8</ele>
        <time>2023-07-02T09:18:22+0200</time>
      </trkpt>
      <trkpt lat="44.96372" lon="6.57847">
        <ele>2195.2</ele>
        <time>2023-07-02T09:18:25+0200</time>
      </trkpt>
      <trkpt lat="44.96368" lon="6.57842">
        <ele>2195.2</ele>
        <time>2023-07-02T09:18:27+0200</time>
      </trkpt>
      <trkpt lat="44.96364" lon="6.57835">
        <ele>2195.4</ele>
        <time>2023-07-02T09:18:30+0200</time>
      </trkpt>
      <trkpt lat="44.96363" lon="6.57829">
        <ele>2196.1</ele>
        <time>2023-07-02T09:18:32+0200</time>
      </trkpt>
      <trkpt lat="44.9636" lon="6.57823">
        <ele>2196.9</ele>
        <time>2023-07-02T09:18:35+0200</time>
      </trkpt>
      <trkpt lat="44.96356" lon="6.57816">
        <ele>2198</ele>
        <time>2023-07-02T09:18:38+0200</time>
      </trkpt>
      <trkpt lat="44.96353" lon="6.57811">
        <ele>2198.8</ele>
        <time>2023-07-02T09:18:41+0200</time>
      </trkpt>
      <trkpt lat="44.96349" lon="6.57806">
        <ele>2199.5</ele>
        <time>2023-07-02T09:18:44+0200</time>
      </trkpt>
      <trkpt lat="44.96345" lon="6.578">
        <ele>2200.2</ele>
        <time>2023-07-02T09:18:47+0200</time>
      </trkpt>
      <trkpt lat="44.96343" lon="6.57793">
        <ele>2201</ele>
        <time>2023-07-02T09:18:51+0200</time>
      </trkpt>
      <trkpt lat="44.96339" lon="6.57785">
        <ele>2201.7</ele>
        <time>2023-07-02T09:18:54+0200</time>
      </trkpt>
      <trkpt lat="44.96335" lon="6.57781">
        <ele>2201.9</ele>
        <time>2023-07-02T09:18:57+0200</time>
      </trkpt>
      <trkpt lat="44.96332" lon="6.57776">
        <ele>2202.3</ele>
        <time>2023-07-02T09:18:59+0200</time>
      </trkpt>
      <trkpt lat="44.96329" lon="6.5777">
        <ele>2203.3</ele>
        <time>2023-07-02T09:19:02+0200</time>
      </trkpt>
      <trkpt lat="44.96325" lon="6.57764">
        <ele>2204</ele>
        <time>2023-07-02T09:19:05+0200</time>
      </trkpt>
      <trkpt lat="44.96322" lon="6.57757">
        <ele>2204.6</ele>
        <time>2023-07-02T09:19:08+0200</time>
      </trkpt>
      <trkpt lat="44.96319" lon="6.57752">
        <ele>2204.8</ele>
        <time>2023-07-02T09:19:10+0200</time>
      </trkpt>
      <trkpt lat="44.96315" lon="6.57742">
        <ele>2205.1</ele>
        <time>2023-07-02T09:19:13+0200</time>
      </trkpt>
      <trkpt lat="44.96312" lon="6.57735">
        <ele>2205.2</ele>
        <time>2023-07-02T09:19:15+0200</time>
      </trkpt>
      <trkpt lat="44.96313" lon="6.57725">
        <ele>2205.7</ele>
        <time>2023-07-02T09:19:18+0200</time>
      </trkpt>
      <trkpt lat="44.96314" lon="6.57716">
        <ele>2206.2</ele>
        <time>2023-07-02T09:19:21+0200</time>
      </trkpt>
      <trkpt lat="44.96315" lon="6.57709">
        <ele>2206.7</ele>
        <time>2023-07-02T09:19:23+0200</time>
      </trkpt>
      <trkpt lat="44.96314" lon="6.57703">
        <ele>2206.8</ele>
        <time>2023-07-02T09:19:25+0200</time>
      </trkpt>
      <trkpt lat="44.96313" lon="6.57695">
        <ele>2206.6</ele>
        <time>2023-07-02T09:19:27+0200</time>
      </trkpt>
      <trkpt lat="44.96311" lon="6.57687">
        <ele>2206.9</ele>
        <time>2023-07-02T09:19:30+0200</time>
      </trkpt>
      <trkpt lat="44.96308" lon="6.57681">
        <ele>2206.6</ele>
        <time>2023-07-02T09:19:33+0200</time>
      </trkpt>
      <trkpt lat="44.96307" lon="6.57672">
        <ele>2207.7</ele>
        <time>2023-07-02T09:19:36+0200</time>
      </trkpt>
      <trkpt lat="44.96305" lon="6.57662">
        <ele>2208.3</ele>
        <time>2023-07-02T09:19:39+0200</time>
      </trkpt>
      <trkpt lat="44.96302" lon="6.57656">
        <ele>2208.3</ele>
        <time>2023-07-02T09:19:41+0200</time>
      </trkpt>
      <trkpt lat="44.963" lon="6.57647">
        <ele>2208.5</ele>
        <time>2023-07-02T09:19:44+0200</time>
      </trkpt>
      <trkpt lat="44.96298" lon="6.5764">
        <ele>2208.9</ele>
        <time>2023-07-02T09:19:47+0200</time>
      </trkpt>
      <trkpt lat="44.96298" lon="6.57632">
        <ele>2209.6</ele>
        <time>2023-07-02T09:19:50+0200</time>
      </trkpt>
      <trkpt lat="44.96295" lon="6.57623">
        <ele>2209.6</ele>
        <time>2023-07-02T09:19:53+0200</time>
      </trkpt>
      <trkpt lat="44.96295" lon="6.57616">
        <ele>2210.8</ele>
        <time>2023-07-02T09:19:55+0200</time>
      </trkpt>
      <trkpt lat="44.96296" lon="6.57609">
        <ele>2212.1</ele>
        <time>2023-07-02T09:19:58+0200</time>
      </trkpt>
      <trkpt lat="44.96294" lon="6.57601">
        <ele>2213.5</ele>
        <time>2023-07-02T09:20:01+0200</time>
      </trkpt>
      <trkpt lat="44.96292" lon="6.57594">
        <ele>2214.2</ele>
        <time>2023-07-02T09:20:04+0200</time>
      </trkpt>
      <trkpt lat="44.96288" lon="6.57589">
        <ele>2214.4</ele>
        <time>2023-07-02T09:20:07+0200</time>
      </trkpt>
      <trkpt lat="44.96285" lon="6.57583">
        <ele>2214.8</ele>
        <time>2023-07-02T09:20:10+0200</time>
      </trkpt>
      <trkpt lat="44.96282" lon="6.57579">
        <ele>2214.3</ele>
        <time>2023-07-02T09:20:12+0200</time>
      </trkpt>
      <trkpt lat="44.96279" lon="6.57572">
        <ele>2214.4</ele>
        <time>2023-07-02T09:20:15+0200</time>
      </trkpt>
      <trkpt lat="44.96274" lon="6.57567">
        <ele>2213.3</ele>
        <time>2023-07-02T09:20:18+0200</time>
      </trkpt>
      <trkpt lat="44.96272" lon="6.57561">
        <ele>2212.7</ele>
        <time>2023-07-02T09:20:21+0200</time>
      </trkpt>
      <trkpt lat="44.9627" lon="6.57553">
        <ele>2212.2</ele>
        <time>2023-07-02T09:20:24+0200</time>
      </trkpt>
      <trkpt lat="44.96272" lon="6.57546">
        <ele>2212.1</ele>
        <time>2023-07-02T09:20:26+0200</time>
      </trkpt>
      <trkpt lat="44.96278" lon="6.57539">
        <ele>2213.9</ele>
        <time>2023-07-02T09:20:29+0200</time>
      </trkpt>
      <trkpt lat="44.96281" lon="6.57535">
        <ele>2214.7</ele>
        <time>2023-07-02T09:20:31+0200</time>
      </trkpt>
      <trkpt lat="44.96285" lon="6.5753">
        <ele>2215.5</ele>
        <time>2023-07-02T09:20:33+0200</time>
      </trkpt>
      <trkpt lat="44.96289" lon="6.57526">
        <ele>2216.3</ele>
        <time>2023-07-02T09:20:35+0200</time>
      </trkpt>
      <trkpt lat="44.96291" lon="6.57521">
        <ele>2215.8</ele>
        <time>2023-07-02T09:20:37+0200</time>
      </trkpt>
      <trkpt lat="44.96295" lon="6.57515">
        <ele>2216.4</ele>
        <time>2023-07-02T09:20:41+0200</time>
      </trkpt>
      <trkpt lat="44.96301" lon="6.57513">
        <ele>2218.7</ele>
        <time>2023-07-02T09:20:44+0200</time>
      </trkpt>
      <trkpt lat="44.96306" lon="6.57509">
        <ele>2220</ele>
        <time>2023-07-02T09:20:47+0200</time>
      </trkpt>
      <trkpt lat="44.9631" lon="6.57503">
        <ele>2220.3</ele>
        <time>2023-07-02T09:20:50+0200</time>
      </trkpt>
      <trkpt lat="44.96313" lon="6.57498">
        <ele>2220.1</ele>
        <time>2023-07-02T09:20:53+0200</time>
      </trkpt>
      <trkpt lat="44.96317" lon="6.57493">
        <ele>2220.5</ele>
        <time>2023-07-02T09:20:55+0200</time>
      </trkpt>
      <trkpt lat="44.96322" lon="6.57487">
        <ele>2220.8</ele>
        <time>2023-07-02T09:20:58+0200</time>
      </trkpt>
      <trkpt lat="44.96326" lon="6.57482">
        <ele>2221.4</ele>
        <time>2023-07-02T09:21:01+0200</time>
      </trkpt>
      <trkpt lat="44.9633" lon="6.57476">
        <ele>2222.2</ele>
        <time>2023-07-02T09:21:04+0200</time>
      </trkpt>
      <trkpt lat="44.96335" lon="6.57472">
        <ele>2223.3</ele>
        <time>2023-07-02T09:21:07+0200</time>
      </trkpt>
      <trkpt lat="44.96338" lon="6.57468">
        <ele>2223.6</ele>
        <time>2023-07-02T09:21:10+0200</time>
      </trkpt>
      <trkpt lat="44.96343" lon="6.57464">
        <ele>2224.1</ele>
        <time>2023-07-02T09:21:13+0200</time>
      </trkpt>
      <trkpt lat="44.96348" lon="6.57458">
        <ele>2224.5</ele>
        <time>2023-07-02T09:21:16+0200</time>
      </trkpt>
      <trkpt lat="44.96352" lon="6.57452">
        <ele>2224.2</ele>
        <time>2023-07-02T09:21:19+0200</time>
      </trkpt>
      <trkpt lat="44.96357" lon="6.57449">
        <ele>2225.7</ele>
        <time>2023-07-02T09:21:22+0200</time>
      </trkpt>
      <trkpt lat="44.96361" lon="6.57445">
        <ele>2225.9</ele>
        <time>2023-07-02T09:21:24+0200</time>
      </trkpt>
      <trkpt lat="44.96366" lon="6.57438">
        <ele>2225.7</ele>
        <time>2023-07-02T09:21:27+0200</time>
      </trkpt>
      <trkpt lat="44.9637" lon="6.57434">
        <ele>2225.9</ele>
        <time>2023-07-02T09:21:29+0200</time>
      </trkpt>
      <trkpt lat="44.96375" lon="6.57429">
        <ele>2226.4</ele>
        <time>2023-07-02T09:21:32+0200</time>
      </trkpt>
      <trkpt lat="44.96379" lon="6.57424">
        <ele>2226.6</ele>
        <time>2023-07-02T09:21:34+0200</time>
      </trkpt>
      <trkpt lat="44.96382" lon="6.57419">
        <ele>2226.8</ele>
        <time>2023-07-02T09:21:37+0200</time>
      </trkpt>
      <trkpt lat="44.96387" lon="6.57413">
        <ele>2226.9</ele>
        <time>2023-07-02T09:21:40+0200</time>
      </trkpt>
      <trkpt lat="44.9639" lon="6.57409">
        <ele>2226.7</ele>
        <time>2023-07-02T09:21:42+0200</time>
      </trkpt>
      <trkpt lat="44.96395" lon="6.57405">
        <ele>2226.9</ele>
        <time>2023-07-02T09:21:45+0200</time>
      </trkpt>
      <trkpt lat="44.964" lon="6.57401">
        <ele>2227</ele>
        <time>2023-07-02T09:21:47+0200</time>
      </trkpt>
      <trkpt lat="44.96404" lon="6.57399">
        <ele>2227.7</ele>
        <time>2023-07-02T09:21:49+0200</time>
      </trkpt>
      <trkpt lat="44.96409" lon="6.57399">
        <ele>2229.1</ele>
        <time>2023-07-02T09:21:51+0200</time>
      </trkpt>
      <trkpt lat="44.96415" lon="6.57395">
        <ele>2229.5</ele>
        <time>2023-07-02T09:21:53+0200</time>
      </trkpt>
      <trkpt lat="44.9642" lon="6.57392">
        <ele>2229.6</ele>
        <time>2023-07-02T09:21:55+0200</time>
      </trkpt>
      <trkpt lat="44.96424" lon="6.57389">
        <ele>2229.5</ele>
        <time>2023-07-02T09:21:57+0200</time>
      </trkpt>
      <trkpt lat="44.9643" lon="6.57388">
        <ele>2230</ele>
        <time>2023-07-02T09:21:59+0200</time>
      </trkpt>
      <trkpt lat="44.96435" lon="6.57385">
        <ele>2230.2</ele>
        <time>2023-07-02T09:22:01+0200</time>
      </trkpt>
      <trkpt lat="44.96441" lon="6.57381">
        <ele>2230.4</ele>
        <time>2023-07-02T09:22:03+0200</time>
      </trkpt>
      <trkpt lat="44.96445" lon="6.57378">
        <ele>2230.3</ele>
        <time>2023-07-02T09:22:05+0200</time>
      </trkpt>
      <trkpt lat="44.96451" lon="6.57375">
        <ele>2229.8</ele>
        <time>2023-07-02T09:22:07+0200</time>
      </trkpt>
      <trkpt lat="44.96456" lon="6.57372">
        <ele>2229.4</ele>
        <time>2023-07-02T09:22:09+0200</time>
      </trkpt>
      <trkpt lat="44.96462" lon="6.57371">
        <ele>2229.5</ele>
        <time>2023-07-02T09:22:11+0200</time>
      </trkpt>
      <trkpt lat="44.96468" lon="6.5737">
        <ele>2229.7</ele>
        <time>2023-07-02T09:22:13+0200</time>
      </trkpt>
      <trkpt lat="44.96475" lon="6.57371">
        <ele>2230.2</ele>
        <time>2023-07-02T09:22:15+0200</time>
      </trkpt>
      <trkpt lat="44.96482" lon="6.57373">
        <ele>2230.9</ele>
        <time>2023-07-02T09:22:17+0200</time>
      </trkpt>
      <trkpt lat="44.96487" lon="6.57374">
        <ele>2231.4</ele>
        <time>2023-07-02T09:22:19+0200</time>
      </trkpt>
      <trkpt lat="44.96492" lon="6.57376">
        <ele>2232.2</ele>
        <time>2023-07-02T09:22:21+0200</time>
      </trkpt>
      <trkpt lat="44.96498" lon="6.57377">
        <ele>2232.7</ele>
        <time>2023-07-02T09:22:22+0200</time>
      </trkpt>
      <trkpt lat="44.96503" lon="6.57377">
        <ele>2233</ele>
        <time>2023-07-02T09:22:24+0200</time>
      </trkpt>
      <trkpt lat="44.9651" lon="6.57377">
        <ele>2233.3</ele>
        <time>2023-07-02T09:22:27+0200</time>
      </trkpt>
      <trkpt lat="44.96516" lon="6.57374">
        <ele>2232.9</ele>
        <time>2023-07-02T09:22:29+0200</time>
      </trkpt>
      <trkpt lat="44.96521" lon="6.57374">
        <ele>2233.2</ele>
        <time>2023-07-02T09:22:31+0200</time>
      </trkpt>
      <trkpt lat="44.96527" lon="6.57373">
        <ele>2233.3</ele>
        <time>2023-07-02T09:22:33+0200</time>
      </trkpt>
      <trkpt lat="44.96532" lon="6.57372">
        <ele>2233.5</ele>
        <time>2023-07-02T09:22:35+0200</time>
      </trkpt>
      <trkpt lat="44.96538" lon="6.57373">
        <ele>2234.4</ele>
        <time>2023-07-02T09:22:37+0200</time>
      </trkpt>
      <trkpt lat="44.96544" lon="6.57372">
        <ele>2235</ele>
        <time>2023-07-02T09:22:39+0200</time>
      </trkpt>
      <trkpt lat="44.96549" lon="6.57371">
        <ele>2235.3</ele>
        <time>2023-07-02T09:22:41+0200</time>
      </trkpt>
      <trkpt lat="44.96556" lon="6.5737">
        <ele>2235.6</ele>
        <time>2023-07-02T09:22:43+0200</time>
      </trkpt>
      <trkpt lat="44.96562" lon="6.57369">
        <ele>2236.5</ele>
        <time>2023-07-02T09:22:46+0200</time>
      </trkpt>
      <trkpt lat="44.9657" lon="6.57366">
        <ele>2236.8</ele>
        <time>2023-07-02T09:22:48+0200</time>
      </trkpt>
      <trkpt lat="44.96575" lon="6.57364">
        <ele>2236.6</ele>
        <time>2023-07-02T09:22:50+0200</time>
      </trkpt>
      <trkpt lat="44.96581" lon="6.57359">
        <ele>2235.9</ele>
        <time>2023-07-02T09:22:52+0200</time>
      </trkpt>
      <trkpt lat="44.96587" lon="6.57355">
        <ele>2236.2</ele>
        <time>2023-07-02T09:22:54+0200</time>
      </trkpt>
      <trkpt lat="44.96591" lon="6.57352">
        <ele>2237</ele>
        <time>2023-07-02T09:22:55+0200</time>
      </trkpt>
      <trkpt lat="44.96595" lon="6.57345">
        <ele>2236.7</ele>
        <time>2023-07-02T09:22:57+0200</time>
      </trkpt>
      <trkpt lat="44.96602" lon="6.57336">
        <ele>2235.9</ele>
        <time>2023-07-02T09:22:59+0200</time>
      </trkpt>
      <trkpt lat="44.96607" lon="6.57329">
        <ele>2235.6</ele>
        <time>2023-07-02T09:23:01+0200</time>
      </trkpt>
      <trkpt lat="44.9661" lon="6.57324">
        <ele>2235.3</ele>
        <time>2023-07-02T09:23:02+0200</time>
      </trkpt>
      <trkpt lat="44.96615" lon="6.57316">
        <ele>2235.2</ele>
        <time>2023-07-02T09:23:04+0200</time>
      </trkpt>
      <trkpt lat="44.9662" lon="6.57307">
        <ele>2234.3</ele>
        <time>2023-07-02T09:23:06+0200</time>
      </trkpt>
      <trkpt lat="44.96624" lon="6.57301">
        <ele>2234.4</ele>
        <time>2023-07-02T09:23:07+0200</time>
      </trkpt>
      <trkpt lat="44.96629" lon="6.57291">
        <ele>2233.7</ele>
        <time>2023-07-02T09:23:09+0200</time>
      </trkpt>
      <trkpt lat="44.96635" lon="6.57284">
        <ele>2233.9</ele>
        <time>2023-07-02T09:23:11+0200</time>
      </trkpt>
      <trkpt lat="44.96637" lon="6.57275">
        <ele>2232.8</ele>
        <time>2023-07-02T09:23:12+0200</time>
      </trkpt>
      <trkpt lat="44.9664" lon="6.5727">
        <ele>2233.3</ele>
        <time>2023-07-02T09:23:13+0200</time>
      </trkpt>
      <trkpt lat="44.96641" lon="6.57263">
        <ele>2232.8</ele>
        <time>2023-07-02T09:23:14+0200</time>
      </trkpt>
      <trkpt lat="44.96642" lon="6.57257">
        <ele>2232.6</ele>
        <time>2023-07-02T09:23:15+0200</time>
      </trkpt>
      <trkpt lat="44.96646" lon="6.57246">
        <ele>2232.8</ele>
        <time>2023-07-02T09:23:17+0200</time>
      </trkpt>
      <trkpt lat="44.96652" lon="6.57236">
        <ele>2233.3</ele>
        <time>2023-07-02T09:23:19+0200</time>
      </trkpt>
      <trkpt lat="44.96654" lon="6.57231">
        <ele>2233.3</ele>
        <time>2023-07-02T09:23:20+0200</time>
      </trkpt>
      <trkpt lat="44.96659" lon="6.57222">
        <ele>2233.6</ele>
        <time>2023-07-02T09:23:22+0200</time>
      </trkpt>
      <trkpt lat="44.96663" lon="6.57217">
        <ele>2233.7</ele>
        <time>2023-07-02T09:23:23+0200</time>
      </trkpt>
      <trkpt lat="44.96668" lon="6.5721">
        <ele>2234.1</ele>
        <time>2023-07-02T09:23:25+0200</time>
      </trkpt>
      <trkpt lat="44.96672" lon="6.57206">
        <ele>2234.5</ele>
        <time>2023-07-02T09:23:26+0200</time>
      </trkpt>
      <trkpt lat="44.96677" lon="6.57198">
        <ele>2234.1</ele>
        <time>2023-07-02T09:23:28+0200</time>
      </trkpt>
      <trkpt lat="44.96681" lon="6.57193">
        <ele>2234.3</ele>
        <time>2023-07-02T09:23:29+0200</time>
      </trkpt>
      <trkpt lat="44.96685" lon="6.57184">
        <ele>2234.1</ele>
        <time>2023-07-02T09:23:31+0200</time>
      </trkpt>
      <trkpt lat="44.96689" lon="6.57178">
        <ele>2234.3</ele>
        <time>2023-07-02T09:23:33+0200</time>
      </trkpt>
      <trkpt lat="44.96693" lon="6.57171">
        <ele>2234.4</ele>
        <time>2023-07-02T09:23:35+0200</time>
      </trkpt>
      <trkpt lat="44.96697" lon="6.57163">
        <ele>2234.8</ele>
        <time>2023-07-02T09:23:37+0200</time>
      </trkpt>
      <trkpt lat="44.967" lon="6.57158">
        <ele>2235.3</ele>
        <time>2023-07-02T09:23:39+0200</time>
      </trkpt>
      <trkpt lat="44.96704" lon="6.57151">
        <ele>2235.6</ele>
        <time>2023-07-02T09:23:41+0200</time>
      </trkpt>
      <trkpt lat="44.96709" lon="6.57144">
        <ele>2236.7</ele>
        <time>2023-07-02T09:23:44+0200</time>
      </trkpt>
      <trkpt lat="44.96712" lon="6.57138">
        <ele>2237</ele>
        <time>2023-07-02T09:23:47+0200</time>
      </trkpt>
      <trkpt lat="44.96715" lon="6.57132">
        <ele>2237.6</ele>
        <time>2023-07-02T09:23:50+0200</time>
      </trkpt>
      <trkpt lat="44.96718" lon="6.57126">
        <ele>2238.3</ele>
        <time>2023-07-02T09:23:52+0200</time>
      </trkpt>
      <trkpt lat="44.96722" lon="6.5712">
        <ele>2238.9</ele>
        <time>2023-07-02T09:23:55+0200</time>
      </trkpt>
      <trkpt lat="44.96724" lon="6.57114">
        <ele>2239.3</ele>
        <time>2023-07-02T09:23:57+0200</time>
      </trkpt>
      <trkpt lat="44.96725" lon="6.57107">
        <ele>2239.6</ele>
        <time>2023-07-02T09:23:59+0200</time>
      </trkpt>
      <trkpt lat="44.96728" lon="6.57098">
        <ele>2240.6</ele>
        <time>2023-07-02T09:24:02+0200</time>
      </trkpt>
      <trkpt lat="44.96729" lon="6.57091">
        <ele>2241.4</ele>
        <time>2023-07-02T09:24:05+0200</time>
      </trkpt>
      <trkpt lat="44.96732" lon="6.57083">
        <ele>2242.6</ele>
        <time>2023-07-02T09:24:08+0200</time>
      </trkpt>
      <trkpt lat="44.96735" lon="6.57074">
        <ele>2243.3</ele>
        <time>2023-07-02T09:24:11+0200</time>
      </trkpt>
      <trkpt lat="44.96738" lon="6.57066">
        <ele>2244.1</ele>
        <time>2023-07-02T09:24:14+0200</time>
      </trkpt>
      <trkpt lat="44.9674" lon="6.57061">
        <ele>2244.6</ele>
        <time>2023-07-02T09:24:16+0200</time>
      </trkpt>
      <trkpt lat="44.96742" lon="6.57051">
        <ele>2244.5</ele>
        <time>2023-07-02T09:24:19+0200</time>
      </trkpt>
      <trkpt lat="44.96746" lon="6.57043">
        <ele>2245.5</ele>
        <time>2023-07-02T09:24:21+0200</time>
      </trkpt>
      <trkpt lat="44.96747" lon="6.57037">
        <ele>2245.6</ele>
        <time>2023-07-02T09:24:23+0200</time>
      </trkpt>
      <trkpt lat="44.96749" lon="6.57031">
        <ele>2245.7</ele>
        <time>2023-07-02T09:24:25+0200</time>
      </trkpt>
      <trkpt lat="44.96751" lon="6.57024">
        <ele>2246.2</ele>
        <time>2023-07-02T09:24:28+0200</time>
      </trkpt>
      <trkpt lat="44.96754" lon="6.57018">
        <ele>2247.2</ele>
        <time>2023-07-02T09:24:30+0200</time>
      </trkpt>
      <trkpt lat="44.96756" lon="6.57012">
        <ele>2248</ele>
        <time>2023-07-02T09:24:32+0200</time>
      </trkpt>
      <trkpt lat="44.96758" lon="6.57006">
        <ele>2248.3</ele>
        <time>2023-07-02T09:24:34+0200</time>
      </trkpt>
      <trkpt lat="44.96762" lon="6.56997">
        <ele>2249.8</ele>
        <time>2023-07-02T09:24:37+0200</time>
      </trkpt>
      <trkpt lat="44.96763" lon="6.56991">
        <ele>2249.9</ele>
        <time>2023-07-02T09:24:39+0200</time>
      </trkpt>
      <trkpt lat="44.96767" lon="6.56984">
        <ele>2250.8</ele>
        <time>2023-07-02T09:24:42+0200</time>
      </trkpt>
      <trkpt lat="44.96768" lon="6.56977">
        <ele>2250.4</ele>
        <time>2023-07-02T09:24:44+0200</time>
      </trkpt>
      <trkpt lat="44.9677" lon="6.56971">
        <ele>2250.5</ele>
        <time>2023-07-02T09:24:47+0200</time>
      </trkpt>
      <trkpt lat="44.96771" lon="6.56964">
        <ele>2250.7</ele>
        <time>2023-07-02T09:24:49+0200</time>
      </trkpt>
      <trkpt lat="44.96773" lon="6.56958">
        <ele>2251</ele>
        <time>2023-07-02T09:24:52+0200</time>
      </trkpt>
      <trkpt lat="44.96774" lon="6.56951">
        <ele>2251</ele>
        <time>2023-07-02T09:24:55+0200</time>
      </trkpt>
      <trkpt lat="44.96776" lon="6.56942">
        <ele>2251</ele>
        <time>2023-07-02T09:24:58+0200</time>
      </trkpt>
      <trkpt lat="44.96778" lon="6.56936">
        <ele>2251.5</ele>
        <time>2023-07-02T09:25:00+0200</time>
      </trkpt>
      <trkpt lat="44.96779" lon="6.56927">
        <ele>2251.2</ele>
        <time>2023-07-02T09:25:03+0200</time>
      </trkpt>
      <trkpt lat="44.9678" lon="6.5692">
        <ele>2251.3</ele>
        <time>2023-07-02T09:25:05+0200</time>
      </trkpt>
      <trkpt lat="44.96783" lon="6.56913">
        <ele>2251.9</ele>
        <time>2023-07-02T09:25:08+0200</time>
      </trkpt>
      <trkpt lat="44.96785" lon="6.56906">
        <ele>2251.8</ele>
        <time>2023-07-02T09:25:11+0200</time>
      </trkpt>
      <trkpt lat="44.96788" lon="6.56901">
        <ele>2252.2</ele>
        <time>2023-07-02T09:25:13+0200</time>
      </trkpt>
      <trkpt lat="44.9679" lon="6.56894">
        <ele>2252.3</ele>
        <time>2023-07-02T09:25:15+0200</time>
      </trkpt>
      <trkpt lat="44.96794" lon="6.56887">
        <ele>2252.9</ele>
        <time>2023-07-02T09:25:18+0200</time>
      </trkpt>
      <trkpt lat="44.96797" lon="6.56882">
        <ele>2252.9</ele>
        <time>2023-07-02T09:25:20+0200</time>
      </trkpt>
      <trkpt lat="44.96801" lon="6.56875">
        <ele>2253</ele>
        <time>2023-07-02T09:25:23+0200</time>
      </trkpt>
      <trkpt lat="44.96804" lon="6.5687">
        <ele>2253.1</ele>
        <time>2023-07-02T09:25:25+0200</time>
      </trkpt>
      <trkpt lat="44.96808" lon="6.56863">
        <ele>2253.3</ele>
        <time>2023-07-02T09:25:27+0200</time>
      </trkpt>
      <trkpt lat="44.96811" lon="6.56858">
        <ele>2253.2</ele>
        <time>2023-07-02T09:25:29+0200</time>
      </trkpt>
      <trkpt lat="44.96815" lon="6.56855">
        <ele>2253.8</ele>
        <time>2023-07-02T09:25:31+0200</time>
      </trkpt>
      <trkpt lat="44.9682" lon="6.5685">
        <ele>2254.2</ele>
        <time>2023-07-02T09:25:34+0200</time>
      </trkpt>
      <trkpt lat="44.96826" lon="6.56845">
        <ele>2254.7</ele>
        <time>2023-07-02T09:25:37+0200</time>
      </trkpt>
      <trkpt lat="44.96832" lon="6.56843">
        <ele>2256.2</ele>
        <time>2023-07-02T09:25:40+0200</time>
      </trkpt>
      <trkpt lat="44.96837" lon="6.56839">
        <ele>2257.1</ele>
        <time>2023-07-02T09:25:44+0200</time>
      </trkpt>
      <trkpt lat="44.96842" lon="6.56837">
        <ele>2258.3</ele>
        <time>2023-07-02T09:25:47+0200</time>
      </trkpt>
      <trkpt lat="44.96847" lon="6.56832">
        <ele>2259.1</ele>
        <time>2023-07-02T09:25:50+0200</time>
      </trkpt>
      <trkpt lat="44.96851" lon="6.56826">
        <ele>2259.6</ele>
        <time>2023-07-02T09:25:53+0200</time>
      </trkpt>
      <trkpt lat="44.96855" lon="6.56819">
        <ele>2260</ele>
        <time>2023-07-02T09:25:56+0200</time>
      </trkpt>
      <trkpt lat="44.96858" lon="6.56812">
        <ele>2259.8</ele>
        <time>2023-07-02T09:25:59+0200</time>
      </trkpt>
      <trkpt lat="44.96861" lon="6.56805">
        <ele>2259.7</ele>
        <time>2023-07-02T09:26:02+0200</time>
      </trkpt>
      <trkpt lat="44.96864" lon="6.56797">
        <ele>2259.8</ele>
        <time>2023-07-02T09:26:05+0200</time>
      </trkpt>
      <trkpt lat="44.96869" lon="6.5679">
        <ele>2260.7</ele>
        <time>2023-07-02T09:26:08+0200</time>
      </trkpt>
      <trkpt lat="44.96874" lon="6.56784">
        <ele>2261.8</ele>
        <time>2023-07-02T09:26:11+0200</time>
      </trkpt>
      <trkpt lat="44.96878" lon="6.56779">
        <ele>2262.6</ele>
        <time>2023-07-02T09:26:14+0200</time>
      </trkpt>
      <trkpt lat="44.96882" lon="6.56775">
        <ele>2263.3</ele>
        <time>2023-07-02T09:26:17+0200</time>
      </trkpt>
      <trkpt lat="44.96886" lon="6.56772">
        <ele>2264.5</ele>
        <time>2023-07-02T09:26:20+0200</time>
      </trkpt>
      <trkpt lat="44.9689" lon="6.56768">
        <ele>2265.4</ele>
        <time>2023-07-02T09:26:23+0200</time>
      </trkpt>
      <trkpt lat="44.96894" lon="6.56762">
        <ele>2265.8</ele>
        <time>2023-07-02T09:26:26+0200</time>
      </trkpt>
      <trkpt lat="44.96898" lon="6.56756">
        <ele>2266</ele>
        <time>2023-07-02T09:26:29+0200</time>
      </trkpt>
      <trkpt lat="44.96902" lon="6.5675">
        <ele>2266.1</ele>
        <time>2023-07-02T09:26:32+0200</time>
      </trkpt>
      <trkpt lat="44.96905" lon="6.56744">
        <ele>2266</ele>
        <time>2023-07-02T09:26:35+0200</time>
      </trkpt>
      <trkpt lat="44.96908" lon="6.56737">
        <ele>2265.7</ele>
        <time>2023-07-02T09:26:38+0200</time>
      </trkpt>
      <trkpt lat="44.96913" lon="6.56732">
        <ele>2266.6</ele>
        <time>2023-07-02T09:26:41+0200</time>
      </trkpt>
      <trkpt lat="44.96917" lon="6.56727">
        <ele>2267.1</ele>
        <time>2023-07-02T09:26:43+0200</time>
      </trkpt>
      <trkpt lat="44.96922" lon="6.5672">
        <ele>2267.5</ele>
        <time>2023-07-02T09:26:46+0200</time>
      </trkpt>
      <trkpt lat="44.96926" lon="6.56715">
        <ele>2268</ele>
        <time>2023-07-02T09:26:49+0200</time>
      </trkpt>
      <trkpt lat="44.96931" lon="6.56711">
        <ele>2268.9</ele>
        <time>2023-07-02T09:26:53+0200</time>
      </trkpt>
      <trkpt lat="44.96935" lon="6.56707">
        <ele>2269</ele>
        <time>2023-07-02T09:26:56+0200</time>
      </trkpt>
      <trkpt lat="44.96938" lon="6.56702">
        <ele>2269</ele>
        <time>2023-07-02T09:26:59+0200</time>
      </trkpt>
      <trkpt lat="44.96941" lon="6.56698">
        <ele>2268.9</ele>
        <time>2023-07-02T09:27:01+0200</time>
      </trkpt>
      <trkpt lat="44.96945" lon="6.56693">
        <ele>2269</ele>
        <time>2023-07-02T09:27:04+0200</time>
      </trkpt>
      <trkpt lat="44.9695" lon="6.56688">
        <ele>2269.5</ele>
        <time>2023-07-02T09:27:07+0200</time>
      </trkpt>
      <trkpt lat="44.96955" lon="6.56684">
        <ele>2270</ele>
        <time>2023-07-02T09:27:09+0200</time>
      </trkpt>
      <trkpt lat="44.96959" lon="6.56679">
        <ele>2270</ele>
        <time>2023-07-02T09:27:12+0200</time>
      </trkpt>
      <trkpt lat="44.96964" lon="6.56674">
        <ele>2270.1</ele>
        <time>2023-07-02T09:27:15+0200</time>
      </trkpt>
      <trkpt lat="44.96969" lon="6.56671">
        <ele>2270.4</ele>
        <time>2023-07-02T09:27:17+0200</time>
      </trkpt>
      <trkpt lat="44.96976" lon="6.5667">
        <ele>2271.7</ele>
        <time>2023-07-02T09:27:20+0200</time>
      </trkpt>
      <trkpt lat="44.96982" lon="6.56668">
        <ele>2272.3</ele>
        <time>2023-07-02T09:27:23+0200</time>
      </trkpt>
      <trkpt lat="44.96987" lon="6.56666">
        <ele>2272.6</ele>
        <time>2023-07-02T09:27:25+0200</time>
      </trkpt>
      <trkpt lat="44.96992" lon="6.56665">
        <ele>2272.8</ele>
        <time>2023-07-02T09:27:28+0200</time>
      </trkpt>
      <trkpt lat="44.96997" lon="6.56662">
        <ele>2272.6</ele>
        <time>2023-07-02T09:27:31+0200</time>
      </trkpt>
      <trkpt lat="44.97003" lon="6.56662">
        <ele>2273.4</ele>
        <time>2023-07-02T09:27:34+0200</time>
      </trkpt>
      <trkpt lat="44.97008" lon="6.5666">
        <ele>2273.9</ele>
        <time>2023-07-02T09:27:37+0200</time>
      </trkpt>
      <trkpt lat="44.97014" lon="6.5666">
        <ele>2275.1</ele>
        <time>2023-07-02T09:27:40+0200</time>
      </trkpt>
      <trkpt lat="44.97018" lon="6.56658">
        <ele>2275.2</ele>
        <time>2023-07-02T09:27:43+0200</time>
      </trkpt>
      <trkpt lat="44.97024" lon="6.56656">
        <ele>2275.5</ele>
        <time>2023-07-02T09:27:46+0200</time>
      </trkpt>
      <trkpt lat="44.97029" lon="6.56654">
        <ele>2275.8</ele>
        <time>2023-07-02T09:27:48+0200</time>
      </trkpt>
      <trkpt lat="44.97033" lon="6.56652">
        <ele>2276.4</ele>
        <time>2023-07-02T09:27:51+0200</time>
      </trkpt>
      <trkpt lat="44.97039" lon="6.56649">
        <ele>2276.6</ele>
        <time>2023-07-02T09:27:54+0200</time>
      </trkpt>
      <trkpt lat="44.97045" lon="6.56647">
        <ele>2277.5</ele>
        <time>2023-07-02T09:27:57+0200</time>
      </trkpt>
      <trkpt lat="44.9705" lon="6.56645">
        <ele>2278.1</ele>
        <time>2023-07-02T09:28:00+0200</time>
      </trkpt>
      <trkpt lat="44.97055" lon="6.56644">
        <ele>2278.7</ele>
        <time>2023-07-02T09:28:03+0200</time>
      </trkpt>
      <trkpt lat="44.9706" lon="6.56643">
        <ele>2279.7</ele>
        <time>2023-07-02T09:28:06+0200</time>
      </trkpt>
      <trkpt lat="44.97066" lon="6.5664">
        <ele>2280.2</ele>
        <time>2023-07-02T09:28:09+0200</time>
      </trkpt>
      <trkpt lat="44.97071" lon="6.56639">
        <ele>2280.9</ele>
        <time>2023-07-02T09:28:12+0200</time>
      </trkpt>
      <trkpt lat="44.97078" lon="6.56636">
        <ele>2281.5</ele>
        <time>2023-07-02T09:28:15+0200</time>
      </trkpt>
      <trkpt lat="44.97083" lon="6.56634">
        <ele>2281.8</ele>
        <time>2023-07-02T09:28:18+0200</time>
      </trkpt>
      <trkpt lat="44.97087" lon="6.56631">
        <ele>2281.9</ele>
        <time>2023-07-02T09:28:21+0200</time>
      </trkpt>
      <trkpt lat="44.97092" lon="6.5663">
        <ele>2283</ele>
        <time>2023-07-02T09:28:23+0200</time>
      </trkpt>
      <trkpt lat="44.97097" lon="6.56626">
        <ele>2283.4</ele>
        <time>2023-07-02T09:28:26+0200</time>
      </trkpt>
      <trkpt lat="44.97102" lon="6.56622">
        <ele>2283</ele>
        <time>2023-07-02T09:28:29+0200</time>
      </trkpt>
      <trkpt lat="44.97108" lon="6.56621">
        <ele>2284.5</ele>
        <time>2023-07-02T09:28:32+0200</time>
      </trkpt>
      <trkpt lat="44.97113" lon="6.56616">
        <ele>2283.5</ele>
        <time>2023-07-02T09:28:36+0200</time>
      </trkpt>
      <trkpt lat="44.9712" lon="6.56614">
        <ele>2283</ele>
        <time>2023-07-02T09:28:39+0200</time>
      </trkpt>
      <trkpt lat="44.97125" lon="6.56614">
        <ele>2283.3</ele>
        <time>2023-07-02T09:28:43+0200</time>
      </trkpt>
      <trkpt lat="44.97131" lon="6.56614">
        <ele>2284</ele>
        <time>2023-07-02T09:28:46+0200</time>
      </trkpt>
      <trkpt lat="44.97136" lon="6.56617">
        <ele>2285.4</ele>
        <time>2023-07-02T09:28:49+0200</time>
      </trkpt>
      <trkpt lat="44.9714" lon="6.5662">
        <ele>2286.8</ele>
        <time>2023-07-02T09:28:52+0200</time>
      </trkpt>
      <trkpt lat="44.97145" lon="6.56624">
        <ele>2287.6</ele>
        <time>2023-07-02T09:28:55+0200</time>
      </trkpt>
      <trkpt lat="44.9715" lon="6.56628">
        <ele>2288.1</ele>
        <time>2023-07-02T09:28:59+0200</time>
      </trkpt>
      <trkpt lat="44.97155" lon="6.56632">
        <ele>2288.8</ele>
        <time>2023-07-02T09:29:02+0200</time>
      </trkpt>
      <trkpt lat="44.97161" lon="6.56639">
        <ele>2290.5</ele>
        <time>2023-07-02T09:29:06+0200</time>
      </trkpt>
      <trkpt lat="44.97165" lon="6.56643">
        <ele>2290.7</ele>
        <time>2023-07-02T09:29:09+0200</time>
      </trkpt>
      <trkpt lat="44.97171" lon="6.56646">
        <ele>2291.5</ele>
        <time>2023-07-02T09:29:12+0200</time>
      </trkpt>
      <trkpt lat="44.97176" lon="6.56647">
        <ele>2292.4</ele>
        <time>2023-07-02T09:29:15+0200</time>
      </trkpt>
      <trkpt lat="44.97182" lon="6.56646">
        <ele>2292.8</ele>
        <time>2023-07-02T09:29:18+0200</time>
      </trkpt>
      <trkpt lat="44.97187" lon="6.56642">
        <ele>2292.8</ele>
        <time>2023-07-02T09:29:21+0200</time>
      </trkpt>
      <trkpt lat="44.97192" lon="6.56638">
        <ele>2292.3</ele>
        <time>2023-07-02T09:29:24+0200</time>
      </trkpt>
      <trkpt lat="44.97194" lon="6.56632">
        <ele>2291.3</ele>
        <time>2023-07-02T09:29:26+0200</time>
      </trkpt>
      <trkpt lat="44.97198" lon="6.56627">
        <ele>2291.7</ele>
        <time>2023-07-02T09:29:29+0200</time>
      </trkpt>
      <trkpt lat="44.97202" lon="6.56622">
        <ele>2291.8</ele>
        <time>2023-07-02T09:29:31+0200</time>
      </trkpt>
      <trkpt lat="44.97206" lon="6.56615">
        <ele>2292</ele>
        <time>2023-07-02T09:29:34+0200</time>
      </trkpt>
      <trkpt lat="44.9721" lon="6.56612">
        <ele>2293.1</ele>
        <time>2023-07-02T09:29:36+0200</time>
      </trkpt>
      <trkpt lat="44.97216" lon="6.56608">
        <ele>2294.2</ele>
        <time>2023-07-02T09:29:39+0200</time>
      </trkpt>
      <trkpt lat="44.9722" lon="6.56603">
        <ele>2294.5</ele>
        <time>2023-07-02T09:29:41+0200</time>
      </trkpt>
      <trkpt lat="44.97223" lon="6.56599">
        <ele>2294.8</ele>
        <time>2023-07-02T09:29:43+0200</time>
      </trkpt>
      <trkpt lat="44.97226" lon="6.56594">
        <ele>2294.9</ele>
        <time>2023-07-02T09:29:45+0200</time>
      </trkpt>
      <trkpt lat="44.9723" lon="6.56589">
        <ele>2295.4</ele>
        <time>2023-07-02T09:29:47+0200</time>
      </trkpt>
      <trkpt lat="44.97235" lon="6.56582">
        <ele>2295.5</ele>
        <time>2023-07-02T09:29:50+0200</time>
      </trkpt>
      <trkpt lat="44.97238" lon="6.56578">
        <ele>2295.8</ele>
        <time>2023-07-02T09:29:52+0200</time>
      </trkpt>
      <trkpt lat="44.97243" lon="6.56572">
        <ele>2296.4</ele>
        <time>2023-07-02T09:29:55+0200</time>
      </trkpt>
      <trkpt lat="44.97246" lon="6.56567">
        <ele>2297.1</ele>
        <time>2023-07-02T09:29:57+0200</time>
      </trkpt>
      <trkpt lat="44.9725" lon="6.5656">
        <ele>2297.3</ele>
        <time>2023-07-02T09:30:00+0200</time>
      </trkpt>
      <trkpt lat="44.97253" lon="6.56556">
        <ele>2297.5</ele>
        <time>2023-07-02T09:30:02+0200</time>
      </trkpt>
      <trkpt lat="44.97256" lon="6.56551">
        <ele>2297.8</ele>
        <time>2023-07-02T09:30:04+0200</time>
      </trkpt>
      <trkpt lat="44.9726" lon="6.56545">
        <ele>2298.1</ele>
        <time>2023-07-02T09:30:06+0200</time>
      </trkpt>
      <trkpt lat="44.97262" lon="6.56538">
        <ele>2297.8</ele>
        <time>2023-07-02T09:30:09+0200</time>
      </trkpt>
      <trkpt lat="44.97266" lon="6.56532">
        <ele>2298.4</ele>
        <time>2023-07-02T09:30:11+0200</time>
      </trkpt>
      <trkpt lat="44.97269" lon="6.56527">
        <ele>2299.1</ele>
        <time>2023-07-02T09:30:13+0200</time>
      </trkpt>
      <trkpt lat="44.97274" lon="6.56521">
        <ele>2300.1</ele>
        <time>2023-07-02T09:30:16+0200</time>
      </trkpt>
      <trkpt lat="44.97277" lon="6.56514">
        <ele>2299.6</ele>
        <time>2023-07-02T09:30:19+0200</time>
      </trkpt>
      <trkpt lat="44.97281" lon="6.56509">
        <ele>2300.2</ele>
        <time>2023-07-02T09:30:21+0200</time>
      </trkpt>
      <trkpt lat="44.97285" lon="6.56505">
        <ele>2301.3</ele>
        <time>2023-07-02T09:30:24+0200</time>
      </trkpt>
      <trkpt lat="44.97288" lon="6.565">
        <ele>2302</ele>
        <time>2023-07-02T09:30:27+0200</time>
      </trkpt>
      <trkpt lat="44.97292" lon="6.56495">
        <ele>2302.5</ele>
        <time>2023-07-02T09:30:30+0200</time>
      </trkpt>
      <trkpt lat="44.97296" lon="6.5649">
        <ele>2302.8</ele>
        <time>2023-07-02T09:30:33+0200</time>
      </trkpt>
      <trkpt lat="44.97301" lon="6.56482">
        <ele>2302.9</ele>
        <time>2023-07-02T09:30:36+0200</time>
      </trkpt>
      <trkpt lat="44.97307" lon="6.56478">
        <ele>2303.8</ele>
        <time>2023-07-02T09:30:39+0200</time>
      </trkpt>
      <trkpt lat="44.97311" lon="6.56474">
        <ele>2303.4</ele>
        <time>2023-07-02T09:30:41+0200</time>
      </trkpt>
      <trkpt lat="44.97316" lon="6.56472">
        <ele>2304.2</ele>
        <time>2023-07-02T09:30:44+0200</time>
      </trkpt>
      <trkpt lat="44.97322" lon="6.56468">
        <ele>2304.4</ele>
        <time>2023-07-02T09:30:47+0200</time>
      </trkpt>
      <trkpt lat="44.97326" lon="6.56466">
        <ele>2305.4</ele>
        <time>2023-07-02T09:30:48+0200</time>
      </trkpt>
      <trkpt lat="44.97332" lon="6.56463">
        <ele>2305.8</ele>
        <time>2023-07-02T09:30:52+0200</time>
      </trkpt>
      <trkpt lat="44.97337" lon="6.56461">
        <ele>2306.6</ele>
        <time>2023-07-02T09:30:55+0200</time>
      </trkpt>
      <trkpt lat="44.97342" lon="6.56459">
        <ele>2307</ele>
        <time>2023-07-02T09:30:57+0200</time>
      </trkpt>
      <trkpt lat="44.97348" lon="6.56456">
        <ele>2307.5</ele>
        <time>2023-07-02T09:31:00+0200</time>
      </trkpt>
      <trkpt lat="44.97352" lon="6.56452">
        <ele>2307.6</ele>
        <time>2023-07-02T09:31:02+0200</time>
      </trkpt>
      <trkpt lat="44.97356" lon="6.5645">
        <ele>2308</ele>
        <time>2023-07-02T09:31:05+0200</time>
      </trkpt>
      <trkpt lat="44.97361" lon="6.56443">
        <ele>2307.6</ele>
        <time>2023-07-02T09:31:08+0200</time>
      </trkpt>
      <trkpt lat="44.97365" lon="6.56439">
        <ele>2308.2</ele>
        <time>2023-07-02T09:31:12+0200</time>
      </trkpt>
      <trkpt lat="44.97369" lon="6.56433">
        <ele>2308.5</ele>
        <time>2023-07-02T09:31:15+0200</time>
      </trkpt>
      <trkpt lat="44.97372" lon="6.56428">
        <ele>2308.6</ele>
        <time>2023-07-02T09:31:18+0200</time>
      </trkpt>
      <trkpt lat="44.97376" lon="6.56424">
        <ele>2308.7</ele>
        <time>2023-07-02T09:31:20+0200</time>
      </trkpt>
      <trkpt lat="44.9738" lon="6.5642">
        <ele>2309</ele>
        <time>2023-07-02T09:31:22+0200</time>
      </trkpt>
      <trkpt lat="44.97385" lon="6.56416">
        <ele>2309.4</ele>
        <time>2023-07-02T09:31:25+0200</time>
      </trkpt>
      <trkpt lat="44.97389" lon="6.56411">
        <ele>2309.8</ele>
        <time>2023-07-02T09:31:28+0200</time>
      </trkpt>
      <trkpt lat="44.97392" lon="6.56407">
        <ele>2310.4</ele>
        <time>2023-07-02T09:31:30+0200</time>
      </trkpt>
      <trkpt lat="44.97397" lon="6.56401">
        <ele>2311.2</ele>
        <time>2023-07-02T09:31:33+0200</time>
      </trkpt>
      <trkpt lat="44.97401" lon="6.56398">
        <ele>2312.1</ele>
        <time>2023-07-02T09:31:36+0200</time>
      </trkpt>
      <trkpt lat="44.97405" lon="6.56392">
        <ele>2312.5</ele>
        <time>2023-07-02T09:31:39+0200</time>
      </trkpt>
      <trkpt lat="44.97407" lon="6.56386">
        <ele>2312.3</ele>
        <time>2023-07-02T09:31:42+0200</time>
      </trkpt>
      <trkpt lat="44.97411" lon="6.56381">
        <ele>2312.9</ele>
        <time>2023-07-02T09:31:44+0200</time>
      </trkpt>
      <trkpt lat="44.97414" lon="6.56374">
        <ele>2312.5</ele>
        <time>2023-07-02T09:31:46+0200</time>
      </trkpt>
      <trkpt lat="44.97418" lon="6.56369">
        <ele>2313.1</ele>
        <time>2023-07-02T09:31:49+0200</time>
      </trkpt>
      <trkpt lat="44.97422" lon="6.56362">
        <ele>2313.9</ele>
        <time>2023-07-02T09:31:52+0200</time>
      </trkpt>
      <trkpt lat="44.97425" lon="6.56357">
        <ele>2314.7</ele>
        <time>2023-07-02T09:31:54+0200</time>
      </trkpt>
      <trkpt lat="44.97429" lon="6.56352">
        <ele>2315.9</ele>
        <time>2023-07-02T09:31:57+0200</time>
      </trkpt>
      <trkpt lat="44.97433" lon="6.56345">
        <ele>2316.8</ele>
        <time>2023-07-02T09:32:00+0200</time>
      </trkpt>
      <trkpt lat="44.97436" lon="6.56337">
        <ele>2316.8</ele>
        <time>2023-07-02T09:32:03+0200</time>
      </trkpt>
      <trkpt lat="44.97438" lon="6.5633">
        <ele>2316.3</ele>
        <time>2023-07-02T09:32:06+0200</time>
      </trkpt>
      <trkpt lat="44.97439" lon="6.56324">
        <ele>2316.1</ele>
        <time>2023-07-02T09:32:08+0200</time>
      </trkpt>
      <trkpt lat="44.97442" lon="6.56315">
        <ele>2316</ele>
        <time>2023-07-02T09:32:11+0200</time>
      </trkpt>
      <trkpt lat="44.97444" lon="6.56309">
        <ele>2316.1</ele>
        <time>2023-07-02T09:32:13+0200</time>
      </trkpt>
      <trkpt lat="44.97446" lon="6.56303">
        <ele>2316.6</ele>
        <time>2023-07-02T09:32:15+0200</time>
      </trkpt>
      <trkpt lat="44.97449" lon="6.56297">
        <ele>2317.5</ele>
        <time>2023-07-02T09:32:17+0200</time>
      </trkpt>
      <trkpt lat="44.97452" lon="6.56291">
        <ele>2318</ele>
        <time>2023-07-02T09:32:20+0200</time>
      </trkpt>
      <trkpt lat="44.97455" lon="6.56283">
        <ele>2318.5</ele>
        <time>2023-07-02T09:32:23+0200</time>
      </trkpt>
      <trkpt lat="44.97459" lon="6.56276">
        <ele>2319.3</ele>
        <time>2023-07-02T09:32:26+0200</time>
      </trkpt>
      <trkpt lat="44.97462" lon="6.56268">
        <ele>2319.3</ele>
        <time>2023-07-02T09:32:29+0200</time>
      </trkpt>
      <trkpt lat="44.97465" lon="6.56261">
        <ele>2319.5</ele>
        <time>2023-07-02T09:32:32+0200</time>
      </trkpt>
      <trkpt lat="44.97468" lon="6.56254">
        <ele>2319.3</ele>
        <time>2023-07-02T09:32:34+0200</time>
      </trkpt>
      <trkpt lat="44.97471" lon="6.56248">
        <ele>2319.2</ele>
        <time>2023-07-02T09:32:36+0200</time>
      </trkpt>
      <trkpt lat="44.97475" lon="6.56244">
        <ele>2319.5</ele>
        <time>2023-07-02T09:32:38+0200</time>
      </trkpt>
      <trkpt lat="44.97479" lon="6.56238">
        <ele>2319.4</ele>
        <time>2023-07-02T09:32:40+0200</time>
      </trkpt>
      <trkpt lat="44.97484" lon="6.56233">
        <ele>2319.9</ele>
        <time>2023-07-02T09:32:43+0200</time>
      </trkpt>
      <trkpt lat="44.97489" lon="6.56231">
        <ele>2321</ele>
        <time>2023-07-02T09:32:46+0200</time>
      </trkpt>
      <trkpt lat="44.97494" lon="6.56229">
        <ele>2321.9</ele>
        <time>2023-07-02T09:32:48+0200</time>
      </trkpt>
      <trkpt lat="44.97497" lon="6.56225">
        <ele>2321.8</ele>
        <time>2023-07-02T09:32:50+0200</time>
      </trkpt>
      <trkpt lat="44.97501" lon="6.56221">
        <ele>2321.7</ele>
        <time>2023-07-02T09:32:52+0200</time>
      </trkpt>
      <trkpt lat="44.97506" lon="6.56218">
        <ele>2322.2</ele>
        <time>2023-07-02T09:32:54+0200</time>
      </trkpt>
      <trkpt lat="44.97512" lon="6.56213">
        <ele>2322.1</ele>
        <time>2023-07-02T09:32:57+0200</time>
      </trkpt>
      <trkpt lat="44.97516" lon="6.56209">
        <ele>2321.9</ele>
        <time>2023-07-02T09:32:59+0200</time>
      </trkpt>
      <trkpt lat="44.97522" lon="6.56206">
        <ele>2322.7</ele>
        <time>2023-07-02T09:33:02+0200</time>
      </trkpt>
      <trkpt lat="44.97527" lon="6.56205">
        <ele>2323.4</ele>
        <time>2023-07-02T09:33:04+0200</time>
      </trkpt>
      <trkpt lat="44.97533" lon="6.56203">
        <ele>2323.8</ele>
        <time>2023-07-02T09:33:07+0200</time>
      </trkpt>
      <trkpt lat="44.9754" lon="6.562">
        <ele>2323.4</ele>
        <time>2023-07-02T09:33:10+0200</time>
      </trkpt>
      <trkpt lat="44.97546" lon="6.562">
        <ele>2324.3</ele>
        <time>2023-07-02T09:33:13+0200</time>
      </trkpt>
      <trkpt lat="44.97551" lon="6.562">
        <ele>2324.8</ele>
        <time>2023-07-02T09:33:16+0200</time>
      </trkpt>
      <trkpt lat="44.97557" lon="6.56201">
        <ele>2326.3</ele>
        <time>2023-07-02T09:33:19+0200</time>
      </trkpt>
      <trkpt lat="44.97563" lon="6.562">
        <ele>2328.2</ele>
        <time>2023-07-02T09:33:22+0200</time>
      </trkpt>
      <trkpt lat="44.97569" lon="6.56194">
        <ele>2328.5</ele>
        <time>2023-07-02T09:33:25+0200</time>
      </trkpt>
      <trkpt lat="44.97572" lon="6.56187">
        <ele>2328.6</ele>
        <time>2023-07-02T09:33:28+0200</time>
      </trkpt>
      <trkpt lat="44.97574" lon="6.56181">
        <ele>2328.3</ele>
        <time>2023-07-02T09:33:30+0200</time>
      </trkpt>
      <trkpt lat="44.97577" lon="6.56172">
        <ele>2327.9</ele>
        <time>2023-07-02T09:33:33+0200</time>
      </trkpt>
      <trkpt lat="44.97579" lon="6.56165">
        <ele>2327.9</ele>
        <time>2023-07-02T09:33:36+0200</time>
      </trkpt>
      <trkpt lat="44.97582" lon="6.56159">
        <ele>2328</ele>
        <time>2023-07-02T09:33:38+0200</time>
      </trkpt>
      <trkpt lat="44.97586" lon="6.56153">
        <ele>2328.6</ele>
        <time>2023-07-02T09:33:41+0200</time>
      </trkpt>
      <trkpt lat="44.97589" lon="6.56148">
        <ele>2329.2</ele>
        <time>2023-07-02T09:33:44+0200</time>
      </trkpt>
      <trkpt lat="44.97594" lon="6.5614">
        <ele>2329.6</ele>
        <time>2023-07-02T09:33:47+0200</time>
      </trkpt>
      <trkpt lat="44.97598" lon="6.56135">
        <ele>2330.4</ele>
        <time>2023-07-02T09:33:50+0200</time>
      </trkpt>
      <trkpt lat="44.97601" lon="6.56128">
        <ele>2331.1</ele>
        <time>2023-07-02T09:33:53+0200</time>
      </trkpt>
      <trkpt lat="44.97603" lon="6.56121">
        <ele>2331.3</ele>
        <time>2023-07-02T09:33:55+0200</time>
      </trkpt>
      <trkpt lat="44.97605" lon="6.56115">
        <ele>2331.5</ele>
        <time>2023-07-02T09:33:57+0200</time>
      </trkpt>
      <trkpt lat="44.97608" lon="6.56109">
        <ele>2331.8</ele>
        <time>2023-07-02T09:34:00+0200</time>
      </trkpt>
      <trkpt lat="44.97611" lon="6.56104">
        <ele>2332.3</ele>
        <time>2023-07-02T09:34:02+0200</time>
      </trkpt>
      <trkpt lat="44.97614" lon="6.56098">
        <ele>2333</ele>
        <time>2023-07-02T09:34:05+0200</time>
      </trkpt>
      <trkpt lat="44.97618" lon="6.56092">
        <ele>2333.8</ele>
        <time>2023-07-02T09:34:08+0200</time>
      </trkpt>
      <trkpt lat="44.97622" lon="6.5609">
        <ele>2334.9</ele>
        <time>2023-07-02T09:34:12+0200</time>
      </trkpt>
      <trkpt lat="44.97626" lon="6.56085">
        <ele>2335.4</ele>
        <time>2023-07-02T09:34:15+0200</time>
      </trkpt>
      <trkpt lat="44.9763" lon="6.56081">
        <ele>2336</ele>
        <time>2023-07-02T09:34:18+0200</time>
      </trkpt>
      <trkpt lat="44.97633" lon="6.56078">
        <ele>2336.5</ele>
        <time>2023-07-02T09:34:21+0200</time>
      </trkpt>
      <trkpt lat="44.97637" lon="6.56071">
        <ele>2336.2</ele>
        <time>2023-07-02T09:34:24+0200</time>
      </trkpt>
      <trkpt lat="44.97641" lon="6.56064">
        <ele>2336.3</ele>
        <time>2023-07-02T09:34:27+0200</time>
      </trkpt>
      <trkpt lat="44.97644" lon="6.56058">
        <ele>2336.3</ele>
        <time>2023-07-02T09:34:30+0200</time>
      </trkpt>
      <trkpt lat="44.97648" lon="6.56053">
        <ele>2336.5</ele>
        <time>2023-07-02T09:34:33+0200</time>
      </trkpt>
      <trkpt lat="44.97652" lon="6.56047">
        <ele>2336.7</ele>
        <time>2023-07-02T09:34:36+0200</time>
      </trkpt>
      <trkpt lat="44.97657" lon="6.56041">
        <ele>2336.7</ele>
        <time>2023-07-02T09:34:39+0200</time>
      </trkpt>
      <trkpt lat="44.97662" lon="6.56037">
        <ele>2337</ele>
        <time>2023-07-02T09:34:42+0200</time>
      </trkpt>
      <trkpt lat="44.97666" lon="6.56032">
        <ele>2336.8</ele>
        <time>2023-07-02T09:34:45+0200</time>
      </trkpt>
      <trkpt lat="44.97671" lon="6.56029">
        <ele>2336.6</ele>
        <time>2023-07-02T09:34:48+0200</time>
      </trkpt>
      <trkpt lat="44.97677" lon="6.56028">
        <ele>2336.4</ele>
        <time>2023-07-02T09:34:51+0200</time>
      </trkpt>
      <trkpt lat="44.97682" lon="6.56031">
        <ele>2337.6</ele>
        <time>2023-07-02T09:34:54+0200</time>
      </trkpt>
      <trkpt lat="44.97688" lon="6.56032">
        <ele>2338.3</ele>
        <time>2023-07-02T09:34:56+0200</time>
      </trkpt>
      <trkpt lat="44.97694" lon="6.56035">
        <ele>2339.6</ele>
        <time>2023-07-02T09:34:59+0200</time>
      </trkpt>
      <trkpt lat="44.97699" lon="6.56036">
        <ele>2339.8</ele>
        <time>2023-07-02T09:35:02+0200</time>
      </trkpt>
      <trkpt lat="44.97705" lon="6.56038">
        <ele>2339.8</ele>
        <time>2023-07-02T09:35:05+0200</time>
      </trkpt>
      <trkpt lat="44.9771" lon="6.56042">
        <ele>2340.8</ele>
        <time>2023-07-02T09:35:08+0200</time>
      </trkpt>
      <trkpt lat="44.97715" lon="6.56046">
        <ele>2341.7</ele>
        <time>2023-07-02T09:35:11+0200</time>
      </trkpt>
      <trkpt lat="44.9772" lon="6.5605">
        <ele>2342.8</ele>
        <time>2023-07-02T09:35:14+0200</time>
      </trkpt>
      <trkpt lat="44.97725" lon="6.56055">
        <ele>2344.3</ele>
        <time>2023-07-02T09:35:19+0200</time>
      </trkpt>
      <trkpt lat="44.9773" lon="6.56057">
        <ele>2344.2</ele>
        <time>2023-07-02T09:35:24+0200</time>
      </trkpt>
      <trkpt lat="44.97736" lon="6.56061">
        <ele>2345.1</ele>
        <time>2023-07-02T09:35:27+0200</time>
      </trkpt>
      <trkpt lat="44.9774" lon="6.56066">
        <ele>2346.6</ele>
        <time>2023-07-02T09:35:31+0200</time>
      </trkpt>
      <trkpt lat="44.97746" lon="6.56069">
        <ele>2347.3</ele>
        <time>2023-07-02T09:35:34+0200</time>
      </trkpt>
      <trkpt lat="44.97751" lon="6.5607">
        <ele>2346.6</ele>
        <time>2023-07-02T09:35:36+0200</time>
      </trkpt>
      <trkpt lat="44.97755" lon="6.56074">
        <ele>2347.9</ele>
        <time>2023-07-02T09:35:39+0200</time>
      </trkpt>
      <trkpt lat="44.97759" lon="6.56078">
        <ele>2348.7</ele>
        <time>2023-07-02T09:35:41+0200</time>
      </trkpt>
      <trkpt lat="44.97762" lon="6.56083">
        <ele>2350.3</ele>
        <time>2023-07-02T09:35:45+0200</time>
      </trkpt>
      <trkpt lat="44.97768" lon="6.56086">
        <ele>2349.9</ele>
        <time>2023-07-02T09:35:48+0200</time>
      </trkpt>
      <trkpt lat="44.97773" lon="6.56089">
        <ele>2350.1</ele>
        <time>2023-07-02T09:35:50+0200</time>
      </trkpt>
      <trkpt lat="44.97778" lon="6.56092">
        <ele>2349.9</ele>
        <time>2023-07-02T09:35:52+0200</time>
      </trkpt>
      <trkpt lat="44.97783" lon="6.56095">
        <ele>2350.6</ele>
        <time>2023-07-02T09:35:55+0200</time>
      </trkpt>
      <trkpt lat="44.97788" lon="6.56096">
        <ele>2350.5</ele>
        <time>2023-07-02T09:35:57+0200</time>
      </trkpt>
      <trkpt lat="44.97794" lon="6.56098">
        <ele>2350.8</ele>
        <time>2023-07-02T09:36:00+0200</time>
      </trkpt>
      <trkpt lat="44.978" lon="6.56099">
        <ele>2350.8</ele>
        <time>2023-07-02T09:36:03+0200</time>
      </trkpt>
      <trkpt lat="44.97805" lon="6.56103">
        <ele>2351.9</ele>
        <time>2023-07-02T09:36:06+0200</time>
      </trkpt>
      <trkpt lat="44.97811" lon="6.56104">
        <ele>2353</ele>
        <time>2023-07-02T09:36:09+0200</time>
      </trkpt>
      <trkpt lat="44.97817" lon="6.56105">
        <ele>2354</ele>
        <time>2023-07-02T09:36:13+0200</time>
      </trkpt>
      <trkpt lat="44.97822" lon="6.56104">
        <ele>2354.2</ele>
        <time>2023-07-02T09:36:16+0200</time>
      </trkpt>
      <trkpt lat="44.97827" lon="6.56105">
        <ele>2355.2</ele>
        <time>2023-07-02T09:36:19+0200</time>
      </trkpt>
      <trkpt lat="44.97833" lon="6.56103">
        <ele>2355.3</ele>
        <time>2023-07-02T09:36:22+0200</time>
      </trkpt>
      <trkpt lat="44.9784" lon="6.56103">
        <ele>2355.8</ele>
        <time>2023-07-02T09:36:25+0200</time>
      </trkpt>
      <trkpt lat="44.97845" lon="6.56104">
        <ele>2356.7</ele>
        <time>2023-07-02T09:36:28+0200</time>
      </trkpt>
      <trkpt lat="44.97849" lon="6.56106">
        <ele>2358.2</ele>
        <time>2023-07-02T09:36:31+0200</time>
      </trkpt>
      <trkpt lat="44.97855" lon="6.56107">
        <ele>2359.3</ele>
        <time>2023-07-02T09:36:34+0200</time>
      </trkpt>
      <trkpt lat="44.9786" lon="6.56106">
        <ele>2359.6</ele>
        <time>2023-07-02T09:36:37+0200</time>
      </trkpt>
      <trkpt lat="44.97865" lon="6.56106">
        <ele>2360.5</ele>
        <time>2023-07-02T09:36:41+0200</time>
      </trkpt>
      <trkpt lat="44.97869" lon="6.56105">
        <ele>2360.6</ele>
        <time>2023-07-02T09:36:44+0200</time>
      </trkpt>
      <trkpt lat="44.97874" lon="6.56104">
        <ele>2361.2</ele>
        <time>2023-07-02T09:36:46+0200</time>
      </trkpt>
      <trkpt lat="44.9788" lon="6.56103">
        <ele>2361.7</ele>
        <time>2023-07-02T09:36:48+0200</time>
      </trkpt>
      <trkpt lat="44.97885" lon="6.56101">
        <ele>2361.5</ele>
        <time>2023-07-02T09:36:51+0200</time>
      </trkpt>
      <trkpt lat="44.9789" lon="6.561">
        <ele>2362</ele>
        <time>2023-07-02T09:36:54+0200</time>
      </trkpt>
      <trkpt lat="44.97897" lon="6.56098">
        <ele>2362.6</ele>
        <time>2023-07-02T09:36:58+0200</time>
      </trkpt>
      <trkpt lat="44.97902" lon="6.56097">
        <ele>2363.3</ele>
        <time>2023-07-02T09:37:01+0200</time>
      </trkpt>
      <trkpt lat="44.97907" lon="6.56096">
        <ele>2363.5</ele>
        <time>2023-07-02T09:37:04+0200</time>
      </trkpt>
      <trkpt lat="44.97912" lon="6.56095">
        <ele>2364.2</ele>
        <time>2023-07-02T09:37:08+0200</time>
      </trkpt>
      <trkpt lat="44.97918" lon="6.56095">
        <ele>2365.3</ele>
        <time>2023-07-02T09:37:11+0200</time>
      </trkpt>
      <trkpt lat="44.97924" lon="6.56093">
        <ele>2365.9</ele>
        <time>2023-07-02T09:37:14+0200</time>
      </trkpt>
      <trkpt lat="44.9793" lon="6.56092">
        <ele>2367.2</ele>
        <time>2023-07-02T09:37:17+0200</time>
      </trkpt>
      <trkpt lat="44.97936" lon="6.5609">
        <ele>2367.2</ele>
        <time>2023-07-02T09:37:20+0200</time>
      </trkpt>
      <trkpt lat="44.9794" lon="6.56087">
        <ele>2366.9</ele>
        <time>2023-07-02T09:37:23+0200</time>
      </trkpt>
      <trkpt lat="44.97946" lon="6.56085">
        <ele>2367.4</ele>
        <time>2023-07-02T09:37:25+0200</time>
      </trkpt>
      <trkpt lat="44.9795" lon="6.56083">
        <ele>2367.6</ele>
        <time>2023-07-02T09:37:29+0200</time>
      </trkpt>
      <trkpt lat="44.97955" lon="6.56082">
        <ele>2368.7</ele>
        <time>2023-07-02T09:37:31+0200</time>
      </trkpt>
      <trkpt lat="44.9796" lon="6.56079">
        <ele>2369.1</ele>
        <time>2023-07-02T09:37:33+0200</time>
      </trkpt>
      <trkpt lat="44.97965" lon="6.56074">
        <ele>2368.7</ele>
        <time>2023-07-02T09:37:37+0200</time>
      </trkpt>
      <trkpt lat="44.97969" lon="6.56069">
        <ele>2368.2</ele>
        <time>2023-07-02T09:37:40+0200</time>
      </trkpt>
      <trkpt lat="44.97974" lon="6.56067">
        <ele>2369.4</ele>
        <time>2023-07-02T09:37:42+0200</time>
      </trkpt>
      <trkpt lat="44.97978" lon="6.56064">
        <ele>2369.5</ele>
        <time>2023-07-02T09:37:44+0200</time>
      </trkpt>
      <trkpt lat="44.97983" lon="6.56059">
        <ele>2369.4</ele>
        <time>2023-07-02T09:37:47+0200</time>
      </trkpt>
      <trkpt lat="44.97985" lon="6.56052">
        <ele>2368.2</ele>
        <time>2023-07-02T09:37:50+0200</time>
      </trkpt>
      <trkpt lat="44.97989" lon="6.56048">
        <ele>2368</ele>
        <time>2023-07-02T09:37:52+0200</time>
      </trkpt>
      <trkpt lat="44.97993" lon="6.56041">
        <ele>2367.8</ele>
        <time>2023-07-02T09:37:56+0200</time>
      </trkpt>
      <trkpt lat="44.97998" lon="6.5604">
        <ele>2369.7</ele>
        <time>2023-07-02T09:37:59+0200</time>
      </trkpt>
      <trkpt lat="44.98004" lon="6.56037">
        <ele>2370.4</ele>
        <time>2023-07-02T09:38:02+0200</time>
      </trkpt>
      <trkpt lat="44.9801" lon="6.56037">
        <ele>2371.6</ele>
        <time>2023-07-02T09:38:05+0200</time>
      </trkpt>
      <trkpt lat="44.98016" lon="6.56038">
        <ele>2373</ele>
        <time>2023-07-02T09:38:08+0200</time>
      </trkpt>
      <trkpt lat="44.98022" lon="6.56037">
        <ele>2373.9</ele>
        <time>2023-07-02T09:38:11+0200</time>
      </trkpt>
      <trkpt lat="44.98029" lon="6.56034">
        <ele>2374.4</ele>
        <time>2023-07-02T09:38:14+0200</time>
      </trkpt>
      <trkpt lat="44.98033" lon="6.56033">
        <ele>2374.8</ele>
        <time>2023-07-02T09:38:16+0200</time>
      </trkpt>
      <trkpt lat="44.98038" lon="6.5603">
        <ele>2375.1</ele>
        <time>2023-07-02T09:38:18+0200</time>
      </trkpt>
      <trkpt lat="44.98042" lon="6.56027">
        <ele>2375.3</ele>
        <time>2023-07-02T09:38:20+0200</time>
      </trkpt>
      <trkpt lat="44.98047" lon="6.56022">
        <ele>2375.3</ele>
        <time>2023-07-02T09:38:23+0200</time>
      </trkpt>
      <trkpt lat="44.98052" lon="6.56017">
        <ele>2375.2</ele>
        <time>2023-07-02T09:38:26+0200</time>
      </trkpt>
      <trkpt lat="44.98057" lon="6.56012">
        <ele>2375.3</ele>
        <time>2023-07-02T09:38:29+0200</time>
      </trkpt>
      <trkpt lat="44.98061" lon="6.56006">
        <ele>2375.3</ele>
        <time>2023-07-02T09:38:32+0200</time>
      </trkpt>
      <trkpt lat="44.98065" lon="6.56001">
        <ele>2375.8</ele>
        <time>2023-07-02T09:38:35+0200</time>
      </trkpt>
      <trkpt lat="44.98068" lon="6.55996">
        <ele>2375.8</ele>
        <time>2023-07-02T09:38:37+0200</time>
      </trkpt>
      <trkpt lat="44.98073" lon="6.55993">
        <ele>2376.7</ele>
        <time>2023-07-02T09:38:40+0200</time>
      </trkpt>
      <trkpt lat="44.98076" lon="6.55988">
        <ele>2376.9</ele>
        <time>2023-07-02T09:38:43+0200</time>
      </trkpt>
      <trkpt lat="44.98082" lon="6.55985">
        <ele>2378</ele>
        <time>2023-07-02T09:38:46+0200</time>
      </trkpt>
      <trkpt lat="44.98087" lon="6.55982">
        <ele>2379</ele>
        <time>2023-07-02T09:38:49+0200</time>
      </trkpt>
      <trkpt lat="44.98092" lon="6.55979">
        <ele>2380</ele>
        <time>2023-07-02T09:38:52+0200</time>
      </trkpt>
      <trkpt lat="44.98097" lon="6.55974">
        <ele>2380.5</ele>
        <time>2023-07-02T09:38:56+0200</time>
      </trkpt>
      <trkpt lat="44.98101" lon="6.55969">
        <ele>2380.2</ele>
        <time>2023-07-02T09:38:59+0200</time>
      </trkpt>
      <trkpt lat="44.98106" lon="6.55967">
        <ele>2380.9</ele>
        <time>2023-07-02T09:39:01+0200</time>
      </trkpt>
      <trkpt lat="44.9811" lon="6.55963">
        <ele>2381.2</ele>
        <time>2023-07-02T09:39:03+0200</time>
      </trkpt>
      <trkpt lat="44.98115" lon="6.5596">
        <ele>2381.6</ele>
        <time>2023-07-02T09:39:06+0200</time>
      </trkpt>
      <trkpt lat="44.9812" lon="6.55957">
        <ele>2381.7</ele>
        <time>2023-07-02T09:39:09+0200</time>
      </trkpt>
      <trkpt lat="44.98125" lon="6.55953">
        <ele>2381.7</ele>
        <time>2023-07-02T09:39:12+0200</time>
      </trkpt>
      <trkpt lat="44.9813" lon="6.5595">
        <ele>2381.9</ele>
        <time>2023-07-02T09:39:15+0200</time>
      </trkpt>
      <trkpt lat="44.98135" lon="6.55948">
        <ele>2382.1</ele>
        <time>2023-07-02T09:39:17+0200</time>
      </trkpt>
      <trkpt lat="44.9814" lon="6.55945">
        <ele>2382.5</ele>
        <time>2023-07-02T09:39:20+0200</time>
      </trkpt>
      <trkpt lat="44.98146" lon="6.55943">
        <ele>2383</ele>
        <time>2023-07-02T09:39:23+0200</time>
      </trkpt>
      <trkpt lat="44.98151" lon="6.55942">
        <ele>2383.8</ele>
        <time>2023-07-02T09:39:26+0200</time>
      </trkpt>
      <trkpt lat="44.98155" lon="6.55942">
        <ele>2384.7</ele>
        <time>2023-07-02T09:39:29+0200</time>
      </trkpt>
      <trkpt lat="44.98161" lon="6.55943">
        <ele>2386.1</ele>
        <time>2023-07-02T09:39:32+0200</time>
      </trkpt>
      <trkpt lat="44.98166" lon="6.5594">
        <ele>2386.5</ele>
        <time>2023-07-02T09:39:36+0200</time>
      </trkpt>
      <trkpt lat="44.98171" lon="6.55938">
        <ele>2387</ele>
        <time>2023-07-02T09:39:39+0200</time>
      </trkpt>
      <trkpt lat="44.98176" lon="6.55936">
        <ele>2387.9</ele>
        <time>2023-07-02T09:39:41+0200</time>
      </trkpt>
      <trkpt lat="44.9818" lon="6.55934">
        <ele>2388.1</ele>
        <time>2023-07-02T09:39:44+0200</time>
      </trkpt>
      <trkpt lat="44.98187" lon="6.55935">
        <ele>2390</ele>
        <time>2023-07-02T09:39:47+0200</time>
      </trkpt>
      <trkpt lat="44.98192" lon="6.5593">
        <ele>2389.8</ele>
        <time>2023-07-02T09:39:50+0200</time>
      </trkpt>
      <trkpt lat="44.98197" lon="6.55927">
        <ele>2389.7</ele>
        <time>2023-07-02T09:39:53+0200</time>
      </trkpt>
      <trkpt lat="44.98201" lon="6.55926">
        <ele>2390.4</ele>
        <time>2023-07-02T09:39:56+0200</time>
      </trkpt>
      <trkpt lat="44.98206" lon="6.55923">
        <ele>2390.5</ele>
        <time>2023-07-02T09:39:59+0200</time>
      </trkpt>
      <trkpt lat="44.98211" lon="6.55921">
        <ele>2391</ele>
        <time>2023-07-02T09:40:02+0200</time>
      </trkpt>
      <trkpt lat="44.98215" lon="6.55919">
        <ele>2391.4</ele>
        <time>2023-07-02T09:40:05+0200</time>
      </trkpt>
      <trkpt lat="44.9822" lon="6.55916">
        <ele>2391.2</ele>
        <time>2023-07-02T09:40:08+0200</time>
      </trkpt>
      <trkpt lat="44.98226" lon="6.55913">
        <ele>2391.8</ele>
        <time>2023-07-02T09:40:12+0200</time>
      </trkpt>
      <trkpt lat="44.98232" lon="6.55911">
        <ele>2392.5</ele>
        <time>2023-07-02T09:40:16+0200</time>
      </trkpt>
      <trkpt lat="44.98238" lon="6.55908">
        <ele>2393</ele>
        <time>2023-07-02T09:40:21+0200</time>
      </trkpt>
      <trkpt lat="44.98243" lon="6.55907">
        <ele>2393.6</ele>
        <time>2023-07-02T09:40:24+0200</time>
      </trkpt>
      <trkpt lat="44.98249" lon="6.55905">
        <ele>2394.5</ele>
        <time>2023-07-02T09:40:28+0200</time>
      </trkpt>
      <trkpt lat="44.98254" lon="6.55903">
        <ele>2394.7</ele>
        <time>2023-07-02T09:40:31+0200</time>
      </trkpt>
      <trkpt lat="44.9826" lon="6.55901">
        <ele>2395.1</ele>
        <time>2023-07-02T09:40:35+0200</time>
      </trkpt>
      <trkpt lat="44.98266" lon="6.55899">
        <ele>2395.7</ele>
        <time>2023-07-02T09:40:39+0200</time>
      </trkpt>
      <trkpt lat="44.98273" lon="6.55898">
        <ele>2396.4</ele>
        <time>2023-07-02T09:40:43+0200</time>
      </trkpt>
      <trkpt lat="44.98278" lon="6.55897">
        <ele>2397.1</ele>
        <time>2023-07-02T09:40:46+0200</time>
      </trkpt>
      <trkpt lat="44.98282" lon="6.55896">
        <ele>2397.3</ele>
        <time>2023-07-02T09:40:49+0200</time>
      </trkpt>
      <trkpt lat="44.98287" lon="6.55897">
        <ele>2397.8</ele>
        <time>2023-07-02T09:40:51+0200</time>
      </trkpt>
      <trkpt lat="44.98292" lon="6.55895">
        <ele>2397.7</ele>
        <time>2023-07-02T09:40:54+0200</time>
      </trkpt>
      <trkpt lat="44.98297" lon="6.55897">
        <ele>2398.8</ele>
        <time>2023-07-02T09:40:57+0200</time>
      </trkpt>
      <trkpt lat="44.98303" lon="6.55898">
        <ele>2399.7</ele>
        <time>2023-07-02T09:41:00+0200</time>
      </trkpt>
      <trkpt lat="44.98308" lon="6.55898">
        <ele>2399.9</ele>
        <time>2023-07-02T09:41:03+0200</time>
      </trkpt>
      <trkpt lat="44.98313" lon="6.559">
        <ele>2401.1</ele>
        <time>2023-07-02T09:41:05+0200</time>
      </trkpt>
      <trkpt lat="44.98319" lon="6.559">
        <ele>2401.1</ele>
        <time>2023-07-02T09:41:08+0200</time>
      </trkpt>
      <trkpt lat="44.98324" lon="6.55901">
        <ele>2401.6</ele>
        <time>2023-07-02T09:41:11+0200</time>
      </trkpt>
      <trkpt lat="44.98331" lon="6.55902">
        <ele>2402.2</ele>
        <time>2023-07-02T09:41:14+0200</time>
      </trkpt>
      <trkpt lat="44.98336" lon="6.55906">
        <ele>2404.2</ele>
        <time>2023-07-02T09:41:17+0200</time>
      </trkpt>
      <trkpt lat="44.98341" lon="6.55907">
        <ele>2404.4</ele>
        <time>2023-07-02T09:41:19+0200</time>
      </trkpt>
      <trkpt lat="44.98347" lon="6.55909">
        <ele>2405.3</ele>
        <time>2023-07-02T09:41:22+0200</time>
      </trkpt>
      <trkpt lat="44.98353" lon="6.55909">
        <ele>2405.2</ele>
        <time>2023-07-02T09:41:25+0200</time>
      </trkpt>
      <trkpt lat="44.98358" lon="6.5591">
        <ele>2405.9</ele>
        <time>2023-07-02T09:41:28+0200</time>
      </trkpt>
      <trkpt lat="44.98363" lon="6.5591">
        <ele>2405.8</ele>
        <time>2023-07-02T09:41:30+0200</time>
      </trkpt>
      <trkpt lat="44.9837" lon="6.5591">
        <ele>2405</ele>
        <time>2023-07-02T09:41:33+0200</time>
      </trkpt>
      <trkpt lat="44.98375" lon="6.55909">
        <ele>2404.5</ele>
        <time>2023-07-02T09:41:35+0200</time>
      </trkpt>
      <trkpt lat="44.98382" lon="6.5591">
        <ele>2404.8</ele>
        <time>2023-07-02T09:41:38+0200</time>
      </trkpt>
      <trkpt lat="44.98388" lon="6.55912">
        <ele>2405.1</ele>
        <time>2023-07-02T09:41:42+0200</time>
      </trkpt>
      <trkpt lat="44.98394" lon="6.55914">
        <ele>2405.4</ele>
        <time>2023-07-02T09:41:45+0200</time>
      </trkpt>
      <trkpt lat="44.984" lon="6.55917">
        <ele>2406.1</ele>
        <time>2023-07-02T09:41:48+0200</time>
      </trkpt>
      <trkpt lat="44.98405" lon="6.55917">
        <ele>2406.1</ele>
        <time>2023-07-02T09:41:50+0200</time>
      </trkpt>
      <trkpt lat="44.9841" lon="6.5592">
        <ele>2407.1</ele>
        <time>2023-07-02T09:41:52+0200</time>
      </trkpt>
      <trkpt lat="44.98416" lon="6.55921">
        <ele>2406.8</ele>
        <time>2023-07-02T09:41:55+0200</time>
      </trkpt>
      <trkpt lat="44.98422" lon="6.55924">
        <ele>2408.1</ele>
        <time>2023-07-02T09:41:58+0200</time>
      </trkpt>
      <trkpt lat="44.98428" lon="6.55925">
        <ele>2408.7</ele>
        <time>2023-07-02T09:42:01+0200</time>
      </trkpt>
      <trkpt lat="44.98433" lon="6.55925">
        <ele>2408.7</ele>
        <time>2023-07-02T09:42:03+0200</time>
      </trkpt>
      <trkpt lat="44.98439" lon="6.55922">
        <ele>2407.8</ele>
        <time>2023-07-02T09:42:06+0200</time>
      </trkpt>
      <trkpt lat="44.98445" lon="6.55922">
        <ele>2408</ele>
        <time>2023-07-02T09:42:09+0200</time>
      </trkpt>
      <trkpt lat="44.9845" lon="6.55924">
        <ele>2407.9</ele>
        <time>2023-07-02T09:42:11+0200</time>
      </trkpt>
      <trkpt lat="44.98456" lon="6.55926">
        <ele>2408</ele>
        <time>2023-07-02T09:42:14+0200</time>
      </trkpt>
      <trkpt lat="44.9846" lon="6.55929">
        <ele>2409</ele>
        <time>2023-07-02T09:42:17+0200</time>
      </trkpt>
      <trkpt lat="44.98465" lon="6.55932">
        <ele>2409.9</ele>
        <time>2023-07-02T09:42:20+0200</time>
      </trkpt>
      <trkpt lat="44.9847" lon="6.55935">
        <ele>2410.9</ele>
        <time>2023-07-02T09:42:23+0200</time>
      </trkpt>
      <trkpt lat="44.98476" lon="6.5594">
        <ele>2412.6</ele>
        <time>2023-07-02T09:42:26+0200</time>
      </trkpt>
      <trkpt lat="44.98481" lon="6.55944">
        <ele>2413.9</ele>
        <time>2023-07-02T09:42:28+0200</time>
      </trkpt>
      <trkpt lat="44.98488" lon="6.55947">
        <ele>2415</ele>
        <time>2023-07-02T09:42:32+0200</time>
      </trkpt>
      <trkpt lat="44.98493" lon="6.55949">
        <ele>2415.7</ele>
        <time>2023-07-02T09:42:35+0200</time>
      </trkpt>
      <trkpt lat="44.98498" lon="6.55951">
        <ele>2416.5</ele>
        <time>2023-07-02T09:42:38+0200</time>
      </trkpt>
      <trkpt lat="44.98504" lon="6.55951">
        <ele>2416.9</ele>
        <time>2023-07-02T09:42:41+0200</time>
      </trkpt>
      <trkpt lat="44.98509" lon="6.55952">
        <ele>2417.8</ele>
        <time>2023-07-02T09:42:43+0200</time>
      </trkpt>
      <trkpt lat="44.98515" lon="6.55951">
        <ele>2418.4</ele>
        <time>2023-07-02T09:42:46+0200</time>
      </trkpt>
      <trkpt lat="44.98522" lon="6.55949">
        <ele>2418.1</ele>
        <time>2023-07-02T09:42:49+0200</time>
      </trkpt>
      <trkpt lat="44.98528" lon="6.55946">
        <ele>2417.7</ele>
        <time>2023-07-02T09:42:52+0200</time>
      </trkpt>
      <trkpt lat="44.98533" lon="6.55945">
        <ele>2417.5</ele>
        <time>2023-07-02T09:42:54+0200</time>
      </trkpt>
      <trkpt lat="44.98538" lon="6.55943">
        <ele>2417.3</ele>
        <time>2023-07-02T09:42:56+0200</time>
      </trkpt>
      <trkpt lat="44.98545" lon="6.55943">
        <ele>2417.8</ele>
        <time>2023-07-02T09:42:59+0200</time>
      </trkpt>
      <trkpt lat="44.98551" lon="6.55943">
        <ele>2418.2</ele>
        <time>2023-07-02T09:43:01+0200</time>
      </trkpt>
      <trkpt lat="44.98556" lon="6.5594">
        <ele>2417.8</ele>
        <time>2023-07-02T09:43:03+0200</time>
      </trkpt>
      <trkpt lat="44.98564" lon="6.55935">
        <ele>2417.3</ele>
        <time>2023-07-02T09:43:06+0200</time>
      </trkpt>
      <trkpt lat="44.98568" lon="6.55927">
        <ele>2416.1</ele>
        <time>2023-07-02T09:43:09+0200</time>
      </trkpt>
      <trkpt lat="44.98573" lon="6.55922">
        <ele>2415.8</ele>
        <time>2023-07-02T09:43:11+0200</time>
      </trkpt>
      <trkpt lat="44.98576" lon="6.55916">
        <ele>2415.3</ele>
        <time>2023-07-02T09:43:13+0200</time>
      </trkpt>
      <trkpt lat="44.98579" lon="6.55911">
        <ele>2415.5</ele>
        <time>2023-07-02T09:43:15+0200</time>
      </trkpt>
      <trkpt lat="44.98583" lon="6.55906">
        <ele>2415.7</ele>
        <time>2023-07-02T09:43:17+0200</time>
      </trkpt>
      <trkpt lat="44.98588" lon="6.55903">
        <ele>2416.1</ele>
        <time>2023-07-02T09:43:20+0200</time>
      </trkpt>
      <trkpt lat="44.98593" lon="6.55898">
        <ele>2416.1</ele>
        <time>2023-07-02T09:43:22+0200</time>
      </trkpt>
      <trkpt lat="44.98597" lon="6.55896">
        <ele>2416.3</ele>
        <time>2023-07-02T09:43:24+0200</time>
      </trkpt>
      <trkpt lat="44.98602" lon="6.55894">
        <ele>2416.7</ele>
        <time>2023-07-02T09:43:26+0200</time>
      </trkpt>
      <trkpt lat="44.98607" lon="6.55893">
        <ele>2417</ele>
        <time>2023-07-02T09:43:28+0200</time>
      </trkpt>
      <trkpt lat="44.98614" lon="6.55891">
        <ele>2417.5</ele>
        <time>2023-07-02T09:43:31+0200</time>
      </trkpt>
      <trkpt lat="44.98619" lon="6.55888">
        <ele>2417.5</ele>
        <time>2023-07-02T09:43:34+0200</time>
      </trkpt>
      <trkpt lat="44.98626" lon="6.55886">
        <ele>2417.9</ele>
        <time>2023-07-02T09:43:37+0200</time>
      </trkpt>
      <trkpt lat="44.98631" lon="6.55885">
        <ele>2418.2</ele>
        <time>2023-07-02T09:43:40+0200</time>
      </trkpt>
      <trkpt lat="44.98637" lon="6.55882">
        <ele>2418.6</ele>
        <time>2023-07-02T09:43:43+0200</time>
      </trkpt>
      <trkpt lat="44.98642" lon="6.55882">
        <ele>2419.2</ele>
        <time>2023-07-02T09:43:47+0200</time>
      </trkpt>
      <trkpt lat="44.98646" lon="6.55878">
        <ele>2419.8</ele>
        <time>2023-07-02T09:43:50+0200</time>
      </trkpt>
      <trkpt lat="44.9865" lon="6.55873">
        <ele>2420.5</ele>
        <time>2023-07-02T09:43:52+0200</time>
      </trkpt>
      <trkpt lat="44.98653" lon="6.55867">
        <ele>2421</ele>
        <time>2023-07-02T09:44:27+0200</time>
      </trkpt>
      <trkpt lat="44.98657" lon="6.55865">
        <ele>2421.9</ele>
        <time>2023-07-02T09:44:29+0200</time>
      </trkpt>
      <trkpt lat="44.98658" lon="6.55872">
        <ele>2421.9</ele>
        <time>2023-07-02T09:44:32+0200</time>
      </trkpt>
      <trkpt lat="44.98659" lon="6.55879">
        <ele>2422</ele>
        <time>2023-07-02T09:44:35+0200</time>
      </trkpt>
      <trkpt lat="44.9866" lon="6.55888">
        <ele>2422.1</ele>
        <time>2023-07-02T09:44:38+0200</time>
      </trkpt>
      <trkpt lat="44.98665" lon="6.55896">
        <ele>2423</ele>
        <time>2023-07-02T09:44:41+0200</time>
      </trkpt>
      <trkpt lat="44.98669" lon="6.55899">
        <ele>2423.6</ele>
        <time>2023-07-02T09:44:43+0200</time>
      </trkpt>
      <trkpt lat="44.98674" lon="6.55903">
        <ele>2424.5</ele>
        <time>2023-07-02T09:44:46+0200</time>
      </trkpt>
      <trkpt lat="44.98679" lon="6.55908">
        <ele>2425.2</ele>
        <time>2023-07-02T09:44:50+0200</time>
      </trkpt>
      <trkpt lat="44.98684" lon="6.55911">
        <ele>2425.9</ele>
        <time>2023-07-02T09:44:53+0200</time>
      </trkpt>
      <trkpt lat="44.98689" lon="6.55915">
        <ele>2426.5</ele>
        <time>2023-07-02T09:44:57+0200</time>
      </trkpt>
      <trkpt lat="44.98693" lon="6.55919">
        <ele>2427</ele>
        <time>2023-07-02T09:45:00+0200</time>
      </trkpt>
      <trkpt lat="44.98698" lon="6.55922">
        <ele>2427.4</ele>
        <time>2023-07-02T09:45:04+0200</time>
      </trkpt>
      <trkpt lat="44.98702" lon="6.55924">
        <ele>2427.6</ele>
        <time>2023-07-02T09:45:07+0200</time>
      </trkpt>
      <trkpt lat="44.98707" lon="6.55926">
        <ele>2427.8</ele>
        <time>2023-07-02T09:45:10+0200</time>
      </trkpt>
      <trkpt lat="44.98712" lon="6.55927">
        <ele>2427.9</ele>
        <time>2023-07-02T09:45:13+0200</time>
      </trkpt>
      <trkpt lat="44.98717" lon="6.55928">
        <ele>2428</ele>
        <time>2023-07-02T09:45:15+0200</time>
      </trkpt>
      <trkpt lat="44.98721" lon="6.55927">
        <ele>2428.2</ele>
        <time>2023-07-02T09:45:18+0200</time>
      </trkpt>
      <trkpt lat="44.98725" lon="6.55933">
        <ele>2427.8</ele>
        <time>2023-07-02T09:45:21+0200</time>
      </trkpt>
      <trkpt lat="44.9873" lon="6.55935">
        <ele>2427.4</ele>
        <time>2023-07-02T09:45:24+0200</time>
      </trkpt>
      <trkpt lat="44.98735" lon="6.55933">
        <ele>2427.3</ele>
        <time>2023-07-02T09:45:26+0200</time>
      </trkpt>
      <trkpt lat="44.98741" lon="6.55932">
        <ele>2427.2</ele>
        <time>2023-07-02T09:45:29+0200</time>
      </trkpt>
      <trkpt lat="44.98746" lon="6.55929">
        <ele>2427.3</ele>
        <time>2023-07-02T09:45:32+0200</time>
      </trkpt>
      <trkpt lat="44.98751" lon="6.55929">
        <ele>2426.9</ele>
        <time>2023-07-02T09:45:35+0200</time>
      </trkpt>
      <trkpt lat="44.98757" lon="6.55934">
        <ele>2425.6</ele>
        <time>2023-07-02T09:45:38+0200</time>
      </trkpt>
      <trkpt lat="44.98763" lon="6.55938">
        <ele>2424.3</ele>
        <time>2023-07-02T09:45:40+0200</time>
      </trkpt>
      <trkpt lat="44.98767" lon="6.5595">
        <ele>2423.1</ele>
        <time>2023-07-02T09:45:42+0200</time>
      </trkpt>
      <trkpt lat="44.98773" lon="6.55954">
        <ele>2422.3</ele>
        <time>2023-07-02T09:45:43+0200</time>
      </trkpt>
      <trkpt lat="44.98777" lon="6.55961">
        <ele>2421.8</ele>
        <time>2023-07-02T09:45:44+0200</time>
      </trkpt>
      <trkpt lat="44.98783" lon="6.55965">
        <ele>2420.7</ele>
        <time>2023-07-02T09:45:45+0200</time>
      </trkpt>
      <trkpt lat="44.98791" lon="6.55968">
        <ele>2419.1</ele>
        <time>2023-07-02T09:45:46+0200</time>
      </trkpt>
      <trkpt lat="44.98798" lon="6.5597">
        <ele>2417.7</ele>
        <time>2023-07-02T09:45:47+0200</time>
      </trkpt>
      <trkpt lat="44.98804" lon="6.55976">
        <ele>2416.7</ele>
        <time>2023-07-02T09:45:48+0200</time>
      </trkpt>
      <trkpt lat="44.98808" lon="6.55984">
        <ele>2416.6</ele>
        <time>2023-07-02T09:45:49+0200</time>
      </trkpt>
      <trkpt lat="44.98812" lon="6.55991">
        <ele>2416.7</ele>
        <time>2023-07-02T09:45:50+0200</time>
      </trkpt>
      <trkpt lat="44.98816" lon="6.55999">
        <ele>2416.8</ele>
        <time>2023-07-02T09:45:52+0200</time>
      </trkpt>
      <trkpt lat="44.9882" lon="6.56009">
        <ele>2415.9</ele>
        <time>2023-07-02T09:45:53+0200</time>
      </trkpt>
      <trkpt lat="44.98822" lon="6.56018">
        <ele>2414.9</ele>
        <time>2023-07-02T09:45:54+0200</time>
      </trkpt>
      <trkpt lat="44.98823" lon="6.56027">
        <ele>2413.8</ele>
        <time>2023-07-02T09:45:55+0200</time>
      </trkpt>
      <trkpt lat="44.98826" lon="6.56035">
        <ele>2412.7</ele>
        <time>2023-07-02T09:45:56+0200</time>
      </trkpt>
      <trkpt lat="44.98826" lon="6.56043">
        <ele>2411.8</ele>
        <time>2023-07-02T09:45:57+0200</time>
      </trkpt>
      <trkpt lat="44.98825" lon="6.56052">
        <ele>2411.3</ele>
        <time>2023-07-02T09:46:00+0200</time>
      </trkpt>
      <trkpt lat="44.9883" lon="6.56052">
        <ele>2410.2</ele>
        <time>2023-07-02T09:46:03+0200</time>
      </trkpt>
      <trkpt lat="44.98835" lon="6.56053">
        <ele>2408.6</ele>
        <time>2023-07-02T09:46:06+0200</time>
      </trkpt>
      <trkpt lat="44.9884" lon="6.56056">
        <ele>2406.4</ele>
        <time>2023-07-02T09:46:08+0200</time>
      </trkpt>
      <trkpt lat="44.98845" lon="6.56058">
        <ele>2403.8</ele>
        <time>2023-07-02T09:46:11+0200</time>
      </trkpt>
      <trkpt lat="44.9885" lon="6.56062">
        <ele>2400.8</ele>
        <time>2023-07-02T09:46:15+0200</time>
      </trkpt>
      <trkpt lat="44.98854" lon="6.56059">
        <ele>2399.7</ele>
        <time>2023-07-02T09:46:18+0200</time>
      </trkpt>
      <trkpt lat="44.98858" lon="6.56054">
        <ele>2399.9</ele>
        <time>2023-07-02T09:46:21+0200</time>
      </trkpt>
      <trkpt lat="44.98859" lon="6.5606">
        <ele>2397.2</ele>
        <time>2023-07-02T09:46:28+0200</time>
      </trkpt>
      <trkpt lat="44.98865" lon="6.56062">
        <ele>2394.7</ele>
        <time>2023-07-02T09:46:33+0200</time>
      </trkpt>
      <trkpt lat="44.98871" lon="6.56059">
        <ele>2393.9</ele>
        <time>2023-07-02T09:46:35+0200</time>
      </trkpt>
      <trkpt lat="44.98876" lon="6.56059">
        <ele>2392.1</ele>
        <time>2023-07-02T09:46:38+0200</time>
      </trkpt>
      <trkpt lat="44.98883" lon="6.56057">
        <ele>2390.5</ele>
        <time>2023-07-02T09:46:41+0200</time>
      </trkpt>
      <trkpt lat="44.98889" lon="6.56056">
        <ele>2389</ele>
        <time>2023-07-02T09:46:43+0200</time>
      </trkpt>
      <trkpt lat="44.98893" lon="6.56057">
        <ele>2387.7</ele>
        <time>2023-07-02T09:46:45+0200</time>
      </trkpt>
      <trkpt lat="44.98899" lon="6.5606">
        <ele>2386</ele>
        <time>2023-07-02T09:46:47+0200</time>
      </trkpt>
      <trkpt lat="44.98904" lon="6.56061">
        <ele>2384.7</ele>
        <time>2023-07-02T09:46:48+0200</time>
      </trkpt>
      <trkpt lat="44.98913" lon="6.56066">
        <ele>2381.7</ele>
        <time>2023-07-02T09:46:50+0200</time>
      </trkpt>
      <trkpt lat="44.98918" lon="6.56068">
        <ele>2380.2</ele>
        <time>2023-07-02T09:46:51+0200</time>
      </trkpt>
      <trkpt lat="44.98925" lon="6.5607">
        <ele>2378.6</ele>
        <time>2023-07-02T09:46:53+0200</time>
      </trkpt>
      <trkpt lat="44.98933" lon="6.5607">
        <ele>2377.5</ele>
        <time>2023-07-02T09:46:55+0200</time>
      </trkpt>
      <trkpt lat="44.98941" lon="6.56071">
        <ele>2376.2</ele>
        <time>2023-07-02T09:46:57+0200</time>
      </trkpt>
      <trkpt lat="44.98948" lon="6.56074">
        <ele>2374.7</ele>
        <time>2023-07-02T09:46:59+0200</time>
      </trkpt>
      <trkpt lat="44.98955" lon="6.5608">
        <ele>2372.5</ele>
        <time>2023-07-02T09:47:01+0200</time>
      </trkpt>
      <trkpt lat="44.98959" lon="6.56084">
        <ele>2371.3</ele>
        <time>2023-07-02T09:47:02+0200</time>
      </trkpt>
      <trkpt lat="44.98967" lon="6.56085">
        <ele>2370.6</ele>
        <time>2023-07-02T09:47:04+0200</time>
      </trkpt>
      <trkpt lat="44.98976" lon="6.56085">
        <ele>2370.4</ele>
        <time>2023-07-02T09:47:06+0200</time>
      </trkpt>
      <trkpt lat="44.9898" lon="6.56088">
        <ele>2369.6</ele>
        <time>2023-07-02T09:47:07+0200</time>
      </trkpt>
      <trkpt lat="44.98989" lon="6.56099">
        <ele>2366.8</ele>
        <time>2023-07-02T09:47:09+0200</time>
      </trkpt>
      <trkpt lat="44.98991" lon="6.56107">
        <ele>2364.8</ele>
        <time>2023-07-02T09:47:10+0200</time>
      </trkpt>
      <trkpt lat="44.98994" lon="6.56115">
        <ele>2362.9</ele>
        <time>2023-07-02T09:47:11+0200</time>
      </trkpt>
      <trkpt lat="44.98997" lon="6.5612">
        <ele>2361.5</ele>
        <time>2023-07-02T09:47:12+0200</time>
      </trkpt>
      <trkpt lat="44.98998" lon="6.56127">
        <ele>2360</ele>
        <time>2023-07-02T09:47:13+0200</time>
      </trkpt>
      <trkpt lat="44.98999" lon="6.56134">
        <ele>2358.2</ele>
        <time>2023-07-02T09:47:15+0200</time>
      </trkpt>
      <trkpt lat="44.98998" lon="6.5614">
        <ele>2356.5</ele>
        <time>2023-07-02T09:47:17+0200</time>
      </trkpt>
      <trkpt lat="44.98998" lon="6.56149">
        <ele>2353.9</ele>
        <time>2023-07-02T09:47:19+0200</time>
      </trkpt>
      <trkpt lat="44.99003" lon="6.56152">
        <ele>2353</ele>
        <time>2023-07-02T09:47:19+0200</time>
      </trkpt>
      <trkpt lat="44.99011" lon="6.56153">
        <ele>2351.6</ele>
        <time>2023-07-02T09:47:21+0200</time>
      </trkpt>
      <trkpt lat="44.99015" lon="6.56157">
        <ele>2349.9</ele>
        <time>2023-07-02T09:47:22+0200</time>
      </trkpt>
      <trkpt lat="44.99023" lon="6.56155">
        <ele>2349.5</ele>
        <time>2023-07-02T09:47:24+0200</time>
      </trkpt>
      <trkpt lat="44.99028" lon="6.56153">
        <ele>2349.5</ele>
        <time>2023-07-02T09:47:25+0200</time>
      </trkpt>
      <trkpt lat="44.99032" lon="6.56149">
        <ele>2349.5</ele>
        <time>2023-07-02T09:47:27+0200</time>
      </trkpt>
      <trkpt lat="44.99036" lon="6.56145">
        <ele>2349.5</ele>
        <time>2023-07-02T09:47:29+0200</time>
      </trkpt>
      <trkpt lat="44.99041" lon="6.56142">
        <ele>2348.7</ele>
        <time>2023-07-02T09:47:31+0200</time>
      </trkpt>
      <trkpt lat="44.99048" lon="6.56142">
        <ele>2346.7</ele>
        <time>2023-07-02T09:47:35+0200</time>
      </trkpt>
      <trkpt lat="44.99054" lon="6.56139">
        <ele>2345.6</ele>
        <time>2023-07-02T09:47:37+0200</time>
      </trkpt>
      <trkpt lat="44.99059" lon="6.56135">
        <ele>2345</ele>
        <time>2023-07-02T09:47:39+0200</time>
      </trkpt>
      <trkpt lat="44.99064" lon="6.56135">
        <ele>2343.6</ele>
        <time>2023-07-02T09:47:41+0200</time>
      </trkpt>
      <trkpt lat="44.9907" lon="6.56135">
        <ele>2341.9</ele>
        <time>2023-07-02T09:47:43+0200</time>
      </trkpt>
      <trkpt lat="44.99076" lon="6.56137">
        <ele>2339.5</ele>
        <time>2023-07-02T09:47:45+0200</time>
      </trkpt>
      <trkpt lat="44.99079" lon="6.56144">
        <ele>2336.8</ele>
        <time>2023-07-02T09:47:47+0200</time>
      </trkpt>
      <trkpt lat="44.99083" lon="6.56149">
        <ele>2334.6</ele>
        <time>2023-07-02T09:47:49+0200</time>
      </trkpt>
      <trkpt lat="44.99088" lon="6.56148">
        <ele>2333.6</ele>
        <time>2023-07-02T09:47:51+0200</time>
      </trkpt>
      <trkpt lat="44.99095" lon="6.56148">
        <ele>2331.9</ele>
        <time>2023-07-02T09:47:54+0200</time>
      </trkpt>
      <trkpt lat="44.99101" lon="6.56154">
        <ele>2328.8</ele>
        <time>2023-07-02T09:47:58+0200</time>
      </trkpt>
      <trkpt lat="44.99107" lon="6.56155">
        <ele>2327</ele>
        <time>2023-07-02T09:48:00+0200</time>
      </trkpt>
      <trkpt lat="44.99112" lon="6.56158">
        <ele>2325</ele>
        <time>2023-07-02T09:48:03+0200</time>
      </trkpt>
      <trkpt lat="44.99117" lon="6.5616">
        <ele>2323</ele>
        <time>2023-07-02T09:48:06+0200</time>
      </trkpt>
      <trkpt lat="44.99122" lon="6.5616">
        <ele>2321.7</ele>
        <time>2023-07-02T09:48:08+0200</time>
      </trkpt>
      <trkpt lat="44.99126" lon="6.56163">
        <ele>2320.1</ele>
        <time>2023-07-02T09:48:11+0200</time>
      </trkpt>
      <trkpt lat="44.99132" lon="6.56166">
        <ele>2317.8</ele>
        <time>2023-07-02T09:48:14+0200</time>
      </trkpt>
      <trkpt lat="44.99137" lon="6.56171">
        <ele>2315.6</ele>
        <time>2023-07-02T09:48:16+0200</time>
      </trkpt>
      <trkpt lat="44.99142" lon="6.56171">
        <ele>2314.4</ele>
        <time>2023-07-02T09:48:18+0200</time>
      </trkpt>
      <trkpt lat="44.99149" lon="6.56168">
        <ele>2313.5</ele>
        <time>2023-07-02T09:48:20+0200</time>
      </trkpt>
      <trkpt lat="44.99155" lon="6.56168">
        <ele>2312.2</ele>
        <time>2023-07-02T09:48:22+0200</time>
      </trkpt>
      <trkpt lat="44.9916" lon="6.56167">
        <ele>2311.3</ele>
        <time>2023-07-02T09:48:25+0200</time>
      </trkpt>
      <trkpt lat="44.99166" lon="6.56169">
        <ele>2309.5</ele>
        <time>2023-07-02T09:48:28+0200</time>
      </trkpt>
      <trkpt lat="44.99171" lon="6.5617">
        <ele>2308.5</ele>
        <time>2023-07-02T09:48:30+0200</time>
      </trkpt>
      <trkpt lat="44.99176" lon="6.56173">
        <ele>2306.8</ele>
        <time>2023-07-02T09:48:32+0200</time>
      </trkpt>
      <trkpt lat="44.99181" lon="6.56177">
        <ele>2304.9</ele>
        <time>2023-07-02T09:48:35+0200</time>
      </trkpt>
      <trkpt lat="44.99187" lon="6.56176">
        <ele>2304.2</ele>
        <time>2023-07-02T09:48:37+0200</time>
      </trkpt>
      <trkpt lat="44.99192" lon="6.56178">
        <ele>2302.9</ele>
        <time>2023-07-02T09:48:39+0200</time>
      </trkpt>
      <trkpt lat="44.99196" lon="6.56183">
        <ele>2301.1</ele>
        <time>2023-07-02T09:48:42+0200</time>
      </trkpt>
      <trkpt lat="44.99201" lon="6.56186">
        <ele>2299.7</ele>
        <time>2023-07-02T09:48:44+0200</time>
      </trkpt>
      <trkpt lat="44.99205" lon="6.5619">
        <ele>2298.3</ele>
        <time>2023-07-02T09:48:46+0200</time>
      </trkpt>
      <trkpt lat="44.99211" lon="6.56196">
        <ele>2296.4</ele>
        <time>2023-07-02T09:48:48+0200</time>
      </trkpt>
      <trkpt lat="44.99219" lon="6.562">
        <ele>2294.9</ele>
        <time>2023-07-02T09:48:50+0200</time>
      </trkpt>
      <trkpt lat="44.99223" lon="6.56204">
        <ele>2293.8</ele>
        <time>2023-07-02T09:48:51+0200</time>
      </trkpt>
      <trkpt lat="44.9923" lon="6.56207">
        <ele>2292.6</ele>
        <time>2023-07-02T09:48:53+0200</time>
      </trkpt>
      <trkpt lat="44.99233" lon="6.56213">
        <ele>2291.7</ele>
        <time>2023-07-02T09:48:54+0200</time>
      </trkpt>
      <trkpt lat="44.99236" lon="6.56223">
        <ele>2290.4</ele>
        <time>2023-07-02T09:48:56+0200</time>
      </trkpt>
      <trkpt lat="44.99241" lon="6.56228">
        <ele>2289.4</ele>
        <time>2023-07-02T09:48:58+0200</time>
      </trkpt>
      <trkpt lat="44.99249" lon="6.56234">
        <ele>2287.8</ele>
        <time>2023-07-02T09:49:00+0200</time>
      </trkpt>
      <trkpt lat="44.99255" lon="6.56238">
        <ele>2286.6</ele>
        <time>2023-07-02T09:49:01+0200</time>
      </trkpt>
      <trkpt lat="44.99261" lon="6.56239">
        <ele>2285.6</ele>
        <time>2023-07-02T09:49:02+0200</time>
      </trkpt>
      <trkpt lat="44.99267" lon="6.56239">
        <ele>2284.7</ele>
        <time>2023-07-02T09:49:03+0200</time>
      </trkpt>
      <trkpt lat="44.99273" lon="6.56244">
        <ele>2283.3</ele>
        <time>2023-07-02T09:49:06+0200</time>
      </trkpt>
      <trkpt lat="44.99277" lon="6.56241">
        <ele>2283.1</ele>
        <time>2023-07-02T09:49:08+0200</time>
      </trkpt>
      <trkpt lat="44.99277" lon="6.56234">
        <ele>2283.9</ele>
        <time>2023-07-02T09:49:10+0200</time>
      </trkpt>
      <trkpt lat="44.99279" lon="6.56229">
        <ele>2284.2</ele>
        <time>2023-07-02T09:49:12+0200</time>
      </trkpt>
      <trkpt lat="44.99284" lon="6.5623">
        <ele>2283.6</ele>
        <time>2023-07-02T09:49:14+0200</time>
      </trkpt>
      <trkpt lat="44.99287" lon="6.56238">
        <ele>2282.4</ele>
        <time>2023-07-02T09:49:16+0200</time>
      </trkpt>
      <trkpt lat="44.99292" lon="6.56237">
        <ele>2281.9</ele>
        <time>2023-07-02T09:49:18+0200</time>
      </trkpt>
      <trkpt lat="44.99298" lon="6.56235">
        <ele>2281.6</ele>
        <time>2023-07-02T09:49:19+0200</time>
      </trkpt>
      <trkpt lat="44.99303" lon="6.56239">
        <ele>2280.2</ele>
        <time>2023-07-02T09:49:21+0200</time>
      </trkpt>
      <trkpt lat="44.9931" lon="6.56241">
        <ele>2279.7</ele>
        <time>2023-07-02T09:49:23+0200</time>
      </trkpt>
      <trkpt lat="44.99316" lon="6.56244">
        <ele>2279</ele>
        <time>2023-07-02T09:49:25+0200</time>
      </trkpt>
      <trkpt lat="44.99324" lon="6.56244">
        <ele>2279.1</ele>
        <time>2023-07-02T09:49:27+0200</time>
      </trkpt>
      <trkpt lat="44.99329" lon="6.56246">
        <ele>2278.7</ele>
        <time>2023-07-02T09:49:28+0200</time>
      </trkpt>
      <trkpt lat="44.99336" lon="6.56253">
        <ele>2277.5</ele>
        <time>2023-07-02T09:49:30+0200</time>
      </trkpt>
      <trkpt lat="44.99341" lon="6.56256">
        <ele>2277.1</ele>
        <time>2023-07-02T09:49:32+0200</time>
      </trkpt>
      <trkpt lat="44.99346" lon="6.56262">
        <ele>2276.3</ele>
        <time>2023-07-02T09:49:35+0200</time>
      </trkpt>
      <trkpt lat="44.9935" lon="6.56268">
        <ele>2275.4</ele>
        <time>2023-07-02T09:49:37+0200</time>
      </trkpt>
      <trkpt lat="44.99354" lon="6.56272">
        <ele>2274.8</ele>
        <time>2023-07-02T09:49:39+0200</time>
      </trkpt>
      <trkpt lat="44.99357" lon="6.56277">
        <ele>2274</ele>
        <time>2023-07-02T09:49:41+0200</time>
      </trkpt>
      <trkpt lat="44.9936" lon="6.56284">
        <ele>2272.6</ele>
        <time>2023-07-02T09:49:43+0200</time>
      </trkpt>
      <trkpt lat="44.99364" lon="6.56288">
        <ele>2271.9</ele>
        <time>2023-07-02T09:49:44+0200</time>
      </trkpt>
      <trkpt lat="44.99367" lon="6.56292">
        <ele>2271.2</ele>
        <time>2023-07-02T09:49:45+0200</time>
      </trkpt>
      <trkpt lat="44.99373" lon="6.56299">
        <ele>2269.6</ele>
        <time>2023-07-02T09:49:47+0200</time>
      </trkpt>
      <trkpt lat="44.99377" lon="6.56297">
        <ele>2270</ele>
        <time>2023-07-02T09:49:49+0200</time>
      </trkpt>
      <trkpt lat="44.99383" lon="6.56298">
        <ele>2269.9</ele>
        <time>2023-07-02T09:49:52+0200</time>
      </trkpt>
      <trkpt lat="44.99387" lon="6.56303">
        <ele>2268.7</ele>
        <time>2023-07-02T09:49:54+0200</time>
      </trkpt>
      <trkpt lat="44.99394" lon="6.56308">
        <ele>2267.2</ele>
        <time>2023-07-02T09:49:56+0200</time>
      </trkpt>
      <trkpt lat="44.99399" lon="6.56311">
        <ele>2266.3</ele>
        <time>2023-07-02T09:49:57+0200</time>
      </trkpt>
      <trkpt lat="44.99403" lon="6.56313">
        <ele>2265.6</ele>
        <time>2023-07-02T09:49:58+0200</time>
      </trkpt>
      <trkpt lat="44.99408" lon="6.56317">
        <ele>2264.3</ele>
        <time>2023-07-02T09:49:59+0200</time>
      </trkpt>
      <trkpt lat="44.99414" lon="6.5632">
        <ele>2263.1</ele>
        <time>2023-07-02T09:50:00+0200</time>
      </trkpt>
      <trkpt lat="44.99419" lon="6.56324">
        <ele>2262</ele>
        <time>2023-07-02T09:50:01+0200</time>
      </trkpt>
      <trkpt lat="44.99423" lon="6.56328">
        <ele>2261</ele>
        <time>2023-07-02T09:50:02+0200</time>
      </trkpt>
      <trkpt lat="44.99429" lon="6.56327">
        <ele>2261.1</ele>
        <time>2023-07-02T09:50:04+0200</time>
      </trkpt>
      <trkpt lat="44.9944" lon="6.56329">
        <ele>2260.7</ele>
        <time>2023-07-02T09:50:06+0200</time>
      </trkpt>
      <trkpt lat="44.99446" lon="6.56327">
        <ele>2261</ele>
        <time>2023-07-02T09:50:08+0200</time>
      </trkpt>
      <trkpt lat="44.99451" lon="6.56331">
        <ele>2260.3</ele>
        <time>2023-07-02T09:50:10+0200</time>
      </trkpt>
      <trkpt lat="44.99456" lon="6.56329">
        <ele>2260.6</ele>
        <time>2023-07-02T09:50:11+0200</time>
      </trkpt>
      <trkpt lat="44.99461" lon="6.56326">
        <ele>2261.1</ele>
        <time>2023-07-02T09:50:14+0200</time>
      </trkpt>
      <trkpt lat="44.99468" lon="6.56326">
        <ele>2261.1</ele>
        <time>2023-07-02T09:50:17+0200</time>
      </trkpt>
      <trkpt lat="44.99475" lon="6.56325">
        <ele>2261</ele>
        <time>2023-07-02T09:50:19+0200</time>
      </trkpt>
      <trkpt lat="44.99482" lon="6.56325">
        <ele>2260.5</ele>
        <time>2023-07-02T09:50:21+0200</time>
      </trkpt>
      <trkpt lat="44.9949" lon="6.56323">
        <ele>2260.1</ele>
        <time>2023-07-02T09:50:23+0200</time>
      </trkpt>
      <trkpt lat="44.99495" lon="6.56323">
        <ele>2259.9</ele>
        <time>2023-07-02T09:50:24+0200</time>
      </trkpt>
      <trkpt lat="44.995" lon="6.56321">
        <ele>2259.8</ele>
        <time>2023-07-02T09:50:25+0200</time>
      </trkpt>
      <trkpt lat="44.99505" lon="6.56321">
        <ele>2259.7</ele>
        <time>2023-07-02T09:50:26+0200</time>
      </trkpt>
      <trkpt lat="44.9951" lon="6.56322">
        <ele>2259.7</ele>
        <time>2023-07-02T09:50:27+0200</time>
      </trkpt>
      <trkpt lat="44.99516" lon="6.56318">
        <ele>2260.2</ele>
        <time>2023-07-02T09:50:28+0200</time>
      </trkpt>
      <trkpt lat="44.99521" lon="6.56316">
        <ele>2260.6</ele>
        <time>2023-07-02T09:50:29+0200</time>
      </trkpt>
      <trkpt lat="44.99526" lon="6.56315">
        <ele>2260.7</ele>
        <time>2023-07-02T09:50:30+0200</time>
      </trkpt>
      <trkpt lat="44.99532" lon="6.56315">
        <ele>2260.5</ele>
        <time>2023-07-02T09:50:31+0200</time>
      </trkpt>
      <trkpt lat="44.99538" lon="6.56314">
        <ele>2260.6</ele>
        <time>2023-07-02T09:50:32+0200</time>
      </trkpt>
      <trkpt lat="44.99543" lon="6.56314">
        <ele>2260.5</ele>
        <time>2023-07-02T09:50:33+0200</time>
      </trkpt>
      <trkpt lat="44.99548" lon="6.56315">
        <ele>2260.2</ele>
        <time>2023-07-02T09:50:34+0200</time>
      </trkpt>
      <trkpt lat="44.99553" lon="6.56319">
        <ele>2259.6</ele>
        <time>2023-07-02T09:50:36+0200</time>
      </trkpt>
      <trkpt lat="44.99558" lon="6.56319">
        <ele>2259.1</ele>
        <time>2023-07-02T09:50:38+0200</time>
      </trkpt>
      <trkpt lat="44.99565" lon="6.56321">
        <ele>2257.9</ele>
        <time>2023-07-02T09:50:40+0200</time>
      </trkpt>
      <trkpt lat="44.99573" lon="6.56319">
        <ele>2256.7</ele>
        <time>2023-07-02T09:50:42+0200</time>
      </trkpt>
      <trkpt lat="44.99579" lon="6.56319">
        <ele>2255.8</ele>
        <time>2023-07-02T09:50:43+0200</time>
      </trkpt>
      <trkpt lat="44.99585" lon="6.56319">
        <ele>2254.8</ele>
        <time>2023-07-02T09:50:44+0200</time>
      </trkpt>
      <trkpt lat="44.99591" lon="6.56319">
        <ele>2253.8</ele>
        <time>2023-07-02T09:50:45+0200</time>
      </trkpt>
      <trkpt lat="44.99597" lon="6.56317">
        <ele>2253</ele>
        <time>2023-07-02T09:50:46+0200</time>
      </trkpt>
      <trkpt lat="44.99603" lon="6.56312">
        <ele>2252.5</ele>
        <time>2023-07-02T09:50:48+0200</time>
      </trkpt>
      <trkpt lat="44.99608" lon="6.56311">
        <ele>2251.8</ele>
        <time>2023-07-02T09:50:50+0200</time>
      </trkpt>
      <trkpt lat="44.99613" lon="6.5631">
        <ele>2251</ele>
        <time>2023-07-02T09:50:51+0200</time>
      </trkpt>
      <trkpt lat="44.99618" lon="6.56308">
        <ele>2250.3</ele>
        <time>2023-07-02T09:50:52+0200</time>
      </trkpt>
      <trkpt lat="44.99625" lon="6.56308">
        <ele>2249</ele>
        <time>2023-07-02T09:50:54+0200</time>
      </trkpt>
      <trkpt lat="44.99632" lon="6.56311">
        <ele>2247.4</ele>
        <time>2023-07-02T09:50:56+0200</time>
      </trkpt>
      <trkpt lat="44.99637" lon="6.5631">
        <ele>2246.6</ele>
        <time>2023-07-02T09:50:58+0200</time>
      </trkpt>
      <trkpt lat="44.99642" lon="6.56307">
        <ele>2246.5</ele>
        <time>2023-07-02T09:51:00+0200</time>
      </trkpt>
      <trkpt lat="44.99648" lon="6.56304">
        <ele>2246.4</ele>
        <time>2023-07-02T09:51:03+0200</time>
      </trkpt>
      <trkpt lat="44.99653" lon="6.56304">
        <ele>2245.7</ele>
        <time>2023-07-02T09:51:05+0200</time>
      </trkpt>
      <trkpt lat="44.99659" lon="6.56302">
        <ele>2245.5</ele>
        <time>2023-07-02T09:51:07+0200</time>
      </trkpt>
      <trkpt lat="44.99667" lon="6.56303">
        <ele>2244.4</ele>
        <time>2023-07-02T09:51:09+0200</time>
      </trkpt>
      <trkpt lat="44.99672" lon="6.563">
        <ele>2244.3</ele>
        <time>2023-07-02T09:51:10+0200</time>
      </trkpt>
      <trkpt lat="44.99676" lon="6.56296">
        <ele>2244.4</ele>
        <time>2023-07-02T09:51:11+0200</time>
      </trkpt>
      <trkpt lat="44.99682" lon="6.56297">
        <ele>2243.3</ele>
        <time>2023-07-02T09:51:13+0200</time>
      </trkpt>
      <trkpt lat="44.99689" lon="6.56295">
        <ele>2242.6</ele>
        <time>2023-07-02T09:51:15+0200</time>
      </trkpt>
      <trkpt lat="44.99693" lon="6.5629">
        <ele>2243</ele>
        <time>2023-07-02T09:51:17+0200</time>
      </trkpt>
      <trkpt lat="44.99699" lon="6.56288">
        <ele>2242.5</ele>
        <time>2023-07-02T09:51:21+0200</time>
      </trkpt>
      <trkpt lat="44.99706" lon="6.56287">
        <ele>2241.8</ele>
        <time>2023-07-02T09:51:23+0200</time>
      </trkpt>
      <trkpt lat="44.99712" lon="6.56286">
        <ele>2241.3</ele>
        <time>2023-07-02T09:51:25+0200</time>
      </trkpt>
      <trkpt lat="44.99719" lon="6.5628">
        <ele>2241.8</ele>
        <time>2023-07-02T09:51:27+0200</time>
      </trkpt>
      <trkpt lat="44.99723" lon="6.56276">
        <ele>2242.2</ele>
        <time>2023-07-02T09:51:29+0200</time>
      </trkpt>
      <trkpt lat="44.9973" lon="6.56273">
        <ele>2241.9</ele>
        <time>2023-07-02T09:51:31+0200</time>
      </trkpt>
      <trkpt lat="44.99737" lon="6.56269">
        <ele>2241.8</ele>
        <time>2023-07-02T09:51:32+0200</time>
      </trkpt>
      <trkpt lat="44.99744" lon="6.56266">
        <ele>2241.2</ele>
        <time>2023-07-02T09:51:34+0200</time>
      </trkpt>
      <trkpt lat="44.99749" lon="6.56264">
        <ele>2241.1</ele>
        <time>2023-07-02T09:51:35+0200</time>
      </trkpt>
      <trkpt lat="44.99756" lon="6.56259">
        <ele>2241</ele>
        <time>2023-07-02T09:51:37+0200</time>
      </trkpt>
      <trkpt lat="44.99764" lon="6.56256">
        <ele>2240.3</ele>
        <time>2023-07-02T09:51:39+0200</time>
      </trkpt>
      <trkpt lat="44.99769" lon="6.56254">
        <ele>2239.9</ele>
        <time>2023-07-02T09:51:40+0200</time>
      </trkpt>
      <trkpt lat="44.99773" lon="6.56251">
        <ele>2239.6</ele>
        <time>2023-07-02T09:51:41+0200</time>
      </trkpt>
      <trkpt lat="44.99781" lon="6.56249">
        <ele>2238.8</ele>
        <time>2023-07-02T09:51:43+0200</time>
      </trkpt>
      <trkpt lat="44.99785" lon="6.56245">
        <ele>2238.9</ele>
        <time>2023-07-02T09:51:44+0200</time>
      </trkpt>
      <trkpt lat="44.99794" lon="6.5624">
        <ele>2238.9</ele>
        <time>2023-07-02T09:51:46+0200</time>
      </trkpt>
      <trkpt lat="44.99798" lon="6.56236">
        <ele>2239.1</ele>
        <time>2023-07-02T09:51:47+0200</time>
      </trkpt>
      <trkpt lat="44.99802" lon="6.56232">
        <ele>2239.9</ele>
        <time>2023-07-02T09:51:49+0200</time>
      </trkpt>
      <trkpt lat="44.99808" lon="6.5623">
        <ele>2239.3</ele>
        <time>2023-07-02T09:51:53+0200</time>
      </trkpt>
      <trkpt lat="44.99813" lon="6.56233">
        <ele>2237.7</ele>
        <time>2023-07-02T09:51:55+0200</time>
      </trkpt>
      <trkpt lat="44.99821" lon="6.56233">
        <ele>2236.5</ele>
        <time>2023-07-02T09:51:57+0200</time>
      </trkpt>
      <trkpt lat="44.99828" lon="6.56233">
        <ele>2235.3</ele>
        <time>2023-07-02T09:51:59+0200</time>
      </trkpt>
      <trkpt lat="44.99833" lon="6.56233">
        <ele>2234.5</ele>
        <time>2023-07-02T09:52:03+0200</time>
      </trkpt>
      <trkpt lat="44.99838" lon="6.56231">
        <ele>2234.3</ele>
        <time>2023-07-02T09:52:05+0200</time>
      </trkpt>
      <trkpt lat="44.99843" lon="6.5623">
        <ele>2233.8</ele>
        <time>2023-07-02T09:52:07+0200</time>
      </trkpt>
      <trkpt lat="44.9985" lon="6.56228">
        <ele>2233.2</ele>
        <time>2023-07-02T09:52:12+0200</time>
      </trkpt>
      <trkpt lat="44.99856" lon="6.56226">
        <ele>2232.7</ele>
        <time>2023-07-02T09:52:15+0200</time>
      </trkpt>
      <trkpt lat="44.99861" lon="6.56226">
        <ele>2231.8</ele>
        <time>2023-07-02T09:52:18+0200</time>
      </trkpt>
      <trkpt lat="44.99869" lon="6.56224">
        <ele>2230.7</ele>
        <time>2023-07-02T09:52:20+0200</time>
      </trkpt>
      <trkpt lat="44.99874" lon="6.56217">
        <ele>2232.4</ele>
        <time>2023-07-02T09:52:22+0200</time>
      </trkpt>
      <trkpt lat="44.9988" lon="6.56214">
        <ele>2232.2</ele>
        <time>2023-07-02T09:52:25+0200</time>
      </trkpt>
      <trkpt lat="44.99886" lon="6.56214">
        <ele>2231.3</ele>
        <time>2023-07-02T09:52:28+0200</time>
      </trkpt>
      <trkpt lat="44.9989" lon="6.56209">
        <ele>2232.6</ele>
        <time>2023-07-02T09:52:30+0200</time>
      </trkpt>
      <trkpt lat="44.99894" lon="6.56208">
        <ele>2232.6</ele>
        <time>2023-07-02T09:52:32+0200</time>
      </trkpt>
      <trkpt lat="44.99899" lon="6.56209">
        <ele>2231.6</ele>
        <time>2023-07-02T09:52:33+0200</time>
      </trkpt>
      <trkpt lat="44.99905" lon="6.56208">
        <ele>2231.6</ele>
        <time>2023-07-02T09:52:37+0200</time>
      </trkpt>
      <trkpt lat="44.9991" lon="6.56209">
        <ele>2230.2</ele>
        <time>2023-07-02T09:52:39+0200</time>
      </trkpt>
      <trkpt lat="44.99915" lon="6.5621">
        <ele>2229.4</ele>
        <time>2023-07-02T09:52:40+0200</time>
      </trkpt>
      <trkpt lat="44.9992" lon="6.56207">
        <ele>2230.2</ele>
        <time>2023-07-02T09:52:42+0200</time>
      </trkpt>
      <trkpt lat="44.99927" lon="6.56208">
        <ele>2228.9</ele>
        <time>2023-07-02T09:52:45+0200</time>
      </trkpt>
      <trkpt lat="44.99935" lon="6.56208">
        <ele>2228</ele>
        <time>2023-07-02T09:52:47+0200</time>
      </trkpt>
      <trkpt lat="44.99942" lon="6.56208">
        <ele>2227</ele>
        <time>2023-07-02T09:52:49+0200</time>
      </trkpt>
      <trkpt lat="44.99949" lon="6.56207">
        <ele>2226.6</ele>
        <time>2023-07-02T09:52:50+0200</time>
      </trkpt>
      <trkpt lat="44.99953" lon="6.56205">
        <ele>2227.1</ele>
        <time>2023-07-02T09:52:51+0200</time>
      </trkpt>
      <trkpt lat="44.99958" lon="6.56204">
        <ele>2227.3</ele>
        <time>2023-07-02T09:52:52+0200</time>
      </trkpt>
      <trkpt lat="44.99967" lon="6.56203">
        <ele>2227</ele>
        <time>2023-07-02T09:52:54+0200</time>
      </trkpt>
      <trkpt lat="44.99971" lon="6.562">
        <ele>2227.6</ele>
        <time>2023-07-02T09:52:56+0200</time>
      </trkpt>
      <trkpt lat="44.99976" lon="6.56202">
        <ele>2226.3</ele>
        <time>2023-07-02T09:52:58+0200</time>
      </trkpt>
      <trkpt lat="44.99981" lon="6.56204">
        <ele>2225.2</ele>
        <time>2023-07-02T09:53:00+0200</time>
      </trkpt>
      <trkpt lat="44.99988" lon="6.56208">
        <ele>2222.6</ele>
        <time>2023-07-02T09:53:02+0200</time>
      </trkpt>
      <trkpt lat="44.99993" lon="6.56208">
        <ele>2222.5</ele>
        <time>2023-07-02T09:53:03+0200</time>
      </trkpt>
      <trkpt lat="44.99998" lon="6.56206">
        <ele>2223</ele>
        <time>2023-07-02T09:53:04+0200</time>
      </trkpt>
      <trkpt lat="45.00005" lon="6.5621">
        <ele>2220.8</ele>
        <time>2023-07-02T09:53:06+0200</time>
      </trkpt>
      <trkpt lat="45.00009" lon="6.56209">
        <ele>2221</ele>
        <time>2023-07-02T09:53:07+0200</time>
      </trkpt>
      <trkpt lat="45.00014" lon="6.5621">
        <ele>2220.6</ele>
        <time>2023-07-02T09:53:08+0200</time>
      </trkpt>
      <trkpt lat="45.0002" lon="6.56213">
        <ele>2219.2</ele>
        <time>2023-07-02T09:53:09+0200</time>
      </trkpt>
      <trkpt lat="45.00027" lon="6.56216">
        <ele>2217.8</ele>
        <time>2023-07-02T09:53:10+0200</time>
      </trkpt>
      <trkpt lat="45.00034" lon="6.56217">
        <ele>2217.5</ele>
        <time>2023-07-02T09:53:11+0200</time>
      </trkpt>
      <trkpt lat="45.0004" lon="6.56219">
        <ele>2216.4</ele>
        <time>2023-07-02T09:53:13+0200</time>
      </trkpt>
      <trkpt lat="45.00044" lon="6.56223">
        <ele>2214.7</ele>
        <time>2023-07-02T09:53:14+0200</time>
      </trkpt>
      <trkpt lat="45.00049" lon="6.56223">
        <ele>2214.8</ele>
        <time>2023-07-02T09:53:15+0200</time>
      </trkpt>
      <trkpt lat="45.00057" lon="6.56221">
        <ele>2215.7</ele>
        <time>2023-07-02T09:53:17+0200</time>
      </trkpt>
      <trkpt lat="45.0006" lon="6.56227">
        <ele>2213.6</ele>
        <time>2023-07-02T09:53:19+0200</time>
      </trkpt>
      <trkpt lat="45.00064" lon="6.56231">
        <ele>2212.1</ele>
        <time>2023-07-02T09:53:21+0200</time>
      </trkpt>
      <trkpt lat="45.00071" lon="6.56231">
        <ele>2212.1</ele>
        <time>2023-07-02T09:53:23+0200</time>
      </trkpt>
      <trkpt lat="45.00077" lon="6.56232">
        <ele>2211.8</ele>
        <time>2023-07-02T09:53:26+0200</time>
      </trkpt>
      <trkpt lat="45.00083" lon="6.56232">
        <ele>2211.8</ele>
        <time>2023-07-02T09:53:28+0200</time>
      </trkpt>
      <trkpt lat="45.00089" lon="6.56233">
        <ele>2211.4</ele>
        <time>2023-07-02T09:53:31+0200</time>
      </trkpt>
      <trkpt lat="45.00093" lon="6.56235">
        <ele>2210.1</ele>
        <time>2023-07-02T09:53:33+0200</time>
      </trkpt>
      <trkpt lat="45.00097" lon="6.56234">
        <ele>2210.5</ele>
        <time>2023-07-02T09:53:34+0200</time>
      </trkpt>
      <trkpt lat="45.00105" lon="6.56236">
        <ele>2209.6</ele>
        <time>2023-07-02T09:53:37+0200</time>
      </trkpt>
      <trkpt lat="45.00111" lon="6.56244">
        <ele>2206.5</ele>
        <time>2023-07-02T09:53:39+0200</time>
      </trkpt>
      <trkpt lat="45.00116" lon="6.56246">
        <ele>2205.9</ele>
        <time>2023-07-02T09:53:40+0200</time>
      </trkpt>
      <trkpt lat="45.00121" lon="6.56248">
        <ele>2205.6</ele>
        <time>2023-07-02T09:53:41+0200</time>
      </trkpt>
      <trkpt lat="45.00125" lon="6.56252">
        <ele>2204.4</ele>
        <time>2023-07-02T09:53:42+0200</time>
      </trkpt>
      <trkpt lat="45.0013" lon="6.56256">
        <ele>2203.4</ele>
        <time>2023-07-02T09:53:43+0200</time>
      </trkpt>
      <trkpt lat="45.00135" lon="6.56262">
        <ele>2202</ele>
        <time>2023-07-02T09:53:44+0200</time>
      </trkpt>
      <trkpt lat="45.0014" lon="6.56264">
        <ele>2201.4</ele>
        <time>2023-07-02T09:53:45+0200</time>
      </trkpt>
      <trkpt lat="45.00146" lon="6.56266">
        <ele>2201.2</ele>
        <time>2023-07-02T09:53:47+0200</time>
      </trkpt>
      <trkpt lat="45.00154" lon="6.56268">
        <ele>2201.1</ele>
        <time>2023-07-02T09:53:49+0200</time>
      </trkpt>
      <trkpt lat="45.00161" lon="6.56275">
        <ele>2199.6</ele>
        <time>2023-07-02T09:53:51+0200</time>
      </trkpt>
      <trkpt lat="45.00166" lon="6.56278">
        <ele>2199</ele>
        <time>2023-07-02T09:53:53+0200</time>
      </trkpt>
      <trkpt lat="45.00171" lon="6.56287">
        <ele>2196.4</ele>
        <time>2023-07-02T09:53:56+0200</time>
      </trkpt>
      <trkpt lat="45.00176" lon="6.5629">
        <ele>2195.6</ele>
        <time>2023-07-02T09:53:58+0200</time>
      </trkpt>
      <trkpt lat="45.00179" lon="6.56295">
        <ele>2193.9</ele>
        <time>2023-07-02T09:54:01+0200</time>
      </trkpt>
      <trkpt lat="45.00184" lon="6.56299">
        <ele>2192.7</ele>
        <time>2023-07-02T09:54:03+0200</time>
      </trkpt>
      <trkpt lat="45.0019" lon="6.56304">
        <ele>2190.8</ele>
        <time>2023-07-02T09:54:05+0200</time>
      </trkpt>
      <trkpt lat="45.00195" lon="6.5631">
        <ele>2189</ele>
        <time>2023-07-02T09:54:07+0200</time>
      </trkpt>
      <trkpt lat="45.00199" lon="6.56315">
        <ele>2189</ele>
        <time>2023-07-02T09:54:08+0200</time>
      </trkpt>
      <trkpt lat="45.00205" lon="6.5632">
        <ele>2188.9</ele>
        <time>2023-07-02T09:54:09+0200</time>
      </trkpt>
      <trkpt lat="45.00207" lon="6.56327">
        <ele>2187.6</ele>
        <time>2023-07-02T09:54:10+0200</time>
      </trkpt>
      <trkpt lat="45.0021" lon="6.56334">
        <ele>2186.1</ele>
        <time>2023-07-02T09:54:11+0200</time>
      </trkpt>
      <trkpt lat="45.00217" lon="6.56337">
        <ele>2186.5</ele>
        <time>2023-07-02T09:54:13+0200</time>
      </trkpt>
      <trkpt lat="45.00221" lon="6.56347">
        <ele>2185</ele>
        <time>2023-07-02T09:54:16+0200</time>
      </trkpt>
      <trkpt lat="45.00224" lon="6.56351">
        <ele>2184.6</ele>
        <time>2023-07-02T09:54:17+0200</time>
      </trkpt>
      <trkpt lat="45.00227" lon="6.56358">
        <ele>2183.8</ele>
        <time>2023-07-02T09:54:18+0200</time>
      </trkpt>
      <trkpt lat="45.0023" lon="6.56365">
        <ele>2183.2</ele>
        <time>2023-07-02T09:54:19+0200</time>
      </trkpt>
      <trkpt lat="45.00235" lon="6.56371">
        <ele>2183.3</ele>
        <time>2023-07-02T09:54:20+0200</time>
      </trkpt>
      <trkpt lat="45.00239" lon="6.56376">
        <ele>2183</ele>
        <time>2023-07-02T09:54:21+0200</time>
      </trkpt>
      <trkpt lat="45.00244" lon="6.56383">
        <ele>2182.2</ele>
        <time>2023-07-02T09:54:24+0200</time>
      </trkpt>
      <trkpt lat="45.00251" lon="6.56387">
        <ele>2181.7</ele>
        <time>2023-07-02T09:54:26+0200</time>
      </trkpt>
      <trkpt lat="45.00254" lon="6.56394">
        <ele>2181.2</ele>
        <time>2023-07-02T09:54:28+0200</time>
      </trkpt>
      <trkpt lat="45.00259" lon="6.56402">
        <ele>2181</ele>
        <time>2023-07-02T09:54:30+0200</time>
      </trkpt>
      <trkpt lat="45.00262" lon="6.56407">
        <ele>2180.7</ele>
        <time>2023-07-02T09:54:31+0200</time>
      </trkpt>
      <trkpt lat="45.00264" lon="6.56413">
        <ele>2179.9</ele>
        <time>2023-07-02T09:54:32+0200</time>
      </trkpt>
      <trkpt lat="45.00267" lon="6.5642">
        <ele>2178.8</ele>
        <time>2023-07-02T09:54:33+0200</time>
      </trkpt>
      <trkpt lat="45.00269" lon="6.56427">
        <ele>2177.7</ele>
        <time>2023-07-02T09:54:35+0200</time>
      </trkpt>
      <trkpt lat="45.00273" lon="6.56435">
        <ele>2176.7</ele>
        <time>2023-07-02T09:54:37+0200</time>
      </trkpt>
      <trkpt lat="45.00277" lon="6.56442">
        <ele>2175.4</ele>
        <time>2023-07-02T09:54:39+0200</time>
      </trkpt>
      <trkpt lat="45.0028" lon="6.56452">
        <ele>2174.4</ele>
        <time>2023-07-02T09:54:41+0200</time>
      </trkpt>
      <trkpt lat="45.0028" lon="6.56459">
        <ele>2173.2</ele>
        <time>2023-07-02T09:54:44+0200</time>
      </trkpt>
      <trkpt lat="45.00283" lon="6.56464">
        <ele>2173.1</ele>
        <time>2023-07-02T09:54:46+0200</time>
      </trkpt>
      <trkpt lat="45.00287" lon="6.56468">
        <ele>2173.6</ele>
        <time>2023-07-02T09:54:48+0200</time>
      </trkpt>
      <trkpt lat="45.00288" lon="6.56474">
        <ele>2172.9</ele>
        <time>2023-07-02T09:54:51+0200</time>
      </trkpt>
      <trkpt lat="45.0029" lon="6.56481">
        <ele>2172.6</ele>
        <time>2023-07-02T09:54:53+0200</time>
      </trkpt>
      <trkpt lat="45.00292" lon="6.56486">
        <ele>2172.3</ele>
        <time>2023-07-02T09:54:55+0200</time>
      </trkpt>
      <trkpt lat="45.00297" lon="6.56493">
        <ele>2172.4</ele>
        <time>2023-07-02T09:54:58+0200</time>
      </trkpt>
      <trkpt lat="45.00299" lon="6.56499">
        <ele>2171.7</ele>
        <time>2023-07-02T09:55:01+0200</time>
      </trkpt>
      <trkpt lat="45.00301" lon="6.56508">
        <ele>2171</ele>
        <time>2023-07-02T09:55:03+0200</time>
      </trkpt>
      <trkpt lat="45.00304" lon="6.56518">
        <ele>2170.2</ele>
        <time>2023-07-02T09:55:06+0200</time>
      </trkpt>
      <trkpt lat="45.00309" lon="6.56527">
        <ele>2170</ele>
        <time>2023-07-02T09:55:08+0200</time>
      </trkpt>
      <trkpt lat="45.00309" lon="6.56533">
        <ele>2169.4</ele>
        <time>2023-07-02T09:55:12+0200</time>
      </trkpt>
      <trkpt lat="45.00311" lon="6.56542">
        <ele>2168.9</ele>
        <time>2023-07-02T09:55:14+0200</time>
      </trkpt>
      <trkpt lat="45.00313" lon="6.56548">
        <ele>2168.7</ele>
        <time>2023-07-02T09:55:15+0200</time>
      </trkpt>
      <trkpt lat="45.00316" lon="6.56556">
        <ele>2168.4</ele>
        <time>2023-07-02T09:55:17+0200</time>
      </trkpt>
      <trkpt lat="45.00313" lon="6.56566">
        <ele>2166.4</ele>
        <time>2023-07-02T09:55:20+0200</time>
      </trkpt>
      <trkpt lat="45.00318" lon="6.56573">
        <ele>2166.4</ele>
        <time>2023-07-02T09:55:22+0200</time>
      </trkpt>
      <trkpt lat="45.0032" lon="6.56579">
        <ele>2165.7</ele>
        <time>2023-07-02T09:55:24+0200</time>
      </trkpt>
      <trkpt lat="45.00321" lon="6.56587">
        <ele>2165</ele>
        <time>2023-07-02T09:55:26+0200</time>
      </trkpt>
      <trkpt lat="45.00325" lon="6.56593">
        <ele>2165.1</ele>
        <time>2023-07-02T09:55:28+0200</time>
      </trkpt>
      <trkpt lat="45.00331" lon="6.56597">
        <ele>2165.7</ele>
        <time>2023-07-02T09:55:30+0200</time>
      </trkpt>
      <trkpt lat="45.00337" lon="6.56597">
        <ele>2166.7</ele>
        <time>2023-07-02T09:55:32+0200</time>
      </trkpt>
      <trkpt lat="45.00341" lon="6.56598">
        <ele>2167.4</ele>
        <time>2023-07-02T09:55:34+0200</time>
      </trkpt>
      <trkpt lat="45.00346" lon="6.56603">
        <ele>2167.2</ele>
        <time>2023-07-02T09:55:37+0200</time>
      </trkpt>
      <trkpt lat="45.00352" lon="6.5661">
        <ele>2167</ele>
        <time>2023-07-02T09:55:40+0200</time>
      </trkpt>
      <trkpt lat="45.00359" lon="6.56617">
        <ele>2166.4</ele>
        <time>2023-07-02T09:55:41+0200</time>
      </trkpt>
      <trkpt lat="45.00363" lon="6.5662">
        <ele>2166.3</ele>
        <time>2023-07-02T09:55:43+0200</time>
      </trkpt>
      <trkpt lat="45.00368" lon="6.56622">
        <ele>2166.5</ele>
        <time>2023-07-02T09:55:46+0200</time>
      </trkpt>
      <trkpt lat="45.00372" lon="6.56628">
        <ele>2165.7</ele>
        <time>2023-07-02T09:55:48+0200</time>
      </trkpt>
      <trkpt lat="45.00377" lon="6.56632">
        <ele>2165.4</ele>
        <time>2023-07-02T09:55:50+0200</time>
      </trkpt>
      <trkpt lat="45.0038" lon="6.56637">
        <ele>2164.4</ele>
        <time>2023-07-02T09:55:52+0200</time>
      </trkpt>
      <trkpt lat="45.00385" lon="6.56644">
        <ele>2163.3</ele>
        <time>2023-07-02T09:55:54+0200</time>
      </trkpt>
      <trkpt lat="45.0039" lon="6.56646">
        <ele>2163.4</ele>
        <time>2023-07-02T09:55:56+0200</time>
      </trkpt>
      <trkpt lat="45.00392" lon="6.56654">
        <ele>2161.7</ele>
        <time>2023-07-02T09:55:58+0200</time>
      </trkpt>
      <trkpt lat="45.00397" lon="6.56661">
        <ele>2160.8</ele>
        <time>2023-07-02T09:56:00+0200</time>
      </trkpt>
      <trkpt lat="45.004" lon="6.56668">
        <ele>2159.8</ele>
        <time>2023-07-02T09:56:02+0200</time>
      </trkpt>
      <trkpt lat="45.00404" lon="6.56672">
        <ele>2159.6</ele>
        <time>2023-07-02T09:56:04+0200</time>
      </trkpt>
      <trkpt lat="45.00407" lon="6.56677">
        <ele>2159.1</ele>
        <time>2023-07-02T09:56:10+0200</time>
      </trkpt>
      <trkpt lat="45.00409" lon="6.56682">
        <ele>2158.4</ele>
        <time>2023-07-02T09:56:12+0200</time>
      </trkpt>
      <trkpt lat="45.00414" lon="6.56686">
        <ele>2158.5</ele>
        <time>2023-07-02T09:56:15+0200</time>
      </trkpt>
      <trkpt lat="45.00419" lon="6.5669">
        <ele>2158.3</ele>
        <time>2023-07-02T09:56:18+0200</time>
      </trkpt>
      <trkpt lat="45.00424" lon="6.56695">
        <ele>2158.1</ele>
        <time>2023-07-02T09:56:20+0200</time>
      </trkpt>
      <trkpt lat="45.00429" lon="6.56704">
        <ele>2157.2</ele>
        <time>2023-07-02T09:56:23+0200</time>
      </trkpt>
      <trkpt lat="45.00432" lon="6.56709">
        <ele>2156.5</ele>
        <time>2023-07-02T09:56:24+0200</time>
      </trkpt>
      <trkpt lat="45.00436" lon="6.56713">
        <ele>2156.1</ele>
        <time>2023-07-02T09:56:25+0200</time>
      </trkpt>
      <trkpt lat="45.00442" lon="6.5672">
        <ele>2155.4</ele>
        <time>2023-07-02T09:56:27+0200</time>
      </trkpt>
      <trkpt lat="45.00447" lon="6.56728">
        <ele>2154</ele>
        <time>2023-07-02T09:56:29+0200</time>
      </trkpt>
      <trkpt lat="45.00452" lon="6.56732">
        <ele>2153.7</ele>
        <time>2023-07-02T09:56:30+0200</time>
      </trkpt>
      <trkpt lat="45.00459" lon="6.56737">
        <ele>2153.3</ele>
        <time>2023-07-02T09:56:32+0200</time>
      </trkpt>
      <trkpt lat="45.00464" lon="6.5674">
        <ele>2152.8</ele>
        <time>2023-07-02T09:56:33+0200</time>
      </trkpt>
      <trkpt lat="45.00469" lon="6.56743">
        <ele>2152.6</ele>
        <time>2023-07-02T09:56:35+0200</time>
      </trkpt>
      <trkpt lat="45.00474" lon="6.56747">
        <ele>2151.9</ele>
        <time>2023-07-02T09:56:37+0200</time>
      </trkpt>
      <trkpt lat="45.00482" lon="6.5675">
        <ele>2151.7</ele>
        <time>2023-07-02T09:56:39+0200</time>
      </trkpt>
      <trkpt lat="45.00486" lon="6.56755">
        <ele>2151.3</ele>
        <time>2023-07-02T09:56:40+0200</time>
      </trkpt>
      <trkpt lat="45.00489" lon="6.5676">
        <ele>2150.5</ele>
        <time>2023-07-02T09:56:41+0200</time>
      </trkpt>
      <trkpt lat="45.00494" lon="6.56764">
        <ele>2150.2</ele>
        <time>2023-07-02T09:56:42+0200</time>
      </trkpt>
      <trkpt lat="45.00497" lon="6.56769">
        <ele>2149.5</ele>
        <time>2023-07-02T09:56:43+0200</time>
      </trkpt>
      <trkpt lat="45.00501" lon="6.56775">
        <ele>2148.6</ele>
        <time>2023-07-02T09:56:44+0200</time>
      </trkpt>
      <trkpt lat="45.00504" lon="6.56779">
        <ele>2148.2</ele>
        <time>2023-07-02T09:56:45+0200</time>
      </trkpt>
      <trkpt lat="45.00509" lon="6.56787">
        <ele>2147.6</ele>
        <time>2023-07-02T09:56:47+0200</time>
      </trkpt>
      <trkpt lat="45.00516" lon="6.56795">
        <ele>2146.9</ele>
        <time>2023-07-02T09:56:49+0200</time>
      </trkpt>
      <trkpt lat="45.0052" lon="6.568">
        <ele>2146.3</ele>
        <time>2023-07-02T09:56:50+0200</time>
      </trkpt>
      <trkpt lat="45.00523" lon="6.56806">
        <ele>2145.5</ele>
        <time>2023-07-02T09:56:51+0200</time>
      </trkpt>
      <trkpt lat="45.00527" lon="6.56811">
        <ele>2145</ele>
        <time>2023-07-02T09:56:52+0200</time>
      </trkpt>
      <trkpt lat="45.00533" lon="6.56818">
        <ele>2144</ele>
        <time>2023-07-02T09:56:54+0200</time>
      </trkpt>
      <trkpt lat="45.00537" lon="6.56821">
        <ele>2143.8</ele>
        <time>2023-07-02T09:56:55+0200</time>
      </trkpt>
      <trkpt lat="45.00543" lon="6.56826">
        <ele>2142.9</ele>
        <time>2023-07-02T09:56:57+0200</time>
      </trkpt>
      <trkpt lat="45.00549" lon="6.56831">
        <ele>2142.3</ele>
        <time>2023-07-02T09:56:59+0200</time>
      </trkpt>
      <trkpt lat="45.00555" lon="6.56834">
        <ele>2141.7</ele>
        <time>2023-07-02T09:57:01+0200</time>
      </trkpt>
      <trkpt lat="45.00561" lon="6.56839">
        <ele>2141</ele>
        <time>2023-07-02T09:57:03+0200</time>
      </trkpt>
      <trkpt lat="45.00565" lon="6.56842">
        <ele>2140.5</ele>
        <time>2023-07-02T09:57:04+0200</time>
      </trkpt>
      <trkpt lat="45.00569" lon="6.56844">
        <ele>2139.9</ele>
        <time>2023-07-02T09:57:05+0200</time>
      </trkpt>
      <trkpt lat="45.00573" lon="6.56849">
        <ele>2139</ele>
        <time>2023-07-02T09:57:06+0200</time>
      </trkpt>
      <trkpt lat="45.00579" lon="6.56852">
        <ele>2138.2</ele>
        <time>2023-07-02T09:57:07+0200</time>
      </trkpt>
      <trkpt lat="45.00585" lon="6.56853">
        <ele>2138.1</ele>
        <time>2023-07-02T09:57:08+0200</time>
      </trkpt>
      <trkpt lat="45.00591" lon="6.56854">
        <ele>2138.1</ele>
        <time>2023-07-02T09:57:09+0200</time>
      </trkpt>
      <trkpt lat="45.00595" lon="6.56857">
        <ele>2137.5</ele>
        <time>2023-07-02T09:57:10+0200</time>
      </trkpt>
      <trkpt lat="45.006" lon="6.56858">
        <ele>2137.5</ele>
        <time>2023-07-02T09:57:11+0200</time>
      </trkpt>
      <trkpt lat="45.00605" lon="6.56859">
        <ele>2137.2</ele>
        <time>2023-07-02T09:57:12+0200</time>
      </trkpt>
      <trkpt lat="45.00611" lon="6.5686">
        <ele>2137.3</ele>
        <time>2023-07-02T09:57:13+0200</time>
      </trkpt>
      <trkpt lat="45.00616" lon="6.56862">
        <ele>2137</ele>
        <time>2023-07-02T09:57:14+0200</time>
      </trkpt>
      <trkpt lat="45.00622" lon="6.56863">
        <ele>2137</ele>
        <time>2023-07-02T09:57:15+0200</time>
      </trkpt>
      <trkpt lat="45.00627" lon="6.56863">
        <ele>2137.2</ele>
        <time>2023-07-02T09:57:16+0200</time>
      </trkpt>
      <trkpt lat="45.00632" lon="6.56865">
        <ele>2136.8</ele>
        <time>2023-07-02T09:57:17+0200</time>
      </trkpt>
      <trkpt lat="45.00637" lon="6.56867">
        <ele>2136.6</ele>
        <time>2023-07-02T09:57:18+0200</time>
      </trkpt>
      <trkpt lat="45.00642" lon="6.56869">
        <ele>2136.1</ele>
        <time>2023-07-02T09:57:19+0200</time>
      </trkpt>
      <trkpt lat="45.00647" lon="6.56873">
        <ele>2135.2</ele>
        <time>2023-07-02T09:57:20+0200</time>
      </trkpt>
      <trkpt lat="45.00652" lon="6.56876">
        <ele>2134.3</ele>
        <time>2023-07-02T09:57:21+0200</time>
      </trkpt>
      <trkpt lat="45.00658" lon="6.56878">
        <ele>2133.6</ele>
        <time>2023-07-02T09:57:22+0200</time>
      </trkpt>
      <trkpt lat="45.00663" lon="6.5688">
        <ele>2133.2</ele>
        <time>2023-07-02T09:57:23+0200</time>
      </trkpt>
      <trkpt lat="45.00668" lon="6.56881">
        <ele>2132.6</ele>
        <time>2023-07-02T09:57:24+0200</time>
      </trkpt>
      <trkpt lat="45.00674" lon="6.56882">
        <ele>2132.2</ele>
        <time>2023-07-02T09:57:25+0200</time>
      </trkpt>
      <trkpt lat="45.00683" lon="6.56884">
        <ele>2131.6</ele>
        <time>2023-07-02T09:57:27+0200</time>
      </trkpt>
      <trkpt lat="45.00688" lon="6.56886">
        <ele>2131.4</ele>
        <time>2023-07-02T09:57:28+0200</time>
      </trkpt>
      <trkpt lat="45.00693" lon="6.56884">
        <ele>2131.4</ele>
        <time>2023-07-02T09:57:29+0200</time>
      </trkpt>
      <trkpt lat="45.00699" lon="6.56884">
        <ele>2130.7</ele>
        <time>2023-07-02T09:57:30+0200</time>
      </trkpt>
      <trkpt lat="45.00704" lon="6.56885">
        <ele>2129.8</ele>
        <time>2023-07-02T09:57:31+0200</time>
      </trkpt>
      <trkpt lat="45.00711" lon="6.56883">
        <ele>2129</ele>
        <time>2023-07-02T09:57:32+0200</time>
      </trkpt>
      <trkpt lat="45.00717" lon="6.5688">
        <ele>2128.1</ele>
        <time>2023-07-02T09:57:33+0200</time>
      </trkpt>
      <trkpt lat="45.00723" lon="6.56879">
        <ele>2127.3</ele>
        <time>2023-07-02T09:57:34+0200</time>
      </trkpt>
      <trkpt lat="45.00731" lon="6.56877">
        <ele>2126.2</ele>
        <time>2023-07-02T09:57:36+0200</time>
      </trkpt>
      <trkpt lat="45.00736" lon="6.56873">
        <ele>2125.5</ele>
        <time>2023-07-02T09:57:37+0200</time>
      </trkpt>
      <trkpt lat="45.00742" lon="6.56869">
        <ele>2124.8</ele>
        <time>2023-07-02T09:57:38+0200</time>
      </trkpt>
      <trkpt lat="45.00748" lon="6.56865">
        <ele>2124.1</ele>
        <time>2023-07-02T09:57:39+0200</time>
      </trkpt>
      <trkpt lat="45.00754" lon="6.56865">
        <ele>2123.5</ele>
        <time>2023-07-02T09:57:40+0200</time>
      </trkpt>
      <trkpt lat="45.00761" lon="6.56866">
        <ele>2122.6</ele>
        <time>2023-07-02T09:57:41+0200</time>
      </trkpt>
      <trkpt lat="45.00766" lon="6.56867">
        <ele>2121.9</ele>
        <time>2023-07-02T09:57:42+0200</time>
      </trkpt>
      <trkpt lat="45.00772" lon="6.56868">
        <ele>2121.2</ele>
        <time>2023-07-02T09:57:43+0200</time>
      </trkpt>
      <trkpt lat="45.00779" lon="6.56868">
        <ele>2120.4</ele>
        <time>2023-07-02T09:57:44+0200</time>
      </trkpt>
      <trkpt lat="45.00785" lon="6.5687">
        <ele>2119.9</ele>
        <time>2023-07-02T09:57:45+0200</time>
      </trkpt>
      <trkpt lat="45.00791" lon="6.5687">
        <ele>2119.5</ele>
        <time>2023-07-02T09:57:45+0200</time>
      </trkpt>
      <trkpt lat="45.00798" lon="6.56872">
        <ele>2119.1</ele>
        <time>2023-07-02T09:57:46+0200</time>
      </trkpt>
      <trkpt lat="45.00805" lon="6.56872">
        <ele>2118.6</ele>
        <time>2023-07-02T09:57:47+0200</time>
      </trkpt>
      <trkpt lat="45.00812" lon="6.56873">
        <ele>2118.2</ele>
        <time>2023-07-02T09:57:48+0200</time>
      </trkpt>
      <trkpt lat="45.00818" lon="6.56874">
        <ele>2117.8</ele>
        <time>2023-07-02T09:57:49+0200</time>
      </trkpt>
      <trkpt lat="45.00824" lon="6.56877">
        <ele>2117.5</ele>
        <time>2023-07-02T09:57:50+0200</time>
      </trkpt>
      <trkpt lat="45.00833" lon="6.5688">
        <ele>2117</ele>
        <time>2023-07-02T09:57:52+0200</time>
      </trkpt>
      <trkpt lat="45.00838" lon="6.5688">
        <ele>2116.9</ele>
        <time>2023-07-02T09:57:53+0200</time>
      </trkpt>
      <trkpt lat="45.00843" lon="6.56881">
        <ele>2116.9</ele>
        <time>2023-07-02T09:57:54+0200</time>
      </trkpt>
      <trkpt lat="45.00852" lon="6.56879">
        <ele>2116.8</ele>
        <time>2023-07-02T09:57:56+0200</time>
      </trkpt>
      <trkpt lat="45.00861" lon="6.56881">
        <ele>2116.7</ele>
        <time>2023-07-02T09:57:58+0200</time>
      </trkpt>
      <trkpt lat="45.00866" lon="6.56881">
        <ele>2116.3</ele>
        <time>2023-07-02T09:57:59+0200</time>
      </trkpt>
      <trkpt lat="45.00871" lon="6.5688">
        <ele>2115.9</ele>
        <time>2023-07-02T09:58:00+0200</time>
      </trkpt>
      <trkpt lat="45.0088" lon="6.56879">
        <ele>2115.1</ele>
        <time>2023-07-02T09:58:02+0200</time>
      </trkpt>
      <trkpt lat="45.00886" lon="6.5688">
        <ele>2114.6</ele>
        <time>2023-07-02T09:58:04+0200</time>
      </trkpt>
      <trkpt lat="45.00891" lon="6.56881">
        <ele>2114.2</ele>
        <time>2023-07-02T09:58:06+0200</time>
      </trkpt>
      <trkpt lat="45.00898" lon="6.56879">
        <ele>2113.3</ele>
        <time>2023-07-02T09:58:08+0200</time>
      </trkpt>
      <trkpt lat="45.00904" lon="6.56878">
        <ele>2112.6</ele>
        <time>2023-07-02T09:58:10+0200</time>
      </trkpt>
      <trkpt lat="45.00913" lon="6.56878">
        <ele>2111.7</ele>
        <time>2023-07-02T09:58:12+0200</time>
      </trkpt>
      <trkpt lat="45.00918" lon="6.5688">
        <ele>2111.1</ele>
        <time>2023-07-02T09:58:13+0200</time>
      </trkpt>
      <trkpt lat="45.00924" lon="6.56881">
        <ele>2110.3</ele>
        <time>2023-07-02T09:58:14+0200</time>
      </trkpt>
      <trkpt lat="45.0093" lon="6.56882">
        <ele>2109.3</ele>
        <time>2023-07-02T09:58:15+0200</time>
      </trkpt>
      <trkpt lat="45.00934" lon="6.56883">
        <ele>2108.6</ele>
        <time>2023-07-02T09:58:16+0200</time>
      </trkpt>
      <trkpt lat="45.0094" lon="6.56885">
        <ele>2107.7</ele>
        <time>2023-07-02T09:58:17+0200</time>
      </trkpt>
      <trkpt lat="45.00944" lon="6.56888">
        <ele>2107</ele>
        <time>2023-07-02T09:58:18+0200</time>
      </trkpt>
      <trkpt lat="45.00949" lon="6.56892">
        <ele>2106.2</ele>
        <time>2023-07-02T09:58:19+0200</time>
      </trkpt>
      <trkpt lat="45.00954" lon="6.56894">
        <ele>2105.3</ele>
        <time>2023-07-02T09:58:20+0200</time>
      </trkpt>
      <trkpt lat="45.00958" lon="6.56897">
        <ele>2104.5</ele>
        <time>2023-07-02T09:58:21+0200</time>
      </trkpt>
      <trkpt lat="45.00963" lon="6.569">
        <ele>2103.8</ele>
        <time>2023-07-02T09:58:22+0200</time>
      </trkpt>
      <trkpt lat="45.00968" lon="6.56907">
        <ele>2102.8</ele>
        <time>2023-07-02T09:58:24+0200</time>
      </trkpt>
      <trkpt lat="45.0097" lon="6.56914">
        <ele>2102.3</ele>
        <time>2023-07-02T09:58:26+0200</time>
      </trkpt>
      <trkpt lat="45.00976" lon="6.56922">
        <ele>2100.7</ele>
        <time>2023-07-02T09:58:30+0200</time>
      </trkpt>
      <trkpt lat="45.0098" lon="6.56919">
        <ele>2100.4</ele>
        <time>2023-07-02T09:58:51+0200</time>
      </trkpt>
      <trkpt lat="45.00984" lon="6.56914">
        <ele>2099.8</ele>
        <time>2023-07-02T09:59:42+0200</time>
      </trkpt>
      <trkpt lat="45.00982" lon="6.5692">
        <ele>2100</ele>
        <time>2023-07-02T09:59:51+0200</time>
      </trkpt>
      <trkpt lat="45.00985" lon="6.56915">
        <ele>2099.7</ele>
        <time>2023-07-02T10:00:01+0200</time>
      </trkpt>
      <trkpt lat="45.0099" lon="6.56916">
        <ele>2098.8</ele>
        <time>2023-07-02T10:00:23+0200</time>
      </trkpt>
      <trkpt lat="45.00985" lon="6.56917">
        <ele>2099.7</ele>
        <time>2023-07-02T10:01:28+0200</time>
      </trkpt>
      <trkpt lat="45.0099" lon="6.56913">
        <ele>2098.8</ele>
        <time>2023-07-02T10:02:09+0200</time>
      </trkpt>
      <trkpt lat="45.00992" lon="6.56921">
        <ele>2098.3</ele>
        <time>2023-07-02T10:02:32+0200</time>
      </trkpt>
      <trkpt lat="45.00995" lon="6.56912">
        <ele>2097.8</ele>
        <time>2023-07-02T10:02:35+0200</time>
      </trkpt>
      <trkpt lat="45.00988" lon="6.56912">
        <ele>2099</ele>
        <time>2023-07-02T10:02:36+0200</time>
      </trkpt>
      <trkpt lat="45.00984" lon="6.56915">
        <ele>2099.8</ele>
        <time>2023-07-02T10:02:47+0200</time>
      </trkpt>
      <trkpt lat="45.00979" lon="6.56915">
        <ele>2100.7</ele>
        <time>2023-07-02T10:02:51+0200</time>
      </trkpt>
      <trkpt lat="45.00986" lon="6.56918">
        <ele>2099.5</ele>
        <time>2023-07-02T10:03:16+0200</time>
      </trkpt>
      <trkpt lat="45.0099" lon="6.56915">
        <ele>2098.7</ele>
        <time>2023-07-02T10:03:54+0200</time>
      </trkpt>
      <trkpt lat="45.00986" lon="6.56919">
        <ele>2099.4</ele>
        <time>2023-07-02T10:04:29+0200</time>
      </trkpt>
      <trkpt lat="45.00991" lon="6.56917">
        <ele>2098.6</ele>
        <time>2023-07-02T10:06:45+0200</time>
      </trkpt>
      <trkpt lat="45.00986" lon="6.56917">
        <ele>2099.5</ele>
        <time>2023-07-02T10:07:11+0200</time>
      </trkpt>
      <trkpt lat="45.00984" lon="6.56925">
        <ele>2099.2</ele>
        <time>2023-07-02T10:09:00+0200</time>
      </trkpt>
      <trkpt lat="45.00983" lon="6.56918">
        <ele>2100.1</ele>
        <time>2023-07-02T10:09:10+0200</time>
      </trkpt>
      <trkpt lat="45.00984" lon="6.56912">
        <ele>2099.8</ele>
        <time>2023-07-02T10:09:22+0200</time>
      </trkpt>
      <trkpt lat="45.00983" lon="6.56918">
        <ele>2100.1</ele>
        <time>2023-07-02T10:10:24+0200</time>
      </trkpt>
      <trkpt lat="45.00985" lon="6.56912">
        <ele>2099.6</ele>
        <time>2023-07-02T10:12:59+0200</time>
      </trkpt>
      <trkpt lat="45.01553" lon="6.577">
        <ele>1933.8</ele>
        <time>2023-07-02T10:19:14+0200</time>
      </trkpt>
      <trkpt lat="45.01558" lon="6.57684">
        <ele>1934.5</ele>
        <time>2023-07-02T10:19:15+0200</time>
      </trkpt>
      <trkpt lat="45.01559" lon="6.57648">
        <ele>1938.5</ele>
        <time>2023-07-02T10:19:17+0200</time>
      </trkpt>
      <trkpt lat="45.01566" lon="6.57661">
        <ele>1934.5</ele>
        <time>2023-07-02T10:19:18+0200</time>
      </trkpt>
      <trkpt lat="45.01564" lon="6.57656">
        <ele>1936.1</ele>
        <time>2023-07-02T10:19:25+0200</time>
      </trkpt>
      <trkpt lat="45.01563" lon="6.57663">
        <ele>1935.3</ele>
        <time>2023-07-02T10:20:41+0200</time>
      </trkpt>
      <trkpt lat="45.01564" lon="6.57673">
        <ele>1934</ele>
        <time>2023-07-02T10:20:44+0200</time>
      </trkpt>
      <trkpt lat="45.01565" lon="6.57684">
        <ele>1932.8</ele>
        <time>2023-07-02T10:20:46+0200</time>
      </trkpt>
      <trkpt lat="45.01565" lon="6.57696">
        <ele>1931.3</ele>
        <time>2023-07-02T10:20:48+0200</time>
      </trkpt>
      <trkpt lat="45.01565" lon="6.57703">
        <ele>1930.5</ele>
        <time>2023-07-02T10:20:49+0200</time>
      </trkpt>
      <trkpt lat="45.01565" lon="6.57712">
        <ele>1929.3</ele>
        <time>2023-07-02T10:20:50+0200</time>
      </trkpt>
      <trkpt lat="45.01565" lon="6.57719">
        <ele>1928.5</ele>
        <time>2023-07-02T10:20:51+0200</time>
      </trkpt>
      <trkpt lat="45.01567" lon="6.57732">
        <ele>1925.6</ele>
        <time>2023-07-02T10:20:53+0200</time>
      </trkpt>
      <trkpt lat="45.01572" lon="6.57735">
        <ele>1924.1</ele>
        <time>2023-07-02T10:20:54+0200</time>
      </trkpt>
      <trkpt lat="45.01577" lon="6.57734">
        <ele>1923.2</ele>
        <time>2023-07-02T10:20:55+0200</time>
      </trkpt>
      <trkpt lat="45.01582" lon="6.5773">
        <ele>1922.9</ele>
        <time>2023-07-02T10:20:56+0200</time>
      </trkpt>
      <trkpt lat="45.01587" lon="6.57722">
        <ele>1922.8</ele>
        <time>2023-07-02T10:20:58+0200</time>
      </trkpt>
      <trkpt lat="45.01592" lon="6.57713">
        <ele>1922.1</ele>
        <time>2023-07-02T10:21:00+0200</time>
      </trkpt>
      <trkpt lat="45.01597" lon="6.57705">
        <ele>1921.2</ele>
        <time>2023-07-02T10:21:02+0200</time>
      </trkpt>
      <trkpt lat="45.01602" lon="6.57701">
        <ele>1920.1</ele>
        <time>2023-07-02T10:21:04+0200</time>
      </trkpt>
      <trkpt lat="45.01606" lon="6.57695">
        <ele>1919.5</ele>
        <time>2023-07-02T10:21:06+0200</time>
      </trkpt>
      <trkpt lat="45.01611" lon="6.5769">
        <ele>1918.2</ele>
        <time>2023-07-02T10:21:09+0200</time>
      </trkpt>
      <trkpt lat="45.01616" lon="6.57684">
        <ele>1916.9</ele>
        <time>2023-07-02T10:21:10+0200</time>
      </trkpt>
      <trkpt lat="45.01616" lon="6.57691">
        <ele>1916.2</ele>
        <time>2023-07-02T10:21:13+0200</time>
      </trkpt>
      <trkpt lat="45.01616" lon="6.57698">
        <ele>1915.3</ele>
        <time>2023-07-02T10:21:14+0200</time>
      </trkpt>
      <trkpt lat="45.01618" lon="6.57706">
        <ele>1913.8</ele>
        <time>2023-07-02T10:21:15+0200</time>
      </trkpt>
      <trkpt lat="45.01619" lon="6.57712">
        <ele>1912.4</ele>
        <time>2023-07-02T10:21:16+0200</time>
      </trkpt>
      <trkpt lat="45.01621" lon="6.57724">
        <ele>1909.9</ele>
        <time>2023-07-02T10:21:18+0200</time>
      </trkpt>
      <trkpt lat="45.01621" lon="6.57733">
        <ele>1907.9</ele>
        <time>2023-07-02T10:21:20+0200</time>
      </trkpt>
      <trkpt lat="45.0162" lon="6.57739">
        <ele>1907.2</ele>
        <time>2023-07-02T10:21:21+0200</time>
      </trkpt>
      <trkpt lat="45.01627" lon="6.57743">
        <ele>1903</ele>
        <time>2023-07-02T10:21:23+0200</time>
      </trkpt>
      <trkpt lat="45.01631" lon="6.57739">
        <ele>1902.2</ele>
        <time>2023-07-02T10:21:24+0200</time>
      </trkpt>
      <trkpt lat="45.01635" lon="6.57735">
        <ele>1901.5</ele>
        <time>2023-07-02T10:21:26+0200</time>
      </trkpt>
      <trkpt lat="45.01638" lon="6.57729">
        <ele>1901.6</ele>
        <time>2023-07-02T10:21:27+0200</time>
      </trkpt>
      <trkpt lat="45.01643" lon="6.57724">
        <ele>1901</ele>
        <time>2023-07-02T10:21:28+0200</time>
      </trkpt>
      <trkpt lat="45.01647" lon="6.57719">
        <ele>1900.4</ele>
        <time>2023-07-02T10:21:29+0200</time>
      </trkpt>
      <trkpt lat="45.01651" lon="6.57714">
        <ele>1899.5</ele>
        <time>2023-07-02T10:21:30+0200</time>
      </trkpt>
      <trkpt lat="45.01655" lon="6.57708">
        <ele>1899.1</ele>
        <time>2023-07-02T10:21:31+0200</time>
      </trkpt>
      <trkpt lat="45.01658" lon="6.57704">
        <ele>1898.5</ele>
        <time>2023-07-02T10:21:32+0200</time>
      </trkpt>
      <trkpt lat="45.01662" lon="6.57698">
        <ele>1898</ele>
        <time>2023-07-02T10:21:34+0200</time>
      </trkpt>
      <trkpt lat="45.01668" lon="6.57687">
        <ele>1897.3</ele>
        <time>2023-07-02T10:21:36+0200</time>
      </trkpt>
      <trkpt lat="45.01671" lon="6.57682">
        <ele>1896.7</ele>
        <time>2023-07-02T10:21:37+0200</time>
      </trkpt>
      <trkpt lat="45.01676" lon="6.57678">
        <ele>1895.1</ele>
        <time>2023-07-02T10:21:38+0200</time>
      </trkpt>
      <trkpt lat="45.01679" lon="6.57672">
        <ele>1894.8</ele>
        <time>2023-07-02T10:21:39+0200</time>
      </trkpt>
      <trkpt lat="45.01683" lon="6.57664">
        <ele>1893.4</ele>
        <time>2023-07-02T10:21:40+0200</time>
      </trkpt>
      <trkpt lat="45.01688" lon="6.5766">
        <ele>1891.6</ele>
        <time>2023-07-02T10:21:41+0200</time>
      </trkpt>
      <trkpt lat="45.01693" lon="6.57655">
        <ele>1889.3</ele>
        <time>2023-07-02T10:21:43+0200</time>
      </trkpt>
      <trkpt lat="45.01699" lon="6.57649">
        <ele>1886</ele>
        <time>2023-07-02T10:21:45+0200</time>
      </trkpt>
      <trkpt lat="45.01706" lon="6.57642">
        <ele>1881.5</ele>
        <time>2023-07-02T10:21:47+0200</time>
      </trkpt>
      <trkpt lat="45.01709" lon="6.57636">
        <ele>1879.4</ele>
        <time>2023-07-02T10:21:48+0200</time>
      </trkpt>
      <trkpt lat="45.01711" lon="6.5763">
        <ele>1877.3</ele>
        <time>2023-07-02T10:21:49+0200</time>
      </trkpt>
      <trkpt lat="45.01715" lon="6.57624">
        <ele>1874.3</ele>
        <time>2023-07-02T10:21:50+0200</time>
      </trkpt>
      <trkpt lat="45.01719" lon="6.5762">
        <ele>1871</ele>
        <time>2023-07-02T10:21:51+0200</time>
      </trkpt>
      <trkpt lat="45.01721" lon="6.57606">
        <ele>1867.6</ele>
        <time>2023-07-02T10:21:53+0200</time>
      </trkpt>
      <trkpt lat="45.01719" lon="6.57599">
        <ele>1867.7</ele>
        <time>2023-07-02T10:21:54+0200</time>
      </trkpt>
      <trkpt lat="45.0172" lon="6.5759">
        <ele>1865.5</ele>
        <time>2023-07-02T10:21:55+0200</time>
      </trkpt>
      <trkpt lat="45.01719" lon="6.57583">
        <ele>1865.2</ele>
        <time>2023-07-02T10:21:56+0200</time>
      </trkpt>
      <trkpt lat="45.01716" lon="6.57576">
        <ele>1866.5</ele>
        <time>2023-07-02T10:21:57+0200</time>
      </trkpt>
      <trkpt lat="45.01716" lon="6.5757">
        <ele>1866.4</ele>
        <time>2023-07-02T10:21:58+0200</time>
      </trkpt>
      <trkpt lat="45.01712" lon="6.57564">
        <ele>1868.3</ele>
        <time>2023-07-02T10:21:59+0200</time>
      </trkpt>
      <trkpt lat="45.01713" lon="6.57553">
        <ele>1866.6</ele>
        <time>2023-07-02T10:22:01+0200</time>
      </trkpt>
      <trkpt lat="45.01718" lon="6.57548">
        <ele>1863.5</ele>
        <time>2023-07-02T10:22:02+0200</time>
      </trkpt>
      <trkpt lat="45.01722" lon="6.57541">
        <ele>1860.8</ele>
        <time>2023-07-02T10:22:03+0200</time>
      </trkpt>
      <trkpt lat="45.01724" lon="6.57535">
        <ele>1859.2</ele>
        <time>2023-07-02T10:22:04+0200</time>
      </trkpt>
      <trkpt lat="45.01728" lon="6.57526">
        <ele>1856.1</ele>
        <time>2023-07-02T10:22:06+0200</time>
      </trkpt>
      <trkpt lat="45.01734" lon="6.57518">
        <ele>1851.8</ele>
        <time>2023-07-02T10:22:08+0200</time>
      </trkpt>
      <trkpt lat="45.01739" lon="6.57516">
        <ele>1848.7</ele>
        <time>2023-07-02T10:22:09+0200</time>
      </trkpt>
      <trkpt lat="45.01744" lon="6.57502">
        <ele>1845.1</ele>
        <time>2023-07-02T10:22:11+0200</time>
      </trkpt>
      <trkpt lat="45.01748" lon="6.57491">
        <ele>1842.7</ele>
        <time>2023-07-02T10:22:12+0200</time>
      </trkpt>
      <trkpt lat="45.01751" lon="6.57481">
        <ele>1841.2</ele>
        <time>2023-07-02T10:22:13+0200</time>
      </trkpt>
      <trkpt lat="45.01754" lon="6.57472">
        <ele>1839.2</ele>
        <time>2023-07-02T10:22:14+0200</time>
      </trkpt>
      <trkpt lat="45.0176" lon="6.57463">
        <ele>1835.9</ele>
        <time>2023-07-02T10:22:15+0200</time>
      </trkpt>
      <trkpt lat="45.01763" lon="6.57457">
        <ele>1834</ele>
        <time>2023-07-02T10:22:16+0200</time>
      </trkpt>
      <trkpt lat="45.01767" lon="6.5745">
        <ele>1831.9</ele>
        <time>2023-07-02T10:22:17+0200</time>
      </trkpt>
      <trkpt lat="45.01772" lon="6.57441">
        <ele>1828.8</ele>
        <time>2023-07-02T10:22:19+0200</time>
      </trkpt>
      <trkpt lat="45.01776" lon="6.57432">
        <ele>1826.7</ele>
        <time>2023-07-02T10:22:21+0200</time>
      </trkpt>
      <trkpt lat="45.01778" lon="6.57423">
        <ele>1825.5</ele>
        <time>2023-07-02T10:22:23+0200</time>
      </trkpt>
      <trkpt lat="45.01784" lon="6.57416">
        <ele>1822.5</ele>
        <time>2023-07-02T10:22:26+0200</time>
      </trkpt>
      <trkpt lat="45.01787" lon="6.5741">
        <ele>1820.8</ele>
        <time>2023-07-02T10:22:28+0200</time>
      </trkpt>
      <trkpt lat="45.01789" lon="6.57404">
        <ele>1820</ele>
        <time>2023-07-02T10:22:29+0200</time>
      </trkpt>
      <trkpt lat="45.01792" lon="6.57395">
        <ele>1818.7</ele>
        <time>2023-07-02T10:22:30+0200</time>
      </trkpt>
      <trkpt lat="45.01793" lon="6.57388">
        <ele>1818.4</ele>
        <time>2023-07-02T10:22:31+0200</time>
      </trkpt>
      <trkpt lat="45.01794" lon="6.57379">
        <ele>1818.3</ele>
        <time>2023-07-02T10:22:32+0200</time>
      </trkpt>
      <trkpt lat="45.01796" lon="6.57373">
        <ele>1817.3</ele>
        <time>2023-07-02T10:22:33+0200</time>
      </trkpt>
      <trkpt lat="45.01803" lon="6.57369">
        <ele>1813.9</ele>
        <time>2023-07-02T10:22:35+0200</time>
      </trkpt>
      <trkpt lat="45.01809" lon="6.57364">
        <ele>1811.3</ele>
        <time>2023-07-02T10:22:37+0200</time>
      </trkpt>
      <trkpt lat="45.01814" lon="6.57361">
        <ele>1809.7</ele>
        <time>2023-07-02T10:22:38+0200</time>
      </trkpt>
      <trkpt lat="45.01824" lon="6.57359">
        <ele>1805.8</ele>
        <time>2023-07-02T10:22:40+0200</time>
      </trkpt>
      <trkpt lat="45.0183" lon="6.57356">
        <ele>1803.6</ele>
        <time>2023-07-02T10:22:41+0200</time>
      </trkpt>
      <trkpt lat="45.01837" lon="6.57352">
        <ele>1801.7</ele>
        <time>2023-07-02T10:22:42+0200</time>
      </trkpt>
      <trkpt lat="45.01842" lon="6.57349">
        <ele>1800.4</ele>
        <time>2023-07-02T10:22:43+0200</time>
      </trkpt>
      <trkpt lat="45.01851" lon="6.57346">
        <ele>1798.4</ele>
        <time>2023-07-02T10:22:45+0200</time>
      </trkpt>
      <trkpt lat="45.01852" lon="6.57356">
        <ele>1797.2</ele>
        <time>2023-07-02T10:22:48+0200</time>
      </trkpt>
      <trkpt lat="45.01848" lon="6.57364">
        <ele>1797.4</ele>
        <time>2023-07-02T10:22:49+0200</time>
      </trkpt>
      <trkpt lat="45.01851" lon="6.57371">
        <ele>1796.1</ele>
        <time>2023-07-02T10:22:50+0200</time>
      </trkpt>
      <trkpt lat="45.01851" lon="6.57383">
        <ele>1795.2</ele>
        <time>2023-07-02T10:22:52+0200</time>
      </trkpt>
      <trkpt lat="45.01847" lon="6.57394">
        <ele>1795.4</ele>
        <time>2023-07-02T10:22:54+0200</time>
      </trkpt>
      <trkpt lat="45.01848" lon="6.57406">
        <ele>1794.4</ele>
        <time>2023-07-02T10:22:55+0200</time>
      </trkpt>
      <trkpt lat="45.01849" lon="6.57413">
        <ele>1793.7</ele>
        <time>2023-07-02T10:22:56+0200</time>
      </trkpt>
      <trkpt lat="45.01849" lon="6.57422">
        <ele>1793.2</ele>
        <time>2023-07-02T10:22:57+0200</time>
      </trkpt>
      <trkpt lat="45.01851" lon="6.5743">
        <ele>1792</ele>
        <time>2023-07-02T10:22:58+0200</time>
      </trkpt>
      <trkpt lat="45.01853" lon="6.5744">
        <ele>1790.7</ele>
        <time>2023-07-02T10:22:58+0200</time>
      </trkpt>
      <trkpt lat="45.01855" lon="6.57452">
        <ele>1789.3</ele>
        <time>2023-07-02T10:22:59+0200</time>
      </trkpt>
      <trkpt lat="45.01857" lon="6.57461">
        <ele>1788.1</ele>
        <time>2023-07-02T10:23:00+0200</time>
      </trkpt>
      <trkpt lat="45.01856" lon="6.57469">
        <ele>1787.7</ele>
        <time>2023-07-02T10:23:01+0200</time>
      </trkpt>
      <trkpt lat="45.01854" lon="6.57478">
        <ele>1788.1</ele>
        <time>2023-07-02T10:23:02+0200</time>
      </trkpt>
      <trkpt lat="45.01853" lon="6.5749">
        <ele>1787.4</ele>
        <time>2023-07-02T10:23:03+0200</time>
      </trkpt>
      <trkpt lat="45.01852" lon="6.57501">
        <ele>1786.9</ele>
        <time>2023-07-02T10:23:04+0200</time>
      </trkpt>
      <trkpt lat="45.01849" lon="6.57513">
        <ele>1785.9</ele>
        <time>2023-07-02T10:23:05+0200</time>
      </trkpt>
      <trkpt lat="45.0185" lon="6.57527">
        <ele>1783.7</ele>
        <time>2023-07-02T10:23:06+0200</time>
      </trkpt>
      <trkpt lat="45.01852" lon="6.57539">
        <ele>1781.1</ele>
        <time>2023-07-02T10:23:07+0200</time>
      </trkpt>
      <trkpt lat="45.01854" lon="6.57547">
        <ele>1779.4</ele>
        <time>2023-07-02T10:23:08+0200</time>
      </trkpt>
      <trkpt lat="45.01852" lon="6.57555">
        <ele>1778.9</ele>
        <time>2023-07-02T10:23:09+0200</time>
      </trkpt>
      <trkpt lat="45.01854" lon="6.57565">
        <ele>1776.6</ele>
        <time>2023-07-02T10:23:10+0200</time>
      </trkpt>
      <trkpt lat="45.01857" lon="6.57573">
        <ele>1774.2</ele>
        <time>2023-07-02T10:23:11+0200</time>
      </trkpt>
      <trkpt lat="45.01857" lon="6.57583">
        <ele>1773</ele>
        <time>2023-07-02T10:23:12+0200</time>
      </trkpt>
      <trkpt lat="45.01852" lon="6.57586">
        <ele>1774.9</ele>
        <time>2023-07-02T10:23:13+0200</time>
      </trkpt>
      <trkpt lat="45.01846" lon="6.57589">
        <ele>1776.8</ele>
        <time>2023-07-02T10:23:14+0200</time>
      </trkpt>
      <trkpt lat="45.01844" lon="6.57596">
        <ele>1777.1</ele>
        <time>2023-07-02T10:23:15+0200</time>
      </trkpt>
      <trkpt lat="45.01844" lon="6.57604">
        <ele>1776.1</ele>
        <time>2023-07-02T10:23:16+0200</time>
      </trkpt>
      <trkpt lat="45.01844" lon="6.57613">
        <ele>1775.2</ele>
        <time>2023-07-02T10:23:18+0200</time>
      </trkpt>
      <trkpt lat="45.01841" lon="6.57618">
        <ele>1776</ele>
        <time>2023-07-02T10:23:20+0200</time>
      </trkpt>
      <trkpt lat="45.0184" lon="6.57625">
        <ele>1775.3</ele>
        <time>2023-07-02T10:23:22+0200</time>
      </trkpt>
      <trkpt lat="45.01839" lon="6.57631">
        <ele>1775.2</ele>
        <time>2023-07-02T10:23:23+0200</time>
      </trkpt>
      <trkpt lat="45.01838" lon="6.57646">
        <ele>1773.9</ele>
        <time>2023-07-02T10:23:25+0200</time>
      </trkpt>
      <trkpt lat="45.01844" lon="6.57655">
        <ele>1769.8</ele>
        <time>2023-07-02T10:23:27+0200</time>
      </trkpt>
      <trkpt lat="45.0185" lon="6.57663">
        <ele>1766</ele>
        <time>2023-07-02T10:23:28+0200</time>
      </trkpt>
      <trkpt lat="45.01853" lon="6.57671">
        <ele>1763.7</ele>
        <time>2023-07-02T10:23:29+0200</time>
      </trkpt>
      <trkpt lat="45.01854" lon="6.5768">
        <ele>1762.2</ele>
        <time>2023-07-02T10:23:30+0200</time>
      </trkpt>
      <trkpt lat="45.01852" lon="6.57689">
        <ele>1762.2</ele>
        <time>2023-07-02T10:23:32+0200</time>
      </trkpt>
      <trkpt lat="45.0185" lon="6.57696">
        <ele>1762.5</ele>
        <time>2023-07-02T10:23:33+0200</time>
      </trkpt>
      <trkpt lat="45.0185" lon="6.57704">
        <ele>1762.1</ele>
        <time>2023-07-02T10:23:34+0200</time>
      </trkpt>
      <trkpt lat="45.01853" lon="6.57712">
        <ele>1759.8</ele>
        <time>2023-07-02T10:23:35+0200</time>
      </trkpt>
      <trkpt lat="45.01857" lon="6.5772">
        <ele>1757.2</ele>
        <time>2023-07-02T10:23:37+0200</time>
      </trkpt>
      <trkpt lat="45.01856" lon="6.57728">
        <ele>1757.2</ele>
        <time>2023-07-02T10:23:38+0200</time>
      </trkpt>
      <trkpt lat="45.01858" lon="6.57736">
        <ele>1755.6</ele>
        <time>2023-07-02T10:23:39+0200</time>
      </trkpt>
      <trkpt lat="45.01861" lon="6.57748">
        <ele>1753.4</ele>
        <time>2023-07-02T10:23:41+0200</time>
      </trkpt>
      <trkpt lat="45.01865" lon="6.57755">
        <ele>1751.8</ele>
        <time>2023-07-02T10:23:43+0200</time>
      </trkpt>
      <trkpt lat="45.01867" lon="6.57764">
        <ele>1750.8</ele>
        <time>2023-07-02T10:23:45+0200</time>
      </trkpt>
      <trkpt lat="45.01867" lon="6.57771">
        <ele>1750.4</ele>
        <time>2023-07-02T10:23:47+0200</time>
      </trkpt>
      <trkpt lat="45.01864" lon="6.57781">
        <ele>1750.4</ele>
        <time>2023-07-02T10:23:49+0200</time>
      </trkpt>
      <trkpt lat="45.01864" lon="6.57793">
        <ele>1750</ele>
        <time>2023-07-02T10:23:51+0200</time>
      </trkpt>
      <trkpt lat="45.01869" lon="6.57803">
        <ele>1748.6</ele>
        <time>2023-07-02T10:23:52+0200</time>
      </trkpt>
      <trkpt lat="45.01867" lon="6.57813">
        <ele>1748.9</ele>
        <time>2023-07-02T10:23:54+0200</time>
      </trkpt>
      <trkpt lat="45.01868" lon="6.57826">
        <ele>1748.8</ele>
        <time>2023-07-02T10:23:55+0200</time>
      </trkpt>
      <trkpt lat="45.01867" lon="6.57837">
        <ele>1749</ele>
        <time>2023-07-02T10:23:56+0200</time>
      </trkpt>
      <trkpt lat="45.01867" lon="6.57846">
        <ele>1749</ele>
        <time>2023-07-02T10:23:57+0200</time>
      </trkpt>
      <trkpt lat="45.0187" lon="6.57856">
        <ele>1748.4</ele>
        <time>2023-07-02T10:23:58+0200</time>
      </trkpt>
      <trkpt lat="45.0187" lon="6.57866">
        <ele>1748.3</ele>
        <time>2023-07-02T10:23:59+0200</time>
      </trkpt>
      <trkpt lat="45.0187" lon="6.57877">
        <ele>1748.4</ele>
        <time>2023-07-02T10:24:00+0200</time>
      </trkpt>
      <trkpt lat="45.01869" lon="6.57888">
        <ele>1748.5</ele>
        <time>2023-07-02T10:24:01+0200</time>
      </trkpt>
      <trkpt lat="45.01869" lon="6.57898">
        <ele>1748.2</ele>
        <time>2023-07-02T10:24:02+0200</time>
      </trkpt>
      <trkpt lat="45.01867" lon="6.57907">
        <ele>1748.2</ele>
        <time>2023-07-02T10:24:03+0200</time>
      </trkpt>
      <trkpt lat="45.01867" lon="6.57917">
        <ele>1747.9</ele>
        <time>2023-07-02T10:24:04+0200</time>
      </trkpt>
      <trkpt lat="45.01867" lon="6.57927">
        <ele>1747.6</ele>
        <time>2023-07-02T10:24:05+0200</time>
      </trkpt>
      <trkpt lat="45.01866" lon="6.57938">
        <ele>1747.4</ele>
        <time>2023-07-02T10:24:06+0200</time>
      </trkpt>
      <trkpt lat="45.01865" lon="6.57948">
        <ele>1747.1</ele>
        <time>2023-07-02T10:24:07+0200</time>
      </trkpt>
      <trkpt lat="45.01865" lon="6.57956">
        <ele>1747</ele>
        <time>2023-07-02T10:24:08+0200</time>
      </trkpt>
      <trkpt lat="45.01863" lon="6.57965">
        <ele>1746.9</ele>
        <time>2023-07-02T10:24:09+0200</time>
      </trkpt>
      <trkpt lat="45.01862" lon="6.57973">
        <ele>1746.9</ele>
        <time>2023-07-02T10:24:10+0200</time>
      </trkpt>
      <trkpt lat="45.01859" lon="6.5798">
        <ele>1747.2</ele>
        <time>2023-07-02T10:24:11+0200</time>
      </trkpt>
      <trkpt lat="45.01859" lon="6.57987">
        <ele>1746.8</ele>
        <time>2023-07-02T10:24:12+0200</time>
      </trkpt>
      <trkpt lat="45.01861" lon="6.57997">
        <ele>1746.2</ele>
        <time>2023-07-02T10:24:13+0200</time>
      </trkpt>
      <trkpt lat="45.01859" lon="6.58004">
        <ele>1746.1</ele>
        <time>2023-07-02T10:24:14+0200</time>
      </trkpt>
      <trkpt lat="45.01861" lon="6.58013">
        <ele>1745.1</ele>
        <time>2023-07-02T10:24:15+0200</time>
      </trkpt>
      <trkpt lat="45.01861" lon="6.5802">
        <ele>1744.6</ele>
        <time>2023-07-02T10:24:16+0200</time>
      </trkpt>
      <trkpt lat="45.0186" lon="6.58029">
        <ele>1744.1</ele>
        <time>2023-07-02T10:24:17+0200</time>
      </trkpt>
      <trkpt lat="45.01858" lon="6.58041">
        <ele>1743.6</ele>
        <time>2023-07-02T10:24:19+0200</time>
      </trkpt>
      <trkpt lat="45.01856" lon="6.58048">
        <ele>1743.2</ele>
        <time>2023-07-02T10:24:20+0200</time>
      </trkpt>
      <trkpt lat="45.01855" lon="6.58055">
        <ele>1742.8</ele>
        <time>2023-07-02T10:24:21+0200</time>
      </trkpt>
      <trkpt lat="45.01851" lon="6.58064">
        <ele>1742.6</ele>
        <time>2023-07-02T10:24:22+0200</time>
      </trkpt>
      <trkpt lat="45.01848" lon="6.58076">
        <ele>1742</ele>
        <time>2023-07-02T10:24:24+0200</time>
      </trkpt>
      <trkpt lat="45.01848" lon="6.58087">
        <ele>1741.3</ele>
        <time>2023-07-02T10:24:25+0200</time>
      </trkpt>
      <trkpt lat="45.01844" lon="6.58095">
        <ele>1741</ele>
        <time>2023-07-02T10:24:26+0200</time>
      </trkpt>
      <trkpt lat="45.01842" lon="6.58102">
        <ele>1740.6</ele>
        <time>2023-07-02T10:24:27+0200</time>
      </trkpt>
      <trkpt lat="45.01841" lon="6.58109">
        <ele>1740.1</ele>
        <time>2023-07-02T10:24:28+0200</time>
      </trkpt>
      <trkpt lat="45.01837" lon="6.58115">
        <ele>1739.9</ele>
        <time>2023-07-02T10:24:29+0200</time>
      </trkpt>
      <trkpt lat="45.01832" lon="6.5812">
        <ele>1739.7</ele>
        <time>2023-07-02T10:24:30+0200</time>
      </trkpt>
      <trkpt lat="45.01828" lon="6.58124">
        <ele>1739.6</ele>
        <time>2023-07-02T10:24:31+0200</time>
      </trkpt>
      <trkpt lat="45.01823" lon="6.58128">
        <ele>1739.5</ele>
        <time>2023-07-02T10:24:32+0200</time>
      </trkpt>
      <trkpt lat="45.01819" lon="6.58132">
        <ele>1739.4</ele>
        <time>2023-07-02T10:24:33+0200</time>
      </trkpt>
      <trkpt lat="45.01813" lon="6.58136">
        <ele>1739.2</ele>
        <time>2023-07-02T10:24:34+0200</time>
      </trkpt>
      <trkpt lat="45.01808" lon="6.5814">
        <ele>1739</ele>
        <time>2023-07-02T10:24:35+0200</time>
      </trkpt>
      <trkpt lat="45.01804" lon="6.58142">
        <ele>1739</ele>
        <time>2023-07-02T10:24:36+0200</time>
      </trkpt>
      <trkpt lat="45.01798" lon="6.58144">
        <ele>1739.2</ele>
        <time>2023-07-02T10:24:37+0200</time>
      </trkpt>
      <trkpt lat="45.01791" lon="6.58146">
        <ele>1739.5</ele>
        <time>2023-07-02T10:24:39+0200</time>
      </trkpt>
      <trkpt lat="45.01783" lon="6.58151">
        <ele>1739.4</ele>
        <time>2023-07-02T10:24:41+0200</time>
      </trkpt>
      <trkpt lat="45.01779" lon="6.58155">
        <ele>1739.3</ele>
        <time>2023-07-02T10:24:42+0200</time>
      </trkpt>
      <trkpt lat="45.01775" lon="6.58153">
        <ele>1739.9</ele>
        <time>2023-07-02T10:24:43+0200</time>
      </trkpt>
      <trkpt lat="45.0177" lon="6.58157">
        <ele>1740.1</ele>
        <time>2023-07-02T10:24:44+0200</time>
      </trkpt>
      <trkpt lat="45.01765" lon="6.58161">
        <ele>1740.1</ele>
        <time>2023-07-02T10:24:45+0200</time>
      </trkpt>
      <trkpt lat="45.0176" lon="6.58163">
        <ele>1740.5</ele>
        <time>2023-07-02T10:24:46+0200</time>
      </trkpt>
      <trkpt lat="45.01756" lon="6.58168">
        <ele>1740.3</ele>
        <time>2023-07-02T10:24:47+0200</time>
      </trkpt>
      <trkpt lat="45.01752" lon="6.58173">
        <ele>1739.9</ele>
        <time>2023-07-02T10:24:48+0200</time>
      </trkpt>
      <trkpt lat="45.01748" lon="6.5818">
        <ele>1739.5</ele>
        <time>2023-07-02T10:24:49+0200</time>
      </trkpt>
      <trkpt lat="45.01743" lon="6.58187">
        <ele>1739.4</ele>
        <time>2023-07-02T10:24:50+0200</time>
      </trkpt>
      <trkpt lat="45.01738" lon="6.58194">
        <ele>1739.2</ele>
        <time>2023-07-02T10:24:51+0200</time>
      </trkpt>
      <trkpt lat="45.01736" lon="6.58203">
        <ele>1739</ele>
        <time>2023-07-02T10:24:52+0200</time>
      </trkpt>
      <trkpt lat="45.01733" lon="6.58209">
        <ele>1738.9</ele>
        <time>2023-07-02T10:24:53+0200</time>
      </trkpt>
      <trkpt lat="45.01729" lon="6.58213">
        <ele>1739</ele>
        <time>2023-07-02T10:24:55+0200</time>
      </trkpt>
      <trkpt lat="45.01728" lon="6.58222">
        <ele>1738.4</ele>
        <time>2023-07-02T10:25:00+0200</time>
      </trkpt>
      <trkpt lat="45.01728" lon="6.58228">
        <ele>1738.1</ele>
        <time>2023-07-02T10:25:05+0200</time>
      </trkpt>
      <trkpt lat="45.01725" lon="6.58235">
        <ele>1737.9</ele>
        <time>2023-07-02T10:25:09+0200</time>
      </trkpt>
      <trkpt lat="45.01723" lon="6.58242">
        <ele>1737.6</ele>
        <time>2023-07-02T10:25:12+0200</time>
      </trkpt>
      <trkpt lat="45.0172" lon="6.58248">
        <ele>1737.8</ele>
        <time>2023-07-02T10:25:14+0200</time>
      </trkpt>
      <trkpt lat="45.01716" lon="6.58254">
        <ele>1738.6</ele>
        <time>2023-07-02T10:25:16+0200</time>
      </trkpt>
      <trkpt lat="45.01712" lon="6.58261">
        <ele>1739.2</ele>
        <time>2023-07-02T10:25:19+0200</time>
      </trkpt>
      <trkpt lat="45.01709" lon="6.5827">
        <ele>1739.7</ele>
        <time>2023-07-02T10:25:22+0200</time>
      </trkpt>
      <trkpt lat="45.01706" lon="6.58277">
        <ele>1740</ele>
        <time>2023-07-02T10:25:24+0200</time>
      </trkpt>
      <trkpt lat="45.01703" lon="6.58283">
        <ele>1740.2</ele>
        <time>2023-07-02T10:25:26+0200</time>
      </trkpt>
      <trkpt lat="45.01701" lon="6.58292">
        <ele>1740.1</ele>
        <time>2023-07-02T10:25:28+0200</time>
      </trkpt>
      <trkpt lat="45.01701" lon="6.58299">
        <ele>1739.9</ele>
        <time>2023-07-02T10:25:31+0200</time>
      </trkpt>
      <trkpt lat="45.017" lon="6.58307">
        <ele>1739.7</ele>
        <time>2023-07-02T10:25:33+0200</time>
      </trkpt>
      <trkpt lat="45.01698" lon="6.58312">
        <ele>1740.1</ele>
        <time>2023-07-02T10:25:35+0200</time>
      </trkpt>
      <trkpt lat="45.01696" lon="6.58321">
        <ele>1740.1</ele>
        <time>2023-07-02T10:25:39+0200</time>
      </trkpt>
      <trkpt lat="45.01695" lon="6.58333">
        <ele>1739.8</ele>
        <time>2023-07-02T10:25:41+0200</time>
      </trkpt>
      <trkpt lat="45.01698" lon="6.58342">
        <ele>1738.7</ele>
        <time>2023-07-02T10:25:43+0200</time>
      </trkpt>
      <trkpt lat="45.01701" lon="6.58349">
        <ele>1737.7</ele>
        <time>2023-07-02T10:25:44+0200</time>
      </trkpt>
      <trkpt lat="45.01702" lon="6.58357">
        <ele>1736.7</ele>
        <time>2023-07-02T10:25:46+0200</time>
      </trkpt>
      <trkpt lat="45.01705" lon="6.58367">
        <ele>1735.1</ele>
        <time>2023-07-02T10:25:48+0200</time>
      </trkpt>
      <trkpt lat="45.01705" lon="6.58378">
        <ele>1733.9</ele>
        <time>2023-07-02T10:25:50+0200</time>
      </trkpt>
      <trkpt lat="45.01707" lon="6.5839">
        <ele>1731.9</ele>
        <time>2023-07-02T10:25:52+0200</time>
      </trkpt>
      <trkpt lat="45.0171" lon="6.58401">
        <ele>1729</ele>
        <time>2023-07-02T10:25:54+0200</time>
      </trkpt>
      <trkpt lat="45.01712" lon="6.58412">
        <ele>1725.9</ele>
        <time>2023-07-02T10:25:56+0200</time>
      </trkpt>
      <trkpt lat="45.01715" lon="6.58419">
        <ele>1723.2</ele>
        <time>2023-07-02T10:25:57+0200</time>
      </trkpt>
      <trkpt lat="45.01716" lon="6.58427">
        <ele>1721.4</ele>
        <time>2023-07-02T10:25:59+0200</time>
      </trkpt>
      <trkpt lat="45.01715" lon="6.58437">
        <ele>1719.8</ele>
        <time>2023-07-02T10:26:02+0200</time>
      </trkpt>
      <trkpt lat="45.01714" lon="6.58447">
        <ele>1717.8</ele>
        <time>2023-07-02T10:26:04+0200</time>
      </trkpt>
      <trkpt lat="45.01713" lon="6.58457">
        <ele>1715.5</ele>
        <time>2023-07-02T10:26:06+0200</time>
      </trkpt>
      <trkpt lat="45.01715" lon="6.58467">
        <ele>1712.1</ele>
        <time>2023-07-02T10:26:08+0200</time>
      </trkpt>
      <trkpt lat="45.01719" lon="6.58476">
        <ele>1708.1</ele>
        <time>2023-07-02T10:26:10+0200</time>
      </trkpt>
      <trkpt lat="45.01718" lon="6.58484">
        <ele>1706</ele>
        <time>2023-07-02T10:26:12+0200</time>
      </trkpt>
      <trkpt lat="45.01715" lon="6.58489">
        <ele>1705.5</ele>
        <time>2023-07-02T10:26:14+0200</time>
      </trkpt>
      <trkpt lat="45.01715" lon="6.58496">
        <ele>1703.2</ele>
        <time>2023-07-02T10:26:16+0200</time>
      </trkpt>
      <trkpt lat="45.01713" lon="6.58503">
        <ele>1701.7</ele>
        <time>2023-07-02T10:26:18+0200</time>
      </trkpt>
      <trkpt lat="45.01709" lon="6.58509">
        <ele>1700.8</ele>
        <time>2023-07-02T10:26:20+0200</time>
      </trkpt>
      <trkpt lat="45.01708" lon="6.58515">
        <ele>1699.2</ele>
        <time>2023-07-02T10:26:22+0200</time>
      </trkpt>
      <trkpt lat="45.01702" lon="6.58521">
        <ele>1698.3</ele>
        <time>2023-07-02T10:26:24+0200</time>
      </trkpt>
      <trkpt lat="45.01694" lon="6.58528">
        <ele>1697.4</ele>
        <time>2023-07-02T10:26:26+0200</time>
      </trkpt>
      <trkpt lat="45.01689" lon="6.5853">
        <ele>1698</ele>
        <time>2023-07-02T10:26:27+0200</time>
      </trkpt>
      <trkpt lat="45.01683" lon="6.58535">
        <ele>1698.7</ele>
        <time>2023-07-02T10:26:29+0200</time>
      </trkpt>
      <trkpt lat="45.01676" lon="6.58542">
        <ele>1698.6</ele>
        <time>2023-07-02T10:26:31+0200</time>
      </trkpt>
      <trkpt lat="45.0167" lon="6.58547">
        <ele>1699</ele>
        <time>2023-07-02T10:26:33+0200</time>
      </trkpt>
      <trkpt lat="45.01666" lon="6.58553">
        <ele>1698.1</ele>
        <time>2023-07-02T10:26:35+0200</time>
      </trkpt>
      <trkpt lat="45.01662" lon="6.58556">
        <ele>1699.6</ele>
        <time>2023-07-02T10:26:37+0200</time>
      </trkpt>
      <trkpt lat="45.01657" lon="6.58559">
        <ele>1701.3</ele>
        <time>2023-07-02T10:26:39+0200</time>
      </trkpt>
      <trkpt lat="45.01653" lon="6.58565">
        <ele>1702.2</ele>
        <time>2023-07-02T10:26:41+0200</time>
      </trkpt>
      <trkpt lat="45.0165" lon="6.58574">
        <ele>1702</ele>
        <time>2023-07-02T10:26:43+0200</time>
      </trkpt>
      <trkpt lat="45.01649" lon="6.58581">
        <ele>1700.7</ele>
        <time>2023-07-02T10:26:44+0200</time>
      </trkpt>
      <trkpt lat="45.01648" lon="6.58588">
        <ele>1699.3</ele>
        <time>2023-07-02T10:26:45+0200</time>
      </trkpt>
      <trkpt lat="45.01648" lon="6.58595">
        <ele>1698.2</ele>
        <time>2023-07-02T10:26:46+0200</time>
      </trkpt>
      <trkpt lat="45.01648" lon="6.58603">
        <ele>1696.7</ele>
        <time>2023-07-02T10:26:48+0200</time>
      </trkpt>
      <trkpt lat="45.01648" lon="6.5861">
        <ele>1695.9</ele>
        <time>2023-07-02T10:26:50+0200</time>
      </trkpt>
      <trkpt lat="45.01648" lon="6.58617">
        <ele>1694.4</ele>
        <time>2023-07-02T10:26:52+0200</time>
      </trkpt>
      <trkpt lat="45.01649" lon="6.58625">
        <ele>1692.7</ele>
        <time>2023-07-02T10:26:55+0200</time>
      </trkpt>
      <trkpt lat="45.01648" lon="6.58633">
        <ele>1691.8</ele>
        <time>2023-07-02T10:26:57+0200</time>
      </trkpt>
      <trkpt lat="45.01646" lon="6.58641">
        <ele>1692</ele>
        <time>2023-07-02T10:26:58+0200</time>
      </trkpt>
      <trkpt lat="45.01642" lon="6.58646">
        <ele>1694.1</ele>
        <time>2023-07-02T10:26:59+0200</time>
      </trkpt>
      <trkpt lat="45.0164" lon="6.58653">
        <ele>1694.9</ele>
        <time>2023-07-02T10:27:01+0200</time>
      </trkpt>
      <trkpt lat="45.0164" lon="6.5866">
        <ele>1694</ele>
        <time>2023-07-02T10:27:02+0200</time>
      </trkpt>
      <trkpt lat="45.01641" lon="6.58669">
        <ele>1692.1</ele>
        <time>2023-07-02T10:27:04+0200</time>
      </trkpt>
      <trkpt lat="45.01643" lon="6.58676">
        <ele>1689.8</ele>
        <time>2023-07-02T10:27:06+0200</time>
      </trkpt>
      <trkpt lat="45.01645" lon="6.58683">
        <ele>1687.6</ele>
        <time>2023-07-02T10:27:08+0200</time>
      </trkpt>
      <trkpt lat="45.01647" lon="6.58689">
        <ele>1685.4</ele>
        <time>2023-07-02T10:27:10+0200</time>
      </trkpt>
      <trkpt lat="45.01649" lon="6.58696">
        <ele>1683.2</ele>
        <time>2023-07-02T10:27:12+0200</time>
      </trkpt>
      <trkpt lat="45.01651" lon="6.58702">
        <ele>1681.9</ele>
        <time>2023-07-02T10:27:13+0200</time>
      </trkpt>
      <trkpt lat="45.01654" lon="6.5871">
        <ele>1679.4</ele>
        <time>2023-07-02T10:27:16+0200</time>
      </trkpt>
      <trkpt lat="45.01657" lon="6.58718">
        <ele>1676.8</ele>
        <time>2023-07-02T10:27:19+0200</time>
      </trkpt>
      <trkpt lat="45.01657" lon="6.58724">
        <ele>1676.2</ele>
        <time>2023-07-02T10:27:21+0200</time>
      </trkpt>
      <trkpt lat="45.01659" lon="6.58732">
        <ele>1675.6</ele>
        <time>2023-07-02T10:27:24+0200</time>
      </trkpt>
      <trkpt lat="45.01664" lon="6.58737">
        <ele>1672.9</ele>
        <time>2023-07-02T10:27:26+0200</time>
      </trkpt>
      <trkpt lat="45.0167" lon="6.58744">
        <ele>1670</ele>
        <time>2023-07-02T10:27:29+0200</time>
      </trkpt>
      <trkpt lat="45.01676" lon="6.58747">
        <ele>1667</ele>
        <time>2023-07-02T10:27:31+0200</time>
      </trkpt>
      <trkpt lat="45.01682" lon="6.58753">
        <ele>1664</ele>
        <time>2023-07-02T10:27:33+0200</time>
      </trkpt>
      <trkpt lat="45.01686" lon="6.58756">
        <ele>1662.1</ele>
        <time>2023-07-02T10:27:34+0200</time>
      </trkpt>
      <trkpt lat="45.01692" lon="6.5876">
        <ele>1659.3</ele>
        <time>2023-07-02T10:27:36+0200</time>
      </trkpt>
      <trkpt lat="45.01693" lon="6.58769">
        <ele>1659.1</ele>
        <time>2023-07-02T10:27:38+0200</time>
      </trkpt>
      <trkpt lat="45.01697" lon="6.58775">
        <ele>1658.1</ele>
        <time>2023-07-02T10:27:40+0200</time>
      </trkpt>
      <trkpt lat="45.01699" lon="6.58783">
        <ele>1658.1</ele>
        <time>2023-07-02T10:27:42+0200</time>
      </trkpt>
      <trkpt lat="45.01704" lon="6.5879">
        <ele>1656.7</ele>
        <time>2023-07-02T10:27:44+0200</time>
      </trkpt>
      <trkpt lat="45.01707" lon="6.58799">
        <ele>1656</ele>
        <time>2023-07-02T10:27:47+0200</time>
      </trkpt>
      <trkpt lat="45.01713" lon="6.58807">
        <ele>1653.9</ele>
        <time>2023-07-02T10:27:49+0200</time>
      </trkpt>
      <trkpt lat="45.01716" lon="6.58814">
        <ele>1652.5</ele>
        <time>2023-07-02T10:27:51+0200</time>
      </trkpt>
      <trkpt lat="45.01719" lon="6.58823">
        <ele>1651.7</ele>
        <time>2023-07-02T10:27:54+0200</time>
      </trkpt>
      <trkpt lat="45.01722" lon="6.5883">
        <ele>1650.3</ele>
        <time>2023-07-02T10:28:11+0200</time>
      </trkpt>
      <trkpt lat="45.01721" lon="6.58837">
        <ele>1650.6</ele>
        <time>2023-07-02T10:28:16+0200</time>
      </trkpt>
      <trkpt lat="45.01721" lon="6.58844">
        <ele>1650.9</ele>
        <time>2023-07-02T10:28:21+0200</time>
      </trkpt>
      <trkpt lat="45.01719" lon="6.58851">
        <ele>1651.8</ele>
        <time>2023-07-02T10:28:29+0200</time>
      </trkpt>
      <trkpt lat="45.01724" lon="6.58853">
        <ele>1649.5</ele>
        <time>2023-07-02T10:28:48+0200</time>
      </trkpt>
      <trkpt lat="45.01719" lon="6.58855">
        <ele>1651.7</ele>
        <time>2023-07-02T10:28:53+0200</time>
      </trkpt>
      <trkpt lat="45.01718" lon="6.58864">
        <ele>1652.6</ele>
        <time>2023-07-02T10:28:59+0200</time>
      </trkpt>
      <trkpt lat="45.01721" lon="6.58871">
        <ele>1651.6</ele>
        <time>2023-07-02T10:29:02+0200</time>
      </trkpt>
      <trkpt lat="45.01726" lon="6.58879">
        <ele>1649.9</ele>
        <time>2023-07-02T10:29:04+0200</time>
      </trkpt>
      <trkpt lat="45.01727" lon="6.58889">
        <ele>1650.2</ele>
        <time>2023-07-02T10:29:05+0200</time>
      </trkpt>
      <trkpt lat="45.01731" lon="6.58895">
        <ele>1648.7</ele>
        <time>2023-07-02T10:29:07+0200</time>
      </trkpt>
      <trkpt lat="45.01735" lon="6.589">
        <ele>1647.5</ele>
        <time>2023-07-02T10:29:08+0200</time>
      </trkpt>
      <trkpt lat="45.01739" lon="6.58909">
        <ele>1646.5</ele>
        <time>2023-07-02T10:29:09+0200</time>
      </trkpt>
      <trkpt lat="45.01744" lon="6.58919">
        <ele>1644.9</ele>
        <time>2023-07-02T10:29:10+0200</time>
      </trkpt>
      <trkpt lat="45.01746" lon="6.58926">
        <ele>1644.2</ele>
        <time>2023-07-02T10:29:11+0200</time>
      </trkpt>
      <trkpt lat="45.01749" lon="6.58936">
        <ele>1643.1</ele>
        <time>2023-07-02T10:29:12+0200</time>
      </trkpt>
      <trkpt lat="45.01753" lon="6.58944">
        <ele>1642.3</ele>
        <time>2023-07-02T10:29:13+0200</time>
      </trkpt>
      <trkpt lat="45.01754" lon="6.58951">
        <ele>1642.1</ele>
        <time>2023-07-02T10:29:14+0200</time>
      </trkpt>
      <trkpt lat="45.01755" lon="6.58959">
        <ele>1641.8</ele>
        <time>2023-07-02T10:29:17+0200</time>
      </trkpt>
      <trkpt lat="45.01755" lon="6.58967">
        <ele>1641.5</ele>
        <time>2023-07-02T10:29:20+0200</time>
      </trkpt>
      <trkpt lat="45.01759" lon="6.58979">
        <ele>1640.2</ele>
        <time>2023-07-02T10:29:22+0200</time>
      </trkpt>
      <trkpt lat="45.01758" lon="6.58992">
        <ele>1639.9</ele>
        <time>2023-07-02T10:29:24+0200</time>
      </trkpt>
      <trkpt lat="45.01758" lon="6.59002">
        <ele>1639.5</ele>
        <time>2023-07-02T10:29:26+0200</time>
      </trkpt>
      <trkpt lat="45.01757" lon="6.59009">
        <ele>1639.8</ele>
        <time>2023-07-02T10:29:28+0200</time>
      </trkpt>
      <trkpt lat="45.01757" lon="6.59019">
        <ele>1639.3</ele>
        <time>2023-07-02T10:29:29+0200</time>
      </trkpt>
      <trkpt lat="45.01755" lon="6.59026">
        <ele>1639.5</ele>
        <time>2023-07-02T10:29:31+0200</time>
      </trkpt>
      <trkpt lat="45.01752" lon="6.59034">
        <ele>1640.3</ele>
        <time>2023-07-02T10:29:33+0200</time>
      </trkpt>
      <trkpt lat="45.0175" lon="6.59043">
        <ele>1640.5</ele>
        <time>2023-07-02T10:29:37+0200</time>
      </trkpt>
      <trkpt lat="45.01753" lon="6.59053">
        <ele>1639.4</ele>
        <time>2023-07-02T10:29:40+0200</time>
      </trkpt>
      <trkpt lat="45.01754" lon="6.59063">
        <ele>1638.8</ele>
        <time>2023-07-02T10:29:42+0200</time>
      </trkpt>
      <trkpt lat="45.01753" lon="6.59071">
        <ele>1638.7</ele>
        <time>2023-07-02T10:29:44+0200</time>
      </trkpt>
      <trkpt lat="45.01756" lon="6.59079">
        <ele>1637.9</ele>
        <time>2023-07-02T10:29:46+0200</time>
      </trkpt>
      <trkpt lat="45.01755" lon="6.59085">
        <ele>1637.8</ele>
        <time>2023-07-02T10:29:47+0200</time>
      </trkpt>
      <trkpt lat="45.01756" lon="6.59098">
        <ele>1637.3</ele>
        <time>2023-07-02T10:29:50+0200</time>
      </trkpt>
      <trkpt lat="45.01756" lon="6.59109">
        <ele>1636.9</ele>
        <time>2023-07-02T10:29:52+0200</time>
      </trkpt>
      <trkpt lat="45.01754" lon="6.59117">
        <ele>1637</ele>
        <time>2023-07-02T10:29:53+0200</time>
      </trkpt>
      <trkpt lat="45.0175" lon="6.59125">
        <ele>1637</ele>
        <time>2023-07-02T10:29:55+0200</time>
      </trkpt>
      <trkpt lat="45.01746" lon="6.59128">
        <ele>1638.8</ele>
        <time>2023-07-02T10:29:57+0200</time>
      </trkpt>
      <trkpt lat="45.01739" lon="6.59135">
        <ele>1641.4</ele>
        <time>2023-07-02T10:29:59+0200</time>
      </trkpt>
      <trkpt lat="45.01735" lon="6.5914">
        <ele>1642.9</ele>
        <time>2023-07-02T10:30:00+0200</time>
      </trkpt>
      <trkpt lat="45.01734" lon="6.59148">
        <ele>1642.9</ele>
        <time>2023-07-02T10:30:01+0200</time>
      </trkpt>
      <trkpt lat="45.01734" lon="6.59155">
        <ele>1642.5</ele>
        <time>2023-07-02T10:30:02+0200</time>
      </trkpt>
      <trkpt lat="45.0173" lon="6.59159">
        <ele>1643.5</ele>
        <time>2023-07-02T10:30:03+0200</time>
      </trkpt>
      <trkpt lat="45.01733" lon="6.59168">
        <ele>1641.8</ele>
        <time>2023-07-02T10:30:06+0200</time>
      </trkpt>
      <trkpt lat="45.01734" lon="6.59177">
        <ele>1640.4</ele>
        <time>2023-07-02T10:30:08+0200</time>
      </trkpt>
      <trkpt lat="45.01735" lon="6.59184">
        <ele>1639.4</ele>
        <time>2023-07-02T10:30:10+0200</time>
      </trkpt>
      <trkpt lat="45.01736" lon="6.59191">
        <ele>1638.5</ele>
        <time>2023-07-02T10:30:12+0200</time>
      </trkpt>
      <trkpt lat="45.01736" lon="6.59202">
        <ele>1637.5</ele>
        <time>2023-07-02T10:30:14+0200</time>
      </trkpt>
      <trkpt lat="45.01734" lon="6.5921">
        <ele>1637.6</ele>
        <time>2023-07-02T10:30:16+0200</time>
      </trkpt>
      <trkpt lat="45.01733" lon="6.59216">
        <ele>1637.3</ele>
        <time>2023-07-02T10:30:17+0200</time>
      </trkpt>
      <trkpt lat="45.01731" lon="6.5923">
        <ele>1636.7</ele>
        <time>2023-07-02T10:30:19+0200</time>
      </trkpt>
      <trkpt lat="45.01726" lon="6.59238">
        <ele>1637.4</ele>
        <time>2023-07-02T10:30:21+0200</time>
      </trkpt>
      <trkpt lat="45.01723" lon="6.59245">
        <ele>1637.3</ele>
        <time>2023-07-02T10:30:24+0200</time>
      </trkpt>
      <trkpt lat="45.01722" lon="6.59253">
        <ele>1637.1</ele>
        <time>2023-07-02T10:30:26+0200</time>
      </trkpt>
      <trkpt lat="45.01717" lon="6.59259">
        <ele>1638.3</ele>
        <time>2023-07-02T10:30:28+0200</time>
      </trkpt>
      <trkpt lat="45.01713" lon="6.59268">
        <ele>1639.2</ele>
        <time>2023-07-02T10:30:30+0200</time>
      </trkpt>
      <trkpt lat="45.01713" lon="6.5928">
        <ele>1637.3</ele>
        <time>2023-07-02T10:30:31+0200</time>
      </trkpt>
      <trkpt lat="45.01715" lon="6.59287">
        <ele>1636.2</ele>
        <time>2023-07-02T10:30:32+0200</time>
      </trkpt>
      <trkpt lat="45.01716" lon="6.59293">
        <ele>1635.2</ele>
        <time>2023-07-02T10:30:34+0200</time>
      </trkpt>
      <trkpt lat="45.01714" lon="6.59305">
        <ele>1635</ele>
        <time>2023-07-02T10:30:37+0200</time>
      </trkpt>
      <trkpt lat="45.01715" lon="6.59314">
        <ele>1633.9</ele>
        <time>2023-07-02T10:30:38+0200</time>
      </trkpt>
      <trkpt lat="45.01713" lon="6.59325">
        <ele>1633.6</ele>
        <time>2023-07-02T10:30:40+0200</time>
      </trkpt>
      <trkpt lat="45.01708" lon="6.59335">
        <ele>1633.9</ele>
        <time>2023-07-02T10:30:42+0200</time>
      </trkpt>
      <trkpt lat="45.01705" lon="6.59343">
        <ele>1634.5</ele>
        <time>2023-07-02T10:30:44+0200</time>
      </trkpt>
      <trkpt lat="45.01708" lon="6.59353">
        <ele>1633</ele>
        <time>2023-07-02T10:30:47+0200</time>
      </trkpt>
      <trkpt lat="45.01707" lon="6.59361">
        <ele>1632.9</ele>
        <time>2023-07-02T10:30:49+0200</time>
      </trkpt>
      <trkpt lat="45.01709" lon="6.59367">
        <ele>1632</ele>
        <time>2023-07-02T10:30:51+0200</time>
      </trkpt>
      <trkpt lat="45.01707" lon="6.59376">
        <ele>1632</ele>
        <time>2023-07-02T10:30:55+0200</time>
      </trkpt>
      <trkpt lat="45.01709" lon="6.59387">
        <ele>1630.9</ele>
        <time>2023-07-02T10:30:57+0200</time>
      </trkpt>
      <trkpt lat="45.0171" lon="6.59395">
        <ele>1630.4</ele>
        <time>2023-07-02T10:30:58+0200</time>
      </trkpt>
      <trkpt lat="45.01712" lon="6.59401">
        <ele>1629.9</ele>
        <time>2023-07-02T10:30:59+0200</time>
      </trkpt>
      <trkpt lat="45.01712" lon="6.59408">
        <ele>1629.4</ele>
        <time>2023-07-02T10:31:00+0200</time>
      </trkpt>
      <trkpt lat="45.01713" lon="6.59415">
        <ele>1629</ele>
        <time>2023-07-02T10:31:01+0200</time>
      </trkpt>
      <trkpt lat="45.01715" lon="6.59422">
        <ele>1628.6</ele>
        <time>2023-07-02T10:31:02+0200</time>
      </trkpt>
      <trkpt lat="45.01718" lon="6.5943">
        <ele>1627.9</ele>
        <time>2023-07-02T10:31:03+0200</time>
      </trkpt>
      <trkpt lat="45.01721" lon="6.59437">
        <ele>1627.3</ele>
        <time>2023-07-02T10:31:04+0200</time>
      </trkpt>
      <trkpt lat="45.01723" lon="6.59444">
        <ele>1626.8</ele>
        <time>2023-07-02T10:31:05+0200</time>
      </trkpt>
      <trkpt lat="45.01725" lon="6.59452">
        <ele>1626.6</ele>
        <time>2023-07-02T10:31:06+0200</time>
      </trkpt>
      <trkpt lat="45.01728" lon="6.59459">
        <ele>1626.3</ele>
        <time>2023-07-02T10:31:07+0200</time>
      </trkpt>
      <trkpt lat="45.01731" lon="6.59467">
        <ele>1626</ele>
        <time>2023-07-02T10:31:08+0200</time>
      </trkpt>
      <trkpt lat="45.01735" lon="6.59475">
        <ele>1625.7</ele>
        <time>2023-07-02T10:31:09+0200</time>
      </trkpt>
      <trkpt lat="45.01738" lon="6.59483">
        <ele>1625.3</ele>
        <time>2023-07-02T10:31:10+0200</time>
      </trkpt>
      <trkpt lat="45.01743" lon="6.5949">
        <ele>1624.7</ele>
        <time>2023-07-02T10:31:11+0200</time>
      </trkpt>
      <trkpt lat="45.01747" lon="6.59498">
        <ele>1624.3</ele>
        <time>2023-07-02T10:31:12+0200</time>
      </trkpt>
      <trkpt lat="45.01751" lon="6.59506">
        <ele>1624.2</ele>
        <time>2023-07-02T10:31:13+0200</time>
      </trkpt>
      <trkpt lat="45.01752" lon="6.59514">
        <ele>1624.4</ele>
        <time>2023-07-02T10:31:14+0200</time>
      </trkpt>
      <trkpt lat="45.01755" lon="6.59522">
        <ele>1624.5</ele>
        <time>2023-07-02T10:31:15+0200</time>
      </trkpt>
      <trkpt lat="45.01757" lon="6.5953">
        <ele>1624.5</ele>
        <time>2023-07-02T10:31:16+0200</time>
      </trkpt>
      <trkpt lat="45.01758" lon="6.59537">
        <ele>1624.4</ele>
        <time>2023-07-02T10:31:17+0200</time>
      </trkpt>
      <trkpt lat="45.0176" lon="6.59545">
        <ele>1624.3</ele>
        <time>2023-07-02T10:31:18+0200</time>
      </trkpt>
      <trkpt lat="45.01761" lon="6.59553">
        <ele>1624.2</ele>
        <time>2023-07-02T10:31:19+0200</time>
      </trkpt>
      <trkpt lat="45.01761" lon="6.59561">
        <ele>1624.2</ele>
        <time>2023-07-02T10:31:20+0200</time>
      </trkpt>
      <trkpt lat="45.01761" lon="6.59568">
        <ele>1624.2</ele>
        <time>2023-07-02T10:31:21+0200</time>
      </trkpt>
      <trkpt lat="45.01762" lon="6.59577">
        <ele>1624.2</ele>
        <time>2023-07-02T10:31:22+0200</time>
      </trkpt>
      <trkpt lat="45.01762" lon="6.59585">
        <ele>1624.1</ele>
        <time>2023-07-02T10:31:23+0200</time>
      </trkpt>
      <trkpt lat="45.01763" lon="6.59594">
        <ele>1623.9</ele>
        <time>2023-07-02T10:31:24+0200</time>
      </trkpt>
      <trkpt lat="45.01762" lon="6.59602">
        <ele>1623.8</ele>
        <time>2023-07-02T10:31:25+0200</time>
      </trkpt>
      <trkpt lat="45.01762" lon="6.5961">
        <ele>1623.7</ele>
        <time>2023-07-02T10:31:26+0200</time>
      </trkpt>
      <trkpt lat="45.01763" lon="6.59619">
        <ele>1623.4</ele>
        <time>2023-07-02T10:31:27+0200</time>
      </trkpt>
      <trkpt lat="45.01764" lon="6.59629">
        <ele>1623.2</ele>
        <time>2023-07-02T10:31:28+0200</time>
      </trkpt>
      <trkpt lat="45.01764" lon="6.59638">
        <ele>1623</ele>
        <time>2023-07-02T10:31:29+0200</time>
      </trkpt>
      <trkpt lat="45.01763" lon="6.59647">
        <ele>1622.9</ele>
        <time>2023-07-02T10:31:30+0200</time>
      </trkpt>
      <trkpt lat="45.01763" lon="6.59657">
        <ele>1622.8</ele>
        <time>2023-07-02T10:31:31+0200</time>
      </trkpt>
      <trkpt lat="45.01762" lon="6.59666">
        <ele>1622.7</ele>
        <time>2023-07-02T10:31:32+0200</time>
      </trkpt>
      <trkpt lat="45.01761" lon="6.59676">
        <ele>1622.5</ele>
        <time>2023-07-02T10:31:33+0200</time>
      </trkpt>
      <trkpt lat="45.01759" lon="6.59685">
        <ele>1622.4</ele>
        <time>2023-07-02T10:31:34+0200</time>
      </trkpt>
      <trkpt lat="45.01756" lon="6.59694">
        <ele>1622.3</ele>
        <time>2023-07-02T10:31:35+0200</time>
      </trkpt>
      <trkpt lat="45.01755" lon="6.59702">
        <ele>1622.5</ele>
        <time>2023-07-02T10:31:36+0200</time>
      </trkpt>
      <trkpt lat="45.01752" lon="6.59711">
        <ele>1622.8</ele>
        <time>2023-07-02T10:31:37+0200</time>
      </trkpt>
      <trkpt lat="45.01749" lon="6.5972">
        <ele>1623.1</ele>
        <time>2023-07-02T10:31:38+0200</time>
      </trkpt>
      <trkpt lat="45.01746" lon="6.59728">
        <ele>1623.4</ele>
        <time>2023-07-02T10:31:39+0200</time>
      </trkpt>
      <trkpt lat="45.01743" lon="6.59736">
        <ele>1623.8</ele>
        <time>2023-07-02T10:31:40+0200</time>
      </trkpt>
      <trkpt lat="45.0174" lon="6.59743">
        <ele>1624.3</ele>
        <time>2023-07-02T10:31:41+0200</time>
      </trkpt>
      <trkpt lat="45.01736" lon="6.59748">
        <ele>1625.1</ele>
        <time>2023-07-02T10:31:42+0200</time>
      </trkpt>
      <trkpt lat="45.01729" lon="6.59755">
        <ele>1626.7</ele>
        <time>2023-07-02T10:31:44+0200</time>
      </trkpt>
      <trkpt lat="45.01728" lon="6.59761">
        <ele>1627.2</ele>
        <time>2023-07-02T10:31:46+0200</time>
      </trkpt>
      <trkpt lat="45.01729" lon="6.59769">
        <ele>1627.2</ele>
        <time>2023-07-02T10:31:48+0200</time>
      </trkpt>
      <trkpt lat="45.01728" lon="6.59777">
        <ele>1627.6</ele>
        <time>2023-07-02T10:31:51+0200</time>
      </trkpt>
      <trkpt lat="45.0173" lon="6.59785">
        <ele>1627.4</ele>
        <time>2023-07-02T10:31:53+0200</time>
      </trkpt>
      <trkpt lat="45.01732" lon="6.59791">
        <ele>1627.3</ele>
        <time>2023-07-02T10:31:56+0200</time>
      </trkpt>
      <trkpt lat="45.01729" lon="6.598">
        <ele>1628.6</ele>
        <time>2023-07-02T10:32:00+0200</time>
      </trkpt>
      <trkpt lat="45.01729" lon="6.59806">
        <ele>1629.1</ele>
        <time>2023-07-02T10:32:02+0200</time>
      </trkpt>
      <trkpt lat="45.0173" lon="6.59813">
        <ele>1629.1</ele>
        <time>2023-07-02T10:32:04+0200</time>
      </trkpt>
      <trkpt lat="45.01732" lon="6.59821">
        <ele>1628.8</ele>
        <time>2023-07-02T10:32:06+0200</time>
      </trkpt>
      <trkpt lat="45.0173" lon="6.59828">
        <ele>1629.5</ele>
        <time>2023-07-02T10:32:08+0200</time>
      </trkpt>
      <trkpt lat="45.01731" lon="6.59835">
        <ele>1629.7</ele>
        <time>2023-07-02T10:32:10+0200</time>
      </trkpt>
      <trkpt lat="45.01731" lon="6.59842">
        <ele>1630.2</ele>
        <time>2023-07-02T10:32:12+0200</time>
      </trkpt>
      <trkpt lat="45.01734" lon="6.5985">
        <ele>1629.9</ele>
        <time>2023-07-02T10:32:14+0200</time>
      </trkpt>
      <trkpt lat="45.01735" lon="6.59859">
        <ele>1630.3</ele>
        <time>2023-07-02T10:32:17+0200</time>
      </trkpt>
      <trkpt lat="45.01732" lon="6.59866">
        <ele>1631.6</ele>
        <time>2023-07-02T10:32:19+0200</time>
      </trkpt>
      <trkpt lat="45.01732" lon="6.59872">
        <ele>1632</ele>
        <time>2023-07-02T10:32:21+0200</time>
      </trkpt>
      <trkpt lat="45.01734" lon="6.59881">
        <ele>1632.1</ele>
        <time>2023-07-02T10:32:23+0200</time>
      </trkpt>
      <trkpt lat="45.01733" lon="6.59889">
        <ele>1632.8</ele>
        <time>2023-07-02T10:32:26+0200</time>
      </trkpt>
      <trkpt lat="45.01737" lon="6.59895">
        <ele>1632.3</ele>
        <time>2023-07-02T10:32:27+0200</time>
      </trkpt>
      <trkpt lat="45.01738" lon="6.59902">
        <ele>1632.3</ele>
        <time>2023-07-02T10:32:29+0200</time>
      </trkpt>
      <trkpt lat="45.01737" lon="6.59911">
        <ele>1633.3</ele>
        <time>2023-07-02T10:32:31+0200</time>
      </trkpt>
      <trkpt lat="45.01734" lon="6.59917">
        <ele>1634.5</ele>
        <time>2023-07-02T10:32:33+0200</time>
      </trkpt>
      <trkpt lat="45.01736" lon="6.59924">
        <ele>1634.2</ele>
        <time>2023-07-02T10:32:37+0200</time>
      </trkpt>
      <trkpt lat="45.01734" lon="6.5993">
        <ele>1634.6</ele>
        <time>2023-07-02T10:32:39+0200</time>
      </trkpt>
      <trkpt lat="45.0173" lon="6.59937">
        <ele>1635.7</ele>
        <time>2023-07-02T10:32:45+0200</time>
      </trkpt>
      <trkpt lat="45.0173" lon="6.59947">
        <ele>1635.9</ele>
        <time>2023-07-02T10:32:47+0200</time>
      </trkpt>
      <trkpt lat="45.01727" lon="6.59957">
        <ele>1636.6</ele>
        <time>2023-07-02T10:32:49+0200</time>
      </trkpt>
      <trkpt lat="45.01723" lon="6.59965">
        <ele>1637.7</ele>
        <time>2023-07-02T10:32:52+0200</time>
      </trkpt>
      <trkpt lat="45.01721" lon="6.59972">
        <ele>1638.2</ele>
        <time>2023-07-02T10:32:54+0200</time>
      </trkpt>
      <trkpt lat="45.01718" lon="6.59977">
        <ele>1638.5</ele>
        <time>2023-07-02T10:32:56+0200</time>
      </trkpt>
      <trkpt lat="45.01718" lon="6.59985">
        <ele>1638.5</ele>
        <time>2023-07-02T10:32:58+0200</time>
      </trkpt>
      <trkpt lat="45.01717" lon="6.59992">
        <ele>1638.3</ele>
        <time>2023-07-02T10:33:00+0200</time>
      </trkpt>
      <trkpt lat="45.01719" lon="6.6">
        <ele>1637.8</ele>
        <time>2023-07-02T10:33:02+0200</time>
      </trkpt>
      <trkpt lat="45.01721" lon="6.60005">
        <ele>1637</ele>
        <time>2023-07-02T10:33:04+0200</time>
      </trkpt>
      <trkpt lat="45.01724" lon="6.60016">
        <ele>1635.7</ele>
        <time>2023-07-02T10:33:06+0200</time>
      </trkpt>
      <trkpt lat="45.01726" lon="6.60026">
        <ele>1634.6</ele>
        <time>2023-07-02T10:33:08+0200</time>
      </trkpt>
      <trkpt lat="45.01727" lon="6.60035">
        <ele>1633.3</ele>
        <time>2023-07-02T10:33:09+0200</time>
      </trkpt>
      <trkpt lat="45.01728" lon="6.60045">
        <ele>1632.2</ele>
        <time>2023-07-02T10:33:10+0200</time>
      </trkpt>
      <trkpt lat="45.01726" lon="6.60051">
        <ele>1632.1</ele>
        <time>2023-07-02T10:33:12+0200</time>
      </trkpt>
      <trkpt lat="45.01726" lon="6.60058">
        <ele>1631.5</ele>
        <time>2023-07-02T10:33:15+0200</time>
      </trkpt>
      <trkpt lat="45.01723" lon="6.60064">
        <ele>1631.3</ele>
        <time>2023-07-02T10:33:17+0200</time>
      </trkpt>
      <trkpt lat="45.01723" lon="6.60074">
        <ele>1630.2</ele>
        <time>2023-07-02T10:33:19+0200</time>
      </trkpt>
      <trkpt lat="45.01723" lon="6.60084">
        <ele>1628.8</ele>
        <time>2023-07-02T10:33:21+0200</time>
      </trkpt>
      <trkpt lat="45.01726" lon="6.60093">
        <ele>1626.5</ele>
        <time>2023-07-02T10:33:22+0200</time>
      </trkpt>
      <trkpt lat="45.01725" lon="6.601">
        <ele>1625.6</ele>
        <time>2023-07-02T10:33:24+0200</time>
      </trkpt>
      <trkpt lat="45.01722" lon="6.60109">
        <ele>1625.4</ele>
        <time>2023-07-02T10:33:26+0200</time>
      </trkpt>
      <trkpt lat="45.01714" lon="6.60115">
        <ele>1626.7</ele>
        <time>2023-07-02T10:33:28+0200</time>
      </trkpt>
      <trkpt lat="45.01709" lon="6.60118">
        <ele>1627.5</ele>
        <time>2023-07-02T10:33:29+0200</time>
      </trkpt>
      <trkpt lat="45.01703" lon="6.60127">
        <ele>1628.2</ele>
        <time>2023-07-02T10:33:31+0200</time>
      </trkpt>
      <trkpt lat="45.01701" lon="6.60141">
        <ele>1627.2</ele>
        <time>2023-07-02T10:33:33+0200</time>
      </trkpt>
      <trkpt lat="45.01702" lon="6.60153">
        <ele>1625.8</ele>
        <time>2023-07-02T10:33:34+0200</time>
      </trkpt>
      <trkpt lat="45.01705" lon="6.60159">
        <ele>1624.7</ele>
        <time>2023-07-02T10:33:35+0200</time>
      </trkpt>
      <trkpt lat="45.01709" lon="6.60167">
        <ele>1622.7</ele>
        <time>2023-07-02T10:33:36+0200</time>
      </trkpt>
      <trkpt lat="45.01712" lon="6.60176">
        <ele>1621.6</ele>
        <time>2023-07-02T10:33:37+0200</time>
      </trkpt>
      <trkpt lat="45.01713" lon="6.60183">
        <ele>1620.9</ele>
        <time>2023-07-02T10:33:38+0200</time>
      </trkpt>
      <trkpt lat="45.01711" lon="6.6019">
        <ele>1621.2</ele>
        <time>2023-07-02T10:33:39+0200</time>
      </trkpt>
      <trkpt lat="45.0171" lon="6.60198">
        <ele>1620.7</ele>
        <time>2023-07-02T10:33:42+0200</time>
      </trkpt>
      <trkpt lat="45.01709" lon="6.60205">
        <ele>1620.6</ele>
        <time>2023-07-02T10:33:44+0200</time>
      </trkpt>
      <trkpt lat="45.0171" lon="6.60215">
        <ele>1619.6</ele>
        <time>2023-07-02T10:33:46+0200</time>
      </trkpt>
      <trkpt lat="45.01712" lon="6.60222">
        <ele>1618.7</ele>
        <time>2023-07-02T10:33:48+0200</time>
      </trkpt>
      <trkpt lat="45.01711" lon="6.60234">
        <ele>1618.2</ele>
        <time>2023-07-02T10:33:50+0200</time>
      </trkpt>
      <trkpt lat="45.01712" lon="6.60242">
        <ele>1617.6</ele>
        <time>2023-07-02T10:33:51+0200</time>
      </trkpt>
      <trkpt lat="45.0171" lon="6.60248">
        <ele>1617.8</ele>
        <time>2023-07-02T10:33:52+0200</time>
      </trkpt>
      <trkpt lat="45.0171" lon="6.60257">
        <ele>1617.5</ele>
        <time>2023-07-02T10:33:54+0200</time>
      </trkpt>
      <trkpt lat="45.01708" lon="6.60268">
        <ele>1617.5</ele>
        <time>2023-07-02T10:33:56+0200</time>
      </trkpt>
      <trkpt lat="45.0171" lon="6.60275">
        <ele>1616.8</ele>
        <time>2023-07-02T10:33:57+0200</time>
      </trkpt>
      <trkpt lat="45.01712" lon="6.60281">
        <ele>1616.2</ele>
        <time>2023-07-02T10:33:58+0200</time>
      </trkpt>
      <trkpt lat="45.01715" lon="6.60291">
        <ele>1615.4</ele>
        <time>2023-07-02T10:34:00+0200</time>
      </trkpt>
      <trkpt lat="45.01715" lon="6.60298">
        <ele>1615.3</ele>
        <time>2023-07-02T10:34:02+0200</time>
      </trkpt>
      <trkpt lat="45.01719" lon="6.60308">
        <ele>1614.1</ele>
        <time>2023-07-02T10:34:04+0200</time>
      </trkpt>
      <trkpt lat="45.01725" lon="6.60319">
        <ele>1612.9</ele>
        <time>2023-07-02T10:34:06+0200</time>
      </trkpt>
      <trkpt lat="45.01729" lon="6.60322">
        <ele>1612.1</ele>
        <time>2023-07-02T10:34:07+0200</time>
      </trkpt>
      <trkpt lat="45.01728" lon="6.60329">
        <ele>1612.4</ele>
        <time>2023-07-02T10:34:08+0200</time>
      </trkpt>
      <trkpt lat="45.01729" lon="6.60336">
        <ele>1612.1</ele>
        <time>2023-07-02T10:34:09+0200</time>
      </trkpt>
      <trkpt lat="45.01732" lon="6.60342">
        <ele>1611.2</ele>
        <time>2023-07-02T10:34:10+0200</time>
      </trkpt>
      <trkpt lat="45.01733" lon="6.6035">
        <ele>1610.6</ele>
        <time>2023-07-02T10:34:11+0200</time>
      </trkpt>
      <trkpt lat="45.01733" lon="6.60359">
        <ele>1610.1</ele>
        <time>2023-07-02T10:34:12+0200</time>
      </trkpt>
      <trkpt lat="45.01733" lon="6.60366">
        <ele>1609.3</ele>
        <time>2023-07-02T10:34:13+0200</time>
      </trkpt>
      <trkpt lat="45.01734" lon="6.60374">
        <ele>1608.5</ele>
        <time>2023-07-02T10:34:14+0200</time>
      </trkpt>
      <trkpt lat="45.01739" lon="6.60386">
        <ele>1606.2</ele>
        <time>2023-07-02T10:34:16+0200</time>
      </trkpt>
      <trkpt lat="45.01741" lon="6.60392">
        <ele>1605.4</ele>
        <time>2023-07-02T10:34:17+0200</time>
      </trkpt>
      <trkpt lat="45.01748" lon="6.60398">
        <ele>1604.1</ele>
        <time>2023-07-02T10:34:19+0200</time>
      </trkpt>
      <trkpt lat="45.01751" lon="6.60404">
        <ele>1603.3</ele>
        <time>2023-07-02T10:34:21+0200</time>
      </trkpt>
      <trkpt lat="45.01756" lon="6.60411">
        <ele>1602.6</ele>
        <time>2023-07-02T10:34:24+0200</time>
      </trkpt>
      <trkpt lat="45.01758" lon="6.60417">
        <ele>1602.1</ele>
        <time>2023-07-02T10:34:26+0200</time>
      </trkpt>
      <trkpt lat="45.01761" lon="6.60426">
        <ele>1601.4</ele>
        <time>2023-07-02T10:34:28+0200</time>
      </trkpt>
      <trkpt lat="45.01765" lon="6.6043">
        <ele>1600.9</ele>
        <time>2023-07-02T10:34:29+0200</time>
      </trkpt>
      <trkpt lat="45.01769" lon="6.60434">
        <ele>1600.3</ele>
        <time>2023-07-02T10:34:30+0200</time>
      </trkpt>
      <trkpt lat="45.01773" lon="6.60439">
        <ele>1599.7</ele>
        <time>2023-07-02T10:34:31+0200</time>
      </trkpt>
      <trkpt lat="45.01778" lon="6.60445">
        <ele>1599</ele>
        <time>2023-07-02T10:34:33+0200</time>
      </trkpt>
      <trkpt lat="45.01781" lon="6.60452">
        <ele>1598.9</ele>
        <time>2023-07-02T10:34:36+0200</time>
      </trkpt>
      <trkpt lat="45.01778" lon="6.60457">
        <ele>1599</ele>
        <time>2023-07-02T10:34:39+0200</time>
      </trkpt>
      <trkpt lat="45.01774" lon="6.60462">
        <ele>1599.4</ele>
        <time>2023-07-02T10:34:45+0200</time>
      </trkpt>
      <trkpt lat="45.01769" lon="6.60467">
        <ele>1599.9</ele>
        <time>2023-07-02T10:34:48+0200</time>
      </trkpt>
      <trkpt lat="45.01765" lon="6.60468">
        <ele>1600.4</ele>
        <time>2023-07-02T10:34:50+0200</time>
      </trkpt>
      <trkpt lat="45.01758" lon="6.6047">
        <ele>1601.2</ele>
        <time>2023-07-02T10:34:53+0200</time>
      </trkpt>
      <trkpt lat="45.01752" lon="6.60469">
        <ele>1601.8</ele>
        <time>2023-07-02T10:34:56+0200</time>
      </trkpt>
      <trkpt lat="45.01747" lon="6.6047">
        <ele>1602.3</ele>
        <time>2023-07-02T10:34:58+0200</time>
      </trkpt>
      <trkpt lat="45.01743" lon="6.60465">
        <ele>1602.6</ele>
        <time>2023-07-02T10:35:00+0200</time>
      </trkpt>
      <trkpt lat="45.01739" lon="6.60461">
        <ele>1603</ele>
        <time>2023-07-02T10:35:02+0200</time>
      </trkpt>
      <trkpt lat="45.01734" lon="6.60458">
        <ele>1603.5</ele>
        <time>2023-07-02T10:35:04+0200</time>
      </trkpt>
      <trkpt lat="45.01731" lon="6.60453">
        <ele>1603.9</ele>
        <time>2023-07-02T10:35:06+0200</time>
      </trkpt>
      <trkpt lat="45.01728" lon="6.60447">
        <ele>1604.3</ele>
        <time>2023-07-02T10:35:09+0200</time>
      </trkpt>
      <trkpt lat="45.01727" lon="6.6044">
        <ele>1604.8</ele>
        <time>2023-07-02T10:35:12+0200</time>
      </trkpt>
      <trkpt lat="45.01726" lon="6.60432">
        <ele>1605.4</ele>
        <time>2023-07-02T10:35:15+0200</time>
      </trkpt>
      <trkpt lat="45.01723" lon="6.60427">
        <ele>1606.2</ele>
        <time>2023-07-02T10:35:17+0200</time>
      </trkpt>
      <trkpt lat="45.01716" lon="6.60425">
        <ele>1606.9</ele>
        <time>2023-07-02T10:35:20+0200</time>
      </trkpt>
      <trkpt lat="45.01712" lon="6.60431">
        <ele>1606.9</ele>
        <time>2023-07-02T10:35:22+0200</time>
      </trkpt>
      <trkpt lat="45.01707" lon="6.60435">
        <ele>1607.1</ele>
        <time>2023-07-02T10:35:24+0200</time>
      </trkpt>
      <trkpt lat="45.01702" lon="6.60441">
        <ele>1607.3</ele>
        <time>2023-07-02T10:35:27+0200</time>
      </trkpt>
      <trkpt lat="45.01698" lon="6.60446">
        <ele>1607.7</ele>
        <time>2023-07-02T10:35:29+0200</time>
      </trkpt>
      <trkpt lat="45.01694" lon="6.60452">
        <ele>1608.1</ele>
        <time>2023-07-02T10:35:30+0200</time>
      </trkpt>
      <trkpt lat="45.0169" lon="6.6046">
        <ele>1608.8</ele>
        <time>2023-07-02T10:35:32+0200</time>
      </trkpt>
      <trkpt lat="45.01689" lon="6.60469">
        <ele>1609.2</ele>
        <time>2023-07-02T10:35:34+0200</time>
      </trkpt>
      <trkpt lat="45.01687" lon="6.60476">
        <ele>1609.7</ele>
        <time>2023-07-02T10:35:36+0200</time>
      </trkpt>
      <trkpt lat="45.01685" lon="6.60483">
        <ele>1610.4</ele>
        <time>2023-07-02T10:35:39+0200</time>
      </trkpt>
      <trkpt lat="45.01683" lon="6.60489">
        <ele>1611.1</ele>
        <time>2023-07-02T10:35:41+0200</time>
      </trkpt>
      <trkpt lat="45.0168" lon="6.60496">
        <ele>1612</ele>
        <time>2023-07-02T10:35:44+0200</time>
      </trkpt>
      <trkpt lat="45.01677" lon="6.60502">
        <ele>1612.9</ele>
        <time>2023-07-02T10:35:47+0200</time>
      </trkpt>
      <trkpt lat="45.01673" lon="6.60507">
        <ele>1613.9</ele>
        <time>2023-07-02T10:35:50+0200</time>
      </trkpt>
      <trkpt lat="45.0167" lon="6.60514">
        <ele>1614.8</ele>
        <time>2023-07-02T10:35:53+0200</time>
      </trkpt>
      <trkpt lat="45.01667" lon="6.60521">
        <ele>1615.6</ele>
        <time>2023-07-02T10:35:56+0200</time>
      </trkpt>
      <trkpt lat="45.01668" lon="6.6053">
        <ele>1615.9</ele>
        <time>2023-07-02T10:36:00+0200</time>
      </trkpt>
      <trkpt lat="45.01667" lon="6.60537">
        <ele>1616.6</ele>
        <time>2023-07-02T10:36:02+0200</time>
      </trkpt>
      <trkpt lat="45.01667" lon="6.60545">
        <ele>1617.2</ele>
        <time>2023-07-02T10:36:06+0200</time>
      </trkpt>
      <trkpt lat="45.01668" lon="6.60551">
        <ele>1617.5</ele>
        <time>2023-07-02T10:36:11+0200</time>
      </trkpt>
      <trkpt lat="45.01668" lon="6.6056">
        <ele>1617.9</ele>
        <time>2023-07-02T10:36:15+0200</time>
      </trkpt>
      <trkpt lat="45.01667" lon="6.60568">
        <ele>1618.3</ele>
        <time>2023-07-02T10:36:19+0200</time>
      </trkpt>
      <trkpt lat="45.01667" lon="6.60576">
        <ele>1618.7</ele>
        <time>2023-07-02T10:36:23+0200</time>
      </trkpt>
      <trkpt lat="45.01668" lon="6.60582">
        <ele>1618.8</ele>
        <time>2023-07-02T10:36:26+0200</time>
      </trkpt>
      <trkpt lat="45.01667" lon="6.6059">
        <ele>1619.4</ele>
        <time>2023-07-02T10:36:29+0200</time>
      </trkpt>
      <trkpt lat="45.01669" lon="6.60596">
        <ele>1619.5</ele>
        <time>2023-07-02T10:36:31+0200</time>
      </trkpt>
      <trkpt lat="45.0167" lon="6.60603">
        <ele>1619.9</ele>
        <time>2023-07-02T10:36:33+0200</time>
      </trkpt>
      <trkpt lat="45.01671" lon="6.60611">
        <ele>1620.4</ele>
        <time>2023-07-02T10:36:35+0200</time>
      </trkpt>
      <trkpt lat="45.01669" lon="6.60619">
        <ele>1620.9</ele>
        <time>2023-07-02T10:36:37+0200</time>
      </trkpt>
      <trkpt lat="45.01669" lon="6.60625">
        <ele>1621.2</ele>
        <time>2023-07-02T10:36:39+0200</time>
      </trkpt>
      <trkpt lat="45.01669" lon="6.60634">
        <ele>1621.5</ele>
        <time>2023-07-02T10:36:41+0200</time>
      </trkpt>
      <trkpt lat="45.0167" lon="6.60646">
        <ele>1621.8</ele>
        <time>2023-07-02T10:36:43+0200</time>
      </trkpt>
      <trkpt lat="45.01672" lon="6.60652">
        <ele>1621.9</ele>
        <time>2023-07-02T10:36:44+0200</time>
      </trkpt>
      <trkpt lat="45.01672" lon="6.60659">
        <ele>1622.1</ele>
        <time>2023-07-02T10:36:45+0200</time>
      </trkpt>
      <trkpt lat="45.01674" lon="6.60671">
        <ele>1622.2</ele>
        <time>2023-07-02T10:36:47+0200</time>
      </trkpt>
      <trkpt lat="45.01676" lon="6.60683">
        <ele>1622</ele>
        <time>2023-07-02T10:36:49+0200</time>
      </trkpt>
      <trkpt lat="45.01677" lon="6.60693">
        <ele>1621.9</ele>
        <time>2023-07-02T10:36:51+0200</time>
      </trkpt>
      <trkpt lat="45.01676" lon="6.60703">
        <ele>1621.9</ele>
        <time>2023-07-02T10:36:53+0200</time>
      </trkpt>
      <trkpt lat="45.01675" lon="6.60714">
        <ele>1621.9</ele>
        <time>2023-07-02T10:36:55+0200</time>
      </trkpt>
      <trkpt lat="45.01674" lon="6.60723">
        <ele>1621.9</ele>
        <time>2023-07-02T10:36:57+0200</time>
      </trkpt>
      <trkpt lat="45.01673" lon="6.60731">
        <ele>1621.5</ele>
        <time>2023-07-02T10:36:59+0200</time>
      </trkpt>
      <trkpt lat="45.01669" lon="6.60738">
        <ele>1621.6</ele>
        <time>2023-07-02T10:37:02+0200</time>
      </trkpt>
      <trkpt lat="45.01668" lon="6.60746">
        <ele>1621.1</ele>
        <time>2023-07-02T10:37:05+0200</time>
      </trkpt>
      <trkpt lat="45.01666" lon="6.60754">
        <ele>1620.9</ele>
        <time>2023-07-02T10:37:07+0200</time>
      </trkpt>
      <trkpt lat="45.01664" lon="6.60763">
        <ele>1620.4</ele>
        <time>2023-07-02T10:37:10+0200</time>
      </trkpt>
      <trkpt lat="45.01662" lon="6.6077">
        <ele>1620.3</ele>
        <time>2023-07-02T10:37:12+0200</time>
      </trkpt>
      <trkpt lat="45.0166" lon="6.60778">
        <ele>1619.9</ele>
        <time>2023-07-02T10:37:14+0200</time>
      </trkpt>
      <trkpt lat="45.01659" lon="6.60787">
        <ele>1618.9</ele>
        <time>2023-07-02T10:37:16+0200</time>
      </trkpt>
      <trkpt lat="45.01658" lon="6.60798">
        <ele>1617.8</ele>
        <time>2023-07-02T10:37:18+0200</time>
      </trkpt>
      <trkpt lat="45.01656" lon="6.60806">
        <ele>1617.3</ele>
        <time>2023-07-02T10:37:20+0200</time>
      </trkpt>
      <trkpt lat="45.01653" lon="6.60816">
        <ele>1616.7</ele>
        <time>2023-07-02T10:37:22+0200</time>
      </trkpt>
      <trkpt lat="45.01651" lon="6.60827">
        <ele>1616.2</ele>
        <time>2023-07-02T10:37:24+0200</time>
      </trkpt>
      <trkpt lat="45.01649" lon="6.60836">
        <ele>1615.9</ele>
        <time>2023-07-02T10:37:26+0200</time>
      </trkpt>
      <trkpt lat="45.01646" lon="6.60843">
        <ele>1615.9</ele>
        <time>2023-07-02T10:37:28+0200</time>
      </trkpt>
      <trkpt lat="45.01643" lon="6.6085">
        <ele>1616</ele>
        <time>2023-07-02T10:37:30+0200</time>
      </trkpt>
      <trkpt lat="45.01642" lon="6.60859">
        <ele>1615.3</ele>
        <time>2023-07-02T10:37:33+0200</time>
      </trkpt>
      <trkpt lat="45.01641" lon="6.60866">
        <ele>1614.8</ele>
        <time>2023-07-02T10:37:35+0200</time>
      </trkpt>
      <trkpt lat="45.01644" lon="6.60876">
        <ele>1612.7</ele>
        <time>2023-07-02T10:37:37+0200</time>
      </trkpt>
      <trkpt lat="45.01647" lon="6.60882">
        <ele>1611</ele>
        <time>2023-07-02T10:37:38+0200</time>
      </trkpt>
      <trkpt lat="45.0165" lon="6.60888">
        <ele>1609.2</ele>
        <time>2023-07-02T10:37:39+0200</time>
      </trkpt>
      <trkpt lat="45.01647" lon="6.60897">
        <ele>1608.8</ele>
        <time>2023-07-02T10:37:41+0200</time>
      </trkpt>
      <trkpt lat="45.01643" lon="6.60904">
        <ele>1608.7</ele>
        <time>2023-07-02T10:37:43+0200</time>
      </trkpt>
      <trkpt lat="45.01639" lon="6.60907">
        <ele>1609.9</ele>
        <time>2023-07-02T10:37:45+0200</time>
      </trkpt>
      <trkpt lat="45.01634" lon="6.60909">
        <ele>1611.1</ele>
        <time>2023-07-02T10:37:46+0200</time>
      </trkpt>
      <trkpt lat="45.01628" lon="6.60915">
        <ele>1612.2</ele>
        <time>2023-07-02T10:37:48+0200</time>
      </trkpt>
      <trkpt lat="45.01625" lon="6.6092">
        <ele>1612.6</ele>
        <time>2023-07-02T10:37:49+0200</time>
      </trkpt>
      <trkpt lat="45.0162" lon="6.60923">
        <ele>1613.5</ele>
        <time>2023-07-02T10:37:50+0200</time>
      </trkpt>
      <trkpt lat="45.01616" lon="6.60927">
        <ele>1614.6</ele>
        <time>2023-07-02T10:37:51+0200</time>
      </trkpt>
      <trkpt lat="45.01609" lon="6.60926">
        <ele>1617</ele>
        <time>2023-07-02T10:37:53+0200</time>
      </trkpt>
      <trkpt lat="45.01608" lon="6.60932">
        <ele>1616.5</ele>
        <time>2023-07-02T10:37:56+0200</time>
      </trkpt>
      <trkpt lat="45.01604" lon="6.60942">
        <ele>1615.9</ele>
        <time>2023-07-02T10:37:58+0200</time>
      </trkpt>
      <trkpt lat="45.01604" lon="6.60954">
        <ele>1614.5</ele>
        <time>2023-07-02T10:37:59+0200</time>
      </trkpt>
      <trkpt lat="45.01605" lon="6.60962">
        <ele>1613.4</ele>
        <time>2023-07-02T10:38:01+0200</time>
      </trkpt>
      <trkpt lat="45.01607" lon="6.6097">
        <ele>1611.9</ele>
        <time>2023-07-02T10:38:03+0200</time>
      </trkpt>
      <trkpt lat="45.01607" lon="6.60978">
        <ele>1611.1</ele>
        <time>2023-07-02T10:38:04+0200</time>
      </trkpt>
      <trkpt lat="45.01611" lon="6.60985">
        <ele>1609.7</ele>
        <time>2023-07-02T10:38:05+0200</time>
      </trkpt>
      <trkpt lat="45.01614" lon="6.60991">
        <ele>1608.5</ele>
        <time>2023-07-02T10:38:06+0200</time>
      </trkpt>
      <trkpt lat="45.01615" lon="6.60999">
        <ele>1607.9</ele>
        <time>2023-07-02T10:38:07+0200</time>
      </trkpt>
      <trkpt lat="45.01618" lon="6.61007">
        <ele>1606.9</ele>
        <time>2023-07-02T10:38:08+0200</time>
      </trkpt>
      <trkpt lat="45.0162" lon="6.61017">
        <ele>1606.8</ele>
        <time>2023-07-02T10:38:09+0200</time>
      </trkpt>
      <trkpt lat="45.01621" lon="6.61025">
        <ele>1606.8</ele>
        <time>2023-07-02T10:38:10+0200</time>
      </trkpt>
      <trkpt lat="45.01622" lon="6.61032">
        <ele>1606.5</ele>
        <time>2023-07-02T10:38:11+0200</time>
      </trkpt>
      <trkpt lat="45.01625" lon="6.61041">
        <ele>1606</ele>
        <time>2023-07-02T10:38:12+0200</time>
      </trkpt>
      <trkpt lat="45.01628" lon="6.61048">
        <ele>1605.3</ele>
        <time>2023-07-02T10:38:14+0200</time>
      </trkpt>
      <trkpt lat="45.01628" lon="6.61056">
        <ele>1605.7</ele>
        <time>2023-07-02T10:38:15+0200</time>
      </trkpt>
      <trkpt lat="45.01628" lon="6.61064">
        <ele>1606</ele>
        <time>2023-07-02T10:38:16+0200</time>
      </trkpt>
      <trkpt lat="45.01627" lon="6.61072">
        <ele>1606.3</ele>
        <time>2023-07-02T10:38:17+0200</time>
      </trkpt>
      <trkpt lat="45.01625" lon="6.6108">
        <ele>1607</ele>
        <time>2023-07-02T10:38:18+0200</time>
      </trkpt>
      <trkpt lat="45.01625" lon="6.61089">
        <ele>1607.1</ele>
        <time>2023-07-02T10:38:19+0200</time>
      </trkpt>
      <trkpt lat="45.01624" lon="6.61098">
        <ele>1607.2</ele>
        <time>2023-07-02T10:38:20+0200</time>
      </trkpt>
      <trkpt lat="45.01625" lon="6.61106">
        <ele>1607.1</ele>
        <time>2023-07-02T10:38:21+0200</time>
      </trkpt>
      <trkpt lat="45.01623" lon="6.61113">
        <ele>1607.3</ele>
        <time>2023-07-02T10:38:22+0200</time>
      </trkpt>
      <trkpt lat="45.01626" lon="6.61125">
        <ele>1606.6</ele>
        <time>2023-07-02T10:38:24+0200</time>
      </trkpt>
      <trkpt lat="45.01627" lon="6.61138">
        <ele>1606.2</ele>
        <time>2023-07-02T10:38:26+0200</time>
      </trkpt>
      <trkpt lat="45.01629" lon="6.61145">
        <ele>1605.7</ele>
        <time>2023-07-02T10:38:27+0200</time>
      </trkpt>
      <trkpt lat="45.0163" lon="6.61156">
        <ele>1605.4</ele>
        <time>2023-07-02T10:38:29+0200</time>
      </trkpt>
      <trkpt lat="45.01628" lon="6.61167">
        <ele>1605.6</ele>
        <time>2023-07-02T10:38:31+0200</time>
      </trkpt>
      <trkpt lat="45.01628" lon="6.61178">
        <ele>1605.5</ele>
        <time>2023-07-02T10:38:33+0200</time>
      </trkpt>
      <trkpt lat="45.01629" lon="6.61188">
        <ele>1605.4</ele>
        <time>2023-07-02T10:38:35+0200</time>
      </trkpt>
      <trkpt lat="45.01631" lon="6.61199">
        <ele>1605.1</ele>
        <time>2023-07-02T10:38:37+0200</time>
      </trkpt>
      <trkpt lat="45.01632" lon="6.6121">
        <ele>1604.6</ele>
        <time>2023-07-02T10:38:39+0200</time>
      </trkpt>
      <trkpt lat="45.01632" lon="6.6122">
        <ele>1604.3</ele>
        <time>2023-07-02T10:38:41+0200</time>
      </trkpt>
      <trkpt lat="45.01631" lon="6.61231">
        <ele>1604.1</ele>
        <time>2023-07-02T10:38:43+0200</time>
      </trkpt>
      <trkpt lat="45.01635" lon="6.61237">
        <ele>1603.1</ele>
        <time>2023-07-02T10:38:44+0200</time>
      </trkpt>
      <trkpt lat="45.01638" lon="6.61243">
        <ele>1602.4</ele>
        <time>2023-07-02T10:38:45+0200</time>
      </trkpt>
      <trkpt lat="45.01639" lon="6.6125">
        <ele>1602</ele>
        <time>2023-07-02T10:38:46+0200</time>
      </trkpt>
      <trkpt lat="45.01642" lon="6.61264">
        <ele>1601.7</ele>
        <time>2023-07-02T10:38:48+0200</time>
      </trkpt>
      <trkpt lat="45.01641" lon="6.61273">
        <ele>1601.8</ele>
        <time>2023-07-02T10:38:49+0200</time>
      </trkpt>
      <trkpt lat="45.01643" lon="6.61283">
        <ele>1601.4</ele>
        <time>2023-07-02T10:38:50+0200</time>
      </trkpt>
      <trkpt lat="45.01648" lon="6.61292">
        <ele>1600.6</ele>
        <time>2023-07-02T10:38:51+0200</time>
      </trkpt>
      <trkpt lat="45.01653" lon="6.61302">
        <ele>1599.6</ele>
        <time>2023-07-02T10:38:52+0200</time>
      </trkpt>
      <trkpt lat="45.01657" lon="6.61314">
        <ele>1598.5</ele>
        <time>2023-07-02T10:38:53+0200</time>
      </trkpt>
      <trkpt lat="45.01658" lon="6.61325">
        <ele>1597.5</ele>
        <time>2023-07-02T10:38:54+0200</time>
      </trkpt>
      <trkpt lat="45.01659" lon="6.61338">
        <ele>1596.6</ele>
        <time>2023-07-02T10:38:55+0200</time>
      </trkpt>
      <trkpt lat="45.0166" lon="6.61349">
        <ele>1596</ele>
        <time>2023-07-02T10:38:56+0200</time>
      </trkpt>
      <trkpt lat="45.01663" lon="6.61361">
        <ele>1595.3</ele>
        <time>2023-07-02T10:38:57+0200</time>
      </trkpt>
      <trkpt lat="45.01665" lon="6.61373">
        <ele>1594.3</ele>
        <time>2023-07-02T10:38:58+0200</time>
      </trkpt>
      <trkpt lat="45.01667" lon="6.61384">
        <ele>1593.4</ele>
        <time>2023-07-02T10:38:59+0200</time>
      </trkpt>
      <trkpt lat="45.01668" lon="6.61396">
        <ele>1592.7</ele>
        <time>2023-07-02T10:39:00+0200</time>
      </trkpt>
      <trkpt lat="45.01665" lon="6.61407">
        <ele>1592.4</ele>
        <time>2023-07-02T10:39:01+0200</time>
      </trkpt>
      <trkpt lat="45.01666" lon="6.61417">
        <ele>1592</ele>
        <time>2023-07-02T10:39:02+0200</time>
      </trkpt>
      <trkpt lat="45.0167" lon="6.61425">
        <ele>1591.2</ele>
        <time>2023-07-02T10:39:03+0200</time>
      </trkpt>
      <trkpt lat="45.01673" lon="6.61434">
        <ele>1590.4</ele>
        <time>2023-07-02T10:39:04+0200</time>
      </trkpt>
      <trkpt lat="45.01673" lon="6.61444">
        <ele>1589.8</ele>
        <time>2023-07-02T10:39:05+0200</time>
      </trkpt>
      <trkpt lat="45.0167" lon="6.61454">
        <ele>1589.8</ele>
        <time>2023-07-02T10:39:06+0200</time>
      </trkpt>
      <trkpt lat="45.01667" lon="6.61462">
        <ele>1590</ele>
        <time>2023-07-02T10:39:07+0200</time>
      </trkpt>
      <trkpt lat="45.01665" lon="6.6147">
        <ele>1590</ele>
        <time>2023-07-02T10:39:08+0200</time>
      </trkpt>
      <trkpt lat="45.01663" lon="6.61479">
        <ele>1589.7</ele>
        <time>2023-07-02T10:39:09+0200</time>
      </trkpt>
      <trkpt lat="45.01661" lon="6.61487">
        <ele>1589.5</ele>
        <time>2023-07-02T10:39:10+0200</time>
      </trkpt>
      <trkpt lat="45.0166" lon="6.61495">
        <ele>1589.2</ele>
        <time>2023-07-02T10:39:11+0200</time>
      </trkpt>
      <trkpt lat="45.01661" lon="6.61505">
        <ele>1588.7</ele>
        <time>2023-07-02T10:39:12+0200</time>
      </trkpt>
      <trkpt lat="45.01661" lon="6.61515">
        <ele>1588</ele>
        <time>2023-07-02T10:39:13+0200</time>
      </trkpt>
      <trkpt lat="45.01658" lon="6.61527">
        <ele>1587.4</ele>
        <time>2023-07-02T10:39:14+0200</time>
      </trkpt>
      <trkpt lat="45.01652" lon="6.61533">
        <ele>1587.3</ele>
        <time>2023-07-02T10:39:15+0200</time>
      </trkpt>
      <trkpt lat="45.01645" lon="6.61536">
        <ele>1587.5</ele>
        <time>2023-07-02T10:39:16+0200</time>
      </trkpt>
      <trkpt lat="45.01639" lon="6.61539">
        <ele>1587.6</ele>
        <time>2023-07-02T10:39:17+0200</time>
      </trkpt>
      <trkpt lat="45.01635" lon="6.61547">
        <ele>1587.4</ele>
        <time>2023-07-02T10:39:18+0200</time>
      </trkpt>
      <trkpt lat="45.01632" lon="6.61557">
        <ele>1587.2</ele>
        <time>2023-07-02T10:39:19+0200</time>
      </trkpt>
      <trkpt lat="45.01627" lon="6.61564">
        <ele>1587.4</ele>
        <time>2023-07-02T10:39:20+0200</time>
      </trkpt>
      <trkpt lat="45.01624" lon="6.61574">
        <ele>1587.5</ele>
        <time>2023-07-02T10:39:21+0200</time>
      </trkpt>
      <trkpt lat="45.01625" lon="6.61583">
        <ele>1587.5</ele>
        <time>2023-07-02T10:39:22+0200</time>
      </trkpt>
      <trkpt lat="45.01626" lon="6.61593">
        <ele>1587.3</ele>
        <time>2023-07-02T10:39:23+0200</time>
      </trkpt>
      <trkpt lat="45.01628" lon="6.61602">
        <ele>1587</ele>
        <time>2023-07-02T10:39:24+0200</time>
      </trkpt>
      <trkpt lat="45.01628" lon="6.6161">
        <ele>1586.8</ele>
        <time>2023-07-02T10:39:25+0200</time>
      </trkpt>
      <trkpt lat="45.01625" lon="6.61618">
        <ele>1586.9</ele>
        <time>2023-07-02T10:39:26+0200</time>
      </trkpt>
      <trkpt lat="45.01624" lon="6.61625">
        <ele>1586.8</ele>
        <time>2023-07-02T10:39:27+0200</time>
      </trkpt>
      <trkpt lat="45.01627" lon="6.61633">
        <ele>1586.5</ele>
        <time>2023-07-02T10:39:28+0200</time>
      </trkpt>
      <trkpt lat="45.01627" lon="6.61645">
        <ele>1586.4</ele>
        <time>2023-07-02T10:39:30+0200</time>
      </trkpt>
      <trkpt lat="45.01626" lon="6.61657">
        <ele>1586.5</ele>
        <time>2023-07-02T10:39:32+0200</time>
      </trkpt>
      <trkpt lat="45.01625" lon="6.61669">
        <ele>1586.5</ele>
        <time>2023-07-02T10:39:34+0200</time>
      </trkpt>
      <trkpt lat="45.01622" lon="6.6168">
        <ele>1586.6</ele>
        <time>2023-07-02T10:39:36+0200</time>
      </trkpt>
      <trkpt lat="45.0162" lon="6.61691">
        <ele>1586.7</ele>
        <time>2023-07-02T10:39:38+0200</time>
      </trkpt>
      <trkpt lat="45.0162" lon="6.61704">
        <ele>1586.4</ele>
        <time>2023-07-02T10:39:40+0200</time>
      </trkpt>
      <trkpt lat="45.01624" lon="6.61715">
        <ele>1586.2</ele>
        <time>2023-07-02T10:39:42+0200</time>
      </trkpt>
      <trkpt lat="45.01631" lon="6.61723">
        <ele>1586</ele>
        <time>2023-07-02T10:39:44+0200</time>
      </trkpt>
      <trkpt lat="45.01636" lon="6.61731">
        <ele>1586</ele>
        <time>2023-07-02T10:39:46+0200</time>
      </trkpt>
      <trkpt lat="45.01641" lon="6.61739">
        <ele>1586</ele>
        <time>2023-07-02T10:39:48+0200</time>
      </trkpt>
      <trkpt lat="45.01646" lon="6.61747">
        <ele>1586</ele>
        <time>2023-07-02T10:39:50+0200</time>
      </trkpt>
      <trkpt lat="45.01648" lon="6.61756">
        <ele>1586.1</ele>
        <time>2023-07-02T10:39:52+0200</time>
      </trkpt>
      <trkpt lat="45.01651" lon="6.61764">
        <ele>1586.3</ele>
        <time>2023-07-02T10:39:54+0200</time>
      </trkpt>
      <trkpt lat="45.01654" lon="6.61774">
        <ele>1586.4</ele>
        <time>2023-07-02T10:39:56+0200</time>
      </trkpt>
      <trkpt lat="45.01658" lon="6.61779">
        <ele>1586.3</ele>
        <time>2023-07-02T10:39:59+0200</time>
      </trkpt>
      <trkpt lat="45.01659" lon="6.61772">
        <ele>1586.2</ele>
        <time>2023-07-02T10:40:03+0200</time>
      </trkpt>
      <trkpt lat="45.01653" lon="6.61775">
        <ele>1586.4</ele>
        <time>2023-07-02T10:40:06+0200</time>
      </trkpt>
      <trkpt lat="45.0165" lon="6.6178">
        <ele>1586.5</ele>
        <time>2023-07-02T10:40:08+0200</time>
      </trkpt>
      <trkpt lat="45.0165" lon="6.61789">
        <ele>1586.2</ele>
        <time>2023-07-02T10:40:10+0200</time>
      </trkpt>
      <trkpt lat="45.01648" lon="6.61782">
        <ele>1586.5</ele>
        <time>2023-07-02T10:41:10+0200</time>
      </trkpt>
      <trkpt lat="45.01652" lon="6.61777">
        <ele>1586.5</ele>
        <time>2023-07-02T10:41:12+0200</time>
      </trkpt>
      <trkpt lat="45.01658" lon="6.61778">
        <ele>1586.3</ele>
        <time>2023-07-02T10:41:14+0200</time>
      </trkpt>
      <trkpt lat="45.01664" lon="6.6178">
        <ele>1586</ele>
        <time>2023-07-02T10:41:16+0200</time>
      </trkpt>
      <trkpt lat="45.01669" lon="6.61782">
        <ele>1585.8</ele>
        <time>2023-07-02T10:41:18+0200</time>
      </trkpt>
      <trkpt lat="45.01675" lon="6.61784">
        <ele>1585.5</ele>
        <time>2023-07-02T10:41:20+0200</time>
      </trkpt>
      <trkpt lat="45.01681" lon="6.61792">
        <ele>1585.2</ele>
        <time>2023-07-02T10:41:22+0200</time>
      </trkpt>
      <trkpt lat="45.0168" lon="6.618">
        <ele>1585.1</ele>
        <time>2023-07-02T10:41:24+0200</time>
      </trkpt>
      <trkpt lat="45.01676" lon="6.61806">
        <ele>1585</ele>
        <time>2023-07-02T10:41:26+0200</time>
      </trkpt>
      <trkpt lat="45.01671" lon="6.61808">
        <ele>1585</ele>
        <time>2023-07-02T10:41:28+0200</time>
      </trkpt>
      <trkpt lat="45.01666" lon="6.61812">
        <ele>1585</ele>
        <time>2023-07-02T10:41:30+0200</time>
      </trkpt>
      <trkpt lat="45.01659" lon="6.61813">
        <ele>1585.3</ele>
        <time>2023-07-02T10:41:32+0200</time>
      </trkpt>
      <trkpt lat="45.01652" lon="6.61817">
        <ele>1585.5</ele>
        <time>2023-07-02T10:41:34+0200</time>
      </trkpt>
      <trkpt lat="45.01649" lon="6.61821">
        <ele>1585.7</ele>
        <time>2023-07-02T10:41:35+0200</time>
      </trkpt>
      <trkpt lat="45.01641" lon="6.61828">
        <ele>1585.9</ele>
        <time>2023-07-02T10:41:37+0200</time>
      </trkpt>
      <trkpt lat="45.01635" lon="6.61834">
        <ele>1586.2</ele>
        <time>2023-07-02T10:41:39+0200</time>
      </trkpt>
      <trkpt lat="45.01627" lon="6.6184">
        <ele>1586.4</ele>
        <time>2023-07-02T10:41:41+0200</time>
      </trkpt>
      <trkpt lat="45.01622" lon="6.61846">
        <ele>1586.6</ele>
        <time>2023-07-02T10:41:43+0200</time>
      </trkpt>
      <trkpt lat="45.01615" lon="6.61851">
        <ele>1586.9</ele>
        <time>2023-07-02T10:41:45+0200</time>
      </trkpt>
      <trkpt lat="45.01609" lon="6.61856">
        <ele>1587.1</ele>
        <time>2023-07-02T10:41:47+0200</time>
      </trkpt>
      <trkpt lat="45.01603" lon="6.61859">
        <ele>1587.3</ele>
        <time>2023-07-02T10:41:49+0200</time>
      </trkpt>
      <trkpt lat="45.01596" lon="6.61864">
        <ele>1587.4</ele>
        <time>2023-07-02T10:41:51+0200</time>
      </trkpt>
      <trkpt lat="45.01588" lon="6.61868">
        <ele>1587.6</ele>
        <time>2023-07-02T10:41:53+0200</time>
      </trkpt>
      <trkpt lat="45.01581" lon="6.61875">
        <ele>1587.6</ele>
        <time>2023-07-02T10:41:55+0200</time>
      </trkpt>
      <trkpt lat="45.01577" lon="6.61883">
        <ele>1587.4</ele>
        <time>2023-07-02T10:41:57+0200</time>
      </trkpt>
      <trkpt lat="45.01573" lon="6.61893">
        <ele>1587.2</ele>
        <time>2023-07-02T10:41:59+0200</time>
      </trkpt>
      <trkpt lat="45.01572" lon="6.61901">
        <ele>1586.9</ele>
        <time>2023-07-02T10:42:00+0200</time>
      </trkpt>
      <trkpt lat="45.01573" lon="6.61911">
        <ele>1586.4</ele>
        <time>2023-07-02T10:42:00+0200</time>
      </trkpt>
      <trkpt lat="45.01572" lon="6.61919">
        <ele>1586.2</ele>
        <time>2023-07-02T10:42:01+0200</time>
      </trkpt>
      <trkpt lat="45.01571" lon="6.61928">
        <ele>1586.3</ele>
        <time>2023-07-02T10:42:02+0200</time>
      </trkpt>
      <trkpt lat="45.01572" lon="6.61937">
        <ele>1586.2</ele>
        <time>2023-07-02T10:42:03+0200</time>
      </trkpt>
      <trkpt lat="45.01573" lon="6.61946">
        <ele>1586.1</ele>
        <time>2023-07-02T10:42:04+0200</time>
      </trkpt>
      <trkpt lat="45.01573" lon="6.61954">
        <ele>1586</ele>
        <time>2023-07-02T10:42:05+0200</time>
      </trkpt>
      <trkpt lat="45.01573" lon="6.61963">
        <ele>1585.9</ele>
        <time>2023-07-02T10:42:06+0200</time>
      </trkpt>
      <trkpt lat="45.01573" lon="6.61971">
        <ele>1585.8</ele>
        <time>2023-07-02T10:42:07+0200</time>
      </trkpt>
      <trkpt lat="45.01572" lon="6.61979">
        <ele>1585.6</ele>
        <time>2023-07-02T10:42:08+0200</time>
      </trkpt>
      <trkpt lat="45.01571" lon="6.61986">
        <ele>1585.4</ele>
        <time>2023-07-02T10:42:09+0200</time>
      </trkpt>
      <trkpt lat="45.0157" lon="6.61993">
        <ele>1585.2</ele>
        <time>2023-07-02T10:42:10+0200</time>
      </trkpt>
      <trkpt lat="45.01568" lon="6.61999">
        <ele>1585.2</ele>
        <time>2023-07-02T10:42:11+0200</time>
      </trkpt>
      <trkpt lat="45.01565" lon="6.62005">
        <ele>1585.2</ele>
        <time>2023-07-02T10:42:12+0200</time>
      </trkpt>
      <trkpt lat="45.01561" lon="6.62011">
        <ele>1585.3</ele>
        <time>2023-07-02T10:42:13+0200</time>
      </trkpt>
      <trkpt lat="45.01557" lon="6.62016">
        <ele>1585.3</ele>
        <time>2023-07-02T10:42:14+0200</time>
      </trkpt>
      <trkpt lat="45.01553" lon="6.6202">
        <ele>1585.4</ele>
        <time>2023-07-02T10:42:15+0200</time>
      </trkpt>
      <trkpt lat="45.01549" lon="6.62025">
        <ele>1585.4</ele>
        <time>2023-07-02T10:42:16+0200</time>
      </trkpt>
      <trkpt lat="45.01544" lon="6.62031">
        <ele>1585.4</ele>
        <time>2023-07-02T10:42:17+0200</time>
      </trkpt>
      <trkpt lat="45.0154" lon="6.62037">
        <ele>1585.5</ele>
        <time>2023-07-02T10:42:18+0200</time>
      </trkpt>
      <trkpt lat="45.01538" lon="6.62044">
        <ele>1585.6</ele>
        <time>2023-07-02T10:42:19+0200</time>
      </trkpt>
      <trkpt lat="45.01535" lon="6.62051">
        <ele>1585.7</ele>
        <time>2023-07-02T10:42:20+0200</time>
      </trkpt>
      <trkpt lat="45.01533" lon="6.62058">
        <ele>1585.8</ele>
        <time>2023-07-02T10:42:21+0200</time>
      </trkpt>
      <trkpt lat="45.0153" lon="6.62066">
        <ele>1585.6</ele>
        <time>2023-07-02T10:42:22+0200</time>
      </trkpt>
      <trkpt lat="45.01527" lon="6.62072">
        <ele>1585.5</ele>
        <time>2023-07-02T10:42:23+0200</time>
      </trkpt>
      <trkpt lat="45.01524" lon="6.62079">
        <ele>1585.6</ele>
        <time>2023-07-02T10:42:24+0200</time>
      </trkpt>
      <trkpt lat="45.0152" lon="6.62084">
        <ele>1585.8</ele>
        <time>2023-07-02T10:42:26+0200</time>
      </trkpt>
      <trkpt lat="45.01516" lon="6.6209">
        <ele>1586.2</ele>
        <time>2023-07-02T10:42:27+0200</time>
      </trkpt>
      <trkpt lat="45.01512" lon="6.62095">
        <ele>1586.5</ele>
        <time>2023-07-02T10:42:28+0200</time>
      </trkpt>
      <trkpt lat="45.01508" lon="6.62098">
        <ele>1586.8</ele>
        <time>2023-07-02T10:42:29+0200</time>
      </trkpt>
      <trkpt lat="45.01503" lon="6.62103">
        <ele>1587.1</ele>
        <time>2023-07-02T10:42:30+0200</time>
      </trkpt>
      <trkpt lat="45.01499" lon="6.62107">
        <ele>1587.2</ele>
        <time>2023-07-02T10:42:31+0200</time>
      </trkpt>
      <trkpt lat="45.01495" lon="6.62111">
        <ele>1587.4</ele>
        <time>2023-07-02T10:42:32+0200</time>
      </trkpt>
      <trkpt lat="45.0149" lon="6.62115">
        <ele>1587.4</ele>
        <time>2023-07-02T10:42:33+0200</time>
      </trkpt>
      <trkpt lat="45.01485" lon="6.62116">
        <ele>1587.6</ele>
        <time>2023-07-02T10:42:34+0200</time>
      </trkpt>
      <trkpt lat="45.01481" lon="6.62123">
        <ele>1587.2</ele>
        <time>2023-07-02T10:42:35+0200</time>
      </trkpt>
      <trkpt lat="45.01477" lon="6.62129">
        <ele>1586.8</ele>
        <time>2023-07-02T10:42:36+0200</time>
      </trkpt>
      <trkpt lat="45.01474" lon="6.62136">
        <ele>1586.3</ele>
        <time>2023-07-02T10:42:37+0200</time>
      </trkpt>
      <trkpt lat="45.01471" lon="6.62143">
        <ele>1586.3</ele>
        <time>2023-07-02T10:42:38+0200</time>
      </trkpt>
      <trkpt lat="45.01468" lon="6.62151">
        <ele>1586.8</ele>
        <time>2023-07-02T10:42:39+0200</time>
      </trkpt>
      <trkpt lat="45.01465" lon="6.62156">
        <ele>1587.6</ele>
        <time>2023-07-02T10:42:40+0200</time>
      </trkpt>
      <trkpt lat="45.01462" lon="6.62162">
        <ele>1588.2</ele>
        <time>2023-07-02T10:42:41+0200</time>
      </trkpt>
      <trkpt lat="45.01458" lon="6.62169">
        <ele>1589.1</ele>
        <time>2023-07-02T10:42:42+0200</time>
      </trkpt>
      <trkpt lat="45.01456" lon="6.62175">
        <ele>1589.6</ele>
        <time>2023-07-02T10:42:43+0200</time>
      </trkpt>
      <trkpt lat="45.01453" lon="6.62183">
        <ele>1590.1</ele>
        <time>2023-07-02T10:42:44+0200</time>
      </trkpt>
      <trkpt lat="45.01451" lon="6.62188">
        <ele>1590.6</ele>
        <time>2023-07-02T10:42:45+0200</time>
      </trkpt>
      <trkpt lat="45.01449" lon="6.62194">
        <ele>1591</ele>
        <time>2023-07-02T10:42:46+0200</time>
      </trkpt>
      <trkpt lat="45.01448" lon="6.62206">
        <ele>1591.7</ele>
        <time>2023-07-02T10:42:48+0200</time>
      </trkpt>
      <trkpt lat="45.01448" lon="6.62219">
        <ele>1591.9</ele>
        <time>2023-07-02T10:42:50+0200</time>
      </trkpt>
      <trkpt lat="45.01451" lon="6.62225">
        <ele>1591.5</ele>
        <time>2023-07-02T10:42:51+0200</time>
      </trkpt>
      <trkpt lat="45.01453" lon="6.62231">
        <ele>1590.8</ele>
        <time>2023-07-02T10:42:52+0200</time>
      </trkpt>
      <trkpt lat="45.01456" lon="6.62239">
        <ele>1590.3</ele>
        <time>2023-07-02T10:42:53+0200</time>
      </trkpt>
      <trkpt lat="45.01461" lon="6.62246">
        <ele>1589.3</ele>
        <time>2023-07-02T10:42:54+0200</time>
      </trkpt>
      <trkpt lat="45.01466" lon="6.62254">
        <ele>1588.5</ele>
        <time>2023-07-02T10:42:55+0200</time>
      </trkpt>
      <trkpt lat="45.01471" lon="6.6226">
        <ele>1588</ele>
        <time>2023-07-02T10:42:56+0200</time>
      </trkpt>
      <trkpt lat="45.01475" lon="6.62266">
        <ele>1587.8</ele>
        <time>2023-07-02T10:42:57+0200</time>
      </trkpt>
      <trkpt lat="45.01477" lon="6.62273">
        <ele>1587.8</ele>
        <time>2023-07-02T10:42:58+0200</time>
      </trkpt>
      <trkpt lat="45.0148" lon="6.62278">
        <ele>1587.6</ele>
        <time>2023-07-02T10:42:59+0200</time>
      </trkpt>
      <trkpt lat="45.01484" lon="6.62289">
        <ele>1587.7</ele>
        <time>2023-07-02T10:43:01+0200</time>
      </trkpt>
      <trkpt lat="45.01485" lon="6.62299">
        <ele>1588.2</ele>
        <time>2023-07-02T10:43:03+0200</time>
      </trkpt>
      <trkpt lat="45.01485" lon="6.62307">
        <ele>1588.7</ele>
        <time>2023-07-02T10:43:05+0200</time>
      </trkpt>
      <trkpt lat="45.01488" lon="6.62315">
        <ele>1589</ele>
        <time>2023-07-02T10:43:07+0200</time>
      </trkpt>
      <trkpt lat="45.0149" lon="6.62322">
        <ele>1589.5</ele>
        <time>2023-07-02T10:43:09+0200</time>
      </trkpt>
      <trkpt lat="45.0149" lon="6.62329">
        <ele>1590</ele>
        <time>2023-07-02T10:43:11+0200</time>
      </trkpt>
      <trkpt lat="45.01493" lon="6.6234">
        <ele>1590</ele>
        <time>2023-07-02T10:43:13+0200</time>
      </trkpt>
      <trkpt lat="45.01497" lon="6.62349">
        <ele>1589.4</ele>
        <time>2023-07-02T10:43:15+0200</time>
      </trkpt>
      <trkpt lat="45.015" lon="6.62356">
        <ele>1589.1</ele>
        <time>2023-07-02T10:43:16+0200</time>
      </trkpt>
      <trkpt lat="45.015" lon="6.62365">
        <ele>1589</ele>
        <time>2023-07-02T10:43:17+0200</time>
      </trkpt>
      <trkpt lat="45.01503" lon="6.62375">
        <ele>1588.4</ele>
        <time>2023-07-02T10:43:18+0200</time>
      </trkpt>
      <trkpt lat="45.01505" lon="6.62385">
        <ele>1588.1</ele>
        <time>2023-07-02T10:43:19+0200</time>
      </trkpt>
      <trkpt lat="45.01503" lon="6.62395">
        <ele>1588.7</ele>
        <time>2023-07-02T10:43:20+0200</time>
      </trkpt>
      <trkpt lat="45.01504" lon="6.62405">
        <ele>1588.8</ele>
        <time>2023-07-02T10:43:21+0200</time>
      </trkpt>
      <trkpt lat="45.01504" lon="6.62414">
        <ele>1589.3</ele>
        <time>2023-07-02T10:43:22+0200</time>
      </trkpt>
      <trkpt lat="45.01503" lon="6.62423">
        <ele>1589.4</ele>
        <time>2023-07-02T10:43:23+0200</time>
      </trkpt>
      <trkpt lat="45.01504" lon="6.6243">
        <ele>1589.4</ele>
        <time>2023-07-02T10:43:24+0200</time>
      </trkpt>
      <trkpt lat="45.01504" lon="6.62439">
        <ele>1589.4</ele>
        <time>2023-07-02T10:43:25+0200</time>
      </trkpt>
      <trkpt lat="45.01504" lon="6.62446">
        <ele>1589.4</ele>
        <time>2023-07-02T10:43:26+0200</time>
      </trkpt>
      <trkpt lat="45.01505" lon="6.62454">
        <ele>1589.4</ele>
        <time>2023-07-02T10:43:27+0200</time>
      </trkpt>
      <trkpt lat="45.01507" lon="6.62463">
        <ele>1589.3</ele>
        <time>2023-07-02T10:43:28+0200</time>
      </trkpt>
      <trkpt lat="45.0151" lon="6.62472">
        <ele>1588.9</ele>
        <time>2023-07-02T10:43:29+0200</time>
      </trkpt>
      <trkpt lat="45.01512" lon="6.62479">
        <ele>1588.5</ele>
        <time>2023-07-02T10:43:30+0200</time>
      </trkpt>
      <trkpt lat="45.01513" lon="6.62486">
        <ele>1588.5</ele>
        <time>2023-07-02T10:43:31+0200</time>
      </trkpt>
      <trkpt lat="45.01515" lon="6.62493">
        <ele>1588.1</ele>
        <time>2023-07-02T10:43:32+0200</time>
      </trkpt>
      <trkpt lat="45.01518" lon="6.62501">
        <ele>1587.7</ele>
        <time>2023-07-02T10:43:33+0200</time>
      </trkpt>
      <trkpt lat="45.01521" lon="6.62508">
        <ele>1587.2</ele>
        <time>2023-07-02T10:43:34+0200</time>
      </trkpt>
      <trkpt lat="45.01527" lon="6.62518">
        <ele>1586.4</ele>
        <time>2023-07-02T10:43:36+0200</time>
      </trkpt>
      <trkpt lat="45.01531" lon="6.62523">
        <ele>1586.3</ele>
        <time>2023-07-02T10:43:37+0200</time>
      </trkpt>
      <trkpt lat="45.01536" lon="6.62528">
        <ele>1586.2</ele>
        <time>2023-07-02T10:43:38+0200</time>
      </trkpt>
      <trkpt lat="45.0154" lon="6.62533">
        <ele>1586.4</ele>
        <time>2023-07-02T10:43:39+0200</time>
      </trkpt>
      <trkpt lat="45.01546" lon="6.62535">
        <ele>1585.9</ele>
        <time>2023-07-02T10:43:40+0200</time>
      </trkpt>
      <trkpt lat="45.01551" lon="6.62538">
        <ele>1585.6</ele>
        <time>2023-07-02T10:43:41+0200</time>
      </trkpt>
      <trkpt lat="45.01556" lon="6.6254">
        <ele>1585.3</ele>
        <time>2023-07-02T10:43:42+0200</time>
      </trkpt>
      <trkpt lat="45.01561" lon="6.62542">
        <ele>1585.2</ele>
        <time>2023-07-02T10:43:43+0200</time>
      </trkpt>
      <trkpt lat="45.01565" lon="6.62544">
        <ele>1585.1</ele>
        <time>2023-07-02T10:43:44+0200</time>
      </trkpt>
      <trkpt lat="45.01569" lon="6.62548">
        <ele>1585.2</ele>
        <time>2023-07-02T10:43:45+0200</time>
      </trkpt>
      <trkpt lat="45.01578" lon="6.62552">
        <ele>1585.1</ele>
        <time>2023-07-02T10:43:47+0200</time>
      </trkpt>
      <trkpt lat="45.01582" lon="6.62561">
        <ele>1585.5</ele>
        <time>2023-07-02T10:43:49+0200</time>
      </trkpt>
      <trkpt lat="45.01585" lon="6.62571">
        <ele>1585.9</ele>
        <time>2023-07-02T10:43:51+0200</time>
      </trkpt>
      <trkpt lat="45.0159" lon="6.6258">
        <ele>1586</ele>
        <time>2023-07-02T10:43:53+0200</time>
      </trkpt>
      <trkpt lat="45.01595" lon="6.62588">
        <ele>1586</ele>
        <time>2023-07-02T10:43:55+0200</time>
      </trkpt>
      <trkpt lat="45.01598" lon="6.62597">
        <ele>1585.8</ele>
        <time>2023-07-02T10:43:57+0200</time>
      </trkpt>
      <trkpt lat="45.01601" lon="6.62603">
        <ele>1585.6</ele>
        <time>2023-07-02T10:43:58+0200</time>
      </trkpt>
      <trkpt lat="45.01604" lon="6.62614">
        <ele>1585.4</ele>
        <time>2023-07-02T10:44:00+0200</time>
      </trkpt>
      <trkpt lat="45.01606" lon="6.6262">
        <ele>1585.3</ele>
        <time>2023-07-02T10:44:01+0200</time>
      </trkpt>
      <trkpt lat="45.01608" lon="6.62626">
        <ele>1585.1</ele>
        <time>2023-07-02T10:44:02+0200</time>
      </trkpt>
      <trkpt lat="45.0161" lon="6.62632">
        <ele>1584.9</ele>
        <time>2023-07-02T10:44:03+0200</time>
      </trkpt>
      <trkpt lat="45.01613" lon="6.62643">
        <ele>1585</ele>
        <time>2023-07-02T10:44:05+0200</time>
      </trkpt>
      <trkpt lat="45.01614" lon="6.6265">
        <ele>1585.2</ele>
        <time>2023-07-02T10:44:06+0200</time>
      </trkpt>
      <trkpt lat="45.01615" lon="6.62657">
        <ele>1585.3</ele>
        <time>2023-07-02T10:44:07+0200</time>
      </trkpt>
      <trkpt lat="45.01614" lon="6.62665">
        <ele>1585.6</ele>
        <time>2023-07-02T10:44:08+0200</time>
      </trkpt>
      <trkpt lat="45.01614" lon="6.62673">
        <ele>1585.7</ele>
        <time>2023-07-02T10:44:09+0200</time>
      </trkpt>
      <trkpt lat="45.01615" lon="6.62681">
        <ele>1585.6</ele>
        <time>2023-07-02T10:44:10+0200</time>
      </trkpt>
      <trkpt lat="45.01616" lon="6.6269">
        <ele>1585.5</ele>
        <time>2023-07-02T10:44:11+0200</time>
      </trkpt>
      <trkpt lat="45.01618" lon="6.62698">
        <ele>1585.2</ele>
        <time>2023-07-02T10:44:12+0200</time>
      </trkpt>
      <trkpt lat="45.01621" lon="6.62706">
        <ele>1584.8</ele>
        <time>2023-07-02T10:44:13+0200</time>
      </trkpt>
      <trkpt lat="45.01623" lon="6.62714">
        <ele>1584.4</ele>
        <time>2023-07-02T10:44:14+0200</time>
      </trkpt>
      <trkpt lat="45.01624" lon="6.62721">
        <ele>1584.1</ele>
        <time>2023-07-02T10:44:15+0200</time>
      </trkpt>
      <trkpt lat="45.01626" lon="6.62729">
        <ele>1583.7</ele>
        <time>2023-07-02T10:44:16+0200</time>
      </trkpt>
      <trkpt lat="45.01627" lon="6.62738">
        <ele>1583.4</ele>
        <time>2023-07-02T10:44:17+0200</time>
      </trkpt>
      <trkpt lat="45.01626" lon="6.62746">
        <ele>1583.5</ele>
        <time>2023-07-02T10:44:18+0200</time>
      </trkpt>
      <trkpt lat="45.01625" lon="6.62753">
        <ele>1583.5</ele>
        <time>2023-07-02T10:44:19+0200</time>
      </trkpt>
      <trkpt lat="45.01623" lon="6.62761">
        <ele>1583.7</ele>
        <time>2023-07-02T10:44:20+0200</time>
      </trkpt>
      <trkpt lat="45.01622" lon="6.62769">
        <ele>1583.9</ele>
        <time>2023-07-02T10:44:21+0200</time>
      </trkpt>
      <trkpt lat="45.01621" lon="6.62778">
        <ele>1583.9</ele>
        <time>2023-07-02T10:44:21+0200</time>
      </trkpt>
      <trkpt lat="45.0162" lon="6.62785">
        <ele>1584.2</ele>
        <time>2023-07-02T10:44:22+0200</time>
      </trkpt>
      <trkpt lat="45.0162" lon="6.62791">
        <ele>1584.4</ele>
        <time>2023-07-02T10:44:23+0200</time>
      </trkpt>
      <trkpt lat="45.01619" lon="6.62799">
        <ele>1584.6</ele>
        <time>2023-07-02T10:44:24+0200</time>
      </trkpt>
      <trkpt lat="45.0162" lon="6.62806">
        <ele>1584.7</ele>
        <time>2023-07-02T10:44:25+0200</time>
      </trkpt>
      <trkpt lat="45.01622" lon="6.62813">
        <ele>1584.6</ele>
        <time>2023-07-02T10:44:26+0200</time>
      </trkpt>
      <trkpt lat="45.01624" lon="6.62826">
        <ele>1584.5</ele>
        <time>2023-07-02T10:44:28+0200</time>
      </trkpt>
      <trkpt lat="45.01627" lon="6.62833">
        <ele>1584.1</ele>
        <time>2023-07-02T10:44:29+0200</time>
      </trkpt>
      <trkpt lat="45.01629" lon="6.62839">
        <ele>1583.7</ele>
        <time>2023-07-02T10:44:30+0200</time>
      </trkpt>
      <trkpt lat="45.01631" lon="6.62846">
        <ele>1583.1</ele>
        <time>2023-07-02T10:44:32+0200</time>
      </trkpt>
      <trkpt lat="45.01633" lon="6.62852">
        <ele>1582.5</ele>
        <time>2023-07-02T10:44:33+0200</time>
      </trkpt>
      <trkpt lat="45.01635" lon="6.6286">
        <ele>1581.8</ele>
        <time>2023-07-02T10:44:34+0200</time>
      </trkpt>
      <trkpt lat="45.01638" lon="6.62867">
        <ele>1581.1</ele>
        <time>2023-07-02T10:44:35+0200</time>
      </trkpt>
      <trkpt lat="45.01642" lon="6.62875">
        <ele>1580.9</ele>
        <time>2023-07-02T10:44:36+0200</time>
      </trkpt>
      <trkpt lat="45.01646" lon="6.62882">
        <ele>1580.7</ele>
        <time>2023-07-02T10:44:37+0200</time>
      </trkpt>
      <trkpt lat="45.01653" lon="6.62886">
        <ele>1580.5</ele>
        <time>2023-07-02T10:44:38+0200</time>
      </trkpt>
      <trkpt lat="45.0166" lon="6.62886">
        <ele>1580.2</ele>
        <time>2023-07-02T10:44:39+0200</time>
      </trkpt>
      <trkpt lat="45.01666" lon="6.62886">
        <ele>1580</ele>
        <time>2023-07-02T10:44:40+0200</time>
      </trkpt>
      <trkpt lat="45.01672" lon="6.62887">
        <ele>1580.3</ele>
        <time>2023-07-02T10:44:41+0200</time>
      </trkpt>
      <trkpt lat="45.01677" lon="6.62887">
        <ele>1580.7</ele>
        <time>2023-07-02T10:44:42+0200</time>
      </trkpt>
      <trkpt lat="45.01681" lon="6.62891">
        <ele>1581</ele>
        <time>2023-07-02T10:44:43+0200</time>
      </trkpt>
      <trkpt lat="45.01684" lon="6.62897">
        <ele>1581.2</ele>
        <time>2023-07-02T10:44:44+0200</time>
      </trkpt>
      <trkpt lat="45.01685" lon="6.62904">
        <ele>1581.3</ele>
        <time>2023-07-02T10:44:45+0200</time>
      </trkpt>
      <trkpt lat="45.01686" lon="6.62911">
        <ele>1581.4</ele>
        <time>2023-07-02T10:44:46+0200</time>
      </trkpt>
      <trkpt lat="45.01687" lon="6.62918">
        <ele>1581.4</ele>
        <time>2023-07-02T10:44:47+0200</time>
      </trkpt>
      <trkpt lat="45.01687" lon="6.62925">
        <ele>1581.4</ele>
        <time>2023-07-02T10:44:48+0200</time>
      </trkpt>
      <trkpt lat="45.01687" lon="6.62932">
        <ele>1581.4</ele>
        <time>2023-07-02T10:44:49+0200</time>
      </trkpt>
      <trkpt lat="45.01686" lon="6.62944">
        <ele>1581.4</ele>
        <time>2023-07-02T10:44:51+0200</time>
      </trkpt>
      <trkpt lat="45.01688" lon="6.62952">
        <ele>1581.5</ele>
        <time>2023-07-02T10:44:52+0200</time>
      </trkpt>
      <trkpt lat="45.01689" lon="6.62959">
        <ele>1581.6</ele>
        <time>2023-07-02T10:44:53+0200</time>
      </trkpt>
      <trkpt lat="45.0169" lon="6.62966">
        <ele>1581.7</ele>
        <time>2023-07-02T10:44:54+0200</time>
      </trkpt>
      <trkpt lat="45.01691" lon="6.62973">
        <ele>1581.7</ele>
        <time>2023-07-02T10:44:55+0200</time>
      </trkpt>
      <trkpt lat="45.01691" lon="6.6298">
        <ele>1581.7</ele>
        <time>2023-07-02T10:44:56+0200</time>
      </trkpt>
      <trkpt lat="45.01691" lon="6.62988">
        <ele>1581.7</ele>
        <time>2023-07-02T10:44:57+0200</time>
      </trkpt>
      <trkpt lat="45.01691" lon="6.62995">
        <ele>1581.7</ele>
        <time>2023-07-02T10:44:58+0200</time>
      </trkpt>
      <trkpt lat="45.01691" lon="6.63008">
        <ele>1581.6</ele>
        <time>2023-07-02T10:45:00+0200</time>
      </trkpt>
      <trkpt lat="45.01691" lon="6.63015">
        <ele>1581.6</ele>
        <time>2023-07-02T10:45:01+0200</time>
      </trkpt>
      <trkpt lat="45.01689" lon="6.63024">
        <ele>1581.5</ele>
        <time>2023-07-02T10:45:02+0200</time>
      </trkpt>
      <trkpt lat="45.01687" lon="6.63032">
        <ele>1581.2</ele>
        <time>2023-07-02T10:45:03+0200</time>
      </trkpt>
      <trkpt lat="45.01685" lon="6.63038">
        <ele>1581</ele>
        <time>2023-07-02T10:45:04+0200</time>
      </trkpt>
      <trkpt lat="45.01684" lon="6.63053">
        <ele>1580.9</ele>
        <time>2023-07-02T10:45:06+0200</time>
      </trkpt>
      <trkpt lat="45.01683" lon="6.63061">
        <ele>1580.9</ele>
        <time>2023-07-02T10:45:07+0200</time>
      </trkpt>
      <trkpt lat="45.01682" lon="6.6307">
        <ele>1580.9</ele>
        <time>2023-07-02T10:45:08+0200</time>
      </trkpt>
      <trkpt lat="45.01681" lon="6.63078">
        <ele>1580.9</ele>
        <time>2023-07-02T10:45:09+0200</time>
      </trkpt>
      <trkpt lat="45.01678" lon="6.63086">
        <ele>1580.7</ele>
        <time>2023-07-02T10:45:10+0200</time>
      </trkpt>
      <trkpt lat="45.01676" lon="6.63094">
        <ele>1580.6</ele>
        <time>2023-07-02T10:45:11+0200</time>
      </trkpt>
      <trkpt lat="45.01674" lon="6.63103">
        <ele>1580.6</ele>
        <time>2023-07-02T10:45:12+0200</time>
      </trkpt>
      <trkpt lat="45.01672" lon="6.63111">
        <ele>1580.6</ele>
        <time>2023-07-02T10:45:13+0200</time>
      </trkpt>
      <trkpt lat="45.01671" lon="6.63119">
        <ele>1580.4</ele>
        <time>2023-07-02T10:45:14+0200</time>
      </trkpt>
      <trkpt lat="45.01669" lon="6.63126">
        <ele>1580.3</ele>
        <time>2023-07-02T10:45:15+0200</time>
      </trkpt>
      <trkpt lat="45.01667" lon="6.63134">
        <ele>1580</ele>
        <time>2023-07-02T10:45:16+0200</time>
      </trkpt>
      <trkpt lat="45.01666" lon="6.63142">
        <ele>1580.1</ele>
        <time>2023-07-02T10:45:17+0200</time>
      </trkpt>
      <trkpt lat="45.01666" lon="6.63151">
        <ele>1580.4</ele>
        <time>2023-07-02T10:45:18+0200</time>
      </trkpt>
      <trkpt lat="45.01669" lon="6.63159">
        <ele>1580.9</ele>
        <time>2023-07-02T10:45:19+0200</time>
      </trkpt>
      <trkpt lat="45.01669" lon="6.63168">
        <ele>1581.1</ele>
        <time>2023-07-02T10:45:20+0200</time>
      </trkpt>
      <trkpt lat="45.01668" lon="6.63176">
        <ele>1580.8</ele>
        <time>2023-07-02T10:45:21+0200</time>
      </trkpt>
      <trkpt lat="45.01668" lon="6.63184">
        <ele>1580.5</ele>
        <time>2023-07-02T10:45:22+0200</time>
      </trkpt>
      <trkpt lat="45.01669" lon="6.63191">
        <ele>1580.3</ele>
        <time>2023-07-02T10:45:23+0200</time>
      </trkpt>
      <trkpt lat="45.01669" lon="6.63199">
        <ele>1580.3</ele>
        <time>2023-07-02T10:45:24+0200</time>
      </trkpt>
      <trkpt lat="45.01671" lon="6.63207">
        <ele>1580.5</ele>
        <time>2023-07-02T10:45:25+0200</time>
      </trkpt>
      <trkpt lat="45.01672" lon="6.63216">
        <ele>1580.5</ele>
        <time>2023-07-02T10:45:26+0200</time>
      </trkpt>
      <trkpt lat="45.01672" lon="6.63223">
        <ele>1580.5</ele>
        <time>2023-07-02T10:45:27+0200</time>
      </trkpt>
      <trkpt lat="45.01673" lon="6.63232">
        <ele>1580.5</ele>
        <time>2023-07-02T10:45:28+0200</time>
      </trkpt>
      <trkpt lat="45.01675" lon="6.6324">
        <ele>1580.4</ele>
        <time>2023-07-02T10:45:29+0200</time>
      </trkpt>
      <trkpt lat="45.01676" lon="6.63249">
        <ele>1580.4</ele>
        <time>2023-07-02T10:45:30+0200</time>
      </trkpt>
      <trkpt lat="45.01677" lon="6.63258">
        <ele>1580.4</ele>
        <time>2023-07-02T10:45:31+0200</time>
      </trkpt>
      <trkpt lat="45.01677" lon="6.63267">
        <ele>1580.4</ele>
        <time>2023-07-02T10:45:32+0200</time>
      </trkpt>
      <trkpt lat="45.01677" lon="6.63277">
        <ele>1580.5</ele>
        <time>2023-07-02T10:45:33+0200</time>
      </trkpt>
      <trkpt lat="45.01679" lon="6.63286">
        <ele>1580.6</ele>
        <time>2023-07-02T10:45:34+0200</time>
      </trkpt>
      <trkpt lat="45.01679" lon="6.63295">
        <ele>1580.5</ele>
        <time>2023-07-02T10:45:35+0200</time>
      </trkpt>
      <trkpt lat="45.01681" lon="6.63305">
        <ele>1580.5</ele>
        <time>2023-07-02T10:45:36+0200</time>
      </trkpt>
      <trkpt lat="45.0168" lon="6.63315">
        <ele>1580.6</ele>
        <time>2023-07-02T10:45:37+0200</time>
      </trkpt>
      <trkpt lat="45.0168" lon="6.63325">
        <ele>1580.8</ele>
        <time>2023-07-02T10:45:38+0200</time>
      </trkpt>
      <trkpt lat="45.01682" lon="6.63335">
        <ele>1581.1</ele>
        <time>2023-07-02T10:45:39+0200</time>
      </trkpt>
      <trkpt lat="45.01681" lon="6.63344">
        <ele>1581.1</ele>
        <time>2023-07-02T10:45:40+0200</time>
      </trkpt>
      <trkpt lat="45.01682" lon="6.63354">
        <ele>1581.2</ele>
        <time>2023-07-02T10:45:41+0200</time>
      </trkpt>
      <trkpt lat="45.01681" lon="6.63364">
        <ele>1581.1</ele>
        <time>2023-07-02T10:45:42+0200</time>
      </trkpt>
      <trkpt lat="45.01681" lon="6.63373">
        <ele>1581</ele>
        <time>2023-07-02T10:45:43+0200</time>
      </trkpt>
      <trkpt lat="45.0168" lon="6.63382">
        <ele>1580.9</ele>
        <time>2023-07-02T10:45:44+0200</time>
      </trkpt>
      <trkpt lat="45.01679" lon="6.63391">
        <ele>1580.8</ele>
        <time>2023-07-02T10:45:45+0200</time>
      </trkpt>
      <trkpt lat="45.01678" lon="6.63399">
        <ele>1581</ele>
        <time>2023-07-02T10:45:46+0200</time>
      </trkpt>
      <trkpt lat="45.01676" lon="6.63407">
        <ele>1581</ele>
        <time>2023-07-02T10:45:47+0200</time>
      </trkpt>
      <trkpt lat="45.01675" lon="6.63414">
        <ele>1581.2</ele>
        <time>2023-07-02T10:45:48+0200</time>
      </trkpt>
      <trkpt lat="45.01675" lon="6.63421">
        <ele>1581.2</ele>
        <time>2023-07-02T10:45:49+0200</time>
      </trkpt>
      <trkpt lat="45.01673" lon="6.63432">
        <ele>1581</ele>
        <time>2023-07-02T10:45:51+0200</time>
      </trkpt>
      <trkpt lat="45.01671" lon="6.63442">
        <ele>1580.6</ele>
        <time>2023-07-02T10:45:53+0200</time>
      </trkpt>
      <trkpt lat="45.01669" lon="6.63452">
        <ele>1580.6</ele>
        <time>2023-07-02T10:45:55+0200</time>
      </trkpt>
      <trkpt lat="45.01668" lon="6.6346">
        <ele>1580.7</ele>
        <time>2023-07-02T10:45:57+0200</time>
      </trkpt>
      <trkpt lat="45.01665" lon="6.63469">
        <ele>1580.8</ele>
        <time>2023-07-02T10:45:59+0200</time>
      </trkpt>
      <trkpt lat="45.01661" lon="6.63479">
        <ele>1580.5</ele>
        <time>2023-07-02T10:46:01+0200</time>
      </trkpt>
      <trkpt lat="45.01659" lon="6.63485">
        <ele>1580.3</ele>
        <time>2023-07-02T10:46:02+0200</time>
      </trkpt>
      <trkpt lat="45.01656" lon="6.63491">
        <ele>1580</ele>
        <time>2023-07-02T10:46:03+0200</time>
      </trkpt>
      <trkpt lat="45.01654" lon="6.63497">
        <ele>1579.6</ele>
        <time>2023-07-02T10:46:04+0200</time>
      </trkpt>
      <trkpt lat="45.01651" lon="6.63504">
        <ele>1579.4</ele>
        <time>2023-07-02T10:46:05+0200</time>
      </trkpt>
      <trkpt lat="45.01648" lon="6.6351">
        <ele>1579.4</ele>
        <time>2023-07-02T10:46:06+0200</time>
      </trkpt>
      <trkpt lat="45.01646" lon="6.63517">
        <ele>1579.4</ele>
        <time>2023-07-02T10:46:07+0200</time>
      </trkpt>
      <trkpt lat="45.01644" lon="6.63525">
        <ele>1579.4</ele>
        <time>2023-07-02T10:46:08+0200</time>
      </trkpt>
      <trkpt lat="45.01641" lon="6.63531">
        <ele>1579.4</ele>
        <time>2023-07-02T10:46:09+0200</time>
      </trkpt>
      <trkpt lat="45.01639" lon="6.63538">
        <ele>1579.4</ele>
        <time>2023-07-02T10:46:10+0200</time>
      </trkpt>
      <trkpt lat="45.01638" lon="6.63546">
        <ele>1579.7</ele>
        <time>2023-07-02T10:46:11+0200</time>
      </trkpt>
      <trkpt lat="45.01637" lon="6.63552">
        <ele>1579.8</ele>
        <time>2023-07-02T10:46:12+0200</time>
      </trkpt>
      <trkpt lat="45.01637" lon="6.6356">
        <ele>1579.9</ele>
        <time>2023-07-02T10:46:13+0200</time>
      </trkpt>
      <trkpt lat="45.01637" lon="6.63567">
        <ele>1579.9</ele>
        <time>2023-07-02T10:46:14+0200</time>
      </trkpt>
      <trkpt lat="45.01639" lon="6.63575">
        <ele>1580</ele>
        <time>2023-07-02T10:46:15+0200</time>
      </trkpt>
      <trkpt lat="45.01641" lon="6.63584">
        <ele>1580.1</ele>
        <time>2023-07-02T10:46:16+0200</time>
      </trkpt>
      <trkpt lat="45.01645" lon="6.63592">
        <ele>1579.6</ele>
        <time>2023-07-02T10:46:17+0200</time>
      </trkpt>
      <trkpt lat="45.01648" lon="6.636">
        <ele>1579.2</ele>
        <time>2023-07-02T10:46:18+0200</time>
      </trkpt>
      <trkpt lat="45.01651" lon="6.63606">
        <ele>1579.1</ele>
        <time>2023-07-02T10:46:19+0200</time>
      </trkpt>
      <trkpt lat="45.01652" lon="6.63612">
        <ele>1579</ele>
        <time>2023-07-02T10:46:20+0200</time>
      </trkpt>
      <trkpt lat="45.01655" lon="6.63624">
        <ele>1579.5</ele>
        <time>2023-07-02T10:46:22+0200</time>
      </trkpt>
      <trkpt lat="45.01655" lon="6.63632">
        <ele>1579.7</ele>
        <time>2023-07-02T10:46:23+0200</time>
      </trkpt>
      <trkpt lat="45.01653" lon="6.63639">
        <ele>1579.4</ele>
        <time>2023-07-02T10:46:24+0200</time>
      </trkpt>
      <trkpt lat="45.01649" lon="6.63644">
        <ele>1578.8</ele>
        <time>2023-07-02T10:46:25+0200</time>
      </trkpt>
      <trkpt lat="45.01644" lon="6.63649">
        <ele>1577.8</ele>
        <time>2023-07-02T10:46:26+0200</time>
      </trkpt>
      <trkpt lat="45.01638" lon="6.63654">
        <ele>1576.9</ele>
        <time>2023-07-02T10:46:27+0200</time>
      </trkpt>
      <trkpt lat="45.01634" lon="6.63663">
        <ele>1576</ele>
        <time>2023-07-02T10:46:28+0200</time>
      </trkpt>
      <trkpt lat="45.0163" lon="6.63674">
        <ele>1575.2</ele>
        <time>2023-07-02T10:46:29+0200</time>
      </trkpt>
      <trkpt lat="45.01626" lon="6.63684">
        <ele>1574.4</ele>
        <time>2023-07-02T10:46:30+0200</time>
      </trkpt>
      <trkpt lat="45.01623" lon="6.63696">
        <ele>1573.7</ele>
        <time>2023-07-02T10:46:31+0200</time>
      </trkpt>
      <trkpt lat="45.0162" lon="6.63709">
        <ele>1572.8</ele>
        <time>2023-07-02T10:46:32+0200</time>
      </trkpt>
      <trkpt lat="45.01617" lon="6.63722">
        <ele>1571.9</ele>
        <time>2023-07-02T10:46:33+0200</time>
      </trkpt>
      <trkpt lat="45.01615" lon="6.63735">
        <ele>1571.6</ele>
        <time>2023-07-02T10:46:34+0200</time>
      </trkpt>
      <trkpt lat="45.01612" lon="6.63747">
        <ele>1571.2</ele>
        <time>2023-07-02T10:46:35+0200</time>
      </trkpt>
      <trkpt lat="45.0161" lon="6.6376">
        <ele>1570.6</ele>
        <time>2023-07-02T10:46:35+0200</time>
      </trkpt>
      <trkpt lat="45.0161" lon="6.63774">
        <ele>1570.1</ele>
        <time>2023-07-02T10:46:36+0200</time>
      </trkpt>
      <trkpt lat="45.0161" lon="6.63789">
        <ele>1569.5</ele>
        <time>2023-07-02T10:46:38+0200</time>
      </trkpt>
      <trkpt lat="45.01612" lon="6.63804">
        <ele>1569.1</ele>
        <time>2023-07-02T10:46:39+0200</time>
      </trkpt>
      <trkpt lat="45.01612" lon="6.63819">
        <ele>1568.6</ele>
        <time>2023-07-02T10:46:40+0200</time>
      </trkpt>
      <trkpt lat="45.01613" lon="6.63832">
        <ele>1568.3</ele>
        <time>2023-07-02T10:46:41+0200</time>
      </trkpt>
      <trkpt lat="45.01611" lon="6.63844">
        <ele>1568</ele>
        <time>2023-07-02T10:46:42+0200</time>
      </trkpt>
      <trkpt lat="45.01608" lon="6.63857">
        <ele>1567.7</ele>
        <time>2023-07-02T10:46:43+0200</time>
      </trkpt>
      <trkpt lat="45.01604" lon="6.63871">
        <ele>1566.7</ele>
        <time>2023-07-02T10:46:44+0200</time>
      </trkpt>
      <trkpt lat="45.01597" lon="6.63882">
        <ele>1565.4</ele>
        <time>2023-07-02T10:46:45+0200</time>
      </trkpt>
      <trkpt lat="45.01591" lon="6.63893">
        <ele>1564.2</ele>
        <time>2023-07-02T10:46:46+0200</time>
      </trkpt>
      <trkpt lat="45.01581" lon="6.63899">
        <ele>1563.7</ele>
        <time>2023-07-02T10:46:47+0200</time>
      </trkpt>
      <trkpt lat="45.01572" lon="6.63905">
        <ele>1565.1</ele>
        <time>2023-07-02T10:46:48+0200</time>
      </trkpt>
      <trkpt lat="45.01567" lon="6.63912">
        <ele>1565.7</ele>
        <time>2023-07-02T10:46:49+0200</time>
      </trkpt>
      <trkpt lat="45.01565" lon="6.63922">
        <ele>1565.8</ele>
        <time>2023-07-02T10:46:50+0200</time>
      </trkpt>
      <trkpt lat="45.01566" lon="6.63935">
        <ele>1565.5</ele>
        <time>2023-07-02T10:46:51+0200</time>
      </trkpt>
      <trkpt lat="45.01567" lon="6.63945">
        <ele>1565.1</ele>
        <time>2023-07-02T10:46:52+0200</time>
      </trkpt>
      <trkpt lat="45.01565" lon="6.63956">
        <ele>1565.2</ele>
        <time>2023-07-02T10:46:53+0200</time>
      </trkpt>
      <trkpt lat="45.01563" lon="6.63965">
        <ele>1565.4</ele>
        <time>2023-07-02T10:46:54+0200</time>
      </trkpt>
      <trkpt lat="45.0156" lon="6.63975">
        <ele>1565.8</ele>
        <time>2023-07-02T10:46:55+0200</time>
      </trkpt>
      <trkpt lat="45.01557" lon="6.63984">
        <ele>1566.2</ele>
        <time>2023-07-02T10:46:56+0200</time>
      </trkpt>
      <trkpt lat="45.01554" lon="6.63992">
        <ele>1567</ele>
        <time>2023-07-02T10:46:57+0200</time>
      </trkpt>
      <trkpt lat="45.01552" lon="6.64004">
        <ele>1567.4</ele>
        <time>2023-07-02T10:46:58+0200</time>
      </trkpt>
      <trkpt lat="45.01552" lon="6.64014">
        <ele>1566.7</ele>
        <time>2023-07-02T10:46:59+0200</time>
      </trkpt>
      <trkpt lat="45.01555" lon="6.64024">
        <ele>1565.4</ele>
        <time>2023-07-02T10:47:00+0200</time>
      </trkpt>
      <trkpt lat="45.01558" lon="6.64036">
        <ele>1564.2</ele>
        <time>2023-07-02T10:47:01+0200</time>
      </trkpt>
      <trkpt lat="45.01562" lon="6.64049">
        <ele>1562.6</ele>
        <time>2023-07-02T10:47:02+0200</time>
      </trkpt>
      <trkpt lat="45.01568" lon="6.6406">
        <ele>1560.7</ele>
        <time>2023-07-02T10:47:03+0200</time>
      </trkpt>
      <trkpt lat="45.01575" lon="6.6407">
        <ele>1558.5</ele>
        <time>2023-07-02T10:47:04+0200</time>
      </trkpt>
      <trkpt lat="45.01578" lon="6.64082">
        <ele>1557.4</ele>
        <time>2023-07-02T10:47:05+0200</time>
      </trkpt>
      <trkpt lat="45.01581" lon="6.64093">
        <ele>1556.8</ele>
        <time>2023-07-02T10:47:06+0200</time>
      </trkpt>
      <trkpt lat="45.01585" lon="6.64103">
        <ele>1556.5</ele>
        <time>2023-07-02T10:47:07+0200</time>
      </trkpt>
      <trkpt lat="45.01589" lon="6.64114">
        <ele>1556.4</ele>
        <time>2023-07-02T10:47:08+0200</time>
      </trkpt>
      <trkpt lat="45.01593" lon="6.64126">
        <ele>1555.8</ele>
        <time>2023-07-02T10:47:09+0200</time>
      </trkpt>
      <trkpt lat="45.01594" lon="6.64137">
        <ele>1555.5</ele>
        <time>2023-07-02T10:47:10+0200</time>
      </trkpt>
      <trkpt lat="45.01597" lon="6.64148">
        <ele>1555</ele>
        <time>2023-07-02T10:47:11+0200</time>
      </trkpt>
      <trkpt lat="45.01604" lon="6.64161">
        <ele>1554.1</ele>
        <time>2023-07-02T10:47:12+0200</time>
      </trkpt>
      <trkpt lat="45.01608" lon="6.64172">
        <ele>1553.2</ele>
        <time>2023-07-02T10:47:13+0200</time>
      </trkpt>
      <trkpt lat="45.01612" lon="6.64184">
        <ele>1552.4</ele>
        <time>2023-07-02T10:47:14+0200</time>
      </trkpt>
      <trkpt lat="45.01614" lon="6.64196">
        <ele>1551.9</ele>
        <time>2023-07-02T10:47:15+0200</time>
      </trkpt>
      <trkpt lat="45.01617" lon="6.6421">
        <ele>1551.4</ele>
        <time>2023-07-02T10:47:16+0200</time>
      </trkpt>
      <trkpt lat="45.01613" lon="6.64224">
        <ele>1551</ele>
        <time>2023-07-02T10:47:17+0200</time>
      </trkpt>
      <trkpt lat="45.01611" lon="6.64236">
        <ele>1551.1</ele>
        <time>2023-07-02T10:47:18+0200</time>
      </trkpt>
      <trkpt lat="45.01608" lon="6.64248">
        <ele>1551.6</ele>
        <time>2023-07-02T10:47:19+0200</time>
      </trkpt>
      <trkpt lat="45.01604" lon="6.64258">
        <ele>1551.9</ele>
        <time>2023-07-02T10:47:20+0200</time>
      </trkpt>
      <trkpt lat="45.016" lon="6.64267">
        <ele>1552.1</ele>
        <time>2023-07-02T10:47:21+0200</time>
      </trkpt>
      <trkpt lat="45.01598" lon="6.64276">
        <ele>1552.1</ele>
        <time>2023-07-02T10:47:22+0200</time>
      </trkpt>
      <trkpt lat="45.01595" lon="6.64284">
        <ele>1552.1</ele>
        <time>2023-07-02T10:47:23+0200</time>
      </trkpt>
      <trkpt lat="45.01593" lon="6.64295">
        <ele>1552</ele>
        <time>2023-07-02T10:47:24+0200</time>
      </trkpt>
      <trkpt lat="45.01593" lon="6.64304">
        <ele>1551.7</ele>
        <time>2023-07-02T10:47:25+0200</time>
      </trkpt>
      <trkpt lat="45.01592" lon="6.64313">
        <ele>1551.4</ele>
        <time>2023-07-02T10:47:26+0200</time>
      </trkpt>
      <trkpt lat="45.01589" lon="6.64321">
        <ele>1551.5</ele>
        <time>2023-07-02T10:47:27+0200</time>
      </trkpt>
      <trkpt lat="45.01587" lon="6.64329">
        <ele>1551.5</ele>
        <time>2023-07-02T10:47:28+0200</time>
      </trkpt>
      <trkpt lat="45.01586" lon="6.6434">
        <ele>1551.4</ele>
        <time>2023-07-02T10:47:29+0200</time>
      </trkpt>
      <trkpt lat="45.01582" lon="6.64349">
        <ele>1551.8</ele>
        <time>2023-07-02T10:47:31+0200</time>
      </trkpt>
      <trkpt lat="45.01578" lon="6.64358">
        <ele>1552.4</ele>
        <time>2023-07-02T10:47:33+0200</time>
      </trkpt>
      <trkpt lat="45.01576" lon="6.64365">
        <ele>1553.1</ele>
        <time>2023-07-02T10:47:35+0200</time>
      </trkpt>
      <trkpt lat="45.01573" lon="6.64372">
        <ele>1554</ele>
        <time>2023-07-02T10:47:37+0200</time>
      </trkpt>
      <trkpt lat="45.0157" lon="6.64378">
        <ele>1554.9</ele>
        <time>2023-07-02T10:47:39+0200</time>
      </trkpt>
      <trkpt lat="45.01568" lon="6.64385">
        <ele>1555.8</ele>
        <time>2023-07-02T10:47:41+0200</time>
      </trkpt>
      <trkpt lat="45.01567" lon="6.64396">
        <ele>1556.4</ele>
        <time>2023-07-02T10:47:43+0200</time>
      </trkpt>
      <trkpt lat="45.01566" lon="6.64404">
        <ele>1556.8</ele>
        <time>2023-07-02T10:47:44+0200</time>
      </trkpt>
      <trkpt lat="45.01566" lon="6.64412">
        <ele>1557.1</ele>
        <time>2023-07-02T10:47:45+0200</time>
      </trkpt>
      <trkpt lat="45.01566" lon="6.6442">
        <ele>1557.4</ele>
        <time>2023-07-02T10:47:46+0200</time>
      </trkpt>
      <trkpt lat="45.01566" lon="6.64428">
        <ele>1557.9</ele>
        <time>2023-07-02T10:47:47+0200</time>
      </trkpt>
      <trkpt lat="45.01565" lon="6.64436">
        <ele>1558.3</ele>
        <time>2023-07-02T10:47:48+0200</time>
      </trkpt>
      <trkpt lat="45.01566" lon="6.64444">
        <ele>1558.3</ele>
        <time>2023-07-02T10:47:49+0200</time>
      </trkpt>
      <trkpt lat="45.01566" lon="6.64452">
        <ele>1558.7</ele>
        <time>2023-07-02T10:47:50+0200</time>
      </trkpt>
      <trkpt lat="45.01566" lon="6.6446">
        <ele>1558.9</ele>
        <time>2023-07-02T10:47:51+0200</time>
      </trkpt>
      <trkpt lat="45.01567" lon="6.64471">
        <ele>1559</ele>
        <time>2023-07-02T10:47:53+0200</time>
      </trkpt>
      <trkpt lat="45.01568" lon="6.64484">
        <ele>1559.3</ele>
        <time>2023-07-02T10:47:55+0200</time>
      </trkpt>
      <trkpt lat="45.01566" lon="6.64498">
        <ele>1560.3</ele>
        <time>2023-07-02T10:47:57+0200</time>
      </trkpt>
      <trkpt lat="45.01566" lon="6.64508">
        <ele>1560.3</ele>
        <time>2023-07-02T10:47:59+0200</time>
      </trkpt>
      <trkpt lat="45.01569" lon="6.64514">
        <ele>1559.7</ele>
        <time>2023-07-02T10:48:00+0200</time>
      </trkpt>
      <trkpt lat="45.01574" lon="6.64524">
        <ele>1558.3</ele>
        <time>2023-07-02T10:48:01+0200</time>
      </trkpt>
      <trkpt lat="45.01577" lon="6.64529">
        <ele>1557.6</ele>
        <time>2023-07-02T10:48:02+0200</time>
      </trkpt>
      <trkpt lat="45.01578" lon="6.64536">
        <ele>1557.6</ele>
        <time>2023-07-02T10:48:03+0200</time>
      </trkpt>
      <trkpt lat="45.0158" lon="6.64543">
        <ele>1557.2</ele>
        <time>2023-07-02T10:48:04+0200</time>
      </trkpt>
      <trkpt lat="45.01582" lon="6.64549">
        <ele>1557.1</ele>
        <time>2023-07-02T10:48:05+0200</time>
      </trkpt>
      <trkpt lat="45.01582" lon="6.64559">
        <ele>1557.3</ele>
        <time>2023-07-02T10:48:07+0200</time>
      </trkpt>
      <trkpt lat="45.01581" lon="6.64568">
        <ele>1557.5</ele>
        <time>2023-07-02T10:48:09+0200</time>
      </trkpt>
      <trkpt lat="45.01582" lon="6.64578">
        <ele>1557.3</ele>
        <time>2023-07-02T10:48:11+0200</time>
      </trkpt>
      <trkpt lat="45.01581" lon="6.64586">
        <ele>1557.6</ele>
        <time>2023-07-02T10:48:13+0200</time>
      </trkpt>
      <trkpt lat="45.01583" lon="6.64593">
        <ele>1557</ele>
        <time>2023-07-02T10:48:14+0200</time>
      </trkpt>
      <trkpt lat="45.01584" lon="6.64604">
        <ele>1556.9</ele>
        <time>2023-07-02T10:48:16+0200</time>
      </trkpt>
      <trkpt lat="45.01587" lon="6.6461">
        <ele>1556.2</ele>
        <time>2023-07-02T10:48:17+0200</time>
      </trkpt>
      <trkpt lat="45.0159" lon="6.64617">
        <ele>1555.8</ele>
        <time>2023-07-02T10:48:19+0200</time>
      </trkpt>
      <trkpt lat="45.0159" lon="6.64629">
        <ele>1556.3</ele>
        <time>2023-07-02T10:48:21+0200</time>
      </trkpt>
      <trkpt lat="45.0159" lon="6.64638">
        <ele>1556.6</ele>
        <time>2023-07-02T10:48:24+0200</time>
      </trkpt>
      <trkpt lat="45.0159" lon="6.64646">
        <ele>1556.8</ele>
        <time>2023-07-02T10:48:26+0200</time>
      </trkpt>
      <trkpt lat="45.0159" lon="6.64652">
        <ele>1557</ele>
        <time>2023-07-02T10:48:28+0200</time>
      </trkpt>
      <trkpt lat="45.01591" lon="6.64661">
        <ele>1557.1</ele>
        <time>2023-07-02T10:48:31+0200</time>
      </trkpt>
      <trkpt lat="45.0159" lon="6.6467">
        <ele>1557.7</ele>
        <time>2023-07-02T10:48:34+0200</time>
      </trkpt>
      <trkpt lat="45.0159" lon="6.64678">
        <ele>1557.6</ele>
        <time>2023-07-02T10:48:36+0200</time>
      </trkpt>
      <trkpt lat="45.01589" lon="6.64688">
        <ele>1558</ele>
        <time>2023-07-02T10:48:38+0200</time>
      </trkpt>
      <trkpt lat="45.01587" lon="6.64697">
        <ele>1558.3</ele>
        <time>2023-07-02T10:48:40+0200</time>
      </trkpt>
      <trkpt lat="45.01585" lon="6.64706">
        <ele>1558.6</ele>
        <time>2023-07-02T10:48:42+0200</time>
      </trkpt>
      <trkpt lat="45.01581" lon="6.64713">
        <ele>1559.4</ele>
        <time>2023-07-02T10:48:44+0200</time>
      </trkpt>
      <trkpt lat="45.01577" lon="6.64721">
        <ele>1560.2</ele>
        <time>2023-07-02T10:48:47+0200</time>
      </trkpt>
      <trkpt lat="45.01573" lon="6.64724">
        <ele>1560.9</ele>
        <time>2023-07-02T10:48:49+0200</time>
      </trkpt>
      <trkpt lat="45.0157" lon="6.64729">
        <ele>1561.2</ele>
        <time>2023-07-02T10:48:51+0200</time>
      </trkpt>
      <trkpt lat="45.01564" lon="6.64736">
        <ele>1562</ele>
        <time>2023-07-02T10:48:53+0200</time>
      </trkpt>
      <trkpt lat="45.01563" lon="6.64743">
        <ele>1561.9</ele>
        <time>2023-07-02T10:48:55+0200</time>
      </trkpt>
      <trkpt lat="45.0156" lon="6.6475">
        <ele>1562.3</ele>
        <time>2023-07-02T10:48:56+0200</time>
      </trkpt>
      <trkpt lat="45.01554" lon="6.64753">
        <ele>1563.2</ele>
        <time>2023-07-02T10:48:58+0200</time>
      </trkpt>
      <trkpt lat="45.01549" lon="6.6476">
        <ele>1563.5</ele>
        <time>2023-07-02T10:49:00+0200</time>
      </trkpt>
      <trkpt lat="45.01544" lon="6.64763">
        <ele>1564.2</ele>
        <time>2023-07-02T10:49:02+0200</time>
      </trkpt>
      <trkpt lat="45.01538" lon="6.64767">
        <ele>1565</ele>
        <time>2023-07-02T10:49:04+0200</time>
      </trkpt>
      <trkpt lat="45.01527" lon="6.64768">
        <ele>1566.4</ele>
        <time>2023-07-02T10:49:06+0200</time>
      </trkpt>
      <trkpt lat="45.0152" lon="6.64769">
        <ele>1567.4</ele>
        <time>2023-07-02T10:49:07+0200</time>
      </trkpt>
      <trkpt lat="45.01516" lon="6.64776">
        <ele>1567.7</ele>
        <time>2023-07-02T10:49:08+0200</time>
      </trkpt>
      <trkpt lat="45.01516" lon="6.64786">
        <ele>1567.7</ele>
        <time>2023-07-02T10:49:10+0200</time>
      </trkpt>
      <trkpt lat="45.01519" lon="6.64797">
        <ele>1567.3</ele>
        <time>2023-07-02T10:49:12+0200</time>
      </trkpt>
      <trkpt lat="45.0152" lon="6.64805">
        <ele>1567.1</ele>
        <time>2023-07-02T10:49:15+0200</time>
      </trkpt>
      <trkpt lat="45.01522" lon="6.64815">
        <ele>1566.8</ele>
        <time>2023-07-02T10:49:16+0200</time>
      </trkpt>
      <trkpt lat="45.01524" lon="6.64822">
        <ele>1566.6</ele>
        <time>2023-07-02T10:49:18+0200</time>
      </trkpt>
      <trkpt lat="45.01521" lon="6.6483">
        <ele>1567</ele>
        <time>2023-07-02T10:49:22+0200</time>
      </trkpt>
      <trkpt lat="45.01516" lon="6.64837">
        <ele>1567.6</ele>
        <time>2023-07-02T10:49:24+0200</time>
      </trkpt>
      <trkpt lat="45.01509" lon="6.64836">
        <ele>1568.6</ele>
        <time>2023-07-02T10:49:27+0200</time>
      </trkpt>
      <trkpt lat="45.0151" lon="6.64844">
        <ele>1568.2</ele>
        <time>2023-07-02T10:49:28+0200</time>
      </trkpt>
      <trkpt lat="45.01508" lon="6.6485">
        <ele>1568.2</ele>
        <time>2023-07-02T10:49:29+0200</time>
      </trkpt>
      <trkpt lat="45.01507" lon="6.64856">
        <ele>1568.2</ele>
        <time>2023-07-02T10:49:30+0200</time>
      </trkpt>
      <trkpt lat="45.01504" lon="6.64861">
        <ele>1568.4</ele>
        <time>2023-07-02T10:49:31+0200</time>
      </trkpt>
      <trkpt lat="45.015" lon="6.64873">
        <ele>1569.1</ele>
        <time>2023-07-02T10:49:33+0200</time>
      </trkpt>
      <trkpt lat="45.01495" lon="6.64885">
        <ele>1569.6</ele>
        <time>2023-07-02T10:49:35+0200</time>
      </trkpt>
      <trkpt lat="45.01492" lon="6.64894">
        <ele>1569.7</ele>
        <time>2023-07-02T10:49:37+0200</time>
      </trkpt>
      <trkpt lat="45.01488" lon="6.64905">
        <ele>1569.7</ele>
        <time>2023-07-02T10:49:39+0200</time>
      </trkpt>
      <trkpt lat="45.01483" lon="6.64915">
        <ele>1569.8</ele>
        <time>2023-07-02T10:49:41+0200</time>
      </trkpt>
      <trkpt lat="45.01481" lon="6.64921">
        <ele>1569.9</ele>
        <time>2023-07-02T10:49:42+0200</time>
      </trkpt>
      <trkpt lat="45.01477" lon="6.64929">
        <ele>1570.1</ele>
        <time>2023-07-02T10:49:44+0200</time>
      </trkpt>
      <trkpt lat="45.01474" lon="6.64935">
        <ele>1570.1</ele>
        <time>2023-07-02T10:49:45+0200</time>
      </trkpt>
      <trkpt lat="45.01471" lon="6.64946">
        <ele>1570.1</ele>
        <time>2023-07-02T10:49:47+0200</time>
      </trkpt>
      <trkpt lat="45.01467" lon="6.64956">
        <ele>1570.3</ele>
        <time>2023-07-02T10:49:49+0200</time>
      </trkpt>
      <trkpt lat="45.01462" lon="6.64962">
        <ele>1570.7</ele>
        <time>2023-07-02T10:49:51+0200</time>
      </trkpt>
      <trkpt lat="45.01457" lon="6.64968">
        <ele>1570.9</ele>
        <time>2023-07-02T10:49:53+0200</time>
      </trkpt>
      <trkpt lat="45.01448" lon="6.64973">
        <ele>1571.6</ele>
        <time>2023-07-02T10:49:55+0200</time>
      </trkpt>
      <trkpt lat="45.01442" lon="6.64981">
        <ele>1571.9</ele>
        <time>2023-07-02T10:49:57+0200</time>
      </trkpt>
      <trkpt lat="45.0144" lon="6.64988">
        <ele>1571.9</ele>
        <time>2023-07-02T10:49:58+0200</time>
      </trkpt>
      <trkpt lat="45.01435" lon="6.64997">
        <ele>1572.1</ele>
        <time>2023-07-02T10:50:00+0200</time>
      </trkpt>
      <trkpt lat="45.0143" lon="6.65005">
        <ele>1572.3</ele>
        <time>2023-07-02T10:50:02+0200</time>
      </trkpt>
      <trkpt lat="45.01423" lon="6.65015">
        <ele>1572.3</ele>
        <time>2023-07-02T10:50:04+0200</time>
      </trkpt>
      <trkpt lat="45.01417" lon="6.65025">
        <ele>1572.2</ele>
        <time>2023-07-02T10:50:06+0200</time>
      </trkpt>
      <trkpt lat="45.01411" lon="6.65022">
        <ele>1573.1</ele>
        <time>2023-07-02T10:50:07+0200</time>
      </trkpt>
      <trkpt lat="45.01407" lon="6.65029">
        <ele>1573</ele>
        <time>2023-07-02T10:50:09+0200</time>
      </trkpt>
      <trkpt lat="45.01403" lon="6.65038">
        <ele>1572.9</ele>
        <time>2023-07-02T10:50:11+0200</time>
      </trkpt>
      <trkpt lat="45.014" lon="6.65044">
        <ele>1572.9</ele>
        <time>2023-07-02T10:50:13+0200</time>
      </trkpt>
      <trkpt lat="45.01394" lon="6.65052">
        <ele>1572.9</ele>
        <time>2023-07-02T10:50:15+0200</time>
      </trkpt>
      <trkpt lat="45.01388" lon="6.65061">
        <ele>1572.7</ele>
        <time>2023-07-02T10:50:17+0200</time>
      </trkpt>
      <trkpt lat="45.01382" lon="6.65067">
        <ele>1572.9</ele>
        <time>2023-07-02T10:50:19+0200</time>
      </trkpt>
      <trkpt lat="45.01376" lon="6.65075">
        <ele>1573</ele>
        <time>2023-07-02T10:50:21+0200</time>
      </trkpt>
      <trkpt lat="45.01371" lon="6.6508">
        <ele>1573.2</ele>
        <time>2023-07-02T10:50:23+0200</time>
      </trkpt>
      <trkpt lat="45.01364" lon="6.65086">
        <ele>1573.5</ele>
        <time>2023-07-02T10:50:25+0200</time>
      </trkpt>
      <trkpt lat="45.01358" lon="6.65093">
        <ele>1573.6</ele>
        <time>2023-07-02T10:50:27+0200</time>
      </trkpt>
      <trkpt lat="45.01352" lon="6.65098">
        <ele>1573.6</ele>
        <time>2023-07-02T10:50:29+0200</time>
      </trkpt>
      <trkpt lat="45.01344" lon="6.65103">
        <ele>1573.8</ele>
        <time>2023-07-02T10:50:31+0200</time>
      </trkpt>
      <trkpt lat="45.0134" lon="6.65106">
        <ele>1573.9</ele>
        <time>2023-07-02T10:50:32+0200</time>
      </trkpt>
      <trkpt lat="45.01334" lon="6.65106">
        <ele>1574.3</ele>
        <time>2023-07-02T10:50:33+0200</time>
      </trkpt>
      <trkpt lat="45.01327" lon="6.65113">
        <ele>1574.3</ele>
        <time>2023-07-02T10:50:35+0200</time>
      </trkpt>
      <trkpt lat="45.01323" lon="6.65118">
        <ele>1574.3</ele>
        <time>2023-07-02T10:50:36+0200</time>
      </trkpt>
      <trkpt lat="45.01316" lon="6.65125">
        <ele>1574.3</ele>
        <time>2023-07-02T10:50:38+0200</time>
      </trkpt>
      <trkpt lat="45.01311" lon="6.6513">
        <ele>1574.2</ele>
        <time>2023-07-02T10:50:40+0200</time>
      </trkpt>
      <trkpt lat="45.0131" lon="6.65137">
        <ele>1573.8</ele>
        <time>2023-07-02T10:50:46+0200</time>
      </trkpt>
      <trkpt lat="45.01311" lon="6.65144">
        <ele>1573.3</ele>
        <time>2023-07-02T10:51:09+0200</time>
      </trkpt>
      <trkpt lat="45.01316" lon="6.65141">
        <ele>1573.1</ele>
        <time>2023-07-02T10:51:29+0200</time>
      </trkpt>
      <trkpt lat="45.01311" lon="6.65136">
        <ele>1573.8</ele>
        <time>2023-07-02T10:51:37+0200</time>
      </trkpt>
      <trkpt lat="45.01306" lon="6.65141">
        <ele>1573.8</ele>
        <time>2023-07-02T10:51:39+0200</time>
      </trkpt>
      <trkpt lat="45.01299" lon="6.65145">
        <ele>1574</ele>
        <time>2023-07-02T10:51:41+0200</time>
      </trkpt>
      <trkpt lat="45.01292" lon="6.65146">
        <ele>1574.5</ele>
        <time>2023-07-02T10:51:43+0200</time>
      </trkpt>
      <trkpt lat="45.01288" lon="6.65145">
        <ele>1574.8</ele>
        <time>2023-07-02T10:51:44+0200</time>
      </trkpt>
      <trkpt lat="45.01279" lon="6.65149">
        <ele>1575.1</ele>
        <time>2023-07-02T10:51:46+0200</time>
      </trkpt>
      <trkpt lat="45.01275" lon="6.65152">
        <ele>1575.2</ele>
        <time>2023-07-02T10:51:47+0200</time>
      </trkpt>
      <trkpt lat="45.01271" lon="6.65153">
        <ele>1575.4</ele>
        <time>2023-07-02T10:51:48+0200</time>
      </trkpt>
      <trkpt lat="45.01266" lon="6.65155">
        <ele>1575.5</ele>
        <time>2023-07-02T10:51:49+0200</time>
      </trkpt>
      <trkpt lat="45.01258" lon="6.6516">
        <ele>1575.3</ele>
        <time>2023-07-02T10:51:51+0200</time>
      </trkpt>
      <trkpt lat="45.01254" lon="6.65165">
        <ele>1575.1</ele>
        <time>2023-07-02T10:51:52+0200</time>
      </trkpt>
      <trkpt lat="45.0125" lon="6.65168">
        <ele>1574.9</ele>
        <time>2023-07-02T10:51:53+0200</time>
      </trkpt>
      <trkpt lat="45.01242" lon="6.65171">
        <ele>1575.2</ele>
        <time>2023-07-02T10:51:55+0200</time>
      </trkpt>
      <trkpt lat="45.01235" lon="6.65175">
        <ele>1575.3</ele>
        <time>2023-07-02T10:51:57+0200</time>
      </trkpt>
      <trkpt lat="45.01229" lon="6.65179">
        <ele>1575.3</ele>
        <time>2023-07-02T10:51:59+0200</time>
      </trkpt>
      <trkpt lat="45.01226" lon="6.65184">
        <ele>1574.9</ele>
        <time>2023-07-02T10:52:00+0200</time>
      </trkpt>
      <trkpt lat="45.01221" lon="6.65191">
        <ele>1574.5</ele>
        <time>2023-07-02T10:52:02+0200</time>
      </trkpt>
      <trkpt lat="45.01212" lon="6.65193">
        <ele>1574.9</ele>
        <time>2023-07-02T10:52:04+0200</time>
      </trkpt>
      <trkpt lat="45.01208" lon="6.65197">
        <ele>1574.8</ele>
        <time>2023-07-02T10:52:05+0200</time>
      </trkpt>
      <trkpt lat="45.01203" lon="6.65202">
        <ele>1574.7</ele>
        <time>2023-07-02T10:52:06+0200</time>
      </trkpt>
      <trkpt lat="45.012" lon="6.65207">
        <ele>1574.4</ele>
        <time>2023-07-02T10:52:07+0200</time>
      </trkpt>
      <trkpt lat="45.01191" lon="6.65214">
        <ele>1574.1</ele>
        <time>2023-07-02T10:52:09+0200</time>
      </trkpt>
      <trkpt lat="45.01187" lon="6.65217">
        <ele>1574.1</ele>
        <time>2023-07-02T10:52:10+0200</time>
      </trkpt>
      <trkpt lat="45.01181" lon="6.65221">
        <ele>1574.1</ele>
        <time>2023-07-02T10:52:11+0200</time>
      </trkpt>
      <trkpt lat="45.01175" lon="6.65225">
        <ele>1574.2</ele>
        <time>2023-07-02T10:52:12+0200</time>
      </trkpt>
      <trkpt lat="45.01171" lon="6.65231">
        <ele>1573.8</ele>
        <time>2023-07-02T10:52:13+0200</time>
      </trkpt>
      <trkpt lat="45.01166" lon="6.65234">
        <ele>1573.8</ele>
        <time>2023-07-02T10:52:14+0200</time>
      </trkpt>
      <trkpt lat="45.01162" lon="6.65239">
        <ele>1573.4</ele>
        <time>2023-07-02T10:52:15+0200</time>
      </trkpt>
      <trkpt lat="45.01156" lon="6.65243">
        <ele>1573.2</ele>
        <time>2023-07-02T10:52:16+0200</time>
      </trkpt>
      <trkpt lat="45.01151" lon="6.65247">
        <ele>1572.9</ele>
        <time>2023-07-02T10:52:17+0200</time>
      </trkpt>
      <trkpt lat="45.01146" lon="6.65251">
        <ele>1572.6</ele>
        <time>2023-07-02T10:52:18+0200</time>
      </trkpt>
      <trkpt lat="45.01141" lon="6.65256">
        <ele>1572.3</ele>
        <time>2023-07-02T10:52:19+0200</time>
      </trkpt>
      <trkpt lat="45.01137" lon="6.65262">
        <ele>1571.8</ele>
        <time>2023-07-02T10:52:20+0200</time>
      </trkpt>
      <trkpt lat="45.01131" lon="6.65267">
        <ele>1571.4</ele>
        <time>2023-07-02T10:52:21+0200</time>
      </trkpt>
      <trkpt lat="45.01123" lon="6.65265">
        <ele>1571.9</ele>
        <time>2023-07-02T10:52:22+0200</time>
      </trkpt>
      <trkpt lat="45.01117" lon="6.65274">
        <ele>1571.2</ele>
        <time>2023-07-02T10:52:23+0200</time>
      </trkpt>
      <trkpt lat="45.01112" lon="6.6528">
        <ele>1570.8</ele>
        <time>2023-07-02T10:52:24+0200</time>
      </trkpt>
      <trkpt lat="45.01107" lon="6.65287">
        <ele>1570.4</ele>
        <time>2023-07-02T10:52:25+0200</time>
      </trkpt>
      <trkpt lat="45.01101" lon="6.6529">
        <ele>1570.3</ele>
        <time>2023-07-02T10:52:26+0200</time>
      </trkpt>
      <trkpt lat="45.01095" lon="6.65299">
        <ele>1569.6</ele>
        <time>2023-07-02T10:52:27+0200</time>
      </trkpt>
      <trkpt lat="45.01087" lon="6.65304">
        <ele>1569.1</ele>
        <time>2023-07-02T10:52:28+0200</time>
      </trkpt>
      <trkpt lat="45.0108" lon="6.65308">
        <ele>1568.9</ele>
        <time>2023-07-02T10:52:29+0200</time>
      </trkpt>
      <trkpt lat="45.01073" lon="6.65314">
        <ele>1568.6</ele>
        <time>2023-07-02T10:52:30+0200</time>
      </trkpt>
      <trkpt lat="45.01067" lon="6.65318">
        <ele>1568.4</ele>
        <time>2023-07-02T10:52:31+0200</time>
      </trkpt>
      <trkpt lat="45.01058" lon="6.6532">
        <ele>1568.4</ele>
        <time>2023-07-02T10:52:32+0200</time>
      </trkpt>
      <trkpt lat="45.0105" lon="6.65322">
        <ele>1568.2</ele>
        <time>2023-07-02T10:52:33+0200</time>
      </trkpt>
      <trkpt lat="45.01043" lon="6.65331">
        <ele>1567.3</ele>
        <time>2023-07-02T10:52:34+0200</time>
      </trkpt>
      <trkpt lat="45.01035" lon="6.65334">
        <ele>1567</ele>
        <time>2023-07-02T10:52:35+0200</time>
      </trkpt>
      <trkpt lat="45.01028" lon="6.65339">
        <ele>1566.6</ele>
        <time>2023-07-02T10:52:36+0200</time>
      </trkpt>
      <trkpt lat="45.01022" lon="6.65344">
        <ele>1566.2</ele>
        <time>2023-07-02T10:52:37+0200</time>
      </trkpt>
      <trkpt lat="45.01015" lon="6.65346">
        <ele>1566.1</ele>
        <time>2023-07-02T10:52:38+0200</time>
      </trkpt>
      <trkpt lat="45.01008" lon="6.6535">
        <ele>1565.8</ele>
        <time>2023-07-02T10:52:39+0200</time>
      </trkpt>
      <trkpt lat="45.01001" lon="6.65358">
        <ele>1565.2</ele>
        <time>2023-07-02T10:52:40+0200</time>
      </trkpt>
      <trkpt lat="45.00996" lon="6.6537">
        <ele>1564</ele>
        <time>2023-07-02T10:52:41+0200</time>
      </trkpt>
      <trkpt lat="45.00991" lon="6.65378">
        <ele>1563</ele>
        <time>2023-07-02T10:52:42+0200</time>
      </trkpt>
      <trkpt lat="45.00985" lon="6.65387">
        <ele>1562.1</ele>
        <time>2023-07-02T10:52:43+0200</time>
      </trkpt>
      <trkpt lat="45.00978" lon="6.65395">
        <ele>1561.6</ele>
        <time>2023-07-02T10:52:44+0200</time>
      </trkpt>
      <trkpt lat="45.0097" lon="6.65399">
        <ele>1561.2</ele>
        <time>2023-07-02T10:52:45+0200</time>
      </trkpt>
      <trkpt lat="45.00962" lon="6.65405">
        <ele>1560.4</ele>
        <time>2023-07-02T10:52:46+0200</time>
      </trkpt>
      <trkpt lat="45.00954" lon="6.65412">
        <ele>1559.7</ele>
        <time>2023-07-02T10:52:47+0200</time>
      </trkpt>
      <trkpt lat="45.00946" lon="6.65418">
        <ele>1558.9</ele>
        <time>2023-07-02T10:52:48+0200</time>
      </trkpt>
      <trkpt lat="45.00939" lon="6.65426">
        <ele>1557.8</ele>
        <time>2023-07-02T10:52:49+0200</time>
      </trkpt>
      <trkpt lat="45.00931" lon="6.65435">
        <ele>1556.6</ele>
        <time>2023-07-02T10:52:50+0200</time>
      </trkpt>
      <trkpt lat="45.00923" lon="6.65445">
        <ele>1555.2</ele>
        <time>2023-07-02T10:52:51+0200</time>
      </trkpt>
      <trkpt lat="45.00914" lon="6.65449">
        <ele>1554.4</ele>
        <time>2023-07-02T10:52:52+0200</time>
      </trkpt>
      <trkpt lat="45.00905" lon="6.65458">
        <ele>1553.2</ele>
        <time>2023-07-02T10:52:53+0200</time>
      </trkpt>
      <trkpt lat="45.00898" lon="6.65467">
        <ele>1551.9</ele>
        <time>2023-07-02T10:52:54+0200</time>
      </trkpt>
      <trkpt lat="45.00891" lon="6.65479">
        <ele>1550.6</ele>
        <time>2023-07-02T10:52:55+0200</time>
      </trkpt>
      <trkpt lat="45.00885" lon="6.6549">
        <ele>1549.4</ele>
        <time>2023-07-02T10:52:56+0200</time>
      </trkpt>
      <trkpt lat="45.00877" lon="6.65501">
        <ele>1548.1</ele>
        <time>2023-07-02T10:52:57+0200</time>
      </trkpt>
      <trkpt lat="45.0087" lon="6.65511">
        <ele>1546.7</ele>
        <time>2023-07-02T10:52:58+0200</time>
      </trkpt>
      <trkpt lat="45.00863" lon="6.65522">
        <ele>1545.5</ele>
        <time>2023-07-02T10:52:59+0200</time>
      </trkpt>
      <trkpt lat="45.00856" lon="6.65534">
        <ele>1544.2</ele>
        <time>2023-07-02T10:53:00+0200</time>
      </trkpt>
      <trkpt lat="45.00849" lon="6.65546">
        <ele>1542.7</ele>
        <time>2023-07-02T10:53:01+0200</time>
      </trkpt>
      <trkpt lat="45.00842" lon="6.65556">
        <ele>1541.3</ele>
        <time>2023-07-02T10:53:02+0200</time>
      </trkpt>
      <trkpt lat="45.00834" lon="6.65567">
        <ele>1540.2</ele>
        <time>2023-07-02T10:53:03+0200</time>
      </trkpt>
      <trkpt lat="45.00824" lon="6.65573">
        <ele>1539.4</ele>
        <time>2023-07-02T10:53:04+0200</time>
      </trkpt>
      <trkpt lat="45.00816" lon="6.65583">
        <ele>1538.4</ele>
        <time>2023-07-02T10:53:05+0200</time>
      </trkpt>
      <trkpt lat="45.00808" lon="6.65593">
        <ele>1537.4</ele>
        <time>2023-07-02T10:53:06+0200</time>
      </trkpt>
      <trkpt lat="45.008" lon="6.65604">
        <ele>1536.1</ele>
        <time>2023-07-02T10:53:07+0200</time>
      </trkpt>
      <trkpt lat="45.00791" lon="6.65613">
        <ele>1534.8</ele>
        <time>2023-07-02T10:53:08+0200</time>
      </trkpt>
      <trkpt lat="45.0078" lon="6.65619">
        <ele>1533.6</ele>
        <time>2023-07-02T10:53:09+0200</time>
      </trkpt>
      <trkpt lat="45.00769" lon="6.65621">
        <ele>1532.6</ele>
        <time>2023-07-02T10:53:10+0200</time>
      </trkpt>
      <trkpt lat="45.00759" lon="6.65621">
        <ele>1531.9</ele>
        <time>2023-07-02T10:53:11+0200</time>
      </trkpt>
      <trkpt lat="45.0075" lon="6.65622">
        <ele>1531.2</ele>
        <time>2023-07-02T10:53:12+0200</time>
      </trkpt>
      <trkpt lat="45.00742" lon="6.65625">
        <ele>1530.4</ele>
        <time>2023-07-02T10:53:13+0200</time>
      </trkpt>
      <trkpt lat="45.00734" lon="6.65634">
        <ele>1529.2</ele>
        <time>2023-07-02T10:53:14+0200</time>
      </trkpt>
      <trkpt lat="45.00727" lon="6.65643">
        <ele>1528</ele>
        <time>2023-07-02T10:53:15+0200</time>
      </trkpt>
      <trkpt lat="45.00721" lon="6.65654">
        <ele>1526.9</ele>
        <time>2023-07-02T10:53:16+0200</time>
      </trkpt>
      <trkpt lat="45.00713" lon="6.65662">
        <ele>1526</ele>
        <time>2023-07-02T10:53:17+0200</time>
      </trkpt>
      <trkpt lat="45.00706" lon="6.65673">
        <ele>1525</ele>
        <time>2023-07-02T10:53:18+0200</time>
      </trkpt>
      <trkpt lat="45.007" lon="6.65685">
        <ele>1523.9</ele>
        <time>2023-07-02T10:53:19+0200</time>
      </trkpt>
      <trkpt lat="45.00694" lon="6.65696">
        <ele>1522.8</ele>
        <time>2023-07-02T10:53:20+0200</time>
      </trkpt>
      <trkpt lat="45.00687" lon="6.65706">
        <ele>1521.6</ele>
        <time>2023-07-02T10:53:21+0200</time>
      </trkpt>
      <trkpt lat="45.00678" lon="6.65715">
        <ele>1520.6</ele>
        <time>2023-07-02T10:53:22+0200</time>
      </trkpt>
      <trkpt lat="45.0067" lon="6.65725">
        <ele>1519.8</ele>
        <time>2023-07-02T10:53:23+0200</time>
      </trkpt>
      <trkpt lat="45.00662" lon="6.65735">
        <ele>1518.8</ele>
        <time>2023-07-02T10:53:24+0200</time>
      </trkpt>
      <trkpt lat="45.00654" lon="6.65745">
        <ele>1517.8</ele>
        <time>2023-07-02T10:53:25+0200</time>
      </trkpt>
      <trkpt lat="45.00645" lon="6.65755">
        <ele>1516.9</ele>
        <time>2023-07-02T10:53:26+0200</time>
      </trkpt>
      <trkpt lat="45.00638" lon="6.65765">
        <ele>1515.9</ele>
        <time>2023-07-02T10:53:27+0200</time>
      </trkpt>
      <trkpt lat="45.0063" lon="6.65775">
        <ele>1514.9</ele>
        <time>2023-07-02T10:53:28+0200</time>
      </trkpt>
      <trkpt lat="45.00622" lon="6.65785">
        <ele>1513.9</ele>
        <time>2023-07-02T10:53:29+0200</time>
      </trkpt>
      <trkpt lat="45.00615" lon="6.65797">
        <ele>1512.7</ele>
        <time>2023-07-02T10:53:30+0200</time>
      </trkpt>
      <trkpt lat="45.00606" lon="6.65808">
        <ele>1511.5</ele>
        <time>2023-07-02T10:53:31+0200</time>
      </trkpt>
      <trkpt lat="45.00598" lon="6.65817">
        <ele>1510.2</ele>
        <time>2023-07-02T10:53:32+0200</time>
      </trkpt>
      <trkpt lat="45.00589" lon="6.65826">
        <ele>1509</ele>
        <time>2023-07-02T10:53:33+0200</time>
      </trkpt>
      <trkpt lat="45.00579" lon="6.65831">
        <ele>1508</ele>
        <time>2023-07-02T10:53:34+0200</time>
      </trkpt>
      <trkpt lat="45.00568" lon="6.65836">
        <ele>1507.3</ele>
        <time>2023-07-02T10:53:35+0200</time>
      </trkpt>
      <trkpt lat="45.00558" lon="6.6584">
        <ele>1506.6</ele>
        <time>2023-07-02T10:53:36+0200</time>
      </trkpt>
      <trkpt lat="45.00547" lon="6.65844">
        <ele>1505.6</ele>
        <time>2023-07-02T10:53:37+0200</time>
      </trkpt>
      <trkpt lat="45.00537" lon="6.65847">
        <ele>1504.7</ele>
        <time>2023-07-02T10:53:38+0200</time>
      </trkpt>
      <trkpt lat="45.00526" lon="6.65847">
        <ele>1503.8</ele>
        <time>2023-07-02T10:53:39+0200</time>
      </trkpt>
      <trkpt lat="45.00515" lon="6.65848">
        <ele>1503</ele>
        <time>2023-07-02T10:53:40+0200</time>
      </trkpt>
      <trkpt lat="45.00504" lon="6.65849">
        <ele>1502.2</ele>
        <time>2023-07-02T10:53:41+0200</time>
      </trkpt>
      <trkpt lat="45.00494" lon="6.6585">
        <ele>1501.5</ele>
        <time>2023-07-02T10:53:42+0200</time>
      </trkpt>
      <trkpt lat="45.00484" lon="6.65853">
        <ele>1500.8</ele>
        <time>2023-07-02T10:53:43+0200</time>
      </trkpt>
      <trkpt lat="45.00474" lon="6.65857">
        <ele>1500.2</ele>
        <time>2023-07-02T10:53:44+0200</time>
      </trkpt>
      <trkpt lat="45.00463" lon="6.65859">
        <ele>1499.4</ele>
        <time>2023-07-02T10:53:45+0200</time>
      </trkpt>
      <trkpt lat="45.00453" lon="6.65862">
        <ele>1498.5</ele>
        <time>2023-07-02T10:53:46+0200</time>
      </trkpt>
      <trkpt lat="45.00443" lon="6.65863">
        <ele>1497.6</ele>
        <time>2023-07-02T10:53:47+0200</time>
      </trkpt>
      <trkpt lat="45.00432" lon="6.65867">
        <ele>1496.4</ele>
        <time>2023-07-02T10:53:48+0200</time>
      </trkpt>
      <trkpt lat="45.00422" lon="6.65872">
        <ele>1495.1</ele>
        <time>2023-07-02T10:53:49+0200</time>
      </trkpt>
      <trkpt lat="45.00414" lon="6.65877">
        <ele>1494.2</ele>
        <time>2023-07-02T10:53:50+0200</time>
      </trkpt>
      <trkpt lat="45.00406" lon="6.65886">
        <ele>1493.4</ele>
        <time>2023-07-02T10:53:51+0200</time>
      </trkpt>
      <trkpt lat="45.004" lon="6.65893">
        <ele>1492.3</ele>
        <time>2023-07-02T10:53:52+0200</time>
      </trkpt>
      <trkpt lat="45.00395" lon="6.65899">
        <ele>1491.3</ele>
        <time>2023-07-02T10:53:53+0200</time>
      </trkpt>
      <trkpt lat="45.00391" lon="6.65904">
        <ele>1490.4</ele>
        <time>2023-07-02T10:53:54+0200</time>
      </trkpt>
      <trkpt lat="45.00386" lon="6.65909">
        <ele>1489.7</ele>
        <time>2023-07-02T10:53:55+0200</time>
      </trkpt>
      <trkpt lat="45.00381" lon="6.65911">
        <ele>1489.4</ele>
        <time>2023-07-02T10:53:56+0200</time>
      </trkpt>
      <trkpt lat="45.00377" lon="6.65912">
        <ele>1489</ele>
        <time>2023-07-02T10:53:58+0200</time>
      </trkpt>
      <trkpt lat="45.00372" lon="6.65916">
        <ele>1488.5</ele>
        <time>2023-07-02T10:54:01+0200</time>
      </trkpt>
      <trkpt lat="45.00368" lon="6.65917">
        <ele>1488.2</ele>
        <time>2023-07-02T10:54:03+0200</time>
      </trkpt>
      <trkpt lat="45.0036" lon="6.65923">
        <ele>1487.3</ele>
        <time>2023-07-02T10:54:05+0200</time>
      </trkpt>
      <trkpt lat="45.00352" lon="6.65927">
        <ele>1486.9</ele>
        <time>2023-07-02T10:54:07+0200</time>
      </trkpt>
      <trkpt lat="45.00346" lon="6.65927">
        <ele>1486.9</ele>
        <time>2023-07-02T10:54:08+0200</time>
      </trkpt>
      <trkpt lat="45.0034" lon="6.65928">
        <ele>1486.8</ele>
        <time>2023-07-02T10:54:09+0200</time>
      </trkpt>
      <trkpt lat="45.00334" lon="6.65929">
        <ele>1486.6</ele>
        <time>2023-07-02T10:54:10+0200</time>
      </trkpt>
      <trkpt lat="45.00328" lon="6.6593">
        <ele>1486.8</ele>
        <time>2023-07-02T10:54:11+0200</time>
      </trkpt>
      <trkpt lat="45.00321" lon="6.65931">
        <ele>1486.9</ele>
        <time>2023-07-02T10:54:12+0200</time>
      </trkpt>
      <trkpt lat="45.00315" lon="6.65935">
        <ele>1486.7</ele>
        <time>2023-07-02T10:54:13+0200</time>
      </trkpt>
      <trkpt lat="45.00309" lon="6.65938">
        <ele>1486.5</ele>
        <time>2023-07-02T10:54:14+0200</time>
      </trkpt>
      <trkpt lat="45.00303" lon="6.65946">
        <ele>1486.6</ele>
        <time>2023-07-02T10:54:15+0200</time>
      </trkpt>
      <trkpt lat="45.00298" lon="6.65953">
        <ele>1487.3</ele>
        <time>2023-07-02T10:54:16+0200</time>
      </trkpt>
      <trkpt lat="45.00294" lon="6.6596">
        <ele>1487.8</ele>
        <time>2023-07-02T10:54:17+0200</time>
      </trkpt>
      <trkpt lat="45.0029" lon="6.65969">
        <ele>1488</ele>
        <time>2023-07-02T10:54:18+0200</time>
      </trkpt>
      <trkpt lat="45.00286" lon="6.65979">
        <ele>1487.9</ele>
        <time>2023-07-02T10:54:19+0200</time>
      </trkpt>
      <trkpt lat="45.00284" lon="6.65988">
        <ele>1487.4</ele>
        <time>2023-07-02T10:54:20+0200</time>
      </trkpt>
      <trkpt lat="45.00281" lon="6.65998">
        <ele>1486.9</ele>
        <time>2023-07-02T10:54:21+0200</time>
      </trkpt>
      <trkpt lat="45.00279" lon="6.66008">
        <ele>1486.1</ele>
        <time>2023-07-02T10:54:22+0200</time>
      </trkpt>
      <trkpt lat="45.00276" lon="6.66018">
        <ele>1485.6</ele>
        <time>2023-07-02T10:54:23+0200</time>
      </trkpt>
      <trkpt lat="45.00275" lon="6.6603">
        <ele>1484.6</ele>
        <time>2023-07-02T10:54:24+0200</time>
      </trkpt>
      <trkpt lat="45.00274" lon="6.66041">
        <ele>1483.6</ele>
        <time>2023-07-02T10:54:25+0200</time>
      </trkpt>
      <trkpt lat="45.0027" lon="6.66051">
        <ele>1483</ele>
        <time>2023-07-02T10:54:26+0200</time>
      </trkpt>
      <trkpt lat="45.00263" lon="6.66058">
        <ele>1483.5</ele>
        <time>2023-07-02T10:54:27+0200</time>
      </trkpt>
      <trkpt lat="45.00257" lon="6.66063">
        <ele>1483.9</ele>
        <time>2023-07-02T10:54:28+0200</time>
      </trkpt>
      <trkpt lat="45.00251" lon="6.66067">
        <ele>1484.2</ele>
        <time>2023-07-02T10:54:29+0200</time>
      </trkpt>
      <trkpt lat="45.00246" lon="6.66071">
        <ele>1484.5</ele>
        <time>2023-07-02T10:54:30+0200</time>
      </trkpt>
      <trkpt lat="45.0024" lon="6.66076">
        <ele>1484.4</ele>
        <time>2023-07-02T10:54:31+0200</time>
      </trkpt>
      <trkpt lat="45.00235" lon="6.66083">
        <ele>1483.6</ele>
        <time>2023-07-02T10:54:32+0200</time>
      </trkpt>
      <trkpt lat="45.00232" lon="6.66092">
        <ele>1483</ele>
        <time>2023-07-02T10:54:33+0200</time>
      </trkpt>
      <trkpt lat="45.00229" lon="6.66102">
        <ele>1482</ele>
        <time>2023-07-02T10:54:34+0200</time>
      </trkpt>
      <trkpt lat="45.00225" lon="6.66109">
        <ele>1481.2</ele>
        <time>2023-07-02T10:54:35+0200</time>
      </trkpt>
      <trkpt lat="45.00218" lon="6.6611">
        <ele>1481.3</ele>
        <time>2023-07-02T10:54:37+0200</time>
      </trkpt>
      <trkpt lat="45.00214" lon="6.66106">
        <ele>1482.1</ele>
        <time>2023-07-02T10:54:38+0200</time>
      </trkpt>
      <trkpt lat="45.00207" lon="6.66104">
        <ele>1482.7</ele>
        <time>2023-07-02T10:54:40+0200</time>
      </trkpt>
      <trkpt lat="45.00203" lon="6.661">
        <ele>1483.6</ele>
        <time>2023-07-02T10:54:42+0200</time>
      </trkpt>
      <trkpt lat="45.00198" lon="6.66096">
        <ele>1484.5</ele>
        <time>2023-07-02T10:54:44+0200</time>
      </trkpt>
      <trkpt lat="45.00193" lon="6.66093">
        <ele>1485.2</ele>
        <time>2023-07-02T10:54:46+0200</time>
      </trkpt>
      <trkpt lat="45.00185" lon="6.66088">
        <ele>1485.4</ele>
        <time>2023-07-02T10:54:49+0200</time>
      </trkpt>
      <trkpt lat="45.00179" lon="6.66088">
        <ele>1485</ele>
        <time>2023-07-02T10:54:50+0200</time>
      </trkpt>
      <trkpt lat="45.00169" lon="6.66085">
        <ele>1485</ele>
        <time>2023-07-02T10:54:52+0200</time>
      </trkpt>
      <trkpt lat="45.00163" lon="6.66087">
        <ele>1484.1</ele>
        <time>2023-07-02T10:54:53+0200</time>
      </trkpt>
      <trkpt lat="45.00156" lon="6.66093">
        <ele>1482.5</ele>
        <time>2023-07-02T10:54:55+0200</time>
      </trkpt>
      <trkpt lat="45.00149" lon="6.66093">
        <ele>1482</ele>
        <time>2023-07-02T10:54:57+0200</time>
      </trkpt>
      <trkpt lat="45.00144" lon="6.66092">
        <ele>1481.7</ele>
        <time>2023-07-02T10:54:58+0200</time>
      </trkpt>
      <trkpt lat="45.00139" lon="6.66092">
        <ele>1481.4</ele>
        <time>2023-07-02T10:54:59+0200</time>
      </trkpt>
      <trkpt lat="45.00133" lon="6.66091">
        <ele>1481.5</ele>
        <time>2023-07-02T10:55:00+0200</time>
      </trkpt>
      <trkpt lat="45.00128" lon="6.66087">
        <ele>1482</ele>
        <time>2023-07-02T10:55:01+0200</time>
      </trkpt>
      <trkpt lat="45.00123" lon="6.66086">
        <ele>1482</ele>
        <time>2023-07-02T10:55:02+0200</time>
      </trkpt>
      <trkpt lat="45.00118" lon="6.66083">
        <ele>1482.3</ele>
        <time>2023-07-02T10:55:04+0200</time>
      </trkpt>
      <trkpt lat="45.00113" lon="6.66082">
        <ele>1482.5</ele>
        <time>2023-07-02T10:55:07+0200</time>
      </trkpt>
      <trkpt lat="45.00106" lon="6.66084">
        <ele>1482</ele>
        <time>2023-07-02T10:55:14+0200</time>
      </trkpt>
      <trkpt lat="45.001" lon="6.66085">
        <ele>1482.1</ele>
        <time>2023-07-02T10:55:22+0200</time>
      </trkpt>
      <trkpt lat="45.00095" lon="6.66083">
        <ele>1482.9</ele>
        <time>2023-07-02T10:55:30+0200</time>
      </trkpt>
      <trkpt lat="45.0009" lon="6.66084">
        <ele>1482.7</ele>
        <time>2023-07-02T10:55:32+0200</time>
      </trkpt>
      <trkpt lat="45.00084" lon="6.66086">
        <ele>1482.4</ele>
        <time>2023-07-02T10:55:39+0200</time>
      </trkpt>
      <trkpt lat="45.00079" lon="6.66089">
        <ele>1482</ele>
        <time>2023-07-02T10:55:44+0200</time>
      </trkpt>
      <trkpt lat="45.00074" lon="6.66093">
        <ele>1481.1</ele>
        <time>2023-07-02T10:55:46+0200</time>
      </trkpt>
      <trkpt lat="45.00067" lon="6.66096">
        <ele>1480.7</ele>
        <time>2023-07-02T10:55:48+0200</time>
      </trkpt>
      <trkpt lat="45.00062" lon="6.66098">
        <ele>1480.5</ele>
        <time>2023-07-02T10:55:49+0200</time>
      </trkpt>
      <trkpt lat="45.00058" lon="6.661">
        <ele>1480.2</ele>
        <time>2023-07-02T10:55:50+0200</time>
      </trkpt>
      <trkpt lat="45.00053" lon="6.66099">
        <ele>1480.6</ele>
        <time>2023-07-02T10:55:51+0200</time>
      </trkpt>
      <trkpt lat="45.00048" lon="6.66098">
        <ele>1480.9</ele>
        <time>2023-07-02T10:55:53+0200</time>
      </trkpt>
      <trkpt lat="45.00043" lon="6.66096">
        <ele>1481.4</ele>
        <time>2023-07-02T10:55:54+0200</time>
      </trkpt>
      <trkpt lat="45.0004" lon="6.6609">
        <ele>1483.1</ele>
        <time>2023-07-02T10:55:55+0200</time>
      </trkpt>
      <trkpt lat="45.00032" lon="6.66091">
        <ele>1482.8</ele>
        <time>2023-07-02T10:55:57+0200</time>
      </trkpt>
      <trkpt lat="45.00026" lon="6.66091">
        <ele>1482.6</ele>
        <time>2023-07-02T10:56:00+0200</time>
      </trkpt>
      <trkpt lat="45.0002" lon="6.66086">
        <ele>1483.4</ele>
        <time>2023-07-02T10:56:02+0200</time>
      </trkpt>
      <trkpt lat="45.00016" lon="6.66083">
        <ele>1483.8</ele>
        <time>2023-07-02T10:56:04+0200</time>
      </trkpt>
      <trkpt lat="45.00013" lon="6.66077">
        <ele>1485.9</ele>
        <time>2023-07-02T10:56:06+0200</time>
      </trkpt>
      <trkpt lat="45.00006" lon="6.66071">
        <ele>1487</ele>
        <time>2023-07-02T10:56:08+0200</time>
      </trkpt>
      <trkpt lat="45.00001" lon="6.66068">
        <ele>1487.4</ele>
        <time>2023-07-02T10:56:09+0200</time>
      </trkpt>
      <trkpt lat="44.99997" lon="6.66064">
        <ele>1487.6</ele>
        <time>2023-07-02T10:56:10+0200</time>
      </trkpt>
      <trkpt lat="44.99991" lon="6.66061">
        <ele>1487.5</ele>
        <time>2023-07-02T10:56:11+0200</time>
      </trkpt>
      <trkpt lat="44.99986" lon="6.66057">
        <ele>1487.5</ele>
        <time>2023-07-02T10:56:12+0200</time>
      </trkpt>
      <trkpt lat="44.9998" lon="6.66055">
        <ele>1486.8</ele>
        <time>2023-07-02T10:56:13+0200</time>
      </trkpt>
      <trkpt lat="44.99971" lon="6.66059">
        <ele>1484.1</ele>
        <time>2023-07-02T10:56:14+0200</time>
      </trkpt>
      <trkpt lat="44.9996" lon="6.66061">
        <ele>1482.6</ele>
        <time>2023-07-02T10:56:16+0200</time>
      </trkpt>
      <trkpt lat="44.9995" lon="6.66063">
        <ele>1481.7</ele>
        <time>2023-07-02T10:56:17+0200</time>
      </trkpt>
      <trkpt lat="44.99943" lon="6.66065">
        <ele>1480.5</ele>
        <time>2023-07-02T10:56:18+0200</time>
      </trkpt>
      <trkpt lat="44.99932" lon="6.66065">
        <ele>1480.6</ele>
        <time>2023-07-02T10:56:19+0200</time>
      </trkpt>
      <trkpt lat="44.99921" lon="6.66069">
        <ele>1479.1</ele>
        <time>2023-07-02T10:56:20+0200</time>
      </trkpt>
      <trkpt lat="44.99911" lon="6.66075">
        <ele>1478</ele>
        <time>2023-07-02T10:56:21+0200</time>
      </trkpt>
      <trkpt lat="44.999" lon="6.66078">
        <ele>1477.9</ele>
        <time>2023-07-02T10:56:22+0200</time>
      </trkpt>
      <trkpt lat="44.99891" lon="6.66081">
        <ele>1477.5</ele>
        <time>2023-07-02T10:56:23+0200</time>
      </trkpt>
      <trkpt lat="44.99884" lon="6.66085">
        <ele>1477.2</ele>
        <time>2023-07-02T10:56:24+0200</time>
      </trkpt>
      <trkpt lat="44.99876" lon="6.66087">
        <ele>1477.5</ele>
        <time>2023-07-02T10:56:25+0200</time>
      </trkpt>
      <trkpt lat="44.99865" lon="6.66091">
        <ele>1477.8</ele>
        <time>2023-07-02T10:56:26+0200</time>
      </trkpt>
      <trkpt lat="44.99859" lon="6.66098">
        <ele>1476.7</ele>
        <time>2023-07-02T10:56:27+0200</time>
      </trkpt>
      <trkpt lat="44.99852" lon="6.66107">
        <ele>1475</ele>
        <time>2023-07-02T10:56:28+0200</time>
      </trkpt>
      <trkpt lat="44.99847" lon="6.66115">
        <ele>1474</ele>
        <time>2023-07-02T10:56:29+0200</time>
      </trkpt>
      <trkpt lat="44.99841" lon="6.66121">
        <ele>1473.5</ele>
        <time>2023-07-02T10:56:30+0200</time>
      </trkpt>
      <trkpt lat="44.99834" lon="6.66126">
        <ele>1473.3</ele>
        <time>2023-07-02T10:56:31+0200</time>
      </trkpt>
      <trkpt lat="44.99827" lon="6.66128">
        <ele>1473.4</ele>
        <time>2023-07-02T10:56:32+0200</time>
      </trkpt>
      <trkpt lat="44.99822" lon="6.66134">
        <ele>1472.8</ele>
        <time>2023-07-02T10:56:33+0200</time>
      </trkpt>
      <trkpt lat="44.99815" lon="6.66137">
        <ele>1472.6</ele>
        <time>2023-07-02T10:56:34+0200</time>
      </trkpt>
      <trkpt lat="44.99809" lon="6.66145">
        <ele>1472.1</ele>
        <time>2023-07-02T10:56:35+0200</time>
      </trkpt>
      <trkpt lat="44.99802" lon="6.6615">
        <ele>1472</ele>
        <time>2023-07-02T10:56:36+0200</time>
      </trkpt>
      <trkpt lat="44.99797" lon="6.66156">
        <ele>1471.6</ele>
        <time>2023-07-02T10:56:37+0200</time>
      </trkpt>
      <trkpt lat="44.9979" lon="6.66157">
        <ele>1471.8</ele>
        <time>2023-07-02T10:56:38+0200</time>
      </trkpt>
      <trkpt lat="44.99784" lon="6.66157">
        <ele>1472.1</ele>
        <time>2023-07-02T10:56:39+0200</time>
      </trkpt>
      <trkpt lat="44.99778" lon="6.66157">
        <ele>1472.4</ele>
        <time>2023-07-02T10:56:40+0200</time>
      </trkpt>
      <trkpt lat="44.99773" lon="6.66157">
        <ele>1472.6</ele>
        <time>2023-07-02T10:56:41+0200</time>
      </trkpt>
      <trkpt lat="44.99768" lon="6.6616">
        <ele>1472.4</ele>
        <time>2023-07-02T10:56:42+0200</time>
      </trkpt>
      <trkpt lat="44.99762" lon="6.6616">
        <ele>1472.7</ele>
        <time>2023-07-02T10:56:43+0200</time>
      </trkpt>
      <trkpt lat="44.99757" lon="6.66157">
        <ele>1473.3</ele>
        <time>2023-07-02T10:56:44+0200</time>
      </trkpt>
      <trkpt lat="44.99749" lon="6.66152">
        <ele>1474.6</ele>
        <time>2023-07-02T10:56:46+0200</time>
      </trkpt>
      <trkpt lat="44.99742" lon="6.66149">
        <ele>1476</ele>
        <time>2023-07-02T10:56:47+0200</time>
      </trkpt>
      <trkpt lat="44.99736" lon="6.66149">
        <ele>1476.5</ele>
        <time>2023-07-02T10:56:48+0200</time>
      </trkpt>
      <trkpt lat="44.9973" lon="6.66151">
        <ele>1476.5</ele>
        <time>2023-07-02T10:56:49+0200</time>
      </trkpt>
      <trkpt lat="44.99721" lon="6.6615">
        <ele>1477.8</ele>
        <time>2023-07-02T10:56:51+0200</time>
      </trkpt>
      <trkpt lat="44.99713" lon="6.66148">
        <ele>1479.6</ele>
        <time>2023-07-02T10:56:52+0200</time>
      </trkpt>
      <trkpt lat="44.99705" lon="6.66151">
        <ele>1479.9</ele>
        <time>2023-07-02T10:56:53+0200</time>
      </trkpt>
      <trkpt lat="44.99698" lon="6.66155">
        <ele>1479.7</ele>
        <time>2023-07-02T10:56:54+0200</time>
      </trkpt>
      <trkpt lat="44.99693" lon="6.66158">
        <ele>1479.7</ele>
        <time>2023-07-02T10:56:55+0200</time>
      </trkpt>
      <trkpt lat="44.99682" lon="6.66161">
        <ele>1480.5</ele>
        <time>2023-07-02T10:56:56+0200</time>
      </trkpt>
      <trkpt lat="44.99675" lon="6.66165">
        <ele>1480.4</ele>
        <time>2023-07-02T10:56:57+0200</time>
      </trkpt>
      <trkpt lat="44.99669" lon="6.66169">
        <ele>1480.2</ele>
        <time>2023-07-02T10:56:58+0200</time>
      </trkpt>
      <trkpt lat="44.99661" lon="6.66177">
        <ele>1479.4</ele>
        <time>2023-07-02T10:56:59+0200</time>
      </trkpt>
      <trkpt lat="44.99656" lon="6.66182">
        <ele>1478.8</ele>
        <time>2023-07-02T10:57:00+0200</time>
      </trkpt>
      <trkpt lat="44.99651" lon="6.66187">
        <ele>1478.2</ele>
        <time>2023-07-02T10:57:01+0200</time>
      </trkpt>
      <trkpt lat="44.99646" lon="6.6619">
        <ele>1478.3</ele>
        <time>2023-07-02T10:57:02+0200</time>
      </trkpt>
      <trkpt lat="44.99639" lon="6.66195">
        <ele>1477.7</ele>
        <time>2023-07-02T10:57:03+0200</time>
      </trkpt>
      <trkpt lat="44.99634" lon="6.66206">
        <ele>1476</ele>
        <time>2023-07-02T10:57:04+0200</time>
      </trkpt>
      <trkpt lat="44.99632" lon="6.66221">
        <ele>1472.6</ele>
        <time>2023-07-02T10:57:05+0200</time>
      </trkpt>
      <trkpt lat="44.99628" lon="6.66232">
        <ele>1471.5</ele>
        <time>2023-07-02T10:57:06+0200</time>
      </trkpt>
      <trkpt lat="44.99624" lon="6.66241">
        <ele>1470.7</ele>
        <time>2023-07-02T10:57:07+0200</time>
      </trkpt>
      <trkpt lat="44.99618" lon="6.66247">
        <ele>1470.1</ele>
        <time>2023-07-02T10:57:08+0200</time>
      </trkpt>
      <trkpt lat="44.9961" lon="6.66251">
        <ele>1470.1</ele>
        <time>2023-07-02T10:57:09+0200</time>
      </trkpt>
      <trkpt lat="44.99603" lon="6.66253">
        <ele>1471.4</ele>
        <time>2023-07-02T10:57:10+0200</time>
      </trkpt>
      <trkpt lat="44.99594" lon="6.66255">
        <ele>1472.5</ele>
        <time>2023-07-02T10:57:12+0200</time>
      </trkpt>
      <trkpt lat="44.99589" lon="6.6626">
        <ele>1472.4</ele>
        <time>2023-07-02T10:57:13+0200</time>
      </trkpt>
      <trkpt lat="44.99585" lon="6.66263">
        <ele>1472.4</ele>
        <time>2023-07-02T10:57:14+0200</time>
      </trkpt>
      <trkpt lat="44.99578" lon="6.66259">
        <ele>1475</ele>
        <time>2023-07-02T10:57:15+0200</time>
      </trkpt>
      <trkpt lat="44.99573" lon="6.66259">
        <ele>1475.9</ele>
        <time>2023-07-02T10:57:16+0200</time>
      </trkpt>
      <trkpt lat="44.99565" lon="6.66269">
        <ele>1474.9</ele>
        <time>2023-07-02T10:57:18+0200</time>
      </trkpt>
      <trkpt lat="44.99563" lon="6.66276">
        <ele>1473.1</ele>
        <time>2023-07-02T10:57:19+0200</time>
      </trkpt>
      <trkpt lat="44.99562" lon="6.66285">
        <ele>1471.1</ele>
        <time>2023-07-02T10:57:20+0200</time>
      </trkpt>
      <trkpt lat="44.99562" lon="6.66294">
        <ele>1468.7</ele>
        <time>2023-07-02T10:57:21+0200</time>
      </trkpt>
      <trkpt lat="44.99561" lon="6.66308">
        <ele>1465.6</ele>
        <time>2023-07-02T10:57:23+0200</time>
      </trkpt>
      <trkpt lat="44.99559" lon="6.66316">
        <ele>1464.9</ele>
        <time>2023-07-02T10:57:24+0200</time>
      </trkpt>
      <trkpt lat="44.99551" lon="6.66325">
        <ele>1464</ele>
        <time>2023-07-02T10:57:26+0200</time>
      </trkpt>
      <trkpt lat="44.99546" lon="6.66328">
        <ele>1463.7</ele>
        <time>2023-07-02T10:57:27+0200</time>
      </trkpt>
      <trkpt lat="44.99541" lon="6.66334">
        <ele>1463</ele>
        <time>2023-07-02T10:57:28+0200</time>
      </trkpt>
      <trkpt lat="44.99536" lon="6.66337">
        <ele>1462.9</ele>
        <time>2023-07-02T10:57:29+0200</time>
      </trkpt>
      <trkpt lat="44.99531" lon="6.6634">
        <ele>1462.8</ele>
        <time>2023-07-02T10:57:30+0200</time>
      </trkpt>
      <trkpt lat="44.99526" lon="6.66339">
        <ele>1462.8</ele>
        <time>2023-07-02T10:57:31+0200</time>
      </trkpt>
      <trkpt lat="44.99521" lon="6.66338">
        <ele>1462.9</ele>
        <time>2023-07-02T10:57:32+0200</time>
      </trkpt>
      <trkpt lat="44.99511" lon="6.66338">
        <ele>1462.8</ele>
        <time>2023-07-02T10:57:34+0200</time>
      </trkpt>
      <trkpt lat="44.99505" lon="6.66336">
        <ele>1462.9</ele>
        <time>2023-07-02T10:57:35+0200</time>
      </trkpt>
      <trkpt lat="44.99497" lon="6.66337">
        <ele>1462.8</ele>
        <time>2023-07-02T10:57:37+0200</time>
      </trkpt>
      <trkpt lat="44.99492" lon="6.66335">
        <ele>1462.7</ele>
        <time>2023-07-02T10:57:38+0200</time>
      </trkpt>
      <trkpt lat="44.99486" lon="6.66335">
        <ele>1462.5</ele>
        <time>2023-07-02T10:57:39+0200</time>
      </trkpt>
      <trkpt lat="44.99478" lon="6.66338">
        <ele>1462.2</ele>
        <time>2023-07-02T10:57:40+0200</time>
      </trkpt>
      <trkpt lat="44.99474" lon="6.66338">
        <ele>1462</ele>
        <time>2023-07-02T10:57:41+0200</time>
      </trkpt>
      <trkpt lat="44.99469" lon="6.66339">
        <ele>1461.9</ele>
        <time>2023-07-02T10:57:42+0200</time>
      </trkpt>
      <trkpt lat="44.99464" lon="6.66339">
        <ele>1461.7</ele>
        <time>2023-07-02T10:57:44+0200</time>
      </trkpt>
      <trkpt lat="44.99459" lon="6.66328">
        <ele>1462.3</ele>
        <time>2023-07-02T10:57:46+0200</time>
      </trkpt>
      <trkpt lat="44.99455" lon="6.66325">
        <ele>1462.6</ele>
        <time>2023-07-02T10:57:47+0200</time>
      </trkpt>
      <trkpt lat="44.99449" lon="6.6632">
        <ele>1462.8</ele>
        <time>2023-07-02T10:57:48+0200</time>
      </trkpt>
      <trkpt lat="44.99445" lon="6.66315">
        <ele>1463</ele>
        <time>2023-07-02T10:57:49+0200</time>
      </trkpt>
      <trkpt lat="44.99434" lon="6.66314">
        <ele>1462.4</ele>
        <time>2023-07-02T10:57:51+0200</time>
      </trkpt>
      <trkpt lat="44.99429" lon="6.66316">
        <ele>1461.9</ele>
        <time>2023-07-02T10:57:52+0200</time>
      </trkpt>
      <trkpt lat="44.9942" lon="6.66312">
        <ele>1461.8</ele>
        <time>2023-07-02T10:57:54+0200</time>
      </trkpt>
      <trkpt lat="44.99414" lon="6.66309">
        <ele>1461.7</ele>
        <time>2023-07-02T10:57:55+0200</time>
      </trkpt>
      <trkpt lat="44.99409" lon="6.66304">
        <ele>1462</ele>
        <time>2023-07-02T10:57:56+0200</time>
      </trkpt>
      <trkpt lat="44.99403" lon="6.66302">
        <ele>1462</ele>
        <time>2023-07-02T10:57:57+0200</time>
      </trkpt>
      <trkpt lat="44.99397" lon="6.66302">
        <ele>1461.8</ele>
        <time>2023-07-02T10:57:58+0200</time>
      </trkpt>
      <trkpt lat="44.99391" lon="6.66302">
        <ele>1461.5</ele>
        <time>2023-07-02T10:57:59+0200</time>
      </trkpt>
      <trkpt lat="44.99384" lon="6.66303">
        <ele>1460.8</ele>
        <time>2023-07-02T10:58:00+0200</time>
      </trkpt>
      <trkpt lat="44.99377" lon="6.66305">
        <ele>1459.8</ele>
        <time>2023-07-02T10:58:01+0200</time>
      </trkpt>
      <trkpt lat="44.9937" lon="6.6631">
        <ele>1458.9</ele>
        <time>2023-07-02T10:58:02+0200</time>
      </trkpt>
      <trkpt lat="44.99364" lon="6.66315">
        <ele>1458.2</ele>
        <time>2023-07-02T10:58:03+0200</time>
      </trkpt>
      <trkpt lat="44.99358" lon="6.6632">
        <ele>1458.1</ele>
        <time>2023-07-02T10:58:04+0200</time>
      </trkpt>
      <trkpt lat="44.99352" lon="6.66327">
        <ele>1458</ele>
        <time>2023-07-02T10:58:05+0200</time>
      </trkpt>
      <trkpt lat="44.99346" lon="6.66333">
        <ele>1457.5</ele>
        <time>2023-07-02T10:58:06+0200</time>
      </trkpt>
      <trkpt lat="44.9934" lon="6.66339">
        <ele>1457.2</ele>
        <time>2023-07-02T10:58:07+0200</time>
      </trkpt>
      <trkpt lat="44.99335" lon="6.66346">
        <ele>1457.1</ele>
        <time>2023-07-02T10:58:08+0200</time>
      </trkpt>
      <trkpt lat="44.99331" lon="6.66353">
        <ele>1457.1</ele>
        <time>2023-07-02T10:58:09+0200</time>
      </trkpt>
      <trkpt lat="44.99326" lon="6.6636">
        <ele>1457</ele>
        <time>2023-07-02T10:58:10+0200</time>
      </trkpt>
      <trkpt lat="44.9932" lon="6.66365">
        <ele>1457</ele>
        <time>2023-07-02T10:58:11+0200</time>
      </trkpt>
      <trkpt lat="44.99314" lon="6.66366">
        <ele>1457</ele>
        <time>2023-07-02T10:58:12+0200</time>
      </trkpt>
      <trkpt lat="44.99307" lon="6.66369">
        <ele>1457</ele>
        <time>2023-07-02T10:58:13+0200</time>
      </trkpt>
      <trkpt lat="44.99303" lon="6.66374">
        <ele>1457.1</ele>
        <time>2023-07-02T10:58:14+0200</time>
      </trkpt>
      <trkpt lat="44.99298" lon="6.66375">
        <ele>1457.1</ele>
        <time>2023-07-02T10:58:15+0200</time>
      </trkpt>
      <trkpt lat="44.99294" lon="6.66381">
        <ele>1457.1</ele>
        <time>2023-07-02T10:58:16+0200</time>
      </trkpt>
      <trkpt lat="44.99289" lon="6.66387">
        <ele>1457</ele>
        <time>2023-07-02T10:58:17+0200</time>
      </trkpt>
      <trkpt lat="44.99285" lon="6.66397">
        <ele>1457</ele>
        <time>2023-07-02T10:58:18+0200</time>
      </trkpt>
      <trkpt lat="44.9928" lon="6.664">
        <ele>1457</ele>
        <time>2023-07-02T10:58:19+0200</time>
      </trkpt>
      <trkpt lat="44.99277" lon="6.66408">
        <ele>1457</ele>
        <time>2023-07-02T10:58:20+0200</time>
      </trkpt>
      <trkpt lat="44.99273" lon="6.66413">
        <ele>1457</ele>
        <time>2023-07-02T10:58:21+0200</time>
      </trkpt>
      <trkpt lat="44.99269" lon="6.66417">
        <ele>1457</ele>
        <time>2023-07-02T10:58:22+0200</time>
      </trkpt>
      <trkpt lat="44.99263" lon="6.6642">
        <ele>1457</ele>
        <time>2023-07-02T10:58:23+0200</time>
      </trkpt>
      <trkpt lat="44.99258" lon="6.66422">
        <ele>1457</ele>
        <time>2023-07-02T10:58:24+0200</time>
      </trkpt>
      <trkpt lat="44.99251" lon="6.66435">
        <ele>1457</ele>
        <time>2023-07-02T10:58:26+0200</time>
      </trkpt>
      <trkpt lat="44.99248" lon="6.66445">
        <ele>1456.9</ele>
        <time>2023-07-02T10:58:27+0200</time>
      </trkpt>
      <trkpt lat="44.99243" lon="6.66454">
        <ele>1456.5</ele>
        <time>2023-07-02T10:58:28+0200</time>
      </trkpt>
      <trkpt lat="44.99238" lon="6.66461">
        <ele>1456.2</ele>
        <time>2023-07-02T10:58:29+0200</time>
      </trkpt>
      <trkpt lat="44.99232" lon="6.66467">
        <ele>1456.1</ele>
        <time>2023-07-02T10:58:30+0200</time>
      </trkpt>
      <trkpt lat="44.99225" lon="6.66467">
        <ele>1456</ele>
        <time>2023-07-02T10:58:31+0200</time>
      </trkpt>
      <trkpt lat="44.99221" lon="6.66465">
        <ele>1456</ele>
        <time>2023-07-02T10:58:32+0200</time>
      </trkpt>
      <trkpt lat="44.99216" lon="6.66465">
        <ele>1456</ele>
        <time>2023-07-02T10:58:33+0200</time>
      </trkpt>
      <trkpt lat="44.99211" lon="6.66468">
        <ele>1456</ele>
        <time>2023-07-02T10:58:34+0200</time>
      </trkpt>
      <trkpt lat="44.99205" lon="6.66467">
        <ele>1456</ele>
        <time>2023-07-02T10:58:35+0200</time>
      </trkpt>
      <trkpt lat="44.99198" lon="6.66469">
        <ele>1456</ele>
        <time>2023-07-02T10:58:36+0200</time>
      </trkpt>
      <trkpt lat="44.99192" lon="6.66468">
        <ele>1455.9</ele>
        <time>2023-07-02T10:58:37+0200</time>
      </trkpt>
      <trkpt lat="44.99187" lon="6.6647">
        <ele>1455.7</ele>
        <time>2023-07-02T10:58:38+0200</time>
      </trkpt>
      <trkpt lat="44.99181" lon="6.66475">
        <ele>1455.5</ele>
        <time>2023-07-02T10:58:39+0200</time>
      </trkpt>
      <trkpt lat="44.99173" lon="6.66474">
        <ele>1455.2</ele>
        <time>2023-07-02T10:58:40+0200</time>
      </trkpt>
      <trkpt lat="44.99169" lon="6.66469">
        <ele>1455.1</ele>
        <time>2023-07-02T10:58:42+0200</time>
      </trkpt>
      <trkpt lat="44.99172" lon="6.6646">
        <ele>1455.2</ele>
        <time>2023-07-02T10:58:44+0200</time>
      </trkpt>
      <trkpt lat="44.9917" lon="6.66451">
        <ele>1455.1</ele>
        <time>2023-07-02T10:58:47+0200</time>
      </trkpt>
      <trkpt lat="44.99165" lon="6.66449">
        <ele>1455</ele>
        <time>2023-07-02T10:58:48+0200</time>
      </trkpt>
      <trkpt lat="44.9916" lon="6.66452">
        <ele>1455</ele>
        <time>2023-07-02T10:58:49+0200</time>
      </trkpt>
      <trkpt lat="44.99151" lon="6.66449">
        <ele>1455</ele>
        <time>2023-07-02T10:58:51+0200</time>
      </trkpt>
      <trkpt lat="44.99147" lon="6.66449">
        <ele>1455</ele>
        <time>2023-07-02T10:58:52+0200</time>
      </trkpt>
      <trkpt lat="44.99141" lon="6.66449">
        <ele>1455</ele>
        <time>2023-07-02T10:58:53+0200</time>
      </trkpt>
      <trkpt lat="44.99137" lon="6.66448">
        <ele>1455</ele>
        <time>2023-07-02T10:58:54+0200</time>
      </trkpt>
      <trkpt lat="44.99131" lon="6.66446">
        <ele>1455</ele>
        <time>2023-07-02T10:58:55+0200</time>
      </trkpt>
      <trkpt lat="44.99126" lon="6.66445">
        <ele>1455</ele>
        <time>2023-07-02T10:58:56+0200</time>
      </trkpt>
      <trkpt lat="44.9912" lon="6.66444">
        <ele>1455</ele>
        <time>2023-07-02T10:58:57+0200</time>
      </trkpt>
      <trkpt lat="44.99114" lon="6.66444">
        <ele>1455.1</ele>
        <time>2023-07-02T10:58:58+0200</time>
      </trkpt>
      <trkpt lat="44.99107" lon="6.66444">
        <ele>1455</ele>
        <time>2023-07-02T10:58:59+0200</time>
      </trkpt>
      <trkpt lat="44.99102" lon="6.66444">
        <ele>1455.1</ele>
        <time>2023-07-02T10:59:00+0200</time>
      </trkpt>
      <trkpt lat="44.99097" lon="6.66441">
        <ele>1455.4</ele>
        <time>2023-07-02T10:59:01+0200</time>
      </trkpt>
      <trkpt lat="44.99091" lon="6.66443">
        <ele>1455.3</ele>
        <time>2023-07-02T10:59:02+0200</time>
      </trkpt>
      <trkpt lat="44.99086" lon="6.66446">
        <ele>1454.9</ele>
        <time>2023-07-02T10:59:03+0200</time>
      </trkpt>
      <trkpt lat="44.9908" lon="6.66448">
        <ele>1454.9</ele>
        <time>2023-07-02T10:59:04+0200</time>
      </trkpt>
      <trkpt lat="44.99075" lon="6.6645">
        <ele>1454.8</ele>
        <time>2023-07-02T10:59:05+0200</time>
      </trkpt>
      <trkpt lat="44.99068" lon="6.66453">
        <ele>1454.7</ele>
        <time>2023-07-02T10:59:06+0200</time>
      </trkpt>
      <trkpt lat="44.99062" lon="6.66457">
        <ele>1454.5</ele>
        <time>2023-07-02T10:59:07+0200</time>
      </trkpt>
      <trkpt lat="44.99055" lon="6.66457">
        <ele>1454.5</ele>
        <time>2023-07-02T10:59:08+0200</time>
      </trkpt>
      <trkpt lat="44.99048" lon="6.66462">
        <ele>1454.3</ele>
        <time>2023-07-02T10:59:09+0200</time>
      </trkpt>
      <trkpt lat="44.99041" lon="6.66468">
        <ele>1454.1</ele>
        <time>2023-07-02T10:59:10+0200</time>
      </trkpt>
      <trkpt lat="44.99036" lon="6.66471">
        <ele>1454</ele>
        <time>2023-07-02T10:59:11+0200</time>
      </trkpt>
      <trkpt lat="44.99029" lon="6.66473">
        <ele>1454</ele>
        <time>2023-07-02T10:59:12+0200</time>
      </trkpt>
      <trkpt lat="44.99023" lon="6.66478">
        <ele>1453.7</ele>
        <time>2023-07-02T10:59:13+0200</time>
      </trkpt>
      <trkpt lat="44.99017" lon="6.66481">
        <ele>1453.4</ele>
        <time>2023-07-02T10:59:14+0200</time>
      </trkpt>
      <trkpt lat="44.9901" lon="6.66481">
        <ele>1453.3</ele>
        <time>2023-07-02T10:59:15+0200</time>
      </trkpt>
      <trkpt lat="44.99004" lon="6.6648">
        <ele>1453.1</ele>
        <time>2023-07-02T10:59:16+0200</time>
      </trkpt>
      <trkpt lat="44.98994" lon="6.66478">
        <ele>1453</ele>
        <time>2023-07-02T10:59:18+0200</time>
      </trkpt>
      <trkpt lat="44.98989" lon="6.66481">
        <ele>1452.9</ele>
        <time>2023-07-02T10:59:19+0200</time>
      </trkpt>
      <trkpt lat="44.98983" lon="6.66482">
        <ele>1452.8</ele>
        <time>2023-07-02T10:59:20+0200</time>
      </trkpt>
      <trkpt lat="44.98978" lon="6.66482">
        <ele>1452.7</ele>
        <time>2023-07-02T10:59:21+0200</time>
      </trkpt>
      <trkpt lat="44.98973" lon="6.66484">
        <ele>1452.6</ele>
        <time>2023-07-02T10:59:23+0200</time>
      </trkpt>
      <trkpt lat="44.98966" lon="6.66484">
        <ele>1452.4</ele>
        <time>2023-07-02T10:59:24+0200</time>
      </trkpt>
      <trkpt lat="44.98962" lon="6.66484">
        <ele>1452.2</ele>
        <time>2023-07-02T10:59:25+0200</time>
      </trkpt>
      <trkpt lat="44.98955" lon="6.6649">
        <ele>1451.7</ele>
        <time>2023-07-02T10:59:26+0200</time>
      </trkpt>
      <trkpt lat="44.9895" lon="6.6649">
        <ele>1451.6</ele>
        <time>2023-07-02T10:59:27+0200</time>
      </trkpt>
      <trkpt lat="44.98946" lon="6.66489">
        <ele>1451.5</ele>
        <time>2023-07-02T10:59:28+0200</time>
      </trkpt>
      <trkpt lat="44.9894" lon="6.66487">
        <ele>1451.5</ele>
        <time>2023-07-02T10:59:29+0200</time>
      </trkpt>
      <trkpt lat="44.98931" lon="6.66488">
        <ele>1451.4</ele>
        <time>2023-07-02T10:59:30+0200</time>
      </trkpt>
      <trkpt lat="44.98926" lon="6.66486">
        <ele>1451.5</ele>
        <time>2023-07-02T10:59:31+0200</time>
      </trkpt>
      <trkpt lat="44.98918" lon="6.66483">
        <ele>1451.6</ele>
        <time>2023-07-02T10:59:32+0200</time>
      </trkpt>
      <trkpt lat="44.98912" lon="6.66481">
        <ele>1451.7</ele>
        <time>2023-07-02T10:59:33+0200</time>
      </trkpt>
      <trkpt lat="44.98907" lon="6.66483">
        <ele>1451.7</ele>
        <time>2023-07-02T10:59:34+0200</time>
      </trkpt>
      <trkpt lat="44.98899" lon="6.66491">
        <ele>1451.1</ele>
        <time>2023-07-02T10:59:35+0200</time>
      </trkpt>
      <trkpt lat="44.98893" lon="6.66501">
        <ele>1450.1</ele>
        <time>2023-07-02T10:59:36+0200</time>
      </trkpt>
      <trkpt lat="44.98887" lon="6.66506">
        <ele>1450.1</ele>
        <time>2023-07-02T10:59:37+0200</time>
      </trkpt>
      <trkpt lat="44.98881" lon="6.66509">
        <ele>1450.3</ele>
        <time>2023-07-02T10:59:38+0200</time>
      </trkpt>
      <trkpt lat="44.98876" lon="6.66512">
        <ele>1450.3</ele>
        <time>2023-07-02T10:59:39+0200</time>
      </trkpt>
      <trkpt lat="44.98871" lon="6.66517">
        <ele>1450.1</ele>
        <time>2023-07-02T10:59:40+0200</time>
      </trkpt>
      <trkpt lat="44.98867" lon="6.66523">
        <ele>1449.6</ele>
        <time>2023-07-02T10:59:41+0200</time>
      </trkpt>
      <trkpt lat="44.98862" lon="6.66527">
        <ele>1449.1</ele>
        <time>2023-07-02T10:59:42+0200</time>
      </trkpt>
      <trkpt lat="44.98857" lon="6.66531">
        <ele>1449</ele>
        <time>2023-07-02T10:59:43+0200</time>
      </trkpt>
      <trkpt lat="44.98853" lon="6.66537">
        <ele>1449</ele>
        <time>2023-07-02T10:59:44+0200</time>
      </trkpt>
      <trkpt lat="44.98848" lon="6.66543">
        <ele>1449</ele>
        <time>2023-07-02T10:59:45+0200</time>
      </trkpt>
      <trkpt lat="44.98841" lon="6.66547">
        <ele>1449</ele>
        <time>2023-07-02T10:59:46+0200</time>
      </trkpt>
      <trkpt lat="44.98836" lon="6.66553">
        <ele>1449</ele>
        <time>2023-07-02T10:59:47+0200</time>
      </trkpt>
      <trkpt lat="44.98832" lon="6.66558">
        <ele>1449</ele>
        <time>2023-07-02T10:59:48+0200</time>
      </trkpt>
      <trkpt lat="44.98828" lon="6.66562">
        <ele>1449</ele>
        <time>2023-07-02T10:59:49+0200</time>
      </trkpt>
      <trkpt lat="44.98822" lon="6.66568">
        <ele>1448.8</ele>
        <time>2023-07-02T10:59:50+0200</time>
      </trkpt>
      <trkpt lat="44.98817" lon="6.66574">
        <ele>1448.6</ele>
        <time>2023-07-02T10:59:51+0200</time>
      </trkpt>
      <trkpt lat="44.98813" lon="6.6658">
        <ele>1448.3</ele>
        <time>2023-07-02T10:59:52+0200</time>
      </trkpt>
      <trkpt lat="44.98808" lon="6.66584">
        <ele>1448.1</ele>
        <time>2023-07-02T10:59:53+0200</time>
      </trkpt>
      <trkpt lat="44.98802" lon="6.66588">
        <ele>1448</ele>
        <time>2023-07-02T10:59:54+0200</time>
      </trkpt>
      <trkpt lat="44.98796" lon="6.66597">
        <ele>1448</ele>
        <time>2023-07-02T10:59:55+0200</time>
      </trkpt>
      <trkpt lat="44.98792" lon="6.66602">
        <ele>1448</ele>
        <time>2023-07-02T10:59:56+0200</time>
      </trkpt>
      <trkpt lat="44.98791" lon="6.66609">
        <ele>1448</ele>
        <time>2023-07-02T10:59:57+0200</time>
      </trkpt>
      <trkpt lat="44.98787" lon="6.66618">
        <ele>1447.8</ele>
        <time>2023-07-02T10:59:58+0200</time>
      </trkpt>
      <trkpt lat="44.98783" lon="6.66622">
        <ele>1447.7</ele>
        <time>2023-07-02T10:59:59+0200</time>
      </trkpt>
      <trkpt lat="44.98779" lon="6.66627">
        <ele>1447.5</ele>
        <time>2023-07-02T11:00:00+0200</time>
      </trkpt>
      <trkpt lat="44.98773" lon="6.66628">
        <ele>1447.3</ele>
        <time>2023-07-02T11:00:01+0200</time>
      </trkpt>
      <trkpt lat="44.98767" lon="6.66623">
        <ele>1447.4</ele>
        <time>2023-07-02T11:00:03+0200</time>
      </trkpt>
      <trkpt lat="44.98762" lon="6.6662">
        <ele>1447.3</ele>
        <time>2023-07-02T11:00:04+0200</time>
      </trkpt>
      <trkpt lat="44.98757" lon="6.66619">
        <ele>1447.2</ele>
        <time>2023-07-02T11:00:05+0200</time>
      </trkpt>
      <trkpt lat="44.98747" lon="6.6662">
        <ele>1446.9</ele>
        <time>2023-07-02T11:00:07+0200</time>
      </trkpt>
      <trkpt lat="44.98742" lon="6.66619">
        <ele>1446.7</ele>
        <time>2023-07-02T11:00:08+0200</time>
      </trkpt>
      <trkpt lat="44.98738" lon="6.66615">
        <ele>1446.6</ele>
        <time>2023-07-02T11:00:09+0200</time>
      </trkpt>
      <trkpt lat="44.98735" lon="6.66605">
        <ele>1446.5</ele>
        <time>2023-07-02T11:00:11+0200</time>
      </trkpt>
      <trkpt lat="44.98731" lon="6.666">
        <ele>1446.3</ele>
        <time>2023-07-02T11:00:12+0200</time>
      </trkpt>
      <trkpt lat="44.98727" lon="6.66594">
        <ele>1446.2</ele>
        <time>2023-07-02T11:00:13+0200</time>
      </trkpt>
      <trkpt lat="44.98725" lon="6.66587">
        <ele>1446.1</ele>
        <time>2023-07-02T11:00:14+0200</time>
      </trkpt>
      <trkpt lat="44.98719" lon="6.66577">
        <ele>1446.1</ele>
        <time>2023-07-02T11:00:16+0200</time>
      </trkpt>
      <trkpt lat="44.98713" lon="6.66571">
        <ele>1446</ele>
        <time>2023-07-02T11:00:17+0200</time>
      </trkpt>
      <trkpt lat="44.9871" lon="6.66563">
        <ele>1446</ele>
        <time>2023-07-02T11:00:18+0200</time>
      </trkpt>
      <trkpt lat="44.98704" lon="6.66561">
        <ele>1445.6</ele>
        <time>2023-07-02T11:00:19+0200</time>
      </trkpt>
      <trkpt lat="44.98698" lon="6.66559">
        <ele>1445.2</ele>
        <time>2023-07-02T11:00:20+0200</time>
      </trkpt>
      <trkpt lat="44.98693" lon="6.66558">
        <ele>1445</ele>
        <time>2023-07-02T11:00:21+0200</time>
      </trkpt>
      <trkpt lat="44.98685" lon="6.66554">
        <ele>1445.5</ele>
        <time>2023-07-02T11:00:23+0200</time>
      </trkpt>
      <trkpt lat="44.9868" lon="6.66553">
        <ele>1445.8</ele>
        <time>2023-07-02T11:00:24+0200</time>
      </trkpt>
      <trkpt lat="44.98673" lon="6.66548">
        <ele>1446.7</ele>
        <time>2023-07-02T11:00:26+0200</time>
      </trkpt>
      <trkpt lat="44.98668" lon="6.66545">
        <ele>1447.5</ele>
        <time>2023-07-02T11:00:27+0200</time>
      </trkpt>
      <trkpt lat="44.98663" lon="6.66541">
        <ele>1448.1</ele>
        <time>2023-07-02T11:00:28+0200</time>
      </trkpt>
      <trkpt lat="44.98658" lon="6.66535">
        <ele>1449.1</ele>
        <time>2023-07-02T11:00:29+0200</time>
      </trkpt>
      <trkpt lat="44.9865" lon="6.66534">
        <ele>1449.3</ele>
        <time>2023-07-02T11:00:30+0200</time>
      </trkpt>
      <trkpt lat="44.98646" lon="6.66529">
        <ele>1449.9</ele>
        <time>2023-07-02T11:00:31+0200</time>
      </trkpt>
      <trkpt lat="44.98643" lon="6.66524">
        <ele>1450.7</ele>
        <time>2023-07-02T11:00:32+0200</time>
      </trkpt>
      <trkpt lat="44.98638" lon="6.66522">
        <ele>1451</ele>
        <time>2023-07-02T11:00:33+0200</time>
      </trkpt>
      <trkpt lat="44.98631" lon="6.66524">
        <ele>1450.5</ele>
        <time>2023-07-02T11:00:34+0200</time>
      </trkpt>
      <trkpt lat="44.98626" lon="6.66524">
        <ele>1450.2</ele>
        <time>2023-07-02T11:00:35+0200</time>
      </trkpt>
      <trkpt lat="44.98619" lon="6.66521">
        <ele>1450.5</ele>
        <time>2023-07-02T11:00:36+0200</time>
      </trkpt>
      <trkpt lat="44.98615" lon="6.66517">
        <ele>1451</ele>
        <time>2023-07-02T11:00:37+0200</time>
      </trkpt>
      <trkpt lat="44.9861" lon="6.6652">
        <ele>1450.3</ele>
        <time>2023-07-02T11:00:38+0200</time>
      </trkpt>
      <trkpt lat="44.98606" lon="6.66523">
        <ele>1449.6</ele>
        <time>2023-07-02T11:00:39+0200</time>
      </trkpt>
      <trkpt lat="44.98601" lon="6.66529">
        <ele>1448.5</ele>
        <time>2023-07-02T11:00:40+0200</time>
      </trkpt>
      <trkpt lat="44.98596" lon="6.66532">
        <ele>1448.2</ele>
        <time>2023-07-02T11:00:41+0200</time>
      </trkpt>
      <trkpt lat="44.98591" lon="6.66532">
        <ele>1448</ele>
        <time>2023-07-02T11:00:42+0200</time>
      </trkpt>
      <trkpt lat="44.98587" lon="6.66536">
        <ele>1447.6</ele>
        <time>2023-07-02T11:00:43+0200</time>
      </trkpt>
      <trkpt lat="44.98581" lon="6.66538">
        <ele>1447.3</ele>
        <time>2023-07-02T11:00:44+0200</time>
      </trkpt>
      <trkpt lat="44.98576" lon="6.6654">
        <ele>1447.2</ele>
        <time>2023-07-02T11:00:45+0200</time>
      </trkpt>
      <trkpt lat="44.98571" lon="6.66533">
        <ele>1447.7</ele>
        <time>2023-07-02T11:00:46+0200</time>
      </trkpt>
      <trkpt lat="44.98565" lon="6.66535">
        <ele>1447.6</ele>
        <time>2023-07-02T11:00:47+0200</time>
      </trkpt>
      <trkpt lat="44.98559" lon="6.66541">
        <ele>1447.5</ele>
        <time>2023-07-02T11:00:48+0200</time>
      </trkpt>
      <trkpt lat="44.98554" lon="6.66547">
        <ele>1447.6</ele>
        <time>2023-07-02T11:00:49+0200</time>
      </trkpt>
      <trkpt lat="44.98547" lon="6.66549">
        <ele>1448.3</ele>
        <time>2023-07-02T11:00:50+0200</time>
      </trkpt>
      <trkpt lat="44.98541" lon="6.66554">
        <ele>1448.7</ele>
        <time>2023-07-02T11:00:51+0200</time>
      </trkpt>
      <trkpt lat="44.98533" lon="6.66559">
        <ele>1449.1</ele>
        <time>2023-07-02T11:00:52+0200</time>
      </trkpt>
      <trkpt lat="44.98528" lon="6.66564">
        <ele>1449.1</ele>
        <time>2023-07-02T11:00:53+0200</time>
      </trkpt>
      <trkpt lat="44.98523" lon="6.6657">
        <ele>1449.2</ele>
        <time>2023-07-02T11:00:54+0200</time>
      </trkpt>
      <trkpt lat="44.98519" lon="6.66578">
        <ele>1448.9</ele>
        <time>2023-07-02T11:00:55+0200</time>
      </trkpt>
      <trkpt lat="44.98515" lon="6.66584">
        <ele>1448.9</ele>
        <time>2023-07-02T11:00:56+0200</time>
      </trkpt>
      <trkpt lat="44.98508" lon="6.66587">
        <ele>1449.5</ele>
        <time>2023-07-02T11:00:57+0200</time>
      </trkpt>
      <trkpt lat="44.98503" lon="6.66594">
        <ele>1449.5</ele>
        <time>2023-07-02T11:00:58+0200</time>
      </trkpt>
      <trkpt lat="44.98497" lon="6.66596">
        <ele>1450</ele>
        <time>2023-07-02T11:00:59+0200</time>
      </trkpt>
      <trkpt lat="44.98491" lon="6.66598">
        <ele>1450.6</ele>
        <time>2023-07-02T11:01:00+0200</time>
      </trkpt>
      <trkpt lat="44.9848" lon="6.666">
        <ele>1451.7</ele>
        <time>2023-07-02T11:01:02+0200</time>
      </trkpt>
      <trkpt lat="44.98475" lon="6.66606">
        <ele>1451.5</ele>
        <time>2023-07-02T11:01:03+0200</time>
      </trkpt>
      <trkpt lat="44.98469" lon="6.66616">
        <ele>1451.2</ele>
        <time>2023-07-02T11:01:04+0200</time>
      </trkpt>
      <trkpt lat="44.98463" lon="6.66623">
        <ele>1451.5</ele>
        <time>2023-07-02T11:01:05+0200</time>
      </trkpt>
      <trkpt lat="44.98459" lon="6.66626">
        <ele>1452</ele>
        <time>2023-07-02T11:01:07+0200</time>
      </trkpt>
      <trkpt lat="44.98457" lon="6.6662">
        <ele>1453.4</ele>
        <time>2023-07-02T11:01:10+0200</time>
      </trkpt>
      <trkpt lat="44.98454" lon="6.66624">
        <ele>1453.3</ele>
        <time>2023-07-02T11:01:19+0200</time>
      </trkpt>
      <trkpt lat="44.98449" lon="6.66627">
        <ele>1453.6</ele>
        <time>2023-07-02T11:01:22+0200</time>
      </trkpt>
      <trkpt lat="44.98446" lon="6.66632">
        <ele>1453.3</ele>
        <time>2023-07-02T11:01:26+0200</time>
      </trkpt>
      <trkpt lat="44.98441" lon="6.66637">
        <ele>1453.7</ele>
        <time>2023-07-02T11:01:29+0200</time>
      </trkpt>
      <trkpt lat="44.98437" lon="6.66643">
        <ele>1454.2</ele>
        <time>2023-07-02T11:01:33+0200</time>
      </trkpt>
      <trkpt lat="44.98434" lon="6.66649">
        <ele>1454.1</ele>
        <time>2023-07-02T11:01:38+0200</time>
      </trkpt>
      <trkpt lat="44.98433" lon="6.66656">
        <ele>1453.1</ele>
        <time>2023-07-02T11:01:40+0200</time>
      </trkpt>
      <trkpt lat="44.98429" lon="6.66662">
        <ele>1452.8</ele>
        <time>2023-07-02T11:01:45+0200</time>
      </trkpt>
      <trkpt lat="44.98425" lon="6.66667">
        <ele>1452.8</ele>
        <time>2023-07-02T11:01:49+0200</time>
      </trkpt>
      <trkpt lat="44.98421" lon="6.6667">
        <ele>1453.2</ele>
        <time>2023-07-02T11:01:53+0200</time>
      </trkpt>
      <trkpt lat="44.98418" lon="6.66677">
        <ele>1452.1</ele>
        <time>2023-07-02T11:01:56+0200</time>
      </trkpt>
      <trkpt lat="44.98414" lon="6.66681">
        <ele>1452.3</ele>
        <time>2023-07-02T11:02:01+0200</time>
      </trkpt>
      <trkpt lat="44.98409" lon="6.66688">
        <ele>1452.4</ele>
        <time>2023-07-02T11:02:06+0200</time>
      </trkpt>
      <trkpt lat="44.98411" lon="6.66694">
        <ele>1450.4</ele>
        <time>2023-07-02T11:02:09+0200</time>
      </trkpt>
      <trkpt lat="44.98408" lon="6.66699">
        <ele>1450.8</ele>
        <time>2023-07-02T11:02:22+0200</time>
      </trkpt>
      <trkpt lat="44.98403" lon="6.66699">
        <ele>1452.8</ele>
        <time>2023-07-02T11:02:26+0200</time>
      </trkpt>
      <trkpt lat="44.98397" lon="6.66702">
        <ele>1454.5</ele>
        <time>2023-07-02T11:02:28+0200</time>
      </trkpt>
      <trkpt lat="44.98392" lon="6.66706">
        <ele>1455.7</ele>
        <time>2023-07-02T11:02:32+0200</time>
      </trkpt>
      <trkpt lat="44.98388" lon="6.66715">
        <ele>1455.5</ele>
        <time>2023-07-02T11:02:34+0200</time>
      </trkpt>
      <trkpt lat="44.98384" lon="6.66724">
        <ele>1455.2</ele>
        <time>2023-07-02T11:02:36+0200</time>
      </trkpt>
      <trkpt lat="44.98381" lon="6.66729">
        <ele>1455.4</ele>
        <time>2023-07-02T11:02:37+0200</time>
      </trkpt>
      <trkpt lat="44.98376" lon="6.66733">
        <ele>1455.8</ele>
        <time>2023-07-02T11:02:39+0200</time>
      </trkpt>
      <trkpt lat="44.98371" lon="6.66736">
        <ele>1456.7</ele>
        <time>2023-07-02T11:02:42+0200</time>
      </trkpt>
      <trkpt lat="44.98365" lon="6.66736">
        <ele>1458.7</ele>
        <time>2023-07-02T11:02:44+0200</time>
      </trkpt>
      <trkpt lat="44.9836" lon="6.66743">
        <ele>1458.9</ele>
        <time>2023-07-02T11:02:46+0200</time>
      </trkpt>
      <trkpt lat="44.98356" lon="6.66748">
        <ele>1459</ele>
        <time>2023-07-02T11:02:47+0200</time>
      </trkpt>
      <trkpt lat="44.98348" lon="6.66756">
        <ele>1459.2</ele>
        <time>2023-07-02T11:02:49+0200</time>
      </trkpt>
      <trkpt lat="44.98344" lon="6.66762">
        <ele>1458.5</ele>
        <time>2023-07-02T11:02:50+0200</time>
      </trkpt>
      <trkpt lat="44.98344" lon="6.6677">
        <ele>1456</ele>
        <time>2023-07-02T11:02:53+0200</time>
      </trkpt>
      <trkpt lat="44.98342" lon="6.66775">
        <ele>1454.9</ele>
        <time>2023-07-02T11:03:16+0200</time>
      </trkpt>
      <trkpt lat="44.9834" lon="6.66782">
        <ele>1453.3</ele>
        <time>2023-07-02T11:03:23+0200</time>
      </trkpt>
      <trkpt lat="44.9834" lon="6.66788">
        <ele>1451.4</ele>
        <time>2023-07-02T11:03:29+0200</time>
      </trkpt>
      <trkpt lat="44.98336" lon="6.66792">
        <ele>1450.9</ele>
        <time>2023-07-02T11:04:22+0200</time>
      </trkpt>
      <trkpt lat="44.98335" lon="6.66799">
        <ele>1448.8</ele>
        <time>2023-07-02T11:04:30+0200</time>
      </trkpt>
      <trkpt lat="44.98331" lon="6.66806">
        <ele>1446.9</ele>
        <time>2023-07-02T11:04:34+0200</time>
      </trkpt>
      <trkpt lat="44.98328" lon="6.66811">
        <ele>1445.6</ele>
        <time>2023-07-02T11:04:36+0200</time>
      </trkpt>
      <trkpt lat="44.98327" lon="6.66818">
        <ele>1444.1</ele>
        <time>2023-07-02T11:04:37+0200</time>
      </trkpt>
      <trkpt lat="44.98327" lon="6.66826">
        <ele>1442.5</ele>
        <time>2023-07-02T11:04:38+0200</time>
      </trkpt>
      <trkpt lat="44.98325" lon="6.66833">
        <ele>1441.1</ele>
        <time>2023-07-02T11:04:39+0200</time>
      </trkpt>
      <trkpt lat="44.98322" lon="6.66838">
        <ele>1440.5</ele>
        <time>2023-07-02T11:04:40+0200</time>
      </trkpt>
      <trkpt lat="44.9831" lon="6.66842">
        <ele>1440</ele>
        <time>2023-07-02T11:04:42+0200</time>
      </trkpt>
      <trkpt lat="44.98305" lon="6.66839">
        <ele>1440.3</ele>
        <time>2023-07-02T11:04:43+0200</time>
      </trkpt>
      <trkpt lat="44.98299" lon="6.66836">
        <ele>1440.3</ele>
        <time>2023-07-02T11:04:44+0200</time>
      </trkpt>
      <trkpt lat="44.98295" lon="6.66834">
        <ele>1440.2</ele>
        <time>2023-07-02T11:04:46+0200</time>
      </trkpt>
      <trkpt lat="44.98285" lon="6.66834">
        <ele>1439.5</ele>
        <time>2023-07-02T11:04:48+0200</time>
      </trkpt>
      <trkpt lat="44.98279" lon="6.66832">
        <ele>1439.3</ele>
        <time>2023-07-02T11:04:50+0200</time>
      </trkpt>
      <trkpt lat="44.98271" lon="6.66835">
        <ele>1439</ele>
        <time>2023-07-02T11:04:52+0200</time>
      </trkpt>
      <trkpt lat="44.98263" lon="6.66838">
        <ele>1438.9</ele>
        <time>2023-07-02T11:04:54+0200</time>
      </trkpt>
      <trkpt lat="44.98257" lon="6.66837">
        <ele>1439</ele>
        <time>2023-07-02T11:04:55+0200</time>
      </trkpt>
      <trkpt lat="44.98246" lon="6.66835">
        <ele>1438.9</ele>
        <time>2023-07-02T11:04:57+0200</time>
      </trkpt>
      <trkpt lat="44.98233" lon="6.66839">
        <ele>1438.5</ele>
        <time>2023-07-02T11:04:59+0200</time>
      </trkpt>
      <trkpt lat="44.98223" lon="6.66836">
        <ele>1438.1</ele>
        <time>2023-07-02T11:05:01+0200</time>
      </trkpt>
      <trkpt lat="44.98216" lon="6.66829">
        <ele>1438</ele>
        <time>2023-07-02T11:05:03+0200</time>
      </trkpt>
      <trkpt lat="44.98211" lon="6.66828">
        <ele>1437.9</ele>
        <time>2023-07-02T11:05:04+0200</time>
      </trkpt>
      <trkpt lat="44.98206" lon="6.66826">
        <ele>1437.8</ele>
        <time>2023-07-02T11:05:05+0200</time>
      </trkpt>
      <trkpt lat="44.98201" lon="6.6682">
        <ele>1437.6</ele>
        <time>2023-07-02T11:05:07+0200</time>
      </trkpt>
      <trkpt lat="44.98192" lon="6.66819">
        <ele>1437.5</ele>
        <time>2023-07-02T11:05:09+0200</time>
      </trkpt>
      <trkpt lat="44.98184" lon="6.66817">
        <ele>1437.6</ele>
        <time>2023-07-02T11:05:10+0200</time>
      </trkpt>
      <trkpt lat="44.98178" lon="6.66817">
        <ele>1437.8</ele>
        <time>2023-07-02T11:05:11+0200</time>
      </trkpt>
      <trkpt lat="44.9817" lon="6.66815">
        <ele>1437.9</ele>
        <time>2023-07-02T11:05:13+0200</time>
      </trkpt>
      <trkpt lat="44.98165" lon="6.66809">
        <ele>1438</ele>
        <time>2023-07-02T11:05:15+0200</time>
      </trkpt>
      <trkpt lat="44.9816" lon="6.66804">
        <ele>1438</ele>
        <time>2023-07-02T11:05:16+0200</time>
      </trkpt>
      <trkpt lat="44.98156" lon="6.66798">
        <ele>1437.7</ele>
        <time>2023-07-02T11:05:18+0200</time>
      </trkpt>
      <trkpt lat="44.9815" lon="6.6679">
        <ele>1437.4</ele>
        <time>2023-07-02T11:05:20+0200</time>
      </trkpt>
      <trkpt lat="44.98148" lon="6.66783">
        <ele>1437.2</ele>
        <time>2023-07-02T11:05:21+0200</time>
      </trkpt>
      <trkpt lat="44.98142" lon="6.66779">
        <ele>1437.1</ele>
        <time>2023-07-02T11:05:22+0200</time>
      </trkpt>
      <trkpt lat="44.98134" lon="6.66778">
        <ele>1437.2</ele>
        <time>2023-07-02T11:05:23+0200</time>
      </trkpt>
      <trkpt lat="44.98128" lon="6.66772">
        <ele>1437.1</ele>
        <time>2023-07-02T11:05:24+0200</time>
      </trkpt>
      <trkpt lat="44.98118" lon="6.66775">
        <ele>1437.5</ele>
        <time>2023-07-02T11:05:25+0200</time>
      </trkpt>
      <trkpt lat="44.9811" lon="6.66774">
        <ele>1437.8</ele>
        <time>2023-07-02T11:05:26+0200</time>
      </trkpt>
      <trkpt lat="44.98101" lon="6.66774">
        <ele>1437.8</ele>
        <time>2023-07-02T11:05:27+0200</time>
      </trkpt>
      <trkpt lat="44.98091" lon="6.66772">
        <ele>1437.8</ele>
        <time>2023-07-02T11:05:29+0200</time>
      </trkpt>
      <trkpt lat="44.98083" lon="6.66767">
        <ele>1437.6</ele>
        <time>2023-07-02T11:05:31+0200</time>
      </trkpt>
      <trkpt lat="44.9808" lon="6.66761">
        <ele>1437.4</ele>
        <time>2023-07-02T11:05:32+0200</time>
      </trkpt>
      <trkpt lat="44.98074" lon="6.66755">
        <ele>1437.2</ele>
        <time>2023-07-02T11:05:34+0200</time>
      </trkpt>
      <trkpt lat="44.98068" lon="6.66751">
        <ele>1437</ele>
        <time>2023-07-02T11:05:35+0200</time>
      </trkpt>
      <trkpt lat="44.98061" lon="6.66749">
        <ele>1437</ele>
        <time>2023-07-02T11:05:36+0200</time>
      </trkpt>
      <trkpt lat="44.98056" lon="6.66748">
        <ele>1436.9</ele>
        <time>2023-07-02T11:05:37+0200</time>
      </trkpt>
      <trkpt lat="44.98051" lon="6.66745">
        <ele>1436.8</ele>
        <time>2023-07-02T11:05:38+0200</time>
      </trkpt>
      <trkpt lat="44.98045" lon="6.66738">
        <ele>1436.7</ele>
        <time>2023-07-02T11:05:39+0200</time>
      </trkpt>
      <trkpt lat="44.98036" lon="6.66732">
        <ele>1436.8</ele>
        <time>2023-07-02T11:05:41+0200</time>
      </trkpt>
      <trkpt lat="44.98031" lon="6.6673">
        <ele>1436.9</ele>
        <time>2023-07-02T11:05:42+0200</time>
      </trkpt>
      <trkpt lat="44.98022" lon="6.6673">
        <ele>1437</ele>
        <time>2023-07-02T11:05:43+0200</time>
      </trkpt>
      <trkpt lat="44.98014" lon="6.66733">
        <ele>1437</ele>
        <time>2023-07-02T11:05:44+0200</time>
      </trkpt>
      <trkpt lat="44.98006" lon="6.66735">
        <ele>1437</ele>
        <time>2023-07-02T11:05:45+0200</time>
      </trkpt>
      <trkpt lat="44.97999" lon="6.66734">
        <ele>1437</ele>
        <time>2023-07-02T11:05:46+0200</time>
      </trkpt>
      <trkpt lat="44.97994" lon="6.66733">
        <ele>1436.8</ele>
        <time>2023-07-02T11:05:47+0200</time>
      </trkpt>
      <trkpt lat="44.97987" lon="6.66731">
        <ele>1436.5</ele>
        <time>2023-07-02T11:05:48+0200</time>
      </trkpt>
      <trkpt lat="44.97981" lon="6.66731">
        <ele>1436.3</ele>
        <time>2023-07-02T11:05:49+0200</time>
      </trkpt>
      <trkpt lat="44.97974" lon="6.66733">
        <ele>1436.1</ele>
        <time>2023-07-02T11:05:50+0200</time>
      </trkpt>
      <trkpt lat="44.97968" lon="6.66733">
        <ele>1436</ele>
        <time>2023-07-02T11:05:51+0200</time>
      </trkpt>
      <trkpt lat="44.97962" lon="6.66733">
        <ele>1436</ele>
        <time>2023-07-02T11:05:52+0200</time>
      </trkpt>
      <trkpt lat="44.97957" lon="6.66729">
        <ele>1436</ele>
        <time>2023-07-02T11:05:53+0200</time>
      </trkpt>
      <trkpt lat="44.97952" lon="6.66725">
        <ele>1436</ele>
        <time>2023-07-02T11:05:54+0200</time>
      </trkpt>
      <trkpt lat="44.97946" lon="6.66724">
        <ele>1436</ele>
        <time>2023-07-02T11:05:55+0200</time>
      </trkpt>
      <trkpt lat="44.9794" lon="6.66722">
        <ele>1435.8</ele>
        <time>2023-07-02T11:05:56+0200</time>
      </trkpt>
      <trkpt lat="44.97935" lon="6.66724">
        <ele>1435.7</ele>
        <time>2023-07-02T11:05:57+0200</time>
      </trkpt>
      <trkpt lat="44.9793" lon="6.66724">
        <ele>1435.5</ele>
        <time>2023-07-02T11:05:58+0200</time>
      </trkpt>
      <trkpt lat="44.97925" lon="6.66722">
        <ele>1435.3</ele>
        <time>2023-07-02T11:05:59+0200</time>
      </trkpt>
      <trkpt lat="44.97919" lon="6.6672">
        <ele>1435.1</ele>
        <time>2023-07-02T11:06:00+0200</time>
      </trkpt>
      <trkpt lat="44.97912" lon="6.66718">
        <ele>1435</ele>
        <time>2023-07-02T11:06:01+0200</time>
      </trkpt>
      <trkpt lat="44.97904" lon="6.66714">
        <ele>1435</ele>
        <time>2023-07-02T11:06:02+0200</time>
      </trkpt>
      <trkpt lat="44.97893" lon="6.66715">
        <ele>1435</ele>
        <time>2023-07-02T11:06:04+0200</time>
      </trkpt>
      <trkpt lat="44.97884" lon="6.66719">
        <ele>1435</ele>
        <time>2023-07-02T11:06:05+0200</time>
      </trkpt>
      <trkpt lat="44.97879" lon="6.66721">
        <ele>1435</ele>
        <time>2023-07-02T11:06:06+0200</time>
      </trkpt>
      <trkpt lat="44.97874" lon="6.66717">
        <ele>1435</ele>
        <time>2023-07-02T11:06:07+0200</time>
      </trkpt>
      <trkpt lat="44.97868" lon="6.66714">
        <ele>1435</ele>
        <time>2023-07-02T11:06:08+0200</time>
      </trkpt>
      <trkpt lat="44.97861" lon="6.66714">
        <ele>1435</ele>
        <time>2023-07-02T11:06:09+0200</time>
      </trkpt>
      <trkpt lat="44.97858" lon="6.6671">
        <ele>1435</ele>
        <time>2023-07-02T11:06:10+0200</time>
      </trkpt>
      <trkpt lat="44.97852" lon="6.66701">
        <ele>1435.2</ele>
        <time>2023-07-02T11:06:12+0200</time>
      </trkpt>
      <trkpt lat="44.97847" lon="6.667">
        <ele>1435.3</ele>
        <time>2023-07-02T11:06:14+0200</time>
      </trkpt>
      <trkpt lat="44.97838" lon="6.667">
        <ele>1435.5</ele>
        <time>2023-07-02T11:06:15+0200</time>
      </trkpt>
      <trkpt lat="44.9783" lon="6.66702">
        <ele>1435.5</ele>
        <time>2023-07-02T11:06:16+0200</time>
      </trkpt>
      <trkpt lat="44.97822" lon="6.66704">
        <ele>1435.6</ele>
        <time>2023-07-02T11:06:17+0200</time>
      </trkpt>
      <trkpt lat="44.97814" lon="6.66707">
        <ele>1435.4</ele>
        <time>2023-07-02T11:06:18+0200</time>
      </trkpt>
      <trkpt lat="44.97807" lon="6.66707">
        <ele>1435.6</ele>
        <time>2023-07-02T11:06:19+0200</time>
      </trkpt>
      <trkpt lat="44.97799" lon="6.66704">
        <ele>1436.3</ele>
        <time>2023-07-02T11:06:20+0200</time>
      </trkpt>
      <trkpt lat="44.97793" lon="6.66704">
        <ele>1436.5</ele>
        <time>2023-07-02T11:06:21+0200</time>
      </trkpt>
      <trkpt lat="44.97787" lon="6.66704">
        <ele>1436.6</ele>
        <time>2023-07-02T11:06:22+0200</time>
      </trkpt>
      <trkpt lat="44.97778" lon="6.66707">
        <ele>1436.3</ele>
        <time>2023-07-02T11:06:23+0200</time>
      </trkpt>
      <trkpt lat="44.97772" lon="6.66711">
        <ele>1435.6</ele>
        <time>2023-07-02T11:06:24+0200</time>
      </trkpt>
      <trkpt lat="44.97766" lon="6.66712">
        <ele>1435.5</ele>
        <time>2023-07-02T11:06:25+0200</time>
      </trkpt>
      <trkpt lat="44.9776" lon="6.66712">
        <ele>1435.7</ele>
        <time>2023-07-02T11:06:26+0200</time>
      </trkpt>
      <trkpt lat="44.97754" lon="6.66712">
        <ele>1436</ele>
        <time>2023-07-02T11:06:27+0200</time>
      </trkpt>
      <trkpt lat="44.97748" lon="6.66711">
        <ele>1436.2</ele>
        <time>2023-07-02T11:06:28+0200</time>
      </trkpt>
      <trkpt lat="44.97743" lon="6.66709">
        <ele>1436.9</ele>
        <time>2023-07-02T11:06:29+0200</time>
      </trkpt>
      <trkpt lat="44.97738" lon="6.66709">
        <ele>1437</ele>
        <time>2023-07-02T11:06:30+0200</time>
      </trkpt>
      <trkpt lat="44.97733" lon="6.66708">
        <ele>1437.3</ele>
        <time>2023-07-02T11:06:31+0200</time>
      </trkpt>
      <trkpt lat="44.97728" lon="6.66707">
        <ele>1437.9</ele>
        <time>2023-07-02T11:06:32+0200</time>
      </trkpt>
      <trkpt lat="44.97723" lon="6.66708">
        <ele>1437.5</ele>
        <time>2023-07-02T11:06:33+0200</time>
      </trkpt>
      <trkpt lat="44.97717" lon="6.6671">
        <ele>1436.8</ele>
        <time>2023-07-02T11:06:34+0200</time>
      </trkpt>
      <trkpt lat="44.97711" lon="6.6671">
        <ele>1436.6</ele>
        <time>2023-07-02T11:06:35+0200</time>
      </trkpt>
      <trkpt lat="44.97706" lon="6.66711">
        <ele>1436.3</ele>
        <time>2023-07-02T11:06:36+0200</time>
      </trkpt>
      <trkpt lat="44.977" lon="6.66711">
        <ele>1436.1</ele>
        <time>2023-07-02T11:06:37+0200</time>
      </trkpt>
      <trkpt lat="44.97694" lon="6.66711">
        <ele>1436.1</ele>
        <time>2023-07-02T11:06:38+0200</time>
      </trkpt>
      <trkpt lat="44.97689" lon="6.66712">
        <ele>1435.6</ele>
        <time>2023-07-02T11:06:39+0200</time>
      </trkpt>
      <trkpt lat="44.97685" lon="6.66711">
        <ele>1436</ele>
        <time>2023-07-02T11:06:40+0200</time>
      </trkpt>
      <trkpt lat="44.97678" lon="6.66711">
        <ele>1436</ele>
        <time>2023-07-02T11:06:41+0200</time>
      </trkpt>
      <trkpt lat="44.97673" lon="6.66712">
        <ele>1435.6</ele>
        <time>2023-07-02T11:06:42+0200</time>
      </trkpt>
      <trkpt lat="44.97668" lon="6.66712">
        <ele>1435.6</ele>
        <time>2023-07-02T11:06:43+0200</time>
      </trkpt>
      <trkpt lat="44.97663" lon="6.6671">
        <ele>1436.2</ele>
        <time>2023-07-02T11:06:44+0200</time>
      </trkpt>
      <trkpt lat="44.97656" lon="6.66711">
        <ele>1436</ele>
        <time>2023-07-02T11:06:45+0200</time>
      </trkpt>
      <trkpt lat="44.9765" lon="6.66711">
        <ele>1436.1</ele>
        <time>2023-07-02T11:06:46+0200</time>
      </trkpt>
      <trkpt lat="44.97644" lon="6.66713">
        <ele>1435.4</ele>
        <time>2023-07-02T11:06:47+0200</time>
      </trkpt>
      <trkpt lat="44.97638" lon="6.66714">
        <ele>1435</ele>
        <time>2023-07-02T11:06:48+0200</time>
      </trkpt>
      <trkpt lat="44.97631" lon="6.66717">
        <ele>1434.8</ele>
        <time>2023-07-02T11:06:49+0200</time>
      </trkpt>
      <trkpt lat="44.97624" lon="6.66718">
        <ele>1435.2</ele>
        <time>2023-07-02T11:06:50+0200</time>
      </trkpt>
      <trkpt lat="44.97618" lon="6.66721">
        <ele>1435.3</ele>
        <time>2023-07-02T11:06:51+0200</time>
      </trkpt>
      <trkpt lat="44.97612" lon="6.66723">
        <ele>1435.8</ele>
        <time>2023-07-02T11:06:52+0200</time>
      </trkpt>
      <trkpt lat="44.97606" lon="6.66726">
        <ele>1436.1</ele>
        <time>2023-07-02T11:06:53+0200</time>
      </trkpt>
      <trkpt lat="44.976" lon="6.66729">
        <ele>1436.6</ele>
        <time>2023-07-02T11:06:54+0200</time>
      </trkpt>
      <trkpt lat="44.97594" lon="6.66731">
        <ele>1437.3</ele>
        <time>2023-07-02T11:06:55+0200</time>
      </trkpt>
      <trkpt lat="44.97588" lon="6.66734">
        <ele>1437.8</ele>
        <time>2023-07-02T11:06:56+0200</time>
      </trkpt>
      <trkpt lat="44.9758" lon="6.66737">
        <ele>1438.3</ele>
        <time>2023-07-02T11:06:57+0200</time>
      </trkpt>
      <trkpt lat="44.97574" lon="6.6674">
        <ele>1438</ele>
        <time>2023-07-02T11:06:58+0200</time>
      </trkpt>
      <trkpt lat="44.97568" lon="6.66744">
        <ele>1437.7</ele>
        <time>2023-07-02T11:06:59+0200</time>
      </trkpt>
      <trkpt lat="44.97562" lon="6.66746">
        <ele>1437.6</ele>
        <time>2023-07-02T11:07:00+0200</time>
      </trkpt>
      <trkpt lat="44.97556" lon="6.6675">
        <ele>1436.9</ele>
        <time>2023-07-02T11:07:01+0200</time>
      </trkpt>
      <trkpt lat="44.97549" lon="6.66754">
        <ele>1437</ele>
        <time>2023-07-02T11:07:02+0200</time>
      </trkpt>
      <trkpt lat="44.97543" lon="6.66762">
        <ele>1435.3</ele>
        <time>2023-07-02T11:07:03+0200</time>
      </trkpt>
      <trkpt lat="44.97538" lon="6.66768">
        <ele>1434.3</ele>
        <time>2023-07-02T11:07:04+0200</time>
      </trkpt>
      <trkpt lat="44.97534" lon="6.66777">
        <ele>1432.4</ele>
        <time>2023-07-02T11:07:05+0200</time>
      </trkpt>
      <trkpt lat="44.97529" lon="6.66783">
        <ele>1431.7</ele>
        <time>2023-07-02T11:07:06+0200</time>
      </trkpt>
      <trkpt lat="44.97523" lon="6.66788">
        <ele>1431.6</ele>
        <time>2023-07-02T11:07:07+0200</time>
      </trkpt>
      <trkpt lat="44.97518" lon="6.66793">
        <ele>1431</ele>
        <time>2023-07-02T11:07:08+0200</time>
      </trkpt>
      <trkpt lat="44.97512" lon="6.668">
        <ele>1430.3</ele>
        <time>2023-07-02T11:07:09+0200</time>
      </trkpt>
      <trkpt lat="44.97506" lon="6.66803">
        <ele>1430</ele>
        <time>2023-07-02T11:07:10+0200</time>
      </trkpt>
      <trkpt lat="44.975" lon="6.66808">
        <ele>1429.5</ele>
        <time>2023-07-02T11:07:11+0200</time>
      </trkpt>
      <trkpt lat="44.97495" lon="6.66811">
        <ele>1429.4</ele>
        <time>2023-07-02T11:07:12+0200</time>
      </trkpt>
      <trkpt lat="44.97488" lon="6.66811">
        <ele>1429.7</ele>
        <time>2023-07-02T11:07:13+0200</time>
      </trkpt>
      <trkpt lat="44.97483" lon="6.66813">
        <ele>1429.5</ele>
        <time>2023-07-02T11:07:15+0200</time>
      </trkpt>
      <trkpt lat="44.97478" lon="6.66813">
        <ele>1429.9</ele>
        <time>2023-07-02T11:07:18+0200</time>
      </trkpt>
      <trkpt lat="44.97472" lon="6.66812">
        <ele>1430.3</ele>
        <time>2023-07-02T11:07:21+0200</time>
      </trkpt>
      <trkpt lat="44.97465" lon="6.66813">
        <ele>1430.1</ele>
        <time>2023-07-02T11:07:23+0200</time>
      </trkpt>
      <trkpt lat="44.97458" lon="6.66812">
        <ele>1430.2</ele>
        <time>2023-07-02T11:07:25+0200</time>
      </trkpt>
      <trkpt lat="44.97452" lon="6.66815">
        <ele>1429.4</ele>
        <time>2023-07-02T11:07:26+0200</time>
      </trkpt>
      <trkpt lat="44.97448" lon="6.66817">
        <ele>1428.8</ele>
        <time>2023-07-02T11:07:27+0200</time>
      </trkpt>
      <trkpt lat="44.97443" lon="6.66818">
        <ele>1428.4</ele>
        <time>2023-07-02T11:07:28+0200</time>
      </trkpt>
      <trkpt lat="44.97438" lon="6.66818">
        <ele>1428.4</ele>
        <time>2023-07-02T11:07:29+0200</time>
      </trkpt>
      <trkpt lat="44.97433" lon="6.66819">
        <ele>1428.4</ele>
        <time>2023-07-02T11:07:30+0200</time>
      </trkpt>
      <trkpt lat="44.97428" lon="6.66816">
        <ele>1429.3</ele>
        <time>2023-07-02T11:07:31+0200</time>
      </trkpt>
      <trkpt lat="44.97422" lon="6.66813">
        <ele>1430</ele>
        <time>2023-07-02T11:07:32+0200</time>
      </trkpt>
      <trkpt lat="44.97417" lon="6.66811">
        <ele>1430.6</ele>
        <time>2023-07-02T11:07:33+0200</time>
      </trkpt>
      <trkpt lat="44.97411" lon="6.6681">
        <ele>1431</ele>
        <time>2023-07-02T11:07:34+0200</time>
      </trkpt>
      <trkpt lat="44.97405" lon="6.66812">
        <ele>1430.9</ele>
        <time>2023-07-02T11:07:35+0200</time>
      </trkpt>
      <trkpt lat="44.97398" lon="6.66813">
        <ele>1430.8</ele>
        <time>2023-07-02T11:07:36+0200</time>
      </trkpt>
      <trkpt lat="44.97393" lon="6.66815">
        <ele>1430.5</ele>
        <time>2023-07-02T11:07:37+0200</time>
      </trkpt>
      <trkpt lat="44.97388" lon="6.66814">
        <ele>1430.9</ele>
        <time>2023-07-02T11:07:38+0200</time>
      </trkpt>
      <trkpt lat="44.97382" lon="6.66813">
        <ele>1431.3</ele>
        <time>2023-07-02T11:07:39+0200</time>
      </trkpt>
      <trkpt lat="44.97376" lon="6.66812">
        <ele>1431.6</ele>
        <time>2023-07-02T11:07:40+0200</time>
      </trkpt>
      <trkpt lat="44.97371" lon="6.66812">
        <ele>1431.6</ele>
        <time>2023-07-02T11:07:41+0200</time>
      </trkpt>
      <trkpt lat="44.97366" lon="6.66811">
        <ele>1431.8</ele>
        <time>2023-07-02T11:07:42+0200</time>
      </trkpt>
      <trkpt lat="44.97361" lon="6.66812">
        <ele>1431.6</ele>
        <time>2023-07-02T11:07:43+0200</time>
      </trkpt>
      <trkpt lat="44.97356" lon="6.66815">
        <ele>1431.7</ele>
        <time>2023-07-02T11:07:44+0200</time>
      </trkpt>
      <trkpt lat="44.9735" lon="6.66818">
        <ele>1431.7</ele>
        <time>2023-07-02T11:07:45+0200</time>
      </trkpt>
      <trkpt lat="44.97343" lon="6.66824">
        <ele>1431.2</ele>
        <time>2023-07-02T11:07:46+0200</time>
      </trkpt>
      <trkpt lat="44.97337" lon="6.66831">
        <ele>1430.1</ele>
        <time>2023-07-02T11:07:47+0200</time>
      </trkpt>
      <trkpt lat="44.9733" lon="6.66837">
        <ele>1429.6</ele>
        <time>2023-07-02T11:07:48+0200</time>
      </trkpt>
      <trkpt lat="44.97326" lon="6.6684">
        <ele>1429.1</ele>
        <time>2023-07-02T11:07:49+0200</time>
      </trkpt>
      <trkpt lat="44.97322" lon="6.66843">
        <ele>1429.1</ele>
        <time>2023-07-02T11:07:50+0200</time>
      </trkpt>
      <trkpt lat="44.97317" lon="6.66846">
        <ele>1428.7</ele>
        <time>2023-07-02T11:07:51+0200</time>
      </trkpt>
      <trkpt lat="44.97312" lon="6.66848">
        <ele>1428.7</ele>
        <time>2023-07-02T11:07:52+0200</time>
      </trkpt>
      <trkpt lat="44.97307" lon="6.66851">
        <ele>1428.2</ele>
        <time>2023-07-02T11:07:53+0200</time>
      </trkpt>
      <trkpt lat="44.97301" lon="6.66855">
        <ele>1427.3</ele>
        <time>2023-07-02T11:07:54+0200</time>
      </trkpt>
      <trkpt lat="44.97297" lon="6.66858">
        <ele>1426.5</ele>
        <time>2023-07-02T11:07:55+0200</time>
      </trkpt>
      <trkpt lat="44.97291" lon="6.6686">
        <ele>1426.5</ele>
        <time>2023-07-02T11:07:56+0200</time>
      </trkpt>
      <trkpt lat="44.97286" lon="6.6686">
        <ele>1426.9</ele>
        <time>2023-07-02T11:07:57+0200</time>
      </trkpt>
      <trkpt lat="44.9728" lon="6.66856">
        <ele>1428.3</ele>
        <time>2023-07-02T11:07:58+0200</time>
      </trkpt>
      <trkpt lat="44.97274" lon="6.66855">
        <ele>1428.7</ele>
        <time>2023-07-02T11:07:59+0200</time>
      </trkpt>
      <trkpt lat="44.97268" lon="6.66853">
        <ele>1429.1</ele>
        <time>2023-07-02T11:08:00+0200</time>
      </trkpt>
      <trkpt lat="44.9726" lon="6.66853">
        <ele>1428.9</ele>
        <time>2023-07-02T11:08:01+0200</time>
      </trkpt>
      <trkpt lat="44.97255" lon="6.66855">
        <ele>1428.5</ele>
        <time>2023-07-02T11:08:02+0200</time>
      </trkpt>
      <trkpt lat="44.97247" lon="6.66851">
        <ele>1429.1</ele>
        <time>2023-07-02T11:08:04+0200</time>
      </trkpt>
      <trkpt lat="44.9724" lon="6.66845">
        <ele>1430.2</ele>
        <time>2023-07-02T11:08:06+0200</time>
      </trkpt>
      <trkpt lat="44.97233" lon="6.66844">
        <ele>1430.4</ele>
        <time>2023-07-02T11:08:08+0200</time>
      </trkpt>
      <trkpt lat="44.97226" lon="6.66846">
        <ele>1429.8</ele>
        <time>2023-07-02T11:08:10+0200</time>
      </trkpt>
      <trkpt lat="44.97222" lon="6.66843">
        <ele>1430.2</ele>
        <time>2023-07-02T11:08:11+0200</time>
      </trkpt>
      <trkpt lat="44.97217" lon="6.66838">
        <ele>1430.6</ele>
        <time>2023-07-02T11:08:12+0200</time>
      </trkpt>
      <trkpt lat="44.97214" lon="6.66833">
        <ele>1431.2</ele>
        <time>2023-07-02T11:08:14+0200</time>
      </trkpt>
      <trkpt lat="44.97208" lon="6.66828">
        <ele>1431.5</ele>
        <time>2023-07-02T11:08:16+0200</time>
      </trkpt>
      <trkpt lat="44.97204" lon="6.66823">
        <ele>1431.9</ele>
        <time>2023-07-02T11:08:17+0200</time>
      </trkpt>
      <trkpt lat="44.972" lon="6.66819">
        <ele>1432.4</ele>
        <time>2023-07-02T11:08:18+0200</time>
      </trkpt>
      <trkpt lat="44.97197" lon="6.66814">
        <ele>1432.8</ele>
        <time>2023-07-02T11:08:19+0200</time>
      </trkpt>
      <trkpt lat="44.97193" lon="6.66809">
        <ele>1433.3</ele>
        <time>2023-07-02T11:08:20+0200</time>
      </trkpt>
      <trkpt lat="44.97185" lon="6.66804">
        <ele>1433.5</ele>
        <time>2023-07-02T11:08:22+0200</time>
      </trkpt>
      <trkpt lat="44.9718" lon="6.66802">
        <ele>1433.5</ele>
        <time>2023-07-02T11:08:23+0200</time>
      </trkpt>
      <trkpt lat="44.97173" lon="6.668">
        <ele>1433.2</ele>
        <time>2023-07-02T11:08:24+0200</time>
      </trkpt>
      <trkpt lat="44.97164" lon="6.66795">
        <ele>1433.4</ele>
        <time>2023-07-02T11:08:26+0200</time>
      </trkpt>
      <trkpt lat="44.97157" lon="6.66795">
        <ele>1432.8</ele>
        <time>2023-07-02T11:08:27+0200</time>
      </trkpt>
      <trkpt lat="44.97149" lon="6.66797">
        <ele>1431.4</ele>
        <time>2023-07-02T11:08:28+0200</time>
      </trkpt>
      <trkpt lat="44.97142" lon="6.66796">
        <ele>1430.9</ele>
        <time>2023-07-02T11:08:29+0200</time>
      </trkpt>
      <trkpt lat="44.97135" lon="6.66796">
        <ele>1430.9</ele>
        <time>2023-07-02T11:08:30+0200</time>
      </trkpt>
      <trkpt lat="44.97128" lon="6.66794">
        <ele>1431.7</ele>
        <time>2023-07-02T11:08:31+0200</time>
      </trkpt>
      <trkpt lat="44.97121" lon="6.66793">
        <ele>1432.3</ele>
        <time>2023-07-02T11:08:32+0200</time>
      </trkpt>
      <trkpt lat="44.97113" lon="6.66793">
        <ele>1432.5</ele>
        <time>2023-07-02T11:08:33+0200</time>
      </trkpt>
      <trkpt lat="44.97104" lon="6.66796">
        <ele>1432</ele>
        <time>2023-07-02T11:08:34+0200</time>
      </trkpt>
      <trkpt lat="44.97095" lon="6.66799">
        <ele>1431.2</ele>
        <time>2023-07-02T11:08:35+0200</time>
      </trkpt>
      <trkpt lat="44.97085" lon="6.66803">
        <ele>1429.8</ele>
        <time>2023-07-02T11:08:36+0200</time>
      </trkpt>
      <trkpt lat="44.97077" lon="6.66805">
        <ele>1429.6</ele>
        <time>2023-07-02T11:08:37+0200</time>
      </trkpt>
      <trkpt lat="44.9707" lon="6.66803">
        <ele>1431.1</ele>
        <time>2023-07-02T11:08:38+0200</time>
      </trkpt>
      <trkpt lat="44.97063" lon="6.66803">
        <ele>1431.6</ele>
        <time>2023-07-02T11:08:39+0200</time>
      </trkpt>
      <trkpt lat="44.97056" lon="6.66807">
        <ele>1430.7</ele>
        <time>2023-07-02T11:08:40+0200</time>
      </trkpt>
      <trkpt lat="44.97048" lon="6.66811">
        <ele>1430.7</ele>
        <time>2023-07-02T11:08:41+0200</time>
      </trkpt>
      <trkpt lat="44.97043" lon="6.66818">
        <ele>1429.2</ele>
        <time>2023-07-02T11:08:42+0200</time>
      </trkpt>
      <trkpt lat="44.97036" lon="6.66824">
        <ele>1428.2</ele>
        <time>2023-07-02T11:08:43+0200</time>
      </trkpt>
      <trkpt lat="44.97031" lon="6.66828">
        <ele>1427.5</ele>
        <time>2023-07-02T11:08:44+0200</time>
      </trkpt>
      <trkpt lat="44.97025" lon="6.6683">
        <ele>1427.6</ele>
        <time>2023-07-02T11:08:45+0200</time>
      </trkpt>
      <trkpt lat="44.97014" lon="6.66828">
        <ele>1429.8</ele>
        <time>2023-07-02T11:08:47+0200</time>
      </trkpt>
      <trkpt lat="44.97006" lon="6.66827">
        <ele>1431.4</ele>
        <time>2023-07-02T11:08:48+0200</time>
      </trkpt>
      <trkpt lat="44.96997" lon="6.66825">
        <ele>1433.2</ele>
        <time>2023-07-02T11:08:49+0200</time>
      </trkpt>
      <trkpt lat="44.96991" lon="6.66825">
        <ele>1434</ele>
        <time>2023-07-02T11:08:50+0200</time>
      </trkpt>
      <trkpt lat="44.96984" lon="6.6683">
        <ele>1432.7</ele>
        <time>2023-07-02T11:08:51+0200</time>
      </trkpt>
      <trkpt lat="44.96979" lon="6.66831">
        <ele>1432.8</ele>
        <time>2023-07-02T11:08:52+0200</time>
      </trkpt>
      <trkpt lat="44.9697" lon="6.66837">
        <ele>1431.1</ele>
        <time>2023-07-02T11:08:53+0200</time>
      </trkpt>
      <trkpt lat="44.96962" lon="6.66843">
        <ele>1430</ele>
        <time>2023-07-02T11:08:54+0200</time>
      </trkpt>
      <trkpt lat="44.96955" lon="6.66846">
        <ele>1429.9</ele>
        <time>2023-07-02T11:08:55+0200</time>
      </trkpt>
      <trkpt lat="44.96949" lon="6.66849">
        <ele>1429.7</ele>
        <time>2023-07-02T11:08:56+0200</time>
      </trkpt>
      <trkpt lat="44.96944" lon="6.66851">
        <ele>1429.4</ele>
        <time>2023-07-02T11:08:57+0200</time>
      </trkpt>
      <trkpt lat="44.96936" lon="6.6685">
        <ele>1430.9</ele>
        <time>2023-07-02T11:08:58+0200</time>
      </trkpt>
      <trkpt lat="44.96926" lon="6.66853">
        <ele>1431.8</ele>
        <time>2023-07-02T11:08:59+0200</time>
      </trkpt>
      <trkpt lat="44.96918" lon="6.66856">
        <ele>1431.7</ele>
        <time>2023-07-02T11:09:00+0200</time>
      </trkpt>
      <trkpt lat="44.96911" lon="6.66856">
        <ele>1433.3</ele>
        <time>2023-07-02T11:09:01+0200</time>
      </trkpt>
      <trkpt lat="44.96904" lon="6.66858">
        <ele>1433.5</ele>
        <time>2023-07-02T11:09:02+0200</time>
      </trkpt>
      <trkpt lat="44.96897" lon="6.66858">
        <ele>1434.9</ele>
        <time>2023-07-02T11:09:03+0200</time>
      </trkpt>
      <trkpt lat="44.96893" lon="6.66864">
        <ele>1433.2</ele>
        <time>2023-07-02T11:09:04+0200</time>
      </trkpt>
      <trkpt lat="44.96887" lon="6.66869">
        <ele>1432.7</ele>
        <time>2023-07-02T11:09:05+0200</time>
      </trkpt>
      <trkpt lat="44.96881" lon="6.66873">
        <ele>1432</ele>
        <time>2023-07-02T11:09:06+0200</time>
      </trkpt>
      <trkpt lat="44.96876" lon="6.66877">
        <ele>1431.2</ele>
        <time>2023-07-02T11:09:07+0200</time>
      </trkpt>
      <trkpt lat="44.96869" lon="6.66879">
        <ele>1431.5</ele>
        <time>2023-07-02T11:09:08+0200</time>
      </trkpt>
      <trkpt lat="44.96864" lon="6.66882">
        <ele>1430.9</ele>
        <time>2023-07-02T11:09:09+0200</time>
      </trkpt>
      <trkpt lat="44.96858" lon="6.66884">
        <ele>1430.7</ele>
        <time>2023-07-02T11:09:10+0200</time>
      </trkpt>
      <trkpt lat="44.96851" lon="6.66886">
        <ele>1431.6</ele>
        <time>2023-07-02T11:09:11+0200</time>
      </trkpt>
      <trkpt lat="44.96844" lon="6.66887">
        <ele>1432</ele>
        <time>2023-07-02T11:09:12+0200</time>
      </trkpt>
      <trkpt lat="44.96838" lon="6.66889">
        <ele>1432.2</ele>
        <time>2023-07-02T11:09:13+0200</time>
      </trkpt>
      <trkpt lat="44.96832" lon="6.66888">
        <ele>1434</ele>
        <time>2023-07-02T11:09:14+0200</time>
      </trkpt>
      <trkpt lat="44.96827" lon="6.6689">
        <ele>1433.8</ele>
        <time>2023-07-02T11:09:15+0200</time>
      </trkpt>
      <trkpt lat="44.96822" lon="6.66895">
        <ele>1432.3</ele>
        <time>2023-07-02T11:09:16+0200</time>
      </trkpt>
      <trkpt lat="44.96816" lon="6.66897">
        <ele>1432</ele>
        <time>2023-07-02T11:09:17+0200</time>
      </trkpt>
      <trkpt lat="44.9681" lon="6.669">
        <ele>1431.6</ele>
        <time>2023-07-02T11:09:18+0200</time>
      </trkpt>
      <trkpt lat="44.96799" lon="6.66899">
        <ele>1433.5</ele>
        <time>2023-07-02T11:09:20+0200</time>
      </trkpt>
      <trkpt lat="44.96794" lon="6.66898">
        <ele>1434.7</ele>
        <time>2023-07-02T11:09:21+0200</time>
      </trkpt>
      <trkpt lat="44.96789" lon="6.66897">
        <ele>1436</ele>
        <time>2023-07-02T11:09:22+0200</time>
      </trkpt>
      <trkpt lat="44.96784" lon="6.66899">
        <ele>1435.9</ele>
        <time>2023-07-02T11:09:23+0200</time>
      </trkpt>
      <trkpt lat="44.96779" lon="6.66901">
        <ele>1435.8</ele>
        <time>2023-07-02T11:09:24+0200</time>
      </trkpt>
      <trkpt lat="44.96774" lon="6.66903">
        <ele>1435.4</ele>
        <time>2023-07-02T11:09:25+0200</time>
      </trkpt>
      <trkpt lat="44.96769" lon="6.66905">
        <ele>1434.6</ele>
        <time>2023-07-02T11:09:26+0200</time>
      </trkpt>
      <trkpt lat="44.96764" lon="6.66908">
        <ele>1433.9</ele>
        <time>2023-07-02T11:09:27+0200</time>
      </trkpt>
      <trkpt lat="44.9676" lon="6.66913">
        <ele>1431.9</ele>
        <time>2023-07-02T11:09:28+0200</time>
      </trkpt>
      <trkpt lat="44.96754" lon="6.66919">
        <ele>1429.8</ele>
        <time>2023-07-02T11:09:29+0200</time>
      </trkpt>
      <trkpt lat="44.96751" lon="6.66929">
        <ele>1427.5</ele>
        <time>2023-07-02T11:09:30+0200</time>
      </trkpt>
      <trkpt lat="44.96746" lon="6.66938">
        <ele>1425.1</ele>
        <time>2023-07-02T11:09:31+0200</time>
      </trkpt>
      <trkpt lat="44.96747" lon="6.6695">
        <ele>1422.4</ele>
        <time>2023-07-02T11:09:32+0200</time>
      </trkpt>
      <trkpt lat="44.96743" lon="6.66953">
        <ele>1422.4</ele>
        <time>2023-07-02T11:09:33+0200</time>
      </trkpt>
      <trkpt lat="44.96737" lon="6.66957">
        <ele>1422.1</ele>
        <time>2023-07-02T11:09:34+0200</time>
      </trkpt>
      <trkpt lat="44.96731" lon="6.66964">
        <ele>1421.5</ele>
        <time>2023-07-02T11:09:36+0200</time>
      </trkpt>
      <trkpt lat="44.96725" lon="6.66972">
        <ele>1420.8</ele>
        <time>2023-07-02T11:09:38+0200</time>
      </trkpt>
      <trkpt lat="44.96721" lon="6.66976">
        <ele>1420.7</ele>
        <time>2023-07-02T11:09:39+0200</time>
      </trkpt>
      <trkpt lat="44.96716" lon="6.6698">
        <ele>1420.4</ele>
        <time>2023-07-02T11:09:40+0200</time>
      </trkpt>
      <trkpt lat="44.96712" lon="6.66988">
        <ele>1419.9</ele>
        <time>2023-07-02T11:09:41+0200</time>
      </trkpt>
      <trkpt lat="44.96705" lon="6.66998">
        <ele>1419.4</ele>
        <time>2023-07-02T11:09:43+0200</time>
      </trkpt>
      <trkpt lat="44.96699" lon="6.67006">
        <ele>1419.3</ele>
        <time>2023-07-02T11:09:45+0200</time>
      </trkpt>
      <trkpt lat="44.96696" lon="6.67014">
        <ele>1418.9</ele>
        <time>2023-07-02T11:09:46+0200</time>
      </trkpt>
      <trkpt lat="44.96694" lon="6.67025">
        <ele>1418.2</ele>
        <time>2023-07-02T11:09:47+0200</time>
      </trkpt>
      <trkpt lat="44.96693" lon="6.67034">
        <ele>1417.5</ele>
        <time>2023-07-02T11:09:48+0200</time>
      </trkpt>
      <trkpt lat="44.96689" lon="6.67042">
        <ele>1417</ele>
        <time>2023-07-02T11:09:49+0200</time>
      </trkpt>
      <trkpt lat="44.96685" lon="6.67048">
        <ele>1416.6</ele>
        <time>2023-07-02T11:09:50+0200</time>
      </trkpt>
      <trkpt lat="44.96683" lon="6.67056">
        <ele>1416</ele>
        <time>2023-07-02T11:09:51+0200</time>
      </trkpt>
      <trkpt lat="44.96678" lon="6.67063">
        <ele>1415.7</ele>
        <time>2023-07-02T11:09:52+0200</time>
      </trkpt>
      <trkpt lat="44.96674" lon="6.6707">
        <ele>1415.5</ele>
        <time>2023-07-02T11:09:53+0200</time>
      </trkpt>
      <trkpt lat="44.96669" lon="6.67076">
        <ele>1415.3</ele>
        <time>2023-07-02T11:09:54+0200</time>
      </trkpt>
      <trkpt lat="44.96664" lon="6.67081">
        <ele>1415.1</ele>
        <time>2023-07-02T11:09:55+0200</time>
      </trkpt>
      <trkpt lat="44.96658" lon="6.67086">
        <ele>1414.9</ele>
        <time>2023-07-02T11:09:56+0200</time>
      </trkpt>
      <trkpt lat="44.96652" lon="6.6709">
        <ele>1414.8</ele>
        <time>2023-07-02T11:09:57+0200</time>
      </trkpt>
      <trkpt lat="44.96644" lon="6.67097">
        <ele>1414.5</ele>
        <time>2023-07-02T11:09:58+0200</time>
      </trkpt>
      <trkpt lat="44.96639" lon="6.67102">
        <ele>1414.3</ele>
        <time>2023-07-02T11:09:59+0200</time>
      </trkpt>
      <trkpt lat="44.96632" lon="6.67107">
        <ele>1414.1</ele>
        <time>2023-07-02T11:10:00+0200</time>
      </trkpt>
      <trkpt lat="44.96625" lon="6.6711">
        <ele>1414.1</ele>
        <time>2023-07-02T11:10:01+0200</time>
      </trkpt>
      <trkpt lat="44.9662" lon="6.67114">
        <ele>1413.9</ele>
        <time>2023-07-02T11:10:02+0200</time>
      </trkpt>
      <trkpt lat="44.96614" lon="6.67119">
        <ele>1413.7</ele>
        <time>2023-07-02T11:10:03+0200</time>
      </trkpt>
      <trkpt lat="44.96607" lon="6.67125">
        <ele>1413.5</ele>
        <time>2023-07-02T11:10:04+0200</time>
      </trkpt>
      <trkpt lat="44.96602" lon="6.67132">
        <ele>1413.3</ele>
        <time>2023-07-02T11:10:05+0200</time>
      </trkpt>
      <trkpt lat="44.96597" lon="6.67135">
        <ele>1413.1</ele>
        <time>2023-07-02T11:10:06+0200</time>
      </trkpt>
      <trkpt lat="44.96591" lon="6.67141">
        <ele>1412.9</ele>
        <time>2023-07-02T11:10:07+0200</time>
      </trkpt>
      <trkpt lat="44.96586" lon="6.67147">
        <ele>1412.7</ele>
        <time>2023-07-02T11:10:08+0200</time>
      </trkpt>
      <trkpt lat="44.96581" lon="6.67152">
        <ele>1412.5</ele>
        <time>2023-07-02T11:10:09+0200</time>
      </trkpt>
      <trkpt lat="44.96576" lon="6.67157">
        <ele>1412.2</ele>
        <time>2023-07-02T11:10:10+0200</time>
      </trkpt>
      <trkpt lat="44.96571" lon="6.67163">
        <ele>1411.8</ele>
        <time>2023-07-02T11:10:11+0200</time>
      </trkpt>
      <trkpt lat="44.96565" lon="6.67166">
        <ele>1411.4</ele>
        <time>2023-07-02T11:10:12+0200</time>
      </trkpt>
      <trkpt lat="44.96561" lon="6.6717">
        <ele>1411.1</ele>
        <time>2023-07-02T11:10:13+0200</time>
      </trkpt>
      <trkpt lat="44.96554" lon="6.67175">
        <ele>1410.7</ele>
        <time>2023-07-02T11:10:14+0200</time>
      </trkpt>
      <trkpt lat="44.96547" lon="6.6718">
        <ele>1410.5</ele>
        <time>2023-07-02T11:10:15+0200</time>
      </trkpt>
      <trkpt lat="44.96541" lon="6.67181">
        <ele>1410.5</ele>
        <time>2023-07-02T11:10:16+0200</time>
      </trkpt>
      <trkpt lat="44.96534" lon="6.67185">
        <ele>1410.3</ele>
        <time>2023-07-02T11:10:17+0200</time>
      </trkpt>
      <trkpt lat="44.96529" lon="6.67189">
        <ele>1410.2</ele>
        <time>2023-07-02T11:10:18+0200</time>
      </trkpt>
      <trkpt lat="44.96523" lon="6.67193">
        <ele>1410.1</ele>
        <time>2023-07-02T11:10:19+0200</time>
      </trkpt>
      <trkpt lat="44.96516" lon="6.67196">
        <ele>1409.9</ele>
        <time>2023-07-02T11:10:20+0200</time>
      </trkpt>
      <trkpt lat="44.96509" lon="6.67199">
        <ele>1409.8</ele>
        <time>2023-07-02T11:10:21+0200</time>
      </trkpt>
      <trkpt lat="44.96503" lon="6.67203">
        <ele>1409.7</ele>
        <time>2023-07-02T11:10:22+0200</time>
      </trkpt>
      <trkpt lat="44.96497" lon="6.6721">
        <ele>1409.4</ele>
        <time>2023-07-02T11:10:23+0200</time>
      </trkpt>
      <trkpt lat="44.96491" lon="6.67214">
        <ele>1409.2</ele>
        <time>2023-07-02T11:10:24+0200</time>
      </trkpt>
      <trkpt lat="44.96484" lon="6.67219">
        <ele>1409.1</ele>
        <time>2023-07-02T11:10:25+0200</time>
      </trkpt>
      <trkpt lat="44.96477" lon="6.67223">
        <ele>1409</ele>
        <time>2023-07-02T11:10:26+0200</time>
      </trkpt>
      <trkpt lat="44.96471" lon="6.67227">
        <ele>1408.8</ele>
        <time>2023-07-02T11:10:27+0200</time>
      </trkpt>
      <trkpt lat="44.96465" lon="6.6723">
        <ele>1408.5</ele>
        <time>2023-07-02T11:10:28+0200</time>
      </trkpt>
      <trkpt lat="44.96459" lon="6.67231">
        <ele>1408.4</ele>
        <time>2023-07-02T11:10:29+0200</time>
      </trkpt>
      <trkpt lat="44.96451" lon="6.67233">
        <ele>1408.1</ele>
        <time>2023-07-02T11:10:30+0200</time>
      </trkpt>
      <trkpt lat="44.96445" lon="6.67234">
        <ele>1408</ele>
        <time>2023-07-02T11:10:31+0200</time>
      </trkpt>
      <trkpt lat="44.96438" lon="6.67234">
        <ele>1407.9</ele>
        <time>2023-07-02T11:10:32+0200</time>
      </trkpt>
      <trkpt lat="44.96432" lon="6.67235">
        <ele>1407.8</ele>
        <time>2023-07-02T11:10:33+0200</time>
      </trkpt>
      <trkpt lat="44.96425" lon="6.67239">
        <ele>1407.6</ele>
        <time>2023-07-02T11:10:34+0200</time>
      </trkpt>
      <trkpt lat="44.96419" lon="6.67241">
        <ele>1407.4</ele>
        <time>2023-07-02T11:10:35+0200</time>
      </trkpt>
      <trkpt lat="44.96411" lon="6.67242">
        <ele>1407.2</ele>
        <time>2023-07-02T11:10:36+0200</time>
      </trkpt>
      <trkpt lat="44.96405" lon="6.67247">
        <ele>1407.1</ele>
        <time>2023-07-02T11:10:37+0200</time>
      </trkpt>
      <trkpt lat="44.96398" lon="6.67249">
        <ele>1407</ele>
        <time>2023-07-02T11:10:38+0200</time>
      </trkpt>
      <trkpt lat="44.96391" lon="6.67253">
        <ele>1406.9</ele>
        <time>2023-07-02T11:10:39+0200</time>
      </trkpt>
      <trkpt lat="44.96385" lon="6.67258">
        <ele>1406.6</ele>
        <time>2023-07-02T11:10:40+0200</time>
      </trkpt>
      <trkpt lat="44.96379" lon="6.67264">
        <ele>1406.3</ele>
        <time>2023-07-02T11:10:41+0200</time>
      </trkpt>
      <trkpt lat="44.96375" lon="6.67269">
        <ele>1406.2</ele>
        <time>2023-07-02T11:10:42+0200</time>
      </trkpt>
      <trkpt lat="44.9637" lon="6.67277">
        <ele>1406</ele>
        <time>2023-07-02T11:10:43+0200</time>
      </trkpt>
      <trkpt lat="44.96366" lon="6.67283">
        <ele>1406</ele>
        <time>2023-07-02T11:10:44+0200</time>
      </trkpt>
      <trkpt lat="44.96361" lon="6.6729">
        <ele>1406</ele>
        <time>2023-07-02T11:10:45+0200</time>
      </trkpt>
      <trkpt lat="44.96357" lon="6.67298">
        <ele>1406</ele>
        <time>2023-07-02T11:10:46+0200</time>
      </trkpt>
      <trkpt lat="44.96353" lon="6.67305">
        <ele>1406</ele>
        <time>2023-07-02T11:10:47+0200</time>
      </trkpt>
      <trkpt lat="44.96347" lon="6.67311">
        <ele>1405.9</ele>
        <time>2023-07-02T11:10:48+0200</time>
      </trkpt>
      <trkpt lat="44.96342" lon="6.67317">
        <ele>1405.7</ele>
        <time>2023-07-02T11:10:49+0200</time>
      </trkpt>
      <trkpt lat="44.96337" lon="6.67323">
        <ele>1405.4</ele>
        <time>2023-07-02T11:10:50+0200</time>
      </trkpt>
      <trkpt lat="44.96332" lon="6.67328">
        <ele>1405.2</ele>
        <time>2023-07-02T11:10:51+0200</time>
      </trkpt>
      <trkpt lat="44.96326" lon="6.67334">
        <ele>1405</ele>
        <time>2023-07-02T11:10:52+0200</time>
      </trkpt>
      <trkpt lat="44.96322" lon="6.67341">
        <ele>1405</ele>
        <time>2023-07-02T11:10:53+0200</time>
      </trkpt>
      <trkpt lat="44.96317" lon="6.67346">
        <ele>1405</ele>
        <time>2023-07-02T11:10:54+0200</time>
      </trkpt>
      <trkpt lat="44.96311" lon="6.67351">
        <ele>1405</ele>
        <time>2023-07-02T11:10:55+0200</time>
      </trkpt>
      <trkpt lat="44.96305" lon="6.67355">
        <ele>1405</ele>
        <time>2023-07-02T11:10:56+0200</time>
      </trkpt>
      <trkpt lat="44.96299" lon="6.67359">
        <ele>1405</ele>
        <time>2023-07-02T11:10:57+0200</time>
      </trkpt>
      <trkpt lat="44.96293" lon="6.67362">
        <ele>1405</ele>
        <time>2023-07-02T11:10:58+0200</time>
      </trkpt>
      <trkpt lat="44.96286" lon="6.67365">
        <ele>1405</ele>
        <time>2023-07-02T11:10:59+0200</time>
      </trkpt>
      <trkpt lat="44.9628" lon="6.67367">
        <ele>1405</ele>
        <time>2023-07-02T11:11:00+0200</time>
      </trkpt>
      <trkpt lat="44.96274" lon="6.67369">
        <ele>1404.9</ele>
        <time>2023-07-02T11:11:01+0200</time>
      </trkpt>
      <trkpt lat="44.96268" lon="6.67371">
        <ele>1404.6</ele>
        <time>2023-07-02T11:11:02+0200</time>
      </trkpt>
      <trkpt lat="44.96261" lon="6.6737">
        <ele>1404.4</ele>
        <time>2023-07-02T11:11:03+0200</time>
      </trkpt>
      <trkpt lat="44.96255" lon="6.6737">
        <ele>1404.2</ele>
        <time>2023-07-02T11:11:04+0200</time>
      </trkpt>
      <trkpt lat="44.96249" lon="6.67368">
        <ele>1404</ele>
        <time>2023-07-02T11:11:05+0200</time>
      </trkpt>
      <trkpt lat="44.96243" lon="6.67371">
        <ele>1404.3</ele>
        <time>2023-07-02T11:11:06+0200</time>
      </trkpt>
      <trkpt lat="44.96237" lon="6.67375">
        <ele>1404.5</ele>
        <time>2023-07-02T11:11:07+0200</time>
      </trkpt>
      <trkpt lat="44.96231" lon="6.67377">
        <ele>1404.7</ele>
        <time>2023-07-02T11:11:08+0200</time>
      </trkpt>
      <trkpt lat="44.96226" lon="6.67379">
        <ele>1404.9</ele>
        <time>2023-07-02T11:11:09+0200</time>
      </trkpt>
      <trkpt lat="44.96221" lon="6.67382">
        <ele>1405.1</ele>
        <time>2023-07-02T11:11:10+0200</time>
      </trkpt>
      <trkpt lat="44.96216" lon="6.67389">
        <ele>1405.5</ele>
        <time>2023-07-02T11:11:11+0200</time>
      </trkpt>
      <trkpt lat="44.96211" lon="6.67394">
        <ele>1405.7</ele>
        <time>2023-07-02T11:11:12+0200</time>
      </trkpt>
      <trkpt lat="44.96206" lon="6.67401">
        <ele>1405.9</ele>
        <time>2023-07-02T11:11:13+0200</time>
      </trkpt>
      <trkpt lat="44.96201" lon="6.67407">
        <ele>1406</ele>
        <time>2023-07-02T11:11:14+0200</time>
      </trkpt>
      <trkpt lat="44.96197" lon="6.67413">
        <ele>1406</ele>
        <time>2023-07-02T11:11:15+0200</time>
      </trkpt>
      <trkpt lat="44.96191" lon="6.67417">
        <ele>1406.3</ele>
        <time>2023-07-02T11:11:16+0200</time>
      </trkpt>
      <trkpt lat="44.96186" lon="6.67421">
        <ele>1406.6</ele>
        <time>2023-07-02T11:11:17+0200</time>
      </trkpt>
      <trkpt lat="44.96182" lon="6.67425">
        <ele>1406.6</ele>
        <time>2023-07-02T11:11:18+0200</time>
      </trkpt>
      <trkpt lat="44.96177" lon="6.6743">
        <ele>1406.7</ele>
        <time>2023-07-02T11:11:19+0200</time>
      </trkpt>
      <trkpt lat="44.96172" lon="6.67434">
        <ele>1406.6</ele>
        <time>2023-07-02T11:11:20+0200</time>
      </trkpt>
      <trkpt lat="44.96164" lon="6.67438">
        <ele>1406.9</ele>
        <time>2023-07-02T11:11:22+0200</time>
      </trkpt>
      <trkpt lat="44.96157" lon="6.67436">
        <ele>1407.6</ele>
        <time>2023-07-02T11:11:24+0200</time>
      </trkpt>
      <trkpt lat="44.96152" lon="6.67432">
        <ele>1408.4</ele>
        <time>2023-07-02T11:11:26+0200</time>
      </trkpt>
      <trkpt lat="44.96146" lon="6.67429">
        <ele>1409.2</ele>
        <time>2023-07-02T11:11:28+0200</time>
      </trkpt>
      <trkpt lat="44.96141" lon="6.67425">
        <ele>1410</ele>
        <time>2023-07-02T11:11:30+0200</time>
      </trkpt>
      <trkpt lat="44.96135" lon="6.67423">
        <ele>1410.8</ele>
        <time>2023-07-02T11:11:32+0200</time>
      </trkpt>
      <trkpt lat="44.96129" lon="6.67422">
        <ele>1411.5</ele>
        <time>2023-07-02T11:11:34+0200</time>
      </trkpt>
      <trkpt lat="44.96123" lon="6.67422">
        <ele>1412.2</ele>
        <time>2023-07-02T11:11:36+0200</time>
      </trkpt>
      <trkpt lat="44.96117" lon="6.67424">
        <ele>1412.8</ele>
        <time>2023-07-02T11:11:38+0200</time>
      </trkpt>
      <trkpt lat="44.9611" lon="6.67426">
        <ele>1413.4</ele>
        <time>2023-07-02T11:11:41+0200</time>
      </trkpt>
      <trkpt lat="44.96105" lon="6.67428">
        <ele>1413.8</ele>
        <time>2023-07-02T11:11:43+0200</time>
      </trkpt>
      <trkpt lat="44.96099" lon="6.67432">
        <ele>1414.2</ele>
        <time>2023-07-02T11:11:46+0200</time>
      </trkpt>
      <trkpt lat="44.96094" lon="6.67435">
        <ele>1414.5</ele>
        <time>2023-07-02T11:11:48+0200</time>
      </trkpt>
      <trkpt lat="44.96088" lon="6.67438">
        <ele>1414.9</ele>
        <time>2023-07-02T11:11:50+0200</time>
      </trkpt>
      <trkpt lat="44.96081" lon="6.67443">
        <ele>1415.4</ele>
        <time>2023-07-02T11:11:53+0200</time>
      </trkpt>
      <trkpt lat="44.96076" lon="6.67445">
        <ele>1415.8</ele>
        <time>2023-07-02T11:11:55+0200</time>
      </trkpt>
      <trkpt lat="44.96069" lon="6.67448">
        <ele>1416.2</ele>
        <time>2023-07-02T11:11:57+0200</time>
      </trkpt>
      <trkpt lat="44.96063" lon="6.6745">
        <ele>1416.5</ele>
        <time>2023-07-02T11:11:59+0200</time>
      </trkpt>
      <trkpt lat="44.96058" lon="6.67452">
        <ele>1416.9</ele>
        <time>2023-07-02T11:12:01+0200</time>
      </trkpt>
      <trkpt lat="44.96052" lon="6.67455">
        <ele>1417.1</ele>
        <time>2023-07-02T11:12:03+0200</time>
      </trkpt>
      <trkpt lat="44.96047" lon="6.67456">
        <ele>1417.3</ele>
        <time>2023-07-02T11:12:05+0200</time>
      </trkpt>
      <trkpt lat="44.96042" lon="6.67459">
        <ele>1417.5</ele>
        <time>2023-07-02T11:12:07+0200</time>
      </trkpt>
      <trkpt lat="44.96036" lon="6.67461">
        <ele>1417.6</ele>
        <time>2023-07-02T11:12:09+0200</time>
      </trkpt>
      <trkpt lat="44.96031" lon="6.67462">
        <ele>1417.9</ele>
        <time>2023-07-02T11:12:11+0200</time>
      </trkpt>
      <trkpt lat="44.96026" lon="6.67463">
        <ele>1418.1</ele>
        <time>2023-07-02T11:12:13+0200</time>
      </trkpt>
      <trkpt lat="44.96019" lon="6.67467">
        <ele>1418.2</ele>
        <time>2023-07-02T11:12:15+0200</time>
      </trkpt>
      <trkpt lat="44.96013" lon="6.6747">
        <ele>1418.2</ele>
        <time>2023-07-02T11:12:17+0200</time>
      </trkpt>
      <trkpt lat="44.96007" lon="6.67472">
        <ele>1418.5</ele>
        <time>2023-07-02T11:12:19+0200</time>
      </trkpt>
      <trkpt lat="44.96002" lon="6.67474">
        <ele>1418.7</ele>
        <time>2023-07-02T11:12:21+0200</time>
      </trkpt>
      <trkpt lat="44.95997" lon="6.67476">
        <ele>1418.9</ele>
        <time>2023-07-02T11:12:25+0200</time>
      </trkpt>
      <trkpt lat="44.95994" lon="6.67471">
        <ele>1419.5</ele>
        <time>2023-07-02T11:12:27+0200</time>
      </trkpt>
      <trkpt lat="44.95994" lon="6.67462">
        <ele>1420.2</ele>
        <time>2023-07-02T11:12:31+0200</time>
      </trkpt>
      <trkpt lat="44.95993" lon="6.67454">
        <ele>1420.8</ele>
        <time>2023-07-02T11:12:33+0200</time>
      </trkpt>
      <trkpt lat="44.95993" lon="6.67447">
        <ele>1421.4</ele>
        <time>2023-07-02T11:12:36+0200</time>
      </trkpt>
      <trkpt lat="44.95993" lon="6.6744">
        <ele>1421.9</ele>
        <time>2023-07-02T11:12:38+0200</time>
      </trkpt>
      <trkpt lat="44.95991" lon="6.67431">
        <ele>1422.6</ele>
        <time>2023-07-02T11:12:41+0200</time>
      </trkpt>
      <trkpt lat="44.95992" lon="6.67423">
        <ele>1423.1</ele>
        <time>2023-07-02T11:12:44+0200</time>
      </trkpt>
      <trkpt lat="44.95993" lon="6.67415">
        <ele>1423.6</ele>
        <time>2023-07-02T11:12:47+0200</time>
      </trkpt>
      <trkpt lat="44.95995" lon="6.67408">
        <ele>1424</ele>
        <time>2023-07-02T11:12:50+0200</time>
      </trkpt>
      <trkpt lat="44.95999" lon="6.67403">
        <ele>1424.1</ele>
        <time>2023-07-02T11:12:52+0200</time>
      </trkpt>
      <trkpt lat="44.96002" lon="6.67396">
        <ele>1424.3</ele>
        <time>2023-07-02T11:12:55+0200</time>
      </trkpt>
      <trkpt lat="44.96005" lon="6.67387">
        <ele>1424.8</ele>
        <time>2023-07-02T11:12:58+0200</time>
      </trkpt>
      <trkpt lat="44.96008" lon="6.67379">
        <ele>1425.1</ele>
        <time>2023-07-02T11:13:01+0200</time>
      </trkpt>
      <trkpt lat="44.96009" lon="6.67374">
        <ele>1425.4</ele>
        <time>2023-07-02T11:13:04+0200</time>
      </trkpt>
      <trkpt lat="44.96012" lon="6.67367">
        <ele>1425.7</ele>
        <time>2023-07-02T11:13:06+0200</time>
      </trkpt>
      <trkpt lat="44.96015" lon="6.67361">
        <ele>1425.9</ele>
        <time>2023-07-02T11:13:08+0200</time>
      </trkpt>
      <trkpt lat="44.96018" lon="6.67354">
        <ele>1426.2</ele>
        <time>2023-07-02T11:13:10+0200</time>
      </trkpt>
      <trkpt lat="44.96021" lon="6.67345">
        <ele>1426.7</ele>
        <time>2023-07-02T11:13:13+0200</time>
      </trkpt>
      <trkpt lat="44.96023" lon="6.67338">
        <ele>1427</ele>
        <time>2023-07-02T11:13:15+0200</time>
      </trkpt>
      <trkpt lat="44.96027" lon="6.67331">
        <ele>1427.1</ele>
        <time>2023-07-02T11:13:18+0200</time>
      </trkpt>
      <trkpt lat="44.9603" lon="6.67324">
        <ele>1427.2</ele>
        <time>2023-07-02T11:13:20+0200</time>
      </trkpt>
      <trkpt lat="44.96033" lon="6.67318">
        <ele>1427.1</ele>
        <time>2023-07-02T11:13:22+0200</time>
      </trkpt>
      <trkpt lat="44.96037" lon="6.67309">
        <ele>1427.2</ele>
        <time>2023-07-02T11:13:25+0200</time>
      </trkpt>
      <trkpt lat="44.9604" lon="6.67304">
        <ele>1427.3</ele>
        <time>2023-07-02T11:13:27+0200</time>
      </trkpt>
      <trkpt lat="44.96042" lon="6.67296">
        <ele>1427.8</ele>
        <time>2023-07-02T11:13:29+0200</time>
      </trkpt>
      <trkpt lat="44.96045" lon="6.67288">
        <ele>1428.3</ele>
        <time>2023-07-02T11:13:31+0200</time>
      </trkpt>
      <trkpt lat="44.96048" lon="6.67283">
        <ele>1428.4</ele>
        <time>2023-07-02T11:13:33+0200</time>
      </trkpt>
      <trkpt lat="44.9605" lon="6.67275">
        <ele>1428.8</ele>
        <time>2023-07-02T11:13:35+0200</time>
      </trkpt>
      <trkpt lat="44.96053" lon="6.67268">
        <ele>1429</ele>
        <time>2023-07-02T11:13:37+0200</time>
      </trkpt>
      <trkpt lat="44.96056" lon="6.67263">
        <ele>1429</ele>
        <time>2023-07-02T11:13:39+0200</time>
      </trkpt>
      <trkpt lat="44.96059" lon="6.67256">
        <ele>1429.3</ele>
        <time>2023-07-02T11:13:41+0200</time>
      </trkpt>
      <trkpt lat="44.96062" lon="6.6725">
        <ele>1429.5</ele>
        <time>2023-07-02T11:13:43+0200</time>
      </trkpt>
      <trkpt lat="44.96066" lon="6.67242">
        <ele>1429.9</ele>
        <time>2023-07-02T11:13:45+0200</time>
      </trkpt>
      <trkpt lat="44.96069" lon="6.67233">
        <ele>1430.2</ele>
        <time>2023-07-02T11:13:47+0200</time>
      </trkpt>
      <trkpt lat="44.96073" lon="6.67226">
        <ele>1430.5</ele>
        <time>2023-07-02T11:13:49+0200</time>
      </trkpt>
      <trkpt lat="44.96076" lon="6.67217">
        <ele>1430.7</ele>
        <time>2023-07-02T11:13:51+0200</time>
      </trkpt>
      <trkpt lat="44.9608" lon="6.67212">
        <ele>1430.6</ele>
        <time>2023-07-02T11:13:53+0200</time>
      </trkpt>
      <trkpt lat="44.96085" lon="6.67202">
        <ele>1430.5</ele>
        <time>2023-07-02T11:13:55+0200</time>
      </trkpt>
      <trkpt lat="44.96089" lon="6.67192">
        <ele>1430.5</ele>
        <time>2023-07-02T11:13:57+0200</time>
      </trkpt>
      <trkpt lat="44.96093" lon="6.67183">
        <ele>1430.8</ele>
        <time>2023-07-02T11:13:59+0200</time>
      </trkpt>
      <trkpt lat="44.96095" lon="6.67174">
        <ele>1431.2</ele>
        <time>2023-07-02T11:14:01+0200</time>
      </trkpt>
      <trkpt lat="44.96097" lon="6.67165">
        <ele>1431.6</ele>
        <time>2023-07-02T11:14:03+0200</time>
      </trkpt>
      <trkpt lat="44.96099" lon="6.67157">
        <ele>1431.7</ele>
        <time>2023-07-02T11:14:05+0200</time>
      </trkpt>
      <trkpt lat="44.96101" lon="6.67148">
        <ele>1431.8</ele>
        <time>2023-07-02T11:14:07+0200</time>
      </trkpt>
      <trkpt lat="44.96102" lon="6.67139">
        <ele>1432</ele>
        <time>2023-07-02T11:14:09+0200</time>
      </trkpt>
      <trkpt lat="44.96105" lon="6.6713">
        <ele>1432</ele>
        <time>2023-07-02T11:14:11+0200</time>
      </trkpt>
      <trkpt lat="44.96108" lon="6.6712">
        <ele>1432.1</ele>
        <time>2023-07-02T11:14:13+0200</time>
      </trkpt>
      <trkpt lat="44.96111" lon="6.67112">
        <ele>1432</ele>
        <time>2023-07-02T11:14:15+0200</time>
      </trkpt>
      <trkpt lat="44.96113" lon="6.67103">
        <ele>1432.1</ele>
        <time>2023-07-02T11:14:17+0200</time>
      </trkpt>
      <trkpt lat="44.96114" lon="6.67095">
        <ele>1432.2</ele>
        <time>2023-07-02T11:14:19+0200</time>
      </trkpt>
      <trkpt lat="44.96115" lon="6.67085">
        <ele>1432.5</ele>
        <time>2023-07-02T11:14:21+0200</time>
      </trkpt>
      <trkpt lat="44.96115" lon="6.67077">
        <ele>1432.9</ele>
        <time>2023-07-02T11:14:23+0200</time>
      </trkpt>
      <trkpt lat="44.96114" lon="6.6707">
        <ele>1433.2</ele>
        <time>2023-07-02T11:14:24+0200</time>
      </trkpt>
      <trkpt lat="44.96115" lon="6.6706">
        <ele>1433.4</ele>
        <time>2023-07-02T11:14:26+0200</time>
      </trkpt>
      <trkpt lat="44.96116" lon="6.6705">
        <ele>1433.9</ele>
        <time>2023-07-02T11:14:28+0200</time>
      </trkpt>
      <trkpt lat="44.96115" lon="6.67043">
        <ele>1434.5</ele>
        <time>2023-07-02T11:14:30+0200</time>
      </trkpt>
      <trkpt lat="44.96115" lon="6.67035">
        <ele>1435.1</ele>
        <time>2023-07-02T11:14:32+0200</time>
      </trkpt>
      <trkpt lat="44.96116" lon="6.67026">
        <ele>1435.6</ele>
        <time>2023-07-02T11:14:34+0200</time>
      </trkpt>
      <trkpt lat="44.96119" lon="6.67018">
        <ele>1435.8</ele>
        <time>2023-07-02T11:14:37+0200</time>
      </trkpt>
      <trkpt lat="44.96121" lon="6.6701">
        <ele>1436.2</ele>
        <time>2023-07-02T11:14:39+0200</time>
      </trkpt>
      <trkpt lat="44.96124" lon="6.67004">
        <ele>1436.3</ele>
        <time>2023-07-02T11:14:41+0200</time>
      </trkpt>
      <trkpt lat="44.96127" lon="6.66998">
        <ele>1436.5</ele>
        <time>2023-07-02T11:14:43+0200</time>
      </trkpt>
      <trkpt lat="44.9613" lon="6.66992">
        <ele>1436.7</ele>
        <time>2023-07-02T11:14:45+0200</time>
      </trkpt>
      <trkpt lat="44.96133" lon="6.66987">
        <ele>1436.9</ele>
        <time>2023-07-02T11:14:47+0200</time>
      </trkpt>
      <trkpt lat="44.96137" lon="6.66982">
        <ele>1437.1</ele>
        <time>2023-07-02T11:14:50+0200</time>
      </trkpt>
      <trkpt lat="44.96142" lon="6.66978">
        <ele>1437.2</ele>
        <time>2023-07-02T11:14:53+0200</time>
      </trkpt>
      <trkpt lat="44.96146" lon="6.66972">
        <ele>1437.5</ele>
        <time>2023-07-02T11:14:56+0200</time>
      </trkpt>
      <trkpt lat="44.96149" lon="6.66964">
        <ele>1438.5</ele>
        <time>2023-07-02T11:14:59+0200</time>
      </trkpt>
      <trkpt lat="44.9615" lon="6.66954">
        <ele>1440.1</ele>
        <time>2023-07-02T11:15:01+0200</time>
      </trkpt>
      <trkpt lat="44.96148" lon="6.66948">
        <ele>1441.1</ele>
        <time>2023-07-02T11:15:03+0200</time>
      </trkpt>
      <trkpt lat="44.96147" lon="6.66942">
        <ele>1442.2</ele>
        <time>2023-07-02T11:15:05+0200</time>
      </trkpt>
      <trkpt lat="44.96143" lon="6.66936">
        <ele>1443.6</ele>
        <time>2023-07-02T11:15:08+0200</time>
      </trkpt>
      <trkpt lat="44.9614" lon="6.66927">
        <ele>1445.7</ele>
        <time>2023-07-02T11:15:12+0200</time>
      </trkpt>
      <trkpt lat="44.96135" lon="6.66924">
        <ele>1446.6</ele>
        <time>2023-07-02T11:15:14+0200</time>
      </trkpt>
      <trkpt lat="44.9613" lon="6.6692">
        <ele>1447.4</ele>
        <time>2023-07-02T11:15:18+0200</time>
      </trkpt>
      <trkpt lat="44.96125" lon="6.66918">
        <ele>1447.7</ele>
        <time>2023-07-02T11:15:19+0200</time>
      </trkpt>
      <trkpt lat="44.96115" lon="6.66916">
        <ele>1448.1</ele>
        <time>2023-07-02T11:15:21+0200</time>
      </trkpt>
      <trkpt lat="44.96109" lon="6.66918">
        <ele>1447.8</ele>
        <time>2023-07-02T11:15:22+0200</time>
      </trkpt>
      <trkpt lat="44.96102" lon="6.66918">
        <ele>1447.5</ele>
        <time>2023-07-02T11:15:24+0200</time>
      </trkpt>
      <trkpt lat="44.96097" lon="6.66912">
        <ele>1448.3</ele>
        <time>2023-07-02T11:15:26+0200</time>
      </trkpt>
      <trkpt lat="44.96092" lon="6.66913">
        <ele>1448</ele>
        <time>2023-07-02T11:15:28+0200</time>
      </trkpt>
      <trkpt lat="44.96086" lon="6.66909">
        <ele>1448.8</ele>
        <time>2023-07-02T11:15:30+0200</time>
      </trkpt>
      <trkpt lat="44.96077" lon="6.66906">
        <ele>1449.4</ele>
        <time>2023-07-02T11:15:32+0200</time>
      </trkpt>
      <trkpt lat="44.9607" lon="6.66905">
        <ele>1449.8</ele>
        <time>2023-07-02T11:15:34+0200</time>
      </trkpt>
      <trkpt lat="44.96067" lon="6.66899">
        <ele>1451</ele>
        <time>2023-07-02T11:15:36+0200</time>
      </trkpt>
      <trkpt lat="44.9606" lon="6.66896">
        <ele>1451.6</ele>
        <time>2023-07-02T11:15:38+0200</time>
      </trkpt>
      <trkpt lat="44.96054" lon="6.66894">
        <ele>1452.1</ele>
        <time>2023-07-02T11:15:40+0200</time>
      </trkpt>
      <trkpt lat="44.96045" lon="6.66895">
        <ele>1452</ele>
        <time>2023-07-02T11:15:42+0200</time>
      </trkpt>
      <trkpt lat="44.9604" lon="6.66896">
        <ele>1452.1</ele>
        <time>2023-07-02T11:15:44+0200</time>
      </trkpt>
      <trkpt lat="44.96035" lon="6.66897">
        <ele>1452</ele>
        <time>2023-07-02T11:15:46+0200</time>
      </trkpt>
      <trkpt lat="44.96026" lon="6.669">
        <ele>1452</ele>
        <time>2023-07-02T11:15:49+0200</time>
      </trkpt>
      <trkpt lat="44.96022" lon="6.669">
        <ele>1452.3</ele>
        <time>2023-07-02T11:15:51+0200</time>
      </trkpt>
      <trkpt lat="44.96016" lon="6.669">
        <ele>1452.8</ele>
        <time>2023-07-02T11:15:53+0200</time>
      </trkpt>
      <trkpt lat="44.9601" lon="6.66901">
        <ele>1453.3</ele>
        <time>2023-07-02T11:15:56+0200</time>
      </trkpt>
      <trkpt lat="44.96005" lon="6.669">
        <ele>1453.8</ele>
        <time>2023-07-02T11:15:59+0200</time>
      </trkpt>
      <trkpt lat="44.96007" lon="6.66907">
        <ele>1453.1</ele>
        <time>2023-07-02T11:16:04+0200</time>
      </trkpt>
      <trkpt lat="44.96008" lon="6.66913">
        <ele>1452.4</ele>
        <time>2023-07-02T11:16:28+0200</time>
      </trkpt>
      <trkpt lat="44.96007" lon="6.66919">
        <ele>1452.2</ele>
        <time>2023-07-02T11:16:55+0200</time>
      </trkpt>
      <trkpt lat="44.9601" lon="6.66912">
        <ele>1452.3</ele>
        <time>2023-07-02T11:17:03+0200</time>
      </trkpt>
      <trkpt lat="44.96006" lon="6.66908">
        <ele>1453</ele>
        <time>2023-07-02T11:17:06+0200</time>
      </trkpt>
      <trkpt lat="44.96002" lon="6.66904">
        <ele>1453.7</ele>
        <time>2023-07-02T11:17:16+0200</time>
      </trkpt>
      <trkpt lat="44.96005" lon="6.66898">
        <ele>1453.9</ele>
        <time>2023-07-02T11:17:42+0200</time>
      </trkpt>
      <trkpt lat="44.96002" lon="6.66903">
        <ele>1453.8</ele>
        <time>2023-07-02T11:17:50+0200</time>
      </trkpt>
      <trkpt lat="44.96" lon="6.66898">
        <ele>1454.4</ele>
        <time>2023-07-02T11:18:08+0200</time>
      </trkpt>
      <trkpt lat="44.96003" lon="6.66901">
        <ele>1453.8</ele>
        <time>2023-07-02T11:18:26+0200</time>
      </trkpt>
      <trkpt lat="44.96008" lon="6.66902">
        <ele>1453.3</ele>
        <time>2023-07-02T11:19:13+0200</time>
      </trkpt>
      <trkpt lat="44.96011" lon="6.66908">
        <ele>1452.5</ele>
        <time>2023-07-02T11:19:23+0200</time>
      </trkpt>
      <trkpt lat="44.96008" lon="6.66904">
        <ele>1453.2</ele>
        <time>2023-07-02T11:19:46+0200</time>
      </trkpt>
      <trkpt lat="44.96012" lon="6.66901">
        <ele>1453.1</ele>
        <time>2023-07-02T11:20:04+0200</time>
      </trkpt>
      <trkpt lat="44.96006" lon="6.66902">
        <ele>1453.5</ele>
        <time>2023-07-02T11:20:14+0200</time>
      </trkpt>
      <trkpt lat="44.96004" lon="6.66896">
        <ele>1454.2</ele>
        <time>2023-07-02T11:20:22+0200</time>
      </trkpt>
      <trkpt lat="44.96006" lon="6.66902">
        <ele>1453.5</ele>
        <time>2023-07-02T11:20:35+0200</time>
      </trkpt>
      <trkpt lat="44.9601" lon="6.66907">
        <ele>1452.8</ele>
        <time>2023-07-02T11:20:52+0200</time>
      </trkpt>
      <trkpt lat="44.96005" lon="6.66906">
        <ele>1453.3</ele>
        <time>2023-07-02T11:21:10+0200</time>
      </trkpt>
      <trkpt lat="44.96001" lon="6.66902">
        <ele>1453.9</ele>
        <time>2023-07-02T11:21:23+0200</time>
      </trkpt>
      <trkpt lat="44.96002" lon="6.66896">
        <ele>1454.3</ele>
        <time>2023-07-02T11:21:43+0200</time>
      </trkpt>
      <trkpt lat="44.96008" lon="6.66898">
        <ele>1453.7</ele>
        <time>2023-07-02T11:21:55+0200</time>
      </trkpt>
      <trkpt lat="44.96011" lon="6.66903">
        <ele>1453</ele>
        <time>2023-07-02T11:22:11+0200</time>
      </trkpt>
      <trkpt lat="44.96007" lon="6.66908">
        <ele>1452.9</ele>
        <time>2023-07-02T11:22:53+0200</time>
      </trkpt>
      <trkpt lat="44.96005" lon="6.66914">
        <ele>1452.7</ele>
        <time>2023-07-02T11:23:01+0200</time>
      </trkpt>
      <trkpt lat="44.96003" lon="6.6692">
        <ele>1452.5</ele>
        <time>2023-07-02T11:23:16+0200</time>
      </trkpt>
      <trkpt lat="44.96007" lon="6.66915">
        <ele>1452.4</ele>
        <time>2023-07-02T11:23:41+0200</time>
      </trkpt>
      <trkpt lat="44.9601" lon="6.66911">
        <ele>1452.4</ele>
        <time>2023-07-02T11:24:13+0200</time>
      </trkpt>
      <trkpt lat="44.96008" lon="6.66906">
        <ele>1453.1</ele>
        <time>2023-07-02T11:24:16+0200</time>
      </trkpt>
      <trkpt lat="44.96008" lon="6.66898">
        <ele>1453.7</ele>
        <time>2023-07-02T11:24:19+0200</time>
      </trkpt>
      <trkpt lat="44.96009" lon="6.66892">
        <ele>1454.1</ele>
        <time>2023-07-02T11:24:22+0200</time>
      </trkpt>
      <trkpt lat="44.96014" lon="6.66888">
        <ele>1454.4</ele>
        <time>2023-07-02T11:24:25+0200</time>
      </trkpt>
      <trkpt lat="44.96019" lon="6.66885">
        <ele>1454.9</ele>
        <time>2023-07-02T11:24:28+0200</time>
      </trkpt>
      <trkpt lat="44.96024" lon="6.66884">
        <ele>1454.8</ele>
        <time>2023-07-02T11:24:30+0200</time>
      </trkpt>
      <trkpt lat="44.96029" lon="6.66884">
        <ele>1454.6</ele>
        <time>2023-07-02T11:24:32+0200</time>
      </trkpt>
      <trkpt lat="44.96035" lon="6.66882">
        <ele>1455.4</ele>
        <time>2023-07-02T11:24:35+0200</time>
      </trkpt>
      <trkpt lat="44.96039" lon="6.66882">
        <ele>1455.5</ele>
        <time>2023-07-02T11:24:37+0200</time>
      </trkpt>
      <trkpt lat="44.96046" lon="6.66879">
        <ele>1456.3</ele>
        <time>2023-07-02T11:24:40+0200</time>
      </trkpt>
      <trkpt lat="44.96051" lon="6.66878">
        <ele>1456.5</ele>
        <time>2023-07-02T11:24:43+0200</time>
      </trkpt>
      <trkpt lat="44.96056" lon="6.66878">
        <ele>1456.6</ele>
        <time>2023-07-02T11:24:46+0200</time>
      </trkpt>
      <trkpt lat="44.96062" lon="6.66876">
        <ele>1456.9</ele>
        <time>2023-07-02T11:24:50+0200</time>
      </trkpt>
      <trkpt lat="44.96067" lon="6.66877">
        <ele>1456.8</ele>
        <time>2023-07-02T11:24:53+0200</time>
      </trkpt>
      <trkpt lat="44.96072" lon="6.66871">
        <ele>1458.4</ele>
        <time>2023-07-02T11:24:57+0200</time>
      </trkpt>
      <trkpt lat="44.96076" lon="6.66868">
        <ele>1459.2</ele>
        <time>2023-07-02T11:25:00+0200</time>
      </trkpt>
      <trkpt lat="44.96082" lon="6.6687">
        <ele>1458.6</ele>
        <time>2023-07-02T11:25:03+0200</time>
      </trkpt>
      <trkpt lat="44.96087" lon="6.66866">
        <ele>1459.6</ele>
        <time>2023-07-02T11:25:06+0200</time>
      </trkpt>
      <trkpt lat="44.96092" lon="6.66867">
        <ele>1459.4</ele>
        <time>2023-07-02T11:25:10+0200</time>
      </trkpt>
      <trkpt lat="44.96097" lon="6.66867">
        <ele>1459.3</ele>
        <time>2023-07-02T11:25:13+0200</time>
      </trkpt>
      <trkpt lat="44.96102" lon="6.66866">
        <ele>1459.7</ele>
        <time>2023-07-02T11:25:16+0200</time>
      </trkpt>
      <trkpt lat="44.96107" lon="6.66867">
        <ele>1459.2</ele>
        <time>2023-07-02T11:25:20+0200</time>
      </trkpt>
      <trkpt lat="44.96113" lon="6.66865">
        <ele>1459.9</ele>
        <time>2023-07-02T11:25:23+0200</time>
      </trkpt>
      <trkpt lat="44.96119" lon="6.66863">
        <ele>1460.4</ele>
        <time>2023-07-02T11:25:26+0200</time>
      </trkpt>
      <trkpt lat="44.96124" lon="6.66863">
        <ele>1460.4</ele>
        <time>2023-07-02T11:25:29+0200</time>
      </trkpt>
      <trkpt lat="44.96129" lon="6.66864">
        <ele>1460.3</ele>
        <time>2023-07-02T11:25:32+0200</time>
      </trkpt>
      <trkpt lat="44.96134" lon="6.66861">
        <ele>1461</ele>
        <time>2023-07-02T11:25:35+0200</time>
      </trkpt>
      <trkpt lat="44.9614" lon="6.66858">
        <ele>1461.8</ele>
        <time>2023-07-02T11:25:38+0200</time>
      </trkpt>
      <trkpt lat="44.96145" lon="6.66856">
        <ele>1462.5</ele>
        <time>2023-07-02T11:25:42+0200</time>
      </trkpt>
      <trkpt lat="44.96149" lon="6.66852">
        <ele>1463.6</ele>
        <time>2023-07-02T11:25:44+0200</time>
      </trkpt>
      <trkpt lat="44.96153" lon="6.66848">
        <ele>1464.6</ele>
        <time>2023-07-02T11:25:46+0200</time>
      </trkpt>
      <trkpt lat="44.96157" lon="6.66843">
        <ele>1465.8</ele>
        <time>2023-07-02T11:25:48+0200</time>
      </trkpt>
      <trkpt lat="44.96162" lon="6.66843">
        <ele>1465.6</ele>
        <time>2023-07-02T11:25:51+0200</time>
      </trkpt>
      <trkpt lat="44.96167" lon="6.66839">
        <ele>1466.4</ele>
        <time>2023-07-02T11:25:54+0200</time>
      </trkpt>
      <trkpt lat="44.96172" lon="6.66837">
        <ele>1466.8</ele>
        <time>2023-07-02T11:25:56+0200</time>
      </trkpt>
      <trkpt lat="44.96178" lon="6.66835">
        <ele>1466.7</ele>
        <time>2023-07-02T11:25:59+0200</time>
      </trkpt>
      <trkpt lat="44.96183" lon="6.66831">
        <ele>1467.6</ele>
        <time>2023-07-02T11:26:02+0200</time>
      </trkpt>
      <trkpt lat="44.96187" lon="6.66827">
        <ele>1468.4</ele>
        <time>2023-07-02T11:26:04+0200</time>
      </trkpt>
      <trkpt lat="44.96191" lon="6.66821">
        <ele>1469.8</ele>
        <time>2023-07-02T11:26:06+0200</time>
      </trkpt>
      <trkpt lat="44.96196" lon="6.66818">
        <ele>1470.2</ele>
        <time>2023-07-02T11:26:09+0200</time>
      </trkpt>
      <trkpt lat="44.962" lon="6.66812">
        <ele>1471.5</ele>
        <time>2023-07-02T11:26:12+0200</time>
      </trkpt>
      <trkpt lat="44.96206" lon="6.66808">
        <ele>1472.2</ele>
        <time>2023-07-02T11:26:15+0200</time>
      </trkpt>
      <trkpt lat="44.96211" lon="6.66804">
        <ele>1472.7</ele>
        <time>2023-07-02T11:26:18+0200</time>
      </trkpt>
      <trkpt lat="44.96215" lon="6.668">
        <ele>1473.5</ele>
        <time>2023-07-02T11:26:20+0200</time>
      </trkpt>
      <trkpt lat="44.9622" lon="6.66794">
        <ele>1474.9</ele>
        <time>2023-07-02T11:26:23+0200</time>
      </trkpt>
      <trkpt lat="44.96225" lon="6.66794">
        <ele>1474.3</ele>
        <time>2023-07-02T11:26:26+0200</time>
      </trkpt>
      <trkpt lat="44.96232" lon="6.66789">
        <ele>1475.1</ele>
        <time>2023-07-02T11:26:29+0200</time>
      </trkpt>
      <trkpt lat="44.96237" lon="6.66789">
        <ele>1474.7</ele>
        <time>2023-07-02T11:26:32+0200</time>
      </trkpt>
      <trkpt lat="44.96244" lon="6.66786">
        <ele>1474.9</ele>
        <time>2023-07-02T11:26:35+0200</time>
      </trkpt>
      <trkpt lat="44.96249" lon="6.66784">
        <ele>1474.8</ele>
        <time>2023-07-02T11:26:37+0200</time>
      </trkpt>
      <trkpt lat="44.96254" lon="6.66785">
        <ele>1473.7</ele>
        <time>2023-07-02T11:26:40+0200</time>
      </trkpt>
      <trkpt lat="44.96259" lon="6.66786">
        <ele>1472.9</ele>
        <time>2023-07-02T11:26:42+0200</time>
      </trkpt>
      <trkpt lat="44.96264" lon="6.66784">
        <ele>1472.7</ele>
        <time>2023-07-02T11:26:45+0200</time>
      </trkpt>
      <trkpt lat="44.96269" lon="6.66779">
        <ele>1473.6</ele>
        <time>2023-07-02T11:26:47+0200</time>
      </trkpt>
      <trkpt lat="44.96274" lon="6.66776">
        <ele>1474.2</ele>
        <time>2023-07-02T11:26:49+0200</time>
      </trkpt>
      <trkpt lat="44.96279" lon="6.66774">
        <ele>1474.7</ele>
        <time>2023-07-02T11:26:51+0200</time>
      </trkpt>
      <trkpt lat="44.96286" lon="6.66769">
        <ele>1475.8</ele>
        <time>2023-07-02T11:26:54+0200</time>
      </trkpt>
      <trkpt lat="44.9629" lon="6.66765">
        <ele>1476.7</ele>
        <time>2023-07-02T11:26:57+0200</time>
      </trkpt>
      <trkpt lat="44.96295" lon="6.66762">
        <ele>1477.1</ele>
        <time>2023-07-02T11:27:00+0200</time>
      </trkpt>
      <trkpt lat="44.963" lon="6.66758">
        <ele>1478.3</ele>
        <time>2023-07-02T11:27:02+0200</time>
      </trkpt>
      <trkpt lat="44.96304" lon="6.66755">
        <ele>1479.2</ele>
        <time>2023-07-02T11:27:04+0200</time>
      </trkpt>
      <trkpt lat="44.96311" lon="6.66752">
        <ele>1478.8</ele>
        <time>2023-07-02T11:27:07+0200</time>
      </trkpt>
      <trkpt lat="44.96316" lon="6.6675">
        <ele>1478.5</ele>
        <time>2023-07-02T11:27:10+0200</time>
      </trkpt>
      <trkpt lat="44.96321" lon="6.66749">
        <ele>1478.3</ele>
        <time>2023-07-02T11:27:12+0200</time>
      </trkpt>
      <trkpt lat="44.96327" lon="6.66746">
        <ele>1478.5</ele>
        <time>2023-07-02T11:27:15+0200</time>
      </trkpt>
      <trkpt lat="44.9633" lon="6.66741">
        <ele>1480</ele>
        <time>2023-07-02T11:27:18+0200</time>
      </trkpt>
      <trkpt lat="44.96335" lon="6.66741">
        <ele>1479.3</ele>
        <time>2023-07-02T11:27:21+0200</time>
      </trkpt>
      <trkpt lat="44.96341" lon="6.66739">
        <ele>1478.9</ele>
        <time>2023-07-02T11:27:24+0200</time>
      </trkpt>
      <trkpt lat="44.96345" lon="6.66736">
        <ele>1479.4</ele>
        <time>2023-07-02T11:27:27+0200</time>
      </trkpt>
      <trkpt lat="44.9635" lon="6.66732">
        <ele>1480.1</ele>
        <time>2023-07-02T11:27:30+0200</time>
      </trkpt>
      <trkpt lat="44.96354" lon="6.66729">
        <ele>1480.8</ele>
        <time>2023-07-02T11:27:33+0200</time>
      </trkpt>
      <trkpt lat="44.9636" lon="6.66724">
        <ele>1482.2</ele>
        <time>2023-07-02T11:27:36+0200</time>
      </trkpt>
      <trkpt lat="44.96363" lon="6.66721">
        <ele>1483.5</ele>
        <time>2023-07-02T11:27:39+0200</time>
      </trkpt>
      <trkpt lat="44.96368" lon="6.66718">
        <ele>1484.2</ele>
        <time>2023-07-02T11:27:43+0200</time>
      </trkpt>
      <trkpt lat="44.96372" lon="6.66713">
        <ele>1486.1</ele>
        <time>2023-07-02T11:27:46+0200</time>
      </trkpt>
      <trkpt lat="44.96376" lon="6.66707">
        <ele>1488.9</ele>
        <time>2023-07-02T11:27:49+0200</time>
      </trkpt>
      <trkpt lat="44.96379" lon="6.66702">
        <ele>1491</ele>
        <time>2023-07-02T11:27:52+0200</time>
      </trkpt>
      <trkpt lat="44.96382" lon="6.66697">
        <ele>1492.9</ele>
        <time>2023-07-02T11:27:55+0200</time>
      </trkpt>
      <trkpt lat="44.96387" lon="6.66692">
        <ele>1495.3</ele>
        <time>2023-07-02T11:27:59+0200</time>
      </trkpt>
      <trkpt lat="44.96392" lon="6.66689">
        <ele>1496.1</ele>
        <time>2023-07-02T11:28:02+0200</time>
      </trkpt>
      <trkpt lat="44.96397" lon="6.66685">
        <ele>1497</ele>
        <time>2023-07-02T11:28:06+0200</time>
      </trkpt>
      <trkpt lat="44.96402" lon="6.66684">
        <ele>1496.1</ele>
        <time>2023-07-02T11:28:09+0200</time>
      </trkpt>
      <trkpt lat="44.96407" lon="6.66683">
        <ele>1495.7</ele>
        <time>2023-07-02T11:28:12+0200</time>
      </trkpt>
      <trkpt lat="44.96412" lon="6.66679">
        <ele>1496</ele>
        <time>2023-07-02T11:28:15+0200</time>
      </trkpt>
      <trkpt lat="44.96417" lon="6.66676">
        <ele>1496.9</ele>
        <time>2023-07-02T11:28:18+0200</time>
      </trkpt>
      <trkpt lat="44.96422" lon="6.6667">
        <ele>1498.6</ele>
        <time>2023-07-02T11:28:21+0200</time>
      </trkpt>
      <trkpt lat="44.96425" lon="6.66666">
        <ele>1500.1</ele>
        <time>2023-07-02T11:28:24+0200</time>
      </trkpt>
      <trkpt lat="44.9643" lon="6.66661">
        <ele>1501.4</ele>
        <time>2023-07-02T11:28:27+0200</time>
      </trkpt>
      <trkpt lat="44.96434" lon="6.66658">
        <ele>1502.1</ele>
        <time>2023-07-02T11:28:30+0200</time>
      </trkpt>
      <trkpt lat="44.96438" lon="6.66654">
        <ele>1503.5</ele>
        <time>2023-07-02T11:28:34+0200</time>
      </trkpt>
      <trkpt lat="44.96445" lon="6.66652">
        <ele>1502.6</ele>
        <time>2023-07-02T11:28:38+0200</time>
      </trkpt>
      <trkpt lat="44.96449" lon="6.66648">
        <ele>1503.3</ele>
        <time>2023-07-02T11:28:41+0200</time>
      </trkpt>
      <trkpt lat="44.96455" lon="6.66645">
        <ele>1503.3</ele>
        <time>2023-07-02T11:28:45+0200</time>
      </trkpt>
      <trkpt lat="44.96459" lon="6.66639">
        <ele>1505.4</ele>
        <time>2023-07-02T11:28:48+0200</time>
      </trkpt>
      <trkpt lat="44.96463" lon="6.66635">
        <ele>1506.2</ele>
        <time>2023-07-02T11:28:51+0200</time>
      </trkpt>
      <trkpt lat="44.96466" lon="6.66629">
        <ele>1508</ele>
        <time>2023-07-02T11:28:53+0200</time>
      </trkpt>
      <trkpt lat="44.96469" lon="6.66624">
        <ele>1509.3</ele>
        <time>2023-07-02T11:28:56+0200</time>
      </trkpt>
      <trkpt lat="44.96475" lon="6.66621">
        <ele>1509.5</ele>
        <time>2023-07-02T11:28:59+0200</time>
      </trkpt>
      <trkpt lat="44.96479" lon="6.66619">
        <ele>1509</ele>
        <time>2023-07-02T11:29:02+0200</time>
      </trkpt>
      <trkpt lat="44.96483" lon="6.66615">
        <ele>1509.9</ele>
        <time>2023-07-02T11:29:04+0200</time>
      </trkpt>
      <trkpt lat="44.96489" lon="6.66612">
        <ele>1509.7</ele>
        <time>2023-07-02T11:29:07+0200</time>
      </trkpt>
      <trkpt lat="44.96494" lon="6.66608">
        <ele>1510.1</ele>
        <time>2023-07-02T11:29:10+0200</time>
      </trkpt>
      <trkpt lat="44.965" lon="6.66604">
        <ele>1510.7</ele>
        <time>2023-07-02T11:29:13+0200</time>
      </trkpt>
      <trkpt lat="44.96505" lon="6.66603">
        <ele>1509.2</ele>
        <time>2023-07-02T11:29:16+0200</time>
      </trkpt>
      <trkpt lat="44.96509" lon="6.66603">
        <ele>1507.5</ele>
        <time>2023-07-02T11:29:19+0200</time>
      </trkpt>
      <trkpt lat="44.96515" lon="6.666">
        <ele>1507.2</ele>
        <time>2023-07-02T11:29:22+0200</time>
      </trkpt>
      <trkpt lat="44.9652" lon="6.66598">
        <ele>1506.3</ele>
        <time>2023-07-02T11:29:25+0200</time>
      </trkpt>
      <trkpt lat="44.96524" lon="6.66592">
        <ele>1507.5</ele>
        <time>2023-07-02T11:29:28+0200</time>
      </trkpt>
      <trkpt lat="44.96528" lon="6.66586">
        <ele>1509</ele>
        <time>2023-07-02T11:29:31+0200</time>
      </trkpt>
      <trkpt lat="44.9653" lon="6.6658">
        <ele>1510.6</ele>
        <time>2023-07-02T11:29:33+0200</time>
      </trkpt>
      <trkpt lat="44.96533" lon="6.66572">
        <ele>1512.8</ele>
        <time>2023-07-02T11:29:36+0200</time>
      </trkpt>
      <trkpt lat="44.96535" lon="6.66564">
        <ele>1515.1</ele>
        <time>2023-07-02T11:29:39+0200</time>
      </trkpt>
      <trkpt lat="44.96537" lon="6.66556">
        <ele>1517.4</ele>
        <time>2023-07-02T11:29:41+0200</time>
      </trkpt>
      <trkpt lat="44.96539" lon="6.66549">
        <ele>1518.9</ele>
        <time>2023-07-02T11:29:44+0200</time>
      </trkpt>
      <trkpt lat="44.96542" lon="6.66543">
        <ele>1520</ele>
        <time>2023-07-02T11:29:47+0200</time>
      </trkpt>
      <trkpt lat="44.96544" lon="6.66535">
        <ele>1521.6</ele>
        <time>2023-07-02T11:29:51+0200</time>
      </trkpt>
      <trkpt lat="44.96548" lon="6.6653">
        <ele>1521.7</ele>
        <time>2023-07-02T11:29:54+0200</time>
      </trkpt>
      <trkpt lat="44.9655" lon="6.66523">
        <ele>1523.3</ele>
        <time>2023-07-02T11:29:57+0200</time>
      </trkpt>
      <trkpt lat="44.96554" lon="6.66519">
        <ele>1523.5</ele>
        <time>2023-07-02T11:30:01+0200</time>
      </trkpt>
      <trkpt lat="44.96557" lon="6.66514">
        <ele>1524.1</ele>
        <time>2023-07-02T11:30:04+0200</time>
      </trkpt>
      <trkpt lat="44.96562" lon="6.6651">
        <ele>1524.2</ele>
        <time>2023-07-02T11:30:08+0200</time>
      </trkpt>
      <trkpt lat="44.96567" lon="6.66507">
        <ele>1523.6</ele>
        <time>2023-07-02T11:30:11+0200</time>
      </trkpt>
      <trkpt lat="44.96571" lon="6.66503">
        <ele>1523.8</ele>
        <time>2023-07-02T11:30:15+0200</time>
      </trkpt>
      <trkpt lat="44.96575" lon="6.665">
        <ele>1523.6</ele>
        <time>2023-07-02T11:30:17+0200</time>
      </trkpt>
      <trkpt lat="44.9658" lon="6.665">
        <ele>1522</ele>
        <time>2023-07-02T11:30:20+0200</time>
      </trkpt>
      <trkpt lat="44.96586" lon="6.665">
        <ele>1520.5</ele>
        <time>2023-07-02T11:30:23+0200</time>
      </trkpt>
      <trkpt lat="44.96592" lon="6.66496">
        <ele>1521</ele>
        <time>2023-07-02T11:30:28+0200</time>
      </trkpt>
      <trkpt lat="44.96596" lon="6.66491">
        <ele>1521.9</ele>
        <time>2023-07-02T11:30:31+0200</time>
      </trkpt>
      <trkpt lat="44.966" lon="6.66488">
        <ele>1522.7</ele>
        <time>2023-07-02T11:30:34+0200</time>
      </trkpt>
      <trkpt lat="44.96602" lon="6.66482">
        <ele>1524.6</ele>
        <time>2023-07-02T11:30:36+0200</time>
      </trkpt>
      <trkpt lat="44.96607" lon="6.66479">
        <ele>1525</ele>
        <time>2023-07-02T11:30:39+0200</time>
      </trkpt>
      <trkpt lat="44.96611" lon="6.66473">
        <ele>1526.5</ele>
        <time>2023-07-02T11:30:42+0200</time>
      </trkpt>
      <trkpt lat="44.96615" lon="6.66467">
        <ele>1528.4</ele>
        <time>2023-07-02T11:30:45+0200</time>
      </trkpt>
      <trkpt lat="44.96617" lon="6.66461">
        <ele>1530.3</ele>
        <time>2023-07-02T11:30:47+0200</time>
      </trkpt>
      <trkpt lat="44.9662" lon="6.66456">
        <ele>1531.7</ele>
        <time>2023-07-02T11:30:51+0200</time>
      </trkpt>
      <trkpt lat="44.96625" lon="6.66451">
        <ele>1532.5</ele>
        <time>2023-07-02T11:30:54+0200</time>
      </trkpt>
      <trkpt lat="44.96629" lon="6.66447">
        <ele>1533.2</ele>
        <time>2023-07-02T11:30:57+0200</time>
      </trkpt>
      <trkpt lat="44.96634" lon="6.66446">
        <ele>1532.3</ele>
        <time>2023-07-02T11:31:01+0200</time>
      </trkpt>
      <trkpt lat="44.96639" lon="6.66447">
        <ele>1530.8</ele>
        <time>2023-07-02T11:31:05+0200</time>
      </trkpt>
      <trkpt lat="44.96644" lon="6.66441">
        <ele>1531.9</ele>
        <time>2023-07-02T11:31:08+0200</time>
      </trkpt>
      <trkpt lat="44.96649" lon="6.66439">
        <ele>1530.7</ele>
        <time>2023-07-02T11:31:11+0200</time>
      </trkpt>
      <trkpt lat="44.96653" lon="6.66436">
        <ele>1530.6</ele>
        <time>2023-07-02T11:31:14+0200</time>
      </trkpt>
      <trkpt lat="44.96657" lon="6.66429">
        <ele>1532.6</ele>
        <time>2023-07-02T11:31:16+0200</time>
      </trkpt>
      <trkpt lat="44.96662" lon="6.66423">
        <ele>1533.1</ele>
        <time>2023-07-02T11:31:20+0200</time>
      </trkpt>
      <trkpt lat="44.96666" lon="6.66418">
        <ele>1533.9</ele>
        <time>2023-07-02T11:31:24+0200</time>
      </trkpt>
      <trkpt lat="44.96668" lon="6.66411">
        <ele>1536.3</ele>
        <time>2023-07-02T11:31:26+0200</time>
      </trkpt>
      <trkpt lat="44.96671" lon="6.66406">
        <ele>1537.4</ele>
        <time>2023-07-02T11:31:29+0200</time>
      </trkpt>
      <trkpt lat="44.96673" lon="6.66399">
        <ele>1540.2</ele>
        <time>2023-07-02T11:31:32+0200</time>
      </trkpt>
      <trkpt lat="44.96676" lon="6.66392">
        <ele>1542</ele>
        <time>2023-07-02T11:31:35+0200</time>
      </trkpt>
      <trkpt lat="44.96679" lon="6.66386">
        <ele>1543.6</ele>
        <time>2023-07-02T11:31:38+0200</time>
      </trkpt>
      <trkpt lat="44.96683" lon="6.6638">
        <ele>1544.9</ele>
        <time>2023-07-02T11:31:41+0200</time>
      </trkpt>
      <trkpt lat="44.96687" lon="6.66376">
        <ele>1544.7</ele>
        <time>2023-07-02T11:31:45+0200</time>
      </trkpt>
      <trkpt lat="44.96691" lon="6.66371">
        <ele>1545.3</ele>
        <time>2023-07-02T11:31:48+0200</time>
      </trkpt>
      <trkpt lat="44.96694" lon="6.66364">
        <ele>1546.9</ele>
        <time>2023-07-02T11:31:51+0200</time>
      </trkpt>
      <trkpt lat="44.96699" lon="6.6636">
        <ele>1545.9</ele>
        <time>2023-07-02T11:31:55+0200</time>
      </trkpt>
      <trkpt lat="44.96703" lon="6.66355">
        <ele>1546.7</ele>
        <time>2023-07-02T11:31:58+0200</time>
      </trkpt>
      <trkpt lat="44.96707" lon="6.66351">
        <ele>1546.6</ele>
        <time>2023-07-02T11:32:02+0200</time>
      </trkpt>
      <trkpt lat="44.96712" lon="6.66345">
        <ele>1546.5</ele>
        <time>2023-07-02T11:32:06+0200</time>
      </trkpt>
      <trkpt lat="44.96717" lon="6.6634">
        <ele>1546.2</ele>
        <time>2023-07-02T11:32:10+0200</time>
      </trkpt>
      <trkpt lat="44.96723" lon="6.66335">
        <ele>1545.8</ele>
        <time>2023-07-02T11:32:14+0200</time>
      </trkpt>
      <trkpt lat="44.96726" lon="6.6633">
        <ele>1546.5</ele>
        <time>2023-07-02T11:32:17+0200</time>
      </trkpt>
      <trkpt lat="44.9673" lon="6.66326">
        <ele>1546.7</ele>
        <time>2023-07-02T11:32:20+0200</time>
      </trkpt>
      <trkpt lat="44.96733" lon="6.6632">
        <ele>1548.3</ele>
        <time>2023-07-02T11:32:22+0200</time>
      </trkpt>
      <trkpt lat="44.96737" lon="6.66313">
        <ele>1549.9</ele>
        <time>2023-07-02T11:32:26+0200</time>
      </trkpt>
      <trkpt lat="44.9674" lon="6.66307">
        <ele>1551.1</ele>
        <time>2023-07-02T11:32:29+0200</time>
      </trkpt>
      <trkpt lat="44.96743" lon="6.66303">
        <ele>1551</ele>
        <time>2023-07-02T11:32:32+0200</time>
      </trkpt>
      <trkpt lat="44.96748" lon="6.66299">
        <ele>1550.4</ele>
        <time>2023-07-02T11:32:36+0200</time>
      </trkpt>
      <trkpt lat="44.96752" lon="6.66293">
        <ele>1551.3</ele>
        <time>2023-07-02T11:32:39+0200</time>
      </trkpt>
      <trkpt lat="44.96756" lon="6.66289">
        <ele>1551.2</ele>
        <time>2023-07-02T11:32:43+0200</time>
      </trkpt>
      <trkpt lat="44.96759" lon="6.66281">
        <ele>1553.6</ele>
        <time>2023-07-02T11:32:46+0200</time>
      </trkpt>
      <trkpt lat="44.96762" lon="6.66275">
        <ele>1554.8</ele>
        <time>2023-07-02T11:32:49+0200</time>
      </trkpt>
      <trkpt lat="44.96764" lon="6.66268">
        <ele>1557</ele>
        <time>2023-07-02T11:32:52+0200</time>
      </trkpt>
      <trkpt lat="44.96767" lon="6.6626">
        <ele>1558.8</ele>
        <time>2023-07-02T11:32:56+0200</time>
      </trkpt>
      <trkpt lat="44.96769" lon="6.66254">
        <ele>1560.3</ele>
        <time>2023-07-02T11:32:59+0200</time>
      </trkpt>
      <trkpt lat="44.96772" lon="6.66248">
        <ele>1561.1</ele>
        <time>2023-07-02T11:33:03+0200</time>
      </trkpt>
      <trkpt lat="44.96776" lon="6.66242">
        <ele>1561.4</ele>
        <time>2023-07-02T11:33:08+0200</time>
      </trkpt>
      <trkpt lat="44.96779" lon="6.66237">
        <ele>1562.4</ele>
        <time>2023-07-02T11:33:11+0200</time>
      </trkpt>
      <trkpt lat="44.96784" lon="6.66232">
        <ele>1562.8</ele>
        <time>2023-07-02T11:33:16+0200</time>
      </trkpt>
      <trkpt lat="44.96787" lon="6.66227">
        <ele>1563.5</ele>
        <time>2023-07-02T11:33:19+0200</time>
      </trkpt>
      <trkpt lat="44.96791" lon="6.66225">
        <ele>1563</ele>
        <time>2023-07-02T11:33:22+0200</time>
      </trkpt>
      <trkpt lat="44.96795" lon="6.66221">
        <ele>1562.9</ele>
        <time>2023-07-02T11:33:25+0200</time>
      </trkpt>
      <trkpt lat="44.96799" lon="6.66216">
        <ele>1563</ele>
        <time>2023-07-02T11:33:28+0200</time>
      </trkpt>
      <trkpt lat="44.96803" lon="6.66213">
        <ele>1562.3</ele>
        <time>2023-07-02T11:33:31+0200</time>
      </trkpt>
      <trkpt lat="44.96807" lon="6.66207">
        <ele>1562.6</ele>
        <time>2023-07-02T11:33:34+0200</time>
      </trkpt>
      <trkpt lat="44.96812" lon="6.66204">
        <ele>1562.5</ele>
        <time>2023-07-02T11:33:39+0200</time>
      </trkpt>
      <trkpt lat="44.96817" lon="6.66201">
        <ele>1562.2</ele>
        <time>2023-07-02T11:33:44+0200</time>
      </trkpt>
      <trkpt lat="44.96821" lon="6.66195">
        <ele>1562.7</ele>
        <time>2023-07-02T11:33:47+0200</time>
      </trkpt>
      <trkpt lat="44.96823" lon="6.66188">
        <ele>1564.1</ele>
        <time>2023-07-02T11:33:51+0200</time>
      </trkpt>
      <trkpt lat="44.96823" lon="6.66181">
        <ele>1565.8</ele>
        <time>2023-07-02T11:33:53+0200</time>
      </trkpt>
      <trkpt lat="44.96822" lon="6.66175">
        <ele>1567.6</ele>
        <time>2023-07-02T11:33:55+0200</time>
      </trkpt>
      <trkpt lat="44.96823" lon="6.66168">
        <ele>1569.1</ele>
        <time>2023-07-02T11:33:58+0200</time>
      </trkpt>
      <trkpt lat="44.9682" lon="6.66163">
        <ele>1571.6</ele>
        <time>2023-07-02T11:34:02+0200</time>
      </trkpt>
      <trkpt lat="44.96816" lon="6.66159">
        <ele>1573.9</ele>
        <time>2023-07-02T11:34:05+0200</time>
      </trkpt>
      <trkpt lat="44.96809" lon="6.66155">
        <ele>1576.6</ele>
        <time>2023-07-02T11:34:08+0200</time>
      </trkpt>
      <trkpt lat="44.96803" lon="6.66156">
        <ele>1578.7</ele>
        <time>2023-07-02T11:34:11+0200</time>
      </trkpt>
      <trkpt lat="44.96798" lon="6.66158">
        <ele>1580</ele>
        <time>2023-07-02T11:34:14+0200</time>
      </trkpt>
      <trkpt lat="44.96795" lon="6.66165">
        <ele>1579.1</ele>
        <time>2023-07-02T11:34:17+0200</time>
      </trkpt>
      <trkpt lat="44.96791" lon="6.6617">
        <ele>1579.1</ele>
        <time>2023-07-02T11:34:19+0200</time>
      </trkpt>
      <trkpt lat="44.96785" lon="6.6617">
        <ele>1581.8</ele>
        <time>2023-07-02T11:34:21+0200</time>
      </trkpt>
      <trkpt lat="44.96779" lon="6.66171">
        <ele>1584.2</ele>
        <time>2023-07-02T11:34:24+0200</time>
      </trkpt>
      <trkpt lat="44.96775" lon="6.66175">
        <ele>1584.6</ele>
        <time>2023-07-02T11:34:27+0200</time>
      </trkpt>
      <trkpt lat="44.9677" lon="6.66179">
        <ele>1585.3</ele>
        <time>2023-07-02T11:34:30+0200</time>
      </trkpt>
      <trkpt lat="44.96767" lon="6.66186">
        <ele>1584.4</ele>
        <time>2023-07-02T11:34:34+0200</time>
      </trkpt>
      <trkpt lat="44.96762" lon="6.66187">
        <ele>1586.6</ele>
        <time>2023-07-02T11:34:38+0200</time>
      </trkpt>
      <trkpt lat="44.96756" lon="6.66185">
        <ele>1589.4</ele>
        <time>2023-07-02T11:34:42+0200</time>
      </trkpt>
      <trkpt lat="44.96751" lon="6.66185">
        <ele>1591.7</ele>
        <time>2023-07-02T11:34:44+0200</time>
      </trkpt>
      <trkpt lat="44.96746" lon="6.66185">
        <ele>1593.7</ele>
        <time>2023-07-02T11:34:46+0200</time>
      </trkpt>
      <trkpt lat="44.96741" lon="6.66186">
        <ele>1595.8</ele>
        <time>2023-07-02T11:34:49+0200</time>
      </trkpt>
      <trkpt lat="44.96735" lon="6.66187">
        <ele>1597.8</ele>
        <time>2023-07-02T11:34:52+0200</time>
      </trkpt>
      <trkpt lat="44.9673" lon="6.66189">
        <ele>1599.2</ele>
        <time>2023-07-02T11:34:56+0200</time>
      </trkpt>
      <trkpt lat="44.96725" lon="6.66192">
        <ele>1600.8</ele>
        <time>2023-07-02T11:35:00+0200</time>
      </trkpt>
      <trkpt lat="44.96722" lon="6.66196">
        <ele>1600.7</ele>
        <time>2023-07-02T11:35:02+0200</time>
      </trkpt>
      <trkpt lat="44.96718" lon="6.66199">
        <ele>1601.5</ele>
        <time>2023-07-02T11:35:04+0200</time>
      </trkpt>
      <trkpt lat="44.96714" lon="6.66204">
        <ele>1601.7</ele>
        <time>2023-07-02T11:35:08+0200</time>
      </trkpt>
      <trkpt lat="44.96709" lon="6.66204">
        <ele>1604</ele>
        <time>2023-07-02T11:35:11+0200</time>
      </trkpt>
      <trkpt lat="44.96705" lon="6.6621">
        <ele>1603.8</ele>
        <time>2023-07-02T11:35:15+0200</time>
      </trkpt>
      <trkpt lat="44.96699" lon="6.66214">
        <ele>1604.7</ele>
        <time>2023-07-02T11:35:19+0200</time>
      </trkpt>
      <trkpt lat="44.96695" lon="6.66219">
        <ele>1604.8</ele>
        <time>2023-07-02T11:35:23+0200</time>
      </trkpt>
      <trkpt lat="44.96691" lon="6.66225">
        <ele>1604.9</ele>
        <time>2023-07-02T11:35:28+0200</time>
      </trkpt>
      <trkpt lat="44.96688" lon="6.6623">
        <ele>1605.4</ele>
        <time>2023-07-02T11:35:33+0200</time>
      </trkpt>
      <trkpt lat="44.96691" lon="6.66224">
        <ele>1605.6</ele>
        <time>2023-07-02T11:35:43+0200</time>
      </trkpt>
      <trkpt lat="44.96697" lon="6.66221">
        <ele>1603.5</ele>
        <time>2023-07-02T11:35:47+0200</time>
      </trkpt>
      <trkpt lat="44.96702" lon="6.66217">
        <ele>1602.5</ele>
        <time>2023-07-02T11:35:50+0200</time>
      </trkpt>
      <trkpt lat="44.96707" lon="6.66214">
        <ele>1601</ele>
        <time>2023-07-02T11:35:54+0200</time>
      </trkpt>
      <trkpt lat="44.96711" lon="6.66204">
        <ele>1603</ele>
        <time>2023-07-02T11:35:57+0200</time>
      </trkpt>
      <trkpt lat="44.96714" lon="6.66198">
        <ele>1604</ele>
        <time>2023-07-02T11:36:00+0200</time>
      </trkpt>
      <trkpt lat="44.96716" lon="6.66192">
        <ele>1605</ele>
        <time>2023-07-02T11:36:02+0200</time>
      </trkpt>
      <trkpt lat="44.96719" lon="6.66187">
        <ele>1605.1</ele>
        <time>2023-07-02T11:36:05+0200</time>
      </trkpt>
      <trkpt lat="44.96723" lon="6.6618">
        <ele>1605.4</ele>
        <time>2023-07-02T11:36:08+0200</time>
      </trkpt>
      <trkpt lat="44.96728" lon="6.66176">
        <ele>1604.5</ele>
        <time>2023-07-02T11:36:11+0200</time>
      </trkpt>
      <trkpt lat="44.96732" lon="6.66174">
        <ele>1603.4</ele>
        <time>2023-07-02T11:36:14+0200</time>
      </trkpt>
      <trkpt lat="44.96736" lon="6.66171">
        <ele>1602.6</ele>
        <time>2023-07-02T11:36:17+0200</time>
      </trkpt>
      <trkpt lat="44.96741" lon="6.66168">
        <ele>1601.6</ele>
        <time>2023-07-02T11:36:21+0200</time>
      </trkpt>
      <trkpt lat="44.96746" lon="6.66166">
        <ele>1600.1</ele>
        <time>2023-07-02T11:36:25+0200</time>
      </trkpt>
      <trkpt lat="44.96749" lon="6.66161">
        <ele>1600</ele>
        <time>2023-07-02T11:36:28+0200</time>
      </trkpt>
      <trkpt lat="44.96751" lon="6.66155">
        <ele>1601.2</ele>
        <time>2023-07-02T11:36:30+0200</time>
      </trkpt>
      <trkpt lat="44.96752" lon="6.66147">
        <ele>1602.9</ele>
        <time>2023-07-02T11:36:33+0200</time>
      </trkpt>
      <trkpt lat="44.96752" lon="6.6614">
        <ele>1604.7</ele>
        <time>2023-07-02T11:36:35+0200</time>
      </trkpt>
      <trkpt lat="44.96752" lon="6.66132">
        <ele>1606.7</ele>
        <time>2023-07-02T11:36:38+0200</time>
      </trkpt>
      <trkpt lat="44.96754" lon="6.66126">
        <ele>1606.9</ele>
        <time>2023-07-02T11:36:41+0200</time>
      </trkpt>
      <trkpt lat="44.96757" lon="6.6612">
        <ele>1607.3</ele>
        <time>2023-07-02T11:36:44+0200</time>
      </trkpt>
      <trkpt lat="44.9676" lon="6.66113">
        <ele>1607.8</ele>
        <time>2023-07-02T11:36:47+0200</time>
      </trkpt>
      <trkpt lat="44.96761" lon="6.66106">
        <ele>1608.7</ele>
        <time>2023-07-02T11:36:51+0200</time>
      </trkpt>
      <trkpt lat="44.96762" lon="6.66098">
        <ele>1610.1</ele>
        <time>2023-07-02T11:36:53+0200</time>
      </trkpt>
      <trkpt lat="44.96765" lon="6.66093">
        <ele>1610.1</ele>
        <time>2023-07-02T11:36:58+0200</time>
      </trkpt>
      <trkpt lat="44.96766" lon="6.66086">
        <ele>1611.1</ele>
        <time>2023-07-02T11:37:00+0200</time>
      </trkpt>
      <trkpt lat="44.96767" lon="6.66079">
        <ele>1612.6</ele>
        <time>2023-07-02T11:37:02+0200</time>
      </trkpt>
      <trkpt lat="44.96767" lon="6.66073">
        <ele>1613.9</ele>
        <time>2023-07-02T11:37:04+0200</time>
      </trkpt>
      <trkpt lat="44.96766" lon="6.66067">
        <ele>1615.9</ele>
        <time>2023-07-02T11:37:06+0200</time>
      </trkpt>
      <trkpt lat="44.96762" lon="6.66062">
        <ele>1618.1</ele>
        <time>2023-07-02T11:37:09+0200</time>
      </trkpt>
      <trkpt lat="44.96757" lon="6.66059">
        <ele>1620.3</ele>
        <time>2023-07-02T11:37:13+0200</time>
      </trkpt>
      <trkpt lat="44.96752" lon="6.6606">
        <ele>1621.5</ele>
        <time>2023-07-02T11:37:14+0200</time>
      </trkpt>
      <trkpt lat="44.96747" lon="6.66059">
        <ele>1623</ele>
        <time>2023-07-02T11:37:15+0200</time>
      </trkpt>
      <trkpt lat="44.96742" lon="6.66058">
        <ele>1624.7</ele>
        <time>2023-07-02T11:37:18+0200</time>
      </trkpt>
      <trkpt lat="44.96734" lon="6.66057">
        <ele>1627.3</ele>
        <time>2023-07-02T11:37:21+0200</time>
      </trkpt>
      <trkpt lat="44.96728" lon="6.66056">
        <ele>1629.2</ele>
        <time>2023-07-02T11:37:24+0200</time>
      </trkpt>
      <trkpt lat="44.9672" lon="6.6606">
        <ele>1631.2</ele>
        <time>2023-07-02T11:37:29+0200</time>
      </trkpt>
      <trkpt lat="44.96715" lon="6.66062">
        <ele>1632.3</ele>
        <time>2023-07-02T11:37:34+0200</time>
      </trkpt>
      <trkpt lat="44.96707" lon="6.66063">
        <ele>1635.2</ele>
        <time>2023-07-02T11:37:36+0200</time>
      </trkpt>
      <trkpt lat="44.96702" lon="6.66065">
        <ele>1636.5</ele>
        <time>2023-07-02T11:37:38+0200</time>
      </trkpt>
      <trkpt lat="44.96698" lon="6.66069">
        <ele>1637</ele>
        <time>2023-07-02T11:37:41+0200</time>
      </trkpt>
      <trkpt lat="44.96693" lon="6.6607">
        <ele>1638.4</ele>
        <time>2023-07-02T11:37:43+0200</time>
      </trkpt>
      <trkpt lat="44.9669" lon="6.66079">
        <ele>1637.9</ele>
        <time>2023-07-02T11:37:46+0200</time>
      </trkpt>
      <trkpt lat="44.96688" lon="6.66086">
        <ele>1638</ele>
        <time>2023-07-02T11:37:49+0200</time>
      </trkpt>
      <trkpt lat="44.96688" lon="6.66093">
        <ele>1637.1</ele>
        <time>2023-07-02T11:37:51+0200</time>
      </trkpt>
      <trkpt lat="44.96689" lon="6.66104">
        <ele>1635.4</ele>
        <time>2023-07-02T11:37:53+0200</time>
      </trkpt>
      <trkpt lat="44.96689" lon="6.66113">
        <ele>1634.5</ele>
        <time>2023-07-02T11:37:55+0200</time>
      </trkpt>
      <trkpt lat="44.96686" lon="6.66119">
        <ele>1635.5</ele>
        <time>2023-07-02T11:37:57+0200</time>
      </trkpt>
      <trkpt lat="44.96682" lon="6.66128">
        <ele>1636.5</ele>
        <time>2023-07-02T11:38:00+0200</time>
      </trkpt>
      <trkpt lat="44.9668" lon="6.66134">
        <ele>1636.8</ele>
        <time>2023-07-02T11:38:03+0200</time>
      </trkpt>
      <trkpt lat="44.96676" lon="6.66137">
        <ele>1638.7</ele>
        <time>2023-07-02T11:38:06+0200</time>
      </trkpt>
      <trkpt lat="44.9667" lon="6.66138">
        <ele>1641.7</ele>
        <time>2023-07-02T11:38:10+0200</time>
      </trkpt>
      <trkpt lat="44.96665" lon="6.6614">
        <ele>1643.7</ele>
        <time>2023-07-02T11:38:15+0200</time>
      </trkpt>
      <trkpt lat="44.96668" lon="6.66133">
        <ele>1643.2</ele>
        <time>2023-07-02T11:38:22+0200</time>
      </trkpt>
      <trkpt lat="44.96669" lon="6.66126">
        <ele>1643.4</ele>
        <time>2023-07-02T11:38:26+0200</time>
      </trkpt>
      <trkpt lat="44.96671" lon="6.66118">
        <ele>1643.1</ele>
        <time>2023-07-02T11:38:31+0200</time>
      </trkpt>
      <trkpt lat="44.96672" lon="6.66109">
        <ele>1643.7</ele>
        <time>2023-07-02T11:38:34+0200</time>
      </trkpt>
      <trkpt lat="44.96672" lon="6.66102">
        <ele>1644.1</ele>
        <time>2023-07-02T11:38:36+0200</time>
      </trkpt>
      <trkpt lat="44.96674" lon="6.66094">
        <ele>1643.7</ele>
        <time>2023-07-02T11:38:39+0200</time>
      </trkpt>
      <trkpt lat="44.96677" lon="6.66088">
        <ele>1643</ele>
        <time>2023-07-02T11:38:41+0200</time>
      </trkpt>
      <trkpt lat="44.9668" lon="6.66081">
        <ele>1642.4</ele>
        <time>2023-07-02T11:38:43+0200</time>
      </trkpt>
      <trkpt lat="44.96682" lon="6.66074">
        <ele>1642.7</ele>
        <time>2023-07-02T11:38:45+0200</time>
      </trkpt>
      <trkpt lat="44.96683" lon="6.66067">
        <ele>1643.4</ele>
        <time>2023-07-02T11:38:48+0200</time>
      </trkpt>
      <trkpt lat="44.96688" lon="6.66063">
        <ele>1642.5</ele>
        <time>2023-07-02T11:38:52+0200</time>
      </trkpt>
      <trkpt lat="44.96692" lon="6.66056">
        <ele>1642</ele>
        <time>2023-07-02T11:38:56+0200</time>
      </trkpt>
      <trkpt lat="44.96697" lon="6.66052">
        <ele>1641</ele>
        <time>2023-07-02T11:38:59+0200</time>
      </trkpt>
      <trkpt lat="44.96701" lon="6.66047">
        <ele>1641.2</ele>
        <time>2023-07-02T11:39:02+0200</time>
      </trkpt>
      <trkpt lat="44.96704" lon="6.66041">
        <ele>1642</ele>
        <time>2023-07-02T11:39:04+0200</time>
      </trkpt>
      <trkpt lat="44.96709" lon="6.66038">
        <ele>1641.2</ele>
        <time>2023-07-02T11:39:07+0200</time>
      </trkpt>
      <trkpt lat="44.96714" lon="6.66035">
        <ele>1640.5</ele>
        <time>2023-07-02T11:39:10+0200</time>
      </trkpt>
      <trkpt lat="44.96719" lon="6.6603">
        <ele>1640.4</ele>
        <time>2023-07-02T11:39:13+0200</time>
      </trkpt>
      <trkpt lat="44.96725" lon="6.66026">
        <ele>1639.8</ele>
        <time>2023-07-02T11:39:17+0200</time>
      </trkpt>
      <trkpt lat="44.9673" lon="6.66022">
        <ele>1639.3</ele>
        <time>2023-07-02T11:39:20+0200</time>
      </trkpt>
      <trkpt lat="44.96735" lon="6.66017">
        <ele>1639.2</ele>
        <time>2023-07-02T11:39:23+0200</time>
      </trkpt>
      <trkpt lat="44.96739" lon="6.66014">
        <ele>1638.9</ele>
        <time>2023-07-02T11:39:25+0200</time>
      </trkpt>
      <trkpt lat="44.96744" lon="6.66011">
        <ele>1638.5</ele>
        <time>2023-07-02T11:39:29+0200</time>
      </trkpt>
      <trkpt lat="44.96746" lon="6.66004">
        <ele>1640</ele>
        <time>2023-07-02T11:39:31+0200</time>
      </trkpt>
      <trkpt lat="44.96747" lon="6.65998">
        <ele>1641.5</ele>
        <time>2023-07-02T11:39:35+0200</time>
      </trkpt>
      <trkpt lat="44.96749" lon="6.65991">
        <ele>1643</ele>
        <time>2023-07-02T11:39:42+0200</time>
      </trkpt>
      <trkpt lat="44.96753" lon="6.65997">
        <ele>1640.1</ele>
        <time>2023-07-02T11:40:26+0200</time>
      </trkpt>
      <trkpt lat="44.96758" lon="6.65992">
        <ele>1639.8</ele>
        <time>2023-07-02T11:40:30+0200</time>
      </trkpt>
      <trkpt lat="44.9676" lon="6.65986">
        <ele>1640.6</ele>
        <time>2023-07-02T11:40:32+0200</time>
      </trkpt>
      <trkpt lat="44.96765" lon="6.65981">
        <ele>1640.8</ele>
        <time>2023-07-02T11:40:35+0200</time>
      </trkpt>
      <trkpt lat="44.96768" lon="6.65975">
        <ele>1641.6</ele>
        <time>2023-07-02T11:40:39+0200</time>
      </trkpt>
      <trkpt lat="44.96771" lon="6.6597">
        <ele>1641.6</ele>
        <time>2023-07-02T11:40:41+0200</time>
      </trkpt>
      <trkpt lat="44.96774" lon="6.65961">
        <ele>1642.5</ele>
        <time>2023-07-02T11:40:44+0200</time>
      </trkpt>
      <trkpt lat="44.96777" lon="6.65956">
        <ele>1642.6</ele>
        <time>2023-07-02T11:40:46+0200</time>
      </trkpt>
      <trkpt lat="44.96779" lon="6.6595">
        <ele>1643.1</ele>
        <time>2023-07-02T11:40:48+0200</time>
      </trkpt>
      <trkpt lat="44.96781" lon="6.65943">
        <ele>1643.9</ele>
        <time>2023-07-02T11:40:50+0200</time>
      </trkpt>
      <trkpt lat="44.96784" lon="6.65937">
        <ele>1643.4</ele>
        <time>2023-07-02T11:40:53+0200</time>
      </trkpt>
      <trkpt lat="44.96789" lon="6.6593">
        <ele>1642.5</ele>
        <time>2023-07-02T11:40:56+0200</time>
      </trkpt>
      <trkpt lat="44.96791" lon="6.65921">
        <ele>1642.7</ele>
        <time>2023-07-02T11:40:59+0200</time>
      </trkpt>
      <trkpt lat="44.96792" lon="6.65912">
        <ele>1643.2</ele>
        <time>2023-07-02T11:41:01+0200</time>
      </trkpt>
      <trkpt lat="44.96794" lon="6.65903">
        <ele>1643.4</ele>
        <time>2023-07-02T11:41:04+0200</time>
      </trkpt>
      <trkpt lat="44.96796" lon="6.65895">
        <ele>1643.8</ele>
        <time>2023-07-02T11:41:07+0200</time>
      </trkpt>
      <trkpt lat="44.96797" lon="6.65885">
        <ele>1644.8</ele>
        <time>2023-07-02T11:41:10+0200</time>
      </trkpt>
      <trkpt lat="44.96797" lon="6.65876">
        <ele>1646.1</ele>
        <time>2023-07-02T11:41:13+0200</time>
      </trkpt>
      <trkpt lat="44.96796" lon="6.65868">
        <ele>1647.9</ele>
        <time>2023-07-02T11:41:15+0200</time>
      </trkpt>
      <trkpt lat="44.96794" lon="6.65858">
        <ele>1649.9</ele>
        <time>2023-07-02T11:41:18+0200</time>
      </trkpt>
      <trkpt lat="44.96793" lon="6.65851">
        <ele>1651.1</ele>
        <time>2023-07-02T11:41:20+0200</time>
      </trkpt>
      <trkpt lat="44.96791" lon="6.65844">
        <ele>1652.9</ele>
        <time>2023-07-02T11:41:22+0200</time>
      </trkpt>
      <trkpt lat="44.96789" lon="6.65838">
        <ele>1654.4</ele>
        <time>2023-07-02T11:41:24+0200</time>
      </trkpt>
      <trkpt lat="44.96788" lon="6.65832">
        <ele>1655.4</ele>
        <time>2023-07-02T11:41:27+0200</time>
      </trkpt>
      <trkpt lat="44.96788" lon="6.65826">
        <ele>1656</ele>
        <time>2023-07-02T11:41:29+0200</time>
      </trkpt>
      <trkpt lat="44.96787" lon="6.65818">
        <ele>1657.1</ele>
        <time>2023-07-02T11:41:31+0200</time>
      </trkpt>
      <trkpt lat="44.96785" lon="6.65811">
        <ele>1658.4</ele>
        <time>2023-07-02T11:41:34+0200</time>
      </trkpt>
      <trkpt lat="44.96782" lon="6.65804">
        <ele>1660.1</ele>
        <time>2023-07-02T11:41:37+0200</time>
      </trkpt>
      <trkpt lat="44.96781" lon="6.65796">
        <ele>1661.3</ele>
        <time>2023-07-02T11:41:40+0200</time>
      </trkpt>
      <trkpt lat="44.96776" lon="6.65793">
        <ele>1663.3</ele>
        <time>2023-07-02T11:41:42+0200</time>
      </trkpt>
      <trkpt lat="44.96771" lon="6.65793">
        <ele>1665.6</ele>
        <time>2023-07-02T11:41:44+0200</time>
      </trkpt>
      <trkpt lat="44.96765" lon="6.65794">
        <ele>1668.1</ele>
        <time>2023-07-02T11:41:47+0200</time>
      </trkpt>
      <trkpt lat="44.96759" lon="6.65799">
        <ele>1670.6</ele>
        <time>2023-07-02T11:41:50+0200</time>
      </trkpt>
      <trkpt lat="44.96758" lon="6.65807">
        <ele>1670.3</ele>
        <time>2023-07-02T11:41:53+0200</time>
      </trkpt>
      <trkpt lat="44.96757" lon="6.65814">
        <ele>1670.1</ele>
        <time>2023-07-02T11:41:55+0200</time>
      </trkpt>
      <trkpt lat="44.96757" lon="6.65821">
        <ele>1669.8</ele>
        <time>2023-07-02T11:41:57+0200</time>
      </trkpt>
      <trkpt lat="44.96756" lon="6.65828">
        <ele>1669.6</ele>
        <time>2023-07-02T11:42:00+0200</time>
      </trkpt>
      <trkpt lat="44.96752" lon="6.65833">
        <ele>1671.3</ele>
        <time>2023-07-02T11:42:03+0200</time>
      </trkpt>
      <trkpt lat="44.96749" lon="6.6584">
        <ele>1671.5</ele>
        <time>2023-07-02T11:42:06+0200</time>
      </trkpt>
      <trkpt lat="44.96746" lon="6.65846">
        <ele>1672.2</ele>
        <time>2023-07-02T11:42:09+0200</time>
      </trkpt>
      <trkpt lat="44.96744" lon="6.65854">
        <ele>1672.2</ele>
        <time>2023-07-02T11:42:12+0200</time>
      </trkpt>
      <trkpt lat="44.96743" lon="6.6586">
        <ele>1671.9</ele>
        <time>2023-07-02T11:42:15+0200</time>
      </trkpt>
      <trkpt lat="44.96739" lon="6.65866">
        <ele>1672.9</ele>
        <time>2023-07-02T11:42:17+0200</time>
      </trkpt>
      <trkpt lat="44.96736" lon="6.65873">
        <ele>1673.4</ele>
        <time>2023-07-02T11:42:19+0200</time>
      </trkpt>
      <trkpt lat="44.96734" lon="6.6588">
        <ele>1673.4</ele>
        <time>2023-07-02T11:42:22+0200</time>
      </trkpt>
      <trkpt lat="44.96729" lon="6.65882">
        <ele>1675.2</ele>
        <time>2023-07-02T11:42:25+0200</time>
      </trkpt>
      <trkpt lat="44.96724" lon="6.65883">
        <ele>1677.1</ele>
        <time>2023-07-02T11:42:28+0200</time>
      </trkpt>
      <trkpt lat="44.96719" lon="6.65883">
        <ele>1678.6</ele>
        <time>2023-07-02T11:42:31+0200</time>
      </trkpt>
      <trkpt lat="44.96712" lon="6.65888">
        <ele>1680</ele>
        <time>2023-07-02T11:42:35+0200</time>
      </trkpt>
      <trkpt lat="44.96707" lon="6.6589">
        <ele>1681.2</ele>
        <time>2023-07-02T11:42:37+0200</time>
      </trkpt>
      <trkpt lat="44.96702" lon="6.65897">
        <ele>1681.4</ele>
        <time>2023-07-02T11:42:40+0200</time>
      </trkpt>
      <trkpt lat="44.96696" lon="6.65899">
        <ele>1682.8</ele>
        <time>2023-07-02T11:42:42+0200</time>
      </trkpt>
      <trkpt lat="44.96692" lon="6.65904">
        <ele>1682.9</ele>
        <time>2023-07-02T11:42:46+0200</time>
      </trkpt>
      <trkpt lat="44.96686" lon="6.65907">
        <ele>1684</ele>
        <time>2023-07-02T11:42:48+0200</time>
      </trkpt>
      <trkpt lat="44.96682" lon="6.65914">
        <ele>1684.1</ele>
        <time>2023-07-02T11:42:51+0200</time>
      </trkpt>
      <trkpt lat="44.96678" lon="6.65919">
        <ele>1684.4</ele>
        <time>2023-07-02T11:42:53+0200</time>
      </trkpt>
      <trkpt lat="44.96674" lon="6.65925">
        <ele>1684.5</ele>
        <time>2023-07-02T11:42:55+0200</time>
      </trkpt>
      <trkpt lat="44.96669" lon="6.65928">
        <ele>1685.4</ele>
        <time>2023-07-02T11:42:58+0200</time>
      </trkpt>
      <trkpt lat="44.96664" lon="6.6593">
        <ele>1686.3</ele>
        <time>2023-07-02T11:43:01+0200</time>
      </trkpt>
      <trkpt lat="44.96659" lon="6.65931">
        <ele>1687.4</ele>
        <time>2023-07-02T11:43:04+0200</time>
      </trkpt>
      <trkpt lat="44.96655" lon="6.65936">
        <ele>1687.7</ele>
        <time>2023-07-02T11:43:07+0200</time>
      </trkpt>
      <trkpt lat="44.96651" lon="6.65929">
        <ele>1689.6</ele>
        <time>2023-07-02T11:43:12+0200</time>
      </trkpt>
      <trkpt lat="44.96648" lon="6.65923">
        <ele>1691.2</ele>
        <time>2023-07-02T11:43:15+0200</time>
      </trkpt>
      <trkpt lat="44.96646" lon="6.65916">
        <ele>1692.5</ele>
        <time>2023-07-02T11:43:18+0200</time>
      </trkpt>
      <trkpt lat="44.9664" lon="6.65912">
        <ele>1694.1</ele>
        <time>2023-07-02T11:43:21+0200</time>
      </trkpt>
      <trkpt lat="44.96632" lon="6.65913">
        <ele>1696.2</ele>
        <time>2023-07-02T11:43:24+0200</time>
      </trkpt>
      <trkpt lat="44.96627" lon="6.65915">
        <ele>1697.4</ele>
        <time>2023-07-02T11:43:26+0200</time>
      </trkpt>
      <trkpt lat="44.96624" lon="6.65921">
        <ele>1697.8</ele>
        <time>2023-07-02T11:43:29+0200</time>
      </trkpt>
      <trkpt lat="44.96627" lon="6.65929">
        <ele>1696.2</ele>
        <time>2023-07-02T11:43:31+0200</time>
      </trkpt>
      <trkpt lat="44.96629" lon="6.65938">
        <ele>1695</ele>
        <time>2023-07-02T11:43:33+0200</time>
      </trkpt>
      <trkpt lat="44.9663" lon="6.65945">
        <ele>1694</ele>
        <time>2023-07-02T11:43:35+0200</time>
      </trkpt>
      <trkpt lat="44.96631" lon="6.65952">
        <ele>1692.5</ele>
        <time>2023-07-02T11:43:37+0200</time>
      </trkpt>
      <trkpt lat="44.9663" lon="6.65958">
        <ele>1692.1</ele>
        <time>2023-07-02T11:43:39+0200</time>
      </trkpt>
      <trkpt lat="44.96627" lon="6.65965">
        <ele>1692.3</ele>
        <time>2023-07-02T11:43:42+0200</time>
      </trkpt>
      <trkpt lat="44.96621" lon="6.65967">
        <ele>1693.9</ele>
        <time>2023-07-02T11:43:45+0200</time>
      </trkpt>
      <trkpt lat="44.96616" lon="6.65966">
        <ele>1695.8</ele>
        <time>2023-07-02T11:43:48+0200</time>
      </trkpt>
      <trkpt lat="44.96613" lon="6.6596">
        <ele>1697.7</ele>
        <time>2023-07-02T11:43:53+0200</time>
      </trkpt>
      <trkpt lat="44.96613" lon="6.65952">
        <ele>1698.7</ele>
        <time>2023-07-02T11:43:56+0200</time>
      </trkpt>
      <trkpt lat="44.96611" lon="6.65943">
        <ele>1700.3</ele>
        <time>2023-07-02T11:43:59+0200</time>
      </trkpt>
      <trkpt lat="44.96611" lon="6.65935">
        <ele>1700.8</ele>
        <time>2023-07-02T11:44:01+0200</time>
      </trkpt>
      <trkpt lat="44.9661" lon="6.65927">
        <ele>1701.9</ele>
        <time>2023-07-02T11:44:04+0200</time>
      </trkpt>
      <trkpt lat="44.96609" lon="6.6592">
        <ele>1702.6</ele>
        <time>2023-07-02T11:44:07+0200</time>
      </trkpt>
      <trkpt lat="44.96609" lon="6.65913">
        <ele>1703.1</ele>
        <time>2023-07-02T11:44:10+0200</time>
      </trkpt>
      <trkpt lat="44.96609" lon="6.65905">
        <ele>1703.9</ele>
        <time>2023-07-02T11:44:12+0200</time>
      </trkpt>
      <trkpt lat="44.96608" lon="6.65897">
        <ele>1704.6</ele>
        <time>2023-07-02T11:44:14+0200</time>
      </trkpt>
      <trkpt lat="44.96607" lon="6.6589">
        <ele>1705.7</ele>
        <time>2023-07-02T11:44:16+0200</time>
      </trkpt>
      <trkpt lat="44.96607" lon="6.65883">
        <ele>1705.7</ele>
        <time>2023-07-02T11:44:18+0200</time>
      </trkpt>
      <trkpt lat="44.96611" lon="6.65877">
        <ele>1704</ele>
        <time>2023-07-02T11:44:21+0200</time>
      </trkpt>
      <trkpt lat="44.96613" lon="6.65872">
        <ele>1703.4</ele>
        <time>2023-07-02T11:44:24+0200</time>
      </trkpt>
      <trkpt lat="44.96615" lon="6.65863">
        <ele>1703.1</ele>
        <time>2023-07-02T11:44:27+0200</time>
      </trkpt>
      <trkpt lat="44.96616" lon="6.65857">
        <ele>1703.1</ele>
        <time>2023-07-02T11:44:30+0200</time>
      </trkpt>
      <trkpt lat="44.96616" lon="6.65849">
        <ele>1703.4</ele>
        <time>2023-07-02T11:44:32+0200</time>
      </trkpt>
      <trkpt lat="44.96616" lon="6.65841">
        <ele>1703.7</ele>
        <time>2023-07-02T11:44:34+0200</time>
      </trkpt>
      <trkpt lat="44.96617" lon="6.65834">
        <ele>1703.8</ele>
        <time>2023-07-02T11:44:36+0200</time>
      </trkpt>
      <trkpt lat="44.96615" lon="6.65826">
        <ele>1704.4</ele>
        <time>2023-07-02T11:44:39+0200</time>
      </trkpt>
      <trkpt lat="44.96614" lon="6.65817">
        <ele>1704.9</ele>
        <time>2023-07-02T11:44:42+0200</time>
      </trkpt>
      <trkpt lat="44.96611" lon="6.65813">
        <ele>1705.8</ele>
        <time>2023-07-02T11:44:44+0200</time>
      </trkpt>
      <trkpt lat="44.96608" lon="6.65806">
        <ele>1707</ele>
        <time>2023-07-02T11:44:46+0200</time>
      </trkpt>
      <trkpt lat="44.96605" lon="6.658">
        <ele>1708.7</ele>
        <time>2023-07-02T11:44:49+0200</time>
      </trkpt>
      <trkpt lat="44.96603" lon="6.65794">
        <ele>1710.1</ele>
        <time>2023-07-02T11:44:53+0200</time>
      </trkpt>
      <trkpt lat="44.96602" lon="6.65787">
        <ele>1710.9</ele>
        <time>2023-07-02T11:44:56+0200</time>
      </trkpt>
      <trkpt lat="44.96599" lon="6.6578">
        <ele>1712.7</ele>
        <time>2023-07-02T11:45:00+0200</time>
      </trkpt>
      <trkpt lat="44.96596" lon="6.65776">
        <ele>1714.3</ele>
        <time>2023-07-02T11:45:02+0200</time>
      </trkpt>
      <trkpt lat="44.96593" lon="6.65768">
        <ele>1716.3</ele>
        <time>2023-07-02T11:45:05+0200</time>
      </trkpt>
      <trkpt lat="44.96591" lon="6.65761">
        <ele>1718.2</ele>
        <time>2023-07-02T11:45:08+0200</time>
      </trkpt>
      <trkpt lat="44.96593" lon="6.65753">
        <ele>1718.7</ele>
        <time>2023-07-02T11:45:11+0200</time>
      </trkpt>
      <trkpt lat="44.96598" lon="6.6575">
        <ele>1717.9</ele>
        <time>2023-07-02T11:45:14+0200</time>
      </trkpt>
      <trkpt lat="44.96603" lon="6.65747">
        <ele>1716.9</ele>
        <time>2023-07-02T11:45:17+0200</time>
      </trkpt>
      <trkpt lat="44.9661" lon="6.65749">
        <ele>1714.8</ele>
        <time>2023-07-02T11:45:20+0200</time>
      </trkpt>
      <trkpt lat="44.96615" lon="6.65745">
        <ele>1714.7</ele>
        <time>2023-07-02T11:45:23+0200</time>
      </trkpt>
      <trkpt lat="44.96619" lon="6.65741">
        <ele>1715.2</ele>
        <time>2023-07-02T11:45:26+0200</time>
      </trkpt>
      <trkpt lat="44.96624" lon="6.65739">
        <ele>1715.2</ele>
        <time>2023-07-02T11:45:28+0200</time>
      </trkpt>
      <trkpt lat="44.96629" lon="6.65736">
        <ele>1715.2</ele>
        <time>2023-07-02T11:45:31+0200</time>
      </trkpt>
      <trkpt lat="44.96634" lon="6.65734">
        <ele>1715.3</ele>
        <time>2023-07-02T11:45:33+0200</time>
      </trkpt>
      <trkpt lat="44.9664" lon="6.65732">
        <ele>1715.1</ele>
        <time>2023-07-02T11:45:36+0200</time>
      </trkpt>
      <trkpt lat="44.96646" lon="6.65731">
        <ele>1714.6</ele>
        <time>2023-07-02T11:45:39+0200</time>
      </trkpt>
      <trkpt lat="44.9665" lon="6.65729">
        <ele>1714.5</ele>
        <time>2023-07-02T11:45:41+0200</time>
      </trkpt>
      <trkpt lat="44.96656" lon="6.65728">
        <ele>1714</ele>
        <time>2023-07-02T11:45:44+0200</time>
      </trkpt>
      <trkpt lat="44.96663" lon="6.65729">
        <ele>1712.7</ele>
        <time>2023-07-02T11:45:47+0200</time>
      </trkpt>
      <trkpt lat="44.96667" lon="6.65727">
        <ele>1712.5</ele>
        <time>2023-07-02T11:45:50+0200</time>
      </trkpt>
      <trkpt lat="44.96672" lon="6.65723">
        <ele>1712.7</ele>
        <time>2023-07-02T11:45:52+0200</time>
      </trkpt>
      <trkpt lat="44.96676" lon="6.65718">
        <ele>1713.5</ele>
        <time>2023-07-02T11:45:54+0200</time>
      </trkpt>
      <trkpt lat="44.96681" lon="6.65712">
        <ele>1714.5</ele>
        <time>2023-07-02T11:45:57+0200</time>
      </trkpt>
      <trkpt lat="44.96684" lon="6.65704">
        <ele>1716.8</ele>
        <time>2023-07-02T11:46:00+0200</time>
      </trkpt>
      <trkpt lat="44.96688" lon="6.657">
        <ele>1717.5</ele>
        <time>2023-07-02T11:46:03+0200</time>
      </trkpt>
      <trkpt lat="44.96692" lon="6.65696">
        <ele>1717.8</ele>
        <time>2023-07-02T11:46:06+0200</time>
      </trkpt>
      <trkpt lat="44.96696" lon="6.65688">
        <ele>1719.4</ele>
        <time>2023-07-02T11:46:09+0200</time>
      </trkpt>
      <trkpt lat="44.96697" lon="6.65681">
        <ele>1721.4</ele>
        <time>2023-07-02T11:46:10+0200</time>
      </trkpt>
      <trkpt lat="44.96702" lon="6.65678">
        <ele>1720.3</ele>
        <time>2023-07-02T11:46:13+0200</time>
      </trkpt>
      <trkpt lat="44.96707" lon="6.65673">
        <ele>1720.2</ele>
        <time>2023-07-02T11:46:16+0200</time>
      </trkpt>
      <trkpt lat="44.96712" lon="6.65665">
        <ele>1720.6</ele>
        <time>2023-07-02T11:46:19+0200</time>
      </trkpt>
      <trkpt lat="44.96714" lon="6.65658">
        <ele>1721.7</ele>
        <time>2023-07-02T11:46:21+0200</time>
      </trkpt>
      <trkpt lat="44.96716" lon="6.65651">
        <ele>1722.3</ele>
        <time>2023-07-02T11:46:23+0200</time>
      </trkpt>
      <trkpt lat="44.9672" lon="6.65645">
        <ele>1722.5</ele>
        <time>2023-07-02T11:46:25+0200</time>
      </trkpt>
      <trkpt lat="44.96721" lon="6.65638">
        <ele>1723.8</ele>
        <time>2023-07-02T11:46:28+0200</time>
      </trkpt>
      <trkpt lat="44.96721" lon="6.65631">
        <ele>1725</ele>
        <time>2023-07-02T11:46:31+0200</time>
      </trkpt>
      <trkpt lat="44.96721" lon="6.65624">
        <ele>1726.4</ele>
        <time>2023-07-02T11:46:34+0200</time>
      </trkpt>
      <trkpt lat="44.9672" lon="6.65615">
        <ele>1728.2</ele>
        <time>2023-07-02T11:46:38+0200</time>
      </trkpt>
      <trkpt lat="44.96719" lon="6.65607">
        <ele>1729.9</ele>
        <time>2023-07-02T11:46:42+0200</time>
      </trkpt>
      <trkpt lat="44.96718" lon="6.656">
        <ele>1731.3</ele>
        <time>2023-07-02T11:46:46+0200</time>
      </trkpt>
      <trkpt lat="44.96717" lon="6.65592">
        <ele>1732.6</ele>
        <time>2023-07-02T11:46:50+0200</time>
      </trkpt>
      <trkpt lat="44.96717" lon="6.65586">
        <ele>1733.1</ele>
        <time>2023-07-02T11:46:54+0200</time>
      </trkpt>
      <trkpt lat="44.96719" lon="6.65578">
        <ele>1733.4</ele>
        <time>2023-07-02T11:46:59+0200</time>
      </trkpt>
      <trkpt lat="44.96718" lon="6.65571">
        <ele>1734.6</ele>
        <time>2023-07-02T11:47:02+0200</time>
      </trkpt>
      <trkpt lat="44.96718" lon="6.65562">
        <ele>1735.6</ele>
        <time>2023-07-02T11:47:07+0200</time>
      </trkpt>
      <trkpt lat="44.96719" lon="6.65553">
        <ele>1736.1</ele>
        <time>2023-07-02T11:47:11+0200</time>
      </trkpt>
      <trkpt lat="44.96717" lon="6.65547">
        <ele>1737.8</ele>
        <time>2023-07-02T11:47:15+0200</time>
      </trkpt>
      <trkpt lat="44.96715" lon="6.65539">
        <ele>1739.5</ele>
        <time>2023-07-02T11:47:18+0200</time>
      </trkpt>
      <trkpt lat="44.96716" lon="6.65531">
        <ele>1739.6</ele>
        <time>2023-07-02T11:47:22+0200</time>
      </trkpt>
      <trkpt lat="44.96718" lon="6.65524">
        <ele>1739.8</ele>
        <time>2023-07-02T11:47:25+0200</time>
      </trkpt>
      <trkpt lat="44.96718" lon="6.65518">
        <ele>1740.5</ele>
        <time>2023-07-02T11:47:28+0200</time>
      </trkpt>
      <trkpt lat="44.9672" lon="6.6551">
        <ele>1740.9</ele>
        <time>2023-07-02T11:47:32+0200</time>
      </trkpt>
      <trkpt lat="44.96718" lon="6.65502">
        <ele>1742.6</ele>
        <time>2023-07-02T11:47:35+0200</time>
      </trkpt>
      <trkpt lat="44.96715" lon="6.65496">
        <ele>1745.2</ele>
        <time>2023-07-02T11:47:37+0200</time>
      </trkpt>
      <trkpt lat="44.9671" lon="6.65495">
        <ele>1747.7</ele>
        <time>2023-07-02T11:47:40+0200</time>
      </trkpt>
      <trkpt lat="44.96705" lon="6.655">
        <ele>1748.8</ele>
        <time>2023-07-02T11:47:43+0200</time>
      </trkpt>
      <trkpt lat="44.967" lon="6.65506">
        <ele>1750.8</ele>
        <time>2023-07-02T11:47:46+0200</time>
      </trkpt>
      <trkpt lat="44.967" lon="6.65516">
        <ele>1749.7</ele>
        <time>2023-07-02T11:47:50+0200</time>
      </trkpt>
      <trkpt lat="44.96698" lon="6.65523">
        <ele>1749.6</ele>
        <time>2023-07-02T11:47:53+0200</time>
      </trkpt>
      <trkpt lat="44.96698" lon="6.65531">
        <ele>1748.8</ele>
        <time>2023-07-02T11:47:56+0200</time>
      </trkpt>
      <trkpt lat="44.96697" lon="6.6554">
        <ele>1748.6</ele>
        <time>2023-07-02T11:47:59+0200</time>
      </trkpt>
      <trkpt lat="44.96694" lon="6.65547">
        <ele>1749.2</ele>
        <time>2023-07-02T11:48:02+0200</time>
      </trkpt>
      <trkpt lat="44.96693" lon="6.65555">
        <ele>1748.8</ele>
        <time>2023-07-02T11:48:04+0200</time>
      </trkpt>
      <trkpt lat="44.9669" lon="6.65561">
        <ele>1749.2</ele>
        <time>2023-07-02T11:48:07+0200</time>
      </trkpt>
      <trkpt lat="44.96688" lon="6.6557">
        <ele>1749.3</ele>
        <time>2023-07-02T11:48:10+0200</time>
      </trkpt>
      <trkpt lat="44.96682" lon="6.65574">
        <ele>1750.9</ele>
        <time>2023-07-02T11:48:13+0200</time>
      </trkpt>
      <trkpt lat="44.96679" lon="6.65579">
        <ele>1751.6</ele>
        <time>2023-07-02T11:48:16+0200</time>
      </trkpt>
      <trkpt lat="44.96675" lon="6.65582">
        <ele>1752.9</ele>
        <time>2023-07-02T11:48:18+0200</time>
      </trkpt>
      <trkpt lat="44.9667" lon="6.65585">
        <ele>1754.5</ele>
        <time>2023-07-02T11:48:21+0200</time>
      </trkpt>
      <trkpt lat="44.96662" lon="6.65588">
        <ele>1756.7</ele>
        <time>2023-07-02T11:48:26+0200</time>
      </trkpt>
      <trkpt lat="44.96658" lon="6.6559">
        <ele>1757.7</ele>
        <time>2023-07-02T11:48:28+0200</time>
      </trkpt>
      <trkpt lat="44.96654" lon="6.65594">
        <ele>1758.4</ele>
        <time>2023-07-02T11:48:31+0200</time>
      </trkpt>
      <trkpt lat="44.9665" lon="6.656">
        <ele>1758.7</ele>
        <time>2023-07-02T11:48:34+0200</time>
      </trkpt>
      <trkpt lat="44.96646" lon="6.65607">
        <ele>1758.7</ele>
        <time>2023-07-02T11:48:37+0200</time>
      </trkpt>
      <trkpt lat="44.96645" lon="6.65615">
        <ele>1756.8</ele>
        <time>2023-07-02T11:48:40+0200</time>
      </trkpt>
      <trkpt lat="44.96641" lon="6.65619">
        <ele>1756.7</ele>
        <time>2023-07-02T11:48:42+0200</time>
      </trkpt>
      <trkpt lat="44.96636" lon="6.65623">
        <ele>1756.2</ele>
        <time>2023-07-02T11:48:46+0200</time>
      </trkpt>
      <trkpt lat="44.96628" lon="6.65626">
        <ele>1757</ele>
        <time>2023-07-02T11:48:49+0200</time>
      </trkpt>
      <trkpt lat="44.96623" lon="6.65626">
        <ele>1758</ele>
        <time>2023-07-02T11:48:51+0200</time>
      </trkpt>
      <trkpt lat="44.96619" lon="6.65622">
        <ele>1760.4</ele>
        <time>2023-07-02T11:48:53+0200</time>
      </trkpt>
      <trkpt lat="44.96619" lon="6.65614">
        <ele>1763.1</ele>
        <time>2023-07-02T11:48:56+0200</time>
      </trkpt>
      <trkpt lat="44.96624" lon="6.65612">
        <ele>1763</ele>
        <time>2023-07-02T11:48:59+0200</time>
      </trkpt>
      <trkpt lat="44.96629" lon="6.65614">
        <ele>1761.3</ele>
        <time>2023-07-02T11:49:02+0200</time>
      </trkpt>
      <trkpt lat="44.96635" lon="6.65609">
        <ele>1761.4</ele>
        <time>2023-07-02T11:49:05+0200</time>
      </trkpt>
      <trkpt lat="44.9664" lon="6.65607">
        <ele>1760.5</ele>
        <time>2023-07-02T11:49:07+0200</time>
      </trkpt>
      <trkpt lat="44.96643" lon="6.65602">
        <ele>1760.6</ele>
        <time>2023-07-02T11:49:08+0200</time>
      </trkpt>
      <trkpt lat="44.96648" lon="6.65598">
        <ele>1759.6</ele>
        <time>2023-07-02T11:49:10+0200</time>
      </trkpt>
      <trkpt lat="44.96652" lon="6.65588">
        <ele>1760.3</ele>
        <time>2023-07-02T11:49:12+0200</time>
      </trkpt>
      <trkpt lat="44.96655" lon="6.65579">
        <ele>1760.7</ele>
        <time>2023-07-02T11:49:14+0200</time>
      </trkpt>
      <trkpt lat="44.96659" lon="6.65571">
        <ele>1760.6</ele>
        <time>2023-07-02T11:49:17+0200</time>
      </trkpt>
      <trkpt lat="44.96661" lon="6.65564">
        <ele>1760.7</ele>
        <time>2023-07-02T11:49:19+0200</time>
      </trkpt>
      <trkpt lat="44.96664" lon="6.65557">
        <ele>1760.5</ele>
        <time>2023-07-02T11:49:21+0200</time>
      </trkpt>
      <trkpt lat="44.96668" lon="6.65554">
        <ele>1759.6</ele>
        <time>2023-07-02T11:49:24+0200</time>
      </trkpt>
      <trkpt lat="44.9667" lon="6.65545">
        <ele>1759.8</ele>
        <time>2023-07-02T11:49:27+0200</time>
      </trkpt>
      <trkpt lat="44.96672" lon="6.65539">
        <ele>1759.3</ele>
        <time>2023-07-02T11:49:30+0200</time>
      </trkpt>
      <trkpt lat="44.96672" lon="6.65531">
        <ele>1760.3</ele>
        <time>2023-07-02T11:49:32+0200</time>
      </trkpt>
      <trkpt lat="44.96673" lon="6.65524">
        <ele>1760.6</ele>
        <time>2023-07-02T11:49:34+0200</time>
      </trkpt>
      <trkpt lat="44.96671" lon="6.65517">
        <ele>1762</ele>
        <time>2023-07-02T11:49:36+0200</time>
      </trkpt>
      <trkpt lat="44.96669" lon="6.65508">
        <ele>1763.6</ele>
        <time>2023-07-02T11:49:39+0200</time>
      </trkpt>
      <trkpt lat="44.96668" lon="6.65502">
        <ele>1764.2</ele>
        <time>2023-07-02T11:49:41+0200</time>
      </trkpt>
      <trkpt lat="44.96669" lon="6.65493">
        <ele>1765</ele>
        <time>2023-07-02T11:49:44+0200</time>
      </trkpt>
      <trkpt lat="44.96669" lon="6.65486">
        <ele>1766.3</ele>
        <time>2023-07-02T11:49:47+0200</time>
      </trkpt>
      <trkpt lat="44.96666" lon="6.65478">
        <ele>1768.5</ele>
        <time>2023-07-02T11:49:51+0200</time>
      </trkpt>
      <trkpt lat="44.9666" lon="6.65475">
        <ele>1770.6</ele>
        <time>2023-07-02T11:49:54+0200</time>
      </trkpt>
      <trkpt lat="44.96655" lon="6.65476">
        <ele>1772.4</ele>
        <time>2023-07-02T11:49:59+0200</time>
      </trkpt>
      <trkpt lat="44.96649" lon="6.6548">
        <ele>1773.7</ele>
        <time>2023-07-02T11:50:01+0200</time>
      </trkpt>
      <trkpt lat="44.96646" lon="6.65485">
        <ele>1773.7</ele>
        <time>2023-07-02T11:50:03+0200</time>
      </trkpt>
      <trkpt lat="44.96642" lon="6.65493">
        <ele>1774</ele>
        <time>2023-07-02T11:50:06+0200</time>
      </trkpt>
      <trkpt lat="44.9664" lon="6.655">
        <ele>1773.5</ele>
        <time>2023-07-02T11:50:09+0200</time>
      </trkpt>
      <trkpt lat="44.96635" lon="6.65505">
        <ele>1774.8</ele>
        <time>2023-07-02T11:50:12+0200</time>
      </trkpt>
      <trkpt lat="44.96631" lon="6.65511">
        <ele>1775.7</ele>
        <time>2023-07-02T11:50:15+0200</time>
      </trkpt>
      <trkpt lat="44.96624" lon="6.65515">
        <ele>1777.4</ele>
        <time>2023-07-02T11:50:18+0200</time>
      </trkpt>
      <trkpt lat="44.96619" lon="6.65518">
        <ele>1778.7</ele>
        <time>2023-07-02T11:50:21+0200</time>
      </trkpt>
      <trkpt lat="44.96613" lon="6.65521">
        <ele>1780.1</ele>
        <time>2023-07-02T11:50:24+0200</time>
      </trkpt>
      <trkpt lat="44.96607" lon="6.65523">
        <ele>1781.8</ele>
        <time>2023-07-02T11:50:28+0200</time>
      </trkpt>
      <trkpt lat="44.96602" lon="6.6553">
        <ele>1782.7</ele>
        <time>2023-07-02T11:50:31+0200</time>
      </trkpt>
      <trkpt lat="44.96597" lon="6.65533">
        <ele>1784.1</ele>
        <time>2023-07-02T11:50:33+0200</time>
      </trkpt>
      <trkpt lat="44.96592" lon="6.65535">
        <ele>1785.3</ele>
        <time>2023-07-02T11:50:35+0200</time>
      </trkpt>
      <trkpt lat="44.96588" lon="6.65539">
        <ele>1786.3</ele>
        <time>2023-07-02T11:50:37+0200</time>
      </trkpt>
      <trkpt lat="44.96591" lon="6.65533">
        <ele>1786.1</ele>
        <time>2023-07-02T11:50:44+0200</time>
      </trkpt>
      <trkpt lat="44.96595" lon="6.65528">
        <ele>1785.2</ele>
        <time>2023-07-02T11:50:47+0200</time>
      </trkpt>
      <trkpt lat="44.96599" lon="6.65523">
        <ele>1784.4</ele>
        <time>2023-07-02T11:50:49+0200</time>
      </trkpt>
      <trkpt lat="44.96601" lon="6.65516">
        <ele>1784.7</ele>
        <time>2023-07-02T11:50:51+0200</time>
      </trkpt>
      <trkpt lat="44.96605" lon="6.65509">
        <ele>1784</ele>
        <time>2023-07-02T11:50:54+0200</time>
      </trkpt>
      <trkpt lat="44.96608" lon="6.65504">
        <ele>1783.4</ele>
        <time>2023-07-02T11:50:56+0200</time>
      </trkpt>
      <trkpt lat="44.96611" lon="6.65495">
        <ele>1783.8</ele>
        <time>2023-07-02T11:50:59+0200</time>
      </trkpt>
      <trkpt lat="44.96613" lon="6.65487">
        <ele>1784</ele>
        <time>2023-07-02T11:51:01+0200</time>
      </trkpt>
      <trkpt lat="44.96615" lon="6.65479">
        <ele>1784</ele>
        <time>2023-07-02T11:51:04+0200</time>
      </trkpt>
      <trkpt lat="44.96618" lon="6.65471">
        <ele>1784.3</ele>
        <time>2023-07-02T11:51:08+0200</time>
      </trkpt>
      <trkpt lat="44.96619" lon="6.65463">
        <ele>1785.2</ele>
        <time>2023-07-02T11:51:10+0200</time>
      </trkpt>
      <trkpt lat="44.96621" lon="6.65455">
        <ele>1785.9</ele>
        <time>2023-07-02T11:51:13+0200</time>
      </trkpt>
      <trkpt lat="44.96624" lon="6.65447">
        <ele>1786.3</ele>
        <time>2023-07-02T11:51:16+0200</time>
      </trkpt>
      <trkpt lat="44.96627" lon="6.65441">
        <ele>1786.8</ele>
        <time>2023-07-02T11:51:19+0200</time>
      </trkpt>
      <trkpt lat="44.96632" lon="6.65437">
        <ele>1786.6</ele>
        <time>2023-07-02T11:51:22+0200</time>
      </trkpt>
      <trkpt lat="44.96636" lon="6.65434">
        <ele>1785.9</ele>
        <time>2023-07-02T11:51:25+0200</time>
      </trkpt>
      <trkpt lat="44.96642" lon="6.65432">
        <ele>1784.9</ele>
        <time>2023-07-02T11:51:28+0200</time>
      </trkpt>
      <trkpt lat="44.96646" lon="6.65431">
        <ele>1784</ele>
        <time>2023-07-02T11:51:30+0200</time>
      </trkpt>
      <trkpt lat="44.96651" lon="6.65427">
        <ele>1783.6</ele>
        <time>2023-07-02T11:51:34+0200</time>
      </trkpt>
      <trkpt lat="44.96657" lon="6.65426">
        <ele>1782.1</ele>
        <time>2023-07-02T11:51:37+0200</time>
      </trkpt>
      <trkpt lat="44.96662" lon="6.6542">
        <ele>1782.3</ele>
        <time>2023-07-02T11:51:39+0200</time>
      </trkpt>
      <trkpt lat="44.96667" lon="6.65418">
        <ele>1781.5</ele>
        <time>2023-07-02T11:51:41+0200</time>
      </trkpt>
      <trkpt lat="44.96673" lon="6.65414">
        <ele>1780.9</ele>
        <time>2023-07-02T11:51:46+0200</time>
      </trkpt>
      <trkpt lat="44.96673" lon="6.65405">
        <ele>1783.7</ele>
        <time>2023-07-02T11:51:49+0200</time>
      </trkpt>
      <trkpt lat="44.96675" lon="6.65395">
        <ele>1786.3</ele>
        <time>2023-07-02T11:51:51+0200</time>
      </trkpt>
      <trkpt lat="44.96674" lon="6.65388">
        <ele>1788.8</ele>
        <time>2023-07-02T11:51:53+0200</time>
      </trkpt>
      <trkpt lat="44.9667" lon="6.65386">
        <ele>1790.9</ele>
        <time>2023-07-02T11:51:56+0200</time>
      </trkpt>
      <trkpt lat="44.96664" lon="6.65388">
        <ele>1791.8</ele>
        <time>2023-07-02T11:51:59+0200</time>
      </trkpt>
      <trkpt lat="44.96659" lon="6.6539">
        <ele>1792.6</ele>
        <time>2023-07-02T11:52:01+0200</time>
      </trkpt>
      <trkpt lat="44.96654" lon="6.65392">
        <ele>1793.4</ele>
        <time>2023-07-02T11:52:03+0200</time>
      </trkpt>
      <trkpt lat="44.96646" lon="6.65393">
        <ele>1794.9</ele>
        <time>2023-07-02T11:52:06+0200</time>
      </trkpt>
      <trkpt lat="44.96636" lon="6.65394">
        <ele>1797</ele>
        <time>2023-07-02T11:52:08+0200</time>
      </trkpt>
      <trkpt lat="44.96631" lon="6.65393">
        <ele>1798.9</ele>
        <time>2023-07-02T11:52:11+0200</time>
      </trkpt>
      <trkpt lat="44.96624" lon="6.65394">
        <ele>1800.1</ele>
        <time>2023-07-02T11:52:14+0200</time>
      </trkpt>
      <trkpt lat="44.9662" lon="6.65398">
        <ele>1800.1</ele>
        <time>2023-07-02T11:52:16+0200</time>
      </trkpt>
      <trkpt lat="44.96614" lon="6.65397">
        <ele>1801.7</ele>
        <time>2023-07-02T11:52:18+0200</time>
      </trkpt>
      <trkpt lat="44.96607" lon="6.65397">
        <ele>1804.1</ele>
        <time>2023-07-02T11:52:21+0200</time>
      </trkpt>
      <trkpt lat="44.96599" lon="6.65399">
        <ele>1805.8</ele>
        <time>2023-07-02T11:52:24+0200</time>
      </trkpt>
      <trkpt lat="44.96592" lon="6.65398">
        <ele>1807.9</ele>
        <time>2023-07-02T11:52:27+0200</time>
      </trkpt>
      <trkpt lat="44.96588" lon="6.65399">
        <ele>1808.9</ele>
        <time>2023-07-02T11:52:29+0200</time>
      </trkpt>
      <trkpt lat="44.96584" lon="6.65401">
        <ele>1809.4</ele>
        <time>2023-07-02T11:52:31+0200</time>
      </trkpt>
      <trkpt lat="44.96584" lon="6.65411">
        <ele>1806.5</ele>
        <time>2023-07-02T11:52:33+0200</time>
      </trkpt>
      <trkpt lat="44.96583" lon="6.65418">
        <ele>1805</ele>
        <time>2023-07-02T11:52:35+0200</time>
      </trkpt>
      <trkpt lat="44.96579" lon="6.65424">
        <ele>1805.1</ele>
        <time>2023-07-02T11:52:38+0200</time>
      </trkpt>
      <trkpt lat="44.96575" lon="6.65426">
        <ele>1806.5</ele>
        <time>2023-07-02T11:52:40+0200</time>
      </trkpt>
      <trkpt lat="44.96569" lon="6.65426">
        <ele>1808.8</ele>
        <time>2023-07-02T11:52:44+0200</time>
      </trkpt>
      <trkpt lat="44.96568" lon="6.65419">
        <ele>1810.2</ele>
        <time>2023-07-02T11:52:49+0200</time>
      </trkpt>
      <trkpt lat="44.9657" lon="6.65412">
        <ele>1811.3</ele>
        <time>2023-07-02T11:52:52+0200</time>
      </trkpt>
      <trkpt lat="44.96575" lon="6.65406">
        <ele>1810.9</ele>
        <time>2023-07-02T11:52:55+0200</time>
      </trkpt>
      <trkpt lat="44.96579" lon="6.65403">
        <ele>1810.3</ele>
        <time>2023-07-02T11:52:57+0200</time>
      </trkpt>
      <trkpt lat="44.96583" lon="6.65399">
        <ele>1810.1</ele>
        <time>2023-07-02T11:52:59+0200</time>
      </trkpt>
      <trkpt lat="44.96589" lon="6.65397">
        <ele>1808.9</ele>
        <time>2023-07-02T11:53:02+0200</time>
      </trkpt>
      <trkpt lat="44.96594" lon="6.65395">
        <ele>1808.3</ele>
        <time>2023-07-02T11:53:05+0200</time>
      </trkpt>
      <trkpt lat="44.966" lon="6.65392">
        <ele>1807.4</ele>
        <time>2023-07-02T11:53:08+0200</time>
      </trkpt>
      <trkpt lat="44.96605" lon="6.6539">
        <ele>1806.6</ele>
        <time>2023-07-02T11:53:11+0200</time>
      </trkpt>
      <trkpt lat="44.96609" lon="6.65386">
        <ele>1806.7</ele>
        <time>2023-07-02T11:53:13+0200</time>
      </trkpt>
      <trkpt lat="44.96612" lon="6.65381">
        <ele>1807.6</ele>
        <time>2023-07-02T11:53:16+0200</time>
      </trkpt>
      <trkpt lat="44.96617" lon="6.65378">
        <ele>1807.5</ele>
        <time>2023-07-02T11:53:19+0200</time>
      </trkpt>
      <trkpt lat="44.96622" lon="6.65374">
        <ele>1807.7</ele>
        <time>2023-07-02T11:53:22+0200</time>
      </trkpt>
      <trkpt lat="44.96625" lon="6.65368">
        <ele>1809</ele>
        <time>2023-07-02T11:53:24+0200</time>
      </trkpt>
      <trkpt lat="44.9663" lon="6.65366">
        <ele>1808.3</ele>
        <time>2023-07-02T11:53:27+0200</time>
      </trkpt>
      <trkpt lat="44.96636" lon="6.65364">
        <ele>1807.8</ele>
        <time>2023-07-02T11:53:30+0200</time>
      </trkpt>
      <trkpt lat="44.9664" lon="6.6536">
        <ele>1808.2</ele>
        <time>2023-07-02T11:53:32+0200</time>
      </trkpt>
      <trkpt lat="44.96645" lon="6.65358">
        <ele>1807.4</ele>
        <time>2023-07-02T11:53:34+0200</time>
      </trkpt>
      <trkpt lat="44.9665" lon="6.65354">
        <ele>1807.6</ele>
        <time>2023-07-02T11:53:37+0200</time>
      </trkpt>
      <trkpt lat="44.96653" lon="6.6535">
        <ele>1808</ele>
        <time>2023-07-02T11:53:39+0200</time>
      </trkpt>
      <trkpt lat="44.96657" lon="6.65343">
        <ele>1809.3</ele>
        <time>2023-07-02T11:53:41+0200</time>
      </trkpt>
      <trkpt lat="44.96662" lon="6.65341">
        <ele>1808.6</ele>
        <time>2023-07-02T11:53:44+0200</time>
      </trkpt>
      <trkpt lat="44.96665" lon="6.65335">
        <ele>1809.9</ele>
        <time>2023-07-02T11:53:47+0200</time>
      </trkpt>
      <trkpt lat="44.96668" lon="6.65331">
        <ele>1810</ele>
        <time>2023-07-02T11:53:49+0200</time>
      </trkpt>
      <trkpt lat="44.96671" lon="6.65323">
        <ele>1811.1</ele>
        <time>2023-07-02T11:53:52+0200</time>
      </trkpt>
      <trkpt lat="44.96672" lon="6.65316">
        <ele>1812.3</ele>
        <time>2023-07-02T11:53:54+0200</time>
      </trkpt>
      <trkpt lat="44.96675" lon="6.65307">
        <ele>1813.4</ele>
        <time>2023-07-02T11:53:57+0200</time>
      </trkpt>
      <trkpt lat="44.96677" lon="6.65299">
        <ele>1814.3</ele>
        <time>2023-07-02T11:54:01+0200</time>
      </trkpt>
      <trkpt lat="44.96677" lon="6.6529">
        <ele>1816.4</ele>
        <time>2023-07-02T11:54:04+0200</time>
      </trkpt>
      <trkpt lat="44.96679" lon="6.65285">
        <ele>1816.5</ele>
        <time>2023-07-02T11:54:06+0200</time>
      </trkpt>
      <trkpt lat="44.96678" lon="6.65274">
        <ele>1818.8</ele>
        <time>2023-07-02T11:54:09+0200</time>
      </trkpt>
      <trkpt lat="44.96677" lon="6.65265">
        <ele>1820.4</ele>
        <time>2023-07-02T11:54:11+0200</time>
      </trkpt>
      <trkpt lat="44.96676" lon="6.65256">
        <ele>1821.6</ele>
        <time>2023-07-02T11:54:13+0200</time>
      </trkpt>
      <trkpt lat="44.96676" lon="6.65247">
        <ele>1822.1</ele>
        <time>2023-07-02T11:54:16+0200</time>
      </trkpt>
      <trkpt lat="44.96678" lon="6.65238">
        <ele>1821.5</ele>
        <time>2023-07-02T11:54:19+0200</time>
      </trkpt>
      <trkpt lat="44.96677" lon="6.65231">
        <ele>1821.7</ele>
        <time>2023-07-02T11:54:21+0200</time>
      </trkpt>
      <trkpt lat="44.96677" lon="6.65224">
        <ele>1822</ele>
        <time>2023-07-02T11:54:24+0200</time>
      </trkpt>
      <trkpt lat="44.96677" lon="6.65217">
        <ele>1821.5</ele>
        <time>2023-07-02T11:54:26+0200</time>
      </trkpt>
      <trkpt lat="44.96674" lon="6.6521">
        <ele>1822.1</ele>
        <time>2023-07-02T11:54:28+0200</time>
      </trkpt>
      <trkpt lat="44.96673" lon="6.65203">
        <ele>1822.5</ele>
        <time>2023-07-02T11:54:31+0200</time>
      </trkpt>
      <trkpt lat="44.96667" lon="6.65204">
        <ele>1826</ele>
        <time>2023-07-02T11:54:34+0200</time>
      </trkpt>
      <trkpt lat="44.96663" lon="6.65212">
        <ele>1828.7</ele>
        <time>2023-07-02T11:54:37+0200</time>
      </trkpt>
      <trkpt lat="44.96659" lon="6.65218">
        <ele>1830.7</ele>
        <time>2023-07-02T11:54:39+0200</time>
      </trkpt>
      <trkpt lat="44.96658" lon="6.65229">
        <ele>1831</ele>
        <time>2023-07-02T11:54:42+0200</time>
      </trkpt>
      <trkpt lat="44.96659" lon="6.65238">
        <ele>1830.2</ele>
        <time>2023-07-02T11:54:45+0200</time>
      </trkpt>
      <trkpt lat="44.96658" lon="6.65245">
        <ele>1829.9</ele>
        <time>2023-07-02T11:54:47+0200</time>
      </trkpt>
      <trkpt lat="44.96659" lon="6.65253">
        <ele>1829.1</ele>
        <time>2023-07-02T11:54:49+0200</time>
      </trkpt>
      <trkpt lat="44.96659" lon="6.65261">
        <ele>1827.9</ele>
        <time>2023-07-02T11:54:52+0200</time>
      </trkpt>
      <trkpt lat="44.96657" lon="6.6527">
        <ele>1827.4</ele>
        <time>2023-07-02T11:54:55+0200</time>
      </trkpt>
      <trkpt lat="44.96654" lon="6.65278">
        <ele>1827.7</ele>
        <time>2023-07-02T11:54:58+0200</time>
      </trkpt>
      <trkpt lat="44.96649" lon="6.65282">
        <ele>1828.4</ele>
        <time>2023-07-02T11:55:00+0200</time>
      </trkpt>
      <trkpt lat="44.96645" lon="6.65287">
        <ele>1828.6</ele>
        <time>2023-07-02T11:55:03+0200</time>
      </trkpt>
      <trkpt lat="44.96641" lon="6.6529">
        <ele>1829.7</ele>
        <time>2023-07-02T11:55:05+0200</time>
      </trkpt>
      <trkpt lat="44.96637" lon="6.65292">
        <ele>1830.6</ele>
        <time>2023-07-02T11:55:07+0200</time>
      </trkpt>
      <trkpt lat="44.96632" lon="6.65294">
        <ele>1831.6</ele>
        <time>2023-07-02T11:55:09+0200</time>
      </trkpt>
      <trkpt lat="44.96628" lon="6.65296">
        <ele>1832.6</ele>
        <time>2023-07-02T11:55:11+0200</time>
      </trkpt>
      <trkpt lat="44.96622" lon="6.65298">
        <ele>1833.6</ele>
        <time>2023-07-02T11:55:14+0200</time>
      </trkpt>
      <trkpt lat="44.96618" lon="6.653">
        <ele>1834.7</ele>
        <time>2023-07-02T11:55:16+0200</time>
      </trkpt>
      <trkpt lat="44.96611" lon="6.65303">
        <ele>1835.8</ele>
        <time>2023-07-02T11:55:19+0200</time>
      </trkpt>
      <trkpt lat="44.96607" lon="6.65303">
        <ele>1837.1</ele>
        <time>2023-07-02T11:55:21+0200</time>
      </trkpt>
      <trkpt lat="44.96602" lon="6.65304">
        <ele>1838.2</ele>
        <time>2023-07-02T11:55:23+0200</time>
      </trkpt>
      <trkpt lat="44.96598" lon="6.65303">
        <ele>1839.8</ele>
        <time>2023-07-02T11:55:25+0200</time>
      </trkpt>
      <trkpt lat="44.96593" lon="6.65306">
        <ele>1840</ele>
        <time>2023-07-02T11:55:28+0200</time>
      </trkpt>
      <trkpt lat="44.96586" lon="6.6531">
        <ele>1840.4</ele>
        <time>2023-07-02T11:55:31+0200</time>
      </trkpt>
      <trkpt lat="44.96581" lon="6.65311">
        <ele>1841.5</ele>
        <time>2023-07-02T11:55:34+0200</time>
      </trkpt>
      <trkpt lat="44.96575" lon="6.65313">
        <ele>1842.6</ele>
        <time>2023-07-02T11:55:37+0200</time>
      </trkpt>
      <trkpt lat="44.9657" lon="6.65315">
        <ele>1843.5</ele>
        <time>2023-07-02T11:55:40+0200</time>
      </trkpt>
      <trkpt lat="44.96566" lon="6.6532">
        <ele>1843</ele>
        <time>2023-07-02T11:55:42+0200</time>
      </trkpt>
      <trkpt lat="44.96561" lon="6.65321">
        <ele>1844.2</ele>
        <time>2023-07-02T11:55:44+0200</time>
      </trkpt>
      <trkpt lat="44.96556" lon="6.6532">
        <ele>1846.3</ele>
        <time>2023-07-02T11:55:46+0200</time>
      </trkpt>
      <trkpt lat="44.96551" lon="6.65318">
        <ele>1848.7</ele>
        <time>2023-07-02T11:55:48+0200</time>
      </trkpt>
      <trkpt lat="44.96546" lon="6.65322">
        <ele>1848.9</ele>
        <time>2023-07-02T11:55:50+0200</time>
      </trkpt>
      <trkpt lat="44.96541" lon="6.65324">
        <ele>1849.6</ele>
        <time>2023-07-02T11:55:52+0200</time>
      </trkpt>
      <trkpt lat="44.96536" lon="6.65325">
        <ele>1851.2</ele>
        <time>2023-07-02T11:55:54+0200</time>
      </trkpt>
      <trkpt lat="44.9653" lon="6.65327">
        <ele>1852.4</ele>
        <time>2023-07-02T11:55:56+0200</time>
      </trkpt>
      <trkpt lat="44.96525" lon="6.6533">
        <ele>1852.9</ele>
        <time>2023-07-02T11:55:59+0200</time>
      </trkpt>
      <trkpt lat="44.96521" lon="6.65333">
        <ele>1853.6</ele>
        <time>2023-07-02T11:56:01+0200</time>
      </trkpt>
      <trkpt lat="44.96516" lon="6.65339">
        <ele>1853.7</ele>
        <time>2023-07-02T11:56:04+0200</time>
      </trkpt>
      <trkpt lat="44.96512" lon="6.65344">
        <ele>1854.6</ele>
        <time>2023-07-02T11:56:07+0200</time>
      </trkpt>
      <trkpt lat="44.96507" lon="6.65347">
        <ele>1855.8</ele>
        <time>2023-07-02T11:56:09+0200</time>
      </trkpt>
      <trkpt lat="44.96502" lon="6.65353">
        <ele>1856.2</ele>
        <time>2023-07-02T11:56:12+0200</time>
      </trkpt>
      <trkpt lat="44.96496" lon="6.65356">
        <ele>1857.6</ele>
        <time>2023-07-02T11:56:14+0200</time>
      </trkpt>
      <trkpt lat="44.96491" lon="6.65362">
        <ele>1857.9</ele>
        <time>2023-07-02T11:56:18+0200</time>
      </trkpt>
      <trkpt lat="44.96488" lon="6.65369">
        <ele>1857.2</ele>
        <time>2023-07-02T11:56:20+0200</time>
      </trkpt>
      <trkpt lat="44.9648" lon="6.65373">
        <ele>1859.6</ele>
        <time>2023-07-02T11:56:23+0200</time>
      </trkpt>
      <trkpt lat="44.96477" lon="6.65379">
        <ele>1859.5</ele>
        <time>2023-07-02T11:56:26+0200</time>
      </trkpt>
      <trkpt lat="44.96473" lon="6.65383">
        <ele>1860.3</ele>
        <time>2023-07-02T11:56:28+0200</time>
      </trkpt>
      <trkpt lat="44.96471" lon="6.65391">
        <ele>1859.2</ele>
        <time>2023-07-02T11:56:30+0200</time>
      </trkpt>
      <trkpt lat="44.96469" lon="6.65398">
        <ele>1859.2</ele>
        <time>2023-07-02T11:56:32+0200</time>
      </trkpt>
      <trkpt lat="44.96468" lon="6.65405">
        <ele>1858.5</ele>
        <time>2023-07-02T11:56:34+0200</time>
      </trkpt>
      <trkpt lat="44.96466" lon="6.65413">
        <ele>1858</ele>
        <time>2023-07-02T11:56:36+0200</time>
      </trkpt>
      <trkpt lat="44.96465" lon="6.65419">
        <ele>1857.5</ele>
        <time>2023-07-02T11:56:38+0200</time>
      </trkpt>
      <trkpt lat="44.96462" lon="6.65425">
        <ele>1858.6</ele>
        <time>2023-07-02T11:56:40+0200</time>
      </trkpt>
      <trkpt lat="44.96461" lon="6.65434">
        <ele>1858</ele>
        <time>2023-07-02T11:56:43+0200</time>
      </trkpt>
      <trkpt lat="44.96458" lon="6.65441">
        <ele>1858.4</ele>
        <time>2023-07-02T11:56:45+0200</time>
      </trkpt>
      <trkpt lat="44.96457" lon="6.65449">
        <ele>1858.7</ele>
        <time>2023-07-02T11:56:49+0200</time>
      </trkpt>
      <trkpt lat="44.96459" lon="6.65459">
        <ele>1857.9</ele>
        <time>2023-07-02T11:56:51+0200</time>
      </trkpt>
      <trkpt lat="44.9646" lon="6.65466">
        <ele>1857</ele>
        <time>2023-07-02T11:56:53+0200</time>
      </trkpt>
      <trkpt lat="44.9646" lon="6.65472">
        <ele>1857.4</ele>
        <time>2023-07-02T11:56:55+0200</time>
      </trkpt>
      <trkpt lat="44.96458" lon="6.65479">
        <ele>1858.4</ele>
        <time>2023-07-02T11:56:57+0200</time>
      </trkpt>
      <trkpt lat="44.9646" lon="6.65486">
        <ele>1857.7</ele>
        <time>2023-07-02T11:56:59+0200</time>
      </trkpt>
      <trkpt lat="44.96458" lon="6.65492">
        <ele>1859</ele>
        <time>2023-07-02T11:57:02+0200</time>
      </trkpt>
      <trkpt lat="44.96454" lon="6.65495">
        <ele>1861.2</ele>
        <time>2023-07-02T11:57:06+0200</time>
      </trkpt>
      <trkpt lat="44.96453" lon="6.65489">
        <ele>1861.4</ele>
        <time>2023-07-02T11:57:12+0200</time>
      </trkpt>
      <trkpt lat="44.96453" lon="6.6548">
        <ele>1860.8</ele>
        <time>2023-07-02T11:57:15+0200</time>
      </trkpt>
      <trkpt lat="44.96452" lon="6.65472">
        <ele>1861.3</ele>
        <time>2023-07-02T11:57:18+0200</time>
      </trkpt>
      <trkpt lat="44.96452" lon="6.65463">
        <ele>1861.1</ele>
        <time>2023-07-02T11:57:21+0200</time>
      </trkpt>
      <trkpt lat="44.96451" lon="6.65456">
        <ele>1861.9</ele>
        <time>2023-07-02T11:57:23+0200</time>
      </trkpt>
      <trkpt lat="44.96448" lon="6.65449">
        <ele>1863.1</ele>
        <time>2023-07-02T11:57:25+0200</time>
      </trkpt>
      <trkpt lat="44.96447" lon="6.6544">
        <ele>1864.2</ele>
        <time>2023-07-02T11:57:28+0200</time>
      </trkpt>
      <trkpt lat="44.96446" lon="6.65434">
        <ele>1865.8</ele>
        <time>2023-07-02T11:57:30+0200</time>
      </trkpt>
      <trkpt lat="44.96446" lon="6.65426">
        <ele>1866.8</ele>
        <time>2023-07-02T11:57:32+0200</time>
      </trkpt>
      <trkpt lat="44.96447" lon="6.65419">
        <ele>1867.6</ele>
        <time>2023-07-02T11:57:34+0200</time>
      </trkpt>
      <trkpt lat="44.96448" lon="6.65411">
        <ele>1867.9</ele>
        <time>2023-07-02T11:57:37+0200</time>
      </trkpt>
      <trkpt lat="44.96451" lon="6.65404">
        <ele>1867.6</ele>
        <time>2023-07-02T11:57:40+0200</time>
      </trkpt>
      <trkpt lat="44.96453" lon="6.65397">
        <ele>1867.8</ele>
        <time>2023-07-02T11:57:42+0200</time>
      </trkpt>
      <trkpt lat="44.96456" lon="6.6539">
        <ele>1867.8</ele>
        <time>2023-07-02T11:57:45+0200</time>
      </trkpt>
      <trkpt lat="44.96459" lon="6.65385">
        <ele>1867.4</ele>
        <time>2023-07-02T11:57:48+0200</time>
      </trkpt>
      <trkpt lat="44.96462" lon="6.65378">
        <ele>1867.7</ele>
        <time>2023-07-02T11:57:51+0200</time>
      </trkpt>
      <trkpt lat="44.96467" lon="6.65371">
        <ele>1867.2</ele>
        <time>2023-07-02T11:57:54+0200</time>
      </trkpt>
      <trkpt lat="44.96471" lon="6.65365">
        <ele>1866.8</ele>
        <time>2023-07-02T11:57:57+0200</time>
      </trkpt>
      <trkpt lat="44.96473" lon="6.65359">
        <ele>1867.4</ele>
        <time>2023-07-02T11:57:59+0200</time>
      </trkpt>
      <trkpt lat="44.96477" lon="6.65352">
        <ele>1868.4</ele>
        <time>2023-07-02T11:58:02+0200</time>
      </trkpt>
      <trkpt lat="44.96481" lon="6.65344">
        <ele>1869.8</ele>
        <time>2023-07-02T11:58:05+0200</time>
      </trkpt>
      <trkpt lat="44.96485" lon="6.65337">
        <ele>1870.7</ele>
        <time>2023-07-02T11:58:08+0200</time>
      </trkpt>
      <trkpt lat="44.9649" lon="6.65332">
        <ele>1870.3</ele>
        <time>2023-07-02T11:58:11+0200</time>
      </trkpt>
      <trkpt lat="44.96493" lon="6.65327">
        <ele>1871</ele>
        <time>2023-07-02T11:58:13+0200</time>
      </trkpt>
      <trkpt lat="44.96497" lon="6.6532">
        <ele>1872.1</ele>
        <time>2023-07-02T11:58:16+0200</time>
      </trkpt>
      <trkpt lat="44.96501" lon="6.65315">
        <ele>1872</ele>
        <time>2023-07-02T11:58:19+0200</time>
      </trkpt>
      <trkpt lat="44.96505" lon="6.65308">
        <ele>1873.4</ele>
        <time>2023-07-02T11:58:22+0200</time>
      </trkpt>
      <trkpt lat="44.96508" lon="6.65302">
        <ele>1874.4</ele>
        <time>2023-07-02T11:58:25+0200</time>
      </trkpt>
      <trkpt lat="44.96512" lon="6.65296">
        <ele>1874.8</ele>
        <time>2023-07-02T11:58:28+0200</time>
      </trkpt>
      <trkpt lat="44.96518" lon="6.65292">
        <ele>1873.7</ele>
        <time>2023-07-02T11:58:31+0200</time>
      </trkpt>
      <trkpt lat="44.96521" lon="6.65284">
        <ele>1875.2</ele>
        <time>2023-07-02T11:58:34+0200</time>
      </trkpt>
      <trkpt lat="44.96524" lon="6.65278">
        <ele>1875.8</ele>
        <time>2023-07-02T11:58:37+0200</time>
      </trkpt>
      <trkpt lat="44.96526" lon="6.65272">
        <ele>1876.8</ele>
        <time>2023-07-02T11:58:39+0200</time>
      </trkpt>
      <trkpt lat="44.9653" lon="6.65265">
        <ele>1877.2</ele>
        <time>2023-07-02T11:58:42+0200</time>
      </trkpt>
      <trkpt lat="44.96534" lon="6.65261">
        <ele>1877</ele>
        <time>2023-07-02T11:58:45+0200</time>
      </trkpt>
      <trkpt lat="44.96537" lon="6.65254">
        <ele>1877.6</ele>
        <time>2023-07-02T11:58:48+0200</time>
      </trkpt>
      <trkpt lat="44.9654" lon="6.65249">
        <ele>1878.1</ele>
        <time>2023-07-02T11:58:51+0200</time>
      </trkpt>
      <trkpt lat="44.96544" lon="6.65244">
        <ele>1877.9</ele>
        <time>2023-07-02T11:58:54+0200</time>
      </trkpt>
      <trkpt lat="44.96548" lon="6.65238">
        <ele>1878.4</ele>
        <time>2023-07-02T11:58:57+0200</time>
      </trkpt>
      <trkpt lat="44.9655" lon="6.65232">
        <ele>1879.2</ele>
        <time>2023-07-02T11:58:59+0200</time>
      </trkpt>
      <trkpt lat="44.96555" lon="6.65228">
        <ele>1878.4</ele>
        <time>2023-07-02T11:59:02+0200</time>
      </trkpt>
      <trkpt lat="44.96559" lon="6.65223">
        <ele>1878.4</ele>
        <time>2023-07-02T11:59:04+0200</time>
      </trkpt>
      <trkpt lat="44.96562" lon="6.65216">
        <ele>1878.6</ele>
        <time>2023-07-02T11:59:06+0200</time>
      </trkpt>
      <trkpt lat="44.96565" lon="6.6521">
        <ele>1878.5</ele>
        <time>2023-07-02T11:59:09+0200</time>
      </trkpt>
      <trkpt lat="44.96567" lon="6.65203">
        <ele>1879</ele>
        <time>2023-07-02T11:59:12+0200</time>
      </trkpt>
      <trkpt lat="44.96566" lon="6.65195">
        <ele>1880.9</ele>
        <time>2023-07-02T11:59:14+0200</time>
      </trkpt>
      <trkpt lat="44.96566" lon="6.65188">
        <ele>1881.9</ele>
        <time>2023-07-02T11:59:16+0200</time>
      </trkpt>
      <trkpt lat="44.96565" lon="6.65182">
        <ele>1883.7</ele>
        <time>2023-07-02T11:59:18+0200</time>
      </trkpt>
      <trkpt lat="44.96566" lon="6.65174">
        <ele>1884.1</ele>
        <time>2023-07-02T11:59:21+0200</time>
      </trkpt>
      <trkpt lat="44.96568" lon="6.65166">
        <ele>1884.4</ele>
        <time>2023-07-02T11:59:24+0200</time>
      </trkpt>
      <trkpt lat="44.96571" lon="6.6516">
        <ele>1883.6</ele>
        <time>2023-07-02T11:59:27+0200</time>
      </trkpt>
      <trkpt lat="44.96574" lon="6.65153">
        <ele>1882.8</ele>
        <time>2023-07-02T11:59:30+0200</time>
      </trkpt>
      <trkpt lat="44.96578" lon="6.65147">
        <ele>1881.5</ele>
        <time>2023-07-02T11:59:33+0200</time>
      </trkpt>
      <trkpt lat="44.96581" lon="6.6514">
        <ele>1880</ele>
        <time>2023-07-02T11:59:36+0200</time>
      </trkpt>
      <trkpt lat="44.96582" lon="6.65133">
        <ele>1880.1</ele>
        <time>2023-07-02T11:59:38+0200</time>
      </trkpt>
      <trkpt lat="44.96582" lon="6.65125">
        <ele>1880.8</ele>
        <time>2023-07-02T11:59:40+0200</time>
      </trkpt>
      <trkpt lat="44.9658" lon="6.65117">
        <ele>1882.3</ele>
        <time>2023-07-02T11:59:42+0200</time>
      </trkpt>
      <trkpt lat="44.96577" lon="6.65111">
        <ele>1884.6</ele>
        <time>2023-07-02T11:59:44+0200</time>
      </trkpt>
      <trkpt lat="44.96573" lon="6.65106">
        <ele>1886.7</ele>
        <time>2023-07-02T11:59:46+0200</time>
      </trkpt>
      <trkpt lat="44.9657" lon="6.651">
        <ele>1888.5</ele>
        <time>2023-07-02T11:59:48+0200</time>
      </trkpt>
      <trkpt lat="44.96567" lon="6.65095">
        <ele>1890.5</ele>
        <time>2023-07-02T11:59:50+0200</time>
      </trkpt>
      <trkpt lat="44.96564" lon="6.65089">
        <ele>1891.9</ele>
        <time>2023-07-02T11:59:52+0200</time>
      </trkpt>
      <trkpt lat="44.96562" lon="6.65083">
        <ele>1893.6</ele>
        <time>2023-07-02T11:59:54+0200</time>
      </trkpt>
      <trkpt lat="44.96559" lon="6.65077">
        <ele>1894.4</ele>
        <time>2023-07-02T11:59:56+0200</time>
      </trkpt>
      <trkpt lat="44.96557" lon="6.65071">
        <ele>1895.4</ele>
        <time>2023-07-02T11:59:58+0200</time>
      </trkpt>
      <trkpt lat="44.96555" lon="6.65065">
        <ele>1895.8</ele>
        <time>2023-07-02T12:00:00+0200</time>
      </trkpt>
      <trkpt lat="44.96554" lon="6.65058">
        <ele>1896.2</ele>
        <time>2023-07-02T12:00:02+0200</time>
      </trkpt>
      <trkpt lat="44.96552" lon="6.6505">
        <ele>1897.1</ele>
        <time>2023-07-02T12:00:05+0200</time>
      </trkpt>
      <trkpt lat="44.96551" lon="6.65043">
        <ele>1897</ele>
        <time>2023-07-02T12:00:07+0200</time>
      </trkpt>
      <trkpt lat="44.96551" lon="6.65036">
        <ele>1896.6</ele>
        <time>2023-07-02T12:00:09+0200</time>
      </trkpt>
      <trkpt lat="44.96551" lon="6.65029">
        <ele>1895.9</ele>
        <time>2023-07-02T12:00:11+0200</time>
      </trkpt>
      <trkpt lat="44.9655" lon="6.65023">
        <ele>1896</ele>
        <time>2023-07-02T12:00:13+0200</time>
      </trkpt>
      <trkpt lat="44.96549" lon="6.65014">
        <ele>1896.6</ele>
        <time>2023-07-02T12:00:16+0200</time>
      </trkpt>
      <trkpt lat="44.96547" lon="6.65007">
        <ele>1897.3</ele>
        <time>2023-07-02T12:00:18+0200</time>
      </trkpt>
      <trkpt lat="44.96548" lon="6.65">
        <ele>1896.4</ele>
        <time>2023-07-02T12:00:20+0200</time>
      </trkpt>
      <trkpt lat="44.96549" lon="6.64991">
        <ele>1897.2</ele>
        <time>2023-07-02T12:00:23+0200</time>
      </trkpt>
      <trkpt lat="44.96553" lon="6.64985">
        <ele>1896.6</ele>
        <time>2023-07-02T12:00:26+0200</time>
      </trkpt>
      <trkpt lat="44.96558" lon="6.64984">
        <ele>1895.2</ele>
        <time>2023-07-02T12:00:29+0200</time>
      </trkpt>
      <trkpt lat="44.96563" lon="6.64988">
        <ele>1893.5</ele>
        <time>2023-07-02T12:00:32+0200</time>
      </trkpt>
      <trkpt lat="44.96562" lon="6.64999">
        <ele>1891.7</ele>
        <time>2023-07-02T12:00:36+0200</time>
      </trkpt>
      <trkpt lat="44.96567" lon="6.64998">
        <ele>1890.5</ele>
        <time>2023-07-02T12:00:38+0200</time>
      </trkpt>
      <trkpt lat="44.96573" lon="6.64993">
        <ele>1890.1</ele>
        <time>2023-07-02T12:00:40+0200</time>
      </trkpt>
      <trkpt lat="44.96577" lon="6.64989">
        <ele>1890</ele>
        <time>2023-07-02T12:00:42+0200</time>
      </trkpt>
      <trkpt lat="44.9658" lon="6.6498">
        <ele>1891.1</ele>
        <time>2023-07-02T12:00:44+0200</time>
      </trkpt>
      <trkpt lat="44.96582" lon="6.64973">
        <ele>1892.3</ele>
        <time>2023-07-02T12:00:46+0200</time>
      </trkpt>
      <trkpt lat="44.96583" lon="6.64964">
        <ele>1894</ele>
        <time>2023-07-02T12:00:49+0200</time>
      </trkpt>
      <trkpt lat="44.96583" lon="6.64957">
        <ele>1895.5</ele>
        <time>2023-07-02T12:00:51+0200</time>
      </trkpt>
      <trkpt lat="44.96582" lon="6.64949">
        <ele>1897.4</ele>
        <time>2023-07-02T12:00:53+0200</time>
      </trkpt>
      <trkpt lat="44.96581" lon="6.6494">
        <ele>1899.3</ele>
        <time>2023-07-02T12:00:56+0200</time>
      </trkpt>
      <trkpt lat="44.96579" lon="6.64933">
        <ele>1900.7</ele>
        <time>2023-07-02T12:00:59+0200</time>
      </trkpt>
      <trkpt lat="44.9658" lon="6.64926">
        <ele>1901.2</ele>
        <time>2023-07-02T12:01:01+0200</time>
      </trkpt>
      <trkpt lat="44.96578" lon="6.64918">
        <ele>1903.1</ele>
        <time>2023-07-02T12:01:03+0200</time>
      </trkpt>
      <trkpt lat="44.96577" lon="6.6491">
        <ele>1904.1</ele>
        <time>2023-07-02T12:01:06+0200</time>
      </trkpt>
      <trkpt lat="44.96576" lon="6.64903">
        <ele>1905.2</ele>
        <time>2023-07-02T12:01:08+0200</time>
      </trkpt>
      <trkpt lat="44.96576" lon="6.64896">
        <ele>1906</ele>
        <time>2023-07-02T12:01:10+0200</time>
      </trkpt>
      <trkpt lat="44.96575" lon="6.64889">
        <ele>1906.9</ele>
        <time>2023-07-02T12:01:12+0200</time>
      </trkpt>
      <trkpt lat="44.96575" lon="6.64882">
        <ele>1907.5</ele>
        <time>2023-07-02T12:01:14+0200</time>
      </trkpt>
      <trkpt lat="44.96577" lon="6.64874">
        <ele>1907.5</ele>
        <time>2023-07-02T12:01:17+0200</time>
      </trkpt>
      <trkpt lat="44.96579" lon="6.64868">
        <ele>1907.1</ele>
        <time>2023-07-02T12:01:20+0200</time>
      </trkpt>
      <trkpt lat="44.96578" lon="6.6486">
        <ele>1907.9</ele>
        <time>2023-07-02T12:01:23+0200</time>
      </trkpt>
      <trkpt lat="44.96577" lon="6.64854">
        <ele>1908.9</ele>
        <time>2023-07-02T12:01:25+0200</time>
      </trkpt>
      <trkpt lat="44.96575" lon="6.64846">
        <ele>1909.9</ele>
        <time>2023-07-02T12:01:27+0200</time>
      </trkpt>
      <trkpt lat="44.96574" lon="6.64839">
        <ele>1910.8</ele>
        <time>2023-07-02T12:01:29+0200</time>
      </trkpt>
      <trkpt lat="44.96572" lon="6.64833">
        <ele>1911.7</ele>
        <time>2023-07-02T12:01:31+0200</time>
      </trkpt>
      <trkpt lat="44.9657" lon="6.64826">
        <ele>1913.1</ele>
        <time>2023-07-02T12:01:33+0200</time>
      </trkpt>
      <trkpt lat="44.96572" lon="6.64818">
        <ele>1913.6</ele>
        <time>2023-07-02T12:01:36+0200</time>
      </trkpt>
      <trkpt lat="44.96575" lon="6.64813">
        <ele>1913.6</ele>
        <time>2023-07-02T12:01:38+0200</time>
      </trkpt>
      <trkpt lat="44.9658" lon="6.64808">
        <ele>1912.7</ele>
        <time>2023-07-02T12:01:42+0200</time>
      </trkpt>
      <trkpt lat="44.96584" lon="6.64803">
        <ele>1912.1</ele>
        <time>2023-07-02T12:01:45+0200</time>
      </trkpt>
      <trkpt lat="44.96587" lon="6.64795">
        <ele>1912.5</ele>
        <time>2023-07-02T12:01:48+0200</time>
      </trkpt>
      <trkpt lat="44.96588" lon="6.64785">
        <ele>1913.4</ele>
        <time>2023-07-02T12:01:51+0200</time>
      </trkpt>
      <trkpt lat="44.96588" lon="6.64778">
        <ele>1914.2</ele>
        <time>2023-07-02T12:01:53+0200</time>
      </trkpt>
      <trkpt lat="44.96587" lon="6.64768">
        <ele>1915</ele>
        <time>2023-07-02T12:01:55+0200</time>
      </trkpt>
      <trkpt lat="44.96584" lon="6.6476">
        <ele>1916.4</ele>
        <time>2023-07-02T12:01:57+0200</time>
      </trkpt>
      <trkpt lat="44.96584" lon="6.64753">
        <ele>1916.7</ele>
        <time>2023-07-02T12:01:59+0200</time>
      </trkpt>
      <trkpt lat="44.96583" lon="6.64744">
        <ele>1917.5</ele>
        <time>2023-07-02T12:02:02+0200</time>
      </trkpt>
      <trkpt lat="44.96582" lon="6.64737">
        <ele>1918.2</ele>
        <time>2023-07-02T12:02:04+0200</time>
      </trkpt>
      <trkpt lat="44.96583" lon="6.6473">
        <ele>1918.6</ele>
        <time>2023-07-02T12:02:06+0200</time>
      </trkpt>
      <trkpt lat="44.96584" lon="6.64721">
        <ele>1918.9</ele>
        <time>2023-07-02T12:02:09+0200</time>
      </trkpt>
      <trkpt lat="44.96586" lon="6.64713">
        <ele>1918.8</ele>
        <time>2023-07-02T12:02:12+0200</time>
      </trkpt>
      <trkpt lat="44.96586" lon="6.64706">
        <ele>1919.3</ele>
        <time>2023-07-02T12:02:14+0200</time>
      </trkpt>
      <trkpt lat="44.96589" lon="6.647">
        <ele>1918.9</ele>
        <time>2023-07-02T12:02:17+0200</time>
      </trkpt>
      <trkpt lat="44.96591" lon="6.64693">
        <ele>1918.6</ele>
        <time>2023-07-02T12:02:20+0200</time>
      </trkpt>
      <trkpt lat="44.96591" lon="6.64684">
        <ele>1918.7</ele>
        <time>2023-07-02T12:02:22+0200</time>
      </trkpt>
      <trkpt lat="44.96591" lon="6.64678">
        <ele>1919</ele>
        <time>2023-07-02T12:02:24+0200</time>
      </trkpt>
      <trkpt lat="44.96589" lon="6.6467">
        <ele>1919.8</ele>
        <time>2023-07-02T12:02:26+0200</time>
      </trkpt>
      <trkpt lat="44.9659" lon="6.64663">
        <ele>1919.5</ele>
        <time>2023-07-02T12:02:28+0200</time>
      </trkpt>
      <trkpt lat="44.96587" lon="6.64657">
        <ele>1921.1</ele>
        <time>2023-07-02T12:02:30+0200</time>
      </trkpt>
      <trkpt lat="44.96584" lon="6.6465">
        <ele>1922.2</ele>
        <time>2023-07-02T12:02:32+0200</time>
      </trkpt>
      <trkpt lat="44.96583" lon="6.64641">
        <ele>1923.2</ele>
        <time>2023-07-02T12:02:35+0200</time>
      </trkpt>
      <trkpt lat="44.96584" lon="6.64635">
        <ele>1922.8</ele>
        <time>2023-07-02T12:02:37+0200</time>
      </trkpt>
      <trkpt lat="44.96579" lon="6.64628">
        <ele>1925.1</ele>
        <time>2023-07-02T12:02:39+0200</time>
      </trkpt>
      <trkpt lat="44.96579" lon="6.6462">
        <ele>1925.3</ele>
        <time>2023-07-02T12:02:42+0200</time>
      </trkpt>
      <trkpt lat="44.96579" lon="6.64613">
        <ele>1925.8</ele>
        <time>2023-07-02T12:02:44+0200</time>
      </trkpt>
      <trkpt lat="44.96583" lon="6.64606">
        <ele>1925</ele>
        <time>2023-07-02T12:02:46+0200</time>
      </trkpt>
      <trkpt lat="44.96584" lon="6.64596">
        <ele>1926.1</ele>
        <time>2023-07-02T12:02:48+0200</time>
      </trkpt>
      <trkpt lat="44.96588" lon="6.64589">
        <ele>1925.7</ele>
        <time>2023-07-02T12:02:50+0200</time>
      </trkpt>
      <trkpt lat="44.96594" lon="6.64585">
        <ele>1924.1</ele>
        <time>2023-07-02T12:02:54+0200</time>
      </trkpt>
      <trkpt lat="44.96597" lon="6.64579">
        <ele>1924</ele>
        <time>2023-07-02T12:02:57+0200</time>
      </trkpt>
      <trkpt lat="44.96602" lon="6.64571">
        <ele>1924.4</ele>
        <time>2023-07-02T12:03:00+0200</time>
      </trkpt>
      <trkpt lat="44.96605" lon="6.64568">
        <ele>1923.9</ele>
        <time>2023-07-02T12:03:02+0200</time>
      </trkpt>
      <trkpt lat="44.9661" lon="6.64559">
        <ele>1924.6</ele>
        <time>2023-07-02T12:03:04+0200</time>
      </trkpt>
      <trkpt lat="44.96612" lon="6.64552">
        <ele>1925.6</ele>
        <time>2023-07-02T12:03:06+0200</time>
      </trkpt>
      <trkpt lat="44.96614" lon="6.64546">
        <ele>1925.6</ele>
        <time>2023-07-02T12:03:08+0200</time>
      </trkpt>
      <trkpt lat="44.96617" lon="6.64539">
        <ele>1926.1</ele>
        <time>2023-07-02T12:03:10+0200</time>
      </trkpt>
      <trkpt lat="44.9662" lon="6.64532">
        <ele>1926.4</ele>
        <time>2023-07-02T12:03:12+0200</time>
      </trkpt>
      <trkpt lat="44.96623" lon="6.64526">
        <ele>1926.6</ele>
        <time>2023-07-02T12:03:14+0200</time>
      </trkpt>
      <trkpt lat="44.96625" lon="6.64516">
        <ele>1927.7</ele>
        <time>2023-07-02T12:03:16+0200</time>
      </trkpt>
      <trkpt lat="44.96626" lon="6.64506">
        <ele>1929.3</ele>
        <time>2023-07-02T12:03:18+0200</time>
      </trkpt>
      <trkpt lat="44.96627" lon="6.645">
        <ele>1929.8</ele>
        <time>2023-07-02T12:03:20+0200</time>
      </trkpt>
      <trkpt lat="44.96629" lon="6.64494">
        <ele>1930</ele>
        <time>2023-07-02T12:03:23+0200</time>
      </trkpt>
      <trkpt lat="44.9663" lon="6.64486">
        <ele>1930.9</ele>
        <time>2023-07-02T12:03:27+0200</time>
      </trkpt>
      <trkpt lat="44.96631" lon="6.64477">
        <ele>1931.8</ele>
        <time>2023-07-02T12:03:30+0200</time>
      </trkpt>
      <trkpt lat="44.96632" lon="6.6447">
        <ele>1932.5</ele>
        <time>2023-07-02T12:03:32+0200</time>
      </trkpt>
      <trkpt lat="44.96631" lon="6.6446">
        <ele>1933.9</ele>
        <time>2023-07-02T12:03:35+0200</time>
      </trkpt>
      <trkpt lat="44.9663" lon="6.6445">
        <ele>1935.3</ele>
        <time>2023-07-02T12:03:37+0200</time>
      </trkpt>
      <trkpt lat="44.9663" lon="6.64442">
        <ele>1936.2</ele>
        <time>2023-07-02T12:03:39+0200</time>
      </trkpt>
      <trkpt lat="44.96629" lon="6.64435">
        <ele>1937.2</ele>
        <time>2023-07-02T12:03:41+0200</time>
      </trkpt>
      <trkpt lat="44.96631" lon="6.64428">
        <ele>1937.3</ele>
        <time>2023-07-02T12:03:43+0200</time>
      </trkpt>
      <trkpt lat="44.96632" lon="6.64422">
        <ele>1937.6</ele>
        <time>2023-07-02T12:03:45+0200</time>
      </trkpt>
      <trkpt lat="44.96634" lon="6.64415">
        <ele>1937.8</ele>
        <time>2023-07-02T12:03:48+0200</time>
      </trkpt>
      <trkpt lat="44.96636" lon="6.64408">
        <ele>1937.4</ele>
        <time>2023-07-02T12:03:51+0200</time>
      </trkpt>
      <trkpt lat="44.9664" lon="6.64402">
        <ele>1936.7</ele>
        <time>2023-07-02T12:03:54+0200</time>
      </trkpt>
      <trkpt lat="44.96643" lon="6.64397">
        <ele>1936.2</ele>
        <time>2023-07-02T12:03:57+0200</time>
      </trkpt>
      <trkpt lat="44.96646" lon="6.6439">
        <ele>1936.2</ele>
        <time>2023-07-02T12:03:59+0200</time>
      </trkpt>
      <trkpt lat="44.96647" lon="6.64383">
        <ele>1936.5</ele>
        <time>2023-07-02T12:04:02+0200</time>
      </trkpt>
      <trkpt lat="44.96648" lon="6.64376">
        <ele>1937.1</ele>
        <time>2023-07-02T12:04:04+0200</time>
      </trkpt>
      <trkpt lat="44.96648" lon="6.64369">
        <ele>1938.1</ele>
        <time>2023-07-02T12:04:06+0200</time>
      </trkpt>
      <trkpt lat="44.96649" lon="6.6436">
        <ele>1939</ele>
        <time>2023-07-02T12:04:08+0200</time>
      </trkpt>
      <trkpt lat="44.96647" lon="6.64352">
        <ele>1939.6</ele>
        <time>2023-07-02T12:04:10+0200</time>
      </trkpt>
      <trkpt lat="44.96646" lon="6.64345">
        <ele>1940.4</ele>
        <time>2023-07-02T12:04:12+0200</time>
      </trkpt>
      <trkpt lat="44.96642" lon="6.64339">
        <ele>1941.7</ele>
        <time>2023-07-02T12:04:15+0200</time>
      </trkpt>
      <trkpt lat="44.9664" lon="6.64333">
        <ele>1942.6</ele>
        <time>2023-07-02T12:04:18+0200</time>
      </trkpt>
      <trkpt lat="44.96639" lon="6.64326">
        <ele>1943.1</ele>
        <time>2023-07-02T12:04:21+0200</time>
      </trkpt>
      <trkpt lat="44.96638" lon="6.64319">
        <ele>1943.9</ele>
        <time>2023-07-02T12:04:24+0200</time>
      </trkpt>
      <trkpt lat="44.96638" lon="6.64311">
        <ele>1944</ele>
        <time>2023-07-02T12:04:28+0200</time>
      </trkpt>
      <trkpt lat="44.9664" lon="6.64305">
        <ele>1943.8</ele>
        <time>2023-07-02T12:04:30+0200</time>
      </trkpt>
      <trkpt lat="44.96635" lon="6.64302">
        <ele>1945.2</ele>
        <time>2023-07-02T12:04:32+0200</time>
      </trkpt>
      <trkpt lat="44.96634" lon="6.64296">
        <ele>1945.8</ele>
        <time>2023-07-02T12:04:34+0200</time>
      </trkpt>
      <trkpt lat="44.96631" lon="6.64289">
        <ele>1946.6</ele>
        <time>2023-07-02T12:04:38+0200</time>
      </trkpt>
      <trkpt lat="44.96627" lon="6.64284">
        <ele>1947.9</ele>
        <time>2023-07-02T12:04:40+0200</time>
      </trkpt>
      <trkpt lat="44.96622" lon="6.64281">
        <ele>1949.2</ele>
        <time>2023-07-02T12:04:42+0200</time>
      </trkpt>
      <trkpt lat="44.96619" lon="6.64274">
        <ele>1950.1</ele>
        <time>2023-07-02T12:04:45+0200</time>
      </trkpt>
      <trkpt lat="44.96616" lon="6.64268">
        <ele>1951.4</ele>
        <time>2023-07-02T12:04:49+0200</time>
      </trkpt>
      <trkpt lat="44.96613" lon="6.6426">
        <ele>1952.2</ele>
        <time>2023-07-02T12:04:53+0200</time>
      </trkpt>
      <trkpt lat="44.96611" lon="6.64255">
        <ele>1953</ele>
        <time>2023-07-02T12:04:56+0200</time>
      </trkpt>
      <trkpt lat="44.96612" lon="6.64248">
        <ele>1953.1</ele>
        <time>2023-07-02T12:04:59+0200</time>
      </trkpt>
      <trkpt lat="44.96611" lon="6.64242">
        <ele>1954.1</ele>
        <time>2023-07-02T12:05:04+0200</time>
      </trkpt>
      <trkpt lat="44.9661" lon="6.64233">
        <ele>1955.1</ele>
        <time>2023-07-02T12:05:11+0200</time>
      </trkpt>
      <trkpt lat="44.9661" lon="6.64226">
        <ele>1955.9</ele>
        <time>2023-07-02T12:05:15+0200</time>
      </trkpt>
      <trkpt lat="44.96612" lon="6.64219">
        <ele>1956.1</ele>
        <time>2023-07-02T12:05:18+0200</time>
      </trkpt>
      <trkpt lat="44.96615" lon="6.64212">
        <ele>1955.8</ele>
        <time>2023-07-02T12:05:21+0200</time>
      </trkpt>
      <trkpt lat="44.96619" lon="6.64203">
        <ele>1955.5</ele>
        <time>2023-07-02T12:05:24+0200</time>
      </trkpt>
      <trkpt lat="44.96622" lon="6.64196">
        <ele>1955.3</ele>
        <time>2023-07-02T12:05:27+0200</time>
      </trkpt>
      <trkpt lat="44.96623" lon="6.64187">
        <ele>1955.1</ele>
        <time>2023-07-02T12:05:31+0200</time>
      </trkpt>
      <trkpt lat="44.96623" lon="6.64179">
        <ele>1955.3</ele>
        <time>2023-07-02T12:05:33+0200</time>
      </trkpt>
      <trkpt lat="44.96622" lon="6.64171">
        <ele>1955.9</ele>
        <time>2023-07-02T12:05:35+0200</time>
      </trkpt>
      <trkpt lat="44.96619" lon="6.64163">
        <ele>1956.8</ele>
        <time>2023-07-02T12:05:38+0200</time>
      </trkpt>
      <trkpt lat="44.96617" lon="6.64156">
        <ele>1957.6</ele>
        <time>2023-07-02T12:05:40+0200</time>
      </trkpt>
      <trkpt lat="44.96614" lon="6.64149">
        <ele>1958.7</ele>
        <time>2023-07-02T12:05:42+0200</time>
      </trkpt>
      <trkpt lat="44.9661" lon="6.64141">
        <ele>1960.1</ele>
        <time>2023-07-02T12:05:44+0200</time>
      </trkpt>
      <trkpt lat="44.96608" lon="6.64131">
        <ele>1960.8</ele>
        <time>2023-07-02T12:05:46+0200</time>
      </trkpt>
      <trkpt lat="44.96609" lon="6.64121">
        <ele>1961</ele>
        <time>2023-07-02T12:05:48+0200</time>
      </trkpt>
      <trkpt lat="44.96611" lon="6.64113">
        <ele>1961.1</ele>
        <time>2023-07-02T12:05:50+0200</time>
      </trkpt>
      <trkpt lat="44.96611" lon="6.64104">
        <ele>1961.1</ele>
        <time>2023-07-02T12:05:52+0200</time>
      </trkpt>
      <trkpt lat="44.96611" lon="6.64095">
        <ele>1960.9</ele>
        <time>2023-07-02T12:05:54+0200</time>
      </trkpt>
      <trkpt lat="44.96613" lon="6.64087">
        <ele>1960.3</ele>
        <time>2023-07-02T12:05:56+0200</time>
      </trkpt>
      <trkpt lat="44.96612" lon="6.6408">
        <ele>1960.9</ele>
        <time>2023-07-02T12:05:57+0200</time>
      </trkpt>
      <trkpt lat="44.96613" lon="6.64073">
        <ele>1960.6</ele>
        <time>2023-07-02T12:05:59+0200</time>
      </trkpt>
      <trkpt lat="44.96615" lon="6.64064">
        <ele>1960.5</ele>
        <time>2023-07-02T12:06:01+0200</time>
      </trkpt>
      <trkpt lat="44.96615" lon="6.64057">
        <ele>1960.5</ele>
        <time>2023-07-02T12:06:03+0200</time>
      </trkpt>
      <trkpt lat="44.96615" lon="6.6405">
        <ele>1960.6</ele>
        <time>2023-07-02T12:06:05+0200</time>
      </trkpt>
      <trkpt lat="44.96615" lon="6.64043">
        <ele>1960.4</ele>
        <time>2023-07-02T12:06:07+0200</time>
      </trkpt>
      <trkpt lat="44.96612" lon="6.64035">
        <ele>1960.9</ele>
        <time>2023-07-02T12:06:09+0200</time>
      </trkpt>
      <trkpt lat="44.96608" lon="6.64028">
        <ele>1962</ele>
        <time>2023-07-02T12:06:11+0200</time>
      </trkpt>
      <trkpt lat="44.96603" lon="6.64019">
        <ele>1963.3</ele>
        <time>2023-07-02T12:06:13+0200</time>
      </trkpt>
      <trkpt lat="44.96602" lon="6.64007">
        <ele>1963.7</ele>
        <time>2023-07-02T12:06:15+0200</time>
      </trkpt>
      <trkpt lat="44.96602" lon="6.64001">
        <ele>1963.7</ele>
        <time>2023-07-02T12:06:16+0200</time>
      </trkpt>
      <trkpt lat="44.96602" lon="6.63991">
        <ele>1963.9</ele>
        <time>2023-07-02T12:06:18+0200</time>
      </trkpt>
      <trkpt lat="44.96608" lon="6.63984">
        <ele>1962.5</ele>
        <time>2023-07-02T12:06:20+0200</time>
      </trkpt>
      <trkpt lat="44.96615" lon="6.63982">
        <ele>1961.1</ele>
        <time>2023-07-02T12:06:22+0200</time>
      </trkpt>
      <trkpt lat="44.96621" lon="6.63978">
        <ele>1960.6</ele>
        <time>2023-07-02T12:06:24+0200</time>
      </trkpt>
      <trkpt lat="44.96623" lon="6.63971">
        <ele>1960.8</ele>
        <time>2023-07-02T12:06:26+0200</time>
      </trkpt>
      <trkpt lat="44.96624" lon="6.63962">
        <ele>1961.7</ele>
        <time>2023-07-02T12:06:28+0200</time>
      </trkpt>
      <trkpt lat="44.96623" lon="6.6395">
        <ele>1963</ele>
        <time>2023-07-02T12:06:30+0200</time>
      </trkpt>
      <trkpt lat="44.96622" lon="6.63939">
        <ele>1963.7</ele>
        <time>2023-07-02T12:06:32+0200</time>
      </trkpt>
      <trkpt lat="44.96621" lon="6.63929">
        <ele>1963.8</ele>
        <time>2023-07-02T12:06:34+0200</time>
      </trkpt>
      <trkpt lat="44.9662" lon="6.6392">
        <ele>1964</ele>
        <time>2023-07-02T12:06:36+0200</time>
      </trkpt>
      <trkpt lat="44.96617" lon="6.63909">
        <ele>1964.1</ele>
        <time>2023-07-02T12:06:38+0200</time>
      </trkpt>
      <trkpt lat="44.96616" lon="6.639">
        <ele>1964.1</ele>
        <time>2023-07-02T12:06:40+0200</time>
      </trkpt>
      <trkpt lat="44.96612" lon="6.63893">
        <ele>1964</ele>
        <time>2023-07-02T12:06:42+0200</time>
      </trkpt>
      <trkpt lat="44.96608" lon="6.63885">
        <ele>1964.4</ele>
        <time>2023-07-02T12:06:44+0200</time>
      </trkpt>
      <trkpt lat="44.96604" lon="6.63877">
        <ele>1964.8</ele>
        <time>2023-07-02T12:06:46+0200</time>
      </trkpt>
      <trkpt lat="44.96601" lon="6.63868">
        <ele>1965.1</ele>
        <time>2023-07-02T12:06:48+0200</time>
      </trkpt>
      <trkpt lat="44.96598" lon="6.6386">
        <ele>1965.3</ele>
        <time>2023-07-02T12:06:50+0200</time>
      </trkpt>
      <trkpt lat="44.96596" lon="6.63852">
        <ele>1965.6</ele>
        <time>2023-07-02T12:06:52+0200</time>
      </trkpt>
      <trkpt lat="44.96591" lon="6.63844">
        <ele>1966.1</ele>
        <time>2023-07-02T12:06:54+0200</time>
      </trkpt>
      <trkpt lat="44.96587" lon="6.63837">
        <ele>1966.6</ele>
        <time>2023-07-02T12:06:56+0200</time>
      </trkpt>
      <trkpt lat="44.96582" lon="6.63829">
        <ele>1967.3</ele>
        <time>2023-07-02T12:06:58+0200</time>
      </trkpt>
      <trkpt lat="44.96577" lon="6.63822">
        <ele>1968.5</ele>
        <time>2023-07-02T12:07:00+0200</time>
      </trkpt>
      <trkpt lat="44.96571" lon="6.63818">
        <ele>1969.9</ele>
        <time>2023-07-02T12:07:02+0200</time>
      </trkpt>
      <trkpt lat="44.96568" lon="6.63809">
        <ele>1970.8</ele>
        <time>2023-07-02T12:07:04+0200</time>
      </trkpt>
      <trkpt lat="44.96566" lon="6.63802">
        <ele>1971.4</ele>
        <time>2023-07-02T12:07:05+0200</time>
      </trkpt>
      <trkpt lat="44.96568" lon="6.63795">
        <ele>1971.3</ele>
        <time>2023-07-02T12:07:07+0200</time>
      </trkpt>
      <trkpt lat="44.9657" lon="6.63788">
        <ele>1971.1</ele>
        <time>2023-07-02T12:07:10+0200</time>
      </trkpt>
      <trkpt lat="44.9657" lon="6.63779">
        <ele>1971.3</ele>
        <time>2023-07-02T12:07:13+0200</time>
      </trkpt>
      <trkpt lat="44.96569" lon="6.63769">
        <ele>1971.9</ele>
        <time>2023-07-02T12:07:15+0200</time>
      </trkpt>
      <trkpt lat="44.96567" lon="6.63763">
        <ele>1972.8</ele>
        <time>2023-07-02T12:07:18+0200</time>
      </trkpt>
      <trkpt lat="44.96568" lon="6.63756">
        <ele>1972.7</ele>
        <time>2023-07-02T12:07:21+0200</time>
      </trkpt>
      <trkpt lat="44.96571" lon="6.6375">
        <ele>1972.1</ele>
        <time>2023-07-02T12:07:23+0200</time>
      </trkpt>
      <trkpt lat="44.96571" lon="6.63743">
        <ele>1972.7</ele>
        <time>2023-07-02T12:07:26+0200</time>
      </trkpt>
      <trkpt lat="44.96573" lon="6.63734">
        <ele>1973</ele>
        <time>2023-07-02T12:07:29+0200</time>
      </trkpt>
      <trkpt lat="44.96572" lon="6.63722">
        <ele>1974.7</ele>
        <time>2023-07-02T12:07:32+0200</time>
      </trkpt>
      <trkpt lat="44.96575" lon="6.63715">
        <ele>1974.5</ele>
        <time>2023-07-02T12:07:35+0200</time>
      </trkpt>
      <trkpt lat="44.9658" lon="6.63708">
        <ele>1973.5</ele>
        <time>2023-07-02T12:07:38+0200</time>
      </trkpt>
      <trkpt lat="44.96585" lon="6.63703">
        <ele>1972.9</ele>
        <time>2023-07-02T12:07:42+0200</time>
      </trkpt>
      <trkpt lat="44.96588" lon="6.63695">
        <ele>1973</ele>
        <time>2023-07-02T12:07:45+0200</time>
      </trkpt>
      <trkpt lat="44.96588" lon="6.63688">
        <ele>1973.4</ele>
        <time>2023-07-02T12:07:47+0200</time>
      </trkpt>
      <trkpt lat="44.96589" lon="6.63678">
        <ele>1974</ele>
        <time>2023-07-02T12:07:49+0200</time>
      </trkpt>
      <trkpt lat="44.96591" lon="6.6367">
        <ele>1974.2</ele>
        <time>2023-07-02T12:07:51+0200</time>
      </trkpt>
      <trkpt lat="44.9659" lon="6.63662">
        <ele>1975.1</ele>
        <time>2023-07-02T12:07:53+0200</time>
      </trkpt>
      <trkpt lat="44.96589" lon="6.63652">
        <ele>1976.5</ele>
        <time>2023-07-02T12:07:55+0200</time>
      </trkpt>
      <trkpt lat="44.96592" lon="6.63646">
        <ele>1976.7</ele>
        <time>2023-07-02T12:07:58+0200</time>
      </trkpt>
      <trkpt lat="44.96596" lon="6.63642">
        <ele>1976</ele>
        <time>2023-07-02T12:08:01+0200</time>
      </trkpt>
      <trkpt lat="44.96601" lon="6.63638">
        <ele>1975</ele>
        <time>2023-07-02T12:08:04+0200</time>
      </trkpt>
      <trkpt lat="44.96605" lon="6.63634">
        <ele>1974.5</ele>
        <time>2023-07-02T12:08:06+0200</time>
      </trkpt>
      <trkpt lat="44.96607" lon="6.63629">
        <ele>1974.7</ele>
        <time>2023-07-02T12:08:08+0200</time>
      </trkpt>
      <trkpt lat="44.96609" lon="6.63621">
        <ele>1975.2</ele>
        <time>2023-07-02T12:08:10+0200</time>
      </trkpt>
      <trkpt lat="44.96611" lon="6.63614">
        <ele>1975.7</ele>
        <time>2023-07-02T12:08:13+0200</time>
      </trkpt>
      <trkpt lat="44.96613" lon="6.63608">
        <ele>1976.1</ele>
        <time>2023-07-02T12:08:15+0200</time>
      </trkpt>
      <trkpt lat="44.96616" lon="6.63602">
        <ele>1976.5</ele>
        <time>2023-07-02T12:08:18+0200</time>
      </trkpt>
      <trkpt lat="44.96619" lon="6.63595">
        <ele>1977</ele>
        <time>2023-07-02T12:08:21+0200</time>
      </trkpt>
      <trkpt lat="44.96621" lon="6.63586">
        <ele>1977.9</ele>
        <time>2023-07-02T12:08:24+0200</time>
      </trkpt>
      <trkpt lat="44.96622" lon="6.63578">
        <ele>1978.7</ele>
        <time>2023-07-02T12:08:26+0200</time>
      </trkpt>
      <trkpt lat="44.96621" lon="6.63571">
        <ele>1979.6</ele>
        <time>2023-07-02T12:08:28+0200</time>
      </trkpt>
      <trkpt lat="44.96622" lon="6.63565">
        <ele>1980.2</ele>
        <time>2023-07-02T12:08:30+0200</time>
      </trkpt>
      <trkpt lat="44.96623" lon="6.63556">
        <ele>1981</ele>
        <time>2023-07-02T12:08:32+0200</time>
      </trkpt>
      <trkpt lat="44.96625" lon="6.63549">
        <ele>1981.5</ele>
        <time>2023-07-02T12:08:34+0200</time>
      </trkpt>
      <trkpt lat="44.96628" lon="6.63544">
        <ele>1981.4</ele>
        <time>2023-07-02T12:08:36+0200</time>
      </trkpt>
      <trkpt lat="44.96631" lon="6.63537">
        <ele>1981.6</ele>
        <time>2023-07-02T12:08:39+0200</time>
      </trkpt>
      <trkpt lat="44.96636" lon="6.63531">
        <ele>1981.4</ele>
        <time>2023-07-02T12:08:41+0200</time>
      </trkpt>
      <trkpt lat="44.96639" lon="6.63525">
        <ele>1981.4</ele>
        <time>2023-07-02T12:08:45+0200</time>
      </trkpt>
      <trkpt lat="44.96643" lon="6.6352">
        <ele>1981.5</ele>
        <time>2023-07-02T12:08:48+0200</time>
      </trkpt>
      <trkpt lat="44.96646" lon="6.63513">
        <ele>1981.9</ele>
        <time>2023-07-02T12:08:51+0200</time>
      </trkpt>
      <trkpt lat="44.96648" lon="6.63504">
        <ele>1982.5</ele>
        <time>2023-07-02T12:08:54+0200</time>
      </trkpt>
      <trkpt lat="44.9665" lon="6.63497">
        <ele>1982.9</ele>
        <time>2023-07-02T12:08:57+0200</time>
      </trkpt>
      <trkpt lat="44.96652" lon="6.63489">
        <ele>1983.6</ele>
        <time>2023-07-02T12:09:00+0200</time>
      </trkpt>
      <trkpt lat="44.96653" lon="6.63478">
        <ele>1984.8</ele>
        <time>2023-07-02T12:09:03+0200</time>
      </trkpt>
      <trkpt lat="44.96653" lon="6.63472">
        <ele>1985.5</ele>
        <time>2023-07-02T12:09:05+0200</time>
      </trkpt>
      <trkpt lat="44.96654" lon="6.63464">
        <ele>1986.2</ele>
        <time>2023-07-02T12:09:08+0200</time>
      </trkpt>
      <trkpt lat="44.96655" lon="6.63456">
        <ele>1986.8</ele>
        <time>2023-07-02T12:09:12+0200</time>
      </trkpt>
      <trkpt lat="44.96656" lon="6.6345">
        <ele>1987</ele>
        <time>2023-07-02T12:09:14+0200</time>
      </trkpt>
      <trkpt lat="44.96659" lon="6.63444">
        <ele>1987</ele>
        <time>2023-07-02T12:09:16+0200</time>
      </trkpt>
      <trkpt lat="44.96663" lon="6.63438">
        <ele>1986.9</ele>
        <time>2023-07-02T12:09:19+0200</time>
      </trkpt>
      <trkpt lat="44.96668" lon="6.63437">
        <ele>1986.1</ele>
        <time>2023-07-02T12:09:21+0200</time>
      </trkpt>
      <trkpt lat="44.96672" lon="6.63432">
        <ele>1987.1</ele>
        <time>2023-07-02T12:09:24+0200</time>
      </trkpt>
      <trkpt lat="44.96678" lon="6.63426">
        <ele>1988</ele>
        <time>2023-07-02T12:09:27+0200</time>
      </trkpt>
      <trkpt lat="44.96679" lon="6.6342">
        <ele>1988.7</ele>
        <time>2023-07-02T12:09:28+0200</time>
      </trkpt>
      <trkpt lat="44.96681" lon="6.63413">
        <ele>1989.3</ele>
        <time>2023-07-02T12:09:30+0200</time>
      </trkpt>
      <trkpt lat="44.96683" lon="6.63407">
        <ele>1989.7</ele>
        <time>2023-07-02T12:09:32+0200</time>
      </trkpt>
      <trkpt lat="44.96685" lon="6.63398">
        <ele>1990.1</ele>
        <time>2023-07-02T12:09:35+0200</time>
      </trkpt>
      <trkpt lat="44.96686" lon="6.63392">
        <ele>1990.4</ele>
        <time>2023-07-02T12:09:37+0200</time>
      </trkpt>
      <trkpt lat="44.9669" lon="6.63384">
        <ele>1990.7</ele>
        <time>2023-07-02T12:09:40+0200</time>
      </trkpt>
      <trkpt lat="44.96693" lon="6.63379">
        <ele>1990.9</ele>
        <time>2023-07-02T12:09:42+0200</time>
      </trkpt>
      <trkpt lat="44.96696" lon="6.63372">
        <ele>1991.6</ele>
        <time>2023-07-02T12:09:45+0200</time>
      </trkpt>
      <trkpt lat="44.96698" lon="6.63365">
        <ele>1992.4</ele>
        <time>2023-07-02T12:09:48+0200</time>
      </trkpt>
      <trkpt lat="44.96699" lon="6.63357">
        <ele>1993.3</ele>
        <time>2023-07-02T12:09:50+0200</time>
      </trkpt>
      <trkpt lat="44.96701" lon="6.6335">
        <ele>1994.3</ele>
        <time>2023-07-02T12:09:52+0200</time>
      </trkpt>
      <trkpt lat="44.96705" lon="6.63344">
        <ele>1995.2</ele>
        <time>2023-07-02T12:09:55+0200</time>
      </trkpt>
      <trkpt lat="44.9671" lon="6.6334">
        <ele>1995.7</ele>
        <time>2023-07-02T12:09:57+0200</time>
      </trkpt>
      <trkpt lat="44.96715" lon="6.63338">
        <ele>1995.9</ele>
        <time>2023-07-02T12:09:59+0200</time>
      </trkpt>
      <trkpt lat="44.9672" lon="6.6334">
        <ele>1996.2</ele>
        <time>2023-07-02T12:10:02+0200</time>
      </trkpt>
      <trkpt lat="44.96724" lon="6.63346">
        <ele>1997.5</ele>
        <time>2023-07-02T12:10:04+0200</time>
      </trkpt>
      <trkpt lat="44.96725" lon="6.63354">
        <ele>1998.3</ele>
        <time>2023-07-02T12:10:08+0200</time>
      </trkpt>
      <trkpt lat="44.96723" lon="6.63362">
        <ele>1997.3</ele>
        <time>2023-07-02T12:10:11+0200</time>
      </trkpt>
      <trkpt lat="44.96721" lon="6.63368">
        <ele>1997.3</ele>
        <time>2023-07-02T12:10:14+0200</time>
      </trkpt>
      <trkpt lat="44.9672" lon="6.63375">
        <ele>1997.3</ele>
        <time>2023-07-02T12:10:17+0200</time>
      </trkpt>
      <trkpt lat="44.96717" lon="6.63382">
        <ele>1997.1</ele>
        <time>2023-07-02T12:10:21+0200</time>
      </trkpt>
      <trkpt lat="44.96718" lon="6.63389">
        <ele>1997.7</ele>
        <time>2023-07-02T12:10:23+0200</time>
      </trkpt>
      <trkpt lat="44.96718" lon="6.63397">
        <ele>1998.3</ele>
        <time>2023-07-02T12:10:26+0200</time>
      </trkpt>
      <trkpt lat="44.96717" lon="6.63404">
        <ele>1998.7</ele>
        <time>2023-07-02T12:10:29+0200</time>
      </trkpt>
      <trkpt lat="44.96715" lon="6.63412">
        <ele>1998.3</ele>
        <time>2023-07-02T12:10:32+0200</time>
      </trkpt>
      <trkpt lat="44.96715" lon="6.63419">
        <ele>1998.6</ele>
        <time>2023-07-02T12:10:35+0200</time>
      </trkpt>
      <trkpt lat="44.96716" lon="6.63426">
        <ele>1999</ele>
        <time>2023-07-02T12:10:37+0200</time>
      </trkpt>
      <trkpt lat="44.96718" lon="6.63434">
        <ele>2000.1</ele>
        <time>2023-07-02T12:10:39+0200</time>
      </trkpt>
      <trkpt lat="44.9672" lon="6.63442">
        <ele>2000.9</ele>
        <time>2023-07-02T12:10:42+0200</time>
      </trkpt>
      <trkpt lat="44.96722" lon="6.63448">
        <ele>2001.4</ele>
        <time>2023-07-02T12:10:44+0200</time>
      </trkpt>
      <trkpt lat="44.96725" lon="6.63456">
        <ele>2001.7</ele>
        <time>2023-07-02T12:10:47+0200</time>
      </trkpt>
      <trkpt lat="44.96729" lon="6.63464">
        <ele>2002.7</ele>
        <time>2023-07-02T12:10:49+0200</time>
      </trkpt>
      <trkpt lat="44.96731" lon="6.63472">
        <ele>2002.4</ele>
        <time>2023-07-02T12:10:53+0200</time>
      </trkpt>
      <trkpt lat="44.96735" lon="6.63479">
        <ele>2003.8</ele>
        <time>2023-07-02T12:10:55+0200</time>
      </trkpt>
      <trkpt lat="44.96737" lon="6.63487">
        <ele>2004.3</ele>
        <time>2023-07-02T12:10:58+0200</time>
      </trkpt>
      <trkpt lat="44.96739" lon="6.63495">
        <ele>2004.4</ele>
        <time>2023-07-02T12:11:01+0200</time>
      </trkpt>
      <trkpt lat="44.96743" lon="6.63502">
        <ele>2005.8</ele>
        <time>2023-07-02T12:11:04+0200</time>
      </trkpt>
      <trkpt lat="44.96745" lon="6.6351">
        <ele>2006.4</ele>
        <time>2023-07-02T12:11:07+0200</time>
      </trkpt>
      <trkpt lat="44.96747" lon="6.63516">
        <ele>2006.7</ele>
        <time>2023-07-02T12:11:09+0200</time>
      </trkpt>
      <trkpt lat="44.96749" lon="6.63524">
        <ele>2007.1</ele>
        <time>2023-07-02T12:11:12+0200</time>
      </trkpt>
      <trkpt lat="44.96752" lon="6.63531">
        <ele>2008.2</ele>
        <time>2023-07-02T12:11:15+0200</time>
      </trkpt>
      <trkpt lat="44.96756" lon="6.63538">
        <ele>2009.8</ele>
        <time>2023-07-02T12:11:18+0200</time>
      </trkpt>
      <trkpt lat="44.96759" lon="6.63543">
        <ele>2010.8</ele>
        <time>2023-07-02T12:11:21+0200</time>
      </trkpt>
      <trkpt lat="44.96762" lon="6.6355">
        <ele>2011.8</ele>
        <time>2023-07-02T12:11:24+0200</time>
      </trkpt>
      <trkpt lat="44.96764" lon="6.63556">
        <ele>2012.5</ele>
        <time>2023-07-02T12:11:27+0200</time>
      </trkpt>
      <trkpt lat="44.96764" lon="6.63563">
        <ele>2011.8</ele>
        <time>2023-07-02T12:11:31+0200</time>
      </trkpt>
      <trkpt lat="44.96764" lon="6.6357">
        <ele>2011.6</ele>
        <time>2023-07-02T12:11:34+0200</time>
      </trkpt>
      <trkpt lat="44.96765" lon="6.63577">
        <ele>2011.6</ele>
        <time>2023-07-02T12:11:37+0200</time>
      </trkpt>
      <trkpt lat="44.96767" lon="6.63585">
        <ele>2012</ele>
        <time>2023-07-02T12:11:41+0200</time>
      </trkpt>
      <trkpt lat="44.96771" lon="6.63591">
        <ele>2013.4</ele>
        <time>2023-07-02T12:11:44+0200</time>
      </trkpt>
      <trkpt lat="44.96773" lon="6.636">
        <ele>2014.3</ele>
        <time>2023-07-02T12:11:47+0200</time>
      </trkpt>
      <trkpt lat="44.96776" lon="6.63606">
        <ele>2015.1</ele>
        <time>2023-07-02T12:11:49+0200</time>
      </trkpt>
      <trkpt lat="44.96778" lon="6.63612">
        <ele>2016.2</ele>
        <time>2023-07-02T12:11:53+0200</time>
      </trkpt>
      <trkpt lat="44.96782" lon="6.6362">
        <ele>2017.9</ele>
        <time>2023-07-02T12:11:56+0200</time>
      </trkpt>
      <trkpt lat="44.96785" lon="6.63626">
        <ele>2019.3</ele>
        <time>2023-07-02T12:11:59+0200</time>
      </trkpt>
      <trkpt lat="44.96787" lon="6.63633">
        <ele>2020.4</ele>
        <time>2023-07-02T12:12:02+0200</time>
      </trkpt>
      <trkpt lat="44.96787" lon="6.6364">
        <ele>2020.5</ele>
        <time>2023-07-02T12:12:05+0200</time>
      </trkpt>
      <trkpt lat="44.96789" lon="6.63646">
        <ele>2021.7</ele>
        <time>2023-07-02T12:12:09+0200</time>
      </trkpt>
      <trkpt lat="44.96789" lon="6.63652">
        <ele>2021.8</ele>
        <time>2023-07-02T12:12:13+0200</time>
      </trkpt>
      <trkpt lat="44.96791" lon="6.6366">
        <ele>2023.1</ele>
        <time>2023-07-02T12:12:16+0200</time>
      </trkpt>
      <trkpt lat="44.9679" lon="6.63667">
        <ele>2023.1</ele>
        <time>2023-07-02T12:12:20+0200</time>
      </trkpt>
      <trkpt lat="44.96792" lon="6.63675">
        <ele>2024.4</ele>
        <time>2023-07-02T12:12:23+0200</time>
      </trkpt>
      <trkpt lat="44.96792" lon="6.63684">
        <ele>2024.9</ele>
        <time>2023-07-02T12:12:27+0200</time>
      </trkpt>
      <trkpt lat="44.96793" lon="6.63692">
        <ele>2025.4</ele>
        <time>2023-07-02T12:12:30+0200</time>
      </trkpt>
      <trkpt lat="44.96793" lon="6.637">
        <ele>2025.7</ele>
        <time>2023-07-02T12:12:33+0200</time>
      </trkpt>
      <trkpt lat="44.96794" lon="6.63707">
        <ele>2026</ele>
        <time>2023-07-02T12:12:36+0200</time>
      </trkpt>
      <trkpt lat="44.96793" lon="6.63715">
        <ele>2026.1</ele>
        <time>2023-07-02T12:12:40+0200</time>
      </trkpt>
      <trkpt lat="44.96797" lon="6.6372">
        <ele>2027.8</ele>
        <time>2023-07-02T12:12:43+0200</time>
      </trkpt>
      <trkpt lat="44.96801" lon="6.63724">
        <ele>2030</ele>
        <time>2023-07-02T12:12:45+0200</time>
      </trkpt>
      <trkpt lat="44.96806" lon="6.63723">
        <ele>2032.1</ele>
        <time>2023-07-02T12:12:48+0200</time>
      </trkpt>
      <trkpt lat="44.9681" lon="6.63718">
        <ele>2033.5</ele>
        <time>2023-07-02T12:12:52+0200</time>
      </trkpt>
      <trkpt lat="44.96813" lon="6.63712">
        <ele>2034.4</ele>
        <time>2023-07-02T12:12:55+0200</time>
      </trkpt>
      <trkpt lat="44.96815" lon="6.63704">
        <ele>2035.2</ele>
        <time>2023-07-02T12:12:59+0200</time>
      </trkpt>
      <trkpt lat="44.96818" lon="6.63696">
        <ele>2036</ele>
        <time>2023-07-02T12:13:02+0200</time>
      </trkpt>
      <trkpt lat="44.96821" lon="6.63689">
        <ele>2037</ele>
        <time>2023-07-02T12:13:05+0200</time>
      </trkpt>
      <trkpt lat="44.96824" lon="6.63684">
        <ele>2037.8</ele>
        <time>2023-07-02T12:13:08+0200</time>
      </trkpt>
      <trkpt lat="44.96826" lon="6.63675">
        <ele>2038.4</ele>
        <time>2023-07-02T12:13:11+0200</time>
      </trkpt>
      <trkpt lat="44.96828" lon="6.63669">
        <ele>2039.1</ele>
        <time>2023-07-02T12:13:14+0200</time>
      </trkpt>
      <trkpt lat="44.9683" lon="6.63663">
        <ele>2039.4</ele>
        <time>2023-07-02T12:13:17+0200</time>
      </trkpt>
      <trkpt lat="44.96832" lon="6.63656">
        <ele>2040.2</ele>
        <time>2023-07-02T12:13:21+0200</time>
      </trkpt>
      <trkpt lat="44.96834" lon="6.63648">
        <ele>2040.7</ele>
        <time>2023-07-02T12:13:23+0200</time>
      </trkpt>
      <trkpt lat="44.96837" lon="6.63643">
        <ele>2041.7</ele>
        <time>2023-07-02T12:13:26+0200</time>
      </trkpt>
      <trkpt lat="44.96838" lon="6.63636">
        <ele>2041.7</ele>
        <time>2023-07-02T12:13:29+0200</time>
      </trkpt>
      <trkpt lat="44.9684" lon="6.63628">
        <ele>2042.3</ele>
        <time>2023-07-02T12:13:32+0200</time>
      </trkpt>
      <trkpt lat="44.9684" lon="6.6362">
        <ele>2041.8</ele>
        <time>2023-07-02T12:13:35+0200</time>
      </trkpt>
      <trkpt lat="44.96839" lon="6.63613">
        <ele>2041.2</ele>
        <time>2023-07-02T12:13:37+0200</time>
      </trkpt>
      <trkpt lat="44.96838" lon="6.63605">
        <ele>2041</ele>
        <time>2023-07-02T12:13:40+0200</time>
      </trkpt>
      <trkpt lat="44.96839" lon="6.63597">
        <ele>2041.9</ele>
        <time>2023-07-02T12:13:43+0200</time>
      </trkpt>
      <trkpt lat="44.9684" lon="6.63591">
        <ele>2042.3</ele>
        <time>2023-07-02T12:13:47+0200</time>
      </trkpt>
      <trkpt lat="44.9684" lon="6.63581">
        <ele>2042.7</ele>
        <time>2023-07-02T12:13:51+0200</time>
      </trkpt>
      <trkpt lat="44.96839" lon="6.63575">
        <ele>2043.1</ele>
        <time>2023-07-02T12:13:53+0200</time>
      </trkpt>
      <trkpt lat="44.96839" lon="6.63566">
        <ele>2043.6</ele>
        <time>2023-07-02T12:13:56+0200</time>
      </trkpt>
      <trkpt lat="44.96838" lon="6.6356">
        <ele>2043.7</ele>
        <time>2023-07-02T12:13:58+0200</time>
      </trkpt>
      <trkpt lat="44.96835" lon="6.6355">
        <ele>2043.9</ele>
        <time>2023-07-02T12:14:01+0200</time>
      </trkpt>
      <trkpt lat="44.96834" lon="6.63543">
        <ele>2044.6</ele>
        <time>2023-07-02T12:14:04+0200</time>
      </trkpt>
      <trkpt lat="44.96833" lon="6.63535">
        <ele>2045</ele>
        <time>2023-07-02T12:14:07+0200</time>
      </trkpt>
      <trkpt lat="44.96832" lon="6.63527">
        <ele>2045.7</ele>
        <time>2023-07-02T12:14:11+0200</time>
      </trkpt>
      <trkpt lat="44.96833" lon="6.63518">
        <ele>2046.8</ele>
        <time>2023-07-02T12:14:14+0200</time>
      </trkpt>
      <trkpt lat="44.96831" lon="6.6351">
        <ele>2047.1</ele>
        <time>2023-07-02T12:14:18+0200</time>
      </trkpt>
      <trkpt lat="44.96831" lon="6.63502">
        <ele>2047.8</ele>
        <time>2023-07-02T12:14:22+0200</time>
      </trkpt>
      <trkpt lat="44.96833" lon="6.63495">
        <ele>2049.2</ele>
        <time>2023-07-02T12:14:25+0200</time>
      </trkpt>
      <trkpt lat="44.96834" lon="6.63488">
        <ele>2049.5</ele>
        <time>2023-07-02T12:14:28+0200</time>
      </trkpt>
      <trkpt lat="44.96835" lon="6.63481">
        <ele>2050.2</ele>
        <time>2023-07-02T12:14:32+0200</time>
      </trkpt>
      <trkpt lat="44.96834" lon="6.63474">
        <ele>2050.3</ele>
        <time>2023-07-02T12:14:34+0200</time>
      </trkpt>
      <trkpt lat="44.96836" lon="6.63467">
        <ele>2050.9</ele>
        <time>2023-07-02T12:14:37+0200</time>
      </trkpt>
      <trkpt lat="44.96836" lon="6.6346">
        <ele>2051.4</ele>
        <time>2023-07-02T12:14:40+0200</time>
      </trkpt>
      <trkpt lat="44.96838" lon="6.63452">
        <ele>2052.2</ele>
        <time>2023-07-02T12:14:43+0200</time>
      </trkpt>
      <trkpt lat="44.9684" lon="6.63444">
        <ele>2053.1</ele>
        <time>2023-07-02T12:14:47+0200</time>
      </trkpt>
      <trkpt lat="44.96842" lon="6.63437">
        <ele>2053.7</ele>
        <time>2023-07-02T12:14:50+0200</time>
      </trkpt>
      <trkpt lat="44.96843" lon="6.63428">
        <ele>2054</ele>
        <time>2023-07-02T12:14:54+0200</time>
      </trkpt>
      <trkpt lat="44.96845" lon="6.63421">
        <ele>2054.6</ele>
        <time>2023-07-02T12:14:57+0200</time>
      </trkpt>
      <trkpt lat="44.96845" lon="6.63414">
        <ele>2054.8</ele>
        <time>2023-07-02T12:15:00+0200</time>
      </trkpt>
      <trkpt lat="44.96847" lon="6.63406">
        <ele>2055.7</ele>
        <time>2023-07-02T12:15:04+0200</time>
      </trkpt>
      <trkpt lat="44.96847" lon="6.63399">
        <ele>2055.9</ele>
        <time>2023-07-02T12:15:09+0200</time>
      </trkpt>
      <trkpt lat="44.96847" lon="6.63393">
        <ele>2055.7</ele>
        <time>2023-07-02T12:15:35+0200</time>
      </trkpt>
      <trkpt lat="44.96842" lon="6.63395">
        <ele>2054.2</ele>
        <time>2023-07-02T12:15:52+0200</time>
      </trkpt>
      <trkpt lat="44.96847" lon="6.63395">
        <ele>2055.9</ele>
        <time>2023-07-02T12:16:09+0200</time>
      </trkpt>
      <trkpt lat="44.96853" lon="6.63397">
        <ele>2057.7</ele>
        <time>2023-07-02T12:16:19+0200</time>
      </trkpt>
      <trkpt lat="44.96859" lon="6.63398">
        <ele>2060</ele>
        <time>2023-07-02T12:16:21+0200</time>
      </trkpt>
      <trkpt lat="44.96854" lon="6.63395">
        <ele>2058.2</ele>
        <time>2023-07-02T12:16:43+0200</time>
      </trkpt>
      <trkpt lat="44.96849" lon="6.63395">
        <ele>2056.5</ele>
        <time>2023-07-02T12:16:48+0200</time>
      </trkpt>
      <trkpt lat="44.96852" lon="6.63389">
        <ele>2057.6</ele>
        <time>2023-07-02T12:17:13+0200</time>
      </trkpt>
      <trkpt lat="44.96853" lon="6.63381">
        <ele>2057.9</ele>
        <time>2023-07-02T12:17:17+0200</time>
      </trkpt>
      <trkpt lat="44.96855" lon="6.63374">
        <ele>2058.2</ele>
        <time>2023-07-02T12:17:20+0200</time>
      </trkpt>
      <trkpt lat="44.96857" lon="6.63367">
        <ele>2058.7</ele>
        <time>2023-07-02T12:17:24+0200</time>
      </trkpt>
      <trkpt lat="44.96858" lon="6.6336">
        <ele>2058.8</ele>
        <time>2023-07-02T12:17:27+0200</time>
      </trkpt>
      <trkpt lat="44.96858" lon="6.63353">
        <ele>2058.5</ele>
        <time>2023-07-02T12:17:29+0200</time>
      </trkpt>
      <trkpt lat="44.9686" lon="6.63346">
        <ele>2058.9</ele>
        <time>2023-07-02T12:17:31+0200</time>
      </trkpt>
      <trkpt lat="44.9686" lon="6.63339">
        <ele>2058.9</ele>
        <time>2023-07-02T12:17:33+0200</time>
      </trkpt>
      <trkpt lat="44.96862" lon="6.63331">
        <ele>2059.3</ele>
        <time>2023-07-02T12:17:35+0200</time>
      </trkpt>
      <trkpt lat="44.96866" lon="6.63325">
        <ele>2060.2</ele>
        <time>2023-07-02T12:17:38+0200</time>
      </trkpt>
      <trkpt lat="44.96868" lon="6.63318">
        <ele>2060.7</ele>
        <time>2023-07-02T12:17:41+0200</time>
      </trkpt>
      <trkpt lat="44.96872" lon="6.63315">
        <ele>2062</ele>
        <time>2023-07-02T12:17:44+0200</time>
      </trkpt>
      <trkpt lat="44.96873" lon="6.63309">
        <ele>2062.4</ele>
        <time>2023-07-02T12:17:47+0200</time>
      </trkpt>
      <trkpt lat="44.96875" lon="6.63303">
        <ele>2063</ele>
        <time>2023-07-02T12:17:50+0200</time>
      </trkpt>
      <trkpt lat="44.96876" lon="6.63294">
        <ele>2062.7</ele>
        <time>2023-07-02T12:17:53+0200</time>
      </trkpt>
      <trkpt lat="44.96879" lon="6.63289">
        <ele>2063.4</ele>
        <time>2023-07-02T12:17:55+0200</time>
      </trkpt>
      <trkpt lat="44.96883" lon="6.63283">
        <ele>2064.1</ele>
        <time>2023-07-02T12:17:57+0200</time>
      </trkpt>
      <trkpt lat="44.96885" lon="6.63276">
        <ele>2064.6</ele>
        <time>2023-07-02T12:17:59+0200</time>
      </trkpt>
      <trkpt lat="44.96889" lon="6.63269">
        <ele>2065.6</ele>
        <time>2023-07-02T12:18:02+0200</time>
      </trkpt>
      <trkpt lat="44.9689" lon="6.63261">
        <ele>2065.7</ele>
        <time>2023-07-02T12:18:06+0200</time>
      </trkpt>
      <trkpt lat="44.96894" lon="6.63257">
        <ele>2067</ele>
        <time>2023-07-02T12:18:09+0200</time>
      </trkpt>
      <trkpt lat="44.96897" lon="6.6325">
        <ele>2068</ele>
        <time>2023-07-02T12:18:13+0200</time>
      </trkpt>
      <trkpt lat="44.96901" lon="6.63244">
        <ele>2068.9</ele>
        <time>2023-07-02T12:18:17+0200</time>
      </trkpt>
      <trkpt lat="44.96903" lon="6.63235">
        <ele>2069.1</ele>
        <time>2023-07-02T12:18:22+0200</time>
      </trkpt>
      <trkpt lat="44.96908" lon="6.63232">
        <ele>2070.7</ele>
        <time>2023-07-02T12:18:26+0200</time>
      </trkpt>
      <trkpt lat="44.96914" lon="6.63228">
        <ele>2072.5</ele>
        <time>2023-07-02T12:18:30+0200</time>
      </trkpt>
      <trkpt lat="44.96919" lon="6.63222">
        <ele>2073.7</ele>
        <time>2023-07-02T12:18:33+0200</time>
      </trkpt>
      <trkpt lat="44.96923" lon="6.63216">
        <ele>2074.9</ele>
        <time>2023-07-02T12:18:36+0200</time>
      </trkpt>
      <trkpt lat="44.96927" lon="6.63211">
        <ele>2075.8</ele>
        <time>2023-07-02T12:18:39+0200</time>
      </trkpt>
      <trkpt lat="44.96929" lon="6.63202">
        <ele>2076.1</ele>
        <time>2023-07-02T12:18:43+0200</time>
      </trkpt>
      <trkpt lat="44.96933" lon="6.63197">
        <ele>2076.9</ele>
        <time>2023-07-02T12:18:46+0200</time>
      </trkpt>
      <trkpt lat="44.96936" lon="6.63191">
        <ele>2077.5</ele>
        <time>2023-07-02T12:18:49+0200</time>
      </trkpt>
      <trkpt lat="44.96938" lon="6.63184">
        <ele>2078</ele>
        <time>2023-07-02T12:18:52+0200</time>
      </trkpt>
      <trkpt lat="44.96944" lon="6.63185">
        <ele>2080.3</ele>
        <time>2023-07-02T12:18:55+0200</time>
      </trkpt>
      <trkpt lat="44.96948" lon="6.63182">
        <ele>2081.3</ele>
        <time>2023-07-02T12:19:00+0200</time>
      </trkpt>
      <trkpt lat="44.96949" lon="6.63176">
        <ele>2081.1</ele>
        <time>2023-07-02T12:19:04+0200</time>
      </trkpt>
      <trkpt lat="44.96946" lon="6.63181">
        <ele>2080.6</ele>
        <time>2023-07-02T12:19:13+0200</time>
      </trkpt>
      <trkpt lat="44.96944" lon="6.63189">
        <ele>2080.4</ele>
        <time>2023-07-02T12:19:16+0200</time>
      </trkpt>
      <trkpt lat="44.96942" lon="6.63196">
        <ele>2080.1</ele>
        <time>2023-07-02T12:19:19+0200</time>
      </trkpt>
      <trkpt lat="44.96941" lon="6.63202">
        <ele>2080.2</ele>
        <time>2023-07-02T12:19:21+0200</time>
      </trkpt>
      <trkpt lat="44.9694" lon="6.6321">
        <ele>2080.4</ele>
        <time>2023-07-02T12:19:25+0200</time>
      </trkpt>
      <trkpt lat="44.96939" lon="6.63216">
        <ele>2080.7</ele>
        <time>2023-07-02T12:19:28+0200</time>
      </trkpt>
      <trkpt lat="44.96937" lon="6.63222">
        <ele>2080.5</ele>
        <time>2023-07-02T12:19:31+0200</time>
      </trkpt>
      <trkpt lat="44.96937" lon="6.63231">
        <ele>2080.8</ele>
        <time>2023-07-02T12:19:36+0200</time>
      </trkpt>
      <trkpt lat="44.96939" lon="6.63242">
        <ele>2082.4</ele>
        <time>2023-07-02T12:19:41+0200</time>
      </trkpt>
      <trkpt lat="44.96941" lon="6.63252">
        <ele>2083.7</ele>
        <time>2023-07-02T12:19:44+0200</time>
      </trkpt>
      <trkpt lat="44.96942" lon="6.63259">
        <ele>2084.2</ele>
        <time>2023-07-02T12:19:48+0200</time>
      </trkpt>
      <trkpt lat="44.96943" lon="6.63269">
        <ele>2084.4</ele>
        <time>2023-07-02T12:19:53+0200</time>
      </trkpt>
      <trkpt lat="44.96946" lon="6.63275">
        <ele>2085.4</ele>
        <time>2023-07-02T12:19:56+0200</time>
      </trkpt>
      <trkpt lat="44.96948" lon="6.63282">
        <ele>2086.1</ele>
        <time>2023-07-02T12:19:59+0200</time>
      </trkpt>
      <trkpt lat="44.96949" lon="6.63289">
        <ele>2086.4</ele>
        <time>2023-07-02T12:20:03+0200</time>
      </trkpt>
      <trkpt lat="44.96949" lon="6.63297">
        <ele>2086.3</ele>
        <time>2023-07-02T12:20:06+0200</time>
      </trkpt>
      <trkpt lat="44.96952" lon="6.63305">
        <ele>2087.3</ele>
        <time>2023-07-02T12:20:08+0200</time>
      </trkpt>
      <trkpt lat="44.96957" lon="6.63311">
        <ele>2088.4</ele>
        <time>2023-07-02T12:20:10+0200</time>
      </trkpt>
      <trkpt lat="44.96961" lon="6.63318">
        <ele>2088.9</ele>
        <time>2023-07-02T12:20:12+0200</time>
      </trkpt>
      <trkpt lat="44.96964" lon="6.63324">
        <ele>2089.4</ele>
        <time>2023-07-02T12:20:14+0200</time>
      </trkpt>
      <trkpt lat="44.96967" lon="6.63331">
        <ele>2090</ele>
        <time>2023-07-02T12:20:17+0200</time>
      </trkpt>
      <trkpt lat="44.96972" lon="6.63335">
        <ele>2090.8</ele>
        <time>2023-07-02T12:20:20+0200</time>
      </trkpt>
      <trkpt lat="44.96975" lon="6.6334">
        <ele>2091.5</ele>
        <time>2023-07-02T12:20:23+0200</time>
      </trkpt>
      <trkpt lat="44.9698" lon="6.63346">
        <ele>2092.4</ele>
        <time>2023-07-02T12:20:26+0200</time>
      </trkpt>
      <trkpt lat="44.96984" lon="6.63347">
        <ele>2093.6</ele>
        <time>2023-07-02T12:20:28+0200</time>
      </trkpt>
      <trkpt lat="44.9699" lon="6.63347">
        <ele>2094.9</ele>
        <time>2023-07-02T12:20:30+0200</time>
      </trkpt>
      <trkpt lat="44.96995" lon="6.63347">
        <ele>2096.3</ele>
        <time>2023-07-02T12:20:33+0200</time>
      </trkpt>
      <trkpt lat="44.97" lon="6.63346">
        <ele>2097.6</ele>
        <time>2023-07-02T12:20:36+0200</time>
      </trkpt>
      <trkpt lat="44.97005" lon="6.63344">
        <ele>2099</ele>
        <time>2023-07-02T12:20:39+0200</time>
      </trkpt>
      <trkpt lat="44.97009" lon="6.63338">
        <ele>2100.4</ele>
        <time>2023-07-02T12:20:42+0200</time>
      </trkpt>
      <trkpt lat="44.97012" lon="6.63329">
        <ele>2101.3</ele>
        <time>2023-07-02T12:20:47+0200</time>
      </trkpt>
      <trkpt lat="44.97013" lon="6.6332">
        <ele>2101.8</ele>
        <time>2023-07-02T12:20:50+0200</time>
      </trkpt>
      <trkpt lat="44.97012" lon="6.63313">
        <ele>2101.5</ele>
        <time>2023-07-02T12:20:53+0200</time>
      </trkpt>
      <trkpt lat="44.97012" lon="6.63306">
        <ele>2101.6</ele>
        <time>2023-07-02T12:20:56+0200</time>
      </trkpt>
      <trkpt lat="44.97012" lon="6.63298">
        <ele>2101.9</ele>
        <time>2023-07-02T12:21:00+0200</time>
      </trkpt>
      <trkpt lat="44.97014" lon="6.6329">
        <ele>2102.5</ele>
        <time>2023-07-02T12:21:04+0200</time>
      </trkpt>
      <trkpt lat="44.97019" lon="6.63287">
        <ele>2103.7</ele>
        <time>2023-07-02T12:21:08+0200</time>
      </trkpt>
      <trkpt lat="44.97023" lon="6.6328">
        <ele>2104.8</ele>
        <time>2023-07-02T12:21:12+0200</time>
      </trkpt>
      <trkpt lat="44.97028" lon="6.63278">
        <ele>2106.1</ele>
        <time>2023-07-02T12:21:15+0200</time>
      </trkpt>
      <trkpt lat="44.97032" lon="6.63272">
        <ele>2107.2</ele>
        <time>2023-07-02T12:21:19+0200</time>
      </trkpt>
      <trkpt lat="44.97037" lon="6.63267">
        <ele>2108.4</ele>
        <time>2023-07-02T12:21:23+0200</time>
      </trkpt>
      <trkpt lat="44.9704" lon="6.63263">
        <ele>2109.3</ele>
        <time>2023-07-02T12:21:27+0200</time>
      </trkpt>
      <trkpt lat="44.97043" lon="6.63258">
        <ele>2110</ele>
        <time>2023-07-02T12:21:30+0200</time>
      </trkpt>
      <trkpt lat="44.97047" lon="6.63253">
        <ele>2110.8</ele>
        <time>2023-07-02T12:21:33+0200</time>
      </trkpt>
      <trkpt lat="44.9705" lon="6.63248">
        <ele>2111.5</ele>
        <time>2023-07-02T12:21:37+0200</time>
      </trkpt>
      <trkpt lat="44.97053" lon="6.63243">
        <ele>2112.1</ele>
        <time>2023-07-02T12:21:40+0200</time>
      </trkpt>
      <trkpt lat="44.97057" lon="6.63238">
        <ele>2113.2</ele>
        <time>2023-07-02T12:21:44+0200</time>
      </trkpt>
      <trkpt lat="44.97063" lon="6.63232">
        <ele>2114.8</ele>
        <time>2023-07-02T12:21:49+0200</time>
      </trkpt>
      <trkpt lat="44.97066" lon="6.63227">
        <ele>2115.6</ele>
        <time>2023-07-02T12:21:51+0200</time>
      </trkpt>
      <trkpt lat="44.9707" lon="6.63224">
        <ele>2116.8</ele>
        <time>2023-07-02T12:21:55+0200</time>
      </trkpt>
      <trkpt lat="44.97073" lon="6.63219">
        <ele>2117.5</ele>
        <time>2023-07-02T12:21:58+0200</time>
      </trkpt>
      <trkpt lat="44.97077" lon="6.63213">
        <ele>2118.6</ele>
        <time>2023-07-02T12:22:02+0200</time>
      </trkpt>
      <trkpt lat="44.9708" lon="6.63206">
        <ele>2119.3</ele>
        <time>2023-07-02T12:22:05+0200</time>
      </trkpt>
      <trkpt lat="44.97084" lon="6.63204">
        <ele>2120.7</ele>
        <time>2023-07-02T12:22:09+0200</time>
      </trkpt>
      <trkpt lat="44.97089" lon="6.632">
        <ele>2122.3</ele>
        <time>2023-07-02T12:22:13+0200</time>
      </trkpt>
      <trkpt lat="44.97093" lon="6.63194">
        <ele>2123.6</ele>
        <time>2023-07-02T12:22:16+0200</time>
      </trkpt>
      <trkpt lat="44.97096" lon="6.63186">
        <ele>2124.2</ele>
        <time>2023-07-02T12:22:19+0200</time>
      </trkpt>
      <trkpt lat="44.971" lon="6.63179">
        <ele>2125</ele>
        <time>2023-07-02T12:22:22+0200</time>
      </trkpt>
      <trkpt lat="44.97101" lon="6.63169">
        <ele>2124.8</ele>
        <time>2023-07-02T12:22:25+0200</time>
      </trkpt>
      <trkpt lat="44.97103" lon="6.63163">
        <ele>2125</ele>
        <time>2023-07-02T12:22:28+0200</time>
      </trkpt>
      <trkpt lat="44.97106" lon="6.63159">
        <ele>2125.8</ele>
        <time>2023-07-02T12:22:31+0200</time>
      </trkpt>
      <trkpt lat="44.9711" lon="6.63153">
        <ele>2126.5</ele>
        <time>2023-07-02T12:22:34+0200</time>
      </trkpt>
      <trkpt lat="44.97113" lon="6.63146">
        <ele>2127.1</ele>
        <time>2023-07-02T12:22:37+0200</time>
      </trkpt>
      <trkpt lat="44.97114" lon="6.63139">
        <ele>2127.1</ele>
        <time>2023-07-02T12:22:40+0200</time>
      </trkpt>
      <trkpt lat="44.97116" lon="6.63133">
        <ele>2127.1</ele>
        <time>2023-07-02T12:22:43+0200</time>
      </trkpt>
      <trkpt lat="44.97117" lon="6.63127">
        <ele>2127.4</ele>
        <time>2023-07-02T12:22:47+0200</time>
      </trkpt>
      <trkpt lat="44.97121" lon="6.6312">
        <ele>2128</ele>
        <time>2023-07-02T12:22:51+0200</time>
      </trkpt>
      <trkpt lat="44.97123" lon="6.63113">
        <ele>2128.5</ele>
        <time>2023-07-02T12:22:54+0200</time>
      </trkpt>
      <trkpt lat="44.97126" lon="6.63107">
        <ele>2129.3</ele>
        <time>2023-07-02T12:22:57+0200</time>
      </trkpt>
      <trkpt lat="44.9713" lon="6.63102">
        <ele>2130.4</ele>
        <time>2023-07-02T12:23:00+0200</time>
      </trkpt>
      <trkpt lat="44.97134" lon="6.63097">
        <ele>2131.3</ele>
        <time>2023-07-02T12:23:03+0200</time>
      </trkpt>
      <trkpt lat="44.97138" lon="6.63093">
        <ele>2132.2</ele>
        <time>2023-07-02T12:23:06+0200</time>
      </trkpt>
      <trkpt lat="44.97142" lon="6.63087">
        <ele>2133.3</ele>
        <time>2023-07-02T12:23:10+0200</time>
      </trkpt>
      <trkpt lat="44.97146" lon="6.63081">
        <ele>2134.3</ele>
        <time>2023-07-02T12:23:13+0200</time>
      </trkpt>
      <trkpt lat="44.97149" lon="6.63075">
        <ele>2134.9</ele>
        <time>2023-07-02T12:23:16+0200</time>
      </trkpt>
      <trkpt lat="44.97154" lon="6.63068">
        <ele>2135.9</ele>
        <time>2023-07-02T12:23:20+0200</time>
      </trkpt>
      <trkpt lat="44.97158" lon="6.63066">
        <ele>2137.2</ele>
        <time>2023-07-02T12:23:23+0200</time>
      </trkpt>
      <trkpt lat="44.97162" lon="6.63063">
        <ele>2138.4</ele>
        <time>2023-07-02T12:23:25+0200</time>
      </trkpt>
      <trkpt lat="44.97166" lon="6.63057">
        <ele>2138.9</ele>
        <time>2023-07-02T12:23:29+0200</time>
      </trkpt>
      <trkpt lat="44.97168" lon="6.63052">
        <ele>2139.2</ele>
        <time>2023-07-02T12:23:32+0200</time>
      </trkpt>
      <trkpt lat="44.97171" lon="6.63046">
        <ele>2139.9</ele>
        <time>2023-07-02T12:23:34+0200</time>
      </trkpt>
      <trkpt lat="44.97175" lon="6.6304">
        <ele>2141.1</ele>
        <time>2023-07-02T12:23:37+0200</time>
      </trkpt>
      <trkpt lat="44.97178" lon="6.63033">
        <ele>2141.8</ele>
        <time>2023-07-02T12:23:40+0200</time>
      </trkpt>
      <trkpt lat="44.97181" lon="6.63028">
        <ele>2142.6</ele>
        <time>2023-07-02T12:23:43+0200</time>
      </trkpt>
      <trkpt lat="44.97185" lon="6.63021">
        <ele>2143.7</ele>
        <time>2023-07-02T12:23:47+0200</time>
      </trkpt>
      <trkpt lat="44.97187" lon="6.63014">
        <ele>2144.1</ele>
        <time>2023-07-02T12:23:50+0200</time>
      </trkpt>
      <trkpt lat="44.9719" lon="6.63005">
        <ele>2144.4</ele>
        <time>2023-07-02T12:23:52+0200</time>
      </trkpt>
      <trkpt lat="44.97191" lon="6.62999">
        <ele>2144.4</ele>
        <time>2023-07-02T12:23:54+0200</time>
      </trkpt>
      <trkpt lat="44.97193" lon="6.62991">
        <ele>2144.9</ele>
        <time>2023-07-02T12:23:57+0200</time>
      </trkpt>
      <trkpt lat="44.97193" lon="6.62983">
        <ele>2144.6</ele>
        <time>2023-07-02T12:24:00+0200</time>
      </trkpt>
      <trkpt lat="44.97194" lon="6.62974">
        <ele>2144.8</ele>
        <time>2023-07-02T12:24:04+0200</time>
      </trkpt>
      <trkpt lat="44.97192" lon="6.62968">
        <ele>2144</ele>
        <time>2023-07-02T12:24:06+0200</time>
      </trkpt>
      <trkpt lat="44.97192" lon="6.62961">
        <ele>2143.5</ele>
        <time>2023-07-02T12:24:09+0200</time>
      </trkpt>
      <trkpt lat="44.97193" lon="6.62953">
        <ele>2143.7</ele>
        <time>2023-07-02T12:24:12+0200</time>
      </trkpt>
      <trkpt lat="44.97195" lon="6.62947">
        <ele>2144.1</ele>
        <time>2023-07-02T12:24:15+0200</time>
      </trkpt>
      <trkpt lat="44.97199" lon="6.62942">
        <ele>2146.1</ele>
        <time>2023-07-02T12:24:18+0200</time>
      </trkpt>
      <trkpt lat="44.97201" lon="6.62936">
        <ele>2147.2</ele>
        <time>2023-07-02T12:24:21+0200</time>
      </trkpt>
      <trkpt lat="44.97204" lon="6.6293">
        <ele>2148.6</ele>
        <time>2023-07-02T12:24:24+0200</time>
      </trkpt>
      <trkpt lat="44.97207" lon="6.62924">
        <ele>2150</ele>
        <time>2023-07-02T12:24:27+0200</time>
      </trkpt>
      <trkpt lat="44.97209" lon="6.62918">
        <ele>2150.7</ele>
        <time>2023-07-02T12:24:30+0200</time>
      </trkpt>
      <trkpt lat="44.97213" lon="6.62913">
        <ele>2152.1</ele>
        <time>2023-07-02T12:24:32+0200</time>
      </trkpt>
      <trkpt lat="44.97215" lon="6.62907">
        <ele>2153</ele>
        <time>2023-07-02T12:24:35+0200</time>
      </trkpt>
      <trkpt lat="44.97216" lon="6.629">
        <ele>2153.6</ele>
        <time>2023-07-02T12:24:38+0200</time>
      </trkpt>
      <trkpt lat="44.97213" lon="6.62893">
        <ele>2152.5</ele>
        <time>2023-07-02T12:24:40+0200</time>
      </trkpt>
      <trkpt lat="44.97213" lon="6.62886">
        <ele>2152.2</ele>
        <time>2023-07-02T12:24:43+0200</time>
      </trkpt>
      <trkpt lat="44.97214" lon="6.62878">
        <ele>2152.8</ele>
        <time>2023-07-02T12:24:46+0200</time>
      </trkpt>
      <trkpt lat="44.97213" lon="6.62871">
        <ele>2152.6</ele>
        <time>2023-07-02T12:24:50+0200</time>
      </trkpt>
      <trkpt lat="44.97216" lon="6.62865">
        <ele>2153.6</ele>
        <time>2023-07-02T12:24:53+0200</time>
      </trkpt>
      <trkpt lat="44.97218" lon="6.62859">
        <ele>2154.4</ele>
        <time>2023-07-02T12:24:57+0200</time>
      </trkpt>
      <trkpt lat="44.97221" lon="6.62852">
        <ele>2155.9</ele>
        <time>2023-07-02T12:25:01+0200</time>
      </trkpt>
      <trkpt lat="44.97226" lon="6.62845">
        <ele>2157.7</ele>
        <time>2023-07-02T12:25:04+0200</time>
      </trkpt>
      <trkpt lat="44.97226" lon="6.62839">
        <ele>2158.1</ele>
        <time>2023-07-02T12:25:08+0200</time>
      </trkpt>
      <trkpt lat="44.97225" lon="6.62832">
        <ele>2158</ele>
        <time>2023-07-02T12:25:12+0200</time>
      </trkpt>
      <trkpt lat="44.97227" lon="6.62825">
        <ele>2158.6</ele>
        <time>2023-07-02T12:25:15+0200</time>
      </trkpt>
      <trkpt lat="44.97228" lon="6.62819">
        <ele>2158.9</ele>
        <time>2023-07-02T12:25:18+0200</time>
      </trkpt>
      <trkpt lat="44.97229" lon="6.62811">
        <ele>2159.5</ele>
        <time>2023-07-02T12:25:22+0200</time>
      </trkpt>
      <trkpt lat="44.97229" lon="6.62805">
        <ele>2159.6</ele>
        <time>2023-07-02T12:25:24+0200</time>
      </trkpt>
      <trkpt lat="44.9723" lon="6.62798">
        <ele>2160.1</ele>
        <time>2023-07-02T12:25:27+0200</time>
      </trkpt>
      <trkpt lat="44.97232" lon="6.62791">
        <ele>2161.2</ele>
        <time>2023-07-02T12:25:30+0200</time>
      </trkpt>
      <trkpt lat="44.97233" lon="6.62784">
        <ele>2161.6</ele>
        <time>2023-07-02T12:25:33+0200</time>
      </trkpt>
      <trkpt lat="44.97234" lon="6.62778">
        <ele>2162.3</ele>
        <time>2023-07-02T12:25:36+0200</time>
      </trkpt>
      <trkpt lat="44.97236" lon="6.6277">
        <ele>2163.3</ele>
        <time>2023-07-02T12:25:40+0200</time>
      </trkpt>
      <trkpt lat="44.97236" lon="6.62761">
        <ele>2163.7</ele>
        <time>2023-07-02T12:25:44+0200</time>
      </trkpt>
      <trkpt lat="44.97238" lon="6.62754">
        <ele>2164.7</ele>
        <time>2023-07-02T12:25:47+0200</time>
      </trkpt>
      <trkpt lat="44.97238" lon="6.62747">
        <ele>2164.9</ele>
        <time>2023-07-02T12:25:50+0200</time>
      </trkpt>
      <trkpt lat="44.97237" lon="6.62739">
        <ele>2164.4</ele>
        <time>2023-07-02T12:25:53+0200</time>
      </trkpt>
      <trkpt lat="44.97236" lon="6.62732">
        <ele>2164.3</ele>
        <time>2023-07-02T12:25:56+0200</time>
      </trkpt>
      <trkpt lat="44.97238" lon="6.62726">
        <ele>2165.2</ele>
        <time>2023-07-02T12:25:59+0200</time>
      </trkpt>
      <trkpt lat="44.97239" lon="6.62718">
        <ele>2165.6</ele>
        <time>2023-07-02T12:26:02+0200</time>
      </trkpt>
      <trkpt lat="44.97238" lon="6.6271">
        <ele>2165.5</ele>
        <time>2023-07-02T12:26:05+0200</time>
      </trkpt>
      <trkpt lat="44.97238" lon="6.62703">
        <ele>2165.8</ele>
        <time>2023-07-02T12:26:08+0200</time>
      </trkpt>
      <trkpt lat="44.97238" lon="6.62696">
        <ele>2165.9</ele>
        <time>2023-07-02T12:26:11+0200</time>
      </trkpt>
      <trkpt lat="44.97238" lon="6.62689">
        <ele>2166.4</ele>
        <time>2023-07-02T12:26:14+0200</time>
      </trkpt>
      <trkpt lat="44.97241" lon="6.62683">
        <ele>2167.8</ele>
        <time>2023-07-02T12:26:18+0200</time>
      </trkpt>
      <trkpt lat="44.97245" lon="6.62685">
        <ele>2169.1</ele>
        <time>2023-07-02T12:26:21+0200</time>
      </trkpt>
      <trkpt lat="44.97248" lon="6.62691">
        <ele>2169.7</ele>
        <time>2023-07-02T12:26:25+0200</time>
      </trkpt>
      <trkpt lat="44.97248" lon="6.62697">
        <ele>2169.2</ele>
        <time>2023-07-02T12:26:27+0200</time>
      </trkpt>
      <trkpt lat="44.97246" lon="6.62705">
        <ele>2168.3</ele>
        <time>2023-07-02T12:26:30+0200</time>
      </trkpt>
      <trkpt lat="44.97246" lon="6.62713">
        <ele>2167.9</ele>
        <time>2023-07-02T12:26:33+0200</time>
      </trkpt>
      <trkpt lat="44.9725" lon="6.62719">
        <ele>2169.1</ele>
        <time>2023-07-02T12:26:36+0200</time>
      </trkpt>
      <trkpt lat="44.97254" lon="6.62728">
        <ele>2170.3</ele>
        <time>2023-07-02T12:26:40+0200</time>
      </trkpt>
      <trkpt lat="44.97256" lon="6.62735">
        <ele>2171.3</ele>
        <time>2023-07-02T12:26:43+0200</time>
      </trkpt>
      <trkpt lat="44.97258" lon="6.62742">
        <ele>2171.9</ele>
        <time>2023-07-02T12:26:46+0200</time>
      </trkpt>
      <trkpt lat="44.97257" lon="6.62749">
        <ele>2171.5</ele>
        <time>2023-07-02T12:26:49+0200</time>
      </trkpt>
      <trkpt lat="44.97259" lon="6.62756">
        <ele>2171.9</ele>
        <time>2023-07-02T12:26:52+0200</time>
      </trkpt>
      <trkpt lat="44.97257" lon="6.62764">
        <ele>2171</ele>
        <time>2023-07-02T12:26:56+0200</time>
      </trkpt>
      <trkpt lat="44.97256" lon="6.62772">
        <ele>2170.3</ele>
        <time>2023-07-02T12:27:00+0200</time>
      </trkpt>
      <trkpt lat="44.97259" lon="6.62781">
        <ele>2171</ele>
        <time>2023-07-02T12:27:03+0200</time>
      </trkpt>
      <trkpt lat="44.97262" lon="6.62787">
        <ele>2171.7</ele>
        <time>2023-07-02T12:27:05+0200</time>
      </trkpt>
      <trkpt lat="44.97267" lon="6.62794">
        <ele>2173.3</ele>
        <time>2023-07-02T12:27:08+0200</time>
      </trkpt>
      <trkpt lat="44.97271" lon="6.62798">
        <ele>2174.3</ele>
        <time>2023-07-02T12:27:11+0200</time>
      </trkpt>
      <trkpt lat="44.97275" lon="6.62801">
        <ele>2175.6</ele>
        <time>2023-07-02T12:27:14+0200</time>
      </trkpt>
      <trkpt lat="44.9728" lon="6.62801">
        <ele>2177.2</ele>
        <time>2023-07-02T12:27:17+0200</time>
      </trkpt>
      <trkpt lat="44.97284" lon="6.62807">
        <ele>2178.1</ele>
        <time>2023-07-02T12:27:20+0200</time>
      </trkpt>
      <trkpt lat="44.97288" lon="6.62812">
        <ele>2179.2</ele>
        <time>2023-07-02T12:27:24+0200</time>
      </trkpt>
      <trkpt lat="44.97292" lon="6.62816">
        <ele>2180.4</ele>
        <time>2023-07-02T12:27:27+0200</time>
      </trkpt>
      <trkpt lat="44.97295" lon="6.62821">
        <ele>2181.3</ele>
        <time>2023-07-02T12:27:30+0200</time>
      </trkpt>
      <trkpt lat="44.97297" lon="6.62829">
        <ele>2181.5</ele>
        <time>2023-07-02T12:27:35+0200</time>
      </trkpt>
      <trkpt lat="44.97297" lon="6.62835">
        <ele>2181</ele>
        <time>2023-07-02T12:27:39+0200</time>
      </trkpt>
      <trkpt lat="44.97295" lon="6.62841">
        <ele>2180.4</ele>
        <time>2023-07-02T12:27:44+0200</time>
      </trkpt>
      <trkpt lat="44.97293" lon="6.62849">
        <ele>2179.7</ele>
        <time>2023-07-02T12:27:48+0200</time>
      </trkpt>
      <trkpt lat="44.97294" lon="6.62857">
        <ele>2179.8</ele>
        <time>2023-07-02T12:27:51+0200</time>
      </trkpt>
      <trkpt lat="44.97296" lon="6.62865">
        <ele>2180.7</ele>
        <time>2023-07-02T12:27:54+0200</time>
      </trkpt>
      <trkpt lat="44.97298" lon="6.62871">
        <ele>2181.5</ele>
        <time>2023-07-02T12:27:56+0200</time>
      </trkpt>
      <trkpt lat="44.97301" lon="6.62879">
        <ele>2183.1</ele>
        <time>2023-07-02T12:27:59+0200</time>
      </trkpt>
      <trkpt lat="44.97304" lon="6.62885">
        <ele>2184.4</ele>
        <time>2023-07-02T12:28:01+0200</time>
      </trkpt>
      <trkpt lat="44.97307" lon="6.6289">
        <ele>2185.4</ele>
        <time>2023-07-02T12:28:04+0200</time>
      </trkpt>
      <trkpt lat="44.97307" lon="6.62897">
        <ele>2186</ele>
        <time>2023-07-02T12:28:08+0200</time>
      </trkpt>
      <trkpt lat="44.97306" lon="6.62904">
        <ele>2185.8</ele>
        <time>2023-07-02T12:28:13+0200</time>
      </trkpt>
      <trkpt lat="44.97306" lon="6.6291">
        <ele>2186.1</ele>
        <time>2023-07-02T12:28:16+0200</time>
      </trkpt>
      <trkpt lat="44.97307" lon="6.6292">
        <ele>2186.8</ele>
        <time>2023-07-02T12:28:20+0200</time>
      </trkpt>
      <trkpt lat="44.97307" lon="6.62929">
        <ele>2187.7</ele>
        <time>2023-07-02T12:28:23+0200</time>
      </trkpt>
      <trkpt lat="44.97306" lon="6.62936">
        <ele>2187.5</ele>
        <time>2023-07-02T12:28:27+0200</time>
      </trkpt>
      <trkpt lat="44.97307" lon="6.62944">
        <ele>2188.4</ele>
        <time>2023-07-02T12:28:30+0200</time>
      </trkpt>
      <trkpt lat="44.97309" lon="6.6295">
        <ele>2189.7</ele>
        <time>2023-07-02T12:28:32+0200</time>
      </trkpt>
      <trkpt lat="44.97309" lon="6.62956">
        <ele>2190.3</ele>
        <time>2023-07-02T12:28:35+0200</time>
      </trkpt>
      <trkpt lat="44.97311" lon="6.62963">
        <ele>2191.7</ele>
        <time>2023-07-02T12:28:38+0200</time>
      </trkpt>
      <trkpt lat="44.97312" lon="6.6297">
        <ele>2193</ele>
        <time>2023-07-02T12:28:41+0200</time>
      </trkpt>
      <trkpt lat="44.97312" lon="6.62978">
        <ele>2193.6</ele>
        <time>2023-07-02T12:28:45+0200</time>
      </trkpt>
      <trkpt lat="44.97312" lon="6.62987">
        <ele>2193.8</ele>
        <time>2023-07-02T12:28:49+0200</time>
      </trkpt>
      <trkpt lat="44.97311" lon="6.62994">
        <ele>2194.2</ele>
        <time>2023-07-02T12:28:52+0200</time>
      </trkpt>
      <trkpt lat="44.97311" lon="6.63002">
        <ele>2194.4</ele>
        <time>2023-07-02T12:28:55+0200</time>
      </trkpt>
      <trkpt lat="44.97311" lon="6.63012">
        <ele>2195.2</ele>
        <time>2023-07-02T12:28:58+0200</time>
      </trkpt>
      <trkpt lat="44.97308" lon="6.63017">
        <ele>2194.5</ele>
        <time>2023-07-02T12:29:01+0200</time>
      </trkpt>
      <trkpt lat="44.97308" lon="6.63025">
        <ele>2195</ele>
        <time>2023-07-02T12:29:04+0200</time>
      </trkpt>
      <trkpt lat="44.97309" lon="6.63032">
        <ele>2196.1</ele>
        <time>2023-07-02T12:29:06+0200</time>
      </trkpt>
      <trkpt lat="44.97309" lon="6.63039">
        <ele>2197</ele>
        <time>2023-07-02T12:29:09+0200</time>
      </trkpt>
      <trkpt lat="44.97308" lon="6.63049">
        <ele>2197.6</ele>
        <time>2023-07-02T12:29:13+0200</time>
      </trkpt>
      <trkpt lat="44.97309" lon="6.63058">
        <ele>2198.9</ele>
        <time>2023-07-02T12:29:16+0200</time>
      </trkpt>
      <trkpt lat="44.97307" lon="6.63066">
        <ele>2198.9</ele>
        <time>2023-07-02T12:29:20+0200</time>
      </trkpt>
      <trkpt lat="44.97305" lon="6.63073">
        <ele>2199.3</ele>
        <time>2023-07-02T12:29:23+0200</time>
      </trkpt>
      <trkpt lat="44.97305" lon="6.6308">
        <ele>2200.3</ele>
        <time>2023-07-02T12:29:26+0200</time>
      </trkpt>
      <trkpt lat="44.97305" lon="6.63088">
        <ele>2201.4</ele>
        <time>2023-07-02T12:29:29+0200</time>
      </trkpt>
      <trkpt lat="44.97306" lon="6.63095">
        <ele>2202.5</ele>
        <time>2023-07-02T12:29:32+0200</time>
      </trkpt>
      <trkpt lat="44.97305" lon="6.63104">
        <ele>2203.1</ele>
        <time>2023-07-02T12:29:36+0200</time>
      </trkpt>
      <trkpt lat="44.97305" lon="6.63112">
        <ele>2203.7</ele>
        <time>2023-07-02T12:29:39+0200</time>
      </trkpt>
      <trkpt lat="44.97305" lon="6.6312">
        <ele>2204.5</ele>
        <time>2023-07-02T12:29:42+0200</time>
      </trkpt>
      <trkpt lat="44.97302" lon="6.63127">
        <ele>2204.1</ele>
        <time>2023-07-02T12:29:45+0200</time>
      </trkpt>
      <trkpt lat="44.97301" lon="6.63136">
        <ele>2204.5</ele>
        <time>2023-07-02T12:29:49+0200</time>
      </trkpt>
      <trkpt lat="44.97299" lon="6.63141">
        <ele>2204.3</ele>
        <time>2023-07-02T12:29:52+0200</time>
      </trkpt>
      <trkpt lat="44.973" lon="6.63149">
        <ele>2205.6</ele>
        <time>2023-07-02T12:29:54+0200</time>
      </trkpt>
      <trkpt lat="44.97301" lon="6.63156">
        <ele>2206.5</ele>
        <time>2023-07-02T12:29:57+0200</time>
      </trkpt>
      <trkpt lat="44.97301" lon="6.63164">
        <ele>2207.3</ele>
        <time>2023-07-02T12:30:00+0200</time>
      </trkpt>
      <trkpt lat="44.973" lon="6.63171">
        <ele>2208</ele>
        <time>2023-07-02T12:30:03+0200</time>
      </trkpt>
      <trkpt lat="44.973" lon="6.63177">
        <ele>2208.8</ele>
        <time>2023-07-02T12:30:06+0200</time>
      </trkpt>
      <trkpt lat="44.97301" lon="6.63185">
        <ele>2210.3</ele>
        <time>2023-07-02T12:30:09+0200</time>
      </trkpt>
      <trkpt lat="44.97301" lon="6.63193">
        <ele>2211.5</ele>
        <time>2023-07-02T12:30:12+0200</time>
      </trkpt>
      <trkpt lat="44.97302" lon="6.63201">
        <ele>2212.7</ele>
        <time>2023-07-02T12:30:16+0200</time>
      </trkpt>
      <trkpt lat="44.97299" lon="6.63207">
        <ele>2212</ele>
        <time>2023-07-02T12:30:19+0200</time>
      </trkpt>
      <trkpt lat="44.97299" lon="6.63215">
        <ele>2213.2</ele>
        <time>2023-07-02T12:30:22+0200</time>
      </trkpt>
      <trkpt lat="44.97298" lon="6.63221">
        <ele>2213.1</ele>
        <time>2023-07-02T12:30:25+0200</time>
      </trkpt>
      <trkpt lat="44.97298" lon="6.63227">
        <ele>2214.2</ele>
        <time>2023-07-02T12:30:27+0200</time>
      </trkpt>
      <trkpt lat="44.97295" lon="6.63233">
        <ele>2214.2</ele>
        <time>2023-07-02T12:30:30+0200</time>
      </trkpt>
      <trkpt lat="44.97293" lon="6.63241">
        <ele>2214.5</ele>
        <time>2023-07-02T12:30:33+0200</time>
      </trkpt>
      <trkpt lat="44.97289" lon="6.63247">
        <ele>2213.8</ele>
        <time>2023-07-02T12:30:38+0200</time>
      </trkpt>
      <trkpt lat="44.97286" lon="6.63253">
        <ele>2213.4</ele>
        <time>2023-07-02T12:30:41+0200</time>
      </trkpt>
      <trkpt lat="44.97284" lon="6.63258">
        <ele>2213.1</ele>
        <time>2023-07-02T12:30:45+0200</time>
      </trkpt>
      <trkpt lat="44.97281" lon="6.63265">
        <ele>2213.3</ele>
        <time>2023-07-02T12:30:48+0200</time>
      </trkpt>
      <trkpt lat="44.97279" lon="6.63271">
        <ele>2213.1</ele>
        <time>2023-07-02T12:30:51+0200</time>
      </trkpt>
      <trkpt lat="44.97279" lon="6.63278">
        <ele>2214.4</ele>
        <time>2023-07-02T12:30:54+0200</time>
      </trkpt>
      <trkpt lat="44.97277" lon="6.63284">
        <ele>2214.8</ele>
        <time>2023-07-02T12:30:57+0200</time>
      </trkpt>
      <trkpt lat="44.97274" lon="6.63293">
        <ele>2215.2</ele>
        <time>2023-07-02T12:31:01+0200</time>
      </trkpt>
      <trkpt lat="44.97274" lon="6.63299">
        <ele>2216</ele>
        <time>2023-07-02T12:31:05+0200</time>
      </trkpt>
      <trkpt lat="44.97274" lon="6.63306">
        <ele>2217.2</ele>
        <time>2023-07-02T12:31:07+0200</time>
      </trkpt>
      <trkpt lat="44.97273" lon="6.63313">
        <ele>2217.9</ele>
        <time>2023-07-02T12:31:10+0200</time>
      </trkpt>
      <trkpt lat="44.97271" lon="6.6332">
        <ele>2218.1</ele>
        <time>2023-07-02T12:31:13+0200</time>
      </trkpt>
      <trkpt lat="44.9727" lon="6.63328">
        <ele>2218.8</ele>
        <time>2023-07-02T12:31:16+0200</time>
      </trkpt>
      <trkpt lat="44.9727" lon="6.63338">
        <ele>2219.8</ele>
        <time>2023-07-02T12:31:19+0200</time>
      </trkpt>
      <trkpt lat="44.97271" lon="6.63346">
        <ele>2221.3</ele>
        <time>2023-07-02T12:31:23+0200</time>
      </trkpt>
      <trkpt lat="44.9727" lon="6.63352">
        <ele>2221.2</ele>
        <time>2023-07-02T12:31:26+0200</time>
      </trkpt>
      <trkpt lat="44.97269" lon="6.63359">
        <ele>2221.5</ele>
        <time>2023-07-02T12:31:29+0200</time>
      </trkpt>
      <trkpt lat="44.97267" lon="6.63368">
        <ele>2221.6</ele>
        <time>2023-07-02T12:31:33+0200</time>
      </trkpt>
      <trkpt lat="44.97267" lon="6.63375">
        <ele>2221.9</ele>
        <time>2023-07-02T12:31:36+0200</time>
      </trkpt>
      <trkpt lat="44.97267" lon="6.63382">
        <ele>2222.2</ele>
        <time>2023-07-02T12:31:40+0200</time>
      </trkpt>
      <trkpt lat="44.97267" lon="6.63389">
        <ele>2222.9</ele>
        <time>2023-07-02T12:31:42+0200</time>
      </trkpt>
      <trkpt lat="44.97269" lon="6.63396">
        <ele>2223.7</ele>
        <time>2023-07-02T12:31:44+0200</time>
      </trkpt>
      <trkpt lat="44.97271" lon="6.63403">
        <ele>2224.8</ele>
        <time>2023-07-02T12:31:47+0200</time>
      </trkpt>
      <trkpt lat="44.97273" lon="6.63411">
        <ele>2225.7</ele>
        <time>2023-07-02T12:31:50+0200</time>
      </trkpt>
      <trkpt lat="44.97275" lon="6.63417">
        <ele>2226.7</ele>
        <time>2023-07-02T12:31:53+0200</time>
      </trkpt>
      <trkpt lat="44.97276" lon="6.63425">
        <ele>2227.1</ele>
        <time>2023-07-02T12:31:57+0200</time>
      </trkpt>
      <trkpt lat="44.97278" lon="6.63431">
        <ele>2228.1</ele>
        <time>2023-07-02T12:32:04+0200</time>
      </trkpt>
      <trkpt lat="44.97282" lon="6.63426">
        <ele>2229.6</ele>
        <time>2023-07-02T12:32:31+0200</time>
      </trkpt>
      <trkpt lat="44.9728" lon="6.63418">
        <ele>2229</ele>
        <time>2023-07-02T12:32:54+0200</time>
      </trkpt>
      <trkpt lat="44.97279" lon="6.63425">
        <ele>2228.4</ele>
        <time>2023-07-02T12:33:02+0200</time>
      </trkpt>
      <trkpt lat="44.9728" lon="6.63432">
        <ele>2228.8</ele>
        <time>2023-07-02T12:33:30+0200</time>
      </trkpt>
      <trkpt lat="44.97281" lon="6.63425">
        <ele>2229.4</ele>
        <time>2023-07-02T12:35:02+0200</time>
      </trkpt>
      <trkpt lat="44.97278" lon="6.6342">
        <ele>2228.2</ele>
        <time>2023-07-02T12:35:23+0200</time>
      </trkpt>
      <trkpt lat="44.97274" lon="6.63418">
        <ele>2226</ele>
        <time>2023-07-02T12:35:37+0200</time>
      </trkpt>
      <trkpt lat="44.97275" lon="6.63425">
        <ele>2226.6</ele>
        <time>2023-07-02T12:35:47+0200</time>
      </trkpt>
      <trkpt lat="44.97277" lon="6.63419">
        <ele>2227.6</ele>
        <time>2023-07-02T12:36:00+0200</time>
      </trkpt>
      <trkpt lat="44.97272" lon="6.6342">
        <ele>2225.4</ele>
        <time>2023-07-02T12:36:29+0200</time>
      </trkpt>
      <trkpt lat="44.97272" lon="6.63412">
        <ele>2225.1</ele>
        <time>2023-07-02T12:36:41+0200</time>
      </trkpt>
      <trkpt lat="44.97273" lon="6.63406">
        <ele>2225.9</ele>
        <time>2023-07-02T12:36:48+0200</time>
      </trkpt>
      <trkpt lat="44.97269" lon="6.63407">
        <ele>2223.8</ele>
        <time>2023-07-02T12:36:56+0200</time>
      </trkpt>
      <trkpt lat="44.97272" lon="6.63412">
        <ele>2225.2</ele>
        <time>2023-07-02T12:37:08+0200</time>
      </trkpt>
      <trkpt lat="44.97277" lon="6.63419">
        <ele>2227.5</ele>
        <time>2023-07-02T12:37:13+0200</time>
      </trkpt>
      <trkpt lat="44.97279" lon="6.63425">
        <ele>2228.3</ele>
        <time>2023-07-02T12:37:20+0200</time>
      </trkpt>
      <trkpt lat="44.97278" lon="6.63432">
        <ele>2227.9</ele>
        <time>2023-07-02T12:38:00+0200</time>
      </trkpt>
      <trkpt lat="44.97278" lon="6.63441">
        <ele>2228.1</ele>
        <time>2023-07-02T12:38:04+0200</time>
      </trkpt>
      <trkpt lat="44.97279" lon="6.63447">
        <ele>2228.2</ele>
        <time>2023-07-02T12:38:07+0200</time>
      </trkpt>
      <trkpt lat="44.97281" lon="6.63454">
        <ele>2227.7</ele>
        <time>2023-07-02T12:38:10+0200</time>
      </trkpt>
      <trkpt lat="44.97284" lon="6.63462">
        <ele>2227.8</ele>
        <time>2023-07-02T12:38:13+0200</time>
      </trkpt>
      <trkpt lat="44.97288" lon="6.63465">
        <ele>2229.1</ele>
        <time>2023-07-02T12:38:15+0200</time>
      </trkpt>
      <trkpt lat="44.97293" lon="6.63466">
        <ele>2231</ele>
        <time>2023-07-02T12:38:17+0200</time>
      </trkpt>
      <trkpt lat="44.97296" lon="6.63459">
        <ele>2232.9</ele>
        <time>2023-07-02T12:38:20+0200</time>
      </trkpt>
      <trkpt lat="44.97294" lon="6.6345">
        <ele>2233.7</ele>
        <time>2023-07-02T12:38:23+0200</time>
      </trkpt>
      <trkpt lat="44.97292" lon="6.63444">
        <ele>2233.8</ele>
        <time>2023-07-02T12:38:25+0200</time>
      </trkpt>
      <trkpt lat="44.9729" lon="6.63435">
        <ele>2233.1</ele>
        <time>2023-07-02T12:38:28+0200</time>
      </trkpt>
      <trkpt lat="44.97289" lon="6.63429">
        <ele>2232.8</ele>
        <time>2023-07-02T12:38:30+0200</time>
      </trkpt>
      <trkpt lat="44.9729" lon="6.63423">
        <ele>2233.3</ele>
        <time>2023-07-02T12:38:32+0200</time>
      </trkpt>
      <trkpt lat="44.97292" lon="6.63414">
        <ele>2234.3</ele>
        <time>2023-07-02T12:38:35+0200</time>
      </trkpt>
      <trkpt lat="44.97294" lon="6.63407">
        <ele>2235</ele>
        <time>2023-07-02T12:38:38+0200</time>
      </trkpt>
      <trkpt lat="44.97295" lon="6.634">
        <ele>2235.4</ele>
        <time>2023-07-02T12:38:40+0200</time>
      </trkpt>
      <trkpt lat="44.97297" lon="6.63393">
        <ele>2236.3</ele>
        <time>2023-07-02T12:38:43+0200</time>
      </trkpt>
      <trkpt lat="44.973" lon="6.63385">
        <ele>2237.2</ele>
        <time>2023-07-02T12:38:47+0200</time>
      </trkpt>
      <trkpt lat="44.97302" lon="6.63378">
        <ele>2238</ele>
        <time>2023-07-02T12:38:50+0200</time>
      </trkpt>
      <trkpt lat="44.97305" lon="6.63371">
        <ele>2238.9</ele>
        <time>2023-07-02T12:38:53+0200</time>
      </trkpt>
      <trkpt lat="44.97307" lon="6.63364">
        <ele>2239.7</ele>
        <time>2023-07-02T12:38:56+0200</time>
      </trkpt>
      <trkpt lat="44.97308" lon="6.63356">
        <ele>2239.3</ele>
        <time>2023-07-02T12:38:59+0200</time>
      </trkpt>
      <trkpt lat="44.97309" lon="6.6335">
        <ele>2239.1</ele>
        <time>2023-07-02T12:39:02+0200</time>
      </trkpt>
      <trkpt lat="44.97311" lon="6.63342">
        <ele>2238.9</ele>
        <time>2023-07-02T12:39:05+0200</time>
      </trkpt>
      <trkpt lat="44.97316" lon="6.63339">
        <ele>2240.6</ele>
        <time>2023-07-02T12:39:09+0200</time>
      </trkpt>
      <trkpt lat="44.97321" lon="6.63343">
        <ele>2242.6</ele>
        <time>2023-07-02T12:39:12+0200</time>
      </trkpt>
      <trkpt lat="44.97319" lon="6.63351">
        <ele>2242.7</ele>
        <time>2023-07-02T12:39:15+0200</time>
      </trkpt>
      <trkpt lat="44.97317" lon="6.63358">
        <ele>2242.8</ele>
        <time>2023-07-02T12:39:18+0200</time>
      </trkpt>
      <trkpt lat="44.97316" lon="6.63365">
        <ele>2243</ele>
        <time>2023-07-02T12:39:21+0200</time>
      </trkpt>
      <trkpt lat="44.97316" lon="6.63373">
        <ele>2243.2</ele>
        <time>2023-07-02T12:39:24+0200</time>
      </trkpt>
      <trkpt lat="44.97315" lon="6.63381">
        <ele>2243.2</ele>
        <time>2023-07-02T12:39:27+0200</time>
      </trkpt>
      <trkpt lat="44.97316" lon="6.63388">
        <ele>2243.9</ele>
        <time>2023-07-02T12:39:30+0200</time>
      </trkpt>
      <trkpt lat="44.97318" lon="6.63395">
        <ele>2244.6</ele>
        <time>2023-07-02T12:39:33+0200</time>
      </trkpt>
      <trkpt lat="44.97321" lon="6.63402">
        <ele>2245.4</ele>
        <time>2023-07-02T12:39:36+0200</time>
      </trkpt>
      <trkpt lat="44.97324" lon="6.63408">
        <ele>2246.5</ele>
        <time>2023-07-02T12:39:39+0200</time>
      </trkpt>
      <trkpt lat="44.97327" lon="6.63414">
        <ele>2247.9</ele>
        <time>2023-07-02T12:39:42+0200</time>
      </trkpt>
      <trkpt lat="44.9733" lon="6.6342">
        <ele>2248.6</ele>
        <time>2023-07-02T12:39:45+0200</time>
      </trkpt>
      <trkpt lat="44.97332" lon="6.63428">
        <ele>2249.1</ele>
        <time>2023-07-02T12:39:48+0200</time>
      </trkpt>
      <trkpt lat="44.97335" lon="6.63435">
        <ele>2249.8</ele>
        <time>2023-07-02T12:39:51+0200</time>
      </trkpt>
      <trkpt lat="44.97339" lon="6.63441">
        <ele>2250.8</ele>
        <time>2023-07-02T12:39:54+0200</time>
      </trkpt>
      <trkpt lat="44.97342" lon="6.63448">
        <ele>2251.7</ele>
        <time>2023-07-02T12:39:57+0200</time>
      </trkpt>
      <trkpt lat="44.97344" lon="6.63454">
        <ele>2252</ele>
        <time>2023-07-02T12:40:00+0200</time>
      </trkpt>
      <trkpt lat="44.97347" lon="6.63461">
        <ele>2252.4</ele>
        <time>2023-07-02T12:40:03+0200</time>
      </trkpt>
      <trkpt lat="44.97352" lon="6.63462">
        <ele>2254.5</ele>
        <time>2023-07-02T12:40:07+0200</time>
      </trkpt>
      <trkpt lat="44.97356" lon="6.63456">
        <ele>2256</ele>
        <time>2023-07-02T12:40:10+0200</time>
      </trkpt>
      <trkpt lat="44.97357" lon="6.6345">
        <ele>2256.4</ele>
        <time>2023-07-02T12:40:12+0200</time>
      </trkpt>
      <trkpt lat="44.97357" lon="6.63443">
        <ele>2256.7</ele>
        <time>2023-07-02T12:40:15+0200</time>
      </trkpt>
      <trkpt lat="44.97357" lon="6.63436">
        <ele>2256.7</ele>
        <time>2023-07-02T12:40:18+0200</time>
      </trkpt>
      <trkpt lat="44.97359" lon="6.63429">
        <ele>2257.3</ele>
        <time>2023-07-02T12:40:21+0200</time>
      </trkpt>
      <trkpt lat="44.9736" lon="6.6342">
        <ele>2257.8</ele>
        <time>2023-07-02T12:40:24+0200</time>
      </trkpt>
      <trkpt lat="44.97363" lon="6.63413">
        <ele>2258.8</ele>
        <time>2023-07-02T12:40:27+0200</time>
      </trkpt>
      <trkpt lat="44.97367" lon="6.63407">
        <ele>2259.9</ele>
        <time>2023-07-02T12:40:30+0200</time>
      </trkpt>
      <trkpt lat="44.97371" lon="6.63401">
        <ele>2261.1</ele>
        <time>2023-07-02T12:40:34+0200</time>
      </trkpt>
      <trkpt lat="44.97373" lon="6.63394">
        <ele>2261.7</ele>
        <time>2023-07-02T12:40:37+0200</time>
      </trkpt>
      <trkpt lat="44.97375" lon="6.63388">
        <ele>2262.1</ele>
        <time>2023-07-02T12:40:40+0200</time>
      </trkpt>
      <trkpt lat="44.97378" lon="6.6338">
        <ele>2262.4</ele>
        <time>2023-07-02T12:40:43+0200</time>
      </trkpt>
      <trkpt lat="44.97381" lon="6.63375">
        <ele>2262.8</ele>
        <time>2023-07-02T12:40:46+0200</time>
      </trkpt>
      <trkpt lat="44.97383" lon="6.63367">
        <ele>2262.9</ele>
        <time>2023-07-02T12:40:49+0200</time>
      </trkpt>
      <trkpt lat="44.97386" lon="6.63361">
        <ele>2263.3</ele>
        <time>2023-07-02T12:40:52+0200</time>
      </trkpt>
      <trkpt lat="44.9739" lon="6.63354">
        <ele>2263.6</ele>
        <time>2023-07-02T12:40:55+0200</time>
      </trkpt>
      <trkpt lat="44.97394" lon="6.63349">
        <ele>2264.5</ele>
        <time>2023-07-02T12:40:58+0200</time>
      </trkpt>
      <trkpt lat="44.97397" lon="6.63343">
        <ele>2264.8</ele>
        <time>2023-07-02T12:41:01+0200</time>
      </trkpt>
      <trkpt lat="44.97401" lon="6.63337">
        <ele>2265.5</ele>
        <time>2023-07-02T12:41:04+0200</time>
      </trkpt>
      <trkpt lat="44.97404" lon="6.63331">
        <ele>2265.7</ele>
        <time>2023-07-02T12:41:06+0200</time>
      </trkpt>
      <trkpt lat="44.97407" lon="6.63326">
        <ele>2266.2</ele>
        <time>2023-07-02T12:41:09+0200</time>
      </trkpt>
      <trkpt lat="44.97411" lon="6.6332">
        <ele>2266.9</ele>
        <time>2023-07-02T12:41:12+0200</time>
      </trkpt>
      <trkpt lat="44.97413" lon="6.63312">
        <ele>2267.3</ele>
        <time>2023-07-02T12:41:15+0200</time>
      </trkpt>
      <trkpt lat="44.97416" lon="6.63305">
        <ele>2267.8</ele>
        <time>2023-07-02T12:41:18+0200</time>
      </trkpt>
      <trkpt lat="44.97417" lon="6.63298">
        <ele>2268.3</ele>
        <time>2023-07-02T12:41:21+0200</time>
      </trkpt>
      <trkpt lat="44.97419" lon="6.63291">
        <ele>2269.2</ele>
        <time>2023-07-02T12:41:24+0200</time>
      </trkpt>
      <trkpt lat="44.97422" lon="6.63283">
        <ele>2269.9</ele>
        <time>2023-07-02T12:41:27+0200</time>
      </trkpt>
      <trkpt lat="44.97423" lon="6.63276">
        <ele>2270.3</ele>
        <time>2023-07-02T12:41:30+0200</time>
      </trkpt>
      <trkpt lat="44.97427" lon="6.63269">
        <ele>2270.9</ele>
        <time>2023-07-02T12:41:33+0200</time>
      </trkpt>
      <trkpt lat="44.97428" lon="6.63263">
        <ele>2271.1</ele>
        <time>2023-07-02T12:41:36+0200</time>
      </trkpt>
      <trkpt lat="44.97429" lon="6.63257">
        <ele>2271.3</ele>
        <time>2023-07-02T12:41:39+0200</time>
      </trkpt>
      <trkpt lat="44.97431" lon="6.6325">
        <ele>2271.7</ele>
        <time>2023-07-02T12:41:42+0200</time>
      </trkpt>
      <trkpt lat="44.97432" lon="6.63243">
        <ele>2272</ele>
        <time>2023-07-02T12:41:45+0200</time>
      </trkpt>
      <trkpt lat="44.97435" lon="6.63238">
        <ele>2272.9</ele>
        <time>2023-07-02T12:41:49+0200</time>
      </trkpt>
      <trkpt lat="44.97441" lon="6.63238">
        <ele>2274.4</ele>
        <time>2023-07-02T12:41:52+0200</time>
      </trkpt>
      <trkpt lat="44.97445" lon="6.63241">
        <ele>2275.5</ele>
        <time>2023-07-02T12:41:55+0200</time>
      </trkpt>
      <trkpt lat="44.97448" lon="6.63245">
        <ele>2276.2</ele>
        <time>2023-07-02T12:41:58+0200</time>
      </trkpt>
      <trkpt lat="44.97451" lon="6.6325">
        <ele>2276.7</ele>
        <time>2023-07-02T12:42:01+0200</time>
      </trkpt>
      <trkpt lat="44.97455" lon="6.63257">
        <ele>2277.4</ele>
        <time>2023-07-02T12:42:04+0200</time>
      </trkpt>
      <trkpt lat="44.97458" lon="6.63262">
        <ele>2278.2</ele>
        <time>2023-07-02T12:42:07+0200</time>
      </trkpt>
      <trkpt lat="44.97459" lon="6.63271">
        <ele>2278.3</ele>
        <time>2023-07-02T12:42:11+0200</time>
      </trkpt>
      <trkpt lat="44.97462" lon="6.63278">
        <ele>2278.8</ele>
        <time>2023-07-02T12:42:14+0200</time>
      </trkpt>
      <trkpt lat="44.97465" lon="6.63285">
        <ele>2279.4</ele>
        <time>2023-07-02T12:42:17+0200</time>
      </trkpt>
      <trkpt lat="44.9747" lon="6.6329">
        <ele>2280.5</ele>
        <time>2023-07-02T12:42:20+0200</time>
      </trkpt>
      <trkpt lat="44.97472" lon="6.63296">
        <ele>2280.9</ele>
        <time>2023-07-02T12:42:23+0200</time>
      </trkpt>
      <trkpt lat="44.97475" lon="6.63301">
        <ele>2281.8</ele>
        <time>2023-07-02T12:42:26+0200</time>
      </trkpt>
      <trkpt lat="44.97479" lon="6.63307">
        <ele>2282.6</ele>
        <time>2023-07-02T12:42:29+0200</time>
      </trkpt>
      <trkpt lat="44.97481" lon="6.63314">
        <ele>2283</ele>
        <time>2023-07-02T12:42:32+0200</time>
      </trkpt>
      <trkpt lat="44.97484" lon="6.6332">
        <ele>2283.5</ele>
        <time>2023-07-02T12:42:35+0200</time>
      </trkpt>
      <trkpt lat="44.97486" lon="6.63327">
        <ele>2283.8</ele>
        <time>2023-07-02T12:42:38+0200</time>
      </trkpt>
      <trkpt lat="44.9749" lon="6.63333">
        <ele>2284.5</ele>
        <time>2023-07-02T12:42:41+0200</time>
      </trkpt>
      <trkpt lat="44.97492" lon="6.63339">
        <ele>2285</ele>
        <time>2023-07-02T12:42:44+0200</time>
      </trkpt>
      <trkpt lat="44.97496" lon="6.63345">
        <ele>2285.8</ele>
        <time>2023-07-02T12:42:47+0200</time>
      </trkpt>
      <trkpt lat="44.97499" lon="6.63352">
        <ele>2286.2</ele>
        <time>2023-07-02T12:42:50+0200</time>
      </trkpt>
      <trkpt lat="44.97502" lon="6.63359">
        <ele>2286.4</ele>
        <time>2023-07-02T12:42:53+0200</time>
      </trkpt>
      <trkpt lat="44.97506" lon="6.63364">
        <ele>2287.1</ele>
        <time>2023-07-02T12:42:56+0200</time>
      </trkpt>
      <trkpt lat="44.9751" lon="6.6337">
        <ele>2287.9</ele>
        <time>2023-07-02T12:42:59+0200</time>
      </trkpt>
      <trkpt lat="44.97514" lon="6.63376">
        <ele>2288.4</ele>
        <time>2023-07-02T12:43:02+0200</time>
      </trkpt>
      <trkpt lat="44.97516" lon="6.63384">
        <ele>2288.7</ele>
        <time>2023-07-02T12:43:05+0200</time>
      </trkpt>
      <trkpt lat="44.9752" lon="6.63391">
        <ele>2289.3</ele>
        <time>2023-07-02T12:43:08+0200</time>
      </trkpt>
      <trkpt lat="44.97525" lon="6.63397">
        <ele>2290</ele>
        <time>2023-07-02T12:43:11+0200</time>
      </trkpt>
      <trkpt lat="44.97527" lon="6.63403">
        <ele>2290.4</ele>
        <time>2023-07-02T12:43:14+0200</time>
      </trkpt>
      <trkpt lat="44.97529" lon="6.63411">
        <ele>2291</ele>
        <time>2023-07-02T12:43:17+0200</time>
      </trkpt>
      <trkpt lat="44.97532" lon="6.63419">
        <ele>2291.7</ele>
        <time>2023-07-02T12:43:20+0200</time>
      </trkpt>
      <trkpt lat="44.97533" lon="6.63427">
        <ele>2292.2</ele>
        <time>2023-07-02T12:43:23+0200</time>
      </trkpt>
      <trkpt lat="44.97535" lon="6.63434">
        <ele>2292.9</ele>
        <time>2023-07-02T12:43:26+0200</time>
      </trkpt>
      <trkpt lat="44.97538" lon="6.63441">
        <ele>2293.7</ele>
        <time>2023-07-02T12:43:29+0200</time>
      </trkpt>
      <trkpt lat="44.97541" lon="6.63447">
        <ele>2294.2</ele>
        <time>2023-07-02T12:43:32+0200</time>
      </trkpt>
      <trkpt lat="44.97543" lon="6.63455">
        <ele>2294.5</ele>
        <time>2023-07-02T12:43:35+0200</time>
      </trkpt>
      <trkpt lat="44.97546" lon="6.63463">
        <ele>2295.2</ele>
        <time>2023-07-02T12:43:38+0200</time>
      </trkpt>
      <trkpt lat="44.97548" lon="6.63471">
        <ele>2295.8</ele>
        <time>2023-07-02T12:43:41+0200</time>
      </trkpt>
      <trkpt lat="44.97551" lon="6.63477">
        <ele>2296.5</ele>
        <time>2023-07-02T12:43:43+0200</time>
      </trkpt>
      <trkpt lat="44.97553" lon="6.63485">
        <ele>2296.8</ele>
        <time>2023-07-02T12:43:46+0200</time>
      </trkpt>
      <trkpt lat="44.97555" lon="6.63491">
        <ele>2297.3</ele>
        <time>2023-07-02T12:43:49+0200</time>
      </trkpt>
      <trkpt lat="44.97558" lon="6.63498">
        <ele>2297.9</ele>
        <time>2023-07-02T12:43:52+0200</time>
      </trkpt>
      <trkpt lat="44.97559" lon="6.63505">
        <ele>2298</ele>
        <time>2023-07-02T12:43:55+0200</time>
      </trkpt>
      <trkpt lat="44.97563" lon="6.63513">
        <ele>2299.1</ele>
        <time>2023-07-02T12:43:58+0200</time>
      </trkpt>
      <trkpt lat="44.97566" lon="6.6352">
        <ele>2299.9</ele>
        <time>2023-07-02T12:44:01+0200</time>
      </trkpt>
      <trkpt lat="44.97568" lon="6.63528">
        <ele>2300.4</ele>
        <time>2023-07-02T12:44:04+0200</time>
      </trkpt>
      <trkpt lat="44.9757" lon="6.63534">
        <ele>2300.9</ele>
        <time>2023-07-02T12:44:07+0200</time>
      </trkpt>
      <trkpt lat="44.97571" lon="6.63541">
        <ele>2301.1</ele>
        <time>2023-07-02T12:44:10+0200</time>
      </trkpt>
      <trkpt lat="44.97573" lon="6.63547">
        <ele>2301.7</ele>
        <time>2023-07-02T12:44:13+0200</time>
      </trkpt>
      <trkpt lat="44.97576" lon="6.63555">
        <ele>2302.4</ele>
        <time>2023-07-02T12:44:16+0200</time>
      </trkpt>
      <trkpt lat="44.97577" lon="6.63563">
        <ele>2302.6</ele>
        <time>2023-07-02T12:44:19+0200</time>
      </trkpt>
      <trkpt lat="44.9758" lon="6.63571">
        <ele>2303.2</ele>
        <time>2023-07-02T12:44:22+0200</time>
      </trkpt>
      <trkpt lat="44.97582" lon="6.63579">
        <ele>2303.6</ele>
        <time>2023-07-02T12:44:25+0200</time>
      </trkpt>
      <trkpt lat="44.97584" lon="6.63586">
        <ele>2304</ele>
        <time>2023-07-02T12:44:29+0200</time>
      </trkpt>
      <trkpt lat="44.97586" lon="6.63593">
        <ele>2303.7</ele>
        <time>2023-07-02T12:44:32+0200</time>
      </trkpt>
      <trkpt lat="44.97588" lon="6.636">
        <ele>2303.3</ele>
        <time>2023-07-02T12:44:35+0200</time>
      </trkpt>
      <trkpt lat="44.97594" lon="6.63603">
        <ele>2303.7</ele>
        <time>2023-07-02T12:44:38+0200</time>
      </trkpt>
      <trkpt lat="44.976" lon="6.63602">
        <ele>2304.5</ele>
        <time>2023-07-02T12:44:41+0200</time>
      </trkpt>
      <trkpt lat="44.976" lon="6.63593">
        <ele>2305.7</ele>
        <time>2023-07-02T12:44:44+0200</time>
      </trkpt>
      <trkpt lat="44.97598" lon="6.63584">
        <ele>2306.5</ele>
        <time>2023-07-02T12:44:47+0200</time>
      </trkpt>
      <trkpt lat="44.97597" lon="6.63577">
        <ele>2307</ele>
        <time>2023-07-02T12:44:49+0200</time>
      </trkpt>
      <trkpt lat="44.97596" lon="6.63568">
        <ele>2307.6</ele>
        <time>2023-07-02T12:44:51+0200</time>
      </trkpt>
      <trkpt lat="44.97595" lon="6.6356">
        <ele>2307.9</ele>
        <time>2023-07-02T12:44:53+0200</time>
      </trkpt>
      <trkpt lat="44.97594" lon="6.63551">
        <ele>2308.4</ele>
        <time>2023-07-02T12:44:55+0200</time>
      </trkpt>
      <trkpt lat="44.97593" lon="6.63543">
        <ele>2308.5</ele>
        <time>2023-07-02T12:44:57+0200</time>
      </trkpt>
      <trkpt lat="44.97592" lon="6.63535">
        <ele>2308.4</ele>
        <time>2023-07-02T12:44:59+0200</time>
      </trkpt>
      <trkpt lat="44.97591" lon="6.63526">
        <ele>2308.4</ele>
        <time>2023-07-02T12:45:01+0200</time>
      </trkpt>
      <trkpt lat="44.97591" lon="6.63517">
        <ele>2308.9</ele>
        <time>2023-07-02T12:45:03+0200</time>
      </trkpt>
      <trkpt lat="44.9759" lon="6.63508">
        <ele>2309</ele>
        <time>2023-07-02T12:45:05+0200</time>
      </trkpt>
      <trkpt lat="44.97588" lon="6.63498">
        <ele>2308.8</ele>
        <time>2023-07-02T12:45:07+0200</time>
      </trkpt>
      <trkpt lat="44.97588" lon="6.63487">
        <ele>2308.5</ele>
        <time>2023-07-02T12:45:09+0200</time>
      </trkpt>
      <trkpt lat="44.97588" lon="6.63476">
        <ele>2308.7</ele>
        <time>2023-07-02T12:45:11+0200</time>
      </trkpt>
      <trkpt lat="44.97589" lon="6.63466">
        <ele>2308.9</ele>
        <time>2023-07-02T12:45:13+0200</time>
      </trkpt>
      <trkpt lat="44.97591" lon="6.63457">
        <ele>2309.1</ele>
        <time>2023-07-02T12:45:15+0200</time>
      </trkpt>
      <trkpt lat="44.97593" lon="6.63449">
        <ele>2309.2</ele>
        <time>2023-07-02T12:45:17+0200</time>
      </trkpt>
      <trkpt lat="44.97596" lon="6.63438">
        <ele>2309.3</ele>
        <time>2023-07-02T12:45:19+0200</time>
      </trkpt>
      <trkpt lat="44.976" lon="6.63431">
        <ele>2309.6</ele>
        <time>2023-07-02T12:45:21+0200</time>
      </trkpt>
      <trkpt lat="44.97605" lon="6.63423">
        <ele>2310.2</ele>
        <time>2023-07-02T12:45:23+0200</time>
      </trkpt>
      <trkpt lat="44.9761" lon="6.63416">
        <ele>2310.6</ele>
        <time>2023-07-02T12:45:25+0200</time>
      </trkpt>
      <trkpt lat="44.97616" lon="6.63409">
        <ele>2310.8</ele>
        <time>2023-07-02T12:45:27+0200</time>
      </trkpt>
      <trkpt lat="44.97622" lon="6.63404">
        <ele>2311.2</ele>
        <time>2023-07-02T12:45:29+0200</time>
      </trkpt>
      <trkpt lat="44.97627" lon="6.63399">
        <ele>2311.2</ele>
        <time>2023-07-02T12:45:31+0200</time>
      </trkpt>
      <trkpt lat="44.97632" lon="6.63392">
        <ele>2311.2</ele>
        <time>2023-07-02T12:45:33+0200</time>
      </trkpt>
      <trkpt lat="44.97638" lon="6.63385">
        <ele>2310.9</ele>
        <time>2023-07-02T12:45:35+0200</time>
      </trkpt>
      <trkpt lat="44.97643" lon="6.6338">
        <ele>2311.4</ele>
        <time>2023-07-02T12:45:37+0200</time>
      </trkpt>
      <trkpt lat="44.97649" lon="6.63373">
        <ele>2311.4</ele>
        <time>2023-07-02T12:45:39+0200</time>
      </trkpt>
      <trkpt lat="44.97655" lon="6.63367">
        <ele>2311.8</ele>
        <time>2023-07-02T12:45:41+0200</time>
      </trkpt>
      <trkpt lat="44.97659" lon="6.6336">
        <ele>2311.4</ele>
        <time>2023-07-02T12:45:43+0200</time>
      </trkpt>
      <trkpt lat="44.97664" lon="6.63352">
        <ele>2311.9</ele>
        <time>2023-07-02T12:45:45+0200</time>
      </trkpt>
      <trkpt lat="44.97667" lon="6.63341">
        <ele>2311.7</ele>
        <time>2023-07-02T12:45:47+0200</time>
      </trkpt>
      <trkpt lat="44.97668" lon="6.63334">
        <ele>2311.3</ele>
        <time>2023-07-02T12:45:48+0200</time>
      </trkpt>
      <trkpt lat="44.97668" lon="6.63325">
        <ele>2311.7</ele>
        <time>2023-07-02T12:45:50+0200</time>
      </trkpt>
      <trkpt lat="44.97667" lon="6.63313">
        <ele>2311.9</ele>
        <time>2023-07-02T12:45:52+0200</time>
      </trkpt>
      <trkpt lat="44.97666" lon="6.63306">
        <ele>2311.9</ele>
        <time>2023-07-02T12:45:53+0200</time>
      </trkpt>
      <trkpt lat="44.97664" lon="6.63296">
        <ele>2312.3</ele>
        <time>2023-07-02T12:45:55+0200</time>
      </trkpt>
      <trkpt lat="44.97661" lon="6.63285">
        <ele>2312.4</ele>
        <time>2023-07-02T12:45:57+0200</time>
      </trkpt>
      <trkpt lat="44.97658" lon="6.63275">
        <ele>2312.4</ele>
        <time>2023-07-02T12:45:59+0200</time>
      </trkpt>
      <trkpt lat="44.97654" lon="6.63266">
        <ele>2312.9</ele>
        <time>2023-07-02T12:46:01+0200</time>
      </trkpt>
      <trkpt lat="44.9765" lon="6.63257">
        <ele>2313</ele>
        <time>2023-07-02T12:46:03+0200</time>
      </trkpt>
      <trkpt lat="44.97645" lon="6.63249">
        <ele>2312.6</ele>
        <time>2023-07-02T12:46:05+0200</time>
      </trkpt>
      <trkpt lat="44.97642" lon="6.63244">
        <ele>2312.9</ele>
        <time>2023-07-02T12:46:06+0200</time>
      </trkpt>
      <trkpt lat="44.97638" lon="6.63241">
        <ele>2312.6</ele>
        <time>2023-07-02T12:46:07+0200</time>
      </trkpt>
      <trkpt lat="44.97631" lon="6.63238">
        <ele>2312.7</ele>
        <time>2023-07-02T12:46:09+0200</time>
      </trkpt>
      <trkpt lat="44.97625" lon="6.63235">
        <ele>2313</ele>
        <time>2023-07-02T12:46:11+0200</time>
      </trkpt>
      <trkpt lat="44.97618" lon="6.63231">
        <ele>2313.5</ele>
        <time>2023-07-02T12:46:13+0200</time>
      </trkpt>
      <trkpt lat="44.97611" lon="6.63227">
        <ele>2314</ele>
        <time>2023-07-02T12:46:15+0200</time>
      </trkpt>
      <trkpt lat="44.97607" lon="6.63226">
        <ele>2313.9</ele>
        <time>2023-07-02T12:46:16+0200</time>
      </trkpt>
      <trkpt lat="44.97602" lon="6.63224">
        <ele>2314</ele>
        <time>2023-07-02T12:46:17+0200</time>
      </trkpt>
      <trkpt lat="44.97593" lon="6.63225">
        <ele>2313.1</ele>
        <time>2023-07-02T12:46:19+0200</time>
      </trkpt>
      <trkpt lat="44.97585" lon="6.63222">
        <ele>2313.2</ele>
        <time>2023-07-02T12:46:21+0200</time>
      </trkpt>
      <trkpt lat="44.97579" lon="6.63215">
        <ele>2313.2</ele>
        <time>2023-07-02T12:46:23+0200</time>
      </trkpt>
      <trkpt lat="44.97573" lon="6.63208">
        <ele>2312.6</ele>
        <time>2023-07-02T12:46:25+0200</time>
      </trkpt>
      <trkpt lat="44.97568" lon="6.632">
        <ele>2312.5</ele>
        <time>2023-07-02T12:46:27+0200</time>
      </trkpt>
      <trkpt lat="44.97565" lon="6.63195">
        <ele>2312.3</ele>
        <time>2023-07-02T12:46:28+0200</time>
      </trkpt>
      <trkpt lat="44.97561" lon="6.63185">
        <ele>2312.8</ele>
        <time>2023-07-02T12:46:30+0200</time>
      </trkpt>
      <trkpt lat="44.9756" lon="6.63176">
        <ele>2313.7</ele>
        <time>2023-07-02T12:46:32+0200</time>
      </trkpt>
      <trkpt lat="44.97556" lon="6.63166">
        <ele>2314.1</ele>
        <time>2023-07-02T12:46:34+0200</time>
      </trkpt>
      <trkpt lat="44.97551" lon="6.63157">
        <ele>2314.4</ele>
        <time>2023-07-02T12:46:36+0200</time>
      </trkpt>
      <trkpt lat="44.97547" lon="6.63149">
        <ele>2314.4</ele>
        <time>2023-07-02T12:46:38+0200</time>
      </trkpt>
      <trkpt lat="44.97545" lon="6.63143">
        <ele>2314.8</ele>
        <time>2023-07-02T12:46:39+0200</time>
      </trkpt>
      <trkpt lat="44.97542" lon="6.63132">
        <ele>2315</ele>
        <time>2023-07-02T12:46:41+0200</time>
      </trkpt>
      <trkpt lat="44.97538" lon="6.63122">
        <ele>2314.7</ele>
        <time>2023-07-02T12:46:43+0200</time>
      </trkpt>
      <trkpt lat="44.97535" lon="6.63112">
        <ele>2314.9</ele>
        <time>2023-07-02T12:46:45+0200</time>
      </trkpt>
      <trkpt lat="44.97537" lon="6.63101">
        <ele>2314.6</ele>
        <time>2023-07-02T12:46:47+0200</time>
      </trkpt>
      <trkpt lat="44.97541" lon="6.63096">
        <ele>2314.8</ele>
        <time>2023-07-02T12:46:48+0200</time>
      </trkpt>
      <trkpt lat="44.97549" lon="6.63089">
        <ele>2315.6</ele>
        <time>2023-07-02T12:46:50+0200</time>
      </trkpt>
      <trkpt lat="44.97553" lon="6.63086">
        <ele>2316</ele>
        <time>2023-07-02T12:46:51+0200</time>
      </trkpt>
      <trkpt lat="44.97561" lon="6.63083">
        <ele>2316.7</ele>
        <time>2023-07-02T12:46:53+0200</time>
      </trkpt>
      <trkpt lat="44.97569" lon="6.63082">
        <ele>2318</ele>
        <time>2023-07-02T12:46:55+0200</time>
      </trkpt>
      <trkpt lat="44.97573" lon="6.63078">
        <ele>2317.1</ele>
        <time>2023-07-02T12:46:56+0200</time>
      </trkpt>
      <trkpt lat="44.97581" lon="6.63076">
        <ele>2318.1</ele>
        <time>2023-07-02T12:46:58+0200</time>
      </trkpt>
      <trkpt lat="44.97589" lon="6.63073">
        <ele>2318.5</ele>
        <time>2023-07-02T12:47:00+0200</time>
      </trkpt>
      <trkpt lat="44.97596" lon="6.63069">
        <ele>2318.9</ele>
        <time>2023-07-02T12:47:02+0200</time>
      </trkpt>
      <trkpt lat="44.97604" lon="6.63066">
        <ele>2319.3</ele>
        <time>2023-07-02T12:47:04+0200</time>
      </trkpt>
      <trkpt lat="44.97611" lon="6.63062">
        <ele>2319.6</ele>
        <time>2023-07-02T12:47:06+0200</time>
      </trkpt>
      <trkpt lat="44.97618" lon="6.63061">
        <ele>2320.4</ele>
        <time>2023-07-02T12:47:08+0200</time>
      </trkpt>
      <trkpt lat="44.97626" lon="6.63059">
        <ele>2320.9</ele>
        <time>2023-07-02T12:47:10+0200</time>
      </trkpt>
      <trkpt lat="44.97634" lon="6.63055">
        <ele>2320.8</ele>
        <time>2023-07-02T12:47:12+0200</time>
      </trkpt>
      <trkpt lat="44.97642" lon="6.63053">
        <ele>2321.9</ele>
        <time>2023-07-02T12:47:14+0200</time>
      </trkpt>
      <trkpt lat="44.9765" lon="6.6305">
        <ele>2322.3</ele>
        <time>2023-07-02T12:47:16+0200</time>
      </trkpt>
      <trkpt lat="44.97657" lon="6.63047">
        <ele>2322.8</ele>
        <time>2023-07-02T12:47:18+0200</time>
      </trkpt>
      <trkpt lat="44.97664" lon="6.63043">
        <ele>2322.9</ele>
        <time>2023-07-02T12:47:20+0200</time>
      </trkpt>
      <trkpt lat="44.97669" lon="6.63038">
        <ele>2322.3</ele>
        <time>2023-07-02T12:47:22+0200</time>
      </trkpt>
      <trkpt lat="44.97675" lon="6.63033">
        <ele>2322.2</ele>
        <time>2023-07-02T12:47:24+0200</time>
      </trkpt>
      <trkpt lat="44.97677" lon="6.63025">
        <ele>2320.7</ele>
        <time>2023-07-02T12:47:25+0200</time>
      </trkpt>
      <trkpt lat="44.97681" lon="6.63015">
        <ele>2321</ele>
        <time>2023-07-02T12:47:27+0200</time>
      </trkpt>
      <trkpt lat="44.97684" lon="6.63006">
        <ele>2321</ele>
        <time>2023-07-02T12:47:29+0200</time>
      </trkpt>
      <trkpt lat="44.97685" lon="6.63">
        <ele>2320.9</ele>
        <time>2023-07-02T12:47:30+0200</time>
      </trkpt>
      <trkpt lat="44.97686" lon="6.6299">
        <ele>2321.2</ele>
        <time>2023-07-02T12:47:32+0200</time>
      </trkpt>
      <trkpt lat="44.97689" lon="6.62979">
        <ele>2322.2</ele>
        <time>2023-07-02T12:47:34+0200</time>
      </trkpt>
      <trkpt lat="44.97691" lon="6.6297">
        <ele>2322.7</ele>
        <time>2023-07-02T12:47:36+0200</time>
      </trkpt>
      <trkpt lat="44.97694" lon="6.62961">
        <ele>2323.2</ele>
        <time>2023-07-02T12:47:38+0200</time>
      </trkpt>
      <trkpt lat="44.97698" lon="6.62952">
        <ele>2324.4</ele>
        <time>2023-07-02T12:47:40+0200</time>
      </trkpt>
      <trkpt lat="44.97703" lon="6.62943">
        <ele>2326</ele>
        <time>2023-07-02T12:47:42+0200</time>
      </trkpt>
      <trkpt lat="44.97703" lon="6.62933">
        <ele>2325.8</ele>
        <time>2023-07-02T12:47:44+0200</time>
      </trkpt>
      <trkpt lat="44.97704" lon="6.62925">
        <ele>2326.1</ele>
        <time>2023-07-02T12:47:46+0200</time>
      </trkpt>
      <trkpt lat="44.97704" lon="6.62914">
        <ele>2326.2</ele>
        <time>2023-07-02T12:47:48+0200</time>
      </trkpt>
      <trkpt lat="44.97702" lon="6.62905">
        <ele>2326.7</ele>
        <time>2023-07-02T12:47:50+0200</time>
      </trkpt>
      <trkpt lat="44.97698" lon="6.62896">
        <ele>2326.5</ele>
        <time>2023-07-02T12:47:52+0200</time>
      </trkpt>
      <trkpt lat="44.97696" lon="6.62891">
        <ele>2326.2</ele>
        <time>2023-07-02T12:47:53+0200</time>
      </trkpt>
      <trkpt lat="44.97692" lon="6.62885">
        <ele>2326.2</ele>
        <time>2023-07-02T12:47:54+0200</time>
      </trkpt>
      <trkpt lat="44.97688" lon="6.62878">
        <ele>2326.5</ele>
        <time>2023-07-02T12:47:56+0200</time>
      </trkpt>
      <trkpt lat="44.97683" lon="6.62871">
        <ele>2326.5</ele>
        <time>2023-07-02T12:47:58+0200</time>
      </trkpt>
      <trkpt lat="44.97678" lon="6.62864">
        <ele>2326.6</ele>
        <time>2023-07-02T12:48:00+0200</time>
      </trkpt>
      <trkpt lat="44.97674" lon="6.62857">
        <ele>2327.2</ele>
        <time>2023-07-02T12:48:02+0200</time>
      </trkpt>
      <trkpt lat="44.97671" lon="6.62849">
        <ele>2327.8</ele>
        <time>2023-07-02T12:48:04+0200</time>
      </trkpt>
      <trkpt lat="44.97666" lon="6.62842">
        <ele>2327.8</ele>
        <time>2023-07-02T12:48:06+0200</time>
      </trkpt>
      <trkpt lat="44.97663" lon="6.62836">
        <ele>2328.3</ele>
        <time>2023-07-02T12:48:08+0200</time>
      </trkpt>
      <trkpt lat="44.9766" lon="6.62829">
        <ele>2329.1</ele>
        <time>2023-07-02T12:48:10+0200</time>
      </trkpt>
      <trkpt lat="44.97661" lon="6.62817">
        <ele>2333.2</ele>
        <time>2023-07-02T12:48:12+0200</time>
      </trkpt>
      <trkpt lat="44.97654" lon="6.6281">
        <ele>2332</ele>
        <time>2023-07-02T12:48:14+0200</time>
      </trkpt>
      <trkpt lat="44.9765" lon="6.62805">
        <ele>2331.8</ele>
        <time>2023-07-02T12:48:16+0200</time>
      </trkpt>
      <trkpt lat="44.97645" lon="6.62799">
        <ele>2331.5</ele>
        <time>2023-07-02T12:48:18+0200</time>
      </trkpt>
      <trkpt lat="44.9764" lon="6.62792">
        <ele>2331.3</ele>
        <time>2023-07-02T12:48:20+0200</time>
      </trkpt>
      <trkpt lat="44.97635" lon="6.62786">
        <ele>2331.3</ele>
        <time>2023-07-02T12:48:22+0200</time>
      </trkpt>
      <trkpt lat="44.97629" lon="6.62779">
        <ele>2330.9</ele>
        <time>2023-07-02T12:48:24+0200</time>
      </trkpt>
      <trkpt lat="44.97624" lon="6.62774">
        <ele>2330.7</ele>
        <time>2023-07-02T12:48:26+0200</time>
      </trkpt>
      <trkpt lat="44.9762" lon="6.62767">
        <ele>2331.6</ele>
        <time>2023-07-02T12:48:28+0200</time>
      </trkpt>
      <trkpt lat="44.97615" lon="6.62761">
        <ele>2331.3</ele>
        <time>2023-07-02T12:48:30+0200</time>
      </trkpt>
      <trkpt lat="44.97608" lon="6.62756">
        <ele>2330.5</ele>
        <time>2023-07-02T12:48:32+0200</time>
      </trkpt>
      <trkpt lat="44.97602" lon="6.62752">
        <ele>2330.5</ele>
        <time>2023-07-02T12:48:34+0200</time>
      </trkpt>
      <trkpt lat="44.97597" lon="6.62748">
        <ele>2330.8</ele>
        <time>2023-07-02T12:48:36+0200</time>
      </trkpt>
      <trkpt lat="44.97589" lon="6.62745">
        <ele>2330</ele>
        <time>2023-07-02T12:48:38+0200</time>
      </trkpt>
      <trkpt lat="44.97583" lon="6.62741">
        <ele>2330.6</ele>
        <time>2023-07-02T12:48:40+0200</time>
      </trkpt>
      <trkpt lat="44.97577" lon="6.62736">
        <ele>2331.1</ele>
        <time>2023-07-02T12:48:42+0200</time>
      </trkpt>
      <trkpt lat="44.97572" lon="6.62735">
        <ele>2330.1</ele>
        <time>2023-07-02T12:48:43+0200</time>
      </trkpt>
      <trkpt lat="44.97566" lon="6.62728">
        <ele>2331</ele>
        <time>2023-07-02T12:48:45+0200</time>
      </trkpt>
      <trkpt lat="44.97561" lon="6.62723">
        <ele>2331.8</ele>
        <time>2023-07-02T12:48:47+0200</time>
      </trkpt>
      <trkpt lat="44.97557" lon="6.62721">
        <ele>2331.3</ele>
        <time>2023-07-02T12:48:48+0200</time>
      </trkpt>
      <trkpt lat="44.97555" lon="6.62713">
        <ele>2333.5</ele>
        <time>2023-07-02T12:48:50+0200</time>
      </trkpt>
      <trkpt lat="44.97548" lon="6.62706">
        <ele>2331.8</ele>
        <time>2023-07-02T12:48:52+0200</time>
      </trkpt>
      <trkpt lat="44.97545" lon="6.62696">
        <ele>2333.5</ele>
        <time>2023-07-02T12:48:54+0200</time>
      </trkpt>
      <trkpt lat="44.97542" lon="6.62688">
        <ele>2333.1</ele>
        <time>2023-07-02T12:48:56+0200</time>
      </trkpt>
      <trkpt lat="44.97541" lon="6.62681">
        <ele>2333.1</ele>
        <time>2023-07-02T12:48:58+0200</time>
      </trkpt>
      <trkpt lat="44.97541" lon="6.62672">
        <ele>2334.1</ele>
        <time>2023-07-02T12:49:00+0200</time>
      </trkpt>
      <trkpt lat="44.97542" lon="6.62663">
        <ele>2336.5</ele>
        <time>2023-07-02T12:49:02+0200</time>
      </trkpt>
      <trkpt lat="44.97543" lon="6.62655">
        <ele>2336.8</ele>
        <time>2023-07-02T12:49:04+0200</time>
      </trkpt>
      <trkpt lat="44.97545" lon="6.62646">
        <ele>2337.6</ele>
        <time>2023-07-02T12:49:06+0200</time>
      </trkpt>
      <trkpt lat="44.97545" lon="6.62638">
        <ele>2337.2</ele>
        <time>2023-07-02T12:49:08+0200</time>
      </trkpt>
      <trkpt lat="44.97544" lon="6.62626">
        <ele>2335</ele>
        <time>2023-07-02T12:49:10+0200</time>
      </trkpt>
      <trkpt lat="44.97545" lon="6.62615">
        <ele>2334.9</ele>
        <time>2023-07-02T12:49:12+0200</time>
      </trkpt>
      <trkpt lat="44.97547" lon="6.62608">
        <ele>2335.4</ele>
        <time>2023-07-02T12:49:14+0200</time>
      </trkpt>
      <trkpt lat="44.97549" lon="6.62599">
        <ele>2336.1</ele>
        <time>2023-07-02T12:49:16+0200</time>
      </trkpt>
      <trkpt lat="44.97552" lon="6.62588">
        <ele>2336.6</ele>
        <time>2023-07-02T12:49:18+0200</time>
      </trkpt>
      <trkpt lat="44.97556" lon="6.62577">
        <ele>2336.9</ele>
        <time>2023-07-02T12:49:20+0200</time>
      </trkpt>
      <trkpt lat="44.97559" lon="6.62568">
        <ele>2337.8</ele>
        <time>2023-07-02T12:49:22+0200</time>
      </trkpt>
      <trkpt lat="44.97562" lon="6.62559">
        <ele>2337.6</ele>
        <time>2023-07-02T12:49:24+0200</time>
      </trkpt>
      <trkpt lat="44.97565" lon="6.6255">
        <ele>2338.4</ele>
        <time>2023-07-02T12:49:26+0200</time>
      </trkpt>
      <trkpt lat="44.97568" lon="6.62541">
        <ele>2338.2</ele>
        <time>2023-07-02T12:49:28+0200</time>
      </trkpt>
      <trkpt lat="44.97571" lon="6.62532">
        <ele>2338.7</ele>
        <time>2023-07-02T12:49:30+0200</time>
      </trkpt>
      <trkpt lat="44.97573" lon="6.62526">
        <ele>2338.7</ele>
        <time>2023-07-02T12:49:31+0200</time>
      </trkpt>
      <trkpt lat="44.97578" lon="6.6252">
        <ele>2340.1</ele>
        <time>2023-07-02T12:49:33+0200</time>
      </trkpt>
      <trkpt lat="44.97577" lon="6.62512">
        <ele>2338.4</ele>
        <time>2023-07-02T12:49:35+0200</time>
      </trkpt>
      <trkpt lat="44.97582" lon="6.62506">
        <ele>2339.5</ele>
        <time>2023-07-02T12:49:37+0200</time>
      </trkpt>
      <trkpt lat="44.97582" lon="6.62498">
        <ele>2338.5</ele>
        <time>2023-07-02T12:49:38+0200</time>
      </trkpt>
      <trkpt lat="44.97585" lon="6.62491">
        <ele>2338.8</ele>
        <time>2023-07-02T12:49:40+0200</time>
      </trkpt>
      <trkpt lat="44.97588" lon="6.62482">
        <ele>2339</ele>
        <time>2023-07-02T12:49:42+0200</time>
      </trkpt>
      <trkpt lat="44.97589" lon="6.62471">
        <ele>2338</ele>
        <time>2023-07-02T12:49:44+0200</time>
      </trkpt>
      <trkpt lat="44.97587" lon="6.62462">
        <ele>2337.3</ele>
        <time>2023-07-02T12:49:46+0200</time>
      </trkpt>
      <trkpt lat="44.97587" lon="6.62452">
        <ele>2337</ele>
        <time>2023-07-02T12:49:48+0200</time>
      </trkpt>
      <trkpt lat="44.97587" lon="6.62441">
        <ele>2337.1</ele>
        <time>2023-07-02T12:49:50+0200</time>
      </trkpt>
      <trkpt lat="44.97585" lon="6.62432">
        <ele>2336.5</ele>
        <time>2023-07-02T12:49:52+0200</time>
      </trkpt>
      <trkpt lat="44.97586" lon="6.62424">
        <ele>2337</ele>
        <time>2023-07-02T12:49:54+0200</time>
      </trkpt>
      <trkpt lat="44.97588" lon="6.62417">
        <ele>2337.6</ele>
        <time>2023-07-02T12:49:56+0200</time>
      </trkpt>
      <trkpt lat="44.97593" lon="6.6241">
        <ele>2338.2</ele>
        <time>2023-07-02T12:49:58+0200</time>
      </trkpt>
      <trkpt lat="44.97598" lon="6.62402">
        <ele>2338.6</ele>
        <time>2023-07-02T12:50:00+0200</time>
      </trkpt>
      <trkpt lat="44.97603" lon="6.62396">
        <ele>2339.8</ele>
        <time>2023-07-02T12:50:02+0200</time>
      </trkpt>
      <trkpt lat="44.9761" lon="6.62392">
        <ele>2341.8</ele>
        <time>2023-07-02T12:50:04+0200</time>
      </trkpt>
      <trkpt lat="44.97614" lon="6.62385">
        <ele>2342.4</ele>
        <time>2023-07-02T12:50:06+0200</time>
      </trkpt>
      <trkpt lat="44.97619" lon="6.62379">
        <ele>2343.9</ele>
        <time>2023-07-02T12:50:08+0200</time>
      </trkpt>
      <trkpt lat="44.97622" lon="6.62369">
        <ele>2343.8</ele>
        <time>2023-07-02T12:50:10+0200</time>
      </trkpt>
      <trkpt lat="44.97625" lon="6.62361">
        <ele>2343.8</ele>
        <time>2023-07-02T12:50:12+0200</time>
      </trkpt>
      <trkpt lat="44.97625" lon="6.6235">
        <ele>2343.7</ele>
        <time>2023-07-02T12:50:14+0200</time>
      </trkpt>
      <trkpt lat="44.97626" lon="6.62338">
        <ele>2343.4</ele>
        <time>2023-07-02T12:50:16+0200</time>
      </trkpt>
      <trkpt lat="44.97623" lon="6.62327">
        <ele>2341.7</ele>
        <time>2023-07-02T12:50:18+0200</time>
      </trkpt>
      <trkpt lat="44.97622" lon="6.62318">
        <ele>2341.4</ele>
        <time>2023-07-02T12:50:20+0200</time>
      </trkpt>
      <trkpt lat="44.97622" lon="6.62307">
        <ele>2341.5</ele>
        <time>2023-07-02T12:50:22+0200</time>
      </trkpt>
      <trkpt lat="44.97624" lon="6.62299">
        <ele>2341.2</ele>
        <time>2023-07-02T12:50:24+0200</time>
      </trkpt>
      <trkpt lat="44.97629" lon="6.62292">
        <ele>2342.1</ele>
        <time>2023-07-02T12:50:26+0200</time>
      </trkpt>
      <trkpt lat="44.97631" lon="6.62285">
        <ele>2341.7</ele>
        <time>2023-07-02T12:50:28+0200</time>
      </trkpt>
      <trkpt lat="44.97635" lon="6.62277">
        <ele>2341.8</ele>
        <time>2023-07-02T12:50:30+0200</time>
      </trkpt>
      <trkpt lat="44.9764" lon="6.62274">
        <ele>2342.8</ele>
        <time>2023-07-02T12:50:32+0200</time>
      </trkpt>
      <trkpt lat="44.97646" lon="6.62271">
        <ele>2343.7</ele>
        <time>2023-07-02T12:50:34+0200</time>
      </trkpt>
      <trkpt lat="44.97652" lon="6.62267">
        <ele>2344.6</ele>
        <time>2023-07-02T12:50:36+0200</time>
      </trkpt>
      <trkpt lat="44.97658" lon="6.62263">
        <ele>2345.1</ele>
        <time>2023-07-02T12:50:38+0200</time>
      </trkpt>
      <trkpt lat="44.97663" lon="6.62258">
        <ele>2345.2</ele>
        <time>2023-07-02T12:50:40+0200</time>
      </trkpt>
      <trkpt lat="44.97669" lon="6.62254">
        <ele>2345.4</ele>
        <time>2023-07-02T12:50:42+0200</time>
      </trkpt>
      <trkpt lat="44.97675" lon="6.62249">
        <ele>2345.4</ele>
        <time>2023-07-02T12:50:44+0200</time>
      </trkpt>
      <trkpt lat="44.97681" lon="6.62243">
        <ele>2345.7</ele>
        <time>2023-07-02T12:50:46+0200</time>
      </trkpt>
      <trkpt lat="44.97687" lon="6.62236">
        <ele>2346.2</ele>
        <time>2023-07-02T12:50:48+0200</time>
      </trkpt>
      <trkpt lat="44.97689" lon="6.62231">
        <ele>2346.2</ele>
        <time>2023-07-02T12:50:49+0200</time>
      </trkpt>
      <trkpt lat="44.97693" lon="6.62223">
        <ele>2346.5</ele>
        <time>2023-07-02T12:50:51+0200</time>
      </trkpt>
      <trkpt lat="44.97694" lon="6.62214">
        <ele>2346.9</ele>
        <time>2023-07-02T12:50:53+0200</time>
      </trkpt>
      <trkpt lat="44.97695" lon="6.62205">
        <ele>2347.3</ele>
        <time>2023-07-02T12:50:55+0200</time>
      </trkpt>
      <trkpt lat="44.97695" lon="6.62193">
        <ele>2347.4</ele>
        <time>2023-07-02T12:50:57+0200</time>
      </trkpt>
      <trkpt lat="44.97693" lon="6.62188">
        <ele>2346.3</ele>
        <time>2023-07-02T12:50:58+0200</time>
      </trkpt>
      <trkpt lat="44.97691" lon="6.62178">
        <ele>2345.7</ele>
        <time>2023-07-02T12:51:00+0200</time>
      </trkpt>
      <trkpt lat="44.97687" lon="6.6217">
        <ele>2345.1</ele>
        <time>2023-07-02T12:51:02+0200</time>
      </trkpt>
      <trkpt lat="44.97682" lon="6.62164">
        <ele>2345</ele>
        <time>2023-07-02T12:51:04+0200</time>
      </trkpt>
      <trkpt lat="44.97674" lon="6.6216">
        <ele>2344.7</ele>
        <time>2023-07-02T12:51:06+0200</time>
      </trkpt>
      <trkpt lat="44.9767" lon="6.62155">
        <ele>2344.8</ele>
        <time>2023-07-02T12:51:08+0200</time>
      </trkpt>
      <trkpt lat="44.97667" lon="6.62146">
        <ele>2345.2</ele>
        <time>2023-07-02T12:51:10+0200</time>
      </trkpt>
      <trkpt lat="44.97664" lon="6.62138">
        <ele>2345.7</ele>
        <time>2023-07-02T12:51:12+0200</time>
      </trkpt>
      <trkpt lat="44.97664" lon="6.62129">
        <ele>2346</ele>
        <time>2023-07-02T12:51:14+0200</time>
      </trkpt>
      <trkpt lat="44.97663" lon="6.62119">
        <ele>2346.1</ele>
        <time>2023-07-02T12:51:16+0200</time>
      </trkpt>
      <trkpt lat="44.97664" lon="6.62111">
        <ele>2346.5</ele>
        <time>2023-07-02T12:51:18+0200</time>
      </trkpt>
      <trkpt lat="44.97667" lon="6.62103">
        <ele>2346.6</ele>
        <time>2023-07-02T12:51:20+0200</time>
      </trkpt>
      <trkpt lat="44.9767" lon="6.62096">
        <ele>2346.7</ele>
        <time>2023-07-02T12:51:22+0200</time>
      </trkpt>
      <trkpt lat="44.97675" lon="6.62088">
        <ele>2347.5</ele>
        <time>2023-07-02T12:51:24+0200</time>
      </trkpt>
      <trkpt lat="44.97678" lon="6.6208">
        <ele>2347.8</ele>
        <time>2023-07-02T12:51:26+0200</time>
      </trkpt>
      <trkpt lat="44.9768" lon="6.62072">
        <ele>2347.6</ele>
        <time>2023-07-02T12:51:28+0200</time>
      </trkpt>
      <trkpt lat="44.97682" lon="6.62062">
        <ele>2347.2</ele>
        <time>2023-07-02T12:51:30+0200</time>
      </trkpt>
      <trkpt lat="44.97686" lon="6.62055">
        <ele>2348</ele>
        <time>2023-07-02T12:51:32+0200</time>
      </trkpt>
      <trkpt lat="44.97691" lon="6.62046">
        <ele>2348.3</ele>
        <time>2023-07-02T12:51:34+0200</time>
      </trkpt>
      <trkpt lat="44.97695" lon="6.62038">
        <ele>2348.8</ele>
        <time>2023-07-02T12:51:36+0200</time>
      </trkpt>
      <trkpt lat="44.977" lon="6.62031">
        <ele>2349.5</ele>
        <time>2023-07-02T12:51:38+0200</time>
      </trkpt>
      <trkpt lat="44.97703" lon="6.62023">
        <ele>2349.9</ele>
        <time>2023-07-02T12:51:40+0200</time>
      </trkpt>
      <trkpt lat="44.97708" lon="6.62015">
        <ele>2350.6</ele>
        <time>2023-07-02T12:51:42+0200</time>
      </trkpt>
      <trkpt lat="44.97708" lon="6.62002">
        <ele>2349.2</ele>
        <time>2023-07-02T12:51:44+0200</time>
      </trkpt>
      <trkpt lat="44.97709" lon="6.61996">
        <ele>2349.7</ele>
        <time>2023-07-02T12:51:45+0200</time>
      </trkpt>
      <trkpt lat="44.97706" lon="6.61985">
        <ele>2349.7</ele>
        <time>2023-07-02T12:51:47+0200</time>
      </trkpt>
      <trkpt lat="44.97704" lon="6.61978">
        <ele>2349.7</ele>
        <time>2023-07-02T12:51:49+0200</time>
      </trkpt>
      <trkpt lat="44.97699" lon="6.61971">
        <ele>2349.3</ele>
        <time>2023-07-02T12:51:52+0200</time>
      </trkpt>
      <trkpt lat="44.97697" lon="6.61963">
        <ele>2349.9</ele>
        <time>2023-07-02T12:51:54+0200</time>
      </trkpt>
      <trkpt lat="44.97693" lon="6.61956">
        <ele>2350.1</ele>
        <time>2023-07-02T12:51:56+0200</time>
      </trkpt>
      <trkpt lat="44.97687" lon="6.61949">
        <ele>2350.3</ele>
        <time>2023-07-02T12:51:59+0200</time>
      </trkpt>
      <trkpt lat="44.97684" lon="6.61942">
        <ele>2351.3</ele>
        <time>2023-07-02T12:52:01+0200</time>
      </trkpt>
      <trkpt lat="44.97677" lon="6.61935">
        <ele>2351.9</ele>
        <time>2023-07-02T12:52:03+0200</time>
      </trkpt>
      <trkpt lat="44.97671" lon="6.6193">
        <ele>2352.4</ele>
        <time>2023-07-02T12:52:05+0200</time>
      </trkpt>
      <trkpt lat="44.97667" lon="6.61927">
        <ele>2352.7</ele>
        <time>2023-07-02T12:52:07+0200</time>
      </trkpt>
      <trkpt lat="44.9766" lon="6.61929">
        <ele>2352.8</ele>
        <time>2023-07-02T12:52:09+0200</time>
      </trkpt>
      <trkpt lat="44.97652" lon="6.61932">
        <ele>2352.8</ele>
        <time>2023-07-02T12:52:11+0200</time>
      </trkpt>
      <trkpt lat="44.97646" lon="6.61934">
        <ele>2352.9</ele>
        <time>2023-07-02T12:52:13+0200</time>
      </trkpt>
      <trkpt lat="44.97639" lon="6.61941">
        <ele>2351.8</ele>
        <time>2023-07-02T12:52:15+0200</time>
      </trkpt>
      <trkpt lat="44.97634" lon="6.61942">
        <ele>2351.8</ele>
        <time>2023-07-02T12:52:17+0200</time>
      </trkpt>
      <trkpt lat="44.97629" lon="6.61943">
        <ele>2351.9</ele>
        <time>2023-07-02T12:52:19+0200</time>
      </trkpt>
      <trkpt lat="44.97623" lon="6.6194">
        <ele>2353</ele>
        <time>2023-07-02T12:52:21+0200</time>
      </trkpt>
      <trkpt lat="44.97617" lon="6.61938">
        <ele>2353.6</ele>
        <time>2023-07-02T12:52:23+0200</time>
      </trkpt>
      <trkpt lat="44.97613" lon="6.61934">
        <ele>2354.5</ele>
        <time>2023-07-02T12:52:25+0200</time>
      </trkpt>
      <trkpt lat="44.97608" lon="6.61926">
        <ele>2355</ele>
        <time>2023-07-02T12:52:27+0200</time>
      </trkpt>
      <trkpt lat="44.97605" lon="6.6192">
        <ele>2355.3</ele>
        <time>2023-07-02T12:52:28+0200</time>
      </trkpt>
      <trkpt lat="44.97603" lon="6.61913">
        <ele>2355.6</ele>
        <time>2023-07-02T12:52:30+0200</time>
      </trkpt>
      <trkpt lat="44.976" lon="6.61903">
        <ele>2356.6</ele>
        <time>2023-07-02T12:52:32+0200</time>
      </trkpt>
      <trkpt lat="44.97597" lon="6.61895">
        <ele>2357.4</ele>
        <time>2023-07-02T12:52:34+0200</time>
      </trkpt>
      <trkpt lat="44.97591" lon="6.61888">
        <ele>2357.4</ele>
        <time>2023-07-02T12:52:36+0200</time>
      </trkpt>
      <trkpt lat="44.97586" lon="6.61881">
        <ele>2357.7</ele>
        <time>2023-07-02T12:52:38+0200</time>
      </trkpt>
      <trkpt lat="44.97583" lon="6.61874">
        <ele>2358</ele>
        <time>2023-07-02T12:52:40+0200</time>
      </trkpt>
      <trkpt lat="44.97578" lon="6.61866">
        <ele>2358</ele>
        <time>2023-07-02T12:52:42+0200</time>
      </trkpt>
      <trkpt lat="44.97575" lon="6.61857">
        <ele>2358.7</ele>
        <time>2023-07-02T12:52:44+0200</time>
      </trkpt>
      <trkpt lat="44.97572" lon="6.61851">
        <ele>2359.3</ele>
        <time>2023-07-02T12:52:46+0200</time>
      </trkpt>
      <trkpt lat="44.97567" lon="6.61846">
        <ele>2359.2</ele>
        <time>2023-07-02T12:52:48+0200</time>
      </trkpt>
      <trkpt lat="44.97562" lon="6.61839">
        <ele>2359.4</ele>
        <time>2023-07-02T12:52:50+0200</time>
      </trkpt>
      <trkpt lat="44.97555" lon="6.61836">
        <ele>2358.3</ele>
        <time>2023-07-02T12:52:52+0200</time>
      </trkpt>
      <trkpt lat="44.97551" lon="6.61831">
        <ele>2358.9</ele>
        <time>2023-07-02T12:52:53+0200</time>
      </trkpt>
      <trkpt lat="44.97546" lon="6.61827">
        <ele>2359.6</ele>
        <time>2023-07-02T12:52:55+0200</time>
      </trkpt>
      <trkpt lat="44.97539" lon="6.61822">
        <ele>2359.9</ele>
        <time>2023-07-02T12:52:57+0200</time>
      </trkpt>
      <trkpt lat="44.97531" lon="6.61818">
        <ele>2359.6</ele>
        <time>2023-07-02T12:52:59+0200</time>
      </trkpt>
      <trkpt lat="44.97525" lon="6.61815">
        <ele>2359.6</ele>
        <time>2023-07-02T12:53:01+0200</time>
      </trkpt>
      <trkpt lat="44.9752" lon="6.61813">
        <ele>2359.9</ele>
        <time>2023-07-02T12:53:03+0200</time>
      </trkpt>
      <trkpt lat="44.97514" lon="6.61812">
        <ele>2359.5</ele>
        <time>2023-07-02T12:53:05+0200</time>
      </trkpt>
      <trkpt lat="44.97508" lon="6.6181">
        <ele>2359.5</ele>
        <time>2023-07-02T12:53:07+0200</time>
      </trkpt>
      <trkpt lat="44.97501" lon="6.61809">
        <ele>2359</ele>
        <time>2023-07-02T12:53:09+0200</time>
      </trkpt>
      <trkpt lat="44.97495" lon="6.61804">
        <ele>2360.2</ele>
        <time>2023-07-02T12:53:11+0200</time>
      </trkpt>
      <trkpt lat="44.97489" lon="6.61801">
        <ele>2360.4</ele>
        <time>2023-07-02T12:53:13+0200</time>
      </trkpt>
      <trkpt lat="44.97485" lon="6.618">
        <ele>2360.1</ele>
        <time>2023-07-02T12:53:14+0200</time>
      </trkpt>
      <trkpt lat="44.97479" lon="6.61797">
        <ele>2360.5</ele>
        <time>2023-07-02T12:53:16+0200</time>
      </trkpt>
      <trkpt lat="44.97471" lon="6.61794">
        <ele>2360.3</ele>
        <time>2023-07-02T12:53:18+0200</time>
      </trkpt>
      <trkpt lat="44.97463" lon="6.61789">
        <ele>2360.8</ele>
        <time>2023-07-02T12:53:20+0200</time>
      </trkpt>
      <trkpt lat="44.97458" lon="6.61786">
        <ele>2361</ele>
        <time>2023-07-02T12:53:22+0200</time>
      </trkpt>
      <trkpt lat="44.97454" lon="6.6178">
        <ele>2361.8</ele>
        <time>2023-07-02T12:53:24+0200</time>
      </trkpt>
      <trkpt lat="44.9745" lon="6.61774">
        <ele>2362.7</ele>
        <time>2023-07-02T12:53:26+0200</time>
      </trkpt>
      <trkpt lat="44.97444" lon="6.61771">
        <ele>2362.5</ele>
        <time>2023-07-02T12:53:28+0200</time>
      </trkpt>
      <trkpt lat="44.97442" lon="6.61763">
        <ele>2363.8</ele>
        <time>2023-07-02T12:53:30+0200</time>
      </trkpt>
      <trkpt lat="44.97438" lon="6.61757">
        <ele>2364</ele>
        <time>2023-07-02T12:53:32+0200</time>
      </trkpt>
      <trkpt lat="44.97435" lon="6.61752">
        <ele>2363.7</ele>
        <time>2023-07-02T12:53:34+0200</time>
      </trkpt>
      <trkpt lat="44.97431" lon="6.61745">
        <ele>2363.8</ele>
        <time>2023-07-02T12:53:36+0200</time>
      </trkpt>
      <trkpt lat="44.97427" lon="6.61738">
        <ele>2363.5</ele>
        <time>2023-07-02T12:53:38+0200</time>
      </trkpt>
      <trkpt lat="44.97424" lon="6.61729">
        <ele>2363.6</ele>
        <time>2023-07-02T12:53:40+0200</time>
      </trkpt>
      <trkpt lat="44.9742" lon="6.61721">
        <ele>2363.1</ele>
        <time>2023-07-02T12:53:42+0200</time>
      </trkpt>
      <trkpt lat="44.9742" lon="6.61709">
        <ele>2364.1</ele>
        <time>2023-07-02T12:53:44+0200</time>
      </trkpt>
      <trkpt lat="44.97421" lon="6.61699">
        <ele>2365.6</ele>
        <time>2023-07-02T12:53:46+0200</time>
      </trkpt>
      <trkpt lat="44.97421" lon="6.61688">
        <ele>2366.3</ele>
        <time>2023-07-02T12:53:48+0200</time>
      </trkpt>
      <trkpt lat="44.97421" lon="6.61679">
        <ele>2366.4</ele>
        <time>2023-07-02T12:53:50+0200</time>
      </trkpt>
      <trkpt lat="44.97421" lon="6.61669">
        <ele>2366.1</ele>
        <time>2023-07-02T12:53:52+0200</time>
      </trkpt>
      <trkpt lat="44.97421" lon="6.61659">
        <ele>2366.4</ele>
        <time>2023-07-02T12:53:54+0200</time>
      </trkpt>
      <trkpt lat="44.97423" lon="6.61653">
        <ele>2367.4</ele>
        <time>2023-07-02T12:53:55+0200</time>
      </trkpt>
      <trkpt lat="44.97424" lon="6.61643">
        <ele>2368.2</ele>
        <time>2023-07-02T12:53:57+0200</time>
      </trkpt>
      <trkpt lat="44.97426" lon="6.61634">
        <ele>2369</ele>
        <time>2023-07-02T12:53:59+0200</time>
      </trkpt>
      <trkpt lat="44.97426" lon="6.61625">
        <ele>2368.5</ele>
        <time>2023-07-02T12:54:01+0200</time>
      </trkpt>
      <trkpt lat="44.97426" lon="6.61613">
        <ele>2367.9</ele>
        <time>2023-07-02T12:54:03+0200</time>
      </trkpt>
      <trkpt lat="44.97429" lon="6.61603">
        <ele>2368.9</ele>
        <time>2023-07-02T12:54:05+0200</time>
      </trkpt>
      <trkpt lat="44.97429" lon="6.61593">
        <ele>2368.8</ele>
        <time>2023-07-02T12:54:07+0200</time>
      </trkpt>
      <trkpt lat="44.97429" lon="6.61587">
        <ele>2368.5</ele>
        <time>2023-07-02T12:54:08+0200</time>
      </trkpt>
      <trkpt lat="44.97427" lon="6.61576">
        <ele>2368.3</ele>
        <time>2023-07-02T12:54:10+0200</time>
      </trkpt>
      <trkpt lat="44.97426" lon="6.61569">
        <ele>2368.5</ele>
        <time>2023-07-02T12:54:11+0200</time>
      </trkpt>
      <trkpt lat="44.97426" lon="6.61558">
        <ele>2369.6</ele>
        <time>2023-07-02T12:54:13+0200</time>
      </trkpt>
      <trkpt lat="44.97423" lon="6.61547">
        <ele>2369.4</ele>
        <time>2023-07-02T12:54:15+0200</time>
      </trkpt>
      <trkpt lat="44.97422" lon="6.61539">
        <ele>2369.4</ele>
        <time>2023-07-02T12:54:17+0200</time>
      </trkpt>
      <trkpt lat="44.9742" lon="6.61527">
        <ele>2369.3</ele>
        <time>2023-07-02T12:54:19+0200</time>
      </trkpt>
      <trkpt lat="44.97418" lon="6.61515">
        <ele>2369.4</ele>
        <time>2023-07-02T12:54:21+0200</time>
      </trkpt>
      <trkpt lat="44.97417" lon="6.61504">
        <ele>2369.8</ele>
        <time>2023-07-02T12:54:23+0200</time>
      </trkpt>
      <trkpt lat="44.97417" lon="6.61496">
        <ele>2370.1</ele>
        <time>2023-07-02T12:54:25+0200</time>
      </trkpt>
      <trkpt lat="44.97416" lon="6.61485">
        <ele>2370.3</ele>
        <time>2023-07-02T12:54:27+0200</time>
      </trkpt>
      <trkpt lat="44.97415" lon="6.61475">
        <ele>2370.4</ele>
        <time>2023-07-02T12:54:29+0200</time>
      </trkpt>
      <trkpt lat="44.97413" lon="6.61465">
        <ele>2370.5</ele>
        <time>2023-07-02T12:54:31+0200</time>
      </trkpt>
      <trkpt lat="44.9741" lon="6.61455">
        <ele>2370.7</ele>
        <time>2023-07-02T12:54:33+0200</time>
      </trkpt>
      <trkpt lat="44.97409" lon="6.61446">
        <ele>2371</ele>
        <time>2023-07-02T12:54:35+0200</time>
      </trkpt>
      <trkpt lat="44.97406" lon="6.61435">
        <ele>2371.4</ele>
        <time>2023-07-02T12:54:37+0200</time>
      </trkpt>
      <trkpt lat="44.97404" lon="6.61425">
        <ele>2371.8</ele>
        <time>2023-07-02T12:54:39+0200</time>
      </trkpt>
      <trkpt lat="44.97401" lon="6.61418">
        <ele>2371.7</ele>
        <time>2023-07-02T12:54:41+0200</time>
      </trkpt>
      <trkpt lat="44.97398" lon="6.61413">
        <ele>2371.4</ele>
        <time>2023-07-02T12:54:42+0200</time>
      </trkpt>
      <trkpt lat="44.97394" lon="6.61404">
        <ele>2371</ele>
        <time>2023-07-02T12:54:44+0200</time>
      </trkpt>
      <trkpt lat="44.97391" lon="6.61395">
        <ele>2371</ele>
        <time>2023-07-02T12:54:46+0200</time>
      </trkpt>
      <trkpt lat="44.97389" lon="6.61384">
        <ele>2371.5</ele>
        <time>2023-07-02T12:54:48+0200</time>
      </trkpt>
      <trkpt lat="44.97389" lon="6.61377">
        <ele>2371.8</ele>
        <time>2023-07-02T12:54:50+0200</time>
      </trkpt>
      <trkpt lat="44.97388" lon="6.61366">
        <ele>2371.9</ele>
        <time>2023-07-02T12:54:52+0200</time>
      </trkpt>
      <trkpt lat="44.97385" lon="6.61356">
        <ele>2369.7</ele>
        <time>2023-07-02T12:54:54+0200</time>
      </trkpt>
      <trkpt lat="44.97386" lon="6.61347">
        <ele>2369.8</ele>
        <time>2023-07-02T12:54:56+0200</time>
      </trkpt>
      <trkpt lat="44.9739" lon="6.61341">
        <ele>2371.1</ele>
        <time>2023-07-02T12:54:57+0200</time>
      </trkpt>
      <trkpt lat="44.97393" lon="6.61332">
        <ele>2372</ele>
        <time>2023-07-02T12:54:59+0200</time>
      </trkpt>
      <trkpt lat="44.97395" lon="6.61322">
        <ele>2371.9</ele>
        <time>2023-07-02T12:55:01+0200</time>
      </trkpt>
      <trkpt lat="44.97398" lon="6.61314">
        <ele>2372.4</ele>
        <time>2023-07-02T12:55:03+0200</time>
      </trkpt>
      <trkpt lat="44.97403" lon="6.61306">
        <ele>2374.4</ele>
        <time>2023-07-02T12:55:05+0200</time>
      </trkpt>
      <trkpt lat="44.97405" lon="6.61295">
        <ele>2374</ele>
        <time>2023-07-02T12:55:07+0200</time>
      </trkpt>
      <trkpt lat="44.97408" lon="6.61286">
        <ele>2373.9</ele>
        <time>2023-07-02T12:55:09+0200</time>
      </trkpt>
      <trkpt lat="44.9741" lon="6.61275">
        <ele>2373.6</ele>
        <time>2023-07-02T12:55:11+0200</time>
      </trkpt>
      <trkpt lat="44.97413" lon="6.61266">
        <ele>2374.1</ele>
        <time>2023-07-02T12:55:13+0200</time>
      </trkpt>
      <trkpt lat="44.97416" lon="6.61255">
        <ele>2374.5</ele>
        <time>2023-07-02T12:55:15+0200</time>
      </trkpt>
      <trkpt lat="44.97419" lon="6.61245">
        <ele>2374.3</ele>
        <time>2023-07-02T12:55:17+0200</time>
      </trkpt>
      <trkpt lat="44.97424" lon="6.61243">
        <ele>2375.5</ele>
        <time>2023-07-02T12:55:18+0200</time>
      </trkpt>
      <trkpt lat="44.97424" lon="6.61236">
        <ele>2375.2</ele>
        <time>2023-07-02T12:55:19+0200</time>
      </trkpt>
      <trkpt lat="44.97425" lon="6.61227">
        <ele>2374.8</ele>
        <time>2023-07-02T12:55:21+0200</time>
      </trkpt>
      <trkpt lat="44.97427" lon="6.61218">
        <ele>2374.5</ele>
        <time>2023-07-02T12:55:23+0200</time>
      </trkpt>
      <trkpt lat="44.9743" lon="6.61208">
        <ele>2374.4</ele>
        <time>2023-07-02T12:55:25+0200</time>
      </trkpt>
      <trkpt lat="44.97435" lon="6.61201">
        <ele>2375</ele>
        <time>2023-07-02T12:55:27+0200</time>
      </trkpt>
      <trkpt lat="44.97438" lon="6.61193">
        <ele>2375.1</ele>
        <time>2023-07-02T12:55:29+0200</time>
      </trkpt>
      <trkpt lat="44.97441" lon="6.61183">
        <ele>2375.3</ele>
        <time>2023-07-02T12:55:31+0200</time>
      </trkpt>
      <trkpt lat="44.97444" lon="6.61175">
        <ele>2375.4</ele>
        <time>2023-07-02T12:55:33+0200</time>
      </trkpt>
      <trkpt lat="44.97444" lon="6.61161">
        <ele>2375</ele>
        <time>2023-07-02T12:55:35+0200</time>
      </trkpt>
      <trkpt lat="44.97444" lon="6.61153">
        <ele>2375</ele>
        <time>2023-07-02T12:55:37+0200</time>
      </trkpt>
      <trkpt lat="44.97443" lon="6.61143">
        <ele>2374.7</ele>
        <time>2023-07-02T12:55:39+0200</time>
      </trkpt>
      <trkpt lat="44.97443" lon="6.61131">
        <ele>2375.5</ele>
        <time>2023-07-02T12:55:41+0200</time>
      </trkpt>
      <trkpt lat="44.97443" lon="6.61121">
        <ele>2376.3</ele>
        <time>2023-07-02T12:55:43+0200</time>
      </trkpt>
      <trkpt lat="44.9744" lon="6.61111">
        <ele>2376.5</ele>
        <time>2023-07-02T12:55:45+0200</time>
      </trkpt>
      <trkpt lat="44.97438" lon="6.61102">
        <ele>2377</ele>
        <time>2023-07-02T12:55:47+0200</time>
      </trkpt>
      <trkpt lat="44.97435" lon="6.61092">
        <ele>2377.4</ele>
        <time>2023-07-02T12:55:49+0200</time>
      </trkpt>
      <trkpt lat="44.97433" lon="6.61083">
        <ele>2377.9</ele>
        <time>2023-07-02T12:55:51+0200</time>
      </trkpt>
      <trkpt lat="44.97427" lon="6.61075">
        <ele>2378.7</ele>
        <time>2023-07-02T12:55:53+0200</time>
      </trkpt>
      <trkpt lat="44.97422" lon="6.61069">
        <ele>2379.3</ele>
        <time>2023-07-02T12:55:55+0200</time>
      </trkpt>
      <trkpt lat="44.97417" lon="6.61061">
        <ele>2380.8</ele>
        <time>2023-07-02T12:55:57+0200</time>
      </trkpt>
      <trkpt lat="44.97412" lon="6.61055">
        <ele>2381.3</ele>
        <time>2023-07-02T12:55:59+0200</time>
      </trkpt>
      <trkpt lat="44.97404" lon="6.61052">
        <ele>2380.2</ele>
        <time>2023-07-02T12:56:01+0200</time>
      </trkpt>
      <trkpt lat="44.974" lon="6.61048">
        <ele>2380.6</ele>
        <time>2023-07-02T12:56:03+0200</time>
      </trkpt>
      <trkpt lat="44.97395" lon="6.61044">
        <ele>2380.7</ele>
        <time>2023-07-02T12:56:04+0200</time>
      </trkpt>
      <trkpt lat="44.97389" lon="6.61037">
        <ele>2382.1</ele>
        <time>2023-07-02T12:56:06+0200</time>
      </trkpt>
      <trkpt lat="44.97384" lon="6.61034">
        <ele>2381.8</ele>
        <time>2023-07-02T12:56:08+0200</time>
      </trkpt>
      <trkpt lat="44.97377" lon="6.61029">
        <ele>2381.6</ele>
        <time>2023-07-02T12:56:10+0200</time>
      </trkpt>
      <trkpt lat="44.97373" lon="6.61026">
        <ele>2381.8</ele>
        <time>2023-07-02T12:56:11+0200</time>
      </trkpt>
      <trkpt lat="44.97367" lon="6.61021">
        <ele>2382.3</ele>
        <time>2023-07-02T12:56:13+0200</time>
      </trkpt>
      <trkpt lat="44.9736" lon="6.61017">
        <ele>2381.5</ele>
        <time>2023-07-02T12:56:15+0200</time>
      </trkpt>
      <trkpt lat="44.97353" lon="6.61014">
        <ele>2381.2</ele>
        <time>2023-07-02T12:56:17+0200</time>
      </trkpt>
      <trkpt lat="44.97347" lon="6.6101">
        <ele>2381.7</ele>
        <time>2023-07-02T12:56:19+0200</time>
      </trkpt>
      <trkpt lat="44.97342" lon="6.61006">
        <ele>2382.5</ele>
        <time>2023-07-02T12:56:21+0200</time>
      </trkpt>
      <trkpt lat="44.97334" lon="6.61004">
        <ele>2381.1</ele>
        <time>2023-07-02T12:56:23+0200</time>
      </trkpt>
      <trkpt lat="44.9733" lon="6.61003">
        <ele>2381.1</ele>
        <time>2023-07-02T12:56:24+0200</time>
      </trkpt>
      <trkpt lat="44.97322" lon="6.61">
        <ele>2381.6</ele>
        <time>2023-07-02T12:56:26+0200</time>
      </trkpt>
      <trkpt lat="44.97314" lon="6.61">
        <ele>2380.8</ele>
        <time>2023-07-02T12:56:28+0200</time>
      </trkpt>
      <trkpt lat="44.97307" lon="6.61001">
        <ele>2379.7</ele>
        <time>2023-07-02T12:56:30+0200</time>
      </trkpt>
      <trkpt lat="44.97301" lon="6.61002">
        <ele>2378.5</ele>
        <time>2023-07-02T12:56:31+0200</time>
      </trkpt>
      <trkpt lat="44.97297" lon="6.61001">
        <ele>2378.4</ele>
        <time>2023-07-02T12:56:32+0200</time>
      </trkpt>
      <trkpt lat="44.97291" lon="6.60999">
        <ele>2378.3</ele>
        <time>2023-07-02T12:56:34+0200</time>
      </trkpt>
      <trkpt lat="44.97288" lon="6.60993">
        <ele>2379.5</ele>
        <time>2023-07-02T12:56:36+0200</time>
      </trkpt>
      <trkpt lat="44.97284" lon="6.60986">
        <ele>2380.5</ele>
        <time>2023-07-02T12:56:38+0200</time>
      </trkpt>
      <trkpt lat="44.9728" lon="6.60978">
        <ele>2381.5</ele>
        <time>2023-07-02T12:56:40+0200</time>
      </trkpt>
      <trkpt lat="44.97277" lon="6.60971">
        <ele>2382.2</ele>
        <time>2023-07-02T12:56:42+0200</time>
      </trkpt>
      <trkpt lat="44.97275" lon="6.60965">
        <ele>2383.1</ele>
        <time>2023-07-02T12:56:44+0200</time>
      </trkpt>
      <trkpt lat="44.9727" lon="6.60963">
        <ele>2382.7</ele>
        <time>2023-07-02T12:56:45+0200</time>
      </trkpt>
      <trkpt lat="44.97263" lon="6.60958">
        <ele>2382.8</ele>
        <time>2023-07-02T12:56:47+0200</time>
      </trkpt>
      <trkpt lat="44.97257" lon="6.60952">
        <ele>2383.1</ele>
        <time>2023-07-02T12:56:49+0200</time>
      </trkpt>
      <trkpt lat="44.9725" lon="6.60949">
        <ele>2382.8</ele>
        <time>2023-07-02T12:56:51+0200</time>
      </trkpt>
      <trkpt lat="44.97243" lon="6.60946">
        <ele>2383</ele>
        <time>2023-07-02T12:56:53+0200</time>
      </trkpt>
      <trkpt lat="44.97235" lon="6.60945">
        <ele>2382.9</ele>
        <time>2023-07-02T12:56:55+0200</time>
      </trkpt>
      <trkpt lat="44.97226" lon="6.60945">
        <ele>2382.2</ele>
        <time>2023-07-02T12:56:57+0200</time>
      </trkpt>
      <trkpt lat="44.97218" lon="6.60946">
        <ele>2381.9</ele>
        <time>2023-07-02T12:56:59+0200</time>
      </trkpt>
      <trkpt lat="44.9721" lon="6.60944">
        <ele>2383.1</ele>
        <time>2023-07-02T12:57:01+0200</time>
      </trkpt>
      <trkpt lat="44.97205" lon="6.60945">
        <ele>2383</ele>
        <time>2023-07-02T12:57:02+0200</time>
      </trkpt>
      <trkpt lat="44.97198" lon="6.60945">
        <ele>2383.5</ele>
        <time>2023-07-02T12:57:04+0200</time>
      </trkpt>
      <trkpt lat="44.97189" lon="6.60946">
        <ele>2383.9</ele>
        <time>2023-07-02T12:57:06+0200</time>
      </trkpt>
      <trkpt lat="44.97184" lon="6.60948">
        <ele>2383.3</ele>
        <time>2023-07-02T12:57:07+0200</time>
      </trkpt>
      <trkpt lat="44.97175" lon="6.60951">
        <ele>2382.8</ele>
        <time>2023-07-02T12:57:09+0200</time>
      </trkpt>
      <trkpt lat="44.97168" lon="6.60952">
        <ele>2383.2</ele>
        <time>2023-07-02T12:57:11+0200</time>
      </trkpt>
      <trkpt lat="44.97163" lon="6.60953">
        <ele>2383.3</ele>
        <time>2023-07-02T12:57:12+0200</time>
      </trkpt>
      <trkpt lat="44.97159" lon="6.60954">
        <ele>2383.1</ele>
        <time>2023-07-02T12:57:13+0200</time>
      </trkpt>
      <trkpt lat="44.97152" lon="6.60956">
        <ele>2382.9</ele>
        <time>2023-07-02T12:57:15+0200</time>
      </trkpt>
      <trkpt lat="44.97147" lon="6.60958">
        <ele>2382.6</ele>
        <time>2023-07-02T12:57:16+0200</time>
      </trkpt>
      <trkpt lat="44.97142" lon="6.60959">
        <ele>2383</ele>
        <time>2023-07-02T12:57:17+0200</time>
      </trkpt>
      <trkpt lat="44.97137" lon="6.6096">
        <ele>2383</ele>
        <time>2023-07-02T12:57:18+0200</time>
      </trkpt>
      <trkpt lat="44.9713" lon="6.60961">
        <ele>2383.5</ele>
        <time>2023-07-02T12:57:20+0200</time>
      </trkpt>
      <trkpt lat="44.97124" lon="6.60962">
        <ele>2384</ele>
        <time>2023-07-02T12:57:22+0200</time>
      </trkpt>
      <trkpt lat="44.97115" lon="6.60965">
        <ele>2383.6</ele>
        <time>2023-07-02T12:57:24+0200</time>
      </trkpt>
      <trkpt lat="44.97107" lon="6.60972">
        <ele>2380.9</ele>
        <time>2023-07-02T12:57:26+0200</time>
      </trkpt>
      <trkpt lat="44.97099" lon="6.60975">
        <ele>2380.8</ele>
        <time>2023-07-02T12:57:28+0200</time>
      </trkpt>
      <trkpt lat="44.97094" lon="6.60975">
        <ele>2381.6</ele>
        <time>2023-07-02T12:57:29+0200</time>
      </trkpt>
      <trkpt lat="44.97089" lon="6.60977">
        <ele>2381.2</ele>
        <time>2023-07-02T12:57:30+0200</time>
      </trkpt>
      <trkpt lat="44.97085" lon="6.60979">
        <ele>2380.9</ele>
        <time>2023-07-02T12:57:31+0200</time>
      </trkpt>
      <trkpt lat="44.97077" lon="6.60982">
        <ele>2379.7</ele>
        <time>2023-07-02T12:57:33+0200</time>
      </trkpt>
      <trkpt lat="44.97072" lon="6.60981">
        <ele>2380.6</ele>
        <time>2023-07-02T12:57:34+0200</time>
      </trkpt>
      <trkpt lat="44.97065" lon="6.60978">
        <ele>2382.8</ele>
        <time>2023-07-02T12:57:36+0200</time>
      </trkpt>
      <trkpt lat="44.97059" lon="6.60977">
        <ele>2383.3</ele>
        <time>2023-07-02T12:57:37+0200</time>
      </trkpt>
      <trkpt lat="44.97051" lon="6.60974">
        <ele>2384.3</ele>
        <time>2023-07-02T12:57:39+0200</time>
      </trkpt>
      <trkpt lat="44.97043" lon="6.6097">
        <ele>2384.5</ele>
        <time>2023-07-02T12:57:41+0200</time>
      </trkpt>
      <trkpt lat="44.97036" lon="6.60964">
        <ele>2384.8</ele>
        <time>2023-07-02T12:57:43+0200</time>
      </trkpt>
      <trkpt lat="44.97031" lon="6.60957">
        <ele>2385.6</ele>
        <time>2023-07-02T12:57:45+0200</time>
      </trkpt>
      <trkpt lat="44.97028" lon="6.60952">
        <ele>2385.9</ele>
        <time>2023-07-02T12:57:46+0200</time>
      </trkpt>
      <trkpt lat="44.97021" lon="6.60948">
        <ele>2385.8</ele>
        <time>2023-07-02T12:57:48+0200</time>
      </trkpt>
      <trkpt lat="44.97018" lon="6.60936">
        <ele>2386.8</ele>
        <time>2023-07-02T12:57:50+0200</time>
      </trkpt>
      <trkpt lat="44.97015" lon="6.60926">
        <ele>2387.2</ele>
        <time>2023-07-02T12:57:52+0200</time>
      </trkpt>
      <trkpt lat="44.97014" lon="6.60915">
        <ele>2388</ele>
        <time>2023-07-02T12:57:54+0200</time>
      </trkpt>
      <trkpt lat="44.97012" lon="6.60904">
        <ele>2387.5</ele>
        <time>2023-07-02T12:57:56+0200</time>
      </trkpt>
      <trkpt lat="44.9701" lon="6.60893">
        <ele>2387.2</ele>
        <time>2023-07-02T12:57:58+0200</time>
      </trkpt>
      <trkpt lat="44.97011" lon="6.60883">
        <ele>2387.3</ele>
        <time>2023-07-02T12:58:00+0200</time>
      </trkpt>
      <trkpt lat="44.97008" lon="6.60874">
        <ele>2386.9</ele>
        <time>2023-07-02T12:58:02+0200</time>
      </trkpt>
      <trkpt lat="44.97007" lon="6.60863">
        <ele>2386.9</ele>
        <time>2023-07-02T12:58:04+0200</time>
      </trkpt>
      <trkpt lat="44.97003" lon="6.60853">
        <ele>2386.9</ele>
        <time>2023-07-02T12:58:06+0200</time>
      </trkpt>
      <trkpt lat="44.96998" lon="6.60845">
        <ele>2386.9</ele>
        <time>2023-07-02T12:58:08+0200</time>
      </trkpt>
      <trkpt lat="44.96991" lon="6.60836">
        <ele>2386.8</ele>
        <time>2023-07-02T12:58:10+0200</time>
      </trkpt>
      <trkpt lat="44.96986" lon="6.60828">
        <ele>2387</ele>
        <time>2023-07-02T12:58:12+0200</time>
      </trkpt>
      <trkpt lat="44.9698" lon="6.6082">
        <ele>2387.1</ele>
        <time>2023-07-02T12:58:14+0200</time>
      </trkpt>
      <trkpt lat="44.96977" lon="6.60816">
        <ele>2387.3</ele>
        <time>2023-07-02T12:58:15+0200</time>
      </trkpt>
      <trkpt lat="44.96971" lon="6.60809">
        <ele>2387.6</ele>
        <time>2023-07-02T12:58:17+0200</time>
      </trkpt>
      <trkpt lat="44.96965" lon="6.60802">
        <ele>2388.1</ele>
        <time>2023-07-02T12:58:19+0200</time>
      </trkpt>
      <trkpt lat="44.96958" lon="6.60797">
        <ele>2388.4</ele>
        <time>2023-07-02T12:58:21+0200</time>
      </trkpt>
      <trkpt lat="44.96951" lon="6.60792">
        <ele>2388.7</ele>
        <time>2023-07-02T12:58:23+0200</time>
      </trkpt>
      <trkpt lat="44.96946" lon="6.60788">
        <ele>2389</ele>
        <time>2023-07-02T12:58:25+0200</time>
      </trkpt>
      <trkpt lat="44.96938" lon="6.60784">
        <ele>2389.1</ele>
        <time>2023-07-02T12:58:27+0200</time>
      </trkpt>
      <trkpt lat="44.96929" lon="6.6078">
        <ele>2389.1</ele>
        <time>2023-07-02T12:58:29+0200</time>
      </trkpt>
      <trkpt lat="44.96925" lon="6.60779">
        <ele>2389.2</ele>
        <time>2023-07-02T12:58:30+0200</time>
      </trkpt>
      <trkpt lat="44.96917" lon="6.60772">
        <ele>2389.8</ele>
        <time>2023-07-02T12:58:32+0200</time>
      </trkpt>
      <trkpt lat="44.96913" lon="6.60772">
        <ele>2389.7</ele>
        <time>2023-07-02T12:58:33+0200</time>
      </trkpt>
      <trkpt lat="44.96908" lon="6.60771">
        <ele>2389.6</ele>
        <time>2023-07-02T12:58:34+0200</time>
      </trkpt>
      <trkpt lat="44.96903" lon="6.60771">
        <ele>2389.5</ele>
        <time>2023-07-02T12:58:35+0200</time>
      </trkpt>
      <trkpt lat="44.96896" lon="6.60768">
        <ele>2389.6</ele>
        <time>2023-07-02T12:58:37+0200</time>
      </trkpt>
      <trkpt lat="44.96889" lon="6.60766">
        <ele>2389.7</ele>
        <time>2023-07-02T12:58:39+0200</time>
      </trkpt>
      <trkpt lat="44.96884" lon="6.60765">
        <ele>2389.8</ele>
        <time>2023-07-02T12:58:40+0200</time>
      </trkpt>
      <trkpt lat="44.96876" lon="6.60761">
        <ele>2390.4</ele>
        <time>2023-07-02T12:58:42+0200</time>
      </trkpt>
      <trkpt lat="44.96868" lon="6.60761">
        <ele>2390.4</ele>
        <time>2023-07-02T12:58:44+0200</time>
      </trkpt>
      <trkpt lat="44.9686" lon="6.6076">
        <ele>2390.5</ele>
        <time>2023-07-02T12:58:46+0200</time>
      </trkpt>
      <trkpt lat="44.96852" lon="6.60758">
        <ele>2390.5</ele>
        <time>2023-07-02T12:58:48+0200</time>
      </trkpt>
      <trkpt lat="44.96848" lon="6.60759">
        <ele>2390.2</ele>
        <time>2023-07-02T12:58:49+0200</time>
      </trkpt>
      <trkpt lat="44.96839" lon="6.6076">
        <ele>2389.8</ele>
        <time>2023-07-02T12:58:51+0200</time>
      </trkpt>
      <trkpt lat="44.96835" lon="6.60761">
        <ele>2389.5</ele>
        <time>2023-07-02T12:58:52+0200</time>
      </trkpt>
      <trkpt lat="44.96827" lon="6.60757">
        <ele>2389.9</ele>
        <time>2023-07-02T12:58:54+0200</time>
      </trkpt>
      <trkpt lat="44.96819" lon="6.60754">
        <ele>2390.3</ele>
        <time>2023-07-02T12:58:56+0200</time>
      </trkpt>
      <trkpt lat="44.96814" lon="6.60753">
        <ele>2390.5</ele>
        <time>2023-07-02T12:58:57+0200</time>
      </trkpt>
      <trkpt lat="44.96805" lon="6.60754">
        <ele>2390.4</ele>
        <time>2023-07-02T12:58:59+0200</time>
      </trkpt>
      <trkpt lat="44.96797" lon="6.60754">
        <ele>2391.2</ele>
        <time>2023-07-02T12:59:01+0200</time>
      </trkpt>
      <trkpt lat="44.96788" lon="6.60755">
        <ele>2391.9</ele>
        <time>2023-07-02T12:59:03+0200</time>
      </trkpt>
      <trkpt lat="44.96781" lon="6.60756">
        <ele>2392.4</ele>
        <time>2023-07-02T12:59:05+0200</time>
      </trkpt>
      <trkpt lat="44.96776" lon="6.60758">
        <ele>2392.6</ele>
        <time>2023-07-02T12:59:06+0200</time>
      </trkpt>
      <trkpt lat="44.96769" lon="6.60762">
        <ele>2393.2</ele>
        <time>2023-07-02T12:59:08+0200</time>
      </trkpt>
      <trkpt lat="44.96763" lon="6.60768">
        <ele>2393.4</ele>
        <time>2023-07-02T12:59:10+0200</time>
      </trkpt>
      <trkpt lat="44.96756" lon="6.60776">
        <ele>2393</ele>
        <time>2023-07-02T12:59:12+0200</time>
      </trkpt>
      <trkpt lat="44.96751" lon="6.60782">
        <ele>2393.1</ele>
        <time>2023-07-02T12:59:14+0200</time>
      </trkpt>
      <trkpt lat="44.96744" lon="6.6079">
        <ele>2393</ele>
        <time>2023-07-02T12:59:16+0200</time>
      </trkpt>
      <trkpt lat="44.96739" lon="6.60798">
        <ele>2392.8</ele>
        <time>2023-07-02T12:59:18+0200</time>
      </trkpt>
      <trkpt lat="44.96733" lon="6.60803">
        <ele>2393.2</ele>
        <time>2023-07-02T12:59:20+0200</time>
      </trkpt>
      <trkpt lat="44.96726" lon="6.60811">
        <ele>2393</ele>
        <time>2023-07-02T12:59:22+0200</time>
      </trkpt>
      <trkpt lat="44.9672" lon="6.60816">
        <ele>2393.3</ele>
        <time>2023-07-02T12:59:24+0200</time>
      </trkpt>
      <trkpt lat="44.96713" lon="6.60821">
        <ele>2394.3</ele>
        <time>2023-07-02T12:59:26+0200</time>
      </trkpt>
      <trkpt lat="44.96708" lon="6.60826">
        <ele>2395</ele>
        <time>2023-07-02T12:59:28+0200</time>
      </trkpt>
      <trkpt lat="44.96702" lon="6.60833">
        <ele>2395.1</ele>
        <time>2023-07-02T12:59:30+0200</time>
      </trkpt>
      <trkpt lat="44.96696" lon="6.60841">
        <ele>2395.4</ele>
        <time>2023-07-02T12:59:32+0200</time>
      </trkpt>
      <trkpt lat="44.96691" lon="6.6085">
        <ele>2396.1</ele>
        <time>2023-07-02T12:59:34+0200</time>
      </trkpt>
      <trkpt lat="44.96689" lon="6.60855">
        <ele>2396.3</ele>
        <time>2023-07-02T12:59:35+0200</time>
      </trkpt>
      <trkpt lat="44.96683" lon="6.60866">
        <ele>2396.7</ele>
        <time>2023-07-02T12:59:37+0200</time>
      </trkpt>
      <trkpt lat="44.96677" lon="6.60875">
        <ele>2396.9</ele>
        <time>2023-07-02T12:59:39+0200</time>
      </trkpt>
      <trkpt lat="44.96673" lon="6.60884">
        <ele>2396</ele>
        <time>2023-07-02T12:59:41+0200</time>
      </trkpt>
      <trkpt lat="44.96666" lon="6.60892">
        <ele>2395.8</ele>
        <time>2023-07-02T12:59:43+0200</time>
      </trkpt>
      <trkpt lat="44.96661" lon="6.60901">
        <ele>2396.2</ele>
        <time>2023-07-02T12:59:45+0200</time>
      </trkpt>
      <trkpt lat="44.96657" lon="6.60906">
        <ele>2396.5</ele>
        <time>2023-07-02T12:59:46+0200</time>
      </trkpt>
      <trkpt lat="44.9665" lon="6.60914">
        <ele>2396.9</ele>
        <time>2023-07-02T12:59:48+0200</time>
      </trkpt>
      <trkpt lat="44.96644" lon="6.60922">
        <ele>2397</ele>
        <time>2023-07-02T12:59:50+0200</time>
      </trkpt>
      <trkpt lat="44.96638" lon="6.60931">
        <ele>2396.7</ele>
        <time>2023-07-02T12:59:52+0200</time>
      </trkpt>
      <trkpt lat="44.96636" lon="6.60936">
        <ele>2396.5</ele>
        <time>2023-07-02T12:59:53+0200</time>
      </trkpt>
      <trkpt lat="44.9663" lon="6.60943">
        <ele>2396.5</ele>
        <time>2023-07-02T12:59:55+0200</time>
      </trkpt>
      <trkpt lat="44.96623" lon="6.60953">
        <ele>2396.6</ele>
        <time>2023-07-02T12:59:57+0200</time>
      </trkpt>
      <trkpt lat="44.96617" lon="6.6096">
        <ele>2396.9</ele>
        <time>2023-07-02T12:59:59+0200</time>
      </trkpt>
      <trkpt lat="44.96615" lon="6.60966">
        <ele>2396.5</ele>
        <time>2023-07-02T13:00:00+0200</time>
      </trkpt>
      <trkpt lat="44.96611" lon="6.6097">
        <ele>2396.5</ele>
        <time>2023-07-02T13:00:01+0200</time>
      </trkpt>
      <trkpt lat="44.96605" lon="6.60979">
        <ele>2396.9</ele>
        <time>2023-07-02T13:00:03+0200</time>
      </trkpt>
      <trkpt lat="44.96602" lon="6.60982">
        <ele>2397.4</ele>
        <time>2023-07-02T13:00:04+0200</time>
      </trkpt>
      <trkpt lat="44.96595" lon="6.60988">
        <ele>2398.4</ele>
        <time>2023-07-02T13:00:06+0200</time>
      </trkpt>
      <trkpt lat="44.96591" lon="6.60992">
        <ele>2398.7</ele>
        <time>2023-07-02T13:00:07+0200</time>
      </trkpt>
      <trkpt lat="44.96585" lon="6.61">
        <ele>2398.6</ele>
        <time>2023-07-02T13:00:09+0200</time>
      </trkpt>
      <trkpt lat="44.96579" lon="6.61006">
        <ele>2398.1</ele>
        <time>2023-07-02T13:00:11+0200</time>
      </trkpt>
      <trkpt lat="44.96575" lon="6.6101">
        <ele>2398</ele>
        <time>2023-07-02T13:00:12+0200</time>
      </trkpt>
      <trkpt lat="44.96567" lon="6.61014">
        <ele>2398</ele>
        <time>2023-07-02T13:00:14+0200</time>
      </trkpt>
      <trkpt lat="44.96562" lon="6.61014">
        <ele>2398.4</ele>
        <time>2023-07-02T13:00:15+0200</time>
      </trkpt>
      <trkpt lat="44.96554" lon="6.61017">
        <ele>2398.7</ele>
        <time>2023-07-02T13:00:17+0200</time>
      </trkpt>
      <trkpt lat="44.96546" lon="6.61019">
        <ele>2399.1</ele>
        <time>2023-07-02T13:00:19+0200</time>
      </trkpt>
      <trkpt lat="44.96537" lon="6.6102">
        <ele>2399.6</ele>
        <time>2023-07-02T13:00:21+0200</time>
      </trkpt>
      <trkpt lat="44.96532" lon="6.61019">
        <ele>2400.5</ele>
        <time>2023-07-02T13:00:22+0200</time>
      </trkpt>
      <trkpt lat="44.96524" lon="6.61023">
        <ele>2399.8</ele>
        <time>2023-07-02T13:00:24+0200</time>
      </trkpt>
      <trkpt lat="44.9652" lon="6.61025">
        <ele>2399.4</ele>
        <time>2023-07-02T13:00:25+0200</time>
      </trkpt>
      <trkpt lat="44.9651" lon="6.61026">
        <ele>2399.8</ele>
        <time>2023-07-02T13:00:27+0200</time>
      </trkpt>
      <trkpt lat="44.96504" lon="6.61029">
        <ele>2399.2</ele>
        <time>2023-07-02T13:00:29+0200</time>
      </trkpt>
      <trkpt lat="44.96498" lon="6.61027">
        <ele>2401</ele>
        <time>2023-07-02T13:00:31+0200</time>
      </trkpt>
      <trkpt lat="44.96493" lon="6.6103">
        <ele>2400.9</ele>
        <time>2023-07-02T13:00:32+0200</time>
      </trkpt>
      <trkpt lat="44.96484" lon="6.61034">
        <ele>2401.2</ele>
        <time>2023-07-02T13:00:34+0200</time>
      </trkpt>
      <trkpt lat="44.96476" lon="6.61036">
        <ele>2401.7</ele>
        <time>2023-07-02T13:00:36+0200</time>
      </trkpt>
      <trkpt lat="44.96471" lon="6.6104">
        <ele>2401.2</ele>
        <time>2023-07-02T13:00:37+0200</time>
      </trkpt>
      <trkpt lat="44.96467" lon="6.61042">
        <ele>2401.5</ele>
        <time>2023-07-02T13:00:38+0200</time>
      </trkpt>
      <trkpt lat="44.96463" lon="6.61045">
        <ele>2401.1</ele>
        <time>2023-07-02T13:00:39+0200</time>
      </trkpt>
      <trkpt lat="44.96459" lon="6.61048">
        <ele>2400.9</ele>
        <time>2023-07-02T13:00:40+0200</time>
      </trkpt>
      <trkpt lat="44.96452" lon="6.61051">
        <ele>2401.4</ele>
        <time>2023-07-02T13:00:42+0200</time>
      </trkpt>
      <trkpt lat="44.96446" lon="6.61058">
        <ele>2400.5</ele>
        <time>2023-07-02T13:00:44+0200</time>
      </trkpt>
      <trkpt lat="44.96439" lon="6.61065">
        <ele>2400.5</ele>
        <time>2023-07-02T13:00:46+0200</time>
      </trkpt>
      <trkpt lat="44.96431" lon="6.61069">
        <ele>2402.1</ele>
        <time>2023-07-02T13:00:48+0200</time>
      </trkpt>
      <trkpt lat="44.96425" lon="6.61076">
        <ele>2401.6</ele>
        <time>2023-07-02T13:00:50+0200</time>
      </trkpt>
      <trkpt lat="44.96418" lon="6.61083">
        <ele>2401.7</ele>
        <time>2023-07-02T13:00:52+0200</time>
      </trkpt>
      <trkpt lat="44.96411" lon="6.61089">
        <ele>2401.8</ele>
        <time>2023-07-02T13:00:54+0200</time>
      </trkpt>
      <trkpt lat="44.96405" lon="6.61097">
        <ele>2400.8</ele>
        <time>2023-07-02T13:00:56+0200</time>
      </trkpt>
      <trkpt lat="44.964" lon="6.61098">
        <ele>2401.4</ele>
        <time>2023-07-02T13:00:57+0200</time>
      </trkpt>
      <trkpt lat="44.96394" lon="6.61107">
        <ele>2400.1</ele>
        <time>2023-07-02T13:00:59+0200</time>
      </trkpt>
      <trkpt lat="44.96387" lon="6.61112">
        <ele>2400.1</ele>
        <time>2023-07-02T13:01:01+0200</time>
      </trkpt>
      <trkpt lat="44.96379" lon="6.61114">
        <ele>2400.5</ele>
        <time>2023-07-02T13:01:03+0200</time>
      </trkpt>
      <trkpt lat="44.96371" lon="6.61116">
        <ele>2401.3</ele>
        <time>2023-07-02T13:01:05+0200</time>
      </trkpt>
      <trkpt lat="44.96364" lon="6.61115">
        <ele>2402.7</ele>
        <time>2023-07-02T13:01:07+0200</time>
      </trkpt>
      <trkpt lat="44.96357" lon="6.61117">
        <ele>2402.8</ele>
        <time>2023-07-02T13:01:09+0200</time>
      </trkpt>
      <trkpt lat="44.9635" lon="6.61117">
        <ele>2402.9</ele>
        <time>2023-07-02T13:01:11+0200</time>
      </trkpt>
      <trkpt lat="44.96344" lon="6.61116">
        <ele>2403.3</ele>
        <time>2023-07-02T13:01:13+0200</time>
      </trkpt>
      <trkpt lat="44.96338" lon="6.61116">
        <ele>2403.5</ele>
        <time>2023-07-02T13:01:15+0200</time>
      </trkpt>
      <trkpt lat="44.96334" lon="6.61119">
        <ele>2403.4</ele>
        <time>2023-07-02T13:01:16+0200</time>
      </trkpt>
      <trkpt lat="44.96328" lon="6.61116">
        <ele>2403.7</ele>
        <time>2023-07-02T13:01:18+0200</time>
      </trkpt>
      <trkpt lat="44.96324" lon="6.61113">
        <ele>2403.9</ele>
        <time>2023-07-02T13:01:20+0200</time>
      </trkpt>
      <trkpt lat="44.96318" lon="6.61108">
        <ele>2404.3</ele>
        <time>2023-07-02T13:01:22+0200</time>
      </trkpt>
      <trkpt lat="44.96313" lon="6.61104">
        <ele>2404.6</ele>
        <time>2023-07-02T13:01:24+0200</time>
      </trkpt>
      <trkpt lat="44.96307" lon="6.61102">
        <ele>2404.7</ele>
        <time>2023-07-02T13:01:26+0200</time>
      </trkpt>
      <trkpt lat="44.963" lon="6.61098">
        <ele>2404.9</ele>
        <time>2023-07-02T13:01:28+0200</time>
      </trkpt>
      <trkpt lat="44.96293" lon="6.61094">
        <ele>2405.1</ele>
        <time>2023-07-02T13:01:30+0200</time>
      </trkpt>
      <trkpt lat="44.96288" lon="6.6109">
        <ele>2405.2</ele>
        <time>2023-07-02T13:01:32+0200</time>
      </trkpt>
      <trkpt lat="44.96282" lon="6.61086">
        <ele>2405.1</ele>
        <time>2023-07-02T13:01:34+0200</time>
      </trkpt>
      <trkpt lat="44.96276" lon="6.61083">
        <ele>2405</ele>
        <time>2023-07-02T13:01:36+0200</time>
      </trkpt>
      <trkpt lat="44.9627" lon="6.61081">
        <ele>2404.8</ele>
        <time>2023-07-02T13:01:38+0200</time>
      </trkpt>
      <trkpt lat="44.96265" lon="6.61079">
        <ele>2404.5</ele>
        <time>2023-07-02T13:01:40+0200</time>
      </trkpt>
      <trkpt lat="44.96258" lon="6.61077">
        <ele>2404.2</ele>
        <time>2023-07-02T13:01:42+0200</time>
      </trkpt>
      <trkpt lat="44.9625" lon="6.61075">
        <ele>2403.7</ele>
        <time>2023-07-02T13:01:44+0200</time>
      </trkpt>
      <trkpt lat="44.96245" lon="6.61075">
        <ele>2403.8</ele>
        <time>2023-07-02T13:01:45+0200</time>
      </trkpt>
      <trkpt lat="44.9624" lon="6.61074">
        <ele>2403.9</ele>
        <time>2023-07-02T13:01:46+0200</time>
      </trkpt>
      <trkpt lat="44.96233" lon="6.61072">
        <ele>2403.8</ele>
        <time>2023-07-02T13:01:48+0200</time>
      </trkpt>
      <trkpt lat="44.96227" lon="6.61068">
        <ele>2403.3</ele>
        <time>2023-07-02T13:01:50+0200</time>
      </trkpt>
      <trkpt lat="44.96222" lon="6.61066">
        <ele>2403</ele>
        <time>2023-07-02T13:01:52+0200</time>
      </trkpt>
      <trkpt lat="44.96217" lon="6.6107">
        <ele>2403.8</ele>
        <time>2023-07-02T13:01:54+0200</time>
      </trkpt>
      <trkpt lat="44.96212" lon="6.6107">
        <ele>2404</ele>
        <time>2023-07-02T13:01:56+0200</time>
      </trkpt>
      <trkpt lat="44.96207" lon="6.61067">
        <ele>2403.6</ele>
        <time>2023-07-02T13:01:58+0200</time>
      </trkpt>
      <trkpt lat="44.96201" lon="6.61068">
        <ele>2403.9</ele>
        <time>2023-07-02T13:02:00+0200</time>
      </trkpt>
      <trkpt lat="44.96195" lon="6.61066">
        <ele>2403.6</ele>
        <time>2023-07-02T13:02:02+0200</time>
      </trkpt>
      <trkpt lat="44.96188" lon="6.61066">
        <ele>2403.7</ele>
        <time>2023-07-02T13:02:04+0200</time>
      </trkpt>
      <trkpt lat="44.9618" lon="6.61062">
        <ele>2403.1</ele>
        <time>2023-07-02T13:02:06+0200</time>
      </trkpt>
      <trkpt lat="44.96171" lon="6.61061">
        <ele>2403.1</ele>
        <time>2023-07-02T13:02:08+0200</time>
      </trkpt>
      <trkpt lat="44.96167" lon="6.61059">
        <ele>2402.8</ele>
        <time>2023-07-02T13:02:09+0200</time>
      </trkpt>
      <trkpt lat="44.96162" lon="6.6106">
        <ele>2402.8</ele>
        <time>2023-07-02T13:02:10+0200</time>
      </trkpt>
      <trkpt lat="44.96156" lon="6.61064">
        <ele>2403.1</ele>
        <time>2023-07-02T13:02:11+0200</time>
      </trkpt>
      <trkpt lat="44.96148" lon="6.61066">
        <ele>2403</ele>
        <time>2023-07-02T13:02:13+0200</time>
      </trkpt>
      <trkpt lat="44.9614" lon="6.61069">
        <ele>2403</ele>
        <time>2023-07-02T13:02:15+0200</time>
      </trkpt>
      <trkpt lat="44.96133" lon="6.61073">
        <ele>2402.7</ele>
        <time>2023-07-02T13:02:17+0200</time>
      </trkpt>
      <trkpt lat="44.9613" lon="6.61079">
        <ele>2403.1</ele>
        <time>2023-07-02T13:02:18+0200</time>
      </trkpt>
      <trkpt lat="44.96128" lon="6.61091">
        <ele>2403.7</ele>
        <time>2023-07-02T13:02:20+0200</time>
      </trkpt>
      <trkpt lat="44.96126" lon="6.61101">
        <ele>2403.8</ele>
        <time>2023-07-02T13:02:22+0200</time>
      </trkpt>
      <trkpt lat="44.96125" lon="6.6111">
        <ele>2403.9</ele>
        <time>2023-07-02T13:02:24+0200</time>
      </trkpt>
      <trkpt lat="44.96125" lon="6.61119">
        <ele>2404.5</ele>
        <time>2023-07-02T13:02:26+0200</time>
      </trkpt>
      <trkpt lat="44.96123" lon="6.61128">
        <ele>2404.9</ele>
        <time>2023-07-02T13:02:29+0200</time>
      </trkpt>
      <trkpt lat="44.96123" lon="6.61135">
        <ele>2405.5</ele>
        <time>2023-07-02T13:02:31+0200</time>
      </trkpt>
      <trkpt lat="44.96124" lon="6.61143">
        <ele>2406</ele>
        <time>2023-07-02T13:02:33+0200</time>
      </trkpt>
      <trkpt lat="44.96123" lon="6.61153">
        <ele>2406.3</ele>
        <time>2023-07-02T13:02:36+0200</time>
      </trkpt>
      <trkpt lat="44.96123" lon="6.6116">
        <ele>2406.5</ele>
        <time>2023-07-02T13:02:38+0200</time>
      </trkpt>
      <trkpt lat="44.96123" lon="6.61169">
        <ele>2406.8</ele>
        <time>2023-07-02T13:02:40+0200</time>
      </trkpt>
      <trkpt lat="44.96123" lon="6.61179">
        <ele>2407</ele>
        <time>2023-07-02T13:02:42+0200</time>
      </trkpt>
      <trkpt lat="44.96122" lon="6.61189">
        <ele>2407.2</ele>
        <time>2023-07-02T13:02:44+0200</time>
      </trkpt>
      <trkpt lat="44.96122" lon="6.61198">
        <ele>2407.1</ele>
        <time>2023-07-02T13:02:46+0200</time>
      </trkpt>
      <trkpt lat="44.96122" lon="6.61207">
        <ele>2406.8</ele>
        <time>2023-07-02T13:02:48+0200</time>
      </trkpt>
      <trkpt lat="44.96122" lon="6.61214">
        <ele>2406.7</ele>
        <time>2023-07-02T13:02:50+0200</time>
      </trkpt>
      <trkpt lat="44.96122" lon="6.61223">
        <ele>2406.2</ele>
        <time>2023-07-02T13:02:53+0200</time>
      </trkpt>
      <trkpt lat="44.96121" lon="6.61236">
        <ele>2404.8</ele>
        <time>2023-07-02T13:02:55+0200</time>
      </trkpt>
      <trkpt lat="44.96118" lon="6.61243">
        <ele>2403.5</ele>
        <time>2023-07-02T13:02:56+0200</time>
      </trkpt>
      <trkpt lat="44.96116" lon="6.61254">
        <ele>2402.6</ele>
        <time>2023-07-02T13:02:57+0200</time>
      </trkpt>
      <trkpt lat="44.96116" lon="6.61264">
        <ele>2402.3</ele>
        <time>2023-07-02T13:02:58+0200</time>
      </trkpt>
      <trkpt lat="44.96112" lon="6.61273">
        <ele>2402</ele>
        <time>2023-07-02T13:02:59+0200</time>
      </trkpt>
      <trkpt lat="44.9611" lon="6.61279">
        <ele>2401.9</ele>
        <time>2023-07-02T13:03:00+0200</time>
      </trkpt>
      <trkpt lat="44.96107" lon="6.61285">
        <ele>2401.8</ele>
        <time>2023-07-02T13:03:02+0200</time>
      </trkpt>
      <trkpt lat="44.96103" lon="6.61291">
        <ele>2402</ele>
        <time>2023-07-02T13:03:06+0200</time>
      </trkpt>
      <trkpt lat="44.96099" lon="6.61299">
        <ele>2402.5</ele>
        <time>2023-07-02T13:03:08+0200</time>
      </trkpt>
      <trkpt lat="44.96095" lon="6.61304">
        <ele>2403</ele>
        <time>2023-07-02T13:03:09+0200</time>
      </trkpt>
      <trkpt lat="44.96095" lon="6.61315">
        <ele>2403.5</ele>
        <time>2023-07-02T13:03:11+0200</time>
      </trkpt>
      <trkpt lat="44.96096" lon="6.61322">
        <ele>2403.7</ele>
        <time>2023-07-02T13:03:13+0200</time>
      </trkpt>
      <trkpt lat="44.96093" lon="6.61329">
        <ele>2404.2</ele>
        <time>2023-07-02T13:03:16+0200</time>
      </trkpt>
      <trkpt lat="44.9609" lon="6.61337">
        <ele>2404.6</ele>
        <time>2023-07-02T13:03:19+0200</time>
      </trkpt>
      <trkpt lat="44.96086" lon="6.61341">
        <ele>2405.1</ele>
        <time>2023-07-02T13:03:21+0200</time>
      </trkpt>
      <trkpt lat="44.9608" lon="6.61344">
        <ele>2405.6</ele>
        <time>2023-07-02T13:03:23+0200</time>
      </trkpt>
      <trkpt lat="44.96076" lon="6.61349">
        <ele>2406.1</ele>
        <time>2023-07-02T13:03:25+0200</time>
      </trkpt>
      <trkpt lat="44.96073" lon="6.61354">
        <ele>2406.7</ele>
        <time>2023-07-02T13:03:28+0200</time>
      </trkpt>
      <trkpt lat="44.96068" lon="6.61357">
        <ele>2407.3</ele>
        <time>2023-07-02T13:03:32+0200</time>
      </trkpt>
      <trkpt lat="44.96066" lon="6.61363">
        <ele>2408.1</ele>
        <time>2023-07-02T13:03:35+0200</time>
      </trkpt>
      <trkpt lat="44.96062" lon="6.61368">
        <ele>2409.2</ele>
        <time>2023-07-02T13:03:40+0200</time>
      </trkpt>
      <trkpt lat="44.96058" lon="6.61372">
        <ele>2410</ele>
        <time>2023-07-02T13:03:44+0200</time>
      </trkpt>
      <trkpt lat="44.96055" lon="6.61378">
        <ele>2410.8</ele>
        <time>2023-07-02T13:03:47+0200</time>
      </trkpt>
      <trkpt lat="44.96052" lon="6.61383">
        <ele>2411.9</ele>
        <time>2023-07-02T13:03:51+0200</time>
      </trkpt>
      <trkpt lat="44.96048" lon="6.61386">
        <ele>2412.8</ele>
        <time>2023-07-02T13:03:55+0200</time>
      </trkpt>
      <trkpt lat="44.96043" lon="6.61388">
        <ele>2413.7</ele>
        <time>2023-07-02T13:03:59+0200</time>
      </trkpt>
      <trkpt lat="44.96039" lon="6.6139">
        <ele>2414.6</ele>
        <time>2023-07-02T13:04:02+0200</time>
      </trkpt>
      <trkpt lat="44.96034" lon="6.61392">
        <ele>2415.9</ele>
        <time>2023-07-02T13:04:07+0200</time>
      </trkpt>
      <trkpt lat="44.96029" lon="6.61394">
        <ele>2416.9</ele>
        <time>2023-07-02T13:04:11+0200</time>
      </trkpt>
      <trkpt lat="44.96024" lon="6.61396">
        <ele>2417.8</ele>
        <time>2023-07-02T13:04:16+0200</time>
      </trkpt>
      <trkpt lat="44.96018" lon="6.61396">
        <ele>2418.3</ele>
        <time>2023-07-02T13:04:20+0200</time>
      </trkpt>
      <trkpt lat="44.96014" lon="6.61397">
        <ele>2418.9</ele>
        <time>2023-07-02T13:04:25+0200</time>
      </trkpt>
      <trkpt lat="44.96008" lon="6.61401">
        <ele>2420</ele>
        <time>2023-07-02T13:04:29+0200</time>
      </trkpt>
      <trkpt lat="44.96003" lon="6.61405">
        <ele>2421.2</ele>
        <time>2023-07-02T13:04:33+0200</time>
      </trkpt>
      <trkpt lat="44.95999" lon="6.6141">
        <ele>2422.5</ele>
        <time>2023-07-02T13:04:38+0200</time>
      </trkpt>
      <trkpt lat="44.95997" lon="6.61416">
        <ele>2423.7</ele>
        <time>2023-07-02T13:04:43+0200</time>
      </trkpt>
      <trkpt lat="44.95993" lon="6.6142">
        <ele>2423.7</ele>
        <time>2023-07-02T13:04:46+0200</time>
      </trkpt>
      <trkpt lat="44.95988" lon="6.61423">
        <ele>2423.4</ele>
        <time>2023-07-02T13:04:49+0200</time>
      </trkpt>
      <trkpt lat="44.95986" lon="6.61429">
        <ele>2423.4</ele>
        <time>2023-07-02T13:04:51+0200</time>
      </trkpt>
      <trkpt lat="44.95981" lon="6.61433">
        <ele>2423</ele>
        <time>2023-07-02T13:04:55+0200</time>
      </trkpt>
      <trkpt lat="44.95977" lon="6.61438">
        <ele>2422.6</ele>
        <time>2023-07-02T13:04:59+0200</time>
      </trkpt>
      <trkpt lat="44.95975" lon="6.61447">
        <ele>2422.2</ele>
        <time>2023-07-02T13:05:03+0200</time>
      </trkpt>
      <trkpt lat="44.95976" lon="6.6146">
        <ele>2421.2</ele>
        <time>2023-07-02T13:05:05+0200</time>
      </trkpt>
      <trkpt lat="44.95978" lon="6.61468">
        <ele>2420.9</ele>
        <time>2023-07-02T13:05:06+0200</time>
      </trkpt>
      <trkpt lat="44.95981" lon="6.61476">
        <ele>2420.9</ele>
        <time>2023-07-02T13:05:07+0200</time>
      </trkpt>
      <trkpt lat="44.95982" lon="6.61486">
        <ele>2420.4</ele>
        <time>2023-07-02T13:05:08+0200</time>
      </trkpt>
      <trkpt lat="44.95981" lon="6.61497">
        <ele>2419.5</ele>
        <time>2023-07-02T13:05:09+0200</time>
      </trkpt>
      <trkpt lat="44.95983" lon="6.6151">
        <ele>2419.6</ele>
        <time>2023-07-02T13:05:10+0200</time>
      </trkpt>
      <trkpt lat="44.95984" lon="6.61523">
        <ele>2419.6</ele>
        <time>2023-07-02T13:05:11+0200</time>
      </trkpt>
      <trkpt lat="44.95984" lon="6.61534">
        <ele>2418.5</ele>
        <time>2023-07-02T13:05:12+0200</time>
      </trkpt>
      <trkpt lat="44.95984" lon="6.61545">
        <ele>2417.2</ele>
        <time>2023-07-02T13:05:13+0200</time>
      </trkpt>
      <trkpt lat="44.95986" lon="6.61552">
        <ele>2416.8</ele>
        <time>2023-07-02T13:05:14+0200</time>
      </trkpt>
      <trkpt lat="44.95984" lon="6.61559">
        <ele>2415.5</ele>
        <time>2023-07-02T13:05:16+0200</time>
      </trkpt>
      <trkpt lat="44.95985" lon="6.6157">
        <ele>2414.2</ele>
        <time>2023-07-02T13:05:18+0200</time>
      </trkpt>
      <trkpt lat="44.95987" lon="6.61577">
        <ele>2413.8</ele>
        <time>2023-07-02T13:05:19+0200</time>
      </trkpt>
      <trkpt lat="44.95987" lon="6.61584">
        <ele>2412.8</ele>
        <time>2023-07-02T13:05:21+0200</time>
      </trkpt>
      <trkpt lat="44.95986" lon="6.61595">
        <ele>2412.2</ele>
        <time>2023-07-02T13:05:23+0200</time>
      </trkpt>
      <trkpt lat="44.95984" lon="6.61603">
        <ele>2411.5</ele>
        <time>2023-07-02T13:05:24+0200</time>
      </trkpt>
      <trkpt lat="44.9598" lon="6.6161">
        <ele>2410.1</ele>
        <time>2023-07-02T13:05:25+0200</time>
      </trkpt>
      <trkpt lat="44.95977" lon="6.61616">
        <ele>2408.8</ele>
        <time>2023-07-02T13:05:26+0200</time>
      </trkpt>
      <trkpt lat="44.95976" lon="6.61627">
        <ele>2407.3</ele>
        <time>2023-07-02T13:05:28+0200</time>
      </trkpt>
      <trkpt lat="44.9597" lon="6.61625">
        <ele>2406</ele>
        <time>2023-07-02T13:05:31+0200</time>
      </trkpt>
      <trkpt lat="44.95965" lon="6.61624">
        <ele>2405.1</ele>
        <time>2023-07-02T13:05:33+0200</time>
      </trkpt>
      <trkpt lat="44.95964" lon="6.61631">
        <ele>2403.9</ele>
        <time>2023-07-02T13:05:35+0200</time>
      </trkpt>
      <trkpt lat="44.95966" lon="6.61637">
        <ele>2403.7</ele>
        <time>2023-07-02T13:05:36+0200</time>
      </trkpt>
      <trkpt lat="44.95968" lon="6.61646">
        <ele>2402</ele>
        <time>2023-07-02T13:05:38+0200</time>
      </trkpt>
      <trkpt lat="44.95968" lon="6.61655">
        <ele>2399.7</ele>
        <time>2023-07-02T13:05:41+0200</time>
      </trkpt>
      <trkpt lat="44.95971" lon="6.61665">
        <ele>2397.2</ele>
        <time>2023-07-02T13:05:43+0200</time>
      </trkpt>
      <trkpt lat="44.95972" lon="6.61672">
        <ele>2396.1</ele>
        <time>2023-07-02T13:05:44+0200</time>
      </trkpt>
      <trkpt lat="44.95973" lon="6.61679">
        <ele>2394.8</ele>
        <time>2023-07-02T13:05:45+0200</time>
      </trkpt>
      <trkpt lat="44.95972" lon="6.61687">
        <ele>2393.3</ele>
        <time>2023-07-02T13:05:46+0200</time>
      </trkpt>
      <trkpt lat="44.9597" lon="6.61695">
        <ele>2391.6</ele>
        <time>2023-07-02T13:05:47+0200</time>
      </trkpt>
      <trkpt lat="44.95969" lon="6.61705">
        <ele>2389.7</ele>
        <time>2023-07-02T13:05:49+0200</time>
      </trkpt>
      <trkpt lat="44.9597" lon="6.61712">
        <ele>2388.6</ele>
        <time>2023-07-02T13:05:50+0200</time>
      </trkpt>
      <trkpt lat="44.9597" lon="6.61719">
        <ele>2387.4</ele>
        <time>2023-07-02T13:05:51+0200</time>
      </trkpt>
      <trkpt lat="44.95972" lon="6.61727">
        <ele>2386.4</ele>
        <time>2023-07-02T13:05:52+0200</time>
      </trkpt>
      <trkpt lat="44.95974" lon="6.61738">
        <ele>2385.9</ele>
        <time>2023-07-02T13:05:54+0200</time>
      </trkpt>
      <trkpt lat="44.95974" lon="6.61747">
        <ele>2385.1</ele>
        <time>2023-07-02T13:05:55+0200</time>
      </trkpt>
      <trkpt lat="44.95974" lon="6.61754">
        <ele>2384.1</ele>
        <time>2023-07-02T13:05:56+0200</time>
      </trkpt>
      <trkpt lat="44.95972" lon="6.61767">
        <ele>2382.1</ele>
        <time>2023-07-02T13:05:58+0200</time>
      </trkpt>
      <trkpt lat="44.95971" lon="6.61778">
        <ele>2380.9</ele>
        <time>2023-07-02T13:06:00+0200</time>
      </trkpt>
      <trkpt lat="44.95972" lon="6.61789">
        <ele>2380.2</ele>
        <time>2023-07-02T13:06:02+0200</time>
      </trkpt>
      <trkpt lat="44.95974" lon="6.61797">
        <ele>2380</ele>
        <time>2023-07-02T13:06:04+0200</time>
      </trkpt>
      <trkpt lat="44.95974" lon="6.61804">
        <ele>2379.6</ele>
        <time>2023-07-02T13:06:06+0200</time>
      </trkpt>
      <trkpt lat="44.95969" lon="6.61811">
        <ele>2378.4</ele>
        <time>2023-07-02T13:06:08+0200</time>
      </trkpt>
      <trkpt lat="44.95964" lon="6.61814">
        <ele>2377.9</ele>
        <time>2023-07-02T13:06:09+0200</time>
      </trkpt>
      <trkpt lat="44.9596" lon="6.61823">
        <ele>2376.9</ele>
        <time>2023-07-02T13:06:11+0200</time>
      </trkpt>
      <trkpt lat="44.95955" lon="6.6183">
        <ele>2376</ele>
        <time>2023-07-02T13:06:13+0200</time>
      </trkpt>
      <trkpt lat="44.95949" lon="6.61839">
        <ele>2374.9</ele>
        <time>2023-07-02T13:06:15+0200</time>
      </trkpt>
      <trkpt lat="44.95948" lon="6.61849">
        <ele>2374</ele>
        <time>2023-07-02T13:06:17+0200</time>
      </trkpt>
      <trkpt lat="44.95946" lon="6.61856">
        <ele>2373.5</ele>
        <time>2023-07-02T13:06:18+0200</time>
      </trkpt>
      <trkpt lat="44.95943" lon="6.61869">
        <ele>2372.5</ele>
        <time>2023-07-02T13:06:20+0200</time>
      </trkpt>
      <trkpt lat="44.95941" lon="6.61877">
        <ele>2372</ele>
        <time>2023-07-02T13:06:21+0200</time>
      </trkpt>
      <trkpt lat="44.95939" lon="6.61887">
        <ele>2371.6</ele>
        <time>2023-07-02T13:06:22+0200</time>
      </trkpt>
      <trkpt lat="44.95937" lon="6.61897">
        <ele>2371.4</ele>
        <time>2023-07-02T13:06:23+0200</time>
      </trkpt>
      <trkpt lat="44.95937" lon="6.61906">
        <ele>2371.3</ele>
        <time>2023-07-02T13:06:24+0200</time>
      </trkpt>
      <trkpt lat="44.95936" lon="6.61915">
        <ele>2371.1</ele>
        <time>2023-07-02T13:06:25+0200</time>
      </trkpt>
      <trkpt lat="44.95934" lon="6.61923">
        <ele>2371.1</ele>
        <time>2023-07-02T13:06:26+0200</time>
      </trkpt>
      <trkpt lat="44.9593" lon="6.6193">
        <ele>2370.8</ele>
        <time>2023-07-02T13:06:27+0200</time>
      </trkpt>
      <trkpt lat="44.95926" lon="6.61936">
        <ele>2370.2</ele>
        <time>2023-07-02T13:06:28+0200</time>
      </trkpt>
      <trkpt lat="44.95922" lon="6.61942">
        <ele>2369.4</ele>
        <time>2023-07-02T13:06:29+0200</time>
      </trkpt>
      <trkpt lat="44.9592" lon="6.6195">
        <ele>2368.3</ele>
        <time>2023-07-02T13:06:30+0200</time>
      </trkpt>
      <trkpt lat="44.95918" lon="6.61959">
        <ele>2367.4</ele>
        <time>2023-07-02T13:06:31+0200</time>
      </trkpt>
      <trkpt lat="44.95919" lon="6.61971">
        <ele>2366.6</ele>
        <time>2023-07-02T13:06:32+0200</time>
      </trkpt>
      <trkpt lat="44.9592" lon="6.61984">
        <ele>2367.2</ele>
        <time>2023-07-02T13:06:33+0200</time>
      </trkpt>
      <trkpt lat="44.95917" lon="6.61996">
        <ele>2366.9</ele>
        <time>2023-07-02T13:06:34+0200</time>
      </trkpt>
      <trkpt lat="44.95912" lon="6.62005">
        <ele>2366.3</ele>
        <time>2023-07-02T13:06:35+0200</time>
      </trkpt>
      <trkpt lat="44.95907" lon="6.62013">
        <ele>2365.5</ele>
        <time>2023-07-02T13:06:36+0200</time>
      </trkpt>
      <trkpt lat="44.95904" lon="6.62022">
        <ele>2365.2</ele>
        <time>2023-07-02T13:06:37+0200</time>
      </trkpt>
      <trkpt lat="44.95904" lon="6.62031">
        <ele>2365.1</ele>
        <time>2023-07-02T13:06:38+0200</time>
      </trkpt>
      <trkpt lat="44.95904" lon="6.62041">
        <ele>2364.7</ele>
        <time>2023-07-02T13:06:39+0200</time>
      </trkpt>
      <trkpt lat="44.95905" lon="6.6205">
        <ele>2364.6</ele>
        <time>2023-07-02T13:06:40+0200</time>
      </trkpt>
      <trkpt lat="44.95906" lon="6.62061">
        <ele>2364.5</ele>
        <time>2023-07-02T13:06:41+0200</time>
      </trkpt>
      <trkpt lat="44.95906" lon="6.62073">
        <ele>2364.6</ele>
        <time>2023-07-02T13:06:42+0200</time>
      </trkpt>
      <trkpt lat="44.95904" lon="6.62083">
        <ele>2364.6</ele>
        <time>2023-07-02T13:06:43+0200</time>
      </trkpt>
      <trkpt lat="44.95899" lon="6.62091">
        <ele>2364.7</ele>
        <time>2023-07-02T13:06:44+0200</time>
      </trkpt>
      <trkpt lat="44.95893" lon="6.62097">
        <ele>2364.5</ele>
        <time>2023-07-02T13:06:45+0200</time>
      </trkpt>
      <trkpt lat="44.95889" lon="6.62102">
        <ele>2364.3</ele>
        <time>2023-07-02T13:06:46+0200</time>
      </trkpt>
      <trkpt lat="44.95885" lon="6.62106">
        <ele>2364.2</ele>
        <time>2023-07-02T13:06:47+0200</time>
      </trkpt>
      <trkpt lat="44.95882" lon="6.62112">
        <ele>2364.3</ele>
        <time>2023-07-02T13:06:48+0200</time>
      </trkpt>
      <trkpt lat="44.95877" lon="6.62121">
        <ele>2364.1</ele>
        <time>2023-07-02T13:06:50+0200</time>
      </trkpt>
      <trkpt lat="44.95875" lon="6.62127">
        <ele>2364.1</ele>
        <time>2023-07-02T13:06:51+0200</time>
      </trkpt>
      <trkpt lat="44.95871" lon="6.62138">
        <ele>2364</ele>
        <time>2023-07-02T13:06:53+0200</time>
      </trkpt>
      <trkpt lat="44.95866" lon="6.62149">
        <ele>2363.2</ele>
        <time>2023-07-02T13:06:55+0200</time>
      </trkpt>
      <trkpt lat="44.95864" lon="6.62156">
        <ele>2362.8</ele>
        <time>2023-07-02T13:06:56+0200</time>
      </trkpt>
      <trkpt lat="44.95861" lon="6.62161">
        <ele>2362.2</ele>
        <time>2023-07-02T13:06:57+0200</time>
      </trkpt>
      <trkpt lat="44.95856" lon="6.62165">
        <ele>2361.9</ele>
        <time>2023-07-02T13:06:58+0200</time>
      </trkpt>
      <trkpt lat="44.9585" lon="6.62174">
        <ele>2361.9</ele>
        <time>2023-07-02T13:07:00+0200</time>
      </trkpt>
      <trkpt lat="44.95846" lon="6.62183">
        <ele>2362</ele>
        <time>2023-07-02T13:07:02+0200</time>
      </trkpt>
      <trkpt lat="44.95842" lon="6.62188">
        <ele>2362.1</ele>
        <time>2023-07-02T13:07:04+0200</time>
      </trkpt>
      <trkpt lat="44.9584" lon="6.62194">
        <ele>2362.2</ele>
        <time>2023-07-02T13:07:10+0200</time>
      </trkpt>
      <trkpt lat="44.95838" lon="6.622">
        <ele>2362.5</ele>
        <time>2023-07-02T13:07:12+0200</time>
      </trkpt>
      <trkpt lat="44.95835" lon="6.62205">
        <ele>2362.8</ele>
        <time>2023-07-02T13:07:14+0200</time>
      </trkpt>
      <trkpt lat="44.95832" lon="6.62211">
        <ele>2363.1</ele>
        <time>2023-07-02T13:07:16+0200</time>
      </trkpt>
      <trkpt lat="44.95827" lon="6.62216">
        <ele>2363</ele>
        <time>2023-07-02T13:07:19+0200</time>
      </trkpt>
      <trkpt lat="44.95822" lon="6.62223">
        <ele>2363.2</ele>
        <time>2023-07-02T13:07:22+0200</time>
      </trkpt>
      <trkpt lat="44.95818" lon="6.62228">
        <ele>2363.4</ele>
        <time>2023-07-02T13:07:24+0200</time>
      </trkpt>
      <trkpt lat="44.95815" lon="6.62234">
        <ele>2363.8</ele>
        <time>2023-07-02T13:07:26+0200</time>
      </trkpt>
      <trkpt lat="44.95811" lon="6.62241">
        <ele>2364.2</ele>
        <time>2023-07-02T13:07:28+0200</time>
      </trkpt>
      <trkpt lat="44.95806" lon="6.62246">
        <ele>2364.5</ele>
        <time>2023-07-02T13:07:30+0200</time>
      </trkpt>
      <trkpt lat="44.95802" lon="6.62251">
        <ele>2364.5</ele>
        <time>2023-07-02T13:07:32+0200</time>
      </trkpt>
      <trkpt lat="44.95799" lon="6.62257">
        <ele>2364.5</ele>
        <time>2023-07-02T13:07:34+0200</time>
      </trkpt>
      <trkpt lat="44.95794" lon="6.62264">
        <ele>2364.4</ele>
        <time>2023-07-02T13:07:36+0200</time>
      </trkpt>
      <trkpt lat="44.9579" lon="6.62271">
        <ele>2364.5</ele>
        <time>2023-07-02T13:07:38+0200</time>
      </trkpt>
      <trkpt lat="44.95787" lon="6.62278">
        <ele>2364.7</ele>
        <time>2023-07-02T13:07:40+0200</time>
      </trkpt>
      <trkpt lat="44.95782" lon="6.62288">
        <ele>2364.5</ele>
        <time>2023-07-02T13:07:42+0200</time>
      </trkpt>
      <trkpt lat="44.95777" lon="6.62296">
        <ele>2364.2</ele>
        <time>2023-07-02T13:07:44+0200</time>
      </trkpt>
      <trkpt lat="44.95772" lon="6.62304">
        <ele>2363.9</ele>
        <time>2023-07-02T13:07:46+0200</time>
      </trkpt>
      <trkpt lat="44.95766" lon="6.62312">
        <ele>2363.9</ele>
        <time>2023-07-02T13:07:48+0200</time>
      </trkpt>
      <trkpt lat="44.95764" lon="6.62319">
        <ele>2364.1</ele>
        <time>2023-07-02T13:07:49+0200</time>
      </trkpt>
      <trkpt lat="44.95761" lon="6.62325">
        <ele>2364.2</ele>
        <time>2023-07-02T13:07:50+0200</time>
      </trkpt>
      <trkpt lat="44.95757" lon="6.62329">
        <ele>2364</ele>
        <time>2023-07-02T13:07:51+0200</time>
      </trkpt>
      <trkpt lat="44.95753" lon="6.62338">
        <ele>2363.9</ele>
        <time>2023-07-02T13:07:53+0200</time>
      </trkpt>
      <trkpt lat="44.95752" lon="6.62348">
        <ele>2364.4</ele>
        <time>2023-07-02T13:07:55+0200</time>
      </trkpt>
      <trkpt lat="44.95752" lon="6.62358">
        <ele>2365</ele>
        <time>2023-07-02T13:07:57+0200</time>
      </trkpt>
      <trkpt lat="44.95753" lon="6.62365">
        <ele>2365.5</ele>
        <time>2023-07-02T13:07:59+0200</time>
      </trkpt>
      <trkpt lat="44.95751" lon="6.62373">
        <ele>2365.6</ele>
        <time>2023-07-02T13:08:01+0200</time>
      </trkpt>
      <trkpt lat="44.95751" lon="6.62381">
        <ele>2365.8</ele>
        <time>2023-07-02T13:08:03+0200</time>
      </trkpt>
      <trkpt lat="44.9575" lon="6.62389">
        <ele>2366.1</ele>
        <time>2023-07-02T13:08:05+0200</time>
      </trkpt>
      <trkpt lat="44.95749" lon="6.62396">
        <ele>2366.2</ele>
        <time>2023-07-02T13:08:07+0200</time>
      </trkpt>
      <trkpt lat="44.95747" lon="6.62402">
        <ele>2366</ele>
        <time>2023-07-02T13:08:09+0200</time>
      </trkpt>
      <trkpt lat="44.95745" lon="6.62408">
        <ele>2366</ele>
        <time>2023-07-02T13:08:30+0200</time>
      </trkpt>
      <trkpt lat="44.95741" lon="6.62416">
        <ele>2365.7</ele>
        <time>2023-07-02T13:09:15+0200</time>
      </trkpt>
      <trkpt lat="44.95736" lon="6.62424">
        <ele>2364.4</ele>
        <time>2023-07-02T13:09:17+0200</time>
      </trkpt>
      <trkpt lat="44.95726" lon="6.62429">
        <ele>2363</ele>
        <time>2023-07-02T13:09:19+0200</time>
      </trkpt>
      <trkpt lat="44.95719" lon="6.6243">
        <ele>2362</ele>
        <time>2023-07-02T13:09:20+0200</time>
      </trkpt>
      <trkpt lat="44.95715" lon="6.62435">
        <ele>2361.3</ele>
        <time>2023-07-02T13:09:21+0200</time>
      </trkpt>
      <trkpt lat="44.9571" lon="6.62439">
        <ele>2360.6</ele>
        <time>2023-07-02T13:09:22+0200</time>
      </trkpt>
      <trkpt lat="44.95706" lon="6.62445">
        <ele>2360.3</ele>
        <time>2023-07-02T13:09:23+0200</time>
      </trkpt>
      <trkpt lat="44.95703" lon="6.62453">
        <ele>2360.7</ele>
        <time>2023-07-02T13:09:25+0200</time>
      </trkpt>
      <trkpt lat="44.95699" lon="6.62457">
        <ele>2360.7</ele>
        <time>2023-07-02T13:09:28+0200</time>
      </trkpt>
      <trkpt lat="44.95696" lon="6.62463">
        <ele>2361</ele>
        <time>2023-07-02T13:09:30+0200</time>
      </trkpt>
      <trkpt lat="44.95692" lon="6.62469">
        <ele>2361.2</ele>
        <time>2023-07-02T13:09:32+0200</time>
      </trkpt>
      <trkpt lat="44.95689" lon="6.62476">
        <ele>2361.1</ele>
        <time>2023-07-02T13:09:34+0200</time>
      </trkpt>
      <trkpt lat="44.95685" lon="6.62483">
        <ele>2360.7</ele>
        <time>2023-07-02T13:09:36+0200</time>
      </trkpt>
      <trkpt lat="44.95685" lon="6.62491">
        <ele>2360.9</ele>
        <time>2023-07-02T13:09:39+0200</time>
      </trkpt>
      <trkpt lat="44.95686" lon="6.62503">
        <ele>2361.4</ele>
        <time>2023-07-02T13:09:41+0200</time>
      </trkpt>
      <trkpt lat="44.95688" lon="6.62515">
        <ele>2361.8</ele>
        <time>2023-07-02T13:09:43+0200</time>
      </trkpt>
      <trkpt lat="44.95689" lon="6.62527">
        <ele>2361.9</ele>
        <time>2023-07-02T13:09:45+0200</time>
      </trkpt>
      <trkpt lat="44.9569" lon="6.62535">
        <ele>2362.7</ele>
        <time>2023-07-02T13:09:46+0200</time>
      </trkpt>
      <trkpt lat="44.9569" lon="6.62542">
        <ele>2363.4</ele>
        <time>2023-07-02T13:09:47+0200</time>
      </trkpt>
      <trkpt lat="44.95684" lon="6.6255">
        <ele>2362.8</ele>
        <time>2023-07-02T13:09:49+0200</time>
      </trkpt>
      <trkpt lat="44.95679" lon="6.62553">
        <ele>2361.9</ele>
        <time>2023-07-02T13:09:50+0200</time>
      </trkpt>
      <trkpt lat="44.95674" lon="6.62556">
        <ele>2361.1</ele>
        <time>2023-07-02T13:09:51+0200</time>
      </trkpt>
      <trkpt lat="44.9567" lon="6.62558">
        <ele>2360.5</ele>
        <time>2023-07-02T13:09:52+0200</time>
      </trkpt>
      <trkpt lat="44.95665" lon="6.6256">
        <ele>2359.6</ele>
        <time>2023-07-02T13:09:53+0200</time>
      </trkpt>
      <trkpt lat="44.95659" lon="6.62561">
        <ele>2358.6</ele>
        <time>2023-07-02T13:09:54+0200</time>
      </trkpt>
      <trkpt lat="44.95654" lon="6.62561">
        <ele>2357.4</ele>
        <time>2023-07-02T13:09:55+0200</time>
      </trkpt>
      <trkpt lat="44.95647" lon="6.62562">
        <ele>2356.2</ele>
        <time>2023-07-02T13:09:56+0200</time>
      </trkpt>
      <trkpt lat="44.95642" lon="6.62566">
        <ele>2355.5</ele>
        <time>2023-07-02T13:09:57+0200</time>
      </trkpt>
      <trkpt lat="44.95635" lon="6.62572">
        <ele>2354.6</ele>
        <time>2023-07-02T13:09:59+0200</time>
      </trkpt>
      <trkpt lat="44.95633" lon="6.62578">
        <ele>2354.7</ele>
        <time>2023-07-02T13:10:00+0200</time>
      </trkpt>
      <trkpt lat="44.9563" lon="6.62584">
        <ele>2354.4</ele>
        <time>2023-07-02T13:10:01+0200</time>
      </trkpt>
      <trkpt lat="44.95626" lon="6.62591">
        <ele>2354.3</ele>
        <time>2023-07-02T13:10:02+0200</time>
      </trkpt>
      <trkpt lat="44.95621" lon="6.62598">
        <ele>2353.7</ele>
        <time>2023-07-02T13:10:03+0200</time>
      </trkpt>
      <trkpt lat="44.95617" lon="6.62606">
        <ele>2352.9</ele>
        <time>2023-07-02T13:10:04+0200</time>
      </trkpt>
      <trkpt lat="44.95613" lon="6.62615">
        <ele>2353.2</ele>
        <time>2023-07-02T13:10:05+0200</time>
      </trkpt>
      <trkpt lat="44.9561" lon="6.62625">
        <ele>2354.3</ele>
        <time>2023-07-02T13:10:06+0200</time>
      </trkpt>
      <trkpt lat="44.95605" lon="6.62628">
        <ele>2354.6</ele>
        <time>2023-07-02T13:10:07+0200</time>
      </trkpt>
      <trkpt lat="44.956" lon="6.62629">
        <ele>2354.3</ele>
        <time>2023-07-02T13:10:08+0200</time>
      </trkpt>
      <trkpt lat="44.95595" lon="6.6263">
        <ele>2354</ele>
        <time>2023-07-02T13:10:09+0200</time>
      </trkpt>
      <trkpt lat="44.9559" lon="6.62633">
        <ele>2354.3</ele>
        <time>2023-07-02T13:10:10+0200</time>
      </trkpt>
      <trkpt lat="44.95584" lon="6.62635">
        <ele>2354.5</ele>
        <time>2023-07-02T13:10:11+0200</time>
      </trkpt>
      <trkpt lat="44.9558" lon="6.62635">
        <ele>2354.1</ele>
        <time>2023-07-02T13:10:12+0200</time>
      </trkpt>
      <trkpt lat="44.95574" lon="6.62636">
        <ele>2353.9</ele>
        <time>2023-07-02T13:10:13+0200</time>
      </trkpt>
      <trkpt lat="44.95569" lon="6.62637">
        <ele>2353.9</ele>
        <time>2023-07-02T13:10:14+0200</time>
      </trkpt>
      <trkpt lat="44.95565" lon="6.6264">
        <ele>2354.2</ele>
        <time>2023-07-02T13:10:15+0200</time>
      </trkpt>
      <trkpt lat="44.95556" lon="6.62641">
        <ele>2353.5</ele>
        <time>2023-07-02T13:10:17+0200</time>
      </trkpt>
      <trkpt lat="44.9555" lon="6.62642">
        <ele>2353.4</ele>
        <time>2023-07-02T13:10:19+0200</time>
      </trkpt>
      <trkpt lat="44.95542" lon="6.62644">
        <ele>2353.4</ele>
        <time>2023-07-02T13:10:21+0200</time>
      </trkpt>
      <trkpt lat="44.95534" lon="6.62646">
        <ele>2353.4</ele>
        <time>2023-07-02T13:10:23+0200</time>
      </trkpt>
      <trkpt lat="44.9553" lon="6.62646">
        <ele>2353.1</ele>
        <time>2023-07-02T13:10:24+0200</time>
      </trkpt>
      <trkpt lat="44.95525" lon="6.62648">
        <ele>2353.2</ele>
        <time>2023-07-02T13:10:25+0200</time>
      </trkpt>
      <trkpt lat="44.95521" lon="6.62651">
        <ele>2353.4</ele>
        <time>2023-07-02T13:10:26+0200</time>
      </trkpt>
      <trkpt lat="44.95517" lon="6.62656">
        <ele>2353.8</ele>
        <time>2023-07-02T13:10:27+0200</time>
      </trkpt>
      <trkpt lat="44.95512" lon="6.62661">
        <ele>2354.2</ele>
        <time>2023-07-02T13:10:29+0200</time>
      </trkpt>
      <trkpt lat="44.95506" lon="6.62666">
        <ele>2354.4</ele>
        <time>2023-07-02T13:10:31+0200</time>
      </trkpt>
      <trkpt lat="44.955" lon="6.62671">
        <ele>2354</ele>
        <time>2023-07-02T13:10:33+0200</time>
      </trkpt>
      <trkpt lat="44.95494" lon="6.62678">
        <ele>2353.2</ele>
        <time>2023-07-02T13:10:35+0200</time>
      </trkpt>
      <trkpt lat="44.95486" lon="6.62684">
        <ele>2352.3</ele>
        <time>2023-07-02T13:10:37+0200</time>
      </trkpt>
      <trkpt lat="44.95478" lon="6.62689">
        <ele>2351.5</ele>
        <time>2023-07-02T13:10:39+0200</time>
      </trkpt>
      <trkpt lat="44.95474" lon="6.62692">
        <ele>2351.1</ele>
        <time>2023-07-02T13:10:40+0200</time>
      </trkpt>
      <trkpt lat="44.9547" lon="6.62698">
        <ele>2350.5</ele>
        <time>2023-07-02T13:10:41+0200</time>
      </trkpt>
      <trkpt lat="44.95469" lon="6.62705">
        <ele>2350.5</ele>
        <time>2023-07-02T13:10:42+0200</time>
      </trkpt>
      <trkpt lat="44.95468" lon="6.62715">
        <ele>2350.7</ele>
        <time>2023-07-02T13:10:44+0200</time>
      </trkpt>
      <trkpt lat="44.95466" lon="6.62721">
        <ele>2350.6</ele>
        <time>2023-07-02T13:10:45+0200</time>
      </trkpt>
      <trkpt lat="44.95465" lon="6.62729">
        <ele>2350.3</ele>
        <time>2023-07-02T13:10:46+0200</time>
      </trkpt>
      <trkpt lat="44.95463" lon="6.62736">
        <ele>2350.1</ele>
        <time>2023-07-02T13:10:47+0200</time>
      </trkpt>
      <trkpt lat="44.9546" lon="6.62745">
        <ele>2349.7</ele>
        <time>2023-07-02T13:10:48+0200</time>
      </trkpt>
      <trkpt lat="44.95456" lon="6.62752">
        <ele>2349.5</ele>
        <time>2023-07-02T13:10:49+0200</time>
      </trkpt>
      <trkpt lat="44.9545" lon="6.62755">
        <ele>2349.4</ele>
        <time>2023-07-02T13:10:50+0200</time>
      </trkpt>
      <trkpt lat="44.95445" lon="6.62756">
        <ele>2348.8</ele>
        <time>2023-07-02T13:10:51+0200</time>
      </trkpt>
      <trkpt lat="44.95436" lon="6.62755">
        <ele>2347.4</ele>
        <time>2023-07-02T13:10:53+0200</time>
      </trkpt>
      <trkpt lat="44.9543" lon="6.62755">
        <ele>2346.5</ele>
        <time>2023-07-02T13:10:54+0200</time>
      </trkpt>
      <trkpt lat="44.95425" lon="6.62754">
        <ele>2345.6</ele>
        <time>2023-07-02T13:10:55+0200</time>
      </trkpt>
      <trkpt lat="44.9542" lon="6.62753">
        <ele>2344.7</ele>
        <time>2023-07-02T13:10:56+0200</time>
      </trkpt>
      <trkpt lat="44.95415" lon="6.62757">
        <ele>2344.3</ele>
        <time>2023-07-02T13:10:58+0200</time>
      </trkpt>
      <trkpt lat="44.95414" lon="6.62768">
        <ele>2345.3</ele>
        <time>2023-07-02T13:11:00+0200</time>
      </trkpt>
      <trkpt lat="44.95413" lon="6.6278">
        <ele>2346.6</ele>
        <time>2023-07-02T13:11:02+0200</time>
      </trkpt>
      <trkpt lat="44.95414" lon="6.62787">
        <ele>2348.2</ele>
        <time>2023-07-02T13:11:03+0200</time>
      </trkpt>
      <trkpt lat="44.9541" lon="6.62788">
        <ele>2347.7</ele>
        <time>2023-07-02T13:11:05+0200</time>
      </trkpt>
      <trkpt lat="44.95405" lon="6.62788">
        <ele>2346.7</ele>
        <time>2023-07-02T13:11:06+0200</time>
      </trkpt>
      <trkpt lat="44.95398" lon="6.62791">
        <ele>2346.2</ele>
        <time>2023-07-02T13:11:08+0200</time>
      </trkpt>
      <trkpt lat="44.95389" lon="6.62791">
        <ele>2344.8</ele>
        <time>2023-07-02T13:11:10+0200</time>
      </trkpt>
      <trkpt lat="44.95381" lon="6.62791">
        <ele>2344.5</ele>
        <time>2023-07-02T13:11:12+0200</time>
      </trkpt>
      <trkpt lat="44.95376" lon="6.62789">
        <ele>2343.7</ele>
        <time>2023-07-02T13:11:13+0200</time>
      </trkpt>
      <trkpt lat="44.95371" lon="6.62789">
        <ele>2343.5</ele>
        <time>2023-07-02T13:11:14+0200</time>
      </trkpt>
      <trkpt lat="44.95367" lon="6.62789">
        <ele>2343.4</ele>
        <time>2023-07-02T13:11:15+0200</time>
      </trkpt>
      <trkpt lat="44.95361" lon="6.62788">
        <ele>2342.8</ele>
        <time>2023-07-02T13:11:16+0200</time>
      </trkpt>
      <trkpt lat="44.95356" lon="6.62786">
        <ele>2341.8</ele>
        <time>2023-07-02T13:11:17+0200</time>
      </trkpt>
      <trkpt lat="44.9535" lon="6.62787">
        <ele>2341.3</ele>
        <time>2023-07-02T13:11:18+0200</time>
      </trkpt>
      <trkpt lat="44.95344" lon="6.6279">
        <ele>2341.3</ele>
        <time>2023-07-02T13:11:19+0200</time>
      </trkpt>
      <trkpt lat="44.95337" lon="6.62791">
        <ele>2340.9</ele>
        <time>2023-07-02T13:11:20+0200</time>
      </trkpt>
      <trkpt lat="44.95331" lon="6.6279">
        <ele>2339.7</ele>
        <time>2023-07-02T13:11:21+0200</time>
      </trkpt>
      <trkpt lat="44.95325" lon="6.62786">
        <ele>2338</ele>
        <time>2023-07-02T13:11:22+0200</time>
      </trkpt>
      <trkpt lat="44.95319" lon="6.62789">
        <ele>2338.2</ele>
        <time>2023-07-02T13:11:23+0200</time>
      </trkpt>
      <trkpt lat="44.95313" lon="6.62791">
        <ele>2337.7</ele>
        <time>2023-07-02T13:11:24+0200</time>
      </trkpt>
      <trkpt lat="44.95307" lon="6.6279">
        <ele>2336.8</ele>
        <time>2023-07-02T13:11:25+0200</time>
      </trkpt>
      <trkpt lat="44.95302" lon="6.62791">
        <ele>2336</ele>
        <time>2023-07-02T13:11:26+0200</time>
      </trkpt>
      <trkpt lat="44.95297" lon="6.62796">
        <ele>2335.9</ele>
        <time>2023-07-02T13:11:27+0200</time>
      </trkpt>
      <trkpt lat="44.95291" lon="6.62802">
        <ele>2335.6</ele>
        <time>2023-07-02T13:11:28+0200</time>
      </trkpt>
      <trkpt lat="44.95285" lon="6.62807">
        <ele>2334.9</ele>
        <time>2023-07-02T13:11:29+0200</time>
      </trkpt>
      <trkpt lat="44.95279" lon="6.62809">
        <ele>2333.7</ele>
        <time>2023-07-02T13:11:30+0200</time>
      </trkpt>
      <trkpt lat="44.95271" lon="6.62813">
        <ele>2333.7</ele>
        <time>2023-07-02T13:11:31+0200</time>
      </trkpt>
      <trkpt lat="44.95264" lon="6.62814">
        <ele>2333.7</ele>
        <time>2023-07-02T13:11:32+0200</time>
      </trkpt>
      <trkpt lat="44.95259" lon="6.6281">
        <ele>2333</ele>
        <time>2023-07-02T13:11:33+0200</time>
      </trkpt>
      <trkpt lat="44.95255" lon="6.62803">
        <ele>2331.7</ele>
        <time>2023-07-02T13:11:34+0200</time>
      </trkpt>
      <trkpt lat="44.95249" lon="6.62798">
        <ele>2330.9</ele>
        <time>2023-07-02T13:11:35+0200</time>
      </trkpt>
      <trkpt lat="44.95244" lon="6.62795">
        <ele>2330.6</ele>
        <time>2023-07-02T13:11:36+0200</time>
      </trkpt>
      <trkpt lat="44.95239" lon="6.62794">
        <ele>2330.5</ele>
        <time>2023-07-02T13:11:37+0200</time>
      </trkpt>
      <trkpt lat="44.95234" lon="6.62793">
        <ele>2330.4</ele>
        <time>2023-07-02T13:11:38+0200</time>
      </trkpt>
      <trkpt lat="44.95229" lon="6.6279">
        <ele>2330.2</ele>
        <time>2023-07-02T13:11:39+0200</time>
      </trkpt>
      <trkpt lat="44.95224" lon="6.62786">
        <ele>2329.9</ele>
        <time>2023-07-02T13:11:40+0200</time>
      </trkpt>
      <trkpt lat="44.95219" lon="6.62781">
        <ele>2329.2</ele>
        <time>2023-07-02T13:11:41+0200</time>
      </trkpt>
      <trkpt lat="44.95214" lon="6.62777">
        <ele>2328.6</ele>
        <time>2023-07-02T13:11:42+0200</time>
      </trkpt>
      <trkpt lat="44.95209" lon="6.62776">
        <ele>2328.2</ele>
        <time>2023-07-02T13:11:43+0200</time>
      </trkpt>
      <trkpt lat="44.95202" lon="6.62775">
        <ele>2327.9</ele>
        <time>2023-07-02T13:11:44+0200</time>
      </trkpt>
      <trkpt lat="44.95197" lon="6.62769">
        <ele>2327.1</ele>
        <time>2023-07-02T13:11:45+0200</time>
      </trkpt>
      <trkpt lat="44.95191" lon="6.62764">
        <ele>2326.8</ele>
        <time>2023-07-02T13:11:46+0200</time>
      </trkpt>
      <trkpt lat="44.95186" lon="6.62758">
        <ele>2326.7</ele>
        <time>2023-07-02T13:11:47+0200</time>
      </trkpt>
      <trkpt lat="44.95178" lon="6.62753">
        <ele>2327</ele>
        <time>2023-07-02T13:11:48+0200</time>
      </trkpt>
      <trkpt lat="44.95173" lon="6.62749">
        <ele>2327.1</ele>
        <time>2023-07-02T13:11:49+0200</time>
      </trkpt>
      <trkpt lat="44.95166" lon="6.62743">
        <ele>2326.2</ele>
        <time>2023-07-02T13:11:51+0200</time>
      </trkpt>
      <trkpt lat="44.9516" lon="6.62733">
        <ele>2324.2</ele>
        <time>2023-07-02T13:11:53+0200</time>
      </trkpt>
      <trkpt lat="44.95154" lon="6.6273">
        <ele>2323.9</ele>
        <time>2023-07-02T13:11:54+0200</time>
      </trkpt>
      <trkpt lat="44.95148" lon="6.62727">
        <ele>2323.6</ele>
        <time>2023-07-02T13:11:55+0200</time>
      </trkpt>
      <trkpt lat="44.95142" lon="6.62726">
        <ele>2323.8</ele>
        <time>2023-07-02T13:11:56+0200</time>
      </trkpt>
      <trkpt lat="44.95135" lon="6.62726">
        <ele>2324.1</ele>
        <time>2023-07-02T13:11:57+0200</time>
      </trkpt>
      <trkpt lat="44.95129" lon="6.62725">
        <ele>2324.4</ele>
        <time>2023-07-02T13:11:58+0200</time>
      </trkpt>
      <trkpt lat="44.95121" lon="6.62725">
        <ele>2324.8</ele>
        <time>2023-07-02T13:11:59+0200</time>
      </trkpt>
      <trkpt lat="44.95115" lon="6.62724">
        <ele>2325.1</ele>
        <time>2023-07-02T13:12:00+0200</time>
      </trkpt>
      <trkpt lat="44.9511" lon="6.62723">
        <ele>2325.2</ele>
        <time>2023-07-02T13:12:01+0200</time>
      </trkpt>
      <trkpt lat="44.95105" lon="6.62719">
        <ele>2324.8</ele>
        <time>2023-07-02T13:12:02+0200</time>
      </trkpt>
      <trkpt lat="44.95099" lon="6.6272">
        <ele>2325</ele>
        <time>2023-07-02T13:12:03+0200</time>
      </trkpt>
      <trkpt lat="44.9509" lon="6.62721">
        <ele>2325.6</ele>
        <time>2023-07-02T13:12:05+0200</time>
      </trkpt>
      <trkpt lat="44.95085" lon="6.62721">
        <ele>2325.8</ele>
        <time>2023-07-02T13:12:06+0200</time>
      </trkpt>
      <trkpt lat="44.9508" lon="6.62721">
        <ele>2326</ele>
        <time>2023-07-02T13:12:07+0200</time>
      </trkpt>
      <trkpt lat="44.95075" lon="6.62721">
        <ele>2326.1</ele>
        <time>2023-07-02T13:12:08+0200</time>
      </trkpt>
      <trkpt lat="44.95067" lon="6.62717">
        <ele>2325.9</ele>
        <time>2023-07-02T13:12:10+0200</time>
      </trkpt>
      <trkpt lat="44.95061" lon="6.62712">
        <ele>2325.4</ele>
        <time>2023-07-02T13:12:12+0200</time>
      </trkpt>
      <trkpt lat="44.95057" lon="6.62711">
        <ele>2325.3</ele>
        <time>2023-07-02T13:12:15+0200</time>
      </trkpt>
      <trkpt lat="44.95052" lon="6.62711">
        <ele>2324.7</ele>
        <time>2023-07-02T13:12:17+0200</time>
      </trkpt>
      <trkpt lat="44.95047" lon="6.62715">
        <ele>2324.3</ele>
        <time>2023-07-02T13:12:19+0200</time>
      </trkpt>
      <trkpt lat="44.95039" lon="6.62725">
        <ele>2324.4</ele>
        <time>2023-07-02T13:12:21+0200</time>
      </trkpt>
      <trkpt lat="44.95034" lon="6.62734">
        <ele>2324.8</ele>
        <time>2023-07-02T13:12:23+0200</time>
      </trkpt>
      <trkpt lat="44.95031" lon="6.62741">
        <ele>2325.2</ele>
        <time>2023-07-02T13:12:25+0200</time>
      </trkpt>
      <trkpt lat="44.95027" lon="6.62751">
        <ele>2326</ele>
        <time>2023-07-02T13:12:27+0200</time>
      </trkpt>
      <trkpt lat="44.95024" lon="6.62757">
        <ele>2327</ele>
        <time>2023-07-02T13:12:28+0200</time>
      </trkpt>
      <trkpt lat="44.95018" lon="6.62761">
        <ele>2327.7</ele>
        <time>2023-07-02T13:12:30+0200</time>
      </trkpt>
      <trkpt lat="44.9501" lon="6.62758">
        <ele>2326.6</ele>
        <time>2023-07-02T13:12:32+0200</time>
      </trkpt>
      <trkpt lat="44.95005" lon="6.62752">
        <ele>2324.2</ele>
        <time>2023-07-02T13:12:33+0200</time>
      </trkpt>
      <trkpt lat="44.95001" lon="6.62745">
        <ele>2322.1</ele>
        <time>2023-07-02T13:12:34+0200</time>
      </trkpt>
      <trkpt lat="44.94996" lon="6.62738">
        <ele>2320.6</ele>
        <time>2023-07-02T13:12:35+0200</time>
      </trkpt>
      <trkpt lat="44.94992" lon="6.62736">
        <ele>2320.2</ele>
        <time>2023-07-02T13:12:36+0200</time>
      </trkpt>
      <trkpt lat="44.94986" lon="6.62734">
        <ele>2319.7</ele>
        <time>2023-07-02T13:12:37+0200</time>
      </trkpt>
      <trkpt lat="44.9498" lon="6.62728">
        <ele>2317.6</ele>
        <time>2023-07-02T13:12:38+0200</time>
      </trkpt>
      <trkpt lat="44.94975" lon="6.62724">
        <ele>2316</ele>
        <time>2023-07-02T13:12:40+0200</time>
      </trkpt>
      <trkpt lat="44.94971" lon="6.6272">
        <ele>2314.1</ele>
        <time>2023-07-02T13:12:43+0200</time>
      </trkpt>
      <trkpt lat="44.94965" lon="6.62721">
        <ele>2313.6</ele>
        <time>2023-07-02T13:12:45+0200</time>
      </trkpt>
      <trkpt lat="44.9496" lon="6.62722">
        <ele>2313.3</ele>
        <time>2023-07-02T13:12:46+0200</time>
      </trkpt>
      <trkpt lat="44.94955" lon="6.62725">
        <ele>2313.3</ele>
        <time>2023-07-02T13:12:47+0200</time>
      </trkpt>
      <trkpt lat="44.9495" lon="6.62722">
        <ele>2311.8</ele>
        <time>2023-07-02T13:12:48+0200</time>
      </trkpt>
      <trkpt lat="44.94944" lon="6.62723">
        <ele>2311</ele>
        <time>2023-07-02T13:12:49+0200</time>
      </trkpt>
      <trkpt lat="44.94942" lon="6.62728">
        <ele>2312.2</ele>
        <time>2023-07-02T13:12:50+0200</time>
      </trkpt>
      <trkpt lat="44.94936" lon="6.62729">
        <ele>2311.2</ele>
        <time>2023-07-02T13:12:51+0200</time>
      </trkpt>
      <trkpt lat="44.94929" lon="6.62729">
        <ele>2309.6</ele>
        <time>2023-07-02T13:12:52+0200</time>
      </trkpt>
      <trkpt lat="44.94923" lon="6.62727">
        <ele>2307.7</ele>
        <time>2023-07-02T13:12:53+0200</time>
      </trkpt>
      <trkpt lat="44.94915" lon="6.62729">
        <ele>2306.6</ele>
        <time>2023-07-02T13:12:54+0200</time>
      </trkpt>
      <trkpt lat="44.94907" lon="6.62726">
        <ele>2305.7</ele>
        <time>2023-07-02T13:12:55+0200</time>
      </trkpt>
      <trkpt lat="44.94901" lon="6.62719">
        <ele>2304.6</ele>
        <time>2023-07-02T13:12:56+0200</time>
      </trkpt>
      <trkpt lat="44.94897" lon="6.62714">
        <ele>2303.9</ele>
        <time>2023-07-02T13:12:57+0200</time>
      </trkpt>
      <trkpt lat="44.9489" lon="6.62713">
        <ele>2303.6</ele>
        <time>2023-07-02T13:12:58+0200</time>
      </trkpt>
      <trkpt lat="44.94884" lon="6.62712">
        <ele>2303.1</ele>
        <time>2023-07-02T13:12:59+0200</time>
      </trkpt>
      <trkpt lat="44.94878" lon="6.62714">
        <ele>2302.9</ele>
        <time>2023-07-02T13:13:00+0200</time>
      </trkpt>
      <trkpt lat="44.94871" lon="6.62717">
        <ele>2302.7</ele>
        <time>2023-07-02T13:13:01+0200</time>
      </trkpt>
      <trkpt lat="44.94865" lon="6.62718">
        <ele>2302.5</ele>
        <time>2023-07-02T13:13:02+0200</time>
      </trkpt>
      <trkpt lat="44.94859" lon="6.6272">
        <ele>2302.4</ele>
        <time>2023-07-02T13:13:03+0200</time>
      </trkpt>
      <trkpt lat="44.94853" lon="6.62723">
        <ele>2302.5</ele>
        <time>2023-07-02T13:13:04+0200</time>
      </trkpt>
      <trkpt lat="44.94848" lon="6.62727">
        <ele>2302.7</ele>
        <time>2023-07-02T13:13:05+0200</time>
      </trkpt>
      <trkpt lat="44.94845" lon="6.62736">
        <ele>2303.8</ele>
        <time>2023-07-02T13:13:06+0200</time>
      </trkpt>
      <trkpt lat="44.94842" lon="6.62741">
        <ele>2304.4</ele>
        <time>2023-07-02T13:13:07+0200</time>
      </trkpt>
      <trkpt lat="44.94839" lon="6.62748">
        <ele>2305.1</ele>
        <time>2023-07-02T13:13:09+0200</time>
      </trkpt>
      <trkpt lat="44.94835" lon="6.62754">
        <ele>2305.7</ele>
        <time>2023-07-02T13:13:12+0200</time>
      </trkpt>
      <trkpt lat="44.94832" lon="6.62759">
        <ele>2306.3</ele>
        <time>2023-07-02T13:13:14+0200</time>
      </trkpt>
      <trkpt lat="44.94828" lon="6.62762">
        <ele>2306.8</ele>
        <time>2023-07-02T13:13:16+0200</time>
      </trkpt>
      <trkpt lat="44.94823" lon="6.62766">
        <ele>2307.4</ele>
        <time>2023-07-02T13:13:19+0200</time>
      </trkpt>
      <trkpt lat="44.94819" lon="6.62772">
        <ele>2308</ele>
        <time>2023-07-02T13:13:22+0200</time>
      </trkpt>
      <trkpt lat="44.94814" lon="6.62776">
        <ele>2308.1</ele>
        <time>2023-07-02T13:13:25+0200</time>
      </trkpt>
      <trkpt lat="44.94811" lon="6.6278">
        <ele>2308.6</ele>
        <time>2023-07-02T13:13:28+0200</time>
      </trkpt>
      <trkpt lat="44.94807" lon="6.62786">
        <ele>2309.5</ele>
        <time>2023-07-02T13:13:30+0200</time>
      </trkpt>
      <trkpt lat="44.94803" lon="6.6279">
        <ele>2310.4</ele>
        <time>2023-07-02T13:13:33+0200</time>
      </trkpt>
      <trkpt lat="44.94801" lon="6.62797">
        <ele>2311.6</ele>
        <time>2023-07-02T13:13:36+0200</time>
      </trkpt>
      <trkpt lat="44.94796" lon="6.62796">
        <ele>2311.7</ele>
        <time>2023-07-02T13:13:41+0200</time>
      </trkpt>
      <trkpt lat="44.94792" lon="6.62799">
        <ele>2312.4</ele>
        <time>2023-07-02T13:13:45+0200</time>
      </trkpt>
      <trkpt lat="44.94791" lon="6.62805">
        <ele>2313.5</ele>
        <time>2023-07-02T13:13:50+0200</time>
      </trkpt>
      <trkpt lat="44.94785" lon="6.62807">
        <ele>2314.2</ele>
        <time>2023-07-02T13:13:54+0200</time>
      </trkpt>
      <trkpt lat="44.94781" lon="6.62812">
        <ele>2315.5</ele>
        <time>2023-07-02T13:13:57+0200</time>
      </trkpt>
      <trkpt lat="44.94777" lon="6.62815">
        <ele>2316.5</ele>
        <time>2023-07-02T13:14:00+0200</time>
      </trkpt>
      <trkpt lat="44.94772" lon="6.62816">
        <ele>2317.2</ele>
        <time>2023-07-02T13:14:04+0200</time>
      </trkpt>
      <trkpt lat="44.94767" lon="6.62818">
        <ele>2318.3</ele>
        <time>2023-07-02T13:14:08+0200</time>
      </trkpt>
      <trkpt lat="44.94761" lon="6.62818">
        <ele>2319</ele>
        <time>2023-07-02T13:14:12+0200</time>
      </trkpt>
      <trkpt lat="44.94756" lon="6.62817">
        <ele>2319.4</ele>
        <time>2023-07-02T13:14:16+0200</time>
      </trkpt>
      <trkpt lat="44.94752" lon="6.6282">
        <ele>2320.3</ele>
        <time>2023-07-02T13:14:20+0200</time>
      </trkpt>
      <trkpt lat="44.94746" lon="6.62819">
        <ele>2320.6</ele>
        <time>2023-07-02T13:14:25+0200</time>
      </trkpt>
      <trkpt lat="44.94741" lon="6.62821">
        <ele>2321.1</ele>
        <time>2023-07-02T13:14:28+0200</time>
      </trkpt>
      <trkpt lat="44.94736" lon="6.62823">
        <ele>2321.7</ele>
        <time>2023-07-02T13:14:31+0200</time>
      </trkpt>
      <trkpt lat="44.94731" lon="6.62823">
        <ele>2321.8</ele>
        <time>2023-07-02T13:14:36+0200</time>
      </trkpt>
      <trkpt lat="44.94725" lon="6.62824">
        <ele>2322.2</ele>
        <time>2023-07-02T13:14:41+0200</time>
      </trkpt>
      <trkpt lat="44.94721" lon="6.6283">
        <ele>2322.9</ele>
        <time>2023-07-02T13:14:47+0200</time>
      </trkpt>
      <trkpt lat="44.94721" lon="6.62837">
        <ele>2323.9</ele>
        <time>2023-07-02T13:14:51+0200</time>
      </trkpt>
      <trkpt lat="44.94722" lon="6.62845">
        <ele>2325.6</ele>
        <time>2023-07-02T13:14:55+0200</time>
      </trkpt>
      <trkpt lat="44.94722" lon="6.62853">
        <ele>2326.6</ele>
        <time>2023-07-02T13:14:59+0200</time>
      </trkpt>
      <trkpt lat="44.94722" lon="6.6286">
        <ele>2327.6</ele>
        <time>2023-07-02T13:15:02+0200</time>
      </trkpt>
      <trkpt lat="44.94722" lon="6.62867">
        <ele>2328.8</ele>
        <time>2023-07-02T13:15:05+0200</time>
      </trkpt>
      <trkpt lat="44.94721" lon="6.62873">
        <ele>2329.2</ele>
        <time>2023-07-02T13:15:08+0200</time>
      </trkpt>
      <trkpt lat="44.94721" lon="6.62881">
        <ele>2330.4</ele>
        <time>2023-07-02T13:15:11+0200</time>
      </trkpt>
      <trkpt lat="44.94722" lon="6.62888">
        <ele>2331.6</ele>
        <time>2023-07-02T13:15:15+0200</time>
      </trkpt>
      <trkpt lat="44.9472" lon="6.62895">
        <ele>2331.8</ele>
        <time>2023-07-02T13:15:19+0200</time>
      </trkpt>
      <trkpt lat="44.94719" lon="6.62903">
        <ele>2332.5</ele>
        <time>2023-07-02T13:15:22+0200</time>
      </trkpt>
      <trkpt lat="44.94717" lon="6.6291">
        <ele>2332.7</ele>
        <time>2023-07-02T13:15:25+0200</time>
      </trkpt>
      <trkpt lat="44.94718" lon="6.62918">
        <ele>2334</ele>
        <time>2023-07-02T13:15:28+0200</time>
      </trkpt>
      <trkpt lat="44.94718" lon="6.62925">
        <ele>2333.6</ele>
        <time>2023-07-02T13:15:32+0200</time>
      </trkpt>
      <trkpt lat="44.94717" lon="6.62934">
        <ele>2333</ele>
        <time>2023-07-02T13:15:36+0200</time>
      </trkpt>
      <trkpt lat="44.94716" lon="6.6294">
        <ele>2332.4</ele>
        <time>2023-07-02T13:15:40+0200</time>
      </trkpt>
      <trkpt lat="44.94719" lon="6.62948">
        <ele>2334.1</ele>
        <time>2023-07-02T13:15:43+0200</time>
      </trkpt>
      <trkpt lat="44.94723" lon="6.62954">
        <ele>2336.9</ele>
        <time>2023-07-02T13:15:45+0200</time>
      </trkpt>
      <trkpt lat="44.94727" lon="6.6296">
        <ele>2339</ele>
        <time>2023-07-02T13:15:47+0200</time>
      </trkpt>
      <trkpt lat="44.94725" lon="6.62968">
        <ele>2338.5</ele>
        <time>2023-07-02T13:15:49+0200</time>
      </trkpt>
      <trkpt lat="44.9472" lon="6.62975">
        <ele>2336.9</ele>
        <time>2023-07-02T13:15:52+0200</time>
      </trkpt>
      <trkpt lat="44.94718" lon="6.62981">
        <ele>2337.1</ele>
        <time>2023-07-02T13:15:54+0200</time>
      </trkpt>
      <trkpt lat="44.94714" lon="6.62984">
        <ele>2336.2</ele>
        <time>2023-07-02T13:15:56+0200</time>
      </trkpt>
      <trkpt lat="44.94708" lon="6.62988">
        <ele>2334.5</ele>
        <time>2023-07-02T13:15:59+0200</time>
      </trkpt>
      <trkpt lat="44.947" lon="6.62992">
        <ele>2332.3</ele>
        <time>2023-07-02T13:16:01+0200</time>
      </trkpt>
      <trkpt lat="44.94692" lon="6.62996">
        <ele>2330.4</ele>
        <time>2023-07-02T13:16:03+0200</time>
      </trkpt>
      <trkpt lat="44.94687" lon="6.63">
        <ele>2331.2</ele>
        <time>2023-07-02T13:16:04+0200</time>
      </trkpt>
      <trkpt lat="44.94682" lon="6.63005">
        <ele>2331.2</ele>
        <time>2023-07-02T13:16:05+0200</time>
      </trkpt>
      <trkpt lat="44.94678" lon="6.63007">
        <ele>2330.9</ele>
        <time>2023-07-02T13:16:07+0200</time>
      </trkpt>
      <trkpt lat="44.94671" lon="6.63008">
        <ele>2329.2</ele>
        <time>2023-07-02T13:16:09+0200</time>
      </trkpt>
      <trkpt lat="44.94665" lon="6.63009">
        <ele>2327.5</ele>
        <time>2023-07-02T13:16:11+0200</time>
      </trkpt>
      <trkpt lat="44.94662" lon="6.63013">
        <ele>2327.3</ele>
        <time>2023-07-02T13:16:13+0200</time>
      </trkpt>
      <trkpt lat="44.9466" lon="6.63023">
        <ele>2329.1</ele>
        <time>2023-07-02T13:16:15+0200</time>
      </trkpt>
      <trkpt lat="44.94659" lon="6.63032">
        <ele>2331.5</ele>
        <time>2023-07-02T13:16:17+0200</time>
      </trkpt>
      <trkpt lat="44.94656" lon="6.63042">
        <ele>2333.3</ele>
        <time>2023-07-02T13:16:19+0200</time>
      </trkpt>
      <trkpt lat="44.94651" lon="6.63044">
        <ele>2332.7</ele>
        <time>2023-07-02T13:16:20+0200</time>
      </trkpt>
      <trkpt lat="44.94643" lon="6.63042">
        <ele>2329.6</ele>
        <time>2023-07-02T13:16:22+0200</time>
      </trkpt>
      <trkpt lat="44.94635" lon="6.63037">
        <ele>2326.4</ele>
        <time>2023-07-02T13:16:24+0200</time>
      </trkpt>
      <trkpt lat="44.94628" lon="6.63041">
        <ele>2328.5</ele>
        <time>2023-07-02T13:16:26+0200</time>
      </trkpt>
      <trkpt lat="44.94621" lon="6.63039">
        <ele>2327.7</ele>
        <time>2023-07-02T13:16:28+0200</time>
      </trkpt>
      <trkpt lat="44.94616" lon="6.63031">
        <ele>2324.2</ele>
        <time>2023-07-02T13:16:30+0200</time>
      </trkpt>
      <trkpt lat="44.94611" lon="6.63028">
        <ele>2323.3</ele>
        <time>2023-07-02T13:16:32+0200</time>
      </trkpt>
      <trkpt lat="44.94603" lon="6.63033">
        <ele>2325.4</ele>
        <time>2023-07-02T13:16:34+0200</time>
      </trkpt>
      <trkpt lat="44.94594" lon="6.63028">
        <ele>2323.6</ele>
        <time>2023-07-02T13:16:36+0200</time>
      </trkpt>
      <trkpt lat="44.94589" lon="6.63028">
        <ele>2323.9</ele>
        <time>2023-07-02T13:16:37+0200</time>
      </trkpt>
      <trkpt lat="44.94584" lon="6.63031">
        <ele>2325.4</ele>
        <time>2023-07-02T13:16:38+0200</time>
      </trkpt>
      <trkpt lat="44.94576" lon="6.63031">
        <ele>2324.7</ele>
        <time>2023-07-02T13:16:40+0200</time>
      </trkpt>
      <trkpt lat="44.94569" lon="6.63031">
        <ele>2323.7</ele>
        <time>2023-07-02T13:16:42+0200</time>
      </trkpt>
      <trkpt lat="44.94561" lon="6.63031">
        <ele>2323</ele>
        <time>2023-07-02T13:16:44+0200</time>
      </trkpt>
      <trkpt lat="44.94555" lon="6.63034">
        <ele>2323.6</ele>
        <time>2023-07-02T13:16:46+0200</time>
      </trkpt>
      <trkpt lat="44.94549" lon="6.63034">
        <ele>2322.6</ele>
        <time>2023-07-02T13:16:48+0200</time>
      </trkpt>
      <trkpt lat="44.94542" lon="6.63036">
        <ele>2322</ele>
        <time>2023-07-02T13:16:50+0200</time>
      </trkpt>
      <trkpt lat="44.94534" lon="6.63037">
        <ele>2321.1</ele>
        <time>2023-07-02T13:16:52+0200</time>
      </trkpt>
      <trkpt lat="44.94524" lon="6.6304">
        <ele>2320.1</ele>
        <time>2023-07-02T13:16:54+0200</time>
      </trkpt>
      <trkpt lat="44.94515" lon="6.63042">
        <ele>2318.3</ele>
        <time>2023-07-02T13:16:56+0200</time>
      </trkpt>
      <trkpt lat="44.9451" lon="6.63047">
        <ele>2319.1</ele>
        <time>2023-07-02T13:16:57+0200</time>
      </trkpt>
      <trkpt lat="44.94505" lon="6.63052">
        <ele>2319.7</ele>
        <time>2023-07-02T13:16:58+0200</time>
      </trkpt>
      <trkpt lat="44.945" lon="6.63056">
        <ele>2320.3</ele>
        <time>2023-07-02T13:16:59+0200</time>
      </trkpt>
      <trkpt lat="44.94495" lon="6.63062">
        <ele>2321.2</ele>
        <time>2023-07-02T13:17:00+0200</time>
      </trkpt>
      <trkpt lat="44.94488" lon="6.63067">
        <ele>2321.3</ele>
        <time>2023-07-02T13:17:01+0200</time>
      </trkpt>
      <trkpt lat="44.94482" lon="6.63073">
        <ele>2322.1</ele>
        <time>2023-07-02T13:17:02+0200</time>
      </trkpt>
      <trkpt lat="44.94475" lon="6.63079">
        <ele>2323.2</ele>
        <time>2023-07-02T13:17:03+0200</time>
      </trkpt>
      <trkpt lat="44.94468" lon="6.6308">
        <ele>2322.1</ele>
        <time>2023-07-02T13:17:04+0200</time>
      </trkpt>
      <trkpt lat="44.94462" lon="6.63079">
        <ele>2320.4</ele>
        <time>2023-07-02T13:17:05+0200</time>
      </trkpt>
      <trkpt lat="44.94454" lon="6.63082">
        <ele>2320.5</ele>
        <time>2023-07-02T13:17:07+0200</time>
      </trkpt>
      <trkpt lat="44.94449" lon="6.63086">
        <ele>2321.4</ele>
        <time>2023-07-02T13:17:08+0200</time>
      </trkpt>
      <trkpt lat="44.94443" lon="6.63087">
        <ele>2320.9</ele>
        <time>2023-07-02T13:17:09+0200</time>
      </trkpt>
      <trkpt lat="44.94437" lon="6.63089">
        <ele>2321.2</ele>
        <time>2023-07-02T13:17:10+0200</time>
      </trkpt>
      <trkpt lat="44.94433" lon="6.63088">
        <ele>2320</ele>
        <time>2023-07-02T13:17:11+0200</time>
      </trkpt>
      <trkpt lat="44.94426" lon="6.63086">
        <ele>2317.5</ele>
        <time>2023-07-02T13:17:13+0200</time>
      </trkpt>
      <trkpt lat="44.94417" lon="6.63082">
        <ele>2314.4</ele>
        <time>2023-07-02T13:17:15+0200</time>
      </trkpt>
      <trkpt lat="44.94408" lon="6.63082">
        <ele>2313.4</ele>
        <time>2023-07-02T13:17:17+0200</time>
      </trkpt>
      <trkpt lat="44.94403" lon="6.63083">
        <ele>2313.4</ele>
        <time>2023-07-02T13:17:18+0200</time>
      </trkpt>
      <trkpt lat="44.94397" lon="6.63086">
        <ele>2314.1</ele>
        <time>2023-07-02T13:17:19+0200</time>
      </trkpt>
      <trkpt lat="44.94391" lon="6.63087">
        <ele>2314.2</ele>
        <time>2023-07-02T13:17:20+0200</time>
      </trkpt>
      <trkpt lat="44.94383" lon="6.63087">
        <ele>2313.4</ele>
        <time>2023-07-02T13:17:21+0200</time>
      </trkpt>
      <trkpt lat="44.94377" lon="6.63088">
        <ele>2312.9</ele>
        <time>2023-07-02T13:17:22+0200</time>
      </trkpt>
      <trkpt lat="44.9437" lon="6.63088">
        <ele>2311.6</ele>
        <time>2023-07-02T13:17:23+0200</time>
      </trkpt>
      <trkpt lat="44.94361" lon="6.6309">
        <ele>2311.3</ele>
        <time>2023-07-02T13:17:25+0200</time>
      </trkpt>
      <trkpt lat="44.94355" lon="6.63092">
        <ele>2311.8</ele>
        <time>2023-07-02T13:17:26+0200</time>
      </trkpt>
      <trkpt lat="44.94346" lon="6.63096">
        <ele>2312.2</ele>
        <time>2023-07-02T13:17:28+0200</time>
      </trkpt>
      <trkpt lat="44.94342" lon="6.63097">
        <ele>2311.7</ele>
        <time>2023-07-02T13:17:29+0200</time>
      </trkpt>
      <trkpt lat="44.94336" lon="6.63098">
        <ele>2311.3</ele>
        <time>2023-07-02T13:17:30+0200</time>
      </trkpt>
      <trkpt lat="44.94331" lon="6.631">
        <ele>2311.3</ele>
        <time>2023-07-02T13:17:31+0200</time>
      </trkpt>
      <trkpt lat="44.94321" lon="6.63102">
        <ele>2311.1</ele>
        <time>2023-07-02T13:17:33+0200</time>
      </trkpt>
      <trkpt lat="44.94315" lon="6.63105">
        <ele>2311.2</ele>
        <time>2023-07-02T13:17:34+0200</time>
      </trkpt>
      <trkpt lat="44.94309" lon="6.6311">
        <ele>2311.4</ele>
        <time>2023-07-02T13:17:36+0200</time>
      </trkpt>
      <trkpt lat="44.94305" lon="6.63112">
        <ele>2310.8</ele>
        <time>2023-07-02T13:17:37+0200</time>
      </trkpt>
      <trkpt lat="44.943" lon="6.63113">
        <ele>2309.6</ele>
        <time>2023-07-02T13:17:38+0200</time>
      </trkpt>
      <trkpt lat="44.94296" lon="6.6311">
        <ele>2308.6</ele>
        <time>2023-07-02T13:17:41+0200</time>
      </trkpt>
      <trkpt lat="44.9429" lon="6.63108">
        <ele>2307.2</ele>
        <time>2023-07-02T13:17:42+0200</time>
      </trkpt>
      <trkpt lat="44.94285" lon="6.63108">
        <ele>2306</ele>
        <time>2023-07-02T13:17:44+0200</time>
      </trkpt>
      <trkpt lat="44.94278" lon="6.63103">
        <ele>2305.3</ele>
        <time>2023-07-02T13:17:46+0200</time>
      </trkpt>
      <trkpt lat="44.94274" lon="6.631">
        <ele>2304.7</ele>
        <time>2023-07-02T13:17:47+0200</time>
      </trkpt>
      <trkpt lat="44.94269" lon="6.63096">
        <ele>2304.6</ele>
        <time>2023-07-02T13:17:49+0200</time>
      </trkpt>
      <trkpt lat="44.94262" lon="6.63098">
        <ele>2302.8</ele>
        <time>2023-07-02T13:17:50+0200</time>
      </trkpt>
      <trkpt lat="44.94257" lon="6.63099">
        <ele>2301.5</ele>
        <time>2023-07-02T13:17:51+0200</time>
      </trkpt>
      <trkpt lat="44.94252" lon="6.63098">
        <ele>2300.6</ele>
        <time>2023-07-02T13:17:52+0200</time>
      </trkpt>
      <trkpt lat="44.94247" lon="6.63098">
        <ele>2299.3</ele>
        <time>2023-07-02T13:17:53+0200</time>
      </trkpt>
      <trkpt lat="44.94243" lon="6.63101">
        <ele>2297</ele>
        <time>2023-07-02T13:17:57+0200</time>
      </trkpt>
      <trkpt lat="44.94247" lon="6.63106">
        <ele>2297.3</ele>
        <time>2023-07-02T13:18:00+0200</time>
      </trkpt>
      <trkpt lat="44.94252" lon="6.63113">
        <ele>2296.9</ele>
        <time>2023-07-02T13:18:02+0200</time>
      </trkpt>
      <trkpt lat="44.94256" lon="6.63116">
        <ele>2297.2</ele>
        <time>2023-07-02T13:18:03+0200</time>
      </trkpt>
      <trkpt lat="44.94258" lon="6.63123">
        <ele>2296.2</ele>
        <time>2023-07-02T13:18:05+0200</time>
      </trkpt>
      <trkpt lat="44.94262" lon="6.63132">
        <ele>2295.4</ele>
        <time>2023-07-02T13:18:07+0200</time>
      </trkpt>
      <trkpt lat="44.94266" lon="6.63138">
        <ele>2295.4</ele>
        <time>2023-07-02T13:18:09+0200</time>
      </trkpt>
      <trkpt lat="44.9427" lon="6.63143">
        <ele>2295.6</ele>
        <time>2023-07-02T13:18:10+0200</time>
      </trkpt>
      <trkpt lat="44.94271" lon="6.63153">
        <ele>2293.9</ele>
        <time>2023-07-02T13:18:12+0200</time>
      </trkpt>
      <trkpt lat="44.9427" lon="6.63163">
        <ele>2291.3</ele>
        <time>2023-07-02T13:18:14+0200</time>
      </trkpt>
      <trkpt lat="44.94269" lon="6.63154">
        <ele>2292.5</ele>
        <time>2023-07-02T13:18:19+0200</time>
      </trkpt>
      <trkpt lat="44.94265" lon="6.63149">
        <ele>2292.4</ele>
        <time>2023-07-02T13:18:20+0200</time>
      </trkpt>
      <trkpt lat="44.9426" lon="6.63144">
        <ele>2291.7</ele>
        <time>2023-07-02T13:18:23+0200</time>
      </trkpt>
      <trkpt lat="44.94254" lon="6.6314">
        <ele>2290.9</ele>
        <time>2023-07-02T13:18:24+0200</time>
      </trkpt>
      <trkpt lat="44.94247" lon="6.63133">
        <ele>2289.9</ele>
        <time>2023-07-02T13:18:26+0200</time>
      </trkpt>
      <trkpt lat="44.9424" lon="6.63129">
        <ele>2287.8</ele>
        <time>2023-07-02T13:18:28+0200</time>
      </trkpt>
      <trkpt lat="44.94233" lon="6.63124">
        <ele>2286</ele>
        <time>2023-07-02T13:18:29+0200</time>
      </trkpt>
      <trkpt lat="44.94229" lon="6.6312">
        <ele>2285.7</ele>
        <time>2023-07-02T13:18:30+0200</time>
      </trkpt>
      <trkpt lat="44.94226" lon="6.63115">
        <ele>2286</ele>
        <time>2023-07-02T13:18:31+0200</time>
      </trkpt>
      <trkpt lat="44.94221" lon="6.63114">
        <ele>2284.5</ele>
        <time>2023-07-02T13:18:32+0200</time>
      </trkpt>
      <trkpt lat="44.94212" lon="6.63109">
        <ele>2281.8</ele>
        <time>2023-07-02T13:18:34+0200</time>
      </trkpt>
      <trkpt lat="44.94206" lon="6.63106">
        <ele>2280.1</ele>
        <time>2023-07-02T13:18:36+0200</time>
      </trkpt>
      <trkpt lat="44.94199" lon="6.63101">
        <ele>2278.1</ele>
        <time>2023-07-02T13:18:38+0200</time>
      </trkpt>
      <trkpt lat="44.94193" lon="6.63096">
        <ele>2276.8</ele>
        <time>2023-07-02T13:18:40+0200</time>
      </trkpt>
      <trkpt lat="44.94188" lon="6.6309">
        <ele>2276</ele>
        <time>2023-07-02T13:18:42+0200</time>
      </trkpt>
      <trkpt lat="44.94183" lon="6.63083">
        <ele>2275.8</ele>
        <time>2023-07-02T13:18:44+0200</time>
      </trkpt>
      <trkpt lat="44.94176" lon="6.6308">
        <ele>2272.5</ele>
        <time>2023-07-02T13:18:45+0200</time>
      </trkpt>
      <trkpt lat="44.94173" lon="6.63073">
        <ele>2270.6</ele>
        <time>2023-07-02T13:18:49+0200</time>
      </trkpt>
      <trkpt lat="44.94174" lon="6.63063">
        <ele>2271</ele>
        <time>2023-07-02T13:18:51+0200</time>
      </trkpt>
      <trkpt lat="44.94167" lon="6.63053">
        <ele>2267.3</ele>
        <time>2023-07-02T13:18:53+0200</time>
      </trkpt>
      <trkpt lat="44.94163" lon="6.63051">
        <ele>2265</ele>
        <time>2023-07-02T13:18:54+0200</time>
      </trkpt>
      <trkpt lat="44.94156" lon="6.63044">
        <ele>2260.3</ele>
        <time>2023-07-02T13:18:56+0200</time>
      </trkpt>
      <trkpt lat="44.94148" lon="6.63048">
        <ele>2259</ele>
        <time>2023-07-02T13:18:58+0200</time>
      </trkpt>
      <trkpt lat="44.94138" lon="6.63053">
        <ele>2257.7</ele>
        <time>2023-07-02T13:19:00+0200</time>
      </trkpt>
      <trkpt lat="44.94133" lon="6.63054">
        <ele>2257.2</ele>
        <time>2023-07-02T13:19:01+0200</time>
      </trkpt>
      <trkpt lat="44.9413" lon="6.63063">
        <ele>2256.6</ele>
        <time>2023-07-02T13:19:02+0200</time>
      </trkpt>
      <trkpt lat="44.94135" lon="6.63067">
        <ele>2257.3</ele>
        <time>2023-07-02T13:19:03+0200</time>
      </trkpt>
      <trkpt lat="44.94131" lon="6.63072">
        <ele>2256</ele>
        <time>2023-07-02T13:19:06+0200</time>
      </trkpt>
      <trkpt lat="44.94126" lon="6.63069">
        <ele>2255.3</ele>
        <time>2023-07-02T13:19:07+0200</time>
      </trkpt>
      <trkpt lat="44.94117" lon="6.63066">
        <ele>2253.6</ele>
        <time>2023-07-02T13:19:09+0200</time>
      </trkpt>
      <trkpt lat="44.94112" lon="6.63062">
        <ele>2252.6</ele>
        <time>2023-07-02T13:19:10+0200</time>
      </trkpt>
      <trkpt lat="44.94105" lon="6.63061">
        <ele>2251</ele>
        <time>2023-07-02T13:19:11+0200</time>
      </trkpt>
      <trkpt lat="44.94096" lon="6.63061">
        <ele>2249</ele>
        <time>2023-07-02T13:19:13+0200</time>
      </trkpt>
      <trkpt lat="44.94085" lon="6.63063">
        <ele>2246.2</ele>
        <time>2023-07-02T13:19:15+0200</time>
      </trkpt>
      <trkpt lat="44.94081" lon="6.63058">
        <ele>2246.1</ele>
        <time>2023-07-02T13:19:16+0200</time>
      </trkpt>
      <trkpt lat="44.94077" lon="6.63055">
        <ele>2245.4</ele>
        <time>2023-07-02T13:19:17+0200</time>
      </trkpt>
      <trkpt lat="44.9407" lon="6.63053">
        <ele>2243</ele>
        <time>2023-07-02T13:19:19+0200</time>
      </trkpt>
      <trkpt lat="44.94065" lon="6.63052">
        <ele>2241.5</ele>
        <time>2023-07-02T13:19:20+0200</time>
      </trkpt>
      <trkpt lat="44.94058" lon="6.63051">
        <ele>2239.7</ele>
        <time>2023-07-02T13:19:22+0200</time>
      </trkpt>
      <trkpt lat="44.94051" lon="6.63052">
        <ele>2239</ele>
        <time>2023-07-02T13:19:24+0200</time>
      </trkpt>
      <trkpt lat="44.94043" lon="6.6305">
        <ele>2237</ele>
        <time>2023-07-02T13:19:26+0200</time>
      </trkpt>
      <trkpt lat="44.94037" lon="6.63047">
        <ele>2234.7</ele>
        <time>2023-07-02T13:19:28+0200</time>
      </trkpt>
      <trkpt lat="44.9403" lon="6.63046">
        <ele>2233.4</ele>
        <time>2023-07-02T13:19:29+0200</time>
      </trkpt>
      <trkpt lat="44.94024" lon="6.63052">
        <ele>2233.9</ele>
        <time>2023-07-02T13:19:32+0200</time>
      </trkpt>
      <trkpt lat="44.94023" lon="6.63059">
        <ele>2234</ele>
        <time>2023-07-02T13:19:34+0200</time>
      </trkpt>
      <trkpt lat="44.94023" lon="6.63067">
        <ele>2232.4</ele>
        <time>2023-07-02T13:19:36+0200</time>
      </trkpt>
      <trkpt lat="44.94026" lon="6.63075">
        <ele>2231.5</ele>
        <time>2023-07-02T13:19:38+0200</time>
      </trkpt>
      <trkpt lat="44.9403" lon="6.63079">
        <ele>2231.3</ele>
        <time>2023-07-02T13:19:39+0200</time>
      </trkpt>
      <trkpt lat="44.94034" lon="6.63084">
        <ele>2230.8</ele>
        <time>2023-07-02T13:19:40+0200</time>
      </trkpt>
      <trkpt lat="44.94041" lon="6.63092">
        <ele>2228.5</ele>
        <time>2023-07-02T13:19:42+0200</time>
      </trkpt>
      <trkpt lat="44.94045" lon="6.63097">
        <ele>2226.8</ele>
        <time>2023-07-02T13:19:43+0200</time>
      </trkpt>
      <trkpt lat="44.94051" lon="6.63102">
        <ele>2225.6</ele>
        <time>2023-07-02T13:19:44+0200</time>
      </trkpt>
      <trkpt lat="44.94057" lon="6.63107">
        <ele>2224.5</ele>
        <time>2023-07-02T13:19:45+0200</time>
      </trkpt>
      <trkpt lat="44.94063" lon="6.63113">
        <ele>2223.5</ele>
        <time>2023-07-02T13:19:46+0200</time>
      </trkpt>
      <trkpt lat="44.94067" lon="6.6312">
        <ele>2222.1</ele>
        <time>2023-07-02T13:19:47+0200</time>
      </trkpt>
      <trkpt lat="44.94073" lon="6.63126">
        <ele>2221.4</ele>
        <time>2023-07-02T13:19:48+0200</time>
      </trkpt>
      <trkpt lat="44.94079" lon="6.63132">
        <ele>2220.6</ele>
        <time>2023-07-02T13:19:49+0200</time>
      </trkpt>
      <trkpt lat="44.94083" lon="6.63139">
        <ele>2218.9</ele>
        <time>2023-07-02T13:19:50+0200</time>
      </trkpt>
      <trkpt lat="44.9409" lon="6.63144">
        <ele>2218.5</ele>
        <time>2023-07-02T13:19:52+0200</time>
      </trkpt>
      <trkpt lat="44.94095" lon="6.63146">
        <ele>2219.5</ele>
        <time>2023-07-02T13:19:53+0200</time>
      </trkpt>
      <trkpt lat="44.94099" lon="6.6315">
        <ele>2219.4</ele>
        <time>2023-07-02T13:19:55+0200</time>
      </trkpt>
      <trkpt lat="44.94106" lon="6.63153">
        <ele>2220.5</ele>
        <time>2023-07-02T13:19:59+0200</time>
      </trkpt>
      <trkpt lat="44.94111" lon="6.63156">
        <ele>2220.9</ele>
        <time>2023-07-02T13:20:02+0200</time>
      </trkpt>
      <trkpt lat="44.94117" lon="6.63161">
        <ele>2221.8</ele>
        <time>2023-07-02T13:20:04+0200</time>
      </trkpt>
      <trkpt lat="44.94125" lon="6.63165">
        <ele>2223.7</ele>
        <time>2023-07-02T13:20:06+0200</time>
      </trkpt>
      <trkpt lat="44.9412" lon="6.63166">
        <ele>2221.4</ele>
        <time>2023-07-02T13:20:12+0200</time>
      </trkpt>
      <trkpt lat="44.9412" lon="6.63176">
        <ele>2221.4</ele>
        <time>2023-07-02T13:20:15+0200</time>
      </trkpt>
      <trkpt lat="44.94124" lon="6.63181">
        <ele>2222.8</ele>
        <time>2023-07-02T13:20:17+0200</time>
      </trkpt>
      <trkpt lat="44.94126" lon="6.63187">
        <ele>2223.7</ele>
        <time>2023-07-02T13:20:18+0200</time>
      </trkpt>
      <trkpt lat="44.94121" lon="6.63192">
        <ele>2222.1</ele>
        <time>2023-07-02T13:20:20+0200</time>
      </trkpt>
      <trkpt lat="44.94115" lon="6.63187">
        <ele>2220.1</ele>
        <time>2023-07-02T13:20:23+0200</time>
      </trkpt>
      <trkpt lat="44.9411" lon="6.63183">
        <ele>2218.4</ele>
        <time>2023-07-02T13:20:26+0200</time>
      </trkpt>
      <trkpt lat="44.94106" lon="6.63182">
        <ele>2216.9</ele>
        <time>2023-07-02T13:20:27+0200</time>
      </trkpt>
      <trkpt lat="44.94099" lon="6.63182">
        <ele>2215</ele>
        <time>2023-07-02T13:20:29+0200</time>
      </trkpt>
      <trkpt lat="44.94094" lon="6.63182">
        <ele>2213.4</ele>
        <time>2023-07-02T13:20:34+0200</time>
      </trkpt>
      <trkpt lat="44.94089" lon="6.63189">
        <ele>2212.7</ele>
        <time>2023-07-02T13:20:37+0200</time>
      </trkpt>
      <trkpt lat="44.94085" lon="6.63195">
        <ele>2212.5</ele>
        <time>2023-07-02T13:20:39+0200</time>
      </trkpt>
      <trkpt lat="44.94078" lon="6.63196">
        <ele>2211.2</ele>
        <time>2023-07-02T13:20:42+0200</time>
      </trkpt>
      <trkpt lat="44.94074" lon="6.63199">
        <ele>2211.3</ele>
        <time>2023-07-02T13:20:43+0200</time>
      </trkpt>
      <trkpt lat="44.94069" lon="6.63202">
        <ele>2211.1</ele>
        <time>2023-07-02T13:20:44+0200</time>
      </trkpt>
      <trkpt lat="44.94063" lon="6.63203">
        <ele>2210</ele>
        <time>2023-07-02T13:20:45+0200</time>
      </trkpt>
      <trkpt lat="44.94058" lon="6.63204">
        <ele>2209.2</ele>
        <time>2023-07-02T13:20:46+0200</time>
      </trkpt>
      <trkpt lat="44.94053" lon="6.63209">
        <ele>2209.8</ele>
        <time>2023-07-02T13:20:47+0200</time>
      </trkpt>
      <trkpt lat="44.94044" lon="6.63215">
        <ele>2209.9</ele>
        <time>2023-07-02T13:20:49+0200</time>
      </trkpt>
      <trkpt lat="44.9404" lon="6.63217">
        <ele>2209.4</ele>
        <time>2023-07-02T13:20:50+0200</time>
      </trkpt>
      <trkpt lat="44.94032" lon="6.63221">
        <ele>2208.8</ele>
        <time>2023-07-02T13:20:52+0200</time>
      </trkpt>
      <trkpt lat="44.94023" lon="6.63226">
        <ele>2207.8</ele>
        <time>2023-07-02T13:20:54+0200</time>
      </trkpt>
      <trkpt lat="44.94018" lon="6.63231">
        <ele>2207.7</ele>
        <time>2023-07-02T13:20:55+0200</time>
      </trkpt>
      <trkpt lat="44.94009" lon="6.63236">
        <ele>2205.9</ele>
        <time>2023-07-02T13:20:57+0200</time>
      </trkpt>
      <trkpt lat="44.94004" lon="6.63239">
        <ele>2205.2</ele>
        <time>2023-07-02T13:20:58+0200</time>
      </trkpt>
      <trkpt lat="44.94" lon="6.63246">
        <ele>2205.7</ele>
        <time>2023-07-02T13:21:00+0200</time>
      </trkpt>
      <trkpt lat="44.93997" lon="6.63255">
        <ele>2206.5</ele>
        <time>2023-07-02T13:21:01+0200</time>
      </trkpt>
      <trkpt lat="44.93994" lon="6.63261">
        <ele>2206.8</ele>
        <time>2023-07-02T13:21:02+0200</time>
      </trkpt>
      <trkpt lat="44.9399" lon="6.6327">
        <ele>2206.5</ele>
        <time>2023-07-02T13:21:03+0200</time>
      </trkpt>
      <trkpt lat="44.93986" lon="6.63276">
        <ele>2205.6</ele>
        <time>2023-07-02T13:21:04+0200</time>
      </trkpt>
      <trkpt lat="44.93984" lon="6.63285">
        <ele>2205.2</ele>
        <time>2023-07-02T13:21:05+0200</time>
      </trkpt>
      <trkpt lat="44.93983" lon="6.63294">
        <ele>2205.4</ele>
        <time>2023-07-02T13:21:06+0200</time>
      </trkpt>
      <trkpt lat="44.93982" lon="6.63301">
        <ele>2205.6</ele>
        <time>2023-07-02T13:21:07+0200</time>
      </trkpt>
      <trkpt lat="44.93982" lon="6.63308">
        <ele>2206.2</ele>
        <time>2023-07-02T13:21:08+0200</time>
      </trkpt>
      <trkpt lat="44.93981" lon="6.63321">
        <ele>2205.8</ele>
        <time>2023-07-02T13:21:10+0200</time>
      </trkpt>
      <trkpt lat="44.93977" lon="6.63328">
        <ele>2204.5</ele>
        <time>2023-07-02T13:21:11+0200</time>
      </trkpt>
      <trkpt lat="44.93973" lon="6.63328">
        <ele>2201.8</ele>
        <time>2023-07-02T13:21:13+0200</time>
      </trkpt>
      <trkpt lat="44.93966" lon="6.63329">
        <ele>2199.2</ele>
        <time>2023-07-02T13:21:15+0200</time>
      </trkpt>
      <trkpt lat="44.9396" lon="6.63331">
        <ele>2197.2</ele>
        <time>2023-07-02T13:21:16+0200</time>
      </trkpt>
      <trkpt lat="44.93955" lon="6.63334">
        <ele>2195.9</ele>
        <time>2023-07-02T13:21:17+0200</time>
      </trkpt>
      <trkpt lat="44.93951" lon="6.63337">
        <ele>2195.2</ele>
        <time>2023-07-02T13:21:18+0200</time>
      </trkpt>
      <trkpt lat="44.93946" lon="6.63342">
        <ele>2195.4</ele>
        <time>2023-07-02T13:21:21+0200</time>
      </trkpt>
      <trkpt lat="44.93948" lon="6.63348">
        <ele>2198.1</ele>
        <time>2023-07-02T13:21:27+0200</time>
      </trkpt>
      <trkpt lat="44.93952" lon="6.63344">
        <ele>2198</ele>
        <time>2023-07-02T13:21:29+0200</time>
      </trkpt>
      <trkpt lat="44.9396" lon="6.63337">
        <ele>2198.4</ele>
        <time>2023-07-02T13:21:31+0200</time>
      </trkpt>
      <trkpt lat="44.93961" lon="6.6333">
        <ele>2197.4</ele>
        <time>2023-07-02T13:21:33+0200</time>
      </trkpt>
      <trkpt lat="44.9396" lon="6.63322">
        <ele>2196.2</ele>
        <time>2023-07-02T13:21:36+0200</time>
      </trkpt>
      <trkpt lat="44.93953" lon="6.6332">
        <ele>2192.9</ele>
        <time>2023-07-02T13:21:38+0200</time>
      </trkpt>
      <trkpt lat="44.93947" lon="6.63322">
        <ele>2190.9</ele>
        <time>2023-07-02T13:21:39+0200</time>
      </trkpt>
      <trkpt lat="44.93941" lon="6.63326">
        <ele>2189.7</ele>
        <time>2023-07-02T13:21:40+0200</time>
      </trkpt>
      <trkpt lat="44.93936" lon="6.63329">
        <ele>2188.5</ele>
        <time>2023-07-02T13:21:41+0200</time>
      </trkpt>
      <trkpt lat="44.93931" lon="6.63334">
        <ele>2188.5</ele>
        <time>2023-07-02T13:21:42+0200</time>
      </trkpt>
      <trkpt lat="44.93927" lon="6.63339">
        <ele>2188.8</ele>
        <time>2023-07-02T13:21:43+0200</time>
      </trkpt>
      <trkpt lat="44.93922" lon="6.63341">
        <ele>2188.3</ele>
        <time>2023-07-02T13:21:44+0200</time>
      </trkpt>
      <trkpt lat="44.93917" lon="6.63345">
        <ele>2187.9</ele>
        <time>2023-07-02T13:21:45+0200</time>
      </trkpt>
      <trkpt lat="44.93913" lon="6.63348">
        <ele>2187.6</ele>
        <time>2023-07-02T13:21:46+0200</time>
      </trkpt>
      <trkpt lat="44.93908" lon="6.6335">
        <ele>2186.5</ele>
        <time>2023-07-02T13:21:47+0200</time>
      </trkpt>
      <trkpt lat="44.93902" lon="6.63354">
        <ele>2186</ele>
        <time>2023-07-02T13:21:48+0200</time>
      </trkpt>
      <trkpt lat="44.93898" lon="6.63358">
        <ele>2186</ele>
        <time>2023-07-02T13:21:49+0200</time>
      </trkpt>
      <trkpt lat="44.93893" lon="6.6336">
        <ele>2185.1</ele>
        <time>2023-07-02T13:21:50+0200</time>
      </trkpt>
      <trkpt lat="44.93888" lon="6.63364">
        <ele>2184.2</ele>
        <time>2023-07-02T13:21:51+0200</time>
      </trkpt>
      <trkpt lat="44.93882" lon="6.63368">
        <ele>2183.1</ele>
        <time>2023-07-02T13:21:52+0200</time>
      </trkpt>
      <trkpt lat="44.93876" lon="6.6337">
        <ele>2181.2</ele>
        <time>2023-07-02T13:21:53+0200</time>
      </trkpt>
      <trkpt lat="44.93871" lon="6.63377">
        <ele>2180.2</ele>
        <time>2023-07-02T13:21:55+0200</time>
      </trkpt>
      <trkpt lat="44.93866" lon="6.6338">
        <ele>2178.9</ele>
        <time>2023-07-02T13:21:56+0200</time>
      </trkpt>
      <trkpt lat="44.93862" lon="6.63383">
        <ele>2177.4</ele>
        <time>2023-07-02T13:21:57+0200</time>
      </trkpt>
      <trkpt lat="44.93857" lon="6.63389">
        <ele>2175.3</ele>
        <time>2023-07-02T13:21:58+0200</time>
      </trkpt>
      <trkpt lat="44.93855" lon="6.63396">
        <ele>2174.7</ele>
        <time>2023-07-02T13:21:59+0200</time>
      </trkpt>
      <trkpt lat="44.93853" lon="6.63402">
        <ele>2173.7</ele>
        <time>2023-07-02T13:22:00+0200</time>
      </trkpt>
      <trkpt lat="44.93852" lon="6.63411">
        <ele>2174.2</ele>
        <time>2023-07-02T13:22:01+0200</time>
      </trkpt>
      <trkpt lat="44.93852" lon="6.6342">
        <ele>2174</ele>
        <time>2023-07-02T13:22:02+0200</time>
      </trkpt>
      <trkpt lat="44.93851" lon="6.63429">
        <ele>2173.6</ele>
        <time>2023-07-02T13:22:03+0200</time>
      </trkpt>
      <trkpt lat="44.93851" lon="6.63439">
        <ele>2173.4</ele>
        <time>2023-07-02T13:22:04+0200</time>
      </trkpt>
      <trkpt lat="44.93852" lon="6.63452">
        <ele>2174</ele>
        <time>2023-07-02T13:22:05+0200</time>
      </trkpt>
      <trkpt lat="44.93853" lon="6.63463">
        <ele>2174.5</ele>
        <time>2023-07-02T13:22:06+0200</time>
      </trkpt>
      <trkpt lat="44.93852" lon="6.63471">
        <ele>2173.6</ele>
        <time>2023-07-02T13:22:07+0200</time>
      </trkpt>
      <trkpt lat="44.9385" lon="6.63479">
        <ele>2173.8</ele>
        <time>2023-07-02T13:22:08+0200</time>
      </trkpt>
      <trkpt lat="44.93849" lon="6.63486">
        <ele>2174.7</ele>
        <time>2023-07-02T13:22:09+0200</time>
      </trkpt>
      <trkpt lat="44.93843" lon="6.63486">
        <ele>2172.2</ele>
        <time>2023-07-02T13:22:12+0200</time>
      </trkpt>
      <trkpt lat="44.93838" lon="6.63483">
        <ele>2169.2</ele>
        <time>2023-07-02T13:22:15+0200</time>
      </trkpt>
      <trkpt lat="44.93831" lon="6.6348">
        <ele>2165.6</ele>
        <time>2023-07-02T13:22:17+0200</time>
      </trkpt>
      <trkpt lat="44.93824" lon="6.63478">
        <ele>2164.1</ele>
        <time>2023-07-02T13:22:19+0200</time>
      </trkpt>
      <trkpt lat="44.93816" lon="6.63478">
        <ele>2163.1</ele>
        <time>2023-07-02T13:22:21+0200</time>
      </trkpt>
      <trkpt lat="44.93812" lon="6.63474">
        <ele>2160.6</ele>
        <time>2023-07-02T13:22:23+0200</time>
      </trkpt>
      <trkpt lat="44.93805" lon="6.63474">
        <ele>2159.6</ele>
        <time>2023-07-02T13:22:24+0200</time>
      </trkpt>
      <trkpt lat="44.93799" lon="6.63471">
        <ele>2158.5</ele>
        <time>2023-07-02T13:22:25+0200</time>
      </trkpt>
      <trkpt lat="44.93792" lon="6.63468">
        <ele>2157.3</ele>
        <time>2023-07-02T13:22:26+0200</time>
      </trkpt>
      <trkpt lat="44.93787" lon="6.63468">
        <ele>2157.1</ele>
        <time>2023-07-02T13:22:27+0200</time>
      </trkpt>
      <trkpt lat="44.93777" lon="6.63469">
        <ele>2157.7</ele>
        <time>2023-07-02T13:22:28+0200</time>
      </trkpt>
      <trkpt lat="44.93766" lon="6.63468">
        <ele>2157.3</ele>
        <time>2023-07-02T13:22:30+0200</time>
      </trkpt>
      <trkpt lat="44.93758" lon="6.63468">
        <ele>2157.2</ele>
        <time>2023-07-02T13:22:31+0200</time>
      </trkpt>
      <trkpt lat="44.93751" lon="6.63467">
        <ele>2156.8</ele>
        <time>2023-07-02T13:22:32+0200</time>
      </trkpt>
      <trkpt lat="44.93745" lon="6.63467">
        <ele>2156.6</ele>
        <time>2023-07-02T13:22:33+0200</time>
      </trkpt>
      <trkpt lat="44.93738" lon="6.63467">
        <ele>2155.8</ele>
        <time>2023-07-02T13:22:34+0200</time>
      </trkpt>
      <trkpt lat="44.93733" lon="6.63468">
        <ele>2155.8</ele>
        <time>2023-07-02T13:22:35+0200</time>
      </trkpt>
      <trkpt lat="44.93725" lon="6.63466">
        <ele>2154.6</ele>
        <time>2023-07-02T13:22:37+0200</time>
      </trkpt>
      <trkpt lat="44.9372" lon="6.63466">
        <ele>2153.6</ele>
        <time>2023-07-02T13:22:38+0200</time>
      </trkpt>
      <trkpt lat="44.9371" lon="6.63467">
        <ele>2152.2</ele>
        <time>2023-07-02T13:22:40+0200</time>
      </trkpt>
      <trkpt lat="44.93704" lon="6.6347">
        <ele>2152.1</ele>
        <time>2023-07-02T13:22:41+0200</time>
      </trkpt>
      <trkpt lat="44.93691" lon="6.63471">
        <ele>2149.4</ele>
        <time>2023-07-02T13:22:43+0200</time>
      </trkpt>
      <trkpt lat="44.93684" lon="6.63471">
        <ele>2147.1</ele>
        <time>2023-07-02T13:22:44+0200</time>
      </trkpt>
      <trkpt lat="44.93677" lon="6.63471">
        <ele>2144.9</ele>
        <time>2023-07-02T13:22:45+0200</time>
      </trkpt>
      <trkpt lat="44.93671" lon="6.63472">
        <ele>2143.3</ele>
        <time>2023-07-02T13:22:46+0200</time>
      </trkpt>
      <trkpt lat="44.93666" lon="6.63475">
        <ele>2142.3</ele>
        <time>2023-07-02T13:22:49+0200</time>
      </trkpt>
      <trkpt lat="44.93673" lon="6.63476">
        <ele>2144.9</ele>
        <time>2023-07-02T13:22:54+0200</time>
      </trkpt>
      <trkpt lat="44.93679" lon="6.63468">
        <ele>2144.7</ele>
        <time>2023-07-02T13:22:56+0200</time>
      </trkpt>
      <trkpt lat="44.93682" lon="6.63463">
        <ele>2143.9</ele>
        <time>2023-07-02T13:22:57+0200</time>
      </trkpt>
      <trkpt lat="44.93686" lon="6.63458">
        <ele>2143</ele>
        <time>2023-07-02T13:22:59+0200</time>
      </trkpt>
      <trkpt lat="44.93691" lon="6.6345">
        <ele>2141.4</ele>
        <time>2023-07-02T13:23:01+0200</time>
      </trkpt>
      <trkpt lat="44.93692" lon="6.63442">
        <ele>2138.4</ele>
        <time>2023-07-02T13:23:02+0200</time>
      </trkpt>
      <trkpt lat="44.93695" lon="6.63432">
        <ele>2134.9</ele>
        <time>2023-07-02T13:23:03+0200</time>
      </trkpt>
      <trkpt lat="44.93697" lon="6.63425">
        <ele>2132</ele>
        <time>2023-07-02T13:23:04+0200</time>
      </trkpt>
      <trkpt lat="44.937" lon="6.6342">
        <ele>2130.4</ele>
        <time>2023-07-02T13:23:05+0200</time>
      </trkpt>
      <trkpt lat="44.93703" lon="6.63414">
        <ele>2128.2</ele>
        <time>2023-07-02T13:23:06+0200</time>
      </trkpt>
      <trkpt lat="44.93708" lon="6.63409">
        <ele>2126.7</ele>
        <time>2023-07-02T13:23:08+0200</time>
      </trkpt>
      <trkpt lat="44.93705" lon="6.63403">
        <ele>2123.5</ele>
        <time>2023-07-02T13:23:13+0200</time>
      </trkpt>
      <trkpt lat="44.93697" lon="6.63401">
        <ele>2121.9</ele>
        <time>2023-07-02T13:23:15+0200</time>
      </trkpt>
      <trkpt lat="44.93693" lon="6.63398">
        <ele>2120.1</ele>
        <time>2023-07-02T13:23:17+0200</time>
      </trkpt>
      <trkpt lat="44.93687" lon="6.634">
        <ele>2120.2</ele>
        <time>2023-07-02T13:23:19+0200</time>
      </trkpt>
      <trkpt lat="44.93681" lon="6.63403">
        <ele>2120.2</ele>
        <time>2023-07-02T13:23:20+0200</time>
      </trkpt>
      <trkpt lat="44.93676" lon="6.63407">
        <ele>2120.6</ele>
        <time>2023-07-02T13:23:21+0200</time>
      </trkpt>
      <trkpt lat="44.93668" lon="6.6341">
        <ele>2120.5</ele>
        <time>2023-07-02T13:23:22+0200</time>
      </trkpt>
      <trkpt lat="44.93664" lon="6.63408">
        <ele>2118.9</ele>
        <time>2023-07-02T13:23:23+0200</time>
      </trkpt>
      <trkpt lat="44.93656" lon="6.63409">
        <ele>2118</ele>
        <time>2023-07-02T13:23:25+0200</time>
      </trkpt>
      <trkpt lat="44.9365" lon="6.63408">
        <ele>2116.5</ele>
        <time>2023-07-02T13:23:26+0200</time>
      </trkpt>
      <trkpt lat="44.93643" lon="6.63404">
        <ele>2113.8</ele>
        <time>2023-07-02T13:23:27+0200</time>
      </trkpt>
      <trkpt lat="44.93637" lon="6.63397">
        <ele>2110</ele>
        <time>2023-07-02T13:23:29+0200</time>
      </trkpt>
      <trkpt lat="44.9363" lon="6.63394">
        <ele>2107.8</ele>
        <time>2023-07-02T13:23:30+0200</time>
      </trkpt>
      <trkpt lat="44.93626" lon="6.63391">
        <ele>2105.8</ele>
        <time>2023-07-02T13:23:31+0200</time>
      </trkpt>
      <trkpt lat="44.9362" lon="6.63389">
        <ele>2104.4</ele>
        <time>2023-07-02T13:23:32+0200</time>
      </trkpt>
      <trkpt lat="44.93611" lon="6.63392">
        <ele>2103.9</ele>
        <time>2023-07-02T13:23:34+0200</time>
      </trkpt>
      <trkpt lat="44.93605" lon="6.63388">
        <ele>2101</ele>
        <time>2023-07-02T13:23:36+0200</time>
      </trkpt>
      <trkpt lat="44.93611" lon="6.63392">
        <ele>2104</ele>
        <time>2023-07-02T13:23:42+0200</time>
      </trkpt>
      <trkpt lat="44.93616" lon="6.63393">
        <ele>2105.1</ele>
        <time>2023-07-02T13:23:43+0200</time>
      </trkpt>
      <trkpt lat="44.93621" lon="6.63393">
        <ele>2105.9</ele>
        <time>2023-07-02T13:23:45+0200</time>
      </trkpt>
      <trkpt lat="44.93624" lon="6.63388">
        <ele>2104.4</ele>
        <time>2023-07-02T13:23:47+0200</time>
      </trkpt>
      <trkpt lat="44.93629" lon="6.63388">
        <ele>2105.1</ele>
        <time>2023-07-02T13:23:49+0200</time>
      </trkpt>
      <trkpt lat="44.93633" lon="6.63384">
        <ele>2104.2</ele>
        <time>2023-07-02T13:23:59+0200</time>
      </trkpt>
      <trkpt lat="44.93638" lon="6.63383">
        <ele>2104.2</ele>
        <time>2023-07-02T13:24:04+0200</time>
      </trkpt>
      <trkpt lat="44.93644" lon="6.63379">
        <ele>2103.8</ele>
        <time>2023-07-02T13:24:06+0200</time>
      </trkpt>
      <trkpt lat="44.93649" lon="6.63375">
        <ele>2103</ele>
        <time>2023-07-02T13:24:10+0200</time>
      </trkpt>
      <trkpt lat="44.93646" lon="6.63369">
        <ele>2099.7</ele>
        <time>2023-07-02T13:24:12+0200</time>
      </trkpt>
      <trkpt lat="44.93642" lon="6.63362">
        <ele>2096</ele>
        <time>2023-07-02T13:24:14+0200</time>
      </trkpt>
      <trkpt lat="44.93634" lon="6.63362">
        <ele>2094.9</ele>
        <time>2023-07-02T13:24:15+0200</time>
      </trkpt>
      <trkpt lat="44.93629" lon="6.63354">
        <ele>2090.3</ele>
        <time>2023-07-02T13:24:19+0200</time>
      </trkpt>
      <trkpt lat="44.93623" lon="6.63347">
        <ele>2085.8</ele>
        <time>2023-07-02T13:24:21+0200</time>
      </trkpt>
      <trkpt lat="44.93619" lon="6.63343">
        <ele>2082.8</ele>
        <time>2023-07-02T13:24:22+0200</time>
      </trkpt>
      <trkpt lat="44.93612" lon="6.63341">
        <ele>2080.3</ele>
        <time>2023-07-02T13:24:23+0200</time>
      </trkpt>
      <trkpt lat="44.93605" lon="6.63338">
        <ele>2077.7</ele>
        <time>2023-07-02T13:24:25+0200</time>
      </trkpt>
      <trkpt lat="44.936" lon="6.63337">
        <ele>2076.5</ele>
        <time>2023-07-02T13:24:26+0200</time>
      </trkpt>
      <trkpt lat="44.93594" lon="6.63336">
        <ele>2074.6</ele>
        <time>2023-07-02T13:24:27+0200</time>
      </trkpt>
      <trkpt lat="44.93588" lon="6.63334">
        <ele>2073.1</ele>
        <time>2023-07-02T13:24:28+0200</time>
      </trkpt>
      <trkpt lat="44.93582" lon="6.63337">
        <ele>2073.2</ele>
        <time>2023-07-02T13:24:29+0200</time>
      </trkpt>
      <trkpt lat="44.93577" lon="6.63334">
        <ele>2071.1</ele>
        <time>2023-07-02T13:24:31+0200</time>
      </trkpt>
      <trkpt lat="44.93569" lon="6.63337">
        <ele>2070.3</ele>
        <time>2023-07-02T13:24:35+0200</time>
      </trkpt>
      <trkpt lat="44.93565" lon="6.63334">
        <ele>2068.3</ele>
        <time>2023-07-02T13:24:37+0200</time>
      </trkpt>
      <trkpt lat="44.93569" lon="6.63333">
        <ele>2068.9</ele>
        <time>2023-07-02T13:24:43+0200</time>
      </trkpt>
      <trkpt lat="44.93566" lon="6.6333">
        <ele>2066.2</ele>
        <time>2023-07-02T13:24:47+0200</time>
      </trkpt>
      <trkpt lat="44.93559" lon="6.63328">
        <ele>2063.8</ele>
        <time>2023-07-02T13:24:52+0200</time>
      </trkpt>
      <trkpt lat="44.93551" lon="6.6333">
        <ele>2062.7</ele>
        <time>2023-07-02T13:24:54+0200</time>
      </trkpt>
      <trkpt lat="44.93544" lon="6.63331">
        <ele>2061</ele>
        <time>2023-07-02T13:24:56+0200</time>
      </trkpt>
      <trkpt lat="44.93539" lon="6.63337">
        <ele>2061.9</ele>
        <time>2023-07-02T13:24:58+0200</time>
      </trkpt>
      <trkpt lat="44.93535" lon="6.63343">
        <ele>2062.2</ele>
        <time>2023-07-02T13:24:59+0200</time>
      </trkpt>
      <trkpt lat="44.93533" lon="6.63349">
        <ele>2062.8</ele>
        <time>2023-07-02T13:25:00+0200</time>
      </trkpt>
      <trkpt lat="44.9353" lon="6.63355">
        <ele>2063.3</ele>
        <time>2023-07-02T13:25:01+0200</time>
      </trkpt>
      <trkpt lat="44.93528" lon="6.63364">
        <ele>2064.6</ele>
        <time>2023-07-02T13:25:02+0200</time>
      </trkpt>
      <trkpt lat="44.93524" lon="6.6337">
        <ele>2063.5</ele>
        <time>2023-07-02T13:25:03+0200</time>
      </trkpt>
      <trkpt lat="44.93521" lon="6.63377">
        <ele>2062.7</ele>
        <time>2023-07-02T13:25:04+0200</time>
      </trkpt>
      <trkpt lat="44.9352" lon="6.63383">
        <ele>2063.3</ele>
        <time>2023-07-02T13:25:05+0200</time>
      </trkpt>
      <trkpt lat="44.93514" lon="6.63385">
        <ele>2059.5</ele>
        <time>2023-07-02T13:25:08+0200</time>
      </trkpt>
      <trkpt lat="44.93519" lon="6.63383">
        <ele>2062.6</ele>
        <time>2023-07-02T13:25:12+0200</time>
      </trkpt>
      <trkpt lat="44.9352" lon="6.63374">
        <ele>2061.3</ele>
        <time>2023-07-02T13:25:14+0200</time>
      </trkpt>
      <trkpt lat="44.93518" lon="6.63368">
        <ele>2058.8</ele>
        <time>2023-07-02T13:25:15+0200</time>
      </trkpt>
      <trkpt lat="44.93519" lon="6.63361">
        <ele>2057.9</ele>
        <time>2023-07-02T13:25:16+0200</time>
      </trkpt>
      <trkpt lat="44.93516" lon="6.63352">
        <ele>2054.6</ele>
        <time>2023-07-02T13:25:17+0200</time>
      </trkpt>
      <trkpt lat="44.93514" lon="6.63347">
        <ele>2051.6</ele>
        <time>2023-07-02T13:25:18+0200</time>
      </trkpt>
      <trkpt lat="44.93511" lon="6.63341">
        <ele>2048.9</ele>
        <time>2023-07-02T13:25:19+0200</time>
      </trkpt>
      <trkpt lat="44.93509" lon="6.6333">
        <ele>2045.2</ele>
        <time>2023-07-02T13:25:22+0200</time>
      </trkpt>
      <trkpt lat="44.93512" lon="6.63323">
        <ele>2044.7</ele>
        <time>2023-07-02T13:25:23+0200</time>
      </trkpt>
      <trkpt lat="44.93516" lon="6.63315">
        <ele>2043.8</ele>
        <time>2023-07-02T13:25:25+0200</time>
      </trkpt>
      <trkpt lat="44.9352" lon="6.63309">
        <ele>2043.7</ele>
        <time>2023-07-02T13:25:26+0200</time>
      </trkpt>
      <trkpt lat="44.93524" lon="6.63301">
        <ele>2041.8</ele>
        <time>2023-07-02T13:25:28+0200</time>
      </trkpt>
      <trkpt lat="44.93529" lon="6.63295">
        <ele>2040.6</ele>
        <time>2023-07-02T13:25:30+0200</time>
      </trkpt>
      <trkpt lat="44.93528" lon="6.63289">
        <ele>2036.8</ele>
        <time>2023-07-02T13:25:34+0200</time>
      </trkpt>
      <trkpt lat="44.93517" lon="6.63293">
        <ele>2034.8</ele>
        <time>2023-07-02T13:25:37+0200</time>
      </trkpt>
      <trkpt lat="44.93507" lon="6.63295">
        <ele>2031.6</ele>
        <time>2023-07-02T13:25:39+0200</time>
      </trkpt>
      <trkpt lat="44.93502" lon="6.63296">
        <ele>2029.6</ele>
        <time>2023-07-02T13:25:41+0200</time>
      </trkpt>
      <trkpt lat="44.93496" lon="6.63298">
        <ele>2026.9</ele>
        <time>2023-07-02T13:25:42+0200</time>
      </trkpt>
      <trkpt lat="44.9349" lon="6.63305">
        <ele>2026.2</ele>
        <time>2023-07-02T13:25:44+0200</time>
      </trkpt>
      <trkpt lat="44.93487" lon="6.6331">
        <ele>2025.9</ele>
        <time>2023-07-02T13:25:45+0200</time>
      </trkpt>
      <trkpt lat="44.93486" lon="6.6332">
        <ele>2027.2</ele>
        <time>2023-07-02T13:25:47+0200</time>
      </trkpt>
      <trkpt lat="44.93486" lon="6.63327">
        <ele>2028.9</ele>
        <time>2023-07-02T13:25:48+0200</time>
      </trkpt>
      <trkpt lat="44.93482" lon="6.63336">
        <ele>2027.5</ele>
        <time>2023-07-02T13:25:50+0200</time>
      </trkpt>
      <trkpt lat="44.93479" lon="6.63341">
        <ele>2026</ele>
        <time>2023-07-02T13:25:51+0200</time>
      </trkpt>
      <trkpt lat="44.93477" lon="6.63348">
        <ele>2025.4</ele>
        <time>2023-07-02T13:25:52+0200</time>
      </trkpt>
      <trkpt lat="44.93475" lon="6.63355">
        <ele>2025.2</ele>
        <time>2023-07-02T13:25:53+0200</time>
      </trkpt>
      <trkpt lat="44.93474" lon="6.63363">
        <ele>2025.6</ele>
        <time>2023-07-02T13:25:54+0200</time>
      </trkpt>
      <trkpt lat="44.93468" lon="6.63371">
        <ele>2021.1</ele>
        <time>2023-07-02T13:25:56+0200</time>
      </trkpt>
      <trkpt lat="44.93466" lon="6.6338">
        <ele>2020.1</ele>
        <time>2023-07-02T13:25:58+0200</time>
      </trkpt>
      <trkpt lat="44.93465" lon="6.6339">
        <ele>2019.6</ele>
        <time>2023-07-02T13:26:00+0200</time>
      </trkpt>
      <trkpt lat="44.93462" lon="6.63395">
        <ele>2017.3</ele>
        <time>2023-07-02T13:26:03+0200</time>
      </trkpt>
      <trkpt lat="44.93463" lon="6.63403">
        <ele>2018.2</ele>
        <time>2023-07-02T13:26:05+0200</time>
      </trkpt>
      <trkpt lat="44.93462" lon="6.63414">
        <ele>2017.3</ele>
        <time>2023-07-02T13:26:07+0200</time>
      </trkpt>
      <trkpt lat="44.93461" lon="6.63421">
        <ele>2017.1</ele>
        <time>2023-07-02T13:26:08+0200</time>
      </trkpt>
      <trkpt lat="44.93461" lon="6.63429">
        <ele>2017.3</ele>
        <time>2023-07-02T13:26:09+0200</time>
      </trkpt>
      <trkpt lat="44.93459" lon="6.63444">
        <ele>2016.9</ele>
        <time>2023-07-02T13:26:11+0200</time>
      </trkpt>
      <trkpt lat="44.9346" lon="6.63453">
        <ele>2018</ele>
        <time>2023-07-02T13:26:12+0200</time>
      </trkpt>
      <trkpt lat="44.93459" lon="6.6346">
        <ele>2018.2</ele>
        <time>2023-07-02T13:26:13+0200</time>
      </trkpt>
      <trkpt lat="44.93457" lon="6.63466">
        <ele>2017.8</ele>
        <time>2023-07-02T13:26:14+0200</time>
      </trkpt>
      <trkpt lat="44.93452" lon="6.63469">
        <ele>2016.5</ele>
        <time>2023-07-02T13:26:17+0200</time>
      </trkpt>
      <trkpt lat="44.93447" lon="6.63464">
        <ele>2013.9</ele>
        <time>2023-07-02T13:26:20+0200</time>
      </trkpt>
      <trkpt lat="44.93442" lon="6.63461">
        <ele>2012.4</ele>
        <time>2023-07-02T13:26:22+0200</time>
      </trkpt>
      <trkpt lat="44.93439" lon="6.63455">
        <ele>2011.1</ele>
        <time>2023-07-02T13:26:24+0200</time>
      </trkpt>
      <trkpt lat="44.93433" lon="6.63451">
        <ele>2010.4</ele>
        <time>2023-07-02T13:26:26+0200</time>
      </trkpt>
      <trkpt lat="44.93429" lon="6.63448">
        <ele>2009.2</ele>
        <time>2023-07-02T13:26:28+0200</time>
      </trkpt>
      <trkpt lat="44.93424" lon="6.63445">
        <ele>2008.4</ele>
        <time>2023-07-02T13:26:30+0200</time>
      </trkpt>
      <trkpt lat="44.93419" lon="6.63445">
        <ele>2008.1</ele>
        <time>2023-07-02T13:26:32+0200</time>
      </trkpt>
      <trkpt lat="44.93414" lon="6.63443">
        <ele>2008.5</ele>
        <time>2023-07-02T13:26:33+0200</time>
      </trkpt>
      <trkpt lat="44.93406" lon="6.63444">
        <ele>2011.4</ele>
        <time>2023-07-02T13:26:35+0200</time>
      </trkpt>
      <trkpt lat="44.93397" lon="6.63441">
        <ele>2013.2</ele>
        <time>2023-07-02T13:26:37+0200</time>
      </trkpt>
      <trkpt lat="44.93388" lon="6.63435">
        <ele>2013.4</ele>
        <time>2023-07-02T13:26:39+0200</time>
      </trkpt>
      <trkpt lat="44.93384" lon="6.63431">
        <ele>2013</ele>
        <time>2023-07-02T13:26:41+0200</time>
      </trkpt>
      <trkpt lat="44.93379" lon="6.63427">
        <ele>2013.2</ele>
        <time>2023-07-02T13:26:43+0200</time>
      </trkpt>
      <trkpt lat="44.93374" lon="6.63421">
        <ele>2012.6</ele>
        <time>2023-07-02T13:26:46+0200</time>
      </trkpt>
      <trkpt lat="44.93374" lon="6.63414">
        <ele>2010.2</ele>
        <time>2023-07-02T13:26:48+0200</time>
      </trkpt>
      <trkpt lat="44.9337" lon="6.6341">
        <ele>2010.3</ele>
        <time>2023-07-02T13:26:51+0200</time>
      </trkpt>
      <trkpt lat="44.93368" lon="6.63404">
        <ele>2009</ele>
        <time>2023-07-02T13:26:54+0200</time>
      </trkpt>
      <trkpt lat="44.93364" lon="6.63397">
        <ele>2008.2</ele>
        <time>2023-07-02T13:26:56+0200</time>
      </trkpt>
      <trkpt lat="44.93362" lon="6.63391">
        <ele>2007.2</ele>
        <time>2023-07-02T13:26:58+0200</time>
      </trkpt>
      <trkpt lat="44.9336" lon="6.63382">
        <ele>2005.6</ele>
        <time>2023-07-02T13:27:01+0200</time>
      </trkpt>
      <trkpt lat="44.93357" lon="6.63375">
        <ele>2005</ele>
        <time>2023-07-02T13:27:03+0200</time>
      </trkpt>
      <trkpt lat="44.93353" lon="6.63368">
        <ele>2005.1</ele>
        <time>2023-07-02T13:27:05+0200</time>
      </trkpt>
      <trkpt lat="44.93347" lon="6.63364">
        <ele>2006.5</ele>
        <time>2023-07-02T13:27:07+0200</time>
      </trkpt>
      <trkpt lat="44.93344" lon="6.63358">
        <ele>2007</ele>
        <time>2023-07-02T13:27:08+0200</time>
      </trkpt>
      <trkpt lat="44.93337" lon="6.63351">
        <ele>2008.4</ele>
        <time>2023-07-02T13:27:10+0200</time>
      </trkpt>
      <trkpt lat="44.9333" lon="6.6335">
        <ele>2010.6</ele>
        <time>2023-07-02T13:27:12+0200</time>
      </trkpt>
      <trkpt lat="44.93325" lon="6.63349">
        <ele>2011.2</ele>
        <time>2023-07-02T13:27:13+0200</time>
      </trkpt>
      <trkpt lat="44.93319" lon="6.63347">
        <ele>2012</ele>
        <time>2023-07-02T13:27:14+0200</time>
      </trkpt>
      <trkpt lat="44.93312" lon="6.6335">
        <ele>2013.6</ele>
        <time>2023-07-02T13:27:16+0200</time>
      </trkpt>
      <trkpt lat="44.93305" lon="6.63348">
        <ele>2014.5</ele>
        <time>2023-07-02T13:27:18+0200</time>
      </trkpt>
      <trkpt lat="44.93305" lon="6.63341">
        <ele>2013.6</ele>
        <time>2023-07-02T13:27:20+0200</time>
      </trkpt>
      <trkpt lat="44.93299" lon="6.63336">
        <ele>2011.5</ele>
        <time>2023-07-02T13:27:23+0200</time>
      </trkpt>
      <trkpt lat="44.93292" lon="6.63339">
        <ele>2010.1</ele>
        <time>2023-07-02T13:27:24+0200</time>
      </trkpt>
      <trkpt lat="44.93288" lon="6.63344">
        <ele>2009.7</ele>
        <time>2023-07-02T13:27:25+0200</time>
      </trkpt>
      <trkpt lat="44.93286" lon="6.63351">
        <ele>2009.9</ele>
        <time>2023-07-02T13:27:27+0200</time>
      </trkpt>
      <trkpt lat="44.93281" lon="6.63357">
        <ele>2009.3</ele>
        <time>2023-07-02T13:27:29+0200</time>
      </trkpt>
      <trkpt lat="44.93277" lon="6.63364">
        <ele>2008.9</ele>
        <time>2023-07-02T13:27:31+0200</time>
      </trkpt>
      <trkpt lat="44.93272" lon="6.63372">
        <ele>2007.7</ele>
        <time>2023-07-02T13:27:33+0200</time>
      </trkpt>
      <trkpt lat="44.93271" lon="6.63384">
        <ele>2008.6</ele>
        <time>2023-07-02T13:27:35+0200</time>
      </trkpt>
      <trkpt lat="44.93269" lon="6.63392">
        <ele>2008.8</ele>
        <time>2023-07-02T13:27:37+0200</time>
      </trkpt>
      <trkpt lat="44.93268" lon="6.63405">
        <ele>2010</ele>
        <time>2023-07-02T13:27:39+0200</time>
      </trkpt>
      <trkpt lat="44.93266" lon="6.63412">
        <ele>2010.1</ele>
        <time>2023-07-02T13:27:41+0200</time>
      </trkpt>
      <trkpt lat="44.93261" lon="6.63418">
        <ele>2008.9</ele>
        <time>2023-07-02T13:27:43+0200</time>
      </trkpt>
      <trkpt lat="44.9326" lon="6.63429">
        <ele>2010.9</ele>
        <time>2023-07-02T13:27:45+0200</time>
      </trkpt>
      <trkpt lat="44.93257" lon="6.63438">
        <ele>2011.9</ele>
        <time>2023-07-02T13:27:48+0200</time>
      </trkpt>
      <trkpt lat="44.93254" lon="6.63447">
        <ele>2012.4</ele>
        <time>2023-07-02T13:27:50+0200</time>
      </trkpt>
      <trkpt lat="44.93252" lon="6.63454">
        <ele>2012.9</ele>
        <time>2023-07-02T13:27:52+0200</time>
      </trkpt>
      <trkpt lat="44.93251" lon="6.6346">
        <ele>2013.7</ele>
        <time>2023-07-02T13:27:54+0200</time>
      </trkpt>
      <trkpt lat="44.9325" lon="6.63468">
        <ele>2014.9</ele>
        <time>2023-07-02T13:27:57+0200</time>
      </trkpt>
      <trkpt lat="44.93247" lon="6.63477">
        <ele>2015.4</ele>
        <time>2023-07-02T13:28:00+0200</time>
      </trkpt>
      <trkpt lat="44.93246" lon="6.63484">
        <ele>2016.5</ele>
        <time>2023-07-02T13:28:04+0200</time>
      </trkpt>
      <trkpt lat="44.93245" lon="6.63493">
        <ele>2017.3</ele>
        <time>2023-07-02T13:28:07+0200</time>
      </trkpt>
      <trkpt lat="44.93243" lon="6.63501">
        <ele>2017.7</ele>
        <time>2023-07-02T13:28:12+0200</time>
      </trkpt>
      <trkpt lat="44.93243" lon="6.63508">
        <ele>2018.4</ele>
        <time>2023-07-02T13:28:15+0200</time>
      </trkpt>
      <trkpt lat="44.93243" lon="6.63517">
        <ele>2019.2</ele>
        <time>2023-07-02T13:28:18+0200</time>
      </trkpt>
      <trkpt lat="44.93243" lon="6.63524">
        <ele>2020.2</ele>
        <time>2023-07-02T13:28:21+0200</time>
      </trkpt>
      <trkpt lat="44.93244" lon="6.63532">
        <ele>2021.4</ele>
        <time>2023-07-02T13:28:24+0200</time>
      </trkpt>
      <trkpt lat="44.93246" lon="6.6354">
        <ele>2022.7</ele>
        <time>2023-07-02T13:28:27+0200</time>
      </trkpt>
      <trkpt lat="44.93249" lon="6.63548">
        <ele>2024.2</ele>
        <time>2023-07-02T13:28:30+0200</time>
      </trkpt>
      <trkpt lat="44.93248" lon="6.63555">
        <ele>2024.3</ele>
        <time>2023-07-02T13:28:33+0200</time>
      </trkpt>
      <trkpt lat="44.93249" lon="6.63564">
        <ele>2025.7</ele>
        <time>2023-07-02T13:28:36+0200</time>
      </trkpt>
      <trkpt lat="44.93245" lon="6.63567">
        <ele>2025.2</ele>
        <time>2023-07-02T13:28:39+0200</time>
      </trkpt>
      <trkpt lat="44.93243" lon="6.63575">
        <ele>2026.3</ele>
        <time>2023-07-02T13:28:42+0200</time>
      </trkpt>
      <trkpt lat="44.93238" lon="6.63578">
        <ele>2026</ele>
        <time>2023-07-02T13:28:47+0200</time>
      </trkpt>
      <trkpt lat="44.93233" lon="6.63582">
        <ele>2026.3</ele>
        <time>2023-07-02T13:28:51+0200</time>
      </trkpt>
      <trkpt lat="44.93227" lon="6.63582">
        <ele>2025.1</ele>
        <time>2023-07-02T13:28:54+0200</time>
      </trkpt>
      <trkpt lat="44.93221" lon="6.63582">
        <ele>2024.4</ele>
        <time>2023-07-02T13:28:56+0200</time>
      </trkpt>
      <trkpt lat="44.93215" lon="6.63581">
        <ele>2023.9</ele>
        <time>2023-07-02T13:28:59+0200</time>
      </trkpt>
      <trkpt lat="44.9321" lon="6.63579">
        <ele>2022.8</ele>
        <time>2023-07-02T13:29:03+0200</time>
      </trkpt>
      <trkpt lat="44.93201" lon="6.63573">
        <ele>2020.1</ele>
        <time>2023-07-02T13:29:08+0200</time>
      </trkpt>
      <trkpt lat="44.93196" lon="6.63569">
        <ele>2018.5</ele>
        <time>2023-07-02T13:29:11+0200</time>
      </trkpt>
      <trkpt lat="44.9319" lon="6.63569">
        <ele>2018.7</ele>
        <time>2023-07-02T13:29:12+0200</time>
      </trkpt>
      <trkpt lat="44.93184" lon="6.63569">
        <ele>2019.1</ele>
        <time>2023-07-02T13:29:14+0200</time>
      </trkpt>
      <trkpt lat="44.93179" lon="6.63567">
        <ele>2019</ele>
        <time>2023-07-02T13:29:16+0200</time>
      </trkpt>
      <trkpt lat="44.93171" lon="6.63567">
        <ele>2019.7</ele>
        <time>2023-07-02T13:29:18+0200</time>
      </trkpt>
      <trkpt lat="44.93166" lon="6.63567">
        <ele>2020</ele>
        <time>2023-07-02T13:29:20+0200</time>
      </trkpt>
      <trkpt lat="44.93161" lon="6.63572">
        <ele>2023.1</ele>
        <time>2023-07-02T13:29:22+0200</time>
      </trkpt>
      <trkpt lat="44.93157" lon="6.63577">
        <ele>2025.8</ele>
        <time>2023-07-02T13:29:24+0200</time>
      </trkpt>
      <trkpt lat="44.93152" lon="6.63574">
        <ele>2025.4</ele>
        <time>2023-07-02T13:29:26+0200</time>
      </trkpt>
      <trkpt lat="44.93146" lon="6.63571">
        <ele>2024.8</ele>
        <time>2023-07-02T13:29:28+0200</time>
      </trkpt>
      <trkpt lat="44.93145" lon="6.63563">
        <ele>2022</ele>
        <time>2023-07-02T13:29:34+0200</time>
      </trkpt>
      <trkpt lat="44.93136" lon="6.63557">
        <ele>2021</ele>
        <time>2023-07-02T13:29:36+0200</time>
      </trkpt>
      <trkpt lat="44.93132" lon="6.63553">
        <ele>2020.1</ele>
        <time>2023-07-02T13:29:37+0200</time>
      </trkpt>
      <trkpt lat="44.93122" lon="6.63545">
        <ele>2017.8</ele>
        <time>2023-07-02T13:29:39+0200</time>
      </trkpt>
      <trkpt lat="44.93117" lon="6.63542">
        <ele>2017.5</ele>
        <time>2023-07-02T13:29:40+0200</time>
      </trkpt>
      <trkpt lat="44.9311" lon="6.63541">
        <ele>2017.6</ele>
        <time>2023-07-02T13:29:43+0200</time>
      </trkpt>
      <trkpt lat="44.93104" lon="6.63539">
        <ele>2017</ele>
        <time>2023-07-02T13:29:45+0200</time>
      </trkpt>
      <trkpt lat="44.93102" lon="6.63531">
        <ele>2013.9</ele>
        <time>2023-07-02T13:29:47+0200</time>
      </trkpt>
      <trkpt lat="44.93098" lon="6.63527">
        <ele>2012.5</ele>
        <time>2023-07-02T13:29:49+0200</time>
      </trkpt>
      <trkpt lat="44.93093" lon="6.63524">
        <ele>2011.8</ele>
        <time>2023-07-02T13:29:51+0200</time>
      </trkpt>
      <trkpt lat="44.93087" lon="6.63523">
        <ele>2011.9</ele>
        <time>2023-07-02T13:29:54+0200</time>
      </trkpt>
      <trkpt lat="44.93081" lon="6.63524">
        <ele>2012.6</ele>
        <time>2023-07-02T13:29:56+0200</time>
      </trkpt>
      <trkpt lat="44.93075" lon="6.63526">
        <ele>2013.4</ele>
        <time>2023-07-02T13:29:58+0200</time>
      </trkpt>
      <trkpt lat="44.93069" lon="6.63527">
        <ele>2013.7</ele>
        <time>2023-07-02T13:30:00+0200</time>
      </trkpt>
      <trkpt lat="44.93063" lon="6.63527">
        <ele>2013.9</ele>
        <time>2023-07-02T13:30:01+0200</time>
      </trkpt>
      <trkpt lat="44.93058" lon="6.63531">
        <ele>2015.1</ele>
        <time>2023-07-02T13:30:02+0200</time>
      </trkpt>
      <trkpt lat="44.93052" lon="6.63531">
        <ele>2015</ele>
        <time>2023-07-02T13:30:04+0200</time>
      </trkpt>
      <trkpt lat="44.93045" lon="6.63535">
        <ele>2015.7</ele>
        <time>2023-07-02T13:30:05+0200</time>
      </trkpt>
      <trkpt lat="44.9304" lon="6.63535">
        <ele>2015.5</ele>
        <time>2023-07-02T13:30:06+0200</time>
      </trkpt>
      <trkpt lat="44.93032" lon="6.63532">
        <ele>2013.8</ele>
        <time>2023-07-02T13:30:08+0200</time>
      </trkpt>
      <trkpt lat="44.93021" lon="6.63533">
        <ele>2015</ele>
        <time>2023-07-02T13:30:10+0200</time>
      </trkpt>
      <trkpt lat="44.93016" lon="6.63533">
        <ele>2015.7</ele>
        <time>2023-07-02T13:30:11+0200</time>
      </trkpt>
      <trkpt lat="44.93012" lon="6.63526">
        <ele>2014.4</ele>
        <time>2023-07-02T13:30:14+0200</time>
      </trkpt>
      <trkpt lat="44.93008" lon="6.63519">
        <ele>2013.1</ele>
        <time>2023-07-02T13:30:17+0200</time>
      </trkpt>
      <trkpt lat="44.93002" lon="6.63514">
        <ele>2013.2</ele>
        <time>2023-07-02T13:30:19+0200</time>
      </trkpt>
      <trkpt lat="44.92995" lon="6.63509">
        <ele>2012.4</ele>
        <time>2023-07-02T13:30:21+0200</time>
      </trkpt>
      <trkpt lat="44.92991" lon="6.63505">
        <ele>2011.2</ele>
        <time>2023-07-02T13:30:22+0200</time>
      </trkpt>
      <trkpt lat="44.92984" lon="6.63502">
        <ele>2010.7</ele>
        <time>2023-07-02T13:30:23+0200</time>
      </trkpt>
      <trkpt lat="44.92979" lon="6.635">
        <ele>2010</ele>
        <time>2023-07-02T13:30:24+0200</time>
      </trkpt>
      <trkpt lat="44.9297" lon="6.63492">
        <ele>2007.9</ele>
        <time>2023-07-02T13:30:26+0200</time>
      </trkpt>
      <trkpt lat="44.92965" lon="6.63488">
        <ele>2006.9</ele>
        <time>2023-07-02T13:30:27+0200</time>
      </trkpt>
      <trkpt lat="44.92961" lon="6.63487">
        <ele>2006.7</ele>
        <time>2023-07-02T13:30:28+0200</time>
      </trkpt>
      <trkpt lat="44.92955" lon="6.63486">
        <ele>2006.4</ele>
        <time>2023-07-02T13:30:29+0200</time>
      </trkpt>
      <trkpt lat="44.92948" lon="6.63483">
        <ele>2005.8</ele>
        <time>2023-07-02T13:30:30+0200</time>
      </trkpt>
      <trkpt lat="44.92942" lon="6.63481">
        <ele>2005.2</ele>
        <time>2023-07-02T13:30:31+0200</time>
      </trkpt>
      <trkpt lat="44.92934" lon="6.63479">
        <ele>2004.3</ele>
        <time>2023-07-02T13:30:32+0200</time>
      </trkpt>
      <trkpt lat="44.92928" lon="6.63477">
        <ele>2003.6</ele>
        <time>2023-07-02T13:30:33+0200</time>
      </trkpt>
      <trkpt lat="44.92921" lon="6.63477">
        <ele>2003.5</ele>
        <time>2023-07-02T13:30:34+0200</time>
      </trkpt>
      <trkpt lat="44.92913" lon="6.63474">
        <ele>2002.6</ele>
        <time>2023-07-02T13:30:35+0200</time>
      </trkpt>
      <trkpt lat="44.92906" lon="6.63472">
        <ele>2001.9</ele>
        <time>2023-07-02T13:30:36+0200</time>
      </trkpt>
      <trkpt lat="44.929" lon="6.63468">
        <ele>2000.8</ele>
        <time>2023-07-02T13:30:37+0200</time>
      </trkpt>
      <trkpt lat="44.92895" lon="6.63462">
        <ele>1999.1</ele>
        <time>2023-07-02T13:30:38+0200</time>
      </trkpt>
      <trkpt lat="44.92887" lon="6.63456">
        <ele>1997.3</ele>
        <time>2023-07-02T13:30:40+0200</time>
      </trkpt>
      <trkpt lat="44.92881" lon="6.63454">
        <ele>1996.6</ele>
        <time>2023-07-02T13:30:41+0200</time>
      </trkpt>
      <trkpt lat="44.92872" lon="6.63451">
        <ele>1995.6</ele>
        <time>2023-07-02T13:30:42+0200</time>
      </trkpt>
      <trkpt lat="44.92866" lon="6.63446">
        <ele>1994.4</ele>
        <time>2023-07-02T13:30:43+0200</time>
      </trkpt>
      <trkpt lat="44.92854" lon="6.63441">
        <ele>1993.1</ele>
        <time>2023-07-02T13:30:45+0200</time>
      </trkpt>
      <trkpt lat="44.92843" lon="6.63433">
        <ele>1991.1</ele>
        <time>2023-07-02T13:30:46+0200</time>
      </trkpt>
      <trkpt lat="44.92835" lon="6.63426">
        <ele>1989.3</ele>
        <time>2023-07-02T13:30:47+0200</time>
      </trkpt>
      <trkpt lat="44.92828" lon="6.63416">
        <ele>1986.8</ele>
        <time>2023-07-02T13:30:48+0200</time>
      </trkpt>
      <trkpt lat="44.92819" lon="6.6341">
        <ele>1985.3</ele>
        <time>2023-07-02T13:30:49+0200</time>
      </trkpt>
      <trkpt lat="44.92806" lon="6.63405">
        <ele>1984.5</ele>
        <time>2023-07-02T13:30:50+0200</time>
      </trkpt>
      <trkpt lat="44.92794" lon="6.63402">
        <ele>1983.9</ele>
        <time>2023-07-02T13:30:51+0200</time>
      </trkpt>
      <trkpt lat="44.92782" lon="6.63403">
        <ele>1984</ele>
        <time>2023-07-02T13:30:52+0200</time>
      </trkpt>
      <trkpt lat="44.92773" lon="6.63404">
        <ele>1984.3</ele>
        <time>2023-07-02T13:30:53+0200</time>
      </trkpt>
      <trkpt lat="44.92767" lon="6.63402">
        <ele>1983.8</ele>
        <time>2023-07-02T13:30:54+0200</time>
      </trkpt>
      <trkpt lat="44.92757" lon="6.63399">
        <ele>1983.1</ele>
        <time>2023-07-02T13:30:55+0200</time>
      </trkpt>
      <trkpt lat="44.92749" lon="6.63392">
        <ele>1981.6</ele>
        <time>2023-07-02T13:30:56+0200</time>
      </trkpt>
      <trkpt lat="44.92741" lon="6.63388">
        <ele>1980.9</ele>
        <time>2023-07-02T13:30:57+0200</time>
      </trkpt>
      <trkpt lat="44.92729" lon="6.63386">
        <ele>1980.5</ele>
        <time>2023-07-02T13:30:58+0200</time>
      </trkpt>
      <trkpt lat="44.92715" lon="6.63385">
        <ele>1980.1</ele>
        <time>2023-07-02T13:30:59+0200</time>
      </trkpt>
      <trkpt lat="44.92705" lon="6.63382">
        <ele>1979.5</ele>
        <time>2023-07-02T13:31:00+0200</time>
      </trkpt>
      <trkpt lat="44.92697" lon="6.6338">
        <ele>1979</ele>
        <time>2023-07-02T13:31:01+0200</time>
      </trkpt>
      <trkpt lat="44.92685" lon="6.6338">
        <ele>1979.1</ele>
        <time>2023-07-02T13:31:02+0200</time>
      </trkpt>
      <trkpt lat="44.92675" lon="6.63379">
        <ele>1979.2</ele>
        <time>2023-07-02T13:31:03+0200</time>
      </trkpt>
      <trkpt lat="44.92664" lon="6.63381">
        <ele>1979.1</ele>
        <time>2023-07-02T13:31:04+0200</time>
      </trkpt>
      <trkpt lat="44.92657" lon="6.63388">
        <ele>1978.5</ele>
        <time>2023-07-02T13:31:05+0200</time>
      </trkpt>
      <trkpt lat="44.9265" lon="6.63394">
        <ele>1978</ele>
        <time>2023-07-02T13:31:06+0200</time>
      </trkpt>
      <trkpt lat="44.92646" lon="6.63399">
        <ele>1977.8</ele>
        <time>2023-07-02T13:31:07+0200</time>
      </trkpt>
      <trkpt lat="44.92641" lon="6.63405">
        <ele>1977.5</ele>
        <time>2023-07-02T13:31:08+0200</time>
      </trkpt>
      <trkpt lat="44.92632" lon="6.63409">
        <ele>1975.9</ele>
        <time>2023-07-02T13:31:10+0200</time>
      </trkpt>
      <trkpt lat="44.92626" lon="6.63421">
        <ele>1976.4</ele>
        <time>2023-07-02T13:31:12+0200</time>
      </trkpt>
      <trkpt lat="44.92623" lon="6.6343">
        <ele>1977.2</ele>
        <time>2023-07-02T13:31:13+0200</time>
      </trkpt>
      <trkpt lat="44.92618" lon="6.63439">
        <ele>1978</ele>
        <time>2023-07-02T13:31:14+0200</time>
      </trkpt>
      <trkpt lat="44.92615" lon="6.63448">
        <ele>1979.1</ele>
        <time>2023-07-02T13:31:15+0200</time>
      </trkpt>
      <trkpt lat="44.9261" lon="6.63456">
        <ele>1979.8</ele>
        <time>2023-07-02T13:31:16+0200</time>
      </trkpt>
      <trkpt lat="44.92604" lon="6.63452">
        <ele>1978.3</ele>
        <time>2023-07-02T13:31:18+0200</time>
      </trkpt>
      <trkpt lat="44.92603" lon="6.63445">
        <ele>1976.9</ele>
        <time>2023-07-02T13:31:22+0200</time>
      </trkpt>
      <trkpt lat="44.92596" lon="6.63442">
        <ele>1975.2</ele>
        <time>2023-07-02T13:31:24+0200</time>
      </trkpt>
      <trkpt lat="44.92591" lon="6.63439">
        <ele>1973.9</ele>
        <time>2023-07-02T13:31:25+0200</time>
      </trkpt>
      <trkpt lat="44.92583" lon="6.63437">
        <ele>1972.2</ele>
        <time>2023-07-02T13:31:26+0200</time>
      </trkpt>
      <trkpt lat="44.92579" lon="6.63433">
        <ele>1970.8</ele>
        <time>2023-07-02T13:31:27+0200</time>
      </trkpt>
      <trkpt lat="44.92575" lon="6.6343">
        <ele>1969.5</ele>
        <time>2023-07-02T13:31:28+0200</time>
      </trkpt>
      <trkpt lat="44.92567" lon="6.63429">
        <ele>1968.1</ele>
        <time>2023-07-02T13:31:29+0200</time>
      </trkpt>
      <trkpt lat="44.92563" lon="6.63423">
        <ele>1966.2</ele>
        <time>2023-07-02T13:31:32+0200</time>
      </trkpt>
      <trkpt lat="44.92557" lon="6.63421">
        <ele>1965</ele>
        <time>2023-07-02T13:31:33+0200</time>
      </trkpt>
      <trkpt lat="44.92552" lon="6.63414">
        <ele>1962.8</ele>
        <time>2023-07-02T13:31:35+0200</time>
      </trkpt>
      <trkpt lat="44.92549" lon="6.63409">
        <ele>1961.3</ele>
        <time>2023-07-02T13:31:36+0200</time>
      </trkpt>
      <trkpt lat="44.92544" lon="6.63405">
        <ele>1959.6</ele>
        <time>2023-07-02T13:31:38+0200</time>
      </trkpt>
      <trkpt lat="44.92541" lon="6.634">
        <ele>1958.3</ele>
        <time>2023-07-02T13:31:40+0200</time>
      </trkpt>
      <trkpt lat="44.92536" lon="6.63391">
        <ele>1955.9</ele>
        <time>2023-07-02T13:31:42+0200</time>
      </trkpt>
      <trkpt lat="44.92531" lon="6.63385">
        <ele>1954.1</ele>
        <time>2023-07-02T13:31:44+0200</time>
      </trkpt>
      <trkpt lat="44.92525" lon="6.6339">
        <ele>1953.2</ele>
        <time>2023-07-02T13:31:46+0200</time>
      </trkpt>
      <trkpt lat="44.92519" lon="6.63396">
        <ele>1951.8</ele>
        <time>2023-07-02T13:31:48+0200</time>
      </trkpt>
      <trkpt lat="44.92514" lon="6.63405">
        <ele>1950.6</ele>
        <time>2023-07-02T13:31:50+0200</time>
      </trkpt>
      <trkpt lat="44.9251" lon="6.63412">
        <ele>1949.8</ele>
        <time>2023-07-02T13:31:51+0200</time>
      </trkpt>
      <trkpt lat="44.92507" lon="6.63418">
        <ele>1948.9</ele>
        <time>2023-07-02T13:31:52+0200</time>
      </trkpt>
      <trkpt lat="44.92503" lon="6.63424">
        <ele>1947.4</ele>
        <time>2023-07-02T13:31:53+0200</time>
      </trkpt>
      <trkpt lat="44.92499" lon="6.63429">
        <ele>1945.7</ele>
        <time>2023-07-02T13:31:54+0200</time>
      </trkpt>
      <trkpt lat="44.92492" lon="6.6344">
        <ele>1943</ele>
        <time>2023-07-02T13:31:56+0200</time>
      </trkpt>
      <trkpt lat="44.92488" lon="6.63451">
        <ele>1941.5</ele>
        <time>2023-07-02T13:31:58+0200</time>
      </trkpt>
      <trkpt lat="44.92483" lon="6.63465">
        <ele>1940.3</ele>
        <time>2023-07-02T13:32:00+0200</time>
      </trkpt>
      <trkpt lat="44.92481" lon="6.63472">
        <ele>1939.5</ele>
        <time>2023-07-02T13:32:01+0200</time>
      </trkpt>
      <trkpt lat="44.92477" lon="6.63483">
        <ele>1938.3</ele>
        <time>2023-07-02T13:32:03+0200</time>
      </trkpt>
      <trkpt lat="44.92473" lon="6.63487">
        <ele>1936.2</ele>
        <time>2023-07-02T13:32:04+0200</time>
      </trkpt>
      <trkpt lat="44.9247" lon="6.63495">
        <ele>1935.4</ele>
        <time>2023-07-02T13:32:05+0200</time>
      </trkpt>
      <trkpt lat="44.92463" lon="6.63507">
        <ele>1932.1</ele>
        <time>2023-07-02T13:32:07+0200</time>
      </trkpt>
      <trkpt lat="44.92457" lon="6.63513">
        <ele>1929.7</ele>
        <time>2023-07-02T13:32:08+0200</time>
      </trkpt>
      <trkpt lat="44.92454" lon="6.63521">
        <ele>1928.6</ele>
        <time>2023-07-02T13:32:09+0200</time>
      </trkpt>
      <trkpt lat="44.9245" lon="6.63528">
        <ele>1926.8</ele>
        <time>2023-07-02T13:32:10+0200</time>
      </trkpt>
      <trkpt lat="44.92447" lon="6.63533">
        <ele>1926.2</ele>
        <time>2023-07-02T13:32:11+0200</time>
      </trkpt>
      <trkpt lat="44.92447" lon="6.63547">
        <ele>1927.9</ele>
        <time>2023-07-02T13:32:13+0200</time>
      </trkpt>
      <trkpt lat="44.92447" lon="6.63555">
        <ele>1929.3</ele>
        <time>2023-07-02T13:32:14+0200</time>
      </trkpt>
      <trkpt lat="44.92444" lon="6.63561">
        <ele>1928.5</ele>
        <time>2023-07-02T13:32:17+0200</time>
      </trkpt>
      <trkpt lat="44.92438" lon="6.63564">
        <ele>1926.3</ele>
        <time>2023-07-02T13:32:19+0200</time>
      </trkpt>
      <trkpt lat="44.92434" lon="6.63566">
        <ele>1924.5</ele>
        <time>2023-07-02T13:32:21+0200</time>
      </trkpt>
      <trkpt lat="44.92427" lon="6.63565">
        <ele>1920.7</ele>
        <time>2023-07-02T13:32:25+0200</time>
      </trkpt>
      <trkpt lat="44.92422" lon="6.63562">
        <ele>1918.1</ele>
        <time>2023-07-02T13:32:27+0200</time>
      </trkpt>
      <trkpt lat="44.92414" lon="6.63567">
        <ele>1914.9</ele>
        <time>2023-07-02T13:32:29+0200</time>
      </trkpt>
      <trkpt lat="44.92408" lon="6.63575">
        <ele>1913</ele>
        <time>2023-07-02T13:32:31+0200</time>
      </trkpt>
      <trkpt lat="44.92405" lon="6.6358">
        <ele>1911.7</ele>
        <time>2023-07-02T13:32:32+0200</time>
      </trkpt>
      <trkpt lat="44.92401" lon="6.63591">
        <ele>1909.8</ele>
        <time>2023-07-02T13:32:34+0200</time>
      </trkpt>
      <trkpt lat="44.924" lon="6.63601">
        <ele>1909.6</ele>
        <time>2023-07-02T13:32:35+0200</time>
      </trkpt>
      <trkpt lat="44.92399" lon="6.63607">
        <ele>1908.6</ele>
        <time>2023-07-02T13:32:36+0200</time>
      </trkpt>
      <trkpt lat="44.92393" lon="6.6361">
        <ele>1905.6</ele>
        <time>2023-07-02T13:32:38+0200</time>
      </trkpt>
      <trkpt lat="44.92395" lon="6.63621">
        <ele>1905.8</ele>
        <time>2023-07-02T13:32:40+0200</time>
      </trkpt>
      <trkpt lat="44.92394" lon="6.63631">
        <ele>1903.9</ele>
        <time>2023-07-02T13:32:41+0200</time>
      </trkpt>
      <trkpt lat="44.92394" lon="6.63645">
        <ele>1902.7</ele>
        <time>2023-07-02T13:32:43+0200</time>
      </trkpt>
      <trkpt lat="44.92395" lon="6.63658">
        <ele>1901.8</ele>
        <time>2023-07-02T13:32:44+0200</time>
      </trkpt>
      <trkpt lat="44.92395" lon="6.63669">
        <ele>1900.6</ele>
        <time>2023-07-02T13:32:45+0200</time>
      </trkpt>
      <trkpt lat="44.92395" lon="6.63676">
        <ele>1901</ele>
        <time>2023-07-02T13:32:46+0200</time>
      </trkpt>
      <trkpt lat="44.92396" lon="6.63691">
        <ele>1901.1</ele>
        <time>2023-07-02T13:32:48+0200</time>
      </trkpt>
      <trkpt lat="44.92395" lon="6.637">
        <ele>1900.9</ele>
        <time>2023-07-02T13:32:49+0200</time>
      </trkpt>
      <trkpt lat="44.92394" lon="6.63707">
        <ele>1900.7</ele>
        <time>2023-07-02T13:32:50+0200</time>
      </trkpt>
      <trkpt lat="44.92392" lon="6.63716">
        <ele>1900.8</ele>
        <time>2023-07-02T13:32:52+0200</time>
      </trkpt>
      <trkpt lat="44.92388" lon="6.63719">
        <ele>1899.5</ele>
        <time>2023-07-02T13:32:54+0200</time>
      </trkpt>
      <trkpt lat="44.92384" lon="6.63723">
        <ele>1899.6</ele>
        <time>2023-07-02T13:32:57+0200</time>
      </trkpt>
      <trkpt lat="44.92384" lon="6.63717">
        <ele>1898.4</ele>
        <time>2023-07-02T13:32:59+0200</time>
      </trkpt>
      <trkpt lat="44.92384" lon="6.63709">
        <ele>1897.5</ele>
        <time>2023-07-02T13:33:00+0200</time>
      </trkpt>
      <trkpt lat="44.92384" lon="6.637">
        <ele>1896.2</ele>
        <time>2023-07-02T13:33:02+0200</time>
      </trkpt>
      <trkpt lat="44.92383" lon="6.63689">
        <ele>1894.9</ele>
        <time>2023-07-02T13:33:05+0200</time>
      </trkpt>
      <trkpt lat="44.92382" lon="6.63677">
        <ele>1894.3</ele>
        <time>2023-07-02T13:33:07+0200</time>
      </trkpt>
      <trkpt lat="44.92381" lon="6.63671">
        <ele>1893.6</ele>
        <time>2023-07-02T13:33:08+0200</time>
      </trkpt>
      <trkpt lat="44.9238" lon="6.63663">
        <ele>1893</ele>
        <time>2023-07-02T13:33:09+0200</time>
      </trkpt>
      <trkpt lat="44.92378" lon="6.63657">
        <ele>1892.3</ele>
        <time>2023-07-02T13:33:10+0200</time>
      </trkpt>
      <trkpt lat="44.92376" lon="6.63649">
        <ele>1892.1</ele>
        <time>2023-07-02T13:33:11+0200</time>
      </trkpt>
      <trkpt lat="44.92375" lon="6.63642">
        <ele>1892</ele>
        <time>2023-07-02T13:33:12+0200</time>
      </trkpt>
      <trkpt lat="44.92371" lon="6.63637">
        <ele>1890.2</ele>
        <time>2023-07-02T13:33:13+0200</time>
      </trkpt>
      <trkpt lat="44.92367" lon="6.63633">
        <ele>1888.2</ele>
        <time>2023-07-02T13:33:14+0200</time>
      </trkpt>
      <trkpt lat="44.92364" lon="6.63624">
        <ele>1887.4</ele>
        <time>2023-07-02T13:33:15+0200</time>
      </trkpt>
      <trkpt lat="44.92358" lon="6.63616">
        <ele>1885.1</ele>
        <time>2023-07-02T13:33:16+0200</time>
      </trkpt>
      <trkpt lat="44.92352" lon="6.63607">
        <ele>1883</ele>
        <time>2023-07-02T13:33:18+0200</time>
      </trkpt>
      <trkpt lat="44.92348" lon="6.63603">
        <ele>1881.4</ele>
        <time>2023-07-02T13:33:19+0200</time>
      </trkpt>
      <trkpt lat="44.92341" lon="6.63592">
        <ele>1879</ele>
        <time>2023-07-02T13:33:21+0200</time>
      </trkpt>
      <trkpt lat="44.92337" lon="6.63589">
        <ele>1877.2</ele>
        <time>2023-07-02T13:33:27+0200</time>
      </trkpt>
      <trkpt lat="44.92341" lon="6.63593">
        <ele>1878.7</ele>
        <time>2023-07-02T13:33:37+0200</time>
      </trkpt>
      <trkpt lat="44.92337" lon="6.63598">
        <ele>1876.5</ele>
        <time>2023-07-02T13:34:11+0200</time>
      </trkpt>
      <trkpt lat="44.92339" lon="6.63607">
        <ele>1876.4</ele>
        <time>2023-07-02T13:34:13+0200</time>
      </trkpt>
      <trkpt lat="44.92343" lon="6.63617">
        <ele>1877.7</ele>
        <time>2023-07-02T13:34:15+0200</time>
      </trkpt>
      <trkpt lat="44.92344" lon="6.63624">
        <ele>1877.9</ele>
        <time>2023-07-02T13:34:16+0200</time>
      </trkpt>
      <trkpt lat="44.92345" lon="6.6363">
        <ele>1878.1</ele>
        <time>2023-07-02T13:34:17+0200</time>
      </trkpt>
      <trkpt lat="44.92344" lon="6.63638">
        <ele>1877.1</ele>
        <time>2023-07-02T13:34:18+0200</time>
      </trkpt>
      <trkpt lat="44.92341" lon="6.63646">
        <ele>1876.4</ele>
        <time>2023-07-02T13:34:19+0200</time>
      </trkpt>
      <trkpt lat="44.92335" lon="6.63649">
        <ele>1874.7</ele>
        <time>2023-07-02T13:34:20+0200</time>
      </trkpt>
      <trkpt lat="44.9233" lon="6.63651">
        <ele>1873.6</ele>
        <time>2023-07-02T13:34:21+0200</time>
      </trkpt>
      <trkpt lat="44.92324" lon="6.63654">
        <ele>1872.7</ele>
        <time>2023-07-02T13:34:22+0200</time>
      </trkpt>
      <trkpt lat="44.92318" lon="6.63657">
        <ele>1872</ele>
        <time>2023-07-02T13:34:23+0200</time>
      </trkpt>
      <trkpt lat="44.92311" lon="6.63656">
        <ele>1870.5</ele>
        <time>2023-07-02T13:34:24+0200</time>
      </trkpt>
      <trkpt lat="44.92306" lon="6.63654">
        <ele>1868.9</ele>
        <time>2023-07-02T13:34:25+0200</time>
      </trkpt>
      <trkpt lat="44.92297" lon="6.63651">
        <ele>1867.4</ele>
        <time>2023-07-02T13:34:26+0200</time>
      </trkpt>
      <trkpt lat="44.92288" lon="6.63648">
        <ele>1865.8</ele>
        <time>2023-07-02T13:34:27+0200</time>
      </trkpt>
      <trkpt lat="44.92279" lon="6.63647">
        <ele>1864.8</ele>
        <time>2023-07-02T13:34:28+0200</time>
      </trkpt>
      <trkpt lat="44.92269" lon="6.6364">
        <ele>1862.2</ele>
        <time>2023-07-02T13:34:29+0200</time>
      </trkpt>
      <trkpt lat="44.9226" lon="6.63634">
        <ele>1860.8</ele>
        <time>2023-07-02T13:34:30+0200</time>
      </trkpt>
      <trkpt lat="44.92251" lon="6.63626">
        <ele>1858.2</ele>
        <time>2023-07-02T13:34:31+0200</time>
      </trkpt>
      <trkpt lat="44.92245" lon="6.6362">
        <ele>1856.3</ele>
        <time>2023-07-02T13:34:32+0200</time>
      </trkpt>
      <trkpt lat="44.92239" lon="6.63617">
        <ele>1855.1</ele>
        <time>2023-07-02T13:34:33+0200</time>
      </trkpt>
      <trkpt lat="44.92231" lon="6.63618">
        <ele>1855.1</ele>
        <time>2023-07-02T13:34:34+0200</time>
      </trkpt>
      <trkpt lat="44.92226" lon="6.63616">
        <ele>1854.3</ele>
        <time>2023-07-02T13:34:35+0200</time>
      </trkpt>
      <trkpt lat="44.92217" lon="6.63614">
        <ele>1853.2</ele>
        <time>2023-07-02T13:34:36+0200</time>
      </trkpt>
      <trkpt lat="44.92205" lon="6.6361">
        <ele>1851.5</ele>
        <time>2023-07-02T13:34:37+0200</time>
      </trkpt>
      <trkpt lat="44.92194" lon="6.63609">
        <ele>1850.4</ele>
        <time>2023-07-02T13:34:38+0200</time>
      </trkpt>
      <trkpt lat="44.92183" lon="6.63609">
        <ele>1848.1</ele>
        <time>2023-07-02T13:34:39+0200</time>
      </trkpt>
      <trkpt lat="44.92175" lon="6.6361">
        <ele>1846.7</ele>
        <time>2023-07-02T13:34:40+0200</time>
      </trkpt>
      <trkpt lat="44.92168" lon="6.63615">
        <ele>1845.4</ele>
        <time>2023-07-02T13:34:41+0200</time>
      </trkpt>
      <trkpt lat="44.92162" lon="6.63622">
        <ele>1843.7</ele>
        <time>2023-07-02T13:34:43+0200</time>
      </trkpt>
      <trkpt lat="44.92161" lon="6.63635">
        <ele>1843.5</ele>
        <time>2023-07-02T13:34:45+0200</time>
      </trkpt>
      <trkpt lat="44.92163" lon="6.63644">
        <ele>1844.2</ele>
        <time>2023-07-02T13:34:46+0200</time>
      </trkpt>
      <trkpt lat="44.92164" lon="6.63653">
        <ele>1844</ele>
        <time>2023-07-02T13:34:47+0200</time>
      </trkpt>
      <trkpt lat="44.92166" lon="6.63664">
        <ele>1843.9</ele>
        <time>2023-07-02T13:34:48+0200</time>
      </trkpt>
      <trkpt lat="44.92169" lon="6.63677">
        <ele>1843.7</ele>
        <time>2023-07-02T13:34:49+0200</time>
      </trkpt>
      <trkpt lat="44.92172" lon="6.6369">
        <ele>1843.8</ele>
        <time>2023-07-02T13:34:50+0200</time>
      </trkpt>
      <trkpt lat="44.92174" lon="6.63705">
        <ele>1842.8</ele>
        <time>2023-07-02T13:34:51+0200</time>
      </trkpt>
      <trkpt lat="44.92177" lon="6.6372">
        <ele>1842</ele>
        <time>2023-07-02T13:34:52+0200</time>
      </trkpt>
      <trkpt lat="44.92179" lon="6.63734">
        <ele>1842.1</ele>
        <time>2023-07-02T13:34:53+0200</time>
      </trkpt>
      <trkpt lat="44.92179" lon="6.63745">
        <ele>1841.7</ele>
        <time>2023-07-02T13:34:54+0200</time>
      </trkpt>
      <trkpt lat="44.92177" lon="6.63753">
        <ele>1840.5</ele>
        <time>2023-07-02T13:34:55+0200</time>
      </trkpt>
      <trkpt lat="44.92172" lon="6.63759">
        <ele>1838.4</ele>
        <time>2023-07-02T13:34:56+0200</time>
      </trkpt>
      <trkpt lat="44.92169" lon="6.63768">
        <ele>1837.4</ele>
        <time>2023-07-02T13:34:57+0200</time>
      </trkpt>
      <trkpt lat="44.92165" lon="6.63777">
        <ele>1836.6</ele>
        <time>2023-07-02T13:34:58+0200</time>
      </trkpt>
      <trkpt lat="44.92163" lon="6.63787">
        <ele>1836.9</ele>
        <time>2023-07-02T13:34:59+0200</time>
      </trkpt>
      <trkpt lat="44.9216" lon="6.638">
        <ele>1837.4</ele>
        <time>2023-07-02T13:35:00+0200</time>
      </trkpt>
      <trkpt lat="44.92157" lon="6.63812">
        <ele>1837.6</ele>
        <time>2023-07-02T13:35:01+0200</time>
      </trkpt>
      <trkpt lat="44.9215" lon="6.6382">
        <ele>1836.8</ele>
        <time>2023-07-02T13:35:02+0200</time>
      </trkpt>
      <trkpt lat="44.92143" lon="6.63827">
        <ele>1835.3</ele>
        <time>2023-07-02T13:35:03+0200</time>
      </trkpt>
      <trkpt lat="44.92138" lon="6.63834">
        <ele>1834.9</ele>
        <time>2023-07-02T13:35:04+0200</time>
      </trkpt>
      <trkpt lat="44.92133" lon="6.63842">
        <ele>1835.7</ele>
        <time>2023-07-02T13:35:05+0200</time>
      </trkpt>
      <trkpt lat="44.92126" lon="6.63847">
        <ele>1835.5</ele>
        <time>2023-07-02T13:35:06+0200</time>
      </trkpt>
      <trkpt lat="44.9212" lon="6.6385">
        <ele>1835.5</ele>
        <time>2023-07-02T13:35:07+0200</time>
      </trkpt>
      <trkpt lat="44.92114" lon="6.63852">
        <ele>1835.1</ele>
        <time>2023-07-02T13:35:08+0200</time>
      </trkpt>
      <trkpt lat="44.92108" lon="6.63852">
        <ele>1834.7</ele>
        <time>2023-07-02T13:35:09+0200</time>
      </trkpt>
      <trkpt lat="44.92101" lon="6.63852">
        <ele>1834.8</ele>
        <time>2023-07-02T13:35:10+0200</time>
      </trkpt>
      <trkpt lat="44.92095" lon="6.6385">
        <ele>1834.2</ele>
        <time>2023-07-02T13:35:11+0200</time>
      </trkpt>
      <trkpt lat="44.92089" lon="6.63848">
        <ele>1833.9</ele>
        <time>2023-07-02T13:35:12+0200</time>
      </trkpt>
      <trkpt lat="44.92083" lon="6.63848">
        <ele>1833.7</ele>
        <time>2023-07-02T13:35:13+0200</time>
      </trkpt>
      <trkpt lat="44.92077" lon="6.63847">
        <ele>1833.8</ele>
        <time>2023-07-02T13:35:14+0200</time>
      </trkpt>
      <trkpt lat="44.92072" lon="6.63846">
        <ele>1833.8</ele>
        <time>2023-07-02T13:35:15+0200</time>
      </trkpt>
      <trkpt lat="44.92063" lon="6.63842">
        <ele>1832.5</ele>
        <time>2023-07-02T13:35:17+0200</time>
      </trkpt>
      <trkpt lat="44.92059" lon="6.63838">
        <ele>1831</ele>
        <time>2023-07-02T13:35:18+0200</time>
      </trkpt>
      <trkpt lat="44.92054" lon="6.63837">
        <ele>1830.5</ele>
        <time>2023-07-02T13:35:19+0200</time>
      </trkpt>
      <trkpt lat="44.92047" lon="6.63834">
        <ele>1829.7</ele>
        <time>2023-07-02T13:35:21+0200</time>
      </trkpt>
      <trkpt lat="44.92041" lon="6.63833">
        <ele>1830.1</ele>
        <time>2023-07-02T13:35:22+0200</time>
      </trkpt>
      <trkpt lat="44.92037" lon="6.63833">
        <ele>1830.4</ele>
        <time>2023-07-02T13:35:23+0200</time>
      </trkpt>
      <trkpt lat="44.92031" lon="6.63834">
        <ele>1830.8</ele>
        <time>2023-07-02T13:35:24+0200</time>
      </trkpt>
      <trkpt lat="44.92025" lon="6.63834">
        <ele>1831.4</ele>
        <time>2023-07-02T13:35:26+0200</time>
      </trkpt>
      <trkpt lat="44.92019" lon="6.63836">
        <ele>1832.3</ele>
        <time>2023-07-02T13:35:28+0200</time>
      </trkpt>
      <trkpt lat="44.92014" lon="6.63834">
        <ele>1831.9</ele>
        <time>2023-07-02T13:35:30+0200</time>
      </trkpt>
      <trkpt lat="44.92008" lon="6.63835">
        <ele>1832.3</ele>
        <time>2023-07-02T13:35:32+0200</time>
      </trkpt>
      <trkpt lat="44.92002" lon="6.63832">
        <ele>1831.6</ele>
        <time>2023-07-02T13:35:34+0200</time>
      </trkpt>
      <trkpt lat="44.91995" lon="6.63834">
        <ele>1832.8</ele>
        <time>2023-07-02T13:35:36+0200</time>
      </trkpt>
      <trkpt lat="44.91987" lon="6.63835">
        <ele>1833.5</ele>
        <time>2023-07-02T13:35:38+0200</time>
      </trkpt>
      <trkpt lat="44.91891" lon="6.63811">
        <ele>1843.6</ele>
        <time>2023-07-02T13:36:40+0200</time>
      </trkpt>
      <trkpt lat="44.91885" lon="6.63809">
        <ele>1844.8</ele>
        <time>2023-07-02T13:36:41+0200</time>
      </trkpt>
      <trkpt lat="44.91878" lon="6.63809">
        <ele>1845.8</ele>
        <time>2023-07-02T13:36:42+0200</time>
      </trkpt>
      <trkpt lat="44.91874" lon="6.63803">
        <ele>1846.1</ele>
        <time>2023-07-02T13:36:45+0200</time>
      </trkpt>
      <trkpt lat="44.91869" lon="6.63803">
        <ele>1846.8</ele>
        <time>2023-07-02T13:36:50+0200</time>
      </trkpt>
      <trkpt lat="44.9187" lon="6.63812">
        <ele>1847.1</ele>
        <time>2023-07-02T13:36:54+0200</time>
      </trkpt>
      <trkpt lat="44.91872" lon="6.63818">
        <ele>1847.1</ele>
        <time>2023-07-02T13:36:56+0200</time>
      </trkpt>
      <trkpt lat="44.91873" lon="6.63826">
        <ele>1847.5</ele>
        <time>2023-07-02T13:37:00+0200</time>
      </trkpt>
      <trkpt lat="44.91874" lon="6.63833">
        <ele>1847.7</ele>
        <time>2023-07-02T13:37:04+0200</time>
      </trkpt>
      <trkpt lat="44.91875" lon="6.6384">
        <ele>1848.8</ele>
        <time>2023-07-02T13:37:07+0200</time>
      </trkpt>
      <trkpt lat="44.91875" lon="6.63848">
        <ele>1850.1</ele>
        <time>2023-07-02T13:37:10+0200</time>
      </trkpt>
      <trkpt lat="44.91875" lon="6.63856">
        <ele>1851.6</ele>
        <time>2023-07-02T13:37:13+0200</time>
      </trkpt>
      <trkpt lat="44.91874" lon="6.63865">
        <ele>1853.3</ele>
        <time>2023-07-02T13:37:19+0200</time>
      </trkpt>
      <trkpt lat="44.91872" lon="6.63871">
        <ele>1854.8</ele>
        <time>2023-07-02T13:37:22+0200</time>
      </trkpt>
      <trkpt lat="44.91874" lon="6.6388">
        <ele>1856.3</ele>
        <time>2023-07-02T13:37:25+0200</time>
      </trkpt>
      <trkpt lat="44.91874" lon="6.63887">
        <ele>1857.7</ele>
        <time>2023-07-02T13:37:27+0200</time>
      </trkpt>
      <trkpt lat="44.91877" lon="6.63893">
        <ele>1858.7</ele>
        <time>2023-07-02T13:37:30+0200</time>
      </trkpt>
      <trkpt lat="44.91881" lon="6.63897">
        <ele>1859.1</ele>
        <time>2023-07-02T13:37:32+0200</time>
      </trkpt>
      <trkpt lat="44.91889" lon="6.63899">
        <ele>1859.1</ele>
        <time>2023-07-02T13:37:36+0200</time>
      </trkpt>
      <trkpt lat="44.91893" lon="6.63905">
        <ele>1860.2</ele>
        <time>2023-07-02T13:37:39+0200</time>
      </trkpt>
      <trkpt lat="44.91895" lon="6.63912">
        <ele>1861.6</ele>
        <time>2023-07-02T13:37:42+0200</time>
      </trkpt>
      <trkpt lat="44.9189" lon="6.63916">
        <ele>1862.7</ele>
        <time>2023-07-02T13:37:50+0200</time>
      </trkpt>
      <trkpt lat="44.91885" lon="6.63913">
        <ele>1862.3</ele>
        <time>2023-07-02T13:37:53+0200</time>
      </trkpt>
      <trkpt lat="44.91881" lon="6.63908">
        <ele>1861.6</ele>
        <time>2023-07-02T13:37:56+0200</time>
      </trkpt>
      <trkpt lat="44.91875" lon="6.63906">
        <ele>1861.3</ele>
        <time>2023-07-02T13:37:58+0200</time>
      </trkpt>
      <trkpt lat="44.9187" lon="6.63903">
        <ele>1861</ele>
        <time>2023-07-02T13:38:01+0200</time>
      </trkpt>
      <trkpt lat="44.91865" lon="6.63902">
        <ele>1861.2</ele>
        <time>2023-07-02T13:38:03+0200</time>
      </trkpt>
      <trkpt lat="44.91859" lon="6.63903">
        <ele>1861.5</ele>
        <time>2023-07-02T13:38:06+0200</time>
      </trkpt>
      <trkpt lat="44.91851" lon="6.63903">
        <ele>1861.5</ele>
        <time>2023-07-02T13:38:09+0200</time>
      </trkpt>
      <trkpt lat="44.91847" lon="6.63903">
        <ele>1861.5</ele>
        <time>2023-07-02T13:38:11+0200</time>
      </trkpt>
      <trkpt lat="44.91842" lon="6.63905">
        <ele>1861.9</ele>
        <time>2023-07-02T13:38:13+0200</time>
      </trkpt>
      <trkpt lat="44.91838" lon="6.6391">
        <ele>1862.7</ele>
        <time>2023-07-02T13:38:16+0200</time>
      </trkpt>
      <trkpt lat="44.91834" lon="6.63917">
        <ele>1864</ele>
        <time>2023-07-02T13:38:19+0200</time>
      </trkpt>
      <trkpt lat="44.91833" lon="6.63924">
        <ele>1865.1</ele>
        <time>2023-07-02T13:38:22+0200</time>
      </trkpt>
      <trkpt lat="44.91833" lon="6.63934">
        <ele>1866.5</ele>
        <time>2023-07-02T13:38:25+0200</time>
      </trkpt>
      <trkpt lat="44.91835" lon="6.63941">
        <ele>1867.5</ele>
        <time>2023-07-02T13:38:28+0200</time>
      </trkpt>
      <trkpt lat="44.91834" lon="6.63947">
        <ele>1868.5</ele>
        <time>2023-07-02T13:38:30+0200</time>
      </trkpt>
      <trkpt lat="44.91833" lon="6.63956">
        <ele>1870</ele>
        <time>2023-07-02T13:38:33+0200</time>
      </trkpt>
      <trkpt lat="44.91831" lon="6.63962">
        <ele>1871.2</ele>
        <time>2023-07-02T13:38:36+0200</time>
      </trkpt>
      <trkpt lat="44.9183" lon="6.63969">
        <ele>1872.5</ele>
        <time>2023-07-02T13:38:39+0200</time>
      </trkpt>
      <trkpt lat="44.91826" lon="6.63976">
        <ele>1874.1</ele>
        <time>2023-07-02T13:38:43+0200</time>
      </trkpt>
      <trkpt lat="44.91822" lon="6.63979">
        <ele>1875.1</ele>
        <time>2023-07-02T13:38:46+0200</time>
      </trkpt>
      <trkpt lat="44.91817" lon="6.63982">
        <ele>1875.8</ele>
        <time>2023-07-02T13:38:49+0200</time>
      </trkpt>
      <trkpt lat="44.91812" lon="6.63979">
        <ele>1875.3</ele>
        <time>2023-07-02T13:38:52+0200</time>
      </trkpt>
      <trkpt lat="44.91808" lon="6.63977">
        <ele>1874.9</ele>
        <time>2023-07-02T13:38:55+0200</time>
      </trkpt>
      <trkpt lat="44.91803" lon="6.63974">
        <ele>1874.4</ele>
        <time>2023-07-02T13:38:58+0200</time>
      </trkpt>
      <trkpt lat="44.91797" lon="6.63967">
        <ele>1873.4</ele>
        <time>2023-07-02T13:39:01+0200</time>
      </trkpt>
      <trkpt lat="44.91792" lon="6.63967">
        <ele>1873.5</ele>
        <time>2023-07-02T13:39:03+0200</time>
      </trkpt>
      <trkpt lat="44.91786" lon="6.63967">
        <ele>1873.8</ele>
        <time>2023-07-02T13:39:06+0200</time>
      </trkpt>
      <trkpt lat="44.91781" lon="6.63968">
        <ele>1874.2</ele>
        <time>2023-07-02T13:39:09+0200</time>
      </trkpt>
      <trkpt lat="44.91776" lon="6.63969">
        <ele>1874.5</ele>
        <time>2023-07-02T13:39:12+0200</time>
      </trkpt>
      <trkpt lat="44.9177" lon="6.6397">
        <ele>1874.7</ele>
        <time>2023-07-02T13:39:15+0200</time>
      </trkpt>
      <trkpt lat="44.91765" lon="6.63972">
        <ele>1875</ele>
        <time>2023-07-02T13:39:18+0200</time>
      </trkpt>
      <trkpt lat="44.9176" lon="6.63976">
        <ele>1875.6</ele>
        <time>2023-07-02T13:39:21+0200</time>
      </trkpt>
      <trkpt lat="44.91755" lon="6.63976">
        <ele>1875.7</ele>
        <time>2023-07-02T13:39:24+0200</time>
      </trkpt>
      <trkpt lat="44.9175" lon="6.63979">
        <ele>1876.2</ele>
        <time>2023-07-02T13:39:27+0200</time>
      </trkpt>
      <trkpt lat="44.91745" lon="6.63983">
        <ele>1876.9</ele>
        <time>2023-07-02T13:39:30+0200</time>
      </trkpt>
      <trkpt lat="44.9174" lon="6.63988">
        <ele>1877.6</ele>
        <time>2023-07-02T13:39:33+0200</time>
      </trkpt>
      <trkpt lat="44.91738" lon="6.63994">
        <ele>1878.5</ele>
        <time>2023-07-02T13:39:35+0200</time>
      </trkpt>
      <trkpt lat="44.91734" lon="6.63999">
        <ele>1879.3</ele>
        <time>2023-07-02T13:39:38+0200</time>
      </trkpt>
      <trkpt lat="44.91728" lon="6.64002">
        <ele>1879.6</ele>
        <time>2023-07-02T13:39:42+0200</time>
      </trkpt>
      <trkpt lat="44.91723" lon="6.64007">
        <ele>1880.3</ele>
        <time>2023-07-02T13:39:45+0200</time>
      </trkpt>
      <trkpt lat="44.91718" lon="6.64011">
        <ele>1881</ele>
        <time>2023-07-02T13:39:48+0200</time>
      </trkpt>
      <trkpt lat="44.91713" lon="6.64016">
        <ele>1881.7</ele>
        <time>2023-07-02T13:39:51+0200</time>
      </trkpt>
      <trkpt lat="44.91711" lon="6.64021">
        <ele>1882.5</ele>
        <time>2023-07-02T13:39:53+0200</time>
      </trkpt>
      <trkpt lat="44.91706" lon="6.64025">
        <ele>1882.9</ele>
        <time>2023-07-02T13:39:56+0200</time>
      </trkpt>
      <trkpt lat="44.91701" lon="6.64028">
        <ele>1883.3</ele>
        <time>2023-07-02T13:39:59+0200</time>
      </trkpt>
      <trkpt lat="44.91698" lon="6.64034">
        <ele>1884.4</ele>
        <time>2023-07-02T13:40:02+0200</time>
      </trkpt>
      <trkpt lat="44.91695" lon="6.6404">
        <ele>1885.7</ele>
        <time>2023-07-02T13:40:05+0200</time>
      </trkpt>
      <trkpt lat="44.91693" lon="6.64048">
        <ele>1887.5</ele>
        <time>2023-07-02T13:40:08+0200</time>
      </trkpt>
      <trkpt lat="44.91689" lon="6.64053">
        <ele>1888.5</ele>
        <time>2023-07-02T13:40:11+0200</time>
      </trkpt>
      <trkpt lat="44.91684" lon="6.64056">
        <ele>1889.1</ele>
        <time>2023-07-02T13:40:14+0200</time>
      </trkpt>
      <trkpt lat="44.91678" lon="6.64056">
        <ele>1889.1</ele>
        <time>2023-07-02T13:40:18+0200</time>
      </trkpt>
      <trkpt lat="44.91673" lon="6.64058">
        <ele>1889.5</ele>
        <time>2023-07-02T13:40:21+0200</time>
      </trkpt>
      <trkpt lat="44.91667" lon="6.64062">
        <ele>1890.4</ele>
        <time>2023-07-02T13:40:24+0200</time>
      </trkpt>
      <trkpt lat="44.91662" lon="6.64066">
        <ele>1891.3</ele>
        <time>2023-07-02T13:40:27+0200</time>
      </trkpt>
      <trkpt lat="44.91658" lon="6.64069">
        <ele>1891.7</ele>
        <time>2023-07-02T13:40:30+0200</time>
      </trkpt>
      <trkpt lat="44.91653" lon="6.64073">
        <ele>1892.5</ele>
        <time>2023-07-02T13:40:33+0200</time>
      </trkpt>
      <trkpt lat="44.91648" lon="6.64078">
        <ele>1893.3</ele>
        <time>2023-07-02T13:40:36+0200</time>
      </trkpt>
      <trkpt lat="44.91642" lon="6.6408">
        <ele>1893.4</ele>
        <time>2023-07-02T13:40:39+0200</time>
      </trkpt>
      <trkpt lat="44.91637" lon="6.64082">
        <ele>1893.7</ele>
        <time>2023-07-02T13:40:42+0200</time>
      </trkpt>
      <trkpt lat="44.91632" lon="6.64086">
        <ele>1894</ele>
        <time>2023-07-02T13:40:45+0200</time>
      </trkpt>
      <trkpt lat="44.91626" lon="6.64088">
        <ele>1894</ele>
        <time>2023-07-02T13:40:48+0200</time>
      </trkpt>
      <trkpt lat="44.91621" lon="6.6409">
        <ele>1894</ele>
        <time>2023-07-02T13:40:51+0200</time>
      </trkpt>
      <trkpt lat="44.91617" lon="6.64095">
        <ele>1894.5</ele>
        <time>2023-07-02T13:40:54+0200</time>
      </trkpt>
      <trkpt lat="44.91614" lon="6.64099">
        <ele>1895.1</ele>
        <time>2023-07-02T13:40:56+0200</time>
      </trkpt>
      <trkpt lat="44.91609" lon="6.64103">
        <ele>1895.4</ele>
        <time>2023-07-02T13:40:59+0200</time>
      </trkpt>
      <trkpt lat="44.91606" lon="6.64109">
        <ele>1896.2</ele>
        <time>2023-07-02T13:41:02+0200</time>
      </trkpt>
      <trkpt lat="44.91602" lon="6.64116">
        <ele>1897.5</ele>
        <time>2023-07-02T13:41:05+0200</time>
      </trkpt>
      <trkpt lat="44.91599" lon="6.64122">
        <ele>1898.2</ele>
        <time>2023-07-02T13:41:08+0200</time>
      </trkpt>
      <trkpt lat="44.91595" lon="6.64127">
        <ele>1899</ele>
        <time>2023-07-02T13:41:11+0200</time>
      </trkpt>
      <trkpt lat="44.91593" lon="6.64133">
        <ele>1899.9</ele>
        <time>2023-07-02T13:41:14+0200</time>
      </trkpt>
      <trkpt lat="44.91588" lon="6.64138">
        <ele>1900.3</ele>
        <time>2023-07-02T13:41:17+0200</time>
      </trkpt>
      <trkpt lat="44.91583" lon="6.64141">
        <ele>1900.5</ele>
        <time>2023-07-02T13:41:20+0200</time>
      </trkpt>
      <trkpt lat="44.91578" lon="6.64143">
        <ele>1900.2</ele>
        <time>2023-07-02T13:41:24+0200</time>
      </trkpt>
      <trkpt lat="44.91574" lon="6.64147">
        <ele>1900.6</ele>
        <time>2023-07-02T13:41:27+0200</time>
      </trkpt>
      <trkpt lat="44.91569" lon="6.64153">
        <ele>1901.2</ele>
        <time>2023-07-02T13:41:30+0200</time>
      </trkpt>
      <trkpt lat="44.91564" lon="6.6416">
        <ele>1902</ele>
        <time>2023-07-02T13:41:33+0200</time>
      </trkpt>
      <trkpt lat="44.9156" lon="6.64159">
        <ele>1901.1</ele>
        <time>2023-07-02T13:41:35+0200</time>
      </trkpt>
      <trkpt lat="44.91556" lon="6.64164">
        <ele>1901.5</ele>
        <time>2023-07-02T13:41:38+0200</time>
      </trkpt>
      <trkpt lat="44.91552" lon="6.64169">
        <ele>1901.8</ele>
        <time>2023-07-02T13:41:41+0200</time>
      </trkpt>
      <trkpt lat="44.91548" lon="6.64175">
        <ele>1902.7</ele>
        <time>2023-07-02T13:41:44+0200</time>
      </trkpt>
      <trkpt lat="44.91545" lon="6.64182">
        <ele>1904</ele>
        <time>2023-07-02T13:41:47+0200</time>
      </trkpt>
      <trkpt lat="44.9154" lon="6.64187">
        <ele>1904.4</ele>
        <time>2023-07-02T13:41:50+0200</time>
      </trkpt>
      <trkpt lat="44.91536" lon="6.64193">
        <ele>1905</ele>
        <time>2023-07-02T13:41:53+0200</time>
      </trkpt>
      <trkpt lat="44.91532" lon="6.64196">
        <ele>1905.2</ele>
        <time>2023-07-02T13:41:56+0200</time>
      </trkpt>
      <trkpt lat="44.91528" lon="6.64201">
        <ele>1905.9</ele>
        <time>2023-07-02T13:41:59+0200</time>
      </trkpt>
      <trkpt lat="44.91523" lon="6.64206">
        <ele>1906.5</ele>
        <time>2023-07-02T13:42:02+0200</time>
      </trkpt>
      <trkpt lat="44.91519" lon="6.6421">
        <ele>1907.1</ele>
        <time>2023-07-02T13:42:05+0200</time>
      </trkpt>
      <trkpt lat="44.91514" lon="6.64217">
        <ele>1908.1</ele>
        <time>2023-07-02T13:42:09+0200</time>
      </trkpt>
      <trkpt lat="44.91508" lon="6.6422">
        <ele>1907.9</ele>
        <time>2023-07-02T13:42:12+0200</time>
      </trkpt>
      <trkpt lat="44.91506" lon="6.64227">
        <ele>1909.5</ele>
        <time>2023-07-02T13:42:14+0200</time>
      </trkpt>
      <trkpt lat="44.91503" lon="6.64231">
        <ele>1910</ele>
        <time>2023-07-02T13:42:17+0200</time>
      </trkpt>
      <trkpt lat="44.91499" lon="6.64236">
        <ele>1910.7</ele>
        <time>2023-07-02T13:42:20+0200</time>
      </trkpt>
      <trkpt lat="44.91495" lon="6.64241">
        <ele>1911.8</ele>
        <time>2023-07-02T13:42:23+0200</time>
      </trkpt>
      <trkpt lat="44.91491" lon="6.64246">
        <ele>1912.7</ele>
        <time>2023-07-02T13:42:26+0200</time>
      </trkpt>
      <trkpt lat="44.91488" lon="6.64251">
        <ele>1913.5</ele>
        <time>2023-07-02T13:42:29+0200</time>
      </trkpt>
      <trkpt lat="44.91483" lon="6.64254">
        <ele>1913.8</ele>
        <time>2023-07-02T13:42:32+0200</time>
      </trkpt>
      <trkpt lat="44.91479" lon="6.64259">
        <ele>1914.7</ele>
        <time>2023-07-02T13:42:35+0200</time>
      </trkpt>
      <trkpt lat="44.91476" lon="6.64262">
        <ele>1915.4</ele>
        <time>2023-07-02T13:42:37+0200</time>
      </trkpt>
      <trkpt lat="44.91471" lon="6.64267">
        <ele>1916.3</ele>
        <time>2023-07-02T13:42:40+0200</time>
      </trkpt>
      <trkpt lat="44.91467" lon="6.64273">
        <ele>1918.1</ele>
        <time>2023-07-02T13:42:43+0200</time>
      </trkpt>
      <trkpt lat="44.91463" lon="6.64277">
        <ele>1918.7</ele>
        <time>2023-07-02T13:42:46+0200</time>
      </trkpt>
      <trkpt lat="44.91459" lon="6.64281">
        <ele>1919.5</ele>
        <time>2023-07-02T13:42:48+0200</time>
      </trkpt>
      <trkpt lat="44.91455" lon="6.64285">
        <ele>1920.1</ele>
        <time>2023-07-02T13:42:51+0200</time>
      </trkpt>
      <trkpt lat="44.9145" lon="6.6429">
        <ele>1920.7</ele>
        <time>2023-07-02T13:42:54+0200</time>
      </trkpt>
      <trkpt lat="44.91444" lon="6.64293">
        <ele>1920.7</ele>
        <time>2023-07-02T13:42:58+0200</time>
      </trkpt>
      <trkpt lat="44.91439" lon="6.64294">
        <ele>1920.6</ele>
        <time>2023-07-02T13:43:01+0200</time>
      </trkpt>
      <trkpt lat="44.91435" lon="6.64297">
        <ele>1921.1</ele>
        <time>2023-07-02T13:43:04+0200</time>
      </trkpt>
      <trkpt lat="44.9143" lon="6.64299">
        <ele>1921.3</ele>
        <time>2023-07-02T13:43:06+0200</time>
      </trkpt>
      <trkpt lat="44.91425" lon="6.64302">
        <ele>1921.6</ele>
        <time>2023-07-02T13:43:09+0200</time>
      </trkpt>
      <trkpt lat="44.9142" lon="6.64303">
        <ele>1921.4</ele>
        <time>2023-07-02T13:43:11+0200</time>
      </trkpt>
      <trkpt lat="44.91414" lon="6.64306">
        <ele>1922</ele>
        <time>2023-07-02T13:43:14+0200</time>
      </trkpt>
      <trkpt lat="44.91409" lon="6.64309">
        <ele>1922.1</ele>
        <time>2023-07-02T13:43:17+0200</time>
      </trkpt>
      <trkpt lat="44.91404" lon="6.64312">
        <ele>1922.5</ele>
        <time>2023-07-02T13:43:20+0200</time>
      </trkpt>
      <trkpt lat="44.91402" lon="6.64319">
        <ele>1924</ele>
        <time>2023-07-02T13:43:23+0200</time>
      </trkpt>
      <trkpt lat="44.91398" lon="6.64327">
        <ele>1925.5</ele>
        <time>2023-07-02T13:43:27+0200</time>
      </trkpt>
      <trkpt lat="44.91397" lon="6.64333">
        <ele>1926.7</ele>
        <time>2023-07-02T13:43:29+0200</time>
      </trkpt>
      <trkpt lat="44.91394" lon="6.6434">
        <ele>1928</ele>
        <time>2023-07-02T13:43:33+0200</time>
      </trkpt>
      <trkpt lat="44.9139" lon="6.64345">
        <ele>1928.5</ele>
        <time>2023-07-02T13:43:36+0200</time>
      </trkpt>
      <trkpt lat="44.91387" lon="6.64352">
        <ele>1929.6</ele>
        <time>2023-07-02T13:43:39+0200</time>
      </trkpt>
      <trkpt lat="44.91381" lon="6.64356">
        <ele>1929.7</ele>
        <time>2023-07-02T13:43:42+0200</time>
      </trkpt>
      <trkpt lat="44.91377" lon="6.64362">
        <ele>1930.5</ele>
        <time>2023-07-02T13:43:45+0200</time>
      </trkpt>
      <trkpt lat="44.91374" lon="6.64369">
        <ele>1931.3</ele>
        <time>2023-07-02T13:43:48+0200</time>
      </trkpt>
      <trkpt lat="44.9137" lon="6.64373">
        <ele>1931.7</ele>
        <time>2023-07-02T13:43:51+0200</time>
      </trkpt>
      <trkpt lat="44.91367" lon="6.64378">
        <ele>1932.3</ele>
        <time>2023-07-02T13:43:54+0200</time>
      </trkpt>
      <trkpt lat="44.91364" lon="6.64384">
        <ele>1933.2</ele>
        <time>2023-07-02T13:43:56+0200</time>
      </trkpt>
      <trkpt lat="44.9136" lon="6.64388">
        <ele>1933.7</ele>
        <time>2023-07-02T13:43:59+0200</time>
      </trkpt>
      <trkpt lat="44.91357" lon="6.64394">
        <ele>1934.3</ele>
        <time>2023-07-02T13:44:02+0200</time>
      </trkpt>
      <trkpt lat="44.91354" lon="6.64398">
        <ele>1934.5</ele>
        <time>2023-07-02T13:44:05+0200</time>
      </trkpt>
      <trkpt lat="44.91351" lon="6.64404">
        <ele>1935.2</ele>
        <time>2023-07-02T13:44:08+0200</time>
      </trkpt>
      <trkpt lat="44.91348" lon="6.64411">
        <ele>1936.2</ele>
        <time>2023-07-02T13:44:11+0200</time>
      </trkpt>
      <trkpt lat="44.91344" lon="6.64419">
        <ele>1937.1</ele>
        <time>2023-07-02T13:44:15+0200</time>
      </trkpt>
      <trkpt lat="44.9134" lon="6.64424">
        <ele>1937.4</ele>
        <time>2023-07-02T13:44:18+0200</time>
      </trkpt>
      <trkpt lat="44.91337" lon="6.64429">
        <ele>1938.1</ele>
        <time>2023-07-02T13:44:21+0200</time>
      </trkpt>
      <trkpt lat="44.91333" lon="6.64434">
        <ele>1938.8</ele>
        <time>2023-07-02T13:44:24+0200</time>
      </trkpt>
      <trkpt lat="44.91329" lon="6.64439">
        <ele>1939.2</ele>
        <time>2023-07-02T13:44:27+0200</time>
      </trkpt>
      <trkpt lat="44.91325" lon="6.64444">
        <ele>1939.6</ele>
        <time>2023-07-02T13:44:31+0200</time>
      </trkpt>
      <trkpt lat="44.91322" lon="6.6445">
        <ele>1940.7</ele>
        <time>2023-07-02T13:44:33+0200</time>
      </trkpt>
      <trkpt lat="44.91318" lon="6.64453">
        <ele>1940.7</ele>
        <time>2023-07-02T13:44:36+0200</time>
      </trkpt>
      <trkpt lat="44.91313" lon="6.64456">
        <ele>1941</ele>
        <time>2023-07-02T13:44:39+0200</time>
      </trkpt>
      <trkpt lat="44.91308" lon="6.6446">
        <ele>1941.3</ele>
        <time>2023-07-02T13:44:42+0200</time>
      </trkpt>
      <trkpt lat="44.91304" lon="6.64466">
        <ele>1942.3</ele>
        <time>2023-07-02T13:44:45+0200</time>
      </trkpt>
      <trkpt lat="44.91299" lon="6.64468">
        <ele>1942.3</ele>
        <time>2023-07-02T13:44:48+0200</time>
      </trkpt>
      <trkpt lat="44.91297" lon="6.64476">
        <ele>1943.8</ele>
        <time>2023-07-02T13:44:51+0200</time>
      </trkpt>
      <trkpt lat="44.91294" lon="6.64481">
        <ele>1944.5</ele>
        <time>2023-07-02T13:44:54+0200</time>
      </trkpt>
      <trkpt lat="44.91289" lon="6.64486">
        <ele>1945.2</ele>
        <time>2023-07-02T13:44:58+0200</time>
      </trkpt>
      <trkpt lat="44.91286" lon="6.64491">
        <ele>1946</ele>
        <time>2023-07-02T13:45:01+0200</time>
      </trkpt>
      <trkpt lat="44.91283" lon="6.64498">
        <ele>1947</ele>
        <time>2023-07-02T13:45:04+0200</time>
      </trkpt>
      <trkpt lat="44.91278" lon="6.64503">
        <ele>1947.5</ele>
        <time>2023-07-02T13:45:08+0200</time>
      </trkpt>
      <trkpt lat="44.91272" lon="6.64505">
        <ele>1947.4</ele>
        <time>2023-07-02T13:45:11+0200</time>
      </trkpt>
      <trkpt lat="44.91267" lon="6.64507">
        <ele>1947.5</ele>
        <time>2023-07-02T13:45:15+0200</time>
      </trkpt>
      <trkpt lat="44.91263" lon="6.64512">
        <ele>1948.1</ele>
        <time>2023-07-02T13:45:17+0200</time>
      </trkpt>
      <trkpt lat="44.9126" lon="6.64519">
        <ele>1949.5</ele>
        <time>2023-07-02T13:45:20+0200</time>
      </trkpt>
      <trkpt lat="44.91256" lon="6.64525">
        <ele>1950.8</ele>
        <time>2023-07-02T13:45:24+0200</time>
      </trkpt>
      <trkpt lat="44.91252" lon="6.64532">
        <ele>1952.2</ele>
        <time>2023-07-02T13:45:27+0200</time>
      </trkpt>
      <trkpt lat="44.91248" lon="6.64536">
        <ele>1952.8</ele>
        <time>2023-07-02T13:45:30+0200</time>
      </trkpt>
      <trkpt lat="44.91244" lon="6.64541">
        <ele>1953.7</ele>
        <time>2023-07-02T13:45:33+0200</time>
      </trkpt>
      <trkpt lat="44.9124" lon="6.64545">
        <ele>1954.3</ele>
        <time>2023-07-02T13:45:36+0200</time>
      </trkpt>
      <trkpt lat="44.91236" lon="6.64552">
        <ele>1955.7</ele>
        <time>2023-07-02T13:45:39+0200</time>
      </trkpt>
      <trkpt lat="44.91231" lon="6.64554">
        <ele>1955.6</ele>
        <time>2023-07-02T13:45:43+0200</time>
      </trkpt>
      <trkpt lat="44.91226" lon="6.64556">
        <ele>1955.5</ele>
        <time>2023-07-02T13:45:46+0200</time>
      </trkpt>
      <trkpt lat="44.91221" lon="6.64554">
        <ele>1954.4</ele>
        <time>2023-07-02T13:45:49+0200</time>
      </trkpt>
      <trkpt lat="44.91216" lon="6.64557">
        <ele>1954.6</ele>
        <time>2023-07-02T13:45:52+0200</time>
      </trkpt>
      <trkpt lat="44.91211" lon="6.64559">
        <ele>1954.9</ele>
        <time>2023-07-02T13:45:55+0200</time>
      </trkpt>
      <trkpt lat="44.91205" lon="6.64559">
        <ele>1954.3</ele>
        <time>2023-07-02T13:45:58+0200</time>
      </trkpt>
      <trkpt lat="44.91201" lon="6.64562">
        <ele>1954.7</ele>
        <time>2023-07-02T13:46:01+0200</time>
      </trkpt>
      <trkpt lat="44.91197" lon="6.64566">
        <ele>1955.3</ele>
        <time>2023-07-02T13:46:03+0200</time>
      </trkpt>
      <trkpt lat="44.91193" lon="6.64569">
        <ele>1955.8</ele>
        <time>2023-07-02T13:46:05+0200</time>
      </trkpt>
      <trkpt lat="44.91187" lon="6.64574">
        <ele>1956.3</ele>
        <time>2023-07-02T13:46:08+0200</time>
      </trkpt>
      <trkpt lat="44.91183" lon="6.64576">
        <ele>1956.4</ele>
        <time>2023-07-02T13:46:11+0200</time>
      </trkpt>
      <trkpt lat="44.91178" lon="6.64582">
        <ele>1957.3</ele>
        <time>2023-07-02T13:46:14+0200</time>
      </trkpt>
      <trkpt lat="44.91174" lon="6.64587">
        <ele>1958.3</ele>
        <time>2023-07-02T13:46:17+0200</time>
      </trkpt>
      <trkpt lat="44.91169" lon="6.64591">
        <ele>1958.9</ele>
        <time>2023-07-02T13:46:20+0200</time>
      </trkpt>
      <trkpt lat="44.91165" lon="6.64596">
        <ele>1959.6</ele>
        <time>2023-07-02T13:46:23+0200</time>
      </trkpt>
      <trkpt lat="44.91162" lon="6.646">
        <ele>1960.4</ele>
        <time>2023-07-02T13:46:25+0200</time>
      </trkpt>
      <trkpt lat="44.91157" lon="6.64603">
        <ele>1960.4</ele>
        <time>2023-07-02T13:46:27+0200</time>
      </trkpt>
      <trkpt lat="44.91153" lon="6.64609">
        <ele>1961.4</ele>
        <time>2023-07-02T13:46:31+0200</time>
      </trkpt>
      <trkpt lat="44.91148" lon="6.64611">
        <ele>1961</ele>
        <time>2023-07-02T13:46:34+0200</time>
      </trkpt>
      <trkpt lat="44.91144" lon="6.64615">
        <ele>1961.6</ele>
        <time>2023-07-02T13:46:37+0200</time>
      </trkpt>
      <trkpt lat="44.91139" lon="6.64618">
        <ele>1961.8</ele>
        <time>2023-07-02T13:46:40+0200</time>
      </trkpt>
      <trkpt lat="44.91136" lon="6.64623">
        <ele>1963</ele>
        <time>2023-07-02T13:46:42+0200</time>
      </trkpt>
      <trkpt lat="44.9113" lon="6.64625">
        <ele>1963</ele>
        <time>2023-07-02T13:46:45+0200</time>
      </trkpt>
      <trkpt lat="44.91126" lon="6.64626">
        <ele>1962.7</ele>
        <time>2023-07-02T13:46:47+0200</time>
      </trkpt>
      <trkpt lat="44.9112" lon="6.64631">
        <ele>1964</ele>
        <time>2023-07-02T13:46:50+0200</time>
      </trkpt>
      <trkpt lat="44.91117" lon="6.64636">
        <ele>1965.6</ele>
        <time>2023-07-02T13:46:52+0200</time>
      </trkpt>
      <trkpt lat="44.91113" lon="6.6464">
        <ele>1966.6</ele>
        <time>2023-07-02T13:46:55+0200</time>
      </trkpt>
      <trkpt lat="44.91108" lon="6.64641">
        <ele>1966.7</ele>
        <time>2023-07-02T13:46:58+0200</time>
      </trkpt>
      <trkpt lat="44.91103" lon="6.64643">
        <ele>1967.1</ele>
        <time>2023-07-02T13:47:07+0200</time>
      </trkpt>
      <trkpt lat="44.91098" lon="6.64646">
        <ele>1967.8</ele>
        <time>2023-07-02T13:47:11+0200</time>
      </trkpt>
      <trkpt lat="44.91092" lon="6.64649">
        <ele>1968.2</ele>
        <time>2023-07-02T13:47:15+0200</time>
      </trkpt>
      <trkpt lat="44.91087" lon="6.64652">
        <ele>1968.4</ele>
        <time>2023-07-02T13:47:18+0200</time>
      </trkpt>
      <trkpt lat="44.91083" lon="6.64652">
        <ele>1967.6</ele>
        <time>2023-07-02T13:47:21+0200</time>
      </trkpt>
      <trkpt lat="44.91077" lon="6.64655">
        <ele>1967</ele>
        <time>2023-07-02T13:47:24+0200</time>
      </trkpt>
      <trkpt lat="44.91074" lon="6.64659">
        <ele>1966.8</ele>
        <time>2023-07-02T13:47:28+0200</time>
      </trkpt>
      <trkpt lat="44.91072" lon="6.64669">
        <ele>1968</ele>
        <time>2023-07-02T13:47:32+0200</time>
      </trkpt>
      <trkpt lat="44.91072" lon="6.64682">
        <ele>1967.5</ele>
        <time>2023-07-02T13:47:34+0200</time>
      </trkpt>
      <trkpt lat="44.91072" lon="6.64689">
        <ele>1967.5</ele>
        <time>2023-07-02T13:47:35+0200</time>
      </trkpt>
      <trkpt lat="44.91072" lon="6.64698">
        <ele>1967.1</ele>
        <time>2023-07-02T13:47:36+0200</time>
      </trkpt>
      <trkpt lat="44.91073" lon="6.64707">
        <ele>1966.5</ele>
        <time>2023-07-02T13:47:37+0200</time>
      </trkpt>
      <trkpt lat="44.91073" lon="6.64714">
        <ele>1966.2</ele>
        <time>2023-07-02T13:47:38+0200</time>
      </trkpt>
      <trkpt lat="44.91074" lon="6.64721">
        <ele>1965.9</ele>
        <time>2023-07-02T13:47:39+0200</time>
      </trkpt>
      <trkpt lat="44.91077" lon="6.64727">
        <ele>1966.6</ele>
        <time>2023-07-02T13:47:40+0200</time>
      </trkpt>
      <trkpt lat="44.9108" lon="6.64737">
        <ele>1965.6</ele>
        <time>2023-07-02T13:47:42+0200</time>
      </trkpt>
      <trkpt lat="44.9108" lon="6.64744">
        <ele>1963.8</ele>
        <time>2023-07-02T13:47:43+0200</time>
      </trkpt>
      <trkpt lat="44.91083" lon="6.64751">
        <ele>1963.2</ele>
        <time>2023-07-02T13:47:44+0200</time>
      </trkpt>
      <trkpt lat="44.91084" lon="6.6476">
        <ele>1961.2</ele>
        <time>2023-07-02T13:47:45+0200</time>
      </trkpt>
      <trkpt lat="44.91088" lon="6.64769">
        <ele>1960.8</ele>
        <time>2023-07-02T13:47:46+0200</time>
      </trkpt>
      <trkpt lat="44.91092" lon="6.64775">
        <ele>1961.3</ele>
        <time>2023-07-02T13:47:47+0200</time>
      </trkpt>
      <trkpt lat="44.91093" lon="6.64782">
        <ele>1959.7</ele>
        <time>2023-07-02T13:47:48+0200</time>
      </trkpt>
      <trkpt lat="44.91097" lon="6.64787">
        <ele>1960</ele>
        <time>2023-07-02T13:47:49+0200</time>
      </trkpt>
      <trkpt lat="44.911" lon="6.64799">
        <ele>1957.2</ele>
        <time>2023-07-02T13:47:51+0200</time>
      </trkpt>
      <trkpt lat="44.91104" lon="6.64807">
        <ele>1956.2</ele>
        <time>2023-07-02T13:47:52+0200</time>
      </trkpt>
      <trkpt lat="44.91107" lon="6.64814">
        <ele>1955.1</ele>
        <time>2023-07-02T13:47:53+0200</time>
      </trkpt>
      <trkpt lat="44.91111" lon="6.64819">
        <ele>1955</ele>
        <time>2023-07-02T13:47:54+0200</time>
      </trkpt>
      <trkpt lat="44.91114" lon="6.64825">
        <ele>1954.1</ele>
        <time>2023-07-02T13:47:55+0200</time>
      </trkpt>
      <trkpt lat="44.91119" lon="6.64833">
        <ele>1953.6</ele>
        <time>2023-07-02T13:47:57+0200</time>
      </trkpt>
      <trkpt lat="44.91122" lon="6.64838">
        <ele>1953.9</ele>
        <time>2023-07-02T13:47:58+0200</time>
      </trkpt>
      <trkpt lat="44.91121" lon="6.6485">
        <ele>1950</ele>
        <time>2023-07-02T13:48:00+0200</time>
      </trkpt>
      <trkpt lat="44.91119" lon="6.64856">
        <ele>1946.9</ele>
        <time>2023-07-02T13:48:01+0200</time>
      </trkpt>
      <trkpt lat="44.91122" lon="6.64864">
        <ele>1946.2</ele>
        <time>2023-07-02T13:48:03+0200</time>
      </trkpt>
      <trkpt lat="44.91122" lon="6.64874">
        <ele>1944.6</ele>
        <time>2023-07-02T13:48:05+0200</time>
      </trkpt>
      <trkpt lat="44.91121" lon="6.64883">
        <ele>1942.3</ele>
        <time>2023-07-02T13:48:07+0200</time>
      </trkpt>
      <trkpt lat="44.91126" lon="6.64881">
        <ele>1945.7</ele>
        <time>2023-07-02T13:48:14+0200</time>
      </trkpt>
      <trkpt lat="44.91131" lon="6.64882">
        <ele>1948.8</ele>
        <time>2023-07-02T13:48:22+0200</time>
      </trkpt>
      <trkpt lat="44.91131" lon="6.64894">
        <ele>1946.4</ele>
        <time>2023-07-02T13:48:35+0200</time>
      </trkpt>
      <trkpt lat="44.91132" lon="6.64903">
        <ele>1944.5</ele>
        <time>2023-07-02T13:48:37+0200</time>
      </trkpt>
      <trkpt lat="44.91127" lon="6.64911">
        <ele>1939.1</ele>
        <time>2023-07-02T13:48:39+0200</time>
      </trkpt>
      <trkpt lat="44.91128" lon="6.64918">
        <ele>1937.5</ele>
        <time>2023-07-02T13:48:40+0200</time>
      </trkpt>
      <trkpt lat="44.9113" lon="6.64926">
        <ele>1936.7</ele>
        <time>2023-07-02T13:48:41+0200</time>
      </trkpt>
      <trkpt lat="44.91134" lon="6.64934">
        <ele>1936.9</ele>
        <time>2023-07-02T13:48:42+0200</time>
      </trkpt>
      <trkpt lat="44.91136" lon="6.64941">
        <ele>1935.9</ele>
        <time>2023-07-02T13:48:43+0200</time>
      </trkpt>
      <trkpt lat="44.91137" lon="6.64954">
        <ele>1933.1</ele>
        <time>2023-07-02T13:48:45+0200</time>
      </trkpt>
      <trkpt lat="44.91138" lon="6.64961">
        <ele>1931.7</ele>
        <time>2023-07-02T13:48:46+0200</time>
      </trkpt>
      <trkpt lat="44.9114" lon="6.64967">
        <ele>1930.9</ele>
        <time>2023-07-02T13:48:47+0200</time>
      </trkpt>
      <trkpt lat="44.91142" lon="6.64975">
        <ele>1929.4</ele>
        <time>2023-07-02T13:48:48+0200</time>
      </trkpt>
      <trkpt lat="44.91145" lon="6.64983">
        <ele>1927.5</ele>
        <time>2023-07-02T13:48:49+0200</time>
      </trkpt>
      <trkpt lat="44.9115" lon="6.64995">
        <ele>1925.1</ele>
        <time>2023-07-02T13:48:50+0200</time>
      </trkpt>
      <trkpt lat="44.91154" lon="6.65005">
        <ele>1922.1</ele>
        <time>2023-07-02T13:48:51+0200</time>
      </trkpt>
      <trkpt lat="44.91158" lon="6.65015">
        <ele>1919</ele>
        <time>2023-07-02T13:48:52+0200</time>
      </trkpt>
      <trkpt lat="44.91159" lon="6.65024">
        <ele>1916</ele>
        <time>2023-07-02T13:48:53+0200</time>
      </trkpt>
      <trkpt lat="44.91166" lon="6.65028">
        <ele>1915.5</ele>
        <time>2023-07-02T13:48:55+0200</time>
      </trkpt>
      <trkpt lat="44.91171" lon="6.65026">
        <ele>1916.7</ele>
        <time>2023-07-02T13:48:56+0200</time>
      </trkpt>
      <trkpt lat="44.91177" lon="6.65023">
        <ele>1918.4</ele>
        <time>2023-07-02T13:48:57+0200</time>
      </trkpt>
      <trkpt lat="44.91184" lon="6.6502">
        <ele>1920.3</ele>
        <time>2023-07-02T13:48:58+0200</time>
      </trkpt>
      <trkpt lat="44.91188" lon="6.65021">
        <ele>1919.9</ele>
        <time>2023-07-02T13:48:59+0200</time>
      </trkpt>
      <trkpt lat="44.91192" lon="6.65028">
        <ele>1915.8</ele>
        <time>2023-07-02T13:49:00+0200</time>
      </trkpt>
      <trkpt lat="44.91197" lon="6.65033">
        <ele>1913.8</ele>
        <time>2023-07-02T13:49:01+0200</time>
      </trkpt>
      <trkpt lat="44.912" lon="6.65039">
        <ele>1911.2</ele>
        <time>2023-07-02T13:49:02+0200</time>
      </trkpt>
      <trkpt lat="44.91207" lon="6.65046">
        <ele>1908.6</ele>
        <time>2023-07-02T13:49:04+0200</time>
      </trkpt>
      <trkpt lat="44.91211" lon="6.65049">
        <ele>1907.9</ele>
        <time>2023-07-02T13:49:05+0200</time>
      </trkpt>
      <trkpt lat="44.91218" lon="6.65051">
        <ele>1907.9</ele>
        <time>2023-07-02T13:49:06+0200</time>
      </trkpt>
      <trkpt lat="44.91223" lon="6.65056">
        <ele>1905.9</ele>
        <time>2023-07-02T13:49:07+0200</time>
      </trkpt>
      <trkpt lat="44.91231" lon="6.65059">
        <ele>1906.2</ele>
        <time>2023-07-02T13:49:08+0200</time>
      </trkpt>
      <trkpt lat="44.91237" lon="6.65066">
        <ele>1904</ele>
        <time>2023-07-02T13:49:09+0200</time>
      </trkpt>
      <trkpt lat="44.91244" lon="6.65069">
        <ele>1903.8</ele>
        <time>2023-07-02T13:49:10+0200</time>
      </trkpt>
      <trkpt lat="44.91247" lon="6.65076">
        <ele>1900.4</ele>
        <time>2023-07-02T13:49:11+0200</time>
      </trkpt>
      <trkpt lat="44.91251" lon="6.6508">
        <ele>1899</ele>
        <time>2023-07-02T13:49:12+0200</time>
      </trkpt>
      <trkpt lat="44.91258" lon="6.65089">
        <ele>1897.6</ele>
        <time>2023-07-02T13:49:14+0200</time>
      </trkpt>
      <trkpt lat="44.91263" lon="6.65102">
        <ele>1893.2</ele>
        <time>2023-07-02T13:49:16+0200</time>
      </trkpt>
      <trkpt lat="44.91268" lon="6.6511">
        <ele>1891.4</ele>
        <time>2023-07-02T13:49:17+0200</time>
      </trkpt>
      <trkpt lat="44.91271" lon="6.65116">
        <ele>1889.7</ele>
        <time>2023-07-02T13:49:18+0200</time>
      </trkpt>
      <trkpt lat="44.91274" lon="6.65123">
        <ele>1887.9</ele>
        <time>2023-07-02T13:49:19+0200</time>
      </trkpt>
      <trkpt lat="44.91277" lon="6.65131">
        <ele>1885.9</ele>
        <time>2023-07-02T13:49:20+0200</time>
      </trkpt>
      <trkpt lat="44.91281" lon="6.6514">
        <ele>1884.2</ele>
        <time>2023-07-02T13:49:22+0200</time>
      </trkpt>
      <trkpt lat="44.91285" lon="6.65144">
        <ele>1884.3</ele>
        <time>2023-07-02T13:49:23+0200</time>
      </trkpt>
      <trkpt lat="44.91289" lon="6.65151">
        <ele>1883.1</ele>
        <time>2023-07-02T13:49:24+0200</time>
      </trkpt>
      <trkpt lat="44.91293" lon="6.6516">
        <ele>1881.1</ele>
        <time>2023-07-02T13:49:25+0200</time>
      </trkpt>
      <trkpt lat="44.91297" lon="6.65164">
        <ele>1880.6</ele>
        <time>2023-07-02T13:49:26+0200</time>
      </trkpt>
      <trkpt lat="44.913" lon="6.65172">
        <ele>1878.7</ele>
        <time>2023-07-02T13:49:27+0200</time>
      </trkpt>
      <trkpt lat="44.91305" lon="6.6518">
        <ele>1877.5</ele>
        <time>2023-07-02T13:49:28+0200</time>
      </trkpt>
      <trkpt lat="44.9131" lon="6.65187">
        <ele>1877.2</ele>
        <time>2023-07-02T13:49:29+0200</time>
      </trkpt>
      <trkpt lat="44.91314" lon="6.65195">
        <ele>1875.9</ele>
        <time>2023-07-02T13:49:30+0200</time>
      </trkpt>
      <trkpt lat="44.91317" lon="6.65204">
        <ele>1874</ele>
        <time>2023-07-02T13:49:31+0200</time>
      </trkpt>
      <trkpt lat="44.91321" lon="6.65213">
        <ele>1872.9</ele>
        <time>2023-07-02T13:49:32+0200</time>
      </trkpt>
      <trkpt lat="44.91323" lon="6.65219">
        <ele>1871.6</ele>
        <time>2023-07-02T13:49:33+0200</time>
      </trkpt>
      <trkpt lat="44.91327" lon="6.65225">
        <ele>1870.8</ele>
        <time>2023-07-02T13:49:34+0200</time>
      </trkpt>
      <trkpt lat="44.91329" lon="6.65234">
        <ele>1869</ele>
        <time>2023-07-02T13:49:35+0200</time>
      </trkpt>
      <trkpt lat="44.91331" lon="6.65242">
        <ele>1867.1</ele>
        <time>2023-07-02T13:49:36+0200</time>
      </trkpt>
      <trkpt lat="44.91334" lon="6.6525">
        <ele>1865.4</ele>
        <time>2023-07-02T13:49:37+0200</time>
      </trkpt>
      <trkpt lat="44.91336" lon="6.65257">
        <ele>1864.8</ele>
        <time>2023-07-02T13:49:38+0200</time>
      </trkpt>
      <trkpt lat="44.91338" lon="6.65263">
        <ele>1864.7</ele>
        <time>2023-07-02T13:49:39+0200</time>
      </trkpt>
      <trkpt lat="44.91339" lon="6.6527">
        <ele>1864</ele>
        <time>2023-07-02T13:49:40+0200</time>
      </trkpt>
      <trkpt lat="44.91339" lon="6.65281">
        <ele>1861.4</ele>
        <time>2023-07-02T13:49:42+0200</time>
      </trkpt>
      <trkpt lat="44.91339" lon="6.6529">
        <ele>1859.6</ele>
        <time>2023-07-02T13:49:43+0200</time>
      </trkpt>
      <trkpt lat="44.91341" lon="6.65297">
        <ele>1858.6</ele>
        <time>2023-07-02T13:49:44+0200</time>
      </trkpt>
      <trkpt lat="44.91343" lon="6.65304">
        <ele>1857.8</ele>
        <time>2023-07-02T13:49:45+0200</time>
      </trkpt>
      <trkpt lat="44.91345" lon="6.6531">
        <ele>1857.1</ele>
        <time>2023-07-02T13:49:47+0200</time>
      </trkpt>
      <trkpt lat="44.91347" lon="6.65317">
        <ele>1855.9</ele>
        <time>2023-07-02T13:49:48+0200</time>
      </trkpt>
      <trkpt lat="44.91351" lon="6.65326">
        <ele>1854.7</ele>
        <time>2023-07-02T13:49:50+0200</time>
      </trkpt>
      <trkpt lat="44.91346" lon="6.6532">
        <ele>1854.5</ele>
        <time>2023-07-02T13:49:54+0200</time>
      </trkpt>
      <trkpt lat="44.91342" lon="6.65316">
        <ele>1854.3</ele>
        <time>2023-07-02T13:49:55+0200</time>
      </trkpt>
      <trkpt lat="44.91336" lon="6.65312">
        <ele>1853.5</ele>
        <time>2023-07-02T13:49:56+0200</time>
      </trkpt>
      <trkpt lat="44.91328" lon="6.6531">
        <ele>1851.1</ele>
        <time>2023-07-02T13:49:57+0200</time>
      </trkpt>
      <trkpt lat="44.91323" lon="6.65309">
        <ele>1849.6</ele>
        <time>2023-07-02T13:49:59+0200</time>
      </trkpt>
      <trkpt lat="44.91318" lon="6.65307">
        <ele>1848.8</ele>
        <time>2023-07-02T13:50:00+0200</time>
      </trkpt>
      <trkpt lat="44.91315" lon="6.65299">
        <ele>1849.5</ele>
        <time>2023-07-02T13:50:01+0200</time>
      </trkpt>
      <trkpt lat="44.91309" lon="6.65295">
        <ele>1848.4</ele>
        <time>2023-07-02T13:50:03+0200</time>
      </trkpt>
      <trkpt lat="44.91306" lon="6.65291">
        <ele>1848.2</ele>
        <time>2023-07-02T13:50:04+0200</time>
      </trkpt>
      <trkpt lat="44.913" lon="6.6529">
        <ele>1845.9</ele>
        <time>2023-07-02T13:50:06+0200</time>
      </trkpt>
      <trkpt lat="44.91295" lon="6.6529">
        <ele>1843.9</ele>
        <time>2023-07-02T13:50:07+0200</time>
      </trkpt>
      <trkpt lat="44.91286" lon="6.65288">
        <ele>1840.7</ele>
        <time>2023-07-02T13:50:09+0200</time>
      </trkpt>
      <trkpt lat="44.9128" lon="6.65285">
        <ele>1839.1</ele>
        <time>2023-07-02T13:50:11+0200</time>
      </trkpt>
      <trkpt lat="44.91267" lon="6.65283">
        <ele>1835.4</ele>
        <time>2023-07-02T13:50:13+0200</time>
      </trkpt>
      <trkpt lat="44.91258" lon="6.65277">
        <ele>1833.9</ele>
        <time>2023-07-02T13:50:15+0200</time>
      </trkpt>
      <trkpt lat="44.91253" lon="6.65272">
        <ele>1833.4</ele>
        <time>2023-07-02T13:50:16+0200</time>
      </trkpt>
      <trkpt lat="44.91248" lon="6.65272">
        <ele>1832</ele>
        <time>2023-07-02T13:50:17+0200</time>
      </trkpt>
      <trkpt lat="44.9124" lon="6.65269">
        <ele>1830.7</ele>
        <time>2023-07-02T13:50:18+0200</time>
      </trkpt>
      <trkpt lat="44.91231" lon="6.65268">
        <ele>1828.7</ele>
        <time>2023-07-02T13:50:20+0200</time>
      </trkpt>
      <trkpt lat="44.91224" lon="6.65265">
        <ele>1827.5</ele>
        <time>2023-07-02T13:50:22+0200</time>
      </trkpt>
      <trkpt lat="44.91218" lon="6.65265">
        <ele>1826.3</ele>
        <time>2023-07-02T13:50:23+0200</time>
      </trkpt>
      <trkpt lat="44.91208" lon="6.65262">
        <ele>1824.6</ele>
        <time>2023-07-02T13:50:24+0200</time>
      </trkpt>
      <trkpt lat="44.91203" lon="6.65262">
        <ele>1823.4</ele>
        <time>2023-07-02T13:50:25+0200</time>
      </trkpt>
      <trkpt lat="44.91198" lon="6.65261">
        <ele>1822.7</ele>
        <time>2023-07-02T13:50:26+0200</time>
      </trkpt>
      <trkpt lat="44.91192" lon="6.65262">
        <ele>1821</ele>
        <time>2023-07-02T13:50:27+0200</time>
      </trkpt>
      <trkpt lat="44.91188" lon="6.65266">
        <ele>1819</ele>
        <time>2023-07-02T13:50:28+0200</time>
      </trkpt>
      <trkpt lat="44.91183" lon="6.65267">
        <ele>1817.5</ele>
        <time>2023-07-02T13:50:29+0200</time>
      </trkpt>
      <trkpt lat="44.91177" lon="6.65268">
        <ele>1815.8</ele>
        <time>2023-07-02T13:50:30+0200</time>
      </trkpt>
      <trkpt lat="44.9117" lon="6.65268">
        <ele>1814.1</ele>
        <time>2023-07-02T13:50:32+0200</time>
      </trkpt>
      <trkpt lat="44.91165" lon="6.65267">
        <ele>1813.3</ele>
        <time>2023-07-02T13:50:33+0200</time>
      </trkpt>
      <trkpt lat="44.91158" lon="6.65272">
        <ele>1810.8</ele>
        <time>2023-07-02T13:50:35+0200</time>
      </trkpt>
      <trkpt lat="44.91147" lon="6.65271">
        <ele>1809.2</ele>
        <time>2023-07-02T13:50:37+0200</time>
      </trkpt>
      <trkpt lat="44.91142" lon="6.65272">
        <ele>1808</ele>
        <time>2023-07-02T13:50:38+0200</time>
      </trkpt>
      <trkpt lat="44.91133" lon="6.65277">
        <ele>1804.5</ele>
        <time>2023-07-02T13:50:40+0200</time>
      </trkpt>
      <trkpt lat="44.91125" lon="6.65279">
        <ele>1802.2</ele>
        <time>2023-07-02T13:50:42+0200</time>
      </trkpt>
      <trkpt lat="44.91115" lon="6.65275">
        <ele>1800.6</ele>
        <time>2023-07-02T13:50:44+0200</time>
      </trkpt>
      <trkpt lat="44.9111" lon="6.65272">
        <ele>1799.8</ele>
        <time>2023-07-02T13:50:45+0200</time>
      </trkpt>
      <trkpt lat="44.91101" lon="6.65268">
        <ele>1797.5</ele>
        <time>2023-07-02T13:50:46+0200</time>
      </trkpt>
      <trkpt lat="44.91094" lon="6.65264">
        <ele>1796.2</ele>
        <time>2023-07-02T13:50:47+0200</time>
      </trkpt>
      <trkpt lat="44.91089" lon="6.6526">
        <ele>1795.4</ele>
        <time>2023-07-02T13:50:48+0200</time>
      </trkpt>
      <trkpt lat="44.91083" lon="6.65256">
        <ele>1794.3</ele>
        <time>2023-07-02T13:50:49+0200</time>
      </trkpt>
      <trkpt lat="44.91078" lon="6.65254">
        <ele>1792.4</ele>
        <time>2023-07-02T13:50:50+0200</time>
      </trkpt>
      <trkpt lat="44.91072" lon="6.65251">
        <ele>1790.6</ele>
        <time>2023-07-02T13:50:52+0200</time>
      </trkpt>
      <trkpt lat="44.91068" lon="6.65245">
        <ele>1789.8</ele>
        <time>2023-07-02T13:50:53+0200</time>
      </trkpt>
      <trkpt lat="44.91063" lon="6.65238">
        <ele>1788.7</ele>
        <time>2023-07-02T13:50:54+0200</time>
      </trkpt>
      <trkpt lat="44.91059" lon="6.65226">
        <ele>1789</ele>
        <time>2023-07-02T13:50:56+0200</time>
      </trkpt>
      <trkpt lat="44.91053" lon="6.65219">
        <ele>1787.2</ele>
        <time>2023-07-02T13:50:57+0200</time>
      </trkpt>
      <trkpt lat="44.91047" lon="6.65215">
        <ele>1784.6</ele>
        <time>2023-07-02T13:50:58+0200</time>
      </trkpt>
      <trkpt lat="44.91042" lon="6.65209">
        <ele>1782.7</ele>
        <time>2023-07-02T13:51:00+0200</time>
      </trkpt>
      <trkpt lat="44.91042" lon="6.65202">
        <ele>1783.6</ele>
        <time>2023-07-02T13:51:01+0200</time>
      </trkpt>
      <trkpt lat="44.9104" lon="6.65195">
        <ele>1783.8</ele>
        <time>2023-07-02T13:51:02+0200</time>
      </trkpt>
      <trkpt lat="44.91034" lon="6.65191">
        <ele>1781.3</ele>
        <time>2023-07-02T13:51:03+0200</time>
      </trkpt>
      <trkpt lat="44.91034" lon="6.65182">
        <ele>1782.8</ele>
        <time>2023-07-02T13:51:05+0200</time>
      </trkpt>
      <trkpt lat="44.91028" lon="6.65187">
        <ele>1778.4</ele>
        <time>2023-07-02T13:51:07+0200</time>
      </trkpt>
      <trkpt lat="44.91028" lon="6.65195">
        <ele>1776.8</ele>
        <time>2023-07-02T13:51:08+0200</time>
      </trkpt>
      <trkpt lat="44.91029" lon="6.65204">
        <ele>1776.2</ele>
        <time>2023-07-02T13:51:09+0200</time>
      </trkpt>
      <trkpt lat="44.91028" lon="6.65212">
        <ele>1773.9</ele>
        <time>2023-07-02T13:51:10+0200</time>
      </trkpt>
      <trkpt lat="44.91026" lon="6.65219">
        <ele>1771.7</ele>
        <time>2023-07-02T13:51:11+0200</time>
      </trkpt>
      <trkpt lat="44.91025" lon="6.65225">
        <ele>1769.2</ele>
        <time>2023-07-02T13:51:12+0200</time>
      </trkpt>
      <trkpt lat="44.91021" lon="6.65231">
        <ele>1765.5</ele>
        <time>2023-07-02T13:51:13+0200</time>
      </trkpt>
      <trkpt lat="44.91019" lon="6.6524">
        <ele>1763</ele>
        <time>2023-07-02T13:51:15+0200</time>
      </trkpt>
      <trkpt lat="44.9102" lon="6.65248">
        <ele>1761.8</ele>
        <time>2023-07-02T13:51:18+0200</time>
      </trkpt>
      <trkpt lat="44.91021" lon="6.65259">
        <ele>1760.2</ele>
        <time>2023-07-02T13:51:20+0200</time>
      </trkpt>
      <trkpt lat="44.91021" lon="6.65272">
        <ele>1758</ele>
        <time>2023-07-02T13:51:22+0200</time>
      </trkpt>
      <trkpt lat="44.91023" lon="6.65278">
        <ele>1757.4</ele>
        <time>2023-07-02T13:51:23+0200</time>
      </trkpt>
      <trkpt lat="44.91024" lon="6.65286">
        <ele>1756</ele>
        <time>2023-07-02T13:51:24+0200</time>
      </trkpt>
      <trkpt lat="44.91025" lon="6.65295">
        <ele>1754.2</ele>
        <time>2023-07-02T13:51:26+0200</time>
      </trkpt>
      <trkpt lat="44.91029" lon="6.65299">
        <ele>1755.3</ele>
        <time>2023-07-02T13:51:28+0200</time>
      </trkpt>
      <trkpt lat="44.91031" lon="6.65308">
        <ele>1753.9</ele>
        <time>2023-07-02T13:51:52+0200</time>
      </trkpt>
      <trkpt lat="44.91036" lon="6.65317">
        <ele>1753.1</ele>
        <time>2023-07-02T13:51:54+0200</time>
      </trkpt>
      <trkpt lat="44.91037" lon="6.65325">
        <ele>1751.6</ele>
        <time>2023-07-02T13:51:55+0200</time>
      </trkpt>
      <trkpt lat="44.9104" lon="6.65333">
        <ele>1750</ele>
        <time>2023-07-02T13:51:56+0200</time>
      </trkpt>
      <trkpt lat="44.91041" lon="6.65341">
        <ele>1748.3</ele>
        <time>2023-07-02T13:51:57+0200</time>
      </trkpt>
      <trkpt lat="44.91041" lon="6.6535">
        <ele>1745.4</ele>
        <time>2023-07-02T13:51:58+0200</time>
      </trkpt>
      <trkpt lat="44.91041" lon="6.65362">
        <ele>1742.2</ele>
        <time>2023-07-02T13:51:59+0200</time>
      </trkpt>
      <trkpt lat="44.91044" lon="6.65372">
        <ele>1741.3</ele>
        <time>2023-07-02T13:52:00+0200</time>
      </trkpt>
      <trkpt lat="44.91048" lon="6.65382">
        <ele>1740.8</ele>
        <time>2023-07-02T13:52:01+0200</time>
      </trkpt>
      <trkpt lat="44.91051" lon="6.65391">
        <ele>1740.1</ele>
        <time>2023-07-02T13:52:02+0200</time>
      </trkpt>
      <trkpt lat="44.91052" lon="6.65399">
        <ele>1738.6</ele>
        <time>2023-07-02T13:52:03+0200</time>
      </trkpt>
      <trkpt lat="44.91054" lon="6.65406">
        <ele>1737</ele>
        <time>2023-07-02T13:52:04+0200</time>
      </trkpt>
      <trkpt lat="44.91055" lon="6.65415">
        <ele>1735.4</ele>
        <time>2023-07-02T13:52:05+0200</time>
      </trkpt>
      <trkpt lat="44.91058" lon="6.65421">
        <ele>1734.7</ele>
        <time>2023-07-02T13:52:06+0200</time>
      </trkpt>
      <trkpt lat="44.91061" lon="6.65427">
        <ele>1734.7</ele>
        <time>2023-07-02T13:52:07+0200</time>
      </trkpt>
      <trkpt lat="44.91066" lon="6.65431">
        <ele>1735.4</ele>
        <time>2023-07-02T13:52:08+0200</time>
      </trkpt>
      <trkpt lat="44.91069" lon="6.65439">
        <ele>1734.5</ele>
        <time>2023-07-02T13:52:09+0200</time>
      </trkpt>
      <trkpt lat="44.91068" lon="6.6545">
        <ele>1731.2</ele>
        <time>2023-07-02T13:52:10+0200</time>
      </trkpt>
      <trkpt lat="44.91066" lon="6.65462">
        <ele>1727.5</ele>
        <time>2023-07-02T13:52:11+0200</time>
      </trkpt>
      <trkpt lat="44.91063" lon="6.65471">
        <ele>1724.8</ele>
        <time>2023-07-02T13:52:12+0200</time>
      </trkpt>
      <trkpt lat="44.9106" lon="6.65477">
        <ele>1722.9</ele>
        <time>2023-07-02T13:52:13+0200</time>
      </trkpt>
      <trkpt lat="44.91057" lon="6.65484">
        <ele>1720.5</ele>
        <time>2023-07-02T13:52:15+0200</time>
      </trkpt>
      <trkpt lat="44.91059" lon="6.65495">
        <ele>1716.7</ele>
        <time>2023-07-02T13:52:17+0200</time>
      </trkpt>
      <trkpt lat="44.91053" lon="6.65492">
        <ele>1716.9</ele>
        <time>2023-07-02T13:52:23+0200</time>
      </trkpt>
      <trkpt lat="44.91049" lon="6.65487">
        <ele>1716.2</ele>
        <time>2023-07-02T13:52:25+0200</time>
      </trkpt>
      <trkpt lat="44.91047" lon="6.65479">
        <ele>1717.7</ele>
        <time>2023-07-02T13:52:27+0200</time>
      </trkpt>
      <trkpt lat="44.91045" lon="6.65473">
        <ele>1718.3</ele>
        <time>2023-07-02T13:52:28+0200</time>
      </trkpt>
      <trkpt lat="44.91042" lon="6.6546">
        <ele>1719.5</ele>
        <time>2023-07-02T13:52:30+0200</time>
      </trkpt>
      <trkpt lat="44.91039" lon="6.65452">
        <ele>1719.7</ele>
        <time>2023-07-02T13:52:31+0200</time>
      </trkpt>
      <trkpt lat="44.91034" lon="6.65451">
        <ele>1717.4</ele>
        <time>2023-07-02T13:52:32+0200</time>
      </trkpt>
      <trkpt lat="44.91028" lon="6.65448">
        <ele>1715.2</ele>
        <time>2023-07-02T13:52:33+0200</time>
      </trkpt>
      <trkpt lat="44.91023" lon="6.65445">
        <ele>1713.4</ele>
        <time>2023-07-02T13:52:34+0200</time>
      </trkpt>
      <trkpt lat="44.91017" lon="6.6544">
        <ele>1711.2</ele>
        <time>2023-07-02T13:52:36+0200</time>
      </trkpt>
      <trkpt lat="44.91013" lon="6.65434">
        <ele>1711</ele>
        <time>2023-07-02T13:52:37+0200</time>
      </trkpt>
      <trkpt lat="44.91005" lon="6.65427">
        <ele>1708.2</ele>
        <time>2023-07-02T13:52:39+0200</time>
      </trkpt>
      <trkpt lat="44.91" lon="6.65424">
        <ele>1706.4</ele>
        <time>2023-07-02T13:52:40+0200</time>
      </trkpt>
      <trkpt lat="44.90995" lon="6.65413">
        <ele>1706.6</ele>
        <time>2023-07-02T13:52:42+0200</time>
      </trkpt>
      <trkpt lat="44.9099" lon="6.65408">
        <ele>1705.9</ele>
        <time>2023-07-02T13:52:43+0200</time>
      </trkpt>
      <trkpt lat="44.90987" lon="6.654">
        <ele>1705.7</ele>
        <time>2023-07-02T13:52:44+0200</time>
      </trkpt>
      <trkpt lat="44.90983" lon="6.65392">
        <ele>1706</ele>
        <time>2023-07-02T13:52:45+0200</time>
      </trkpt>
      <trkpt lat="44.90978" lon="6.65381">
        <ele>1704.9</ele>
        <time>2023-07-02T13:52:46+0200</time>
      </trkpt>
      <trkpt lat="44.90973" lon="6.65373">
        <ele>1703.8</ele>
        <time>2023-07-02T13:52:47+0200</time>
      </trkpt>
      <trkpt lat="44.90965" lon="6.65366">
        <ele>1700</ele>
        <time>2023-07-02T13:52:48+0200</time>
      </trkpt>
      <trkpt lat="44.90956" lon="6.65362">
        <ele>1695.1</ele>
        <time>2023-07-02T13:52:49+0200</time>
      </trkpt>
      <trkpt lat="44.90948" lon="6.65356">
        <ele>1691.5</ele>
        <time>2023-07-02T13:52:50+0200</time>
      </trkpt>
      <trkpt lat="44.90941" lon="6.65348">
        <ele>1688.3</ele>
        <time>2023-07-02T13:52:51+0200</time>
      </trkpt>
      <trkpt lat="44.90937" lon="6.65343">
        <ele>1686.5</ele>
        <time>2023-07-02T13:52:52+0200</time>
      </trkpt>
      <trkpt lat="44.90934" lon="6.65333">
        <ele>1686.3</ele>
        <time>2023-07-02T13:52:54+0200</time>
      </trkpt>
      <trkpt lat="44.9093" lon="6.6533">
        <ele>1684.1</ele>
        <time>2023-07-02T13:52:56+0200</time>
      </trkpt>
      <trkpt lat="44.90925" lon="6.65327">
        <ele>1681.1</ele>
        <time>2023-07-02T13:53:00+0200</time>
      </trkpt>
      <trkpt lat="44.90928" lon="6.65334">
        <ele>1682.1</ele>
        <time>2023-07-02T13:53:03+0200</time>
      </trkpt>
      <trkpt lat="44.9093" lon="6.65344">
        <ele>1680.4</ele>
        <time>2023-07-02T13:53:05+0200</time>
      </trkpt>
      <trkpt lat="44.90929" lon="6.65362">
        <ele>1676</ele>
        <time>2023-07-02T13:53:07+0200</time>
      </trkpt>
      <trkpt lat="44.9093" lon="6.65369">
        <ele>1676.2</ele>
        <time>2023-07-02T13:53:08+0200</time>
      </trkpt>
      <trkpt lat="44.9093" lon="6.65376">
        <ele>1676.1</ele>
        <time>2023-07-02T13:53:09+0200</time>
      </trkpt>
      <trkpt lat="44.90929" lon="6.65383">
        <ele>1674.8</ele>
        <time>2023-07-02T13:53:11+0200</time>
      </trkpt>
      <trkpt lat="44.90925" lon="6.65375">
        <ele>1671.9</ele>
        <time>2023-07-02T13:53:13+0200</time>
      </trkpt>
      <trkpt lat="44.9092" lon="6.65368">
        <ele>1668.6</ele>
        <time>2023-07-02T13:53:14+0200</time>
      </trkpt>
      <trkpt lat="44.90916" lon="6.6536">
        <ele>1665.8</ele>
        <time>2023-07-02T13:53:15+0200</time>
      </trkpt>
      <trkpt lat="44.90912" lon="6.65353">
        <ele>1664.4</ele>
        <time>2023-07-02T13:53:16+0200</time>
      </trkpt>
      <trkpt lat="44.90907" lon="6.65345">
        <ele>1662.4</ele>
        <time>2023-07-02T13:53:18+0200</time>
      </trkpt>
      <trkpt lat="44.90902" lon="6.6534">
        <ele>1660.3</ele>
        <time>2023-07-02T13:53:19+0200</time>
      </trkpt>
      <trkpt lat="44.90898" lon="6.65334">
        <ele>1658.6</ele>
        <time>2023-07-02T13:53:20+0200</time>
      </trkpt>
      <trkpt lat="44.90897" lon="6.65326">
        <ele>1660</ele>
        <time>2023-07-02T13:53:21+0200</time>
      </trkpt>
      <trkpt lat="44.90892" lon="6.65318">
        <ele>1657.4</ele>
        <time>2023-07-02T13:53:22+0200</time>
      </trkpt>
      <trkpt lat="44.90888" lon="6.6531">
        <ele>1656.6</ele>
        <time>2023-07-02T13:53:23+0200</time>
      </trkpt>
      <trkpt lat="44.90884" lon="6.65303">
        <ele>1655.3</ele>
        <time>2023-07-02T13:53:24+0200</time>
      </trkpt>
      <trkpt lat="44.90878" lon="6.65294">
        <ele>1653</ele>
        <time>2023-07-02T13:53:26+0200</time>
      </trkpt>
      <trkpt lat="44.90875" lon="6.65288">
        <ele>1652.6</ele>
        <time>2023-07-02T13:53:27+0200</time>
      </trkpt>
      <trkpt lat="44.9087" lon="6.65288">
        <ele>1648.5</ele>
        <time>2023-07-02T13:53:31+0200</time>
      </trkpt>
      <trkpt lat="44.9087" lon="6.65298">
        <ele>1646.4</ele>
        <time>2023-07-02T13:53:33+0200</time>
      </trkpt>
      <trkpt lat="44.90871" lon="6.65308">
        <ele>1644.4</ele>
        <time>2023-07-02T13:53:35+0200</time>
      </trkpt>
      <trkpt lat="44.90872" lon="6.65317">
        <ele>1643.7</ele>
        <time>2023-07-02T13:53:41+0200</time>
      </trkpt>
      <trkpt lat="44.90873" lon="6.6533">
        <ele>1641</ele>
        <time>2023-07-02T13:53:43+0200</time>
      </trkpt>
      <trkpt lat="44.90873" lon="6.65337">
        <ele>1639.4</ele>
        <time>2023-07-02T13:53:44+0200</time>
      </trkpt>
      <trkpt lat="44.90873" lon="6.65346">
        <ele>1636.7</ele>
        <time>2023-07-02T13:53:45+0200</time>
      </trkpt>
      <trkpt lat="44.90874" lon="6.65354">
        <ele>1635.2</ele>
        <time>2023-07-02T13:53:46+0200</time>
      </trkpt>
      <trkpt lat="44.90869" lon="6.65352">
        <ele>1632.2</ele>
        <time>2023-07-02T13:53:51+0200</time>
      </trkpt>
      <trkpt lat="44.90867" lon="6.65343">
        <ele>1633.4</ele>
        <time>2023-07-02T13:53:52+0200</time>
      </trkpt>
      <trkpt lat="44.90863" lon="6.65337">
        <ele>1632.5</ele>
        <time>2023-07-02T13:53:53+0200</time>
      </trkpt>
      <trkpt lat="44.90857" lon="6.6533">
        <ele>1629.9</ele>
        <time>2023-07-02T13:53:54+0200</time>
      </trkpt>
      <trkpt lat="44.90855" lon="6.65322">
        <ele>1630.3</ele>
        <time>2023-07-02T13:53:55+0200</time>
      </trkpt>
      <trkpt lat="44.9085" lon="6.65316">
        <ele>1628</ele>
        <time>2023-07-02T13:53:56+0200</time>
      </trkpt>
      <trkpt lat="44.9085" lon="6.65307">
        <ele>1630.1</ele>
        <time>2023-07-02T13:53:57+0200</time>
      </trkpt>
      <trkpt lat="44.90843" lon="6.65301">
        <ele>1626</ele>
        <time>2023-07-02T13:53:59+0200</time>
      </trkpt>
      <trkpt lat="44.90839" lon="6.65295">
        <ele>1624.1</ele>
        <time>2023-07-02T13:54:02+0200</time>
      </trkpt>
      <trkpt lat="44.90836" lon="6.65305">
        <ele>1620.2</ele>
        <time>2023-07-02T13:54:07+0200</time>
      </trkpt>
      <trkpt lat="44.90839" lon="6.65313">
        <ele>1620.8</ele>
        <time>2023-07-02T13:54:08+0200</time>
      </trkpt>
      <trkpt lat="44.90841" lon="6.65321">
        <ele>1620.5</ele>
        <time>2023-07-02T13:54:09+0200</time>
      </trkpt>
      <trkpt lat="44.90841" lon="6.6533">
        <ele>1618.6</ele>
        <time>2023-07-02T13:54:10+0200</time>
      </trkpt>
      <trkpt lat="44.90841" lon="6.65337">
        <ele>1616.5</ele>
        <time>2023-07-02T13:54:11+0200</time>
      </trkpt>
      <trkpt lat="44.90836" lon="6.65342">
        <ele>1612.4</ele>
        <time>2023-07-02T13:54:13+0200</time>
      </trkpt>
      <trkpt lat="44.90835" lon="6.65349">
        <ele>1610.4</ele>
        <time>2023-07-02T13:54:14+0200</time>
      </trkpt>
      <trkpt lat="44.90837" lon="6.65358">
        <ele>1609.7</ele>
        <time>2023-07-02T13:54:16+0200</time>
      </trkpt>
      <trkpt lat="44.90841" lon="6.65363">
        <ele>1610.5</ele>
        <time>2023-07-02T13:54:23+0200</time>
      </trkpt>
      <trkpt lat="44.90843" lon="6.65373">
        <ele>1608.7</ele>
        <time>2023-07-02T13:54:25+0200</time>
      </trkpt>
      <trkpt lat="44.90846" lon="6.6538">
        <ele>1607.9</ele>
        <time>2023-07-02T13:54:27+0200</time>
      </trkpt>
      <trkpt lat="44.9085" lon="6.65384">
        <ele>1609.2</ele>
        <time>2023-07-02T13:54:29+0200</time>
      </trkpt>
      <trkpt lat="44.90851" lon="6.65393">
        <ele>1607.1</ele>
        <time>2023-07-02T13:54:31+0200</time>
      </trkpt>
      <trkpt lat="44.90849" lon="6.65403">
        <ele>1603</ele>
        <time>2023-07-02T13:54:32+0200</time>
      </trkpt>
      <trkpt lat="44.90848" lon="6.6541">
        <ele>1601.3</ele>
        <time>2023-07-02T13:54:33+0200</time>
      </trkpt>
      <trkpt lat="44.90847" lon="6.65424">
        <ele>1597.2</ele>
        <time>2023-07-02T13:54:35+0200</time>
      </trkpt>
      <trkpt lat="44.90847" lon="6.65434">
        <ele>1595.4</ele>
        <time>2023-07-02T13:54:36+0200</time>
      </trkpt>
      <trkpt lat="44.90846" lon="6.65443">
        <ele>1593.7</ele>
        <time>2023-07-02T13:54:37+0200</time>
      </trkpt>
      <trkpt lat="44.90845" lon="6.65452">
        <ele>1590.9</ele>
        <time>2023-07-02T13:54:38+0200</time>
      </trkpt>
      <trkpt lat="44.90846" lon="6.6546">
        <ele>1589.4</ele>
        <time>2023-07-02T13:54:39+0200</time>
      </trkpt>
      <trkpt lat="44.90848" lon="6.65468">
        <ele>1589</ele>
        <time>2023-07-02T13:54:40+0200</time>
      </trkpt>
      <trkpt lat="44.90849" lon="6.65478">
        <ele>1587</ele>
        <time>2023-07-02T13:54:41+0200</time>
      </trkpt>
      <trkpt lat="44.90852" lon="6.65487">
        <ele>1586</ele>
        <time>2023-07-02T13:54:42+0200</time>
      </trkpt>
      <trkpt lat="44.90855" lon="6.65498">
        <ele>1583.8</ele>
        <time>2023-07-02T13:54:43+0200</time>
      </trkpt>
      <trkpt lat="44.90859" lon="6.65504">
        <ele>1584.5</ele>
        <time>2023-07-02T13:54:44+0200</time>
      </trkpt>
      <trkpt lat="44.90862" lon="6.65514">
        <ele>1582.6</ele>
        <time>2023-07-02T13:54:46+0200</time>
      </trkpt>
      <trkpt lat="44.90857" lon="6.65505">
        <ele>1582.8</ele>
        <time>2023-07-02T13:54:49+0200</time>
      </trkpt>
      <trkpt lat="44.90852" lon="6.65498">
        <ele>1582.3</ele>
        <time>2023-07-02T13:54:50+0200</time>
      </trkpt>
      <trkpt lat="44.90847" lon="6.65487">
        <ele>1582.8</ele>
        <time>2023-07-02T13:54:51+0200</time>
      </trkpt>
      <trkpt lat="44.90842" lon="6.65483">
        <ele>1580.8</ele>
        <time>2023-07-02T13:54:52+0200</time>
      </trkpt>
      <trkpt lat="44.90835" lon="6.65476">
        <ele>1578.8</ele>
        <time>2023-07-02T13:54:53+0200</time>
      </trkpt>
      <trkpt lat="44.90831" lon="6.65468">
        <ele>1578</ele>
        <time>2023-07-02T13:54:54+0200</time>
      </trkpt>
      <trkpt lat="44.90827" lon="6.65463">
        <ele>1576.3</ele>
        <time>2023-07-02T13:54:55+0200</time>
      </trkpt>
      <trkpt lat="44.90822" lon="6.65455">
        <ele>1574.5</ele>
        <time>2023-07-02T13:54:56+0200</time>
      </trkpt>
      <trkpt lat="44.90821" lon="6.65445">
        <ele>1575.4</ele>
        <time>2023-07-02T13:54:57+0200</time>
      </trkpt>
      <trkpt lat="44.90818" lon="6.65438">
        <ele>1574.5</ele>
        <time>2023-07-02T13:54:58+0200</time>
      </trkpt>
      <trkpt lat="44.90816" lon="6.65426">
        <ele>1575.9</ele>
        <time>2023-07-02T13:55:00+0200</time>
      </trkpt>
      <trkpt lat="44.90808" lon="6.65423">
        <ele>1571.5</ele>
        <time>2023-07-02T13:55:02+0200</time>
      </trkpt>
      <trkpt lat="44.908" lon="6.65426">
        <ele>1565.1</ele>
        <time>2023-07-02T13:55:04+0200</time>
      </trkpt>
      <trkpt lat="44.90793" lon="6.65423">
        <ele>1561.6</ele>
        <time>2023-07-02T13:55:05+0200</time>
      </trkpt>
      <trkpt lat="44.90787" lon="6.65421">
        <ele>1557.7</ele>
        <time>2023-07-02T13:55:06+0200</time>
      </trkpt>
      <trkpt lat="44.90781" lon="6.65416">
        <ele>1555</ele>
        <time>2023-07-02T13:55:07+0200</time>
      </trkpt>
      <trkpt lat="44.90781" lon="6.65409">
        <ele>1557.7</ele>
        <time>2023-07-02T13:55:08+0200</time>
      </trkpt>
      <trkpt lat="44.90778" lon="6.65397">
        <ele>1560.7</ele>
        <time>2023-07-02T13:55:10+0200</time>
      </trkpt>
      <trkpt lat="44.90775" lon="6.65388">
        <ele>1560.8</ele>
        <time>2023-07-02T13:55:12+0200</time>
      </trkpt>
      <trkpt lat="44.90772" lon="6.65379">
        <ele>1559.1</ele>
        <time>2023-07-02T13:55:14+0200</time>
      </trkpt>
      <trkpt lat="44.90773" lon="6.65372">
        <ele>1560.5</ele>
        <time>2023-07-02T13:55:15+0200</time>
      </trkpt>
      <trkpt lat="44.90773" lon="6.65364">
        <ele>1561.7</ele>
        <time>2023-07-02T13:55:16+0200</time>
      </trkpt>
      <trkpt lat="44.90775" lon="6.65357">
        <ele>1564.6</ele>
        <time>2023-07-02T13:55:17+0200</time>
      </trkpt>
      <trkpt lat="44.90773" lon="6.65346">
        <ele>1564.2</ele>
        <time>2023-07-02T13:55:19+0200</time>
      </trkpt>
      <trkpt lat="44.90771" lon="6.6534">
        <ele>1563.7</ele>
        <time>2023-07-02T13:55:20+0200</time>
      </trkpt>
      <trkpt lat="44.90766" lon="6.65334">
        <ele>1560.2</ele>
        <time>2023-07-02T13:55:21+0200</time>
      </trkpt>
      <trkpt lat="44.90762" lon="6.65319">
        <ele>1559</ele>
        <time>2023-07-02T13:55:22+0200</time>
      </trkpt>
      <trkpt lat="44.90758" lon="6.65312">
        <ele>1557.1</ele>
        <time>2023-07-02T13:55:23+0200</time>
      </trkpt>
      <trkpt lat="44.90755" lon="6.65307">
        <ele>1555.1</ele>
        <time>2023-07-02T13:55:24+0200</time>
      </trkpt>
      <trkpt lat="44.90754" lon="6.65294">
        <ele>1554.3</ele>
        <time>2023-07-02T13:55:26+0200</time>
      </trkpt>
      <trkpt lat="44.90754" lon="6.65284">
        <ele>1554.2</ele>
        <time>2023-07-02T13:55:27+0200</time>
      </trkpt>
      <trkpt lat="44.90753" lon="6.65274">
        <ele>1555</ele>
        <time>2023-07-02T13:55:28+0200</time>
      </trkpt>
      <trkpt lat="44.90744" lon="6.65272">
        <ele>1550</ele>
        <time>2023-07-02T13:55:30+0200</time>
      </trkpt>
      <trkpt lat="44.90732" lon="6.65273">
        <ele>1543</ele>
        <time>2023-07-02T13:55:32+0200</time>
      </trkpt>
      <trkpt lat="44.90723" lon="6.65271">
        <ele>1539.3</ele>
        <time>2023-07-02T13:55:33+0200</time>
      </trkpt>
      <trkpt lat="44.90719" lon="6.65271">
        <ele>1537.9</ele>
        <time>2023-07-02T13:55:34+0200</time>
      </trkpt>
      <trkpt lat="44.90711" lon="6.65271">
        <ele>1534.8</ele>
        <time>2023-07-02T13:55:35+0200</time>
      </trkpt>
      <trkpt lat="44.90706" lon="6.65271">
        <ele>1533.3</ele>
        <time>2023-07-02T13:55:36+0200</time>
      </trkpt>
      <trkpt lat="44.907" lon="6.65271">
        <ele>1530.7</ele>
        <time>2023-07-02T13:55:37+0200</time>
      </trkpt>
      <trkpt lat="44.90694" lon="6.65269">
        <ele>1529.8</ele>
        <time>2023-07-02T13:55:38+0200</time>
      </trkpt>
      <trkpt lat="44.9069" lon="6.65265">
        <ele>1528.8</ele>
        <time>2023-07-02T13:55:39+0200</time>
      </trkpt>
      <trkpt lat="44.90688" lon="6.65259">
        <ele>1530.3</ele>
        <time>2023-07-02T13:55:40+0200</time>
      </trkpt>
      <trkpt lat="44.90686" lon="6.65251">
        <ele>1532.7</ele>
        <time>2023-07-02T13:55:42+0200</time>
      </trkpt>
      <trkpt lat="44.90682" lon="6.65247">
        <ele>1532.7</ele>
        <time>2023-07-02T13:55:43+0200</time>
      </trkpt>
      <trkpt lat="44.90676" lon="6.65249">
        <ele>1528.7</ele>
        <time>2023-07-02T13:55:45+0200</time>
      </trkpt>
      <trkpt lat="44.90669" lon="6.65247">
        <ele>1525.8</ele>
        <time>2023-07-02T13:55:47+0200</time>
      </trkpt>
      <trkpt lat="44.90664" lon="6.65247">
        <ele>1523.2</ele>
        <time>2023-07-02T13:55:48+0200</time>
      </trkpt>
      <trkpt lat="44.9066" lon="6.65245">
        <ele>1522.3</ele>
        <time>2023-07-02T13:55:49+0200</time>
      </trkpt>
      <trkpt lat="44.90652" lon="6.65241">
        <ele>1520.7</ele>
        <time>2023-07-02T13:55:51+0200</time>
      </trkpt>
      <trkpt lat="44.90646" lon="6.65237">
        <ele>1519.9</ele>
        <time>2023-07-02T13:55:53+0200</time>
      </trkpt>
      <trkpt lat="44.90643" lon="6.65232">
        <ele>1520.4</ele>
        <time>2023-07-02T13:55:57+0200</time>
      </trkpt>
      <trkpt lat="44.90638" lon="6.65227">
        <ele>1519.6</ele>
        <time>2023-07-02T13:55:59+0200</time>
      </trkpt>
      <trkpt lat="44.90629" lon="6.65223">
        <ele>1516.5</ele>
        <time>2023-07-02T13:56:01+0200</time>
      </trkpt>
      <trkpt lat="44.90625" lon="6.6522">
        <ele>1515.3</ele>
        <time>2023-07-02T13:56:02+0200</time>
      </trkpt>
      <trkpt lat="44.9062" lon="6.65217">
        <ele>1513.6</ele>
        <time>2023-07-02T13:56:03+0200</time>
      </trkpt>
      <trkpt lat="44.90615" lon="6.65213">
        <ele>1513.1</ele>
        <time>2023-07-02T13:56:04+0200</time>
      </trkpt>
      <trkpt lat="44.90608" lon="6.65208">
        <ele>1510.8</ele>
        <time>2023-07-02T13:56:06+0200</time>
      </trkpt>
      <trkpt lat="44.90604" lon="6.6521">
        <ele>1507.3</ele>
        <time>2023-07-02T13:56:08+0200</time>
      </trkpt>
      <trkpt lat="44.90596" lon="6.65204">
        <ele>1504.7</ele>
        <time>2023-07-02T13:56:10+0200</time>
      </trkpt>
      <trkpt lat="44.90592" lon="6.652">
        <ele>1504.5</ele>
        <time>2023-07-02T13:56:11+0200</time>
      </trkpt>
      <trkpt lat="44.90588" lon="6.65194">
        <ele>1504.2</ele>
        <time>2023-07-02T13:56:13+0200</time>
      </trkpt>
      <trkpt lat="44.90585" lon="6.65188">
        <ele>1503.6</ele>
        <time>2023-07-02T13:56:15+0200</time>
      </trkpt>
      <trkpt lat="44.9058" lon="6.65182">
        <ele>1502.3</ele>
        <time>2023-07-02T13:56:17+0200</time>
      </trkpt>
      <trkpt lat="44.90575" lon="6.65176">
        <ele>1500.5</ele>
        <time>2023-07-02T13:56:20+0200</time>
      </trkpt>
      <trkpt lat="44.90573" lon="6.6517">
        <ele>1500.7</ele>
        <time>2023-07-02T13:56:22+0200</time>
      </trkpt>
      <trkpt lat="44.90569" lon="6.65163">
        <ele>1499.6</ele>
        <time>2023-07-02T13:56:24+0200</time>
      </trkpt>
      <trkpt lat="44.90564" lon="6.6516">
        <ele>1496.7</ele>
        <time>2023-07-02T13:56:25+0200</time>
      </trkpt>
      <trkpt lat="44.90562" lon="6.65153">
        <ele>1496.3</ele>
        <time>2023-07-02T13:56:27+0200</time>
      </trkpt>
      <trkpt lat="44.90558" lon="6.65143">
        <ele>1494.5</ele>
        <time>2023-07-02T13:56:29+0200</time>
      </trkpt>
      <trkpt lat="44.90556" lon="6.65137">
        <ele>1493</ele>
        <time>2023-07-02T13:56:31+0200</time>
      </trkpt>
      <trkpt lat="44.90554" lon="6.6513">
        <ele>1492.1</ele>
        <time>2023-07-02T13:56:33+0200</time>
      </trkpt>
      <trkpt lat="44.90553" lon="6.65122">
        <ele>1491.3</ele>
        <time>2023-07-02T13:56:35+0200</time>
      </trkpt>
      <trkpt lat="44.9055" lon="6.65111">
        <ele>1489.9</ele>
        <time>2023-07-02T13:56:37+0200</time>
      </trkpt>
      <trkpt lat="44.90549" lon="6.65103">
        <ele>1488</ele>
        <time>2023-07-02T13:56:39+0200</time>
      </trkpt>
      <trkpt lat="44.90547" lon="6.65094">
        <ele>1485.6</ele>
        <time>2023-07-02T13:56:41+0200</time>
      </trkpt>
      <trkpt lat="44.90551" lon="6.65085">
        <ele>1487.1</ele>
        <time>2023-07-02T13:56:43+0200</time>
      </trkpt>
      <trkpt lat="44.90549" lon="6.65077">
        <ele>1484.5</ele>
        <time>2023-07-02T13:56:45+0200</time>
      </trkpt>
      <trkpt lat="44.9055" lon="6.65068">
        <ele>1483.6</ele>
        <time>2023-07-02T13:56:47+0200</time>
      </trkpt>
      <trkpt lat="44.9055" lon="6.65058">
        <ele>1482.4</ele>
        <time>2023-07-02T13:56:49+0200</time>
      </trkpt>
      <trkpt lat="44.90548" lon="6.65051">
        <ele>1480.6</ele>
        <time>2023-07-02T13:56:51+0200</time>
      </trkpt>
      <trkpt lat="44.90548" lon="6.65044">
        <ele>1480.7</ele>
        <time>2023-07-02T13:56:53+0200</time>
      </trkpt>
      <trkpt lat="44.90544" lon="6.65052">
        <ele>1476.9</ele>
        <time>2023-07-02T13:56:57+0200</time>
      </trkpt>
      <trkpt lat="44.90542" lon="6.65058">
        <ele>1475.5</ele>
        <time>2023-07-02T13:56:58+0200</time>
      </trkpt>
      <trkpt lat="44.90537" lon="6.65066">
        <ele>1473.3</ele>
        <time>2023-07-02T13:57:00+0200</time>
      </trkpt>
      <trkpt lat="44.90533" lon="6.65071">
        <ele>1471</ele>
        <time>2023-07-02T13:57:02+0200</time>
      </trkpt>
      <trkpt lat="44.90529" lon="6.65076">
        <ele>1469.8</ele>
        <time>2023-07-02T13:57:04+0200</time>
      </trkpt>
      <trkpt lat="44.90525" lon="6.65081">
        <ele>1469</ele>
        <time>2023-07-02T13:57:06+0200</time>
      </trkpt>
      <trkpt lat="44.9052" lon="6.65084">
        <ele>1467.5</ele>
        <time>2023-07-02T13:57:08+0200</time>
      </trkpt>
      <trkpt lat="44.90515" lon="6.65084">
        <ele>1464.9</ele>
        <time>2023-07-02T13:57:10+0200</time>
      </trkpt>
      <trkpt lat="44.90505" lon="6.65086">
        <ele>1460.9</ele>
        <time>2023-07-02T13:57:12+0200</time>
      </trkpt>
      <trkpt lat="44.905" lon="6.65087">
        <ele>1459.1</ele>
        <time>2023-07-02T13:57:13+0200</time>
      </trkpt>
      <trkpt lat="44.90492" lon="6.65092">
        <ele>1456.6</ele>
        <time>2023-07-02T13:57:16+0200</time>
      </trkpt>
      <trkpt lat="44.90488" lon="6.65093">
        <ele>1455</ele>
        <time>2023-07-02T13:57:18+0200</time>
      </trkpt>
      <trkpt lat="44.90492" lon="6.65089">
        <ele>1455.7</ele>
        <time>2023-07-02T13:57:22+0200</time>
      </trkpt>
      <trkpt lat="44.905" lon="6.65086">
        <ele>1458.4</ele>
        <time>2023-07-02T13:57:24+0200</time>
      </trkpt>
      <trkpt lat="44.90505" lon="6.65077">
        <ele>1458.7</ele>
        <time>2023-07-02T13:57:26+0200</time>
      </trkpt>
      <trkpt lat="44.90508" lon="6.65072">
        <ele>1458.5</ele>
        <time>2023-07-02T13:57:27+0200</time>
      </trkpt>
      <trkpt lat="44.90511" lon="6.65065">
        <ele>1457.7</ele>
        <time>2023-07-02T13:57:28+0200</time>
      </trkpt>
      <trkpt lat="44.90514" lon="6.65057">
        <ele>1456.8</ele>
        <time>2023-07-02T13:57:29+0200</time>
      </trkpt>
      <trkpt lat="44.90516" lon="6.65048">
        <ele>1455.9</ele>
        <time>2023-07-02T13:57:30+0200</time>
      </trkpt>
      <trkpt lat="44.9052" lon="6.65038">
        <ele>1456.1</ele>
        <time>2023-07-02T13:57:31+0200</time>
      </trkpt>
      <trkpt lat="44.90522" lon="6.65029">
        <ele>1455.9</ele>
        <time>2023-07-02T13:57:32+0200</time>
      </trkpt>
      <trkpt lat="44.90525" lon="6.6502">
        <ele>1455.7</ele>
        <time>2023-07-02T13:57:33+0200</time>
      </trkpt>
      <trkpt lat="44.90529" lon="6.65009">
        <ele>1457.4</ele>
        <time>2023-07-02T13:57:34+0200</time>
      </trkpt>
      <trkpt lat="44.90531" lon="6.64998">
        <ele>1457.3</ele>
        <time>2023-07-02T13:57:35+0200</time>
      </trkpt>
      <trkpt lat="44.90532" lon="6.64987">
        <ele>1456.4</ele>
        <time>2023-07-02T13:57:36+0200</time>
      </trkpt>
      <trkpt lat="44.90533" lon="6.64971">
        <ele>1453.5</ele>
        <time>2023-07-02T13:57:38+0200</time>
      </trkpt>
      <trkpt lat="44.90531" lon="6.64962">
        <ele>1450.5</ele>
        <time>2023-07-02T13:57:39+0200</time>
      </trkpt>
      <trkpt lat="44.90529" lon="6.64954">
        <ele>1447.8</ele>
        <time>2023-07-02T13:57:40+0200</time>
      </trkpt>
      <trkpt lat="44.90527" lon="6.64947">
        <ele>1446.3</ele>
        <time>2023-07-02T13:57:41+0200</time>
      </trkpt>
      <trkpt lat="44.90523" lon="6.64939">
        <ele>1445.2</ele>
        <time>2023-07-02T13:57:42+0200</time>
      </trkpt>
      <trkpt lat="44.90517" lon="6.64928">
        <ele>1443.3</ele>
        <time>2023-07-02T13:57:43+0200</time>
      </trkpt>
      <trkpt lat="44.90515" lon="6.64918">
        <ele>1442.8</ele>
        <time>2023-07-02T13:57:44+0200</time>
      </trkpt>
      <trkpt lat="44.90512" lon="6.64908">
        <ele>1441.9</ele>
        <time>2023-07-02T13:57:45+0200</time>
      </trkpt>
      <trkpt lat="44.90509" lon="6.649">
        <ele>1439.9</ele>
        <time>2023-07-02T13:57:46+0200</time>
      </trkpt>
      <trkpt lat="44.90507" lon="6.64893">
        <ele>1438.8</ele>
        <time>2023-07-02T13:57:47+0200</time>
      </trkpt>
      <trkpt lat="44.90505" lon="6.64881">
        <ele>1438.2</ele>
        <time>2023-07-02T13:57:48+0200</time>
      </trkpt>
      <trkpt lat="44.90503" lon="6.64871">
        <ele>1436.6</ele>
        <time>2023-07-02T13:57:49+0200</time>
      </trkpt>
      <trkpt lat="44.90497" lon="6.64861">
        <ele>1433.3</ele>
        <time>2023-07-02T13:57:50+0200</time>
      </trkpt>
      <trkpt lat="44.90494" lon="6.6485">
        <ele>1431.6</ele>
        <time>2023-07-02T13:57:51+0200</time>
      </trkpt>
      <trkpt lat="44.9049" lon="6.64841">
        <ele>1429.3</ele>
        <time>2023-07-02T13:57:52+0200</time>
      </trkpt>
      <trkpt lat="44.90483" lon="6.64827">
        <ele>1425.7</ele>
        <time>2023-07-02T13:57:54+0200</time>
      </trkpt>
      <trkpt lat="44.90481" lon="6.64818">
        <ele>1424.1</ele>
        <time>2023-07-02T13:57:55+0200</time>
      </trkpt>
      <trkpt lat="44.9048" lon="6.64807">
        <ele>1423.2</ele>
        <time>2023-07-02T13:57:56+0200</time>
      </trkpt>
      <trkpt lat="44.90479" lon="6.64799">
        <ele>1421.9</ele>
        <time>2023-07-02T13:57:57+0200</time>
      </trkpt>
      <trkpt lat="44.90477" lon="6.64791">
        <ele>1420.6</ele>
        <time>2023-07-02T13:57:58+0200</time>
      </trkpt>
      <trkpt lat="44.90476" lon="6.6478">
        <ele>1419.5</ele>
        <time>2023-07-02T13:57:59+0200</time>
      </trkpt>
      <trkpt lat="44.90475" lon="6.6477">
        <ele>1417.9</ele>
        <time>2023-07-02T13:58:00+0200</time>
      </trkpt>
      <trkpt lat="44.90475" lon="6.64762">
        <ele>1417.7</ele>
        <time>2023-07-02T13:58:01+0200</time>
      </trkpt>
      <trkpt lat="44.90477" lon="6.64754">
        <ele>1417.9</ele>
        <time>2023-07-02T13:58:02+0200</time>
      </trkpt>
      <trkpt lat="44.90478" lon="6.64745">
        <ele>1417.6</ele>
        <time>2023-07-02T13:58:04+0200</time>
      </trkpt>
      <trkpt lat="44.90469" lon="6.64743">
        <ele>1412.7</ele>
        <time>2023-07-02T13:58:07+0200</time>
      </trkpt>
      <trkpt lat="44.90467" lon="6.6475">
        <ele>1412</ele>
        <time>2023-07-02T13:58:09+0200</time>
      </trkpt>
      <trkpt lat="44.90467" lon="6.64756">
        <ele>1412.6</ele>
        <time>2023-07-02T13:58:10+0200</time>
      </trkpt>
      <trkpt lat="44.90462" lon="6.64769">
        <ele>1410.6</ele>
        <time>2023-07-02T13:58:12+0200</time>
      </trkpt>
      <trkpt lat="44.90459" lon="6.64776">
        <ele>1409.5</ele>
        <time>2023-07-02T13:58:13+0200</time>
      </trkpt>
      <trkpt lat="44.90457" lon="6.64787">
        <ele>1409.6</ele>
        <time>2023-07-02T13:58:14+0200</time>
      </trkpt>
      <trkpt lat="44.90456" lon="6.64796">
        <ele>1409.7</ele>
        <time>2023-07-02T13:58:16+0200</time>
      </trkpt>
      <trkpt lat="44.90452" lon="6.64793">
        <ele>1407.2</ele>
        <time>2023-07-02T13:58:20+0200</time>
      </trkpt>
      <trkpt lat="44.9045" lon="6.64787">
        <ele>1405.8</ele>
        <time>2023-07-02T13:58:22+0200</time>
      </trkpt>
      <trkpt lat="44.90452" lon="6.64778">
        <ele>1405.9</ele>
        <time>2023-07-02T13:58:24+0200</time>
      </trkpt>
      <trkpt lat="44.9045" lon="6.64768">
        <ele>1404</ele>
        <time>2023-07-02T13:58:26+0200</time>
      </trkpt>
      <trkpt lat="44.90449" lon="6.64758">
        <ele>1403</ele>
        <time>2023-07-02T13:58:27+0200</time>
      </trkpt>
      <trkpt lat="44.90449" lon="6.64749">
        <ele>1402.4</ele>
        <time>2023-07-02T13:58:29+0200</time>
      </trkpt>
      <trkpt lat="44.90443" lon="6.64753">
        <ele>1399.5</ele>
        <time>2023-07-02T13:58:33+0200</time>
      </trkpt>
      <trkpt lat="44.90442" lon="6.64764">
        <ele>1399.6</ele>
        <time>2023-07-02T13:58:35+0200</time>
      </trkpt>
      <trkpt lat="44.90439" lon="6.6477">
        <ele>1398.8</ele>
        <time>2023-07-02T13:58:36+0200</time>
      </trkpt>
      <trkpt lat="44.90436" lon="6.6478">
        <ele>1397.7</ele>
        <time>2023-07-02T13:58:37+0200</time>
      </trkpt>
      <trkpt lat="44.90432" lon="6.64789">
        <ele>1396.4</ele>
        <time>2023-07-02T13:58:38+0200</time>
      </trkpt>
      <trkpt lat="44.90428" lon="6.64796">
        <ele>1394.8</ele>
        <time>2023-07-02T13:58:39+0200</time>
      </trkpt>
      <trkpt lat="44.90425" lon="6.64802">
        <ele>1393.1</ele>
        <time>2023-07-02T13:58:40+0200</time>
      </trkpt>
      <trkpt lat="44.9042" lon="6.64807">
        <ele>1390.9</ele>
        <time>2023-07-02T13:58:41+0200</time>
      </trkpt>
      <trkpt lat="44.9042" lon="6.64814">
        <ele>1390.9</ele>
        <time>2023-07-02T13:58:42+0200</time>
      </trkpt>
      <trkpt lat="44.9042" lon="6.64821">
        <ele>1391</ele>
        <time>2023-07-02T13:58:43+0200</time>
      </trkpt>
      <trkpt lat="44.90417" lon="6.64816">
        <ele>1389.3</ele>
        <time>2023-07-02T13:58:46+0200</time>
      </trkpt>
      <trkpt lat="44.9042" lon="6.64809">
        <ele>1390.7</ele>
        <time>2023-07-02T13:58:48+0200</time>
      </trkpt>
      <trkpt lat="44.90421" lon="6.64798">
        <ele>1391.1</ele>
        <time>2023-07-02T13:58:50+0200</time>
      </trkpt>
      <trkpt lat="44.90423" lon="6.6479">
        <ele>1391.7</ele>
        <time>2023-07-02T13:58:51+0200</time>
      </trkpt>
      <trkpt lat="44.9042" lon="6.64782">
        <ele>1389.7</ele>
        <time>2023-07-02T13:58:52+0200</time>
      </trkpt>
      <trkpt lat="44.90417" lon="6.64768">
        <ele>1387.2</ele>
        <time>2023-07-02T13:58:53+0200</time>
      </trkpt>
      <trkpt lat="44.90415" lon="6.64755">
        <ele>1385.5</ele>
        <time>2023-07-02T13:58:54+0200</time>
      </trkpt>
      <trkpt lat="44.90416" lon="6.64746">
        <ele>1385.5</ele>
        <time>2023-07-02T13:58:55+0200</time>
      </trkpt>
      <trkpt lat="44.90413" lon="6.64734">
        <ele>1383.2</ele>
        <time>2023-07-02T13:58:56+0200</time>
      </trkpt>
      <trkpt lat="44.9041" lon="6.64719">
        <ele>1381</ele>
        <time>2023-07-02T13:58:57+0200</time>
      </trkpt>
      <trkpt lat="44.90406" lon="6.64708">
        <ele>1379.2</ele>
        <time>2023-07-02T13:58:58+0200</time>
      </trkpt>
      <trkpt lat="44.90401" lon="6.64697">
        <ele>1377.4</ele>
        <time>2023-07-02T13:58:59+0200</time>
      </trkpt>
      <trkpt lat="44.90398" lon="6.64689">
        <ele>1376.3</ele>
        <time>2023-07-02T13:59:00+0200</time>
      </trkpt>
      <trkpt lat="44.90395" lon="6.64682">
        <ele>1375.5</ele>
        <time>2023-07-02T13:59:01+0200</time>
      </trkpt>
      <trkpt lat="44.90391" lon="6.64676">
        <ele>1374.5</ele>
        <time>2023-07-02T13:59:02+0200</time>
      </trkpt>
      <trkpt lat="44.90389" lon="6.6467">
        <ele>1373.9</ele>
        <time>2023-07-02T13:59:03+0200</time>
      </trkpt>
      <trkpt lat="44.90387" lon="6.64662">
        <ele>1373.6</ele>
        <time>2023-07-02T13:59:04+0200</time>
      </trkpt>
      <trkpt lat="44.90388" lon="6.6465">
        <ele>1374.3</ele>
        <time>2023-07-02T13:59:05+0200</time>
      </trkpt>
      <trkpt lat="44.90388" lon="6.6464">
        <ele>1374.8</ele>
        <time>2023-07-02T13:59:06+0200</time>
      </trkpt>
      <trkpt lat="44.90385" lon="6.64632">
        <ele>1374.4</ele>
        <time>2023-07-02T13:59:07+0200</time>
      </trkpt>
      <trkpt lat="44.90381" lon="6.64626">
        <ele>1373.9</ele>
        <time>2023-07-02T13:59:09+0200</time>
      </trkpt>
      <trkpt lat="44.90378" lon="6.64621">
        <ele>1373.4</ele>
        <time>2023-07-02T13:59:11+0200</time>
      </trkpt>
      <trkpt lat="44.90375" lon="6.64614">
        <ele>1373.2</ele>
        <time>2023-07-02T13:59:15+0200</time>
      </trkpt>
      <trkpt lat="44.90372" lon="6.64607">
        <ele>1373</ele>
        <time>2023-07-02T13:59:18+0200</time>
      </trkpt>
      <trkpt lat="44.9037" lon="6.64597">
        <ele>1373.4</ele>
        <time>2023-07-02T13:59:21+0200</time>
      </trkpt>
      <trkpt lat="44.90368" lon="6.64589">
        <ele>1373.8</ele>
        <time>2023-07-02T13:59:23+0200</time>
      </trkpt>
      <trkpt lat="44.90363" lon="6.64579">
        <ele>1373.2</ele>
        <time>2023-07-02T13:59:25+0200</time>
      </trkpt>
      <trkpt lat="44.90363" lon="6.64568">
        <ele>1374.2</ele>
        <time>2023-07-02T13:59:28+0200</time>
      </trkpt>
      <trkpt lat="44.9036" lon="6.6456">
        <ele>1374</ele>
        <time>2023-07-02T13:59:31+0200</time>
      </trkpt>
      <trkpt lat="44.90358" lon="6.64553">
        <ele>1374.3</ele>
        <time>2023-07-02T13:59:33+0200</time>
      </trkpt>
      <trkpt lat="44.90356" lon="6.64545">
        <ele>1374.2</ele>
        <time>2023-07-02T13:59:35+0200</time>
      </trkpt>
      <trkpt lat="44.90357" lon="6.64537">
        <ele>1374.8</ele>
        <time>2023-07-02T13:59:37+0200</time>
      </trkpt>
      <trkpt lat="44.90356" lon="6.6453">
        <ele>1375.2</ele>
        <time>2023-07-02T13:59:39+0200</time>
      </trkpt>
      <trkpt lat="44.90354" lon="6.64522">
        <ele>1375.2</ele>
        <time>2023-07-02T13:59:40+0200</time>
      </trkpt>
      <trkpt lat="44.90351" lon="6.64512">
        <ele>1374.9</ele>
        <time>2023-07-02T13:59:42+0200</time>
      </trkpt>
      <trkpt lat="44.90353" lon="6.645">
        <ele>1376.3</ele>
        <time>2023-07-02T13:59:45+0200</time>
      </trkpt>
      <trkpt lat="44.90354" lon="6.64493">
        <ele>1376.9</ele>
        <time>2023-07-02T13:59:47+0200</time>
      </trkpt>
      <trkpt lat="44.90352" lon="6.64485">
        <ele>1376.7</ele>
        <time>2023-07-02T13:59:49+0200</time>
      </trkpt>
      <trkpt lat="44.90351" lon="6.64476">
        <ele>1376.7</ele>
        <time>2023-07-02T13:59:51+0200</time>
      </trkpt>
      <trkpt lat="44.90353" lon="6.64468">
        <ele>1377.5</ele>
        <time>2023-07-02T13:59:53+0200</time>
      </trkpt>
      <trkpt lat="44.90354" lon="6.6446">
        <ele>1377.9</ele>
        <time>2023-07-02T13:59:55+0200</time>
      </trkpt>
      <trkpt lat="44.90355" lon="6.64451">
        <ele>1378.5</ele>
        <time>2023-07-02T13:59:57+0200</time>
      </trkpt>
      <trkpt lat="44.90355" lon="6.64444">
        <ele>1378.9</ele>
        <time>2023-07-02T13:59:59+0200</time>
      </trkpt>
      <trkpt lat="44.90355" lon="6.64436">
        <ele>1379.1</ele>
        <time>2023-07-02T14:00:01+0200</time>
      </trkpt>
      <trkpt lat="44.90357" lon="6.64428">
        <ele>1379.9</ele>
        <time>2023-07-02T14:00:03+0200</time>
      </trkpt>
      <trkpt lat="44.90358" lon="6.64418">
        <ele>1380.6</ele>
        <time>2023-07-02T14:00:05+0200</time>
      </trkpt>
      <trkpt lat="44.90357" lon="6.6441">
        <ele>1380.3</ele>
        <time>2023-07-02T14:00:07+0200</time>
      </trkpt>
      <trkpt lat="44.90359" lon="6.64402">
        <ele>1380.6</ele>
        <time>2023-07-02T14:00:09+0200</time>
      </trkpt>
      <trkpt lat="44.90361" lon="6.64395">
        <ele>1381.1</ele>
        <time>2023-07-02T14:00:11+0200</time>
      </trkpt>
      <trkpt lat="44.90362" lon="6.64389">
        <ele>1381.5</ele>
        <time>2023-07-02T14:00:12+0200</time>
      </trkpt>
      <trkpt lat="44.90364" lon="6.64382">
        <ele>1381.8</ele>
        <time>2023-07-02T14:00:14+0200</time>
      </trkpt>
      <trkpt lat="44.90367" lon="6.64377">
        <ele>1382.9</ele>
        <time>2023-07-02T14:00:16+0200</time>
      </trkpt>
      <trkpt lat="44.9037" lon="6.64366">
        <ele>1383.3</ele>
        <time>2023-07-02T14:00:19+0200</time>
      </trkpt>
      <trkpt lat="44.90373" lon="6.64359">
        <ele>1384.1</ele>
        <time>2023-07-02T14:00:21+0200</time>
      </trkpt>
      <trkpt lat="44.90377" lon="6.64354">
        <ele>1385</ele>
        <time>2023-07-02T14:00:23+0200</time>
      </trkpt>
      <trkpt lat="44.90381" lon="6.64348">
        <ele>1385.6</ele>
        <time>2023-07-02T14:00:25+0200</time>
      </trkpt>
      <trkpt lat="44.90384" lon="6.64342">
        <ele>1386</ele>
        <time>2023-07-02T14:00:27+0200</time>
      </trkpt>
      <trkpt lat="44.90388" lon="6.64337">
        <ele>1387.1</ele>
        <time>2023-07-02T14:00:30+0200</time>
      </trkpt>
      <trkpt lat="44.90391" lon="6.64331">
        <ele>1387.7</ele>
        <time>2023-07-02T14:00:32+0200</time>
      </trkpt>
      <trkpt lat="44.90394" lon="6.64324">
        <ele>1388.1</ele>
        <time>2023-07-02T14:00:34+0200</time>
      </trkpt>
      <trkpt lat="44.90396" lon="6.64316">
        <ele>1388.4</ele>
        <time>2023-07-02T14:00:36+0200</time>
      </trkpt>
      <trkpt lat="44.90399" lon="6.64308">
        <ele>1388.8</ele>
        <time>2023-07-02T14:00:38+0200</time>
      </trkpt>
      <trkpt lat="44.904" lon="6.64301">
        <ele>1389</ele>
        <time>2023-07-02T14:00:40+0200</time>
      </trkpt>
      <trkpt lat="44.90404" lon="6.64293">
        <ele>1389.8</ele>
        <time>2023-07-02T14:00:42+0200</time>
      </trkpt>
      <trkpt lat="44.90406" lon="6.64287">
        <ele>1390.3</ele>
        <time>2023-07-02T14:00:44+0200</time>
      </trkpt>
      <trkpt lat="44.90405" lon="6.64279">
        <ele>1389.2</ele>
        <time>2023-07-02T14:00:46+0200</time>
      </trkpt>
      <trkpt lat="44.90407" lon="6.6427">
        <ele>1389.4</ele>
        <time>2023-07-02T14:00:48+0200</time>
      </trkpt>
      <trkpt lat="44.9041" lon="6.64261">
        <ele>1389.7</ele>
        <time>2023-07-02T14:00:50+0200</time>
      </trkpt>
      <trkpt lat="44.90413" lon="6.64253">
        <ele>1390.4</ele>
        <time>2023-07-02T14:00:52+0200</time>
      </trkpt>
      <trkpt lat="44.90413" lon="6.64244">
        <ele>1390.1</ele>
        <time>2023-07-02T14:00:54+0200</time>
      </trkpt>
      <trkpt lat="44.90414" lon="6.64237">
        <ele>1390.6</ele>
        <time>2023-07-02T14:00:56+0200</time>
      </trkpt>
      <trkpt lat="44.90416" lon="6.64231">
        <ele>1390.8</ele>
        <time>2023-07-02T14:00:58+0200</time>
      </trkpt>
      <trkpt lat="44.90416" lon="6.64219">
        <ele>1390.8</ele>
        <time>2023-07-02T14:01:00+0200</time>
      </trkpt>
      <trkpt lat="44.90416" lon="6.64211">
        <ele>1391.2</ele>
        <time>2023-07-02T14:01:02+0200</time>
      </trkpt>
      <trkpt lat="44.90416" lon="6.64199">
        <ele>1391.6</ele>
        <time>2023-07-02T14:01:04+0200</time>
      </trkpt>
      <trkpt lat="44.90415" lon="6.64192">
        <ele>1391.7</ele>
        <time>2023-07-02T14:01:06+0200</time>
      </trkpt>
      <trkpt lat="44.90412" lon="6.64187">
        <ele>1391.9</ele>
        <time>2023-07-02T14:01:08+0200</time>
      </trkpt>
      <trkpt lat="44.90411" lon="6.64179">
        <ele>1393.1</ele>
        <time>2023-07-02T14:01:10+0200</time>
      </trkpt>
      <trkpt lat="44.90409" lon="6.64174">
        <ele>1393</ele>
        <time>2023-07-02T14:01:12+0200</time>
      </trkpt>
      <trkpt lat="44.90404" lon="6.64169">
        <ele>1392.2</ele>
        <time>2023-07-02T14:01:14+0200</time>
      </trkpt>
      <trkpt lat="44.90402" lon="6.64161">
        <ele>1392.5</ele>
        <time>2023-07-02T14:01:16+0200</time>
      </trkpt>
      <trkpt lat="44.904" lon="6.64151">
        <ele>1393</ele>
        <time>2023-07-02T14:01:18+0200</time>
      </trkpt>
      <trkpt lat="44.904" lon="6.64142">
        <ele>1394.1</ele>
        <time>2023-07-02T14:01:20+0200</time>
      </trkpt>
      <trkpt lat="44.90401" lon="6.64135">
        <ele>1394.5</ele>
        <time>2023-07-02T14:01:22+0200</time>
      </trkpt>
      <trkpt lat="44.90405" lon="6.64128">
        <ele>1395.1</ele>
        <time>2023-07-02T14:01:24+0200</time>
      </trkpt>
      <trkpt lat="44.9041" lon="6.64124">
        <ele>1396.3</ele>
        <time>2023-07-02T14:01:26+0200</time>
      </trkpt>
      <trkpt lat="44.90416" lon="6.64119">
        <ele>1397.9</ele>
        <time>2023-07-02T14:01:28+0200</time>
      </trkpt>
      <trkpt lat="44.90421" lon="6.64117">
        <ele>1399.3</ele>
        <time>2023-07-02T14:01:30+0200</time>
      </trkpt>
      <trkpt lat="44.90424" lon="6.64112">
        <ele>1400.1</ele>
        <time>2023-07-02T14:01:32+0200</time>
      </trkpt>
      <trkpt lat="44.90427" lon="6.64107">
        <ele>1400.4</ele>
        <time>2023-07-02T14:01:34+0200</time>
      </trkpt>
      <trkpt lat="44.90429" lon="6.64101">
        <ele>1400.1</ele>
        <time>2023-07-02T14:01:36+0200</time>
      </trkpt>
      <trkpt lat="44.90431" lon="6.64094">
        <ele>1399.8</ele>
        <time>2023-07-02T14:01:38+0200</time>
      </trkpt>
      <trkpt lat="44.90434" lon="6.64088">
        <ele>1400</ele>
        <time>2023-07-02T14:01:40+0200</time>
      </trkpt>
      <trkpt lat="44.90436" lon="6.64081">
        <ele>1400</ele>
        <time>2023-07-02T14:01:42+0200</time>
      </trkpt>
      <trkpt lat="44.90436" lon="6.64072">
        <ele>1398.9</ele>
        <time>2023-07-02T14:01:44+0200</time>
      </trkpt>
      <trkpt lat="44.90438" lon="6.6406">
        <ele>1398.1</ele>
        <time>2023-07-02T14:01:45+0200</time>
      </trkpt>
      <trkpt lat="44.90437" lon="6.64052">
        <ele>1396.4</ele>
        <time>2023-07-02T14:01:46+0200</time>
      </trkpt>
      <trkpt lat="44.90435" lon="6.64042">
        <ele>1394.6</ele>
        <time>2023-07-02T14:01:48+0200</time>
      </trkpt>
      <trkpt lat="44.90435" lon="6.64034">
        <ele>1393.3</ele>
        <time>2023-07-02T14:01:49+0200</time>
      </trkpt>
      <trkpt lat="44.90435" lon="6.64027">
        <ele>1392.5</ele>
        <time>2023-07-02T14:01:50+0200</time>
      </trkpt>
      <trkpt lat="44.90439" lon="6.64018">
        <ele>1392</ele>
        <time>2023-07-02T14:01:52+0200</time>
      </trkpt>
      <trkpt lat="44.90442" lon="6.64009">
        <ele>1391.2</ele>
        <time>2023-07-02T14:01:54+0200</time>
      </trkpt>
      <trkpt lat="44.90446" lon="6.64001">
        <ele>1390.7</ele>
        <time>2023-07-02T14:01:56+0200</time>
      </trkpt>
      <trkpt lat="44.90451" lon="6.63992">
        <ele>1389.5</ele>
        <time>2023-07-02T14:01:58+0200</time>
      </trkpt>
      <trkpt lat="44.90459" lon="6.63989">
        <ele>1391</ele>
        <time>2023-07-02T14:02:00+0200</time>
      </trkpt>
      <trkpt lat="44.90464" lon="6.63991">
        <ele>1392.6</ele>
        <time>2023-07-02T14:02:01+0200</time>
      </trkpt>
      <trkpt lat="44.90469" lon="6.63992">
        <ele>1394.1</ele>
        <time>2023-07-02T14:02:02+0200</time>
      </trkpt>
      <trkpt lat="44.90476" lon="6.63995">
        <ele>1396.8</ele>
        <time>2023-07-02T14:02:04+0200</time>
      </trkpt>
      <trkpt lat="44.90481" lon="6.63995">
        <ele>1398</ele>
        <time>2023-07-02T14:02:05+0200</time>
      </trkpt>
      <trkpt lat="44.90485" lon="6.63992">
        <ele>1398.5</ele>
        <time>2023-07-02T14:02:06+0200</time>
      </trkpt>
      <trkpt lat="44.90491" lon="6.63987">
        <ele>1399</ele>
        <time>2023-07-02T14:02:08+0200</time>
      </trkpt>
      <trkpt lat="44.90493" lon="6.63982">
        <ele>1398.5</ele>
        <time>2023-07-02T14:02:09+0200</time>
      </trkpt>
      <trkpt lat="44.90495" lon="6.63974">
        <ele>1397.6</ele>
        <time>2023-07-02T14:02:10+0200</time>
      </trkpt>
      <trkpt lat="44.90498" lon="6.63967">
        <ele>1397.1</ele>
        <time>2023-07-02T14:02:11+0200</time>
      </trkpt>
      <trkpt lat="44.90497" lon="6.63954">
        <ele>1393.8</ele>
        <time>2023-07-02T14:02:13+0200</time>
      </trkpt>
      <trkpt lat="44.90501" lon="6.63941">
        <ele>1392.9</ele>
        <time>2023-07-02T14:02:15+0200</time>
      </trkpt>
      <trkpt lat="44.90502" lon="6.63935">
        <ele>1392.4</ele>
        <time>2023-07-02T14:02:16+0200</time>
      </trkpt>
      <trkpt lat="44.90507" lon="6.63922">
        <ele>1393.5</ele>
        <time>2023-07-02T14:02:18+0200</time>
      </trkpt>
      <trkpt lat="44.9051" lon="6.63914">
        <ele>1393.6</ele>
        <time>2023-07-02T14:02:19+0200</time>
      </trkpt>
      <trkpt lat="44.90513" lon="6.63908">
        <ele>1394.3</ele>
        <time>2023-07-02T14:02:20+0200</time>
      </trkpt>
      <trkpt lat="44.90517" lon="6.63903">
        <ele>1395.9</ele>
        <time>2023-07-02T14:02:21+0200</time>
      </trkpt>
      <trkpt lat="44.9052" lon="6.63896">
        <ele>1396.5</ele>
        <time>2023-07-02T14:02:22+0200</time>
      </trkpt>
      <trkpt lat="44.90521" lon="6.6389">
        <ele>1396.4</ele>
        <time>2023-07-02T14:02:23+0200</time>
      </trkpt>
      <trkpt lat="44.90525" lon="6.6388">
        <ele>1397.3</ele>
        <time>2023-07-02T14:02:25+0200</time>
      </trkpt>
      <trkpt lat="44.90526" lon="6.63872">
        <ele>1397.3</ele>
        <time>2023-07-02T14:02:26+0200</time>
      </trkpt>
      <trkpt lat="44.90527" lon="6.63861">
        <ele>1396.6</ele>
        <time>2023-07-02T14:02:27+0200</time>
      </trkpt>
      <trkpt lat="44.90529" lon="6.63854">
        <ele>1396.8</ele>
        <time>2023-07-02T14:02:28+0200</time>
      </trkpt>
      <trkpt lat="44.90532" lon="6.63848">
        <ele>1397.1</ele>
        <time>2023-07-02T14:02:29+0200</time>
      </trkpt>
      <trkpt lat="44.90532" lon="6.63831">
        <ele>1395.2</ele>
        <time>2023-07-02T14:02:31+0200</time>
      </trkpt>
      <trkpt lat="44.90531" lon="6.63824">
        <ele>1393.8</ele>
        <time>2023-07-02T14:02:32+0200</time>
      </trkpt>
      <trkpt lat="44.90532" lon="6.63816">
        <ele>1392.6</ele>
        <time>2023-07-02T14:02:33+0200</time>
      </trkpt>
      <trkpt lat="44.90531" lon="6.6381">
        <ele>1391.3</ele>
        <time>2023-07-02T14:02:34+0200</time>
      </trkpt>
      <trkpt lat="44.90535" lon="6.638">
        <ele>1390.7</ele>
        <time>2023-07-02T14:02:36+0200</time>
      </trkpt>
      <trkpt lat="44.9054" lon="6.63799">
        <ele>1391.7</ele>
        <time>2023-07-02T14:02:37+0200</time>
      </trkpt>
      <trkpt lat="44.90548" lon="6.63799">
        <ele>1393.6</ele>
        <time>2023-07-02T14:02:39+0200</time>
      </trkpt>
      <trkpt lat="44.90556" lon="6.638">
        <ele>1395.4</ele>
        <time>2023-07-02T14:02:41+0200</time>
      </trkpt>
      <trkpt lat="44.90561" lon="6.63802">
        <ele>1397.1</ele>
        <time>2023-07-02T14:02:43+0200</time>
      </trkpt>
      <trkpt lat="44.90566" lon="6.63806">
        <ele>1399.7</ele>
        <time>2023-07-02T14:02:45+0200</time>
      </trkpt>
      <trkpt lat="44.90573" lon="6.63807">
        <ele>1401.9</ele>
        <time>2023-07-02T14:02:47+0200</time>
      </trkpt>
      <trkpt lat="44.90581" lon="6.63809">
        <ele>1404.4</ele>
        <time>2023-07-02T14:02:49+0200</time>
      </trkpt>
      <trkpt lat="44.90588" lon="6.63811">
        <ele>1406.7</ele>
        <time>2023-07-02T14:02:51+0200</time>
      </trkpt>
      <trkpt lat="44.90594" lon="6.63811">
        <ele>1408.1</ele>
        <time>2023-07-02T14:02:53+0200</time>
      </trkpt>
      <trkpt lat="44.90599" lon="6.63801">
        <ele>1406.4</ele>
        <time>2023-07-02T14:02:55+0200</time>
      </trkpt>
      <trkpt lat="44.90602" lon="6.63795">
        <ele>1405.2</ele>
        <time>2023-07-02T14:02:56+0200</time>
      </trkpt>
      <trkpt lat="44.90606" lon="6.63788">
        <ele>1404.2</ele>
        <time>2023-07-02T14:02:58+0200</time>
      </trkpt>
      <trkpt lat="44.9061" lon="6.63775">
        <ele>1401</ele>
        <time>2023-07-02T14:03:00+0200</time>
      </trkpt>
      <trkpt lat="44.90616" lon="6.63768">
        <ele>1400.8</ele>
        <time>2023-07-02T14:03:02+0200</time>
      </trkpt>
      <trkpt lat="44.90624" lon="6.63763">
        <ele>1402</ele>
        <time>2023-07-02T14:03:04+0200</time>
      </trkpt>
      <trkpt lat="44.90631" lon="6.63759">
        <ele>1403.5</ele>
        <time>2023-07-02T14:03:06+0200</time>
      </trkpt>
      <trkpt lat="44.90634" lon="6.63751">
        <ele>1402.7</ele>
        <time>2023-07-02T14:03:08+0200</time>
      </trkpt>
      <trkpt lat="44.9064" lon="6.63744">
        <ele>1402.9</ele>
        <time>2023-07-02T14:03:10+0200</time>
      </trkpt>
      <trkpt lat="44.90644" lon="6.6374">
        <ele>1403.2</ele>
        <time>2023-07-02T14:03:11+0200</time>
      </trkpt>
      <trkpt lat="44.90649" lon="6.63732">
        <ele>1402.9</ele>
        <time>2023-07-02T14:03:13+0200</time>
      </trkpt>
      <trkpt lat="44.90653" lon="6.63722">
        <ele>1402.1</ele>
        <time>2023-07-02T14:03:15+0200</time>
      </trkpt>
      <trkpt lat="44.90657" lon="6.63713">
        <ele>1401.3</ele>
        <time>2023-07-02T14:03:17+0200</time>
      </trkpt>
      <trkpt lat="44.90662" lon="6.63707">
        <ele>1401.5</ele>
        <time>2023-07-02T14:03:19+0200</time>
      </trkpt>
      <trkpt lat="44.90668" lon="6.63705">
        <ele>1403.1</ele>
        <time>2023-07-02T14:03:20+0200</time>
      </trkpt>
      <trkpt lat="44.9067" lon="6.63696">
        <ele>1401.4</ele>
        <time>2023-07-02T14:03:22+0200</time>
      </trkpt>
      <trkpt lat="44.90675" lon="6.63692">
        <ele>1402.4</ele>
        <time>2023-07-02T14:03:24+0200</time>
      </trkpt>
      <trkpt lat="44.9068" lon="6.63689">
        <ele>1403.5</ele>
        <time>2023-07-02T14:03:26+0200</time>
      </trkpt>
      <trkpt lat="44.90687" lon="6.63686">
        <ele>1405</ele>
        <time>2023-07-02T14:03:28+0200</time>
      </trkpt>
      <trkpt lat="44.90692" lon="6.63679">
        <ele>1405.3</ele>
        <time>2023-07-02T14:03:30+0200</time>
      </trkpt>
      <trkpt lat="44.90697" lon="6.63673">
        <ele>1405.2</ele>
        <time>2023-07-02T14:03:32+0200</time>
      </trkpt>
      <trkpt lat="44.90699" lon="6.63662">
        <ele>1403.6</ele>
        <time>2023-07-02T14:03:34+0200</time>
      </trkpt>
      <trkpt lat="44.90703" lon="6.63656">
        <ele>1403.3</ele>
        <time>2023-07-02T14:03:36+0200</time>
      </trkpt>
      <trkpt lat="44.90705" lon="6.63648">
        <ele>1402.4</ele>
        <time>2023-07-02T14:03:38+0200</time>
      </trkpt>
      <trkpt lat="44.90711" lon="6.63643">
        <ele>1403.1</ele>
        <time>2023-07-02T14:03:40+0200</time>
      </trkpt>
      <trkpt lat="44.90716" lon="6.6364">
        <ele>1404.2</ele>
        <time>2023-07-02T14:03:42+0200</time>
      </trkpt>
      <trkpt lat="44.90721" lon="6.6364">
        <ele>1405.8</ele>
        <time>2023-07-02T14:03:44+0200</time>
      </trkpt>
      <trkpt lat="44.90728" lon="6.6364">
        <ele>1407.7</ele>
        <time>2023-07-02T14:03:46+0200</time>
      </trkpt>
      <trkpt lat="44.90734" lon="6.63641">
        <ele>1409.3</ele>
        <time>2023-07-02T14:03:49+0200</time>
      </trkpt>
      <trkpt lat="44.90739" lon="6.63638">
        <ele>1410</ele>
        <time>2023-07-02T14:03:51+0200</time>
      </trkpt>
      <trkpt lat="44.90744" lon="6.63637">
        <ele>1411</ele>
        <time>2023-07-02T14:03:53+0200</time>
      </trkpt>
      <trkpt lat="44.90752" lon="6.63633">
        <ele>1412</ele>
        <time>2023-07-02T14:03:55+0200</time>
      </trkpt>
      <trkpt lat="44.90756" lon="6.6363">
        <ele>1412</ele>
        <time>2023-07-02T14:03:57+0200</time>
      </trkpt>
      <trkpt lat="44.9076" lon="6.63621">
        <ele>1410.7</ele>
        <time>2023-07-02T14:04:00+0200</time>
      </trkpt>
      <trkpt lat="44.90766" lon="6.63621">
        <ele>1411.8</ele>
        <time>2023-07-02T14:04:01+0200</time>
      </trkpt>
      <trkpt lat="44.9077" lon="6.63617">
        <ele>1411.9</ele>
        <time>2023-07-02T14:04:02+0200</time>
      </trkpt>
      <trkpt lat="44.90778" lon="6.63613">
        <ele>1412.4</ele>
        <time>2023-07-02T14:04:04+0200</time>
      </trkpt>
      <trkpt lat="44.90784" lon="6.63611">
        <ele>1413.3</ele>
        <time>2023-07-02T14:04:06+0200</time>
      </trkpt>
      <trkpt lat="44.9079" lon="6.63607">
        <ele>1413.6</ele>
        <time>2023-07-02T14:04:08+0200</time>
      </trkpt>
      <trkpt lat="44.90795" lon="6.63602">
        <ele>1413.1</ele>
        <time>2023-07-02T14:04:10+0200</time>
      </trkpt>
      <trkpt lat="44.90799" lon="6.63597">
        <ele>1412.5</ele>
        <time>2023-07-02T14:04:11+0200</time>
      </trkpt>
      <trkpt lat="44.90804" lon="6.63588">
        <ele>1411.2</ele>
        <time>2023-07-02T14:04:13+0200</time>
      </trkpt>
      <trkpt lat="44.9081" lon="6.63584">
        <ele>1411.2</ele>
        <time>2023-07-02T14:04:15+0200</time>
      </trkpt>
      <trkpt lat="44.90816" lon="6.63584">
        <ele>1412.4</ele>
        <time>2023-07-02T14:04:17+0200</time>
      </trkpt>
      <trkpt lat="44.90823" lon="6.63583">
        <ele>1413.4</ele>
        <time>2023-07-02T14:04:20+0200</time>
      </trkpt>
      <trkpt lat="44.9083" lon="6.6358">
        <ele>1414.3</ele>
        <time>2023-07-02T14:04:22+0200</time>
      </trkpt>
      <trkpt lat="44.90837" lon="6.63578">
        <ele>1415.4</ele>
        <time>2023-07-02T14:04:24+0200</time>
      </trkpt>
      <trkpt lat="44.90842" lon="6.63573">
        <ele>1414.7</ele>
        <time>2023-07-02T14:04:26+0200</time>
      </trkpt>
      <trkpt lat="44.90847" lon="6.63572">
        <ele>1415.6</ele>
        <time>2023-07-02T14:04:27+0200</time>
      </trkpt>
      <trkpt lat="44.90852" lon="6.63568">
        <ele>1415.6</ele>
        <time>2023-07-02T14:04:29+0200</time>
      </trkpt>
      <trkpt lat="44.90859" lon="6.63566">
        <ele>1416.6</ele>
        <time>2023-07-02T14:04:32+0200</time>
      </trkpt>
      <trkpt lat="44.90863" lon="6.63565">
        <ele>1417.2</ele>
        <time>2023-07-02T14:04:34+0200</time>
      </trkpt>
      <trkpt lat="44.9087" lon="6.63558">
        <ele>1417</ele>
        <time>2023-07-02T14:04:36+0200</time>
      </trkpt>
      <trkpt lat="44.90876" lon="6.63552">
        <ele>1416.9</ele>
        <time>2023-07-02T14:04:38+0200</time>
      </trkpt>
      <trkpt lat="44.90879" lon="6.63546">
        <ele>1415.9</ele>
        <time>2023-07-02T14:04:39+0200</time>
      </trkpt>
      <trkpt lat="44.90886" lon="6.63543">
        <ele>1417</ele>
        <time>2023-07-02T14:04:41+0200</time>
      </trkpt>
      <trkpt lat="44.90892" lon="6.63537">
        <ele>1417.1</ele>
        <time>2023-07-02T14:04:43+0200</time>
      </trkpt>
      <trkpt lat="44.90899" lon="6.63535">
        <ele>1418.7</ele>
        <time>2023-07-02T14:04:45+0200</time>
      </trkpt>
      <trkpt lat="44.90906" lon="6.6353">
        <ele>1419.5</ele>
        <time>2023-07-02T14:04:47+0200</time>
      </trkpt>
      <trkpt lat="44.90909" lon="6.63522">
        <ele>1418.6</ele>
        <time>2023-07-02T14:04:48+0200</time>
      </trkpt>
      <trkpt lat="44.90911" lon="6.63516">
        <ele>1418.1</ele>
        <time>2023-07-02T14:04:50+0200</time>
      </trkpt>
      <trkpt lat="44.90917" lon="6.63507">
        <ele>1418.3</ele>
        <time>2023-07-02T14:04:52+0200</time>
      </trkpt>
      <trkpt lat="44.9092" lon="6.63497">
        <ele>1417.9</ele>
        <time>2023-07-02T14:04:54+0200</time>
      </trkpt>
      <trkpt lat="44.90922" lon="6.63487">
        <ele>1417.9</ele>
        <time>2023-07-02T14:04:56+0200</time>
      </trkpt>
      <trkpt lat="44.90926" lon="6.63479">
        <ele>1418.3</ele>
        <time>2023-07-02T14:04:58+0200</time>
      </trkpt>
      <trkpt lat="44.90929" lon="6.63471">
        <ele>1418.7</ele>
        <time>2023-07-02T14:05:00+0200</time>
      </trkpt>
      <trkpt lat="44.90931" lon="6.63463">
        <ele>1418.6</ele>
        <time>2023-07-02T14:05:02+0200</time>
      </trkpt>
      <trkpt lat="44.90933" lon="6.63455">
        <ele>1418.2</ele>
        <time>2023-07-02T14:05:04+0200</time>
      </trkpt>
      <trkpt lat="44.90938" lon="6.63448">
        <ele>1419.1</ele>
        <time>2023-07-02T14:05:06+0200</time>
      </trkpt>
      <trkpt lat="44.90943" lon="6.63439">
        <ele>1419.5</ele>
        <time>2023-07-02T14:05:09+0200</time>
      </trkpt>
      <trkpt lat="44.90948" lon="6.63435">
        <ele>1420.9</ele>
        <time>2023-07-02T14:05:11+0200</time>
      </trkpt>
      <trkpt lat="44.90956" lon="6.63429">
        <ele>1422.1</ele>
        <time>2023-07-02T14:05:13+0200</time>
      </trkpt>
      <trkpt lat="44.90962" lon="6.63423">
        <ele>1423</ele>
        <time>2023-07-02T14:05:15+0200</time>
      </trkpt>
      <trkpt lat="44.90969" lon="6.6342">
        <ele>1424.8</ele>
        <time>2023-07-02T14:05:17+0200</time>
      </trkpt>
      <trkpt lat="44.90975" lon="6.63414">
        <ele>1425.1</ele>
        <time>2023-07-02T14:05:19+0200</time>
      </trkpt>
      <trkpt lat="44.9098" lon="6.63406">
        <ele>1424.5</ele>
        <time>2023-07-02T14:05:21+0200</time>
      </trkpt>
      <trkpt lat="44.90984" lon="6.63401">
        <ele>1424.6</ele>
        <time>2023-07-02T14:05:23+0200</time>
      </trkpt>
      <trkpt lat="44.9099" lon="6.63397">
        <ele>1425</ele>
        <time>2023-07-02T14:05:25+0200</time>
      </trkpt>
      <trkpt lat="44.90996" lon="6.63391">
        <ele>1425.4</ele>
        <time>2023-07-02T14:05:27+0200</time>
      </trkpt>
      <trkpt lat="44.91001" lon="6.63383">
        <ele>1424.9</ele>
        <time>2023-07-02T14:05:29+0200</time>
      </trkpt>
      <trkpt lat="44.91009" lon="6.63381">
        <ele>1426.2</ele>
        <time>2023-07-02T14:05:31+0200</time>
      </trkpt>
      <trkpt lat="44.91013" lon="6.63376">
        <ele>1426</ele>
        <time>2023-07-02T14:05:33+0200</time>
      </trkpt>
      <trkpt lat="44.91018" lon="6.63369">
        <ele>1425.4</ele>
        <time>2023-07-02T14:05:35+0200</time>
      </trkpt>
      <trkpt lat="44.91026" lon="6.63363">
        <ele>1426</ele>
        <time>2023-07-02T14:05:37+0200</time>
      </trkpt>
      <trkpt lat="44.91031" lon="6.63356">
        <ele>1425.2</ele>
        <time>2023-07-02T14:05:39+0200</time>
      </trkpt>
      <trkpt lat="44.91036" lon="6.63351">
        <ele>1425</ele>
        <time>2023-07-02T14:05:41+0200</time>
      </trkpt>
      <trkpt lat="44.9104" lon="6.63349">
        <ele>1425.3</ele>
        <time>2023-07-02T14:05:43+0200</time>
      </trkpt>
      <trkpt lat="44.91045" lon="6.63345">
        <ele>1425.3</ele>
        <time>2023-07-02T14:05:45+0200</time>
      </trkpt>
      <trkpt lat="44.9105" lon="6.63345">
        <ele>1426.5</ele>
        <time>2023-07-02T14:05:46+0200</time>
      </trkpt>
      <trkpt lat="44.91056" lon="6.63342">
        <ele>1427.4</ele>
        <time>2023-07-02T14:05:48+0200</time>
      </trkpt>
      <trkpt lat="44.91062" lon="6.63338">
        <ele>1427.5</ele>
        <time>2023-07-02T14:05:50+0200</time>
      </trkpt>
      <trkpt lat="44.91067" lon="6.63332">
        <ele>1427.1</ele>
        <time>2023-07-02T14:05:52+0200</time>
      </trkpt>
      <trkpt lat="44.91075" lon="6.63329">
        <ele>1427.9</ele>
        <time>2023-07-02T14:05:54+0200</time>
      </trkpt>
      <trkpt lat="44.91081" lon="6.63329">
        <ele>1429</ele>
        <time>2023-07-02T14:05:56+0200</time>
      </trkpt>
      <trkpt lat="44.91086" lon="6.63323">
        <ele>1428.8</ele>
        <time>2023-07-02T14:05:58+0200</time>
      </trkpt>
      <trkpt lat="44.91092" lon="6.63319">
        <ele>1428.9</ele>
        <time>2023-07-02T14:06:00+0200</time>
      </trkpt>
      <trkpt lat="44.91098" lon="6.63315">
        <ele>1429.5</ele>
        <time>2023-07-02T14:06:02+0200</time>
      </trkpt>
      <trkpt lat="44.91106" lon="6.63311">
        <ele>1430.2</ele>
        <time>2023-07-02T14:06:04+0200</time>
      </trkpt>
      <trkpt lat="44.91114" lon="6.63311">
        <ele>1432.2</ele>
        <time>2023-07-02T14:06:06+0200</time>
      </trkpt>
      <trkpt lat="44.9112" lon="6.63306">
        <ele>1432.3</ele>
        <time>2023-07-02T14:06:08+0200</time>
      </trkpt>
      <trkpt lat="44.91125" lon="6.633">
        <ele>1431.5</ele>
        <time>2023-07-02T14:06:10+0200</time>
      </trkpt>
      <trkpt lat="44.91131" lon="6.63297">
        <ele>1431.7</ele>
        <time>2023-07-02T14:06:12+0200</time>
      </trkpt>
      <trkpt lat="44.91136" lon="6.63296">
        <ele>1433</ele>
        <time>2023-07-02T14:06:14+0200</time>
      </trkpt>
      <trkpt lat="44.91142" lon="6.63292">
        <ele>1432.8</ele>
        <time>2023-07-02T14:06:16+0200</time>
      </trkpt>
      <trkpt lat="44.91148" lon="6.63285">
        <ele>1431.9</ele>
        <time>2023-07-02T14:06:18+0200</time>
      </trkpt>
      <trkpt lat="44.91155" lon="6.6328">
        <ele>1432.4</ele>
        <time>2023-07-02T14:06:20+0200</time>
      </trkpt>
      <trkpt lat="44.91163" lon="6.63277">
        <ele>1433.6</ele>
        <time>2023-07-02T14:06:22+0200</time>
      </trkpt>
      <trkpt lat="44.91169" lon="6.63271">
        <ele>1433</ele>
        <time>2023-07-02T14:06:24+0200</time>
      </trkpt>
      <trkpt lat="44.91171" lon="6.63266">
        <ele>1431.9</ele>
        <time>2023-07-02T14:06:26+0200</time>
      </trkpt>
      <trkpt lat="44.91177" lon="6.63265">
        <ele>1433</ele>
        <time>2023-07-02T14:06:28+0200</time>
      </trkpt>
      <trkpt lat="44.91184" lon="6.63266">
        <ele>1435.3</ele>
        <time>2023-07-02T14:06:30+0200</time>
      </trkpt>
      <trkpt lat="44.91189" lon="6.63268">
        <ele>1437.7</ele>
        <time>2023-07-02T14:06:32+0200</time>
      </trkpt>
      <trkpt lat="44.91196" lon="6.63269">
        <ele>1439.8</ele>
        <time>2023-07-02T14:06:34+0200</time>
      </trkpt>
      <trkpt lat="44.91203" lon="6.63267">
        <ele>1441.3</ele>
        <time>2023-07-02T14:06:37+0200</time>
      </trkpt>
      <trkpt lat="44.91207" lon="6.63264">
        <ele>1441.3</ele>
        <time>2023-07-02T14:06:39+0200</time>
      </trkpt>
      <trkpt lat="44.91212" lon="6.63258">
        <ele>1440.7</ele>
        <time>2023-07-02T14:06:40+0200</time>
      </trkpt>
      <trkpt lat="44.91215" lon="6.63252">
        <ele>1439.5</ele>
        <time>2023-07-02T14:06:41+0200</time>
      </trkpt>
      <trkpt lat="44.91216" lon="6.63245">
        <ele>1437.2</ele>
        <time>2023-07-02T14:06:42+0200</time>
      </trkpt>
      <trkpt lat="44.91219" lon="6.6324">
        <ele>1436.4</ele>
        <time>2023-07-02T14:06:43+0200</time>
      </trkpt>
      <trkpt lat="44.91224" lon="6.63233">
        <ele>1435.3</ele>
        <time>2023-07-02T14:06:45+0200</time>
      </trkpt>
      <trkpt lat="44.91229" lon="6.63225">
        <ele>1434</ele>
        <time>2023-07-02T14:06:47+0200</time>
      </trkpt>
      <trkpt lat="44.91234" lon="6.63221">
        <ele>1434</ele>
        <time>2023-07-02T14:06:49+0200</time>
      </trkpt>
      <trkpt lat="44.91238" lon="6.63215">
        <ele>1433</ele>
        <time>2023-07-02T14:06:51+0200</time>
      </trkpt>
      <trkpt lat="44.91242" lon="6.63209">
        <ele>1432.1</ele>
        <time>2023-07-02T14:06:53+0200</time>
      </trkpt>
      <trkpt lat="44.91249" lon="6.63206">
        <ele>1432.8</ele>
        <time>2023-07-02T14:06:55+0200</time>
      </trkpt>
      <trkpt lat="44.91256" lon="6.63203">
        <ele>1433.5</ele>
        <time>2023-07-02T14:06:57+0200</time>
      </trkpt>
      <trkpt lat="44.91262" lon="6.63201">
        <ele>1434.5</ele>
        <time>2023-07-02T14:06:59+0200</time>
      </trkpt>
      <trkpt lat="44.91269" lon="6.632">
        <ele>1435.8</ele>
        <time>2023-07-02T14:07:01+0200</time>
      </trkpt>
      <trkpt lat="44.91276" lon="6.63201">
        <ele>1437.9</ele>
        <time>2023-07-02T14:07:03+0200</time>
      </trkpt>
      <trkpt lat="44.91283" lon="6.632">
        <ele>1439.3</ele>
        <time>2023-07-02T14:07:05+0200</time>
      </trkpt>
      <trkpt lat="44.91289" lon="6.632">
        <ele>1440.8</ele>
        <time>2023-07-02T14:07:07+0200</time>
      </trkpt>
      <trkpt lat="44.91296" lon="6.63201">
        <ele>1443.3</ele>
        <time>2023-07-02T14:07:09+0200</time>
      </trkpt>
      <trkpt lat="44.91302" lon="6.63199">
        <ele>1443.8</ele>
        <time>2023-07-02T14:07:11+0200</time>
      </trkpt>
      <trkpt lat="44.91307" lon="6.63197">
        <ele>1444.5</ele>
        <time>2023-07-02T14:07:13+0200</time>
      </trkpt>
      <trkpt lat="44.91312" lon="6.63193">
        <ele>1444.1</ele>
        <time>2023-07-02T14:07:15+0200</time>
      </trkpt>
      <trkpt lat="44.91314" lon="6.63187">
        <ele>1443.1</ele>
        <time>2023-07-02T14:07:16+0200</time>
      </trkpt>
      <trkpt lat="44.9132" lon="6.63179">
        <ele>1442.4</ele>
        <time>2023-07-02T14:07:18+0200</time>
      </trkpt>
      <trkpt lat="44.91325" lon="6.63172">
        <ele>1441.9</ele>
        <time>2023-07-02T14:07:20+0200</time>
      </trkpt>
      <trkpt lat="44.9133" lon="6.63165">
        <ele>1441.5</ele>
        <time>2023-07-02T14:07:22+0200</time>
      </trkpt>
      <trkpt lat="44.91335" lon="6.63161">
        <ele>1441.8</ele>
        <time>2023-07-02T14:07:24+0200</time>
      </trkpt>
      <trkpt lat="44.91338" lon="6.63155">
        <ele>1441.2</ele>
        <time>2023-07-02T14:07:27+0200</time>
      </trkpt>
      <trkpt lat="44.91342" lon="6.63146">
        <ele>1439.7</ele>
        <time>2023-07-02T14:07:29+0200</time>
      </trkpt>
      <trkpt lat="44.91345" lon="6.63142">
        <ele>1439.8</ele>
        <time>2023-07-02T14:07:30+0200</time>
      </trkpt>
      <trkpt lat="44.91348" lon="6.63137">
        <ele>1439.5</ele>
        <time>2023-07-02T14:07:32+0200</time>
      </trkpt>
      <trkpt lat="44.91353" lon="6.63134">
        <ele>1440.6</ele>
        <time>2023-07-02T14:07:34+0200</time>
      </trkpt>
      <trkpt lat="44.91359" lon="6.63128">
        <ele>1441.5</ele>
        <time>2023-07-02T14:07:36+0200</time>
      </trkpt>
      <trkpt lat="44.91367" lon="6.63124">
        <ele>1443.3</ele>
        <time>2023-07-02T14:07:38+0200</time>
      </trkpt>
      <trkpt lat="44.91373" lon="6.63121">
        <ele>1444.8</ele>
        <time>2023-07-02T14:07:40+0200</time>
      </trkpt>
      <trkpt lat="44.91379" lon="6.6312">
        <ele>1446.9</ele>
        <time>2023-07-02T14:07:42+0200</time>
      </trkpt>
      <trkpt lat="44.91384" lon="6.63116">
        <ele>1447.8</ele>
        <time>2023-07-02T14:07:44+0200</time>
      </trkpt>
      <trkpt lat="44.91388" lon="6.63107">
        <ele>1448.3</ele>
        <time>2023-07-02T14:07:46+0200</time>
      </trkpt>
      <trkpt lat="44.91391" lon="6.63101">
        <ele>1449.4</ele>
        <time>2023-07-02T14:07:48+0200</time>
      </trkpt>
      <trkpt lat="44.91393" lon="6.63092">
        <ele>1449.5</ele>
        <time>2023-07-02T14:07:50+0200</time>
      </trkpt>
      <trkpt lat="44.91392" lon="6.6308">
        <ele>1448.4</ele>
        <time>2023-07-02T14:07:52+0200</time>
      </trkpt>
      <trkpt lat="44.91391" lon="6.63071">
        <ele>1447.3</ele>
        <time>2023-07-02T14:07:54+0200</time>
      </trkpt>
      <trkpt lat="44.91391" lon="6.63064">
        <ele>1446.3</ele>
        <time>2023-07-02T14:07:56+0200</time>
      </trkpt>
      <trkpt lat="44.91392" lon="6.63057">
        <ele>1446.7</ele>
        <time>2023-07-02T14:07:57+0200</time>
      </trkpt>
      <trkpt lat="44.91392" lon="6.63046">
        <ele>1445</ele>
        <time>2023-07-02T14:07:59+0200</time>
      </trkpt>
      <trkpt lat="44.91395" lon="6.63039">
        <ele>1445</ele>
        <time>2023-07-02T14:08:01+0200</time>
      </trkpt>
      <trkpt lat="44.914" lon="6.63035">
        <ele>1446.2</ele>
        <time>2023-07-02T14:08:03+0200</time>
      </trkpt>
      <trkpt lat="44.91404" lon="6.6303">
        <ele>1446.8</ele>
        <time>2023-07-02T14:08:05+0200</time>
      </trkpt>
      <trkpt lat="44.91408" lon="6.63025">
        <ele>1446.8</ele>
        <time>2023-07-02T14:08:07+0200</time>
      </trkpt>
      <trkpt lat="44.91414" lon="6.63021">
        <ele>1447.1</ele>
        <time>2023-07-02T14:08:09+0200</time>
      </trkpt>
      <trkpt lat="44.91417" lon="6.63017">
        <ele>1446.8</ele>
        <time>2023-07-02T14:08:11+0200</time>
      </trkpt>
      <trkpt lat="44.91423" lon="6.63015">
        <ele>1447</ele>
        <time>2023-07-02T14:08:13+0200</time>
      </trkpt>
      <trkpt lat="44.91428" lon="6.63009">
        <ele>1445.4</ele>
        <time>2023-07-02T14:08:15+0200</time>
      </trkpt>
      <trkpt lat="44.91434" lon="6.63004">
        <ele>1444.1</ele>
        <time>2023-07-02T14:08:17+0200</time>
      </trkpt>
      <trkpt lat="44.91439" lon="6.63001">
        <ele>1443.8</ele>
        <time>2023-07-02T14:08:19+0200</time>
      </trkpt>
      <trkpt lat="44.91445" lon="6.62998">
        <ele>1443</ele>
        <time>2023-07-02T14:08:21+0200</time>
      </trkpt>
      <trkpt lat="44.91452" lon="6.63002">
        <ele>1444.5</ele>
        <time>2023-07-02T14:08:23+0200</time>
      </trkpt>
      <trkpt lat="44.91458" lon="6.63003">
        <ele>1444.8</ele>
        <time>2023-07-02T14:08:25+0200</time>
      </trkpt>
      <trkpt lat="44.91464" lon="6.63007">
        <ele>1446.3</ele>
        <time>2023-07-02T14:08:27+0200</time>
      </trkpt>
      <trkpt lat="44.91469" lon="6.63011">
        <ele>1447.9</ele>
        <time>2023-07-02T14:08:29+0200</time>
      </trkpt>
      <trkpt lat="44.91474" lon="6.63017">
        <ele>1450.1</ele>
        <time>2023-07-02T14:08:31+0200</time>
      </trkpt>
      <trkpt lat="44.91479" lon="6.63021">
        <ele>1451.3</ele>
        <time>2023-07-02T14:08:33+0200</time>
      </trkpt>
      <trkpt lat="44.91486" lon="6.63024">
        <ele>1451.6</ele>
        <time>2023-07-02T14:08:35+0200</time>
      </trkpt>
      <trkpt lat="44.91491" lon="6.63031">
        <ele>1453.4</ele>
        <time>2023-07-02T14:08:37+0200</time>
      </trkpt>
      <trkpt lat="44.91496" lon="6.63035">
        <ele>1454.5</ele>
        <time>2023-07-02T14:08:39+0200</time>
      </trkpt>
      <trkpt lat="44.91501" lon="6.63039">
        <ele>1455.1</ele>
        <time>2023-07-02T14:08:42+0200</time>
      </trkpt>
      <trkpt lat="44.91509" lon="6.63039">
        <ele>1455.5</ele>
        <time>2023-07-02T14:08:45+0200</time>
      </trkpt>
      <trkpt lat="44.91515" lon="6.63034">
        <ele>1454.3</ele>
        <time>2023-07-02T14:08:47+0200</time>
      </trkpt>
      <trkpt lat="44.91521" lon="6.63033">
        <ele>1454.4</ele>
        <time>2023-07-02T14:08:49+0200</time>
      </trkpt>
      <trkpt lat="44.91525" lon="6.63028">
        <ele>1452.9</ele>
        <time>2023-07-02T14:08:51+0200</time>
      </trkpt>
      <trkpt lat="44.91533" lon="6.6302">
        <ele>1451.1</ele>
        <time>2023-07-02T14:08:53+0200</time>
      </trkpt>
      <trkpt lat="44.91535" lon="6.63014">
        <ele>1449.5</ele>
        <time>2023-07-02T14:08:54+0200</time>
      </trkpt>
      <trkpt lat="44.91537" lon="6.63006">
        <ele>1447.1</ele>
        <time>2023-07-02T14:08:55+0200</time>
      </trkpt>
      <trkpt lat="44.91539" lon="6.62996">
        <ele>1443.5</ele>
        <time>2023-07-02T14:08:57+0200</time>
      </trkpt>
      <trkpt lat="44.91544" lon="6.62988">
        <ele>1441.8</ele>
        <time>2023-07-02T14:08:59+0200</time>
      </trkpt>
      <trkpt lat="44.91548" lon="6.62983">
        <ele>1440.7</ele>
        <time>2023-07-02T14:09:01+0200</time>
      </trkpt>
      <trkpt lat="44.91554" lon="6.62984">
        <ele>1441.9</ele>
        <time>2023-07-02T14:09:02+0200</time>
      </trkpt>
      <trkpt lat="44.91559" lon="6.62987">
        <ele>1444</ele>
        <time>2023-07-02T14:09:03+0200</time>
      </trkpt>
      <trkpt lat="44.91566" lon="6.62991">
        <ele>1447.2</ele>
        <time>2023-07-02T14:09:05+0200</time>
      </trkpt>
      <trkpt lat="44.9157" lon="6.62995">
        <ele>1449.7</ele>
        <time>2023-07-02T14:09:07+0200</time>
      </trkpt>
      <trkpt lat="44.91576" lon="6.62999">
        <ele>1452.8</ele>
        <time>2023-07-02T14:09:10+0200</time>
      </trkpt>
      <trkpt lat="44.91582" lon="6.63002">
        <ele>1455.5</ele>
        <time>2023-07-02T14:09:13+0200</time>
      </trkpt>
      <trkpt lat="44.91588" lon="6.63">
        <ele>1456.6</ele>
        <time>2023-07-02T14:09:15+0200</time>
      </trkpt>
      <trkpt lat="44.91593" lon="6.62999">
        <ele>1457.6</ele>
        <time>2023-07-02T14:09:17+0200</time>
      </trkpt>
      <trkpt lat="44.91598" lon="6.62996">
        <ele>1458.3</ele>
        <time>2023-07-02T14:09:19+0200</time>
      </trkpt>
      <trkpt lat="44.91603" lon="6.62992">
        <ele>1458.3</ele>
        <time>2023-07-02T14:09:22+0200</time>
      </trkpt>
      <trkpt lat="44.91609" lon="6.62988">
        <ele>1458.6</ele>
        <time>2023-07-02T14:09:24+0200</time>
      </trkpt>
      <trkpt lat="44.91615" lon="6.62985">
        <ele>1459.8</ele>
        <time>2023-07-02T14:09:27+0200</time>
      </trkpt>
      <trkpt lat="44.91624" lon="6.62979">
        <ele>1460.3</ele>
        <time>2023-07-02T14:09:29+0200</time>
      </trkpt>
      <trkpt lat="44.91629" lon="6.62974">
        <ele>1459.8</ele>
        <time>2023-07-02T14:09:30+0200</time>
      </trkpt>
      <trkpt lat="44.91634" lon="6.62967">
        <ele>1459.5</ele>
        <time>2023-07-02T14:09:31+0200</time>
      </trkpt>
      <trkpt lat="44.91639" lon="6.62959">
        <ele>1458.1</ele>
        <time>2023-07-02T14:09:32+0200</time>
      </trkpt>
      <trkpt lat="44.91643" lon="6.62949">
        <ele>1455.9</ele>
        <time>2023-07-02T14:09:33+0200</time>
      </trkpt>
      <trkpt lat="44.91644" lon="6.62939">
        <ele>1453.1</ele>
        <time>2023-07-02T14:09:34+0200</time>
      </trkpt>
      <trkpt lat="44.91646" lon="6.62927">
        <ele>1449.6</ele>
        <time>2023-07-02T14:09:35+0200</time>
      </trkpt>
      <trkpt lat="44.91647" lon="6.62915">
        <ele>1446</ele>
        <time>2023-07-02T14:09:36+0200</time>
      </trkpt>
      <trkpt lat="44.91649" lon="6.62903">
        <ele>1442.8</ele>
        <time>2023-07-02T14:09:37+0200</time>
      </trkpt>
      <trkpt lat="44.91654" lon="6.62891">
        <ele>1440.7</ele>
        <time>2023-07-02T14:09:38+0200</time>
      </trkpt>
      <trkpt lat="44.91661" lon="6.62883">
        <ele>1440</ele>
        <time>2023-07-02T14:09:39+0200</time>
      </trkpt>
      <trkpt lat="44.91668" lon="6.62874">
        <ele>1438.8</ele>
        <time>2023-07-02T14:09:40+0200</time>
      </trkpt>
      <trkpt lat="44.91675" lon="6.62863">
        <ele>1436.3</ele>
        <time>2023-07-02T14:09:41+0200</time>
      </trkpt>
      <trkpt lat="44.91683" lon="6.62852">
        <ele>1433.5</ele>
        <time>2023-07-02T14:09:42+0200</time>
      </trkpt>
      <trkpt lat="44.91691" lon="6.62843">
        <ele>1431.2</ele>
        <time>2023-07-02T14:09:43+0200</time>
      </trkpt>
      <trkpt lat="44.91698" lon="6.62836">
        <ele>1429.2</ele>
        <time>2023-07-02T14:09:44+0200</time>
      </trkpt>
      <trkpt lat="44.91706" lon="6.62831">
        <ele>1428</ele>
        <time>2023-07-02T14:09:45+0200</time>
      </trkpt>
      <trkpt lat="44.91715" lon="6.62833">
        <ele>1429.2</ele>
        <time>2023-07-02T14:09:46+0200</time>
      </trkpt>
      <trkpt lat="44.91726" lon="6.62846">
        <ele>1434.7</ele>
        <time>2023-07-02T14:09:47+0200</time>
      </trkpt>
      <trkpt lat="44.91736" lon="6.62853">
        <ele>1436.9</ele>
        <time>2023-07-02T14:09:48+0200</time>
      </trkpt>
      <trkpt lat="44.91745" lon="6.62855">
        <ele>1437.1</ele>
        <time>2023-07-02T14:09:49+0200</time>
      </trkpt>
      <trkpt lat="44.91755" lon="6.62856">
        <ele>1436.8</ele>
        <time>2023-07-02T14:09:50+0200</time>
      </trkpt>
      <trkpt lat="44.91766" lon="6.62857">
        <ele>1436.6</ele>
        <time>2023-07-02T14:09:51+0200</time>
      </trkpt>
      <trkpt lat="44.91778" lon="6.62855">
        <ele>1435.4</ele>
        <time>2023-07-02T14:09:52+0200</time>
      </trkpt>
      <trkpt lat="44.91789" lon="6.62853">
        <ele>1434.5</ele>
        <time>2023-07-02T14:09:53+0200</time>
      </trkpt>
      <trkpt lat="44.91798" lon="6.62848">
        <ele>1433.5</ele>
        <time>2023-07-02T14:09:54+0200</time>
      </trkpt>
      <trkpt lat="44.91805" lon="6.62837">
        <ele>1431.6</ele>
        <time>2023-07-02T14:09:55+0200</time>
      </trkpt>
      <trkpt lat="44.91813" lon="6.62821">
        <ele>1431.9</ele>
        <time>2023-07-02T14:09:56+0200</time>
      </trkpt>
      <trkpt lat="44.91819" lon="6.62809">
        <ele>1432.9</ele>
        <time>2023-07-02T14:09:57+0200</time>
      </trkpt>
      <trkpt lat="44.91819" lon="6.628">
        <ele>1432.6</ele>
        <time>2023-07-02T14:09:58+0200</time>
      </trkpt>
      <trkpt lat="44.91816" lon="6.62792">
        <ele>1431</ele>
        <time>2023-07-02T14:09:59+0200</time>
      </trkpt>
      <trkpt lat="44.91812" lon="6.6279">
        <ele>1429.2</ele>
        <time>2023-07-02T14:10:00+0200</time>
      </trkpt>
      <trkpt lat="44.91803" lon="6.62795">
        <ele>1426.7</ele>
        <time>2023-07-02T14:10:01+0200</time>
      </trkpt>
      <trkpt lat="44.91797" lon="6.62799">
        <ele>1425.8</ele>
        <time>2023-07-02T14:10:02+0200</time>
      </trkpt>
      <trkpt lat="44.9179" lon="6.62802">
        <ele>1425</ele>
        <time>2023-07-02T14:10:03+0200</time>
      </trkpt>
      <trkpt lat="44.91784" lon="6.62804">
        <ele>1423.9</ele>
        <time>2023-07-02T14:10:04+0200</time>
      </trkpt>
      <trkpt lat="44.91777" lon="6.62806">
        <ele>1423</ele>
        <time>2023-07-02T14:10:05+0200</time>
      </trkpt>
      <trkpt lat="44.91769" lon="6.62807">
        <ele>1422.8</ele>
        <time>2023-07-02T14:10:06+0200</time>
      </trkpt>
      <trkpt lat="44.91759" lon="6.62811">
        <ele>1423</ele>
        <time>2023-07-02T14:10:07+0200</time>
      </trkpt>
      <trkpt lat="44.91749" lon="6.62809">
        <ele>1421.9</ele>
        <time>2023-07-02T14:10:08+0200</time>
      </trkpt>
      <trkpt lat="44.91743" lon="6.62809">
        <ele>1421.8</ele>
        <time>2023-07-02T14:10:09+0200</time>
      </trkpt>
      <trkpt lat="44.91738" lon="6.62805">
        <ele>1420.4</ele>
        <time>2023-07-02T14:10:10+0200</time>
      </trkpt>
      <trkpt lat="44.91735" lon="6.62799">
        <ele>1419</ele>
        <time>2023-07-02T14:10:11+0200</time>
      </trkpt>
      <trkpt lat="44.91742" lon="6.62795">
        <ele>1418.5</ele>
        <time>2023-07-02T14:10:12+0200</time>
      </trkpt>
      <trkpt lat="44.91753" lon="6.62798">
        <ele>1419.9</ele>
        <time>2023-07-02T14:10:13+0200</time>
      </trkpt>
      <trkpt lat="44.91761" lon="6.62796">
        <ele>1420.3</ele>
        <time>2023-07-02T14:10:14+0200</time>
      </trkpt>
      <trkpt lat="44.91766" lon="6.62787">
        <ele>1419.6</ele>
        <time>2023-07-02T14:10:15+0200</time>
      </trkpt>
      <trkpt lat="44.91769" lon="6.62775">
        <ele>1418.3</ele>
        <time>2023-07-02T14:10:16+0200</time>
      </trkpt>
      <trkpt lat="44.9177" lon="6.62764">
        <ele>1417.1</ele>
        <time>2023-07-02T14:10:17+0200</time>
      </trkpt>
      <trkpt lat="44.91774" lon="6.62754">
        <ele>1416.5</ele>
        <time>2023-07-02T14:10:18+0200</time>
      </trkpt>
      <trkpt lat="44.91776" lon="6.62744">
        <ele>1416</ele>
        <time>2023-07-02T14:10:19+0200</time>
      </trkpt>
      <trkpt lat="44.91771" lon="6.62738">
        <ele>1414.3</ele>
        <time>2023-07-02T14:10:20+0200</time>
      </trkpt>
      <trkpt lat="44.91763" lon="6.62739">
        <ele>1412.3</ele>
        <time>2023-07-02T14:10:21+0200</time>
      </trkpt>
      <trkpt lat="44.91756" lon="6.62746">
        <ele>1411.6</ele>
        <time>2023-07-02T14:10:22+0200</time>
      </trkpt>
      <trkpt lat="44.91751" lon="6.62752">
        <ele>1411.7</ele>
        <time>2023-07-02T14:10:23+0200</time>
      </trkpt>
      <trkpt lat="44.91747" lon="6.62759">
        <ele>1411.9</ele>
        <time>2023-07-02T14:10:24+0200</time>
      </trkpt>
      <trkpt lat="44.91739" lon="6.62763">
        <ele>1411.4</ele>
        <time>2023-07-02T14:10:25+0200</time>
      </trkpt>
      <trkpt lat="44.91732" lon="6.62768">
        <ele>1411.4</ele>
        <time>2023-07-02T14:10:26+0200</time>
      </trkpt>
      <trkpt lat="44.91726" lon="6.62765">
        <ele>1409.7</ele>
        <time>2023-07-02T14:10:27+0200</time>
      </trkpt>
      <trkpt lat="44.9172" lon="6.62763">
        <ele>1408.2</ele>
        <time>2023-07-02T14:10:28+0200</time>
      </trkpt>
      <trkpt lat="44.91718" lon="6.62751">
        <ele>1405.2</ele>
        <time>2023-07-02T14:10:30+0200</time>
      </trkpt>
      <trkpt lat="44.91728" lon="6.62747">
        <ele>1406.3</ele>
        <time>2023-07-02T14:10:32+0200</time>
      </trkpt>
      <trkpt lat="44.91731" lon="6.62738">
        <ele>1405</ele>
        <time>2023-07-02T14:10:33+0200</time>
      </trkpt>
      <trkpt lat="44.91733" lon="6.62728">
        <ele>1403.4</ele>
        <time>2023-07-02T14:10:34+0200</time>
      </trkpt>
      <trkpt lat="44.91732" lon="6.62715">
        <ele>1401.5</ele>
        <time>2023-07-02T14:10:35+0200</time>
      </trkpt>
      <trkpt lat="44.91733" lon="6.62704">
        <ele>1400.7</ele>
        <time>2023-07-02T14:10:36+0200</time>
      </trkpt>
      <trkpt lat="44.91734" lon="6.62694">
        <ele>1399.9</ele>
        <time>2023-07-02T14:10:37+0200</time>
      </trkpt>
      <trkpt lat="44.91731" lon="6.62684">
        <ele>1398.6</ele>
        <time>2023-07-02T14:10:38+0200</time>
      </trkpt>
      <trkpt lat="44.91725" lon="6.62678">
        <ele>1396.5</ele>
        <time>2023-07-02T14:10:39+0200</time>
      </trkpt>
      <trkpt lat="44.91715" lon="6.62677">
        <ele>1394.1</ele>
        <time>2023-07-02T14:10:40+0200</time>
      </trkpt>
      <trkpt lat="44.91707" lon="6.62687">
        <ele>1393</ele>
        <time>2023-07-02T14:10:41+0200</time>
      </trkpt>
      <trkpt lat="44.91703" lon="6.62698">
        <ele>1393.3</ele>
        <time>2023-07-02T14:10:42+0200</time>
      </trkpt>
      <trkpt lat="44.91697" lon="6.62708">
        <ele>1393.4</ele>
        <time>2023-07-02T14:10:43+0200</time>
      </trkpt>
      <trkpt lat="44.91693" lon="6.6271">
        <ele>1392.9</ele>
        <time>2023-07-02T14:10:44+0200</time>
      </trkpt>
      <trkpt lat="44.91689" lon="6.62705">
        <ele>1391.4</ele>
        <time>2023-07-02T14:10:45+0200</time>
      </trkpt>
      <trkpt lat="44.91686" lon="6.62694">
        <ele>1389.2</ele>
        <time>2023-07-02T14:10:46+0200</time>
      </trkpt>
      <trkpt lat="44.9169" lon="6.62681">
        <ele>1388.4</ele>
        <time>2023-07-02T14:10:47+0200</time>
      </trkpt>
      <trkpt lat="44.91693" lon="6.62669">
        <ele>1388</ele>
        <time>2023-07-02T14:10:48+0200</time>
      </trkpt>
      <trkpt lat="44.91694" lon="6.62655">
        <ele>1387</ele>
        <time>2023-07-02T14:10:49+0200</time>
      </trkpt>
      <trkpt lat="44.9169" lon="6.62646">
        <ele>1385.4</ele>
        <time>2023-07-02T14:10:50+0200</time>
      </trkpt>
      <trkpt lat="44.91681" lon="6.62644">
        <ele>1383</ele>
        <time>2023-07-02T14:10:51+0200</time>
      </trkpt>
      <trkpt lat="44.91672" lon="6.6265">
        <ele>1381.5</ele>
        <time>2023-07-02T14:10:52+0200</time>
      </trkpt>
      <trkpt lat="44.91666" lon="6.62659">
        <ele>1381</ele>
        <time>2023-07-02T14:10:53+0200</time>
      </trkpt>
      <trkpt lat="44.9166" lon="6.62665">
        <ele>1380.4</ele>
        <time>2023-07-02T14:10:54+0200</time>
      </trkpt>
      <trkpt lat="44.91654" lon="6.62669">
        <ele>1379.5</ele>
        <time>2023-07-02T14:10:55+0200</time>
      </trkpt>
      <trkpt lat="44.91649" lon="6.62667">
        <ele>1378.2</ele>
        <time>2023-07-02T14:10:56+0200</time>
      </trkpt>
      <trkpt lat="44.91644" lon="6.6266">
        <ele>1376.6</ele>
        <time>2023-07-02T14:10:57+0200</time>
      </trkpt>
      <trkpt lat="44.91644" lon="6.62646">
        <ele>1375.4</ele>
        <time>2023-07-02T14:10:58+0200</time>
      </trkpt>
      <trkpt lat="44.91652" lon="6.62633">
        <ele>1375.9</ele>
        <time>2023-07-02T14:10:59+0200</time>
      </trkpt>
      <trkpt lat="44.91651" lon="6.62618">
        <ele>1374.8</ele>
        <time>2023-07-02T14:11:00+0200</time>
      </trkpt>
      <trkpt lat="44.91657" lon="6.62605">
        <ele>1374.8</ele>
        <time>2023-07-02T14:11:01+0200</time>
      </trkpt>
      <trkpt lat="44.91659" lon="6.62593">
        <ele>1374.3</ele>
        <time>2023-07-02T14:11:02+0200</time>
      </trkpt>
      <trkpt lat="44.91654" lon="6.62586">
        <ele>1372.9</ele>
        <time>2023-07-02T14:11:03+0200</time>
      </trkpt>
      <trkpt lat="44.91645" lon="6.62582">
        <ele>1370.9</ele>
        <time>2023-07-02T14:11:04+0200</time>
      </trkpt>
      <trkpt lat="44.91636" lon="6.62586">
        <ele>1369.7</ele>
        <time>2023-07-02T14:11:05+0200</time>
      </trkpt>
      <trkpt lat="44.91628" lon="6.6259">
        <ele>1368.4</ele>
        <time>2023-07-02T14:11:06+0200</time>
      </trkpt>
      <trkpt lat="44.91621" lon="6.62595">
        <ele>1367.4</ele>
        <time>2023-07-02T14:11:07+0200</time>
      </trkpt>
      <trkpt lat="44.91612" lon="6.626">
        <ele>1365.8</ele>
        <time>2023-07-02T14:11:08+0200</time>
      </trkpt>
      <trkpt lat="44.91603" lon="6.62605">
        <ele>1364.3</ele>
        <time>2023-07-02T14:11:09+0200</time>
      </trkpt>
      <trkpt lat="44.91594" lon="6.6261">
        <ele>1362.8</ele>
        <time>2023-07-02T14:11:10+0200</time>
      </trkpt>
      <trkpt lat="44.91587" lon="6.62612">
        <ele>1361.7</ele>
        <time>2023-07-02T14:11:11+0200</time>
      </trkpt>
      <trkpt lat="44.91579" lon="6.62599">
        <ele>1359.8</ele>
        <time>2023-07-02T14:11:13+0200</time>
      </trkpt>
      <trkpt lat="44.9158" lon="6.62583">
        <ele>1359.3</ele>
        <time>2023-07-02T14:11:14+0200</time>
      </trkpt>
      <trkpt lat="44.91592" lon="6.62578">
        <ele>1361.2</ele>
        <time>2023-07-02T14:11:15+0200</time>
      </trkpt>
      <trkpt lat="44.91595" lon="6.62569">
        <ele>1361.4</ele>
        <time>2023-07-02T14:11:16+0200</time>
      </trkpt>
      <trkpt lat="44.91597" lon="6.62555">
        <ele>1360.9</ele>
        <time>2023-07-02T14:11:17+0200</time>
      </trkpt>
      <trkpt lat="44.91593" lon="6.62543">
        <ele>1359.5</ele>
        <time>2023-07-02T14:11:18+0200</time>
      </trkpt>
      <trkpt lat="44.91585" lon="6.62537">
        <ele>1357.9</ele>
        <time>2023-07-02T14:11:19+0200</time>
      </trkpt>
      <trkpt lat="44.91573" lon="6.6253">
        <ele>1355.6</ele>
        <time>2023-07-02T14:11:20+0200</time>
      </trkpt>
      <trkpt lat="44.91562" lon="6.62527">
        <ele>1353.9</ele>
        <time>2023-07-02T14:11:21+0200</time>
      </trkpt>
      <trkpt lat="44.91555" lon="6.62523">
        <ele>1352.5</ele>
        <time>2023-07-02T14:11:22+0200</time>
      </trkpt>
      <trkpt lat="44.91547" lon="6.62521">
        <ele>1351.3</ele>
        <time>2023-07-02T14:11:23+0200</time>
      </trkpt>
      <trkpt lat="44.91539" lon="6.62532">
        <ele>1350.8</ele>
        <time>2023-07-02T14:11:24+0200</time>
      </trkpt>
      <trkpt lat="44.91533" lon="6.62544">
        <ele>1350.4</ele>
        <time>2023-07-02T14:11:25+0200</time>
      </trkpt>
      <trkpt lat="44.91526" lon="6.62546">
        <ele>1349.4</ele>
        <time>2023-07-02T14:11:26+0200</time>
      </trkpt>
      <trkpt lat="44.9152" lon="6.62543">
        <ele>1348.4</ele>
        <time>2023-07-02T14:11:27+0200</time>
      </trkpt>
      <trkpt lat="44.91516" lon="6.62521">
        <ele>1346.8</ele>
        <time>2023-07-02T14:11:28+0200</time>
      </trkpt>
      <trkpt lat="44.91513" lon="6.62507">
        <ele>1345.4</ele>
        <time>2023-07-02T14:11:29+0200</time>
      </trkpt>
      <trkpt lat="44.91505" lon="6.62502">
        <ele>1343.8</ele>
        <time>2023-07-02T14:11:30+0200</time>
      </trkpt>
      <trkpt lat="44.91495" lon="6.62505">
        <ele>1342.7</ele>
        <time>2023-07-02T14:11:31+0200</time>
      </trkpt>
      <trkpt lat="44.91492" lon="6.62518">
        <ele>1343.2</ele>
        <time>2023-07-02T14:11:32+0200</time>
      </trkpt>
      <trkpt lat="44.9149" lon="6.62524">
        <ele>1343.3</ele>
        <time>2023-07-02T14:11:33+0200</time>
      </trkpt>
      <trkpt lat="44.91486" lon="6.62511">
        <ele>1341.7</ele>
        <time>2023-07-02T14:11:35+0200</time>
      </trkpt>
      <trkpt lat="44.91491" lon="6.62508">
        <ele>1342.2</ele>
        <time>2023-07-02T14:11:36+0200</time>
      </trkpt>
      <trkpt lat="44.91494" lon="6.62504">
        <ele>1342.4</ele>
        <time>2023-07-02T14:11:37+0200</time>
      </trkpt>
      <trkpt lat="44.915" lon="6.62494">
        <ele>1342.5</ele>
        <time>2023-07-02T14:11:39+0200</time>
      </trkpt>
      <trkpt lat="44.91502" lon="6.62488">
        <ele>1342.4</ele>
        <time>2023-07-02T14:11:40+0200</time>
      </trkpt>
      <trkpt lat="44.91504" lon="6.62481">
        <ele>1342.2</ele>
        <time>2023-07-02T14:11:41+0200</time>
      </trkpt>
      <trkpt lat="44.91507" lon="6.62473">
        <ele>1342</ele>
        <time>2023-07-02T14:11:42+0200</time>
      </trkpt>
      <trkpt lat="44.91509" lon="6.62466">
        <ele>1341.7</ele>
        <time>2023-07-02T14:11:43+0200</time>
      </trkpt>
      <trkpt lat="44.91511" lon="6.62459">
        <ele>1341.4</ele>
        <time>2023-07-02T14:11:44+0200</time>
      </trkpt>
      <trkpt lat="44.91515" lon="6.62451">
        <ele>1341.2</ele>
        <time>2023-07-02T14:11:45+0200</time>
      </trkpt>
      <trkpt lat="44.91515" lon="6.6244">
        <ele>1340.2</ele>
        <time>2023-07-02T14:11:46+0200</time>
      </trkpt>
      <trkpt lat="44.91517" lon="6.62432">
        <ele>1339.7</ele>
        <time>2023-07-02T14:11:47+0200</time>
      </trkpt>
      <trkpt lat="44.91521" lon="6.62423">
        <ele>1339.5</ele>
        <time>2023-07-02T14:11:48+0200</time>
      </trkpt>
      <trkpt lat="44.91529" lon="6.62424">
        <ele>1340.6</ele>
        <time>2023-07-02T14:11:49+0200</time>
      </trkpt>
      <trkpt lat="44.91534" lon="6.62428">
        <ele>1341.6</ele>
        <time>2023-07-02T14:11:50+0200</time>
      </trkpt>
      <trkpt lat="44.91537" lon="6.62436">
        <ele>1342.4</ele>
        <time>2023-07-02T14:11:52+0200</time>
      </trkpt>
      <trkpt lat="44.91537" lon="6.62445">
        <ele>1343.1</ele>
        <time>2023-07-02T14:11:57+0200</time>
      </trkpt>
      <trkpt lat="44.91542" lon="6.62451">
        <ele>1344.2</ele>
        <time>2023-07-02T14:12:02+0200</time>
      </trkpt>
      <trkpt lat="44.91543" lon="6.62458">
        <ele>1345</ele>
        <time>2023-07-02T14:12:06+0200</time>
      </trkpt>
      <trkpt lat="44.91545" lon="6.62464">
        <ele>1346</ele>
        <time>2023-07-02T14:12:11+0200</time>
      </trkpt>
      <trkpt lat="44.9155" lon="6.62467">
        <ele>1346.8</ele>
        <time>2023-07-02T14:12:14+0200</time>
      </trkpt>
      <trkpt lat="44.91554" lon="6.62471">
        <ele>1347.7</ele>
        <time>2023-07-02T14:12:17+0200</time>
      </trkpt>
      <trkpt lat="44.91558" lon="6.62475">
        <ele>1348.6</ele>
        <time>2023-07-02T14:12:22+0200</time>
      </trkpt>
      <trkpt lat="44.91563" lon="6.62474">
        <ele>1349.2</ele>
        <time>2023-07-02T14:12:25+0200</time>
      </trkpt>
      <trkpt lat="44.91567" lon="6.62472">
        <ele>1349.6</ele>
        <time>2023-07-02T14:12:28+0200</time>
      </trkpt>
      <trkpt lat="44.91572" lon="6.62466">
        <ele>1349.8</ele>
        <time>2023-07-02T14:12:31+0200</time>
      </trkpt>
      <trkpt lat="44.91575" lon="6.62461">
        <ele>1349.8</ele>
        <time>2023-07-02T14:12:34+0200</time>
      </trkpt>
    </trkseg>
  </trk>
</gpx>